<?xml version="1.0" encoding="UTF-8" standalone="no" ?>
<gpx xmlns="http://www.topografix.com/GPX/1/1" xmlns:xsi="http://www.w3.org/2001/XMLSchema-instance" xsi:schemaLocation="http://www.topografix.com/GPX/1/1 http://www.topografix.com/GPX/1/1/gpx.xsd" version="1.1" creator="VisuGPX - https://www.visugpx.com">
  <metadata>
    <name>Vallet - Pont Caffino - Vallet.gpx</name>
  </metadata>
  <trk>
    <name><![CDATA[Vallet - Pont Caffino (boucle).gpx]]></name>
    <trkseg>
      <trkpt lat="47.16804" lon="-1.27268">
        <ele>42.15748</ele>
        <time>2020-07-07T12:21:41Z</time>
      </trkpt>
      <trkpt lat="47.16804" lon="-1.27268">
        <ele>42.072926</ele>
        <time>2020-07-07T12:21:42Z</time>
      </trkpt>
      <trkpt lat="47.16808" lon="-1.27267">
        <ele>42.40057</ele>
        <time>2020-07-07T12:22:09Z</time>
      </trkpt>
      <trkpt lat="47.16809" lon="-1.27268">
        <ele>41.911747</ele>
        <time>2020-07-07T12:22:10Z</time>
      </trkpt>
      <trkpt lat="47.16804" lon="-1.27274">
        <ele>42.569675</ele>
        <time>2020-07-07T12:22:19Z</time>
      </trkpt>
      <trkpt lat="47.16802" lon="-1.2728">
        <ele>42.44813</ele>
        <time>2020-07-07T12:22:22Z</time>
      </trkpt>
      <trkpt lat="47.16796" lon="-1.27287">
        <ele>42.466625</ele>
        <time>2020-07-07T12:22:24Z</time>
      </trkpt>
      <trkpt lat="47.1679" lon="-1.27286">
        <ele>42.77049</ele>
        <time>2020-07-07T12:22:26Z</time>
      </trkpt>
      <trkpt lat="47.16785" lon="-1.27281">
        <ele>42.419064</ele>
        <time>2020-07-07T12:22:28Z</time>
      </trkpt>
      <trkpt lat="47.16778" lon="-1.27278">
        <ele>42.477196</ele>
        <time>2020-07-07T12:22:30Z</time>
      </trkpt>
      <trkpt lat="47.16772" lon="-1.27284">
        <ele>42.144268</ele>
        <time>2020-07-07T12:22:32Z</time>
      </trkpt>
      <trkpt lat="47.16768" lon="-1.27292">
        <ele>42.057076</ele>
        <time>2020-07-07T12:22:34Z</time>
      </trkpt>
      <trkpt lat="47.16767" lon="-1.27299">
        <ele>42.17862</ele>
        <time>2020-07-07T12:22:36Z</time>
      </trkpt>
      <trkpt lat="47.16769" lon="-1.27308">
        <ele>42.683292</ele>
        <time>2020-07-07T12:22:38Z</time>
      </trkpt>
      <trkpt lat="47.16772" lon="-1.27316">
        <ele>42.350365</ele>
        <time>2020-07-07T12:22:40Z</time>
      </trkpt>
      <trkpt lat="47.16777" lon="-1.27323">
        <ele>42.411137</ele>
        <time>2020-07-07T12:22:42Z</time>
      </trkpt>
      <trkpt lat="47.16783" lon="-1.27329">
        <ele>42.799553</ele>
        <time>2020-07-07T12:22:44Z</time>
      </trkpt>
      <trkpt lat="47.16787" lon="-1.27337">
        <ele>42.67272</ele>
        <time>2020-07-07T12:22:46Z</time>
      </trkpt>
      <trkpt lat="47.1679" lon="-1.27345">
        <ele>42.79691</ele>
        <time>2020-07-07T12:22:48Z</time>
      </trkpt>
      <trkpt lat="47.16786" lon="-1.27354">
        <ele>42.79691</ele>
        <time>2020-07-07T12:22:50Z</time>
      </trkpt>
      <trkpt lat="47.16781" lon="-1.27364">
        <ele>42.812763</ele>
        <time>2020-07-07T12:22:52Z</time>
      </trkpt>
      <trkpt lat="47.16776" lon="-1.27374">
        <ele>42.757275</ele>
        <time>2020-07-07T12:22:54Z</time>
      </trkpt>
      <trkpt lat="47.16771" lon="-1.27384">
        <ele>42.86825</ele>
        <time>2020-07-07T12:22:56Z</time>
      </trkpt>
      <trkpt lat="47.16768" lon="-1.27389">
        <ele>42.696503</ele>
        <time>2020-07-07T12:22:57Z</time>
      </trkpt>
      <trkpt lat="47.16762" lon="-1.27398">
        <ele>42.65423</ele>
        <time>2020-07-07T12:22:59Z</time>
      </trkpt>
      <trkpt lat="47.16758" lon="-1.27403">
        <ele>42.921097</ele>
        <time>2020-07-07T12:23:00Z</time>
      </trkpt>
      <trkpt lat="47.16755" lon="-1.27408">
        <ele>42.289593</ele>
        <time>2020-07-07T12:23:01Z</time>
      </trkpt>
      <trkpt lat="47.16753" lon="-1.27414">
        <ele>42.318657</ele>
        <time>2020-07-07T12:23:02Z</time>
      </trkpt>
      <trkpt lat="47.16749" lon="-1.2742">
        <ele>42.79427</ele>
        <time>2020-07-07T12:23:03Z</time>
      </trkpt>
      <trkpt lat="47.16746" lon="-1.27426">
        <ele>42.286953</ele>
        <time>2020-07-07T12:23:04Z</time>
      </trkpt>
      <trkpt lat="47.16743" lon="-1.27432">
        <ele>42.41378</ele>
        <time>2020-07-07T12:23:05Z</time>
      </trkpt>
      <trkpt lat="47.1674" lon="-1.27438">
        <ele>42.825974</ele>
        <time>2020-07-07T12:23:06Z</time>
      </trkpt>
      <trkpt lat="47.16737" lon="-1.27444">
        <ele>42.54325</ele>
        <time>2020-07-07T12:23:07Z</time>
      </trkpt>
      <trkpt lat="47.16734" lon="-1.2745">
        <ele>41.444065</ele>
        <time>2020-07-07T12:23:08Z</time>
      </trkpt>
      <trkpt lat="47.16731" lon="-1.27456">
        <ele>43.187965</ele>
        <time>2020-07-07T12:23:09Z</time>
      </trkpt>
      <trkpt lat="47.16727" lon="-1.27462">
        <ele>42.405853</ele>
        <time>2020-07-07T12:23:10Z</time>
      </trkpt>
      <trkpt lat="47.16724" lon="-1.27467">
        <ele>42.625164</ele>
        <time>2020-07-07T12:23:11Z</time>
      </trkpt>
      <trkpt lat="47.16721" lon="-1.27472">
        <ele>42.85504</ele>
        <time>2020-07-07T12:23:12Z</time>
      </trkpt>
      <trkpt lat="47.16718" lon="-1.27478">
        <ele>42.62252</ele>
        <time>2020-07-07T12:23:13Z</time>
      </trkpt>
      <trkpt lat="47.16715" lon="-1.27484">
        <ele>42.347725</ele>
        <time>2020-07-07T12:23:14Z</time>
      </trkpt>
      <trkpt lat="47.16712" lon="-1.2749">
        <ele>42.115204</ele>
        <time>2020-07-07T12:23:15Z</time>
      </trkpt>
      <trkpt lat="47.1671" lon="-1.27497">
        <ele>42.601383</ele>
        <time>2020-07-07T12:23:16Z</time>
      </trkpt>
      <trkpt lat="47.16708" lon="-1.27504">
        <ele>42.249958</ele>
        <time>2020-07-07T12:23:17Z</time>
      </trkpt>
      <trkpt lat="47.16704" lon="-1.27515">
        <ele>41.96988</ele>
        <time>2020-07-07T12:23:19Z</time>
      </trkpt>
      <trkpt lat="47.16699" lon="-1.27526">
        <ele>42.01744</ele>
        <time>2020-07-07T12:23:21Z</time>
      </trkpt>
      <trkpt lat="47.16694" lon="-1.27537">
        <ele>41.954025</ele>
        <time>2020-07-07T12:23:23Z</time>
      </trkpt>
      <trkpt lat="47.16691" lon="-1.27543">
        <ele>41.782276</ele>
        <time>2020-07-07T12:23:24Z</time>
      </trkpt>
      <trkpt lat="47.16688" lon="-1.27549">
        <ele>42.212967</ele>
        <time>2020-07-07T12:23:25Z</time>
      </trkpt>
      <trkpt lat="47.16686" lon="-1.27555">
        <ele>42.138985</ele>
        <time>2020-07-07T12:23:26Z</time>
      </trkpt>
      <trkpt lat="47.16682" lon="-1.27561">
        <ele>41.42821</ele>
        <time>2020-07-07T12:23:27Z</time>
      </trkpt>
      <trkpt lat="47.1668" lon="-1.27567">
        <ele>41.49691</ele>
        <time>2020-07-07T12:23:28Z</time>
      </trkpt>
      <trkpt lat="47.16677" lon="-1.27573">
        <ele>41.488983</ele>
        <time>2020-07-07T12:23:29Z</time>
      </trkpt>
      <trkpt lat="47.16674" lon="-1.27579">
        <ele>41.721504</ele>
        <time>2020-07-07T12:23:30Z</time>
      </trkpt>
      <trkpt lat="47.16671" lon="-1.27585">
        <ele>41.24325</ele>
        <time>2020-07-07T12:23:31Z</time>
      </trkpt>
      <trkpt lat="47.16669" lon="-1.27592">
        <ele>41.187767</ele>
        <time>2020-07-07T12:23:32Z</time>
      </trkpt>
      <trkpt lat="47.16666" lon="-1.27597">
        <ele>41.253822</ele>
        <time>2020-07-07T12:23:33Z</time>
      </trkpt>
      <trkpt lat="47.16663" lon="-1.27603">
        <ele>40.9711</ele>
        <time>2020-07-07T12:23:34Z</time>
      </trkpt>
      <trkpt lat="47.1666" lon="-1.27608">
        <ele>40.976383</ele>
        <time>2020-07-07T12:23:35Z</time>
      </trkpt>
      <trkpt lat="47.16657" lon="-1.27614">
        <ele>41.016018</ele>
        <time>2020-07-07T12:23:36Z</time>
      </trkpt>
      <trkpt lat="47.16654" lon="-1.27619">
        <ele>41.486343</ele>
        <time>2020-07-07T12:23:37Z</time>
      </trkpt>
      <trkpt lat="47.16651" lon="-1.27624">
        <ele>40.770287</ele>
        <time>2020-07-07T12:23:38Z</time>
      </trkpt>
      <trkpt lat="47.16645" lon="-1.27633">
        <ele>41.005447</ele>
        <time>2020-07-07T12:23:40Z</time>
      </trkpt>
      <trkpt lat="47.16641" lon="-1.27644">
        <ele>40.70687</ele>
        <time>2020-07-07T12:23:42Z</time>
      </trkpt>
      <trkpt lat="47.16636" lon="-1.27653">
        <ele>41.393864</ele>
        <time>2020-07-07T12:23:44Z</time>
      </trkpt>
      <trkpt lat="47.1663" lon="-1.27662">
        <ele>41.581463</ele>
        <time>2020-07-07T12:23:46Z</time>
      </trkpt>
      <trkpt lat="47.16625" lon="-1.27672">
        <ele>40.66988</ele>
        <time>2020-07-07T12:23:48Z</time>
      </trkpt>
      <trkpt lat="47.16625" lon="-1.27682">
        <ele>41.280247</ele>
        <time>2020-07-07T12:23:50Z</time>
      </trkpt>
      <trkpt lat="47.16629" lon="-1.27686">
        <ele>41.666016</ele>
        <time>2020-07-07T12:23:52Z</time>
      </trkpt>
      <trkpt lat="47.16635" lon="-1.27691">
        <ele>41.412357</ele>
        <time>2020-07-07T12:23:54Z</time>
      </trkpt>
      <trkpt lat="47.1664" lon="-1.27698">
        <ele>42.025368</ele>
        <time>2020-07-07T12:23:56Z</time>
      </trkpt>
      <trkpt lat="47.16645" lon="-1.27705">
        <ele>41.964596</ele>
        <time>2020-07-07T12:23:58Z</time>
      </trkpt>
      <trkpt lat="47.16652" lon="-1.27713">
        <ele>42.51947</ele>
        <time>2020-07-07T12:24:00Z</time>
      </trkpt>
      <trkpt lat="47.16658" lon="-1.2772">
        <ele>42.596096</ele>
        <time>2020-07-07T12:24:02Z</time>
      </trkpt>
      <trkpt lat="47.16663" lon="-1.27727">
        <ele>43.391422</ele>
        <time>2020-07-07T12:24:04Z</time>
      </trkpt>
      <trkpt lat="47.16669" lon="-1.27734">
        <ele>43.314796</ele>
        <time>2020-07-07T12:24:06Z</time>
      </trkpt>
      <trkpt lat="47.16675" lon="-1.27742">
        <ele>44.036137</ele>
        <time>2020-07-07T12:24:08Z</time>
      </trkpt>
      <trkpt lat="47.16678" lon="-1.27746">
        <ele>43.859104</ele>
        <time>2020-07-07T12:24:09Z</time>
      </trkpt>
      <trkpt lat="47.16684" lon="-1.27752">
        <ele>44.08898</ele>
        <time>2020-07-07T12:24:11Z</time>
      </trkpt>
      <trkpt lat="47.16686" lon="-1.27755">
        <ele>44.707275</ele>
        <time>2020-07-07T12:24:12Z</time>
      </trkpt>
      <trkpt lat="47.16689" lon="-1.27759">
        <ele>44.664997</ele>
        <time>2020-07-07T12:24:13Z</time>
      </trkpt>
      <trkpt lat="47.16695" lon="-1.27765">
        <ele>45.095688</ele>
        <time>2020-07-07T12:24:15Z</time>
      </trkpt>
      <trkpt lat="47.16698" lon="-1.27769">
        <ele>44.99528</ele>
        <time>2020-07-07T12:24:16Z</time>
      </trkpt>
      <trkpt lat="47.16703" lon="-1.27777">
        <ele>45.058697</ele>
        <time>2020-07-07T12:24:18Z</time>
      </trkpt>
      <trkpt lat="47.16709" lon="-1.27785">
        <ele>44.757477</ele>
        <time>2020-07-07T12:24:20Z</time>
      </trkpt>
      <trkpt lat="47.16715" lon="-1.27792">
        <ele>45.669064</ele>
        <time>2020-07-07T12:24:22Z</time>
      </trkpt>
      <trkpt lat="47.16717" lon="-1.27794">
        <ele>45.600365</ele>
        <time>2020-07-07T12:24:23Z</time>
      </trkpt>
      <trkpt lat="47.16721" lon="-1.27799">
        <ele>45.196095</ele>
        <time>2020-07-07T12:24:25Z</time>
      </trkpt>
      <trkpt lat="47.16723" lon="-1.27801">
        <ele>45.293858</ele>
        <time>2020-07-07T12:24:26Z</time>
      </trkpt>
      <trkpt lat="47.1672" lon="-1.2781">
        <ele>45.859306</ele>
        <time>2020-07-07T12:24:28Z</time>
      </trkpt>
      <trkpt lat="47.16717" lon="-1.27819">
        <ele>46.02577</ele>
        <time>2020-07-07T12:24:30Z</time>
      </trkpt>
      <trkpt lat="47.16711" lon="-1.27826">
        <ele>45.70341</ele>
        <time>2020-07-07T12:24:32Z</time>
      </trkpt>
      <trkpt lat="47.16703" lon="-1.27832">
        <ele>45.38898</ele>
        <time>2020-07-07T12:24:34Z</time>
      </trkpt>
      <trkpt lat="47.16695" lon="-1.27837">
        <ele>44.802395</ele>
        <time>2020-07-07T12:24:36Z</time>
      </trkpt>
      <trkpt lat="47.16688" lon="-1.27843">
        <ele>44.857883</ele>
        <time>2020-07-07T12:24:38Z</time>
      </trkpt>
      <trkpt lat="47.1668" lon="-1.27849">
        <ele>44.881664</ele>
        <time>2020-07-07T12:24:40Z</time>
      </trkpt>
      <trkpt lat="47.16673" lon="-1.27853">
        <ele>44.807682</ele>
        <time>2020-07-07T12:24:42Z</time>
      </trkpt>
      <trkpt lat="47.16668" lon="-1.27859">
        <ele>44.93451</ele>
        <time>2020-07-07T12:24:45Z</time>
      </trkpt>
      <trkpt lat="47.1667" lon="-1.27866">
        <ele>45.3652</ele>
        <time>2020-07-07T12:24:47Z</time>
      </trkpt>
      <trkpt lat="47.16675" lon="-1.27876">
        <ele>45.521095</ele>
        <time>2020-07-07T12:24:49Z</time>
      </trkpt>
      <trkpt lat="47.16681" lon="-1.27886">
        <ele>46.157883</ele>
        <time>2020-07-07T12:24:51Z</time>
      </trkpt>
      <trkpt lat="47.16683" lon="-1.27891">
        <ele>45.663776</ele>
        <time>2020-07-07T12:24:52Z</time>
      </trkpt>
      <trkpt lat="47.16684" lon="-1.279">
        <ele>46.210728</ele>
        <time>2020-07-07T12:24:54Z</time>
      </trkpt>
      <trkpt lat="47.16684" lon="-1.27905">
        <ele>45.872517</ele>
        <time>2020-07-07T12:24:55Z</time>
      </trkpt>
      <trkpt lat="47.16679" lon="-1.27916">
        <ele>45.859306</ele>
        <time>2020-07-07T12:24:57Z</time>
      </trkpt>
      <trkpt lat="47.16676" lon="-1.27921">
        <ele>46.11032</ele>
        <time>2020-07-07T12:24:58Z</time>
      </trkpt>
      <trkpt lat="47.16673" lon="-1.27927">
        <ele>45.869873</ele>
        <time>2020-07-07T12:24:59Z</time>
      </trkpt>
      <trkpt lat="47.1667" lon="-1.27933">
        <ele>46.477596</ele>
        <time>2020-07-07T12:25:00Z</time>
      </trkpt>
      <trkpt lat="47.16667" lon="-1.27939">
        <ele>46.2028</ele>
        <time>2020-07-07T12:25:01Z</time>
      </trkpt>
      <trkpt lat="47.16664" lon="-1.27945">
        <ele>45.848736</ele>
        <time>2020-07-07T12:25:02Z</time>
      </trkpt>
      <trkpt lat="47.16661" lon="-1.27951">
        <ele>46.242435</ele>
        <time>2020-07-07T12:25:03Z</time>
      </trkpt>
      <trkpt lat="47.16658" lon="-1.27957">
        <ele>46.054832</ele>
        <time>2020-07-07T12:25:04Z</time>
      </trkpt>
      <trkpt lat="47.16655" lon="-1.27963">
        <ele>46.353413</ele>
        <time>2020-07-07T12:25:05Z</time>
      </trkpt>
      <trkpt lat="47.16653" lon="-1.27969">
        <ele>46.21601</ele>
        <time>2020-07-07T12:25:06Z</time>
      </trkpt>
      <trkpt lat="47.1665" lon="-1.27975">
        <ele>45.708694</ele>
        <time>2020-07-07T12:25:07Z</time>
      </trkpt>
      <trkpt lat="47.16647" lon="-1.27982">
        <ele>46.334915</ele>
        <time>2020-07-07T12:25:08Z</time>
      </trkpt>
      <trkpt lat="47.16644" lon="-1.27988">
        <ele>45.455036</ele>
        <time>2020-07-07T12:25:09Z</time>
      </trkpt>
      <trkpt lat="47.16641" lon="-1.27994">
        <ele>45.605648</ele>
        <time>2020-07-07T12:25:10Z</time>
      </trkpt>
      <trkpt lat="47.16637" lon="-1.28001">
        <ele>46.02577</ele>
        <time>2020-07-07T12:25:11Z</time>
      </trkpt>
      <trkpt lat="47.16634" lon="-1.28008">
        <ele>45.354633</ele>
        <time>2020-07-07T12:25:12Z</time>
      </trkpt>
      <trkpt lat="47.16631" lon="-1.28014">
        <ele>45.07455</ele>
        <time>2020-07-07T12:25:13Z</time>
      </trkpt>
      <trkpt lat="47.16628" lon="-1.28021">
        <ele>45.711338</ele>
        <time>2020-07-07T12:25:14Z</time>
      </trkpt>
      <trkpt lat="47.16624" lon="-1.28029">
        <ele>44.768047</ele>
        <time>2020-07-07T12:25:15Z</time>
      </trkpt>
      <trkpt lat="47.16621" lon="-1.28036">
        <ele>44.834103</ele>
        <time>2020-07-07T12:25:16Z</time>
      </trkpt>
      <trkpt lat="47.16618" lon="-1.28043">
        <ele>44.871094</ele>
        <time>2020-07-07T12:25:17Z</time>
      </trkpt>
      <trkpt lat="47.16614" lon="-1.2805">
        <ele>45.53695</ele>
        <time>2020-07-07T12:25:18Z</time>
      </trkpt>
      <trkpt lat="47.16611" lon="-1.28058">
        <ele>44.69142</ele>
        <time>2020-07-07T12:25:19Z</time>
      </trkpt>
      <trkpt lat="47.16607" lon="-1.28065">
        <ele>44.440403</ele>
        <time>2020-07-07T12:25:20Z</time>
      </trkpt>
      <trkpt lat="47.16604" lon="-1.28073">
        <ele>42.847115</ele>
        <time>2020-07-07T12:25:21Z</time>
      </trkpt>
      <trkpt lat="47.166" lon="-1.28081">
        <ele>43.814186</ele>
        <time>2020-07-07T12:25:22Z</time>
      </trkpt>
      <trkpt lat="47.16596" lon="-1.28089">
        <ele>42.878822</ele>
        <time>2020-07-07T12:25:23Z</time>
      </trkpt>
      <trkpt lat="47.16593" lon="-1.28096">
        <ele>42.54854</ele>
        <time>2020-07-07T12:25:24Z</time>
      </trkpt>
      <trkpt lat="47.16589" lon="-1.28104">
        <ele>43.113983</ele>
        <time>2020-07-07T12:25:25Z</time>
      </trkpt>
      <trkpt lat="47.16585" lon="-1.28112">
        <ele>42.54854</ele>
        <time>2020-07-07T12:25:26Z</time>
      </trkpt>
      <trkpt lat="47.16582" lon="-1.2812">
        <ele>41.806057</ele>
        <time>2020-07-07T12:25:27Z</time>
      </trkpt>
      <trkpt lat="47.16578" lon="-1.28127">
        <ele>41.449352</ele>
        <time>2020-07-07T12:25:28Z</time>
      </trkpt>
      <trkpt lat="47.16571" lon="-1.28144">
        <ele>40.524555</ele>
        <time>2020-07-07T12:25:30Z</time>
      </trkpt>
      <trkpt lat="47.16567" lon="-1.28151">
        <ele>40.963173</ele>
        <time>2020-07-07T12:25:31Z</time>
      </trkpt>
      <trkpt lat="47.16563" lon="-1.28159">
        <ele>40.28939</ele>
        <time>2020-07-07T12:25:32Z</time>
      </trkpt>
      <trkpt lat="47.16559" lon="-1.28167">
        <ele>39.359314</ele>
        <time>2020-07-07T12:25:33Z</time>
      </trkpt>
      <trkpt lat="47.16555" lon="-1.28176">
        <ele>39.61033</ele>
        <time>2020-07-07T12:25:34Z</time>
      </trkpt>
      <trkpt lat="47.16551" lon="-1.28184">
        <ele>39.317036</ele>
        <time>2020-07-07T12:25:35Z</time>
      </trkpt>
      <trkpt lat="47.16547" lon="-1.28193">
        <ele>37.62598</ele>
        <time>2020-07-07T12:25:36Z</time>
      </trkpt>
      <trkpt lat="47.16543" lon="-1.28201">
        <ele>38.57456</ele>
        <time>2020-07-07T12:25:37Z</time>
      </trkpt>
      <trkpt lat="47.16535" lon="-1.28218">
        <ele>37.581062</ele>
        <time>2020-07-07T12:25:39Z</time>
      </trkpt>
      <trkpt lat="47.16531" lon="-1.28227">
        <ele>36.820087</ele>
        <time>2020-07-07T12:25:40Z</time>
      </trkpt>
      <trkpt lat="47.16527" lon="-1.28235">
        <ele>37.4648</ele>
        <time>2020-07-07T12:25:41Z</time>
      </trkpt>
      <trkpt lat="47.16523" lon="-1.28243">
        <ele>36.7461</ele>
        <time>2020-07-07T12:25:42Z</time>
      </trkpt>
      <trkpt lat="47.16517" lon="-1.28258">
        <ele>36.714397</ele>
        <time>2020-07-07T12:25:44Z</time>
      </trkpt>
      <trkpt lat="47.16518" lon="-1.28267">
        <ele>36.587566</ele>
        <time>2020-07-07T12:25:45Z</time>
      </trkpt>
      <trkpt lat="47.16522" lon="-1.28283">
        <ele>36.772526</ele>
        <time>2020-07-07T12:25:47Z</time>
      </trkpt>
      <trkpt lat="47.16526" lon="-1.28291">
        <ele>36.365616</ele>
        <time>2020-07-07T12:25:48Z</time>
      </trkpt>
      <trkpt lat="47.16528" lon="-1.28298">
        <ele>35.57029</ele>
        <time>2020-07-07T12:25:49Z</time>
      </trkpt>
      <trkpt lat="47.1653" lon="-1.28306">
        <ele>35.678623</ele>
        <time>2020-07-07T12:25:50Z</time>
      </trkpt>
      <trkpt lat="47.16528" lon="-1.28313">
        <ele>35.620495</ele>
        <time>2020-07-07T12:25:51Z</time>
      </trkpt>
      <trkpt lat="47.16522" lon="-1.28327">
        <ele>35.2083</ele>
        <time>2020-07-07T12:25:53Z</time>
      </trkpt>
      <trkpt lat="47.16518" lon="-1.28335">
        <ele>34.981064</ele>
        <time>2020-07-07T12:25:54Z</time>
      </trkpt>
      <trkpt lat="47.16515" lon="-1.28343">
        <ele>34.09326</ele>
        <time>2020-07-07T12:25:55Z</time>
      </trkpt>
      <trkpt lat="47.16509" lon="-1.28358">
        <ele>33.38777</ele>
        <time>2020-07-07T12:25:57Z</time>
      </trkpt>
      <trkpt lat="47.16505" lon="-1.28366">
        <ele>33.445904</ele>
        <time>2020-07-07T12:25:58Z</time>
      </trkpt>
      <trkpt lat="47.16503" lon="-1.28373">
        <ele>32.95444</ele>
        <time>2020-07-07T12:25:59Z</time>
      </trkpt>
      <trkpt lat="47.16502" lon="-1.2838">
        <ele>33.004642</ele>
        <time>2020-07-07T12:26:00Z</time>
      </trkpt>
      <trkpt lat="47.16505" lon="-1.28393">
        <ele>32.806473</ele>
        <time>2020-07-07T12:26:02Z</time>
      </trkpt>
      <trkpt lat="47.16513" lon="-1.28401">
        <ele>33.38777</ele>
        <time>2020-07-07T12:26:04Z</time>
      </trkpt>
      <trkpt lat="47.16517" lon="-1.28405">
        <ele>33.770905</ele>
        <time>2020-07-07T12:26:05Z</time>
      </trkpt>
      <trkpt lat="47.16522" lon="-1.28409">
        <ele>34.098545</ele>
        <time>2020-07-07T12:26:06Z</time>
      </trkpt>
      <trkpt lat="47.16531" lon="-1.28417">
        <ele>34.204235</ele>
        <time>2020-07-07T12:26:08Z</time>
      </trkpt>
      <trkpt lat="47.16536" lon="-1.28422">
        <ele>33.74448</ele>
        <time>2020-07-07T12:26:09Z</time>
      </trkpt>
      <trkpt lat="47.16541" lon="-1.28427">
        <ele>33.982285</ele>
        <time>2020-07-07T12:26:10Z</time>
      </trkpt>
      <trkpt lat="47.16546" lon="-1.28431">
        <ele>34.41033</ele>
        <time>2020-07-07T12:26:11Z</time>
      </trkpt>
      <trkpt lat="47.1655" lon="-1.28435">
        <ele>34.30464</ele>
        <time>2020-07-07T12:26:12Z</time>
      </trkpt>
      <trkpt lat="47.16555" lon="-1.2844">
        <ele>34.761757</ele>
        <time>2020-07-07T12:26:13Z</time>
      </trkpt>
      <trkpt lat="47.1656" lon="-1.28445">
        <ele>34.124966</ele>
        <time>2020-07-07T12:26:14Z</time>
      </trkpt>
      <trkpt lat="47.16571" lon="-1.28454">
        <ele>34.331066</ele>
        <time>2020-07-07T12:26:16Z</time>
      </trkpt>
      <trkpt lat="47.16576" lon="-1.28459">
        <ele>35.028625</ele>
        <time>2020-07-07T12:26:17Z</time>
      </trkpt>
      <trkpt lat="47.16581" lon="-1.28463">
        <ele>34.88594</ele>
        <time>2020-07-07T12:26:18Z</time>
      </trkpt>
      <trkpt lat="47.16585" lon="-1.28468">
        <ele>35.68391</ele>
        <time>2020-07-07T12:26:19Z</time>
      </trkpt>
      <trkpt lat="47.1659" lon="-1.28472">
        <ele>35.73411</ele>
        <time>2020-07-07T12:26:20Z</time>
      </trkpt>
      <trkpt lat="47.16595" lon="-1.28477">
        <ele>35.726185</ele>
        <time>2020-07-07T12:26:21Z</time>
      </trkpt>
      <trkpt lat="47.166" lon="-1.28481">
        <ele>35.93228</ele>
        <time>2020-07-07T12:26:22Z</time>
      </trkpt>
      <trkpt lat="47.16605" lon="-1.28486">
        <ele>36.1146</ele>
        <time>2020-07-07T12:26:23Z</time>
      </trkpt>
      <trkpt lat="47.1661" lon="-1.2849">
        <ele>36.44224</ele>
        <time>2020-07-07T12:26:24Z</time>
      </trkpt>
      <trkpt lat="47.16614" lon="-1.28495">
        <ele>35.924355</ele>
        <time>2020-07-07T12:26:25Z</time>
      </trkpt>
      <trkpt lat="47.16618" lon="-1.285">
        <ele>36.11724</ele>
        <time>2020-07-07T12:26:26Z</time>
      </trkpt>
      <trkpt lat="47.1662" lon="-1.28506">
        <ele>35.810738</ele>
        <time>2020-07-07T12:26:27Z</time>
      </trkpt>
      <trkpt lat="47.16623" lon="-1.28518">
        <ele>36.830654</ele>
        <time>2020-07-07T12:26:29Z</time>
      </trkpt>
      <trkpt lat="47.1662" lon="-1.28525">
        <ele>36.22029</ele>
        <time>2020-07-07T12:26:30Z</time>
      </trkpt>
      <trkpt lat="47.16617" lon="-1.28533">
        <ele>35.491024</ele>
        <time>2020-07-07T12:26:31Z</time>
      </trkpt>
      <trkpt lat="47.16614" lon="-1.28541">
        <ele>36.365616</ele>
        <time>2020-07-07T12:26:32Z</time>
      </trkpt>
      <trkpt lat="47.16611" lon="-1.28549">
        <ele>35.084114</ele>
        <time>2020-07-07T12:26:33Z</time>
      </trkpt>
      <trkpt lat="47.16607" lon="-1.28558">
        <ele>35.09204</ele>
        <time>2020-07-07T12:26:34Z</time>
      </trkpt>
      <trkpt lat="47.16604" lon="-1.28567">
        <ele>34.352203</ele>
        <time>2020-07-07T12:26:35Z</time>
      </trkpt>
      <trkpt lat="47.166" lon="-1.28576">
        <ele>33.7894</ele>
        <time>2020-07-07T12:26:36Z</time>
      </trkpt>
      <trkpt lat="47.16597" lon="-1.28584">
        <ele>33.398342</ele>
        <time>2020-07-07T12:26:37Z</time>
      </trkpt>
      <trkpt lat="47.16594" lon="-1.28593">
        <ele>33.482895</ele>
        <time>2020-07-07T12:26:38Z</time>
      </trkpt>
      <trkpt lat="47.16592" lon="-1.28602">
        <ele>33.85017</ele>
        <time>2020-07-07T12:26:39Z</time>
      </trkpt>
      <trkpt lat="47.16591" lon="-1.28612">
        <ele>33.305862</ele>
        <time>2020-07-07T12:26:40Z</time>
      </trkpt>
      <trkpt lat="47.1659" lon="-1.28622">
        <ele>33.504032</ele>
        <time>2020-07-07T12:26:41Z</time>
      </trkpt>
      <trkpt lat="47.1659" lon="-1.28632">
        <ele>32.8831</ele>
        <time>2020-07-07T12:26:42Z</time>
      </trkpt>
      <trkpt lat="47.1659" lon="-1.28642">
        <ele>33.110332</ele>
        <time>2020-07-07T12:26:43Z</time>
      </trkpt>
      <trkpt lat="47.16591" lon="-1.28664">
        <ele>32.52639</ele>
        <time>2020-07-07T12:26:45Z</time>
      </trkpt>
      <trkpt lat="47.16591" lon="-1.28675">
        <ele>32.090416</ele>
        <time>2020-07-07T12:26:46Z</time>
      </trkpt>
      <trkpt lat="47.16591" lon="-1.28686">
        <ele>32.111553</ele>
        <time>2020-07-07T12:26:47Z</time>
      </trkpt>
      <trkpt lat="47.16591" lon="-1.28698">
        <ele>31.712572</ele>
        <time>2020-07-07T12:26:48Z</time>
      </trkpt>
      <trkpt lat="47.1659" lon="-1.28709">
        <ele>31.472124</ele>
        <time>2020-07-07T12:26:49Z</time>
      </trkpt>
      <trkpt lat="47.16589" lon="-1.2872">
        <ele>31.39814</ele>
        <time>2020-07-07T12:26:50Z</time>
      </trkpt>
      <trkpt lat="47.16588" lon="-1.28731">
        <ele>30.95688</ele>
        <time>2020-07-07T12:26:51Z</time>
      </trkpt>
      <trkpt lat="47.16587" lon="-1.28743">
        <ele>30.856474</ele>
        <time>2020-07-07T12:26:52Z</time>
      </trkpt>
      <trkpt lat="47.16586" lon="-1.28754">
        <ele>30.285744</ele>
        <time>2020-07-07T12:26:53Z</time>
      </trkpt>
      <trkpt lat="47.16585" lon="-1.28765">
        <ele>29.97924</ele>
        <time>2020-07-07T12:26:54Z</time>
      </trkpt>
      <trkpt lat="47.16584" lon="-1.28776">
        <ele>29.593468</ele>
        <time>2020-07-07T12:26:55Z</time>
      </trkpt>
      <trkpt lat="47.16581" lon="-1.28798">
        <ele>29.580256</ele>
        <time>2020-07-07T12:26:57Z</time>
      </trkpt>
      <trkpt lat="47.1658" lon="-1.28809">
        <ele>27.891844</ele>
        <time>2020-07-07T12:26:58Z</time>
      </trkpt>
      <trkpt lat="47.16578" lon="-1.2882">
        <ele>28.153429</ele>
        <time>2020-07-07T12:26:59Z</time>
      </trkpt>
      <trkpt lat="47.16577" lon="-1.2883">
        <ele>28.391233</ele>
        <time>2020-07-07T12:27:00Z</time>
      </trkpt>
      <trkpt lat="47.16576" lon="-1.2884">
        <ele>27.326397</ele>
        <time>2020-07-07T12:27:01Z</time>
      </trkpt>
      <trkpt lat="47.16575" lon="-1.2885">
        <ele>27.421518</ele>
        <time>2020-07-07T12:27:02Z</time>
      </trkpt>
      <trkpt lat="47.16574" lon="-1.2886">
        <ele>27.477007</ele>
        <time>2020-07-07T12:27:03Z</time>
      </trkpt>
      <trkpt lat="47.16573" lon="-1.2888">
        <ele>26.930056</ele>
        <time>2020-07-07T12:27:05Z</time>
      </trkpt>
      <trkpt lat="47.16572" lon="-1.28889">
        <ele>27.577414</ele>
        <time>2020-07-07T12:27:06Z</time>
      </trkpt>
      <trkpt lat="47.16571" lon="-1.28908">
        <ele>27.04103</ele>
        <time>2020-07-07T12:27:08Z</time>
      </trkpt>
      <trkpt lat="47.16571" lon="-1.28918">
        <ele>27.484934</ele>
        <time>2020-07-07T12:27:09Z</time>
      </trkpt>
      <trkpt lat="47.1657" lon="-1.28928">
        <ele>26.73717</ele>
        <time>2020-07-07T12:27:10Z</time>
      </trkpt>
      <trkpt lat="47.1657" lon="-1.28948">
        <ele>26.539</ele>
        <time>2020-07-07T12:27:12Z</time>
      </trkpt>
      <trkpt lat="47.1657" lon="-1.28957">
        <ele>26.414812</ele>
        <time>2020-07-07T12:27:13Z</time>
      </trkpt>
      <trkpt lat="47.16569" lon="-1.28967">
        <ele>27.115015</ele>
        <time>2020-07-07T12:27:14Z</time>
      </trkpt>
      <trkpt lat="47.16569" lon="-1.28988">
        <ele>26.520504</ele>
        <time>2020-07-07T12:27:16Z</time>
      </trkpt>
      <trkpt lat="47.16569" lon="-1.28999">
        <ele>25.445097</ele>
        <time>2020-07-07T12:27:17Z</time>
      </trkpt>
      <trkpt lat="47.16568" lon="-1.29009">
        <ele>25.907495</ele>
        <time>2020-07-07T12:27:18Z</time>
      </trkpt>
      <trkpt lat="47.16568" lon="-1.29019">
        <ele>25.360544</ele>
        <time>2020-07-07T12:27:19Z</time>
      </trkpt>
      <trkpt lat="47.16568" lon="-1.2903">
        <ele>25.225788</ele>
        <time>2020-07-07T12:27:20Z</time>
      </trkpt>
      <trkpt lat="47.16567" lon="-1.2904">
        <ele>25.521723</ele>
        <time>2020-07-07T12:27:21Z</time>
      </trkpt>
      <trkpt lat="47.16567" lon="-1.2906">
        <ele>25.10953</ele>
        <time>2020-07-07T12:27:23Z</time>
      </trkpt>
      <trkpt lat="47.16567" lon="-1.2907">
        <ele>24.443676</ele>
        <time>2020-07-07T12:27:24Z</time>
      </trkpt>
      <trkpt lat="47.16566" lon="-1.29079">
        <ele>24.77396</ele>
        <time>2020-07-07T12:27:25Z</time>
      </trkpt>
      <trkpt lat="47.16566" lon="-1.29096">
        <ele>24.303635</ele>
        <time>2020-07-07T12:27:27Z</time>
      </trkpt>
      <trkpt lat="47.16562" lon="-1.2911">
        <ele>24.047335</ele>
        <time>2020-07-07T12:27:29Z</time>
      </trkpt>
      <trkpt lat="47.16559" lon="-1.29114">
        <ele>24.615423</ele>
        <time>2020-07-07T12:27:30Z</time>
      </trkpt>
      <trkpt lat="47.16555" lon="-1.29117">
        <ele>23.933718</ele>
        <time>2020-07-07T12:27:31Z</time>
      </trkpt>
      <trkpt lat="47.1655" lon="-1.29117">
        <ele>24.094896</ele>
        <time>2020-07-07T12:27:32Z</time>
      </trkpt>
      <trkpt lat="47.16545" lon="-1.29115">
        <ele>24.570505</ele>
        <time>2020-07-07T12:27:33Z</time>
      </trkpt>
      <trkpt lat="47.16539" lon="-1.29113">
        <ele>24.081684</ele>
        <time>2020-07-07T12:27:34Z</time>
      </trkpt>
      <trkpt lat="47.16534" lon="-1.29112">
        <ele>24.48331</ele>
        <time>2020-07-07T12:27:35Z</time>
      </trkpt>
      <trkpt lat="47.16528" lon="-1.29111">
        <ele>23.798962</ele>
        <time>2020-07-07T12:27:36Z</time>
      </trkpt>
      <trkpt lat="47.16523" lon="-1.29111">
        <ele>24.70262</ele>
        <time>2020-07-07T12:27:37Z</time>
      </trkpt>
      <trkpt lat="47.16517" lon="-1.29111">
        <ele>24.433107</ele>
        <time>2020-07-07T12:27:38Z</time>
      </trkpt>
      <trkpt lat="47.16511" lon="-1.2911">
        <ele>25.077822</ele>
        <time>2020-07-07T12:27:39Z</time>
      </trkpt>
      <trkpt lat="47.16505" lon="-1.29109">
        <ele>23.975994</ele>
        <time>2020-07-07T12:27:40Z</time>
      </trkpt>
      <trkpt lat="47.16492" lon="-1.29107">
        <ele>23.579653</ele>
        <time>2020-07-07T12:27:42Z</time>
      </trkpt>
      <trkpt lat="47.16485" lon="-1.29107">
        <ele>24.382904</ele>
        <time>2020-07-07T12:27:43Z</time>
      </trkpt>
      <trkpt lat="47.16479" lon="-1.29107">
        <ele>23.865017</ele>
        <time>2020-07-07T12:27:44Z</time>
      </trkpt>
      <trkpt lat="47.16466" lon="-1.29105">
        <ele>24.377619</ele>
        <time>2020-07-07T12:27:46Z</time>
      </trkpt>
      <trkpt lat="47.16453" lon="-1.29104">
        <ele>23.035343</ele>
        <time>2020-07-07T12:27:48Z</time>
      </trkpt>
      <trkpt lat="47.16447" lon="-1.29104">
        <ele>23.442253</ele>
        <time>2020-07-07T12:27:49Z</time>
      </trkpt>
      <trkpt lat="47.16442" lon="-1.29103">
        <ele>23.447538</ele>
        <time>2020-07-07T12:27:50Z</time>
      </trkpt>
      <trkpt lat="47.16435" lon="-1.29108">
        <ele>24.023554</ele>
        <time>2020-07-07T12:27:52Z</time>
      </trkpt>
      <trkpt lat="47.16433" lon="-1.29119">
        <ele>23.352417</ele>
        <time>2020-07-07T12:27:54Z</time>
      </trkpt>
      <trkpt lat="47.16433" lon="-1.29125">
        <ele>22.686563</ele>
        <time>2020-07-07T12:27:55Z</time>
      </trkpt>
      <trkpt lat="47.16435" lon="-1.29132">
        <ele>23.212376</ele>
        <time>2020-07-07T12:27:56Z</time>
      </trkpt>
      <trkpt lat="47.16438" lon="-1.29139">
        <ele>23.138393</ele>
        <time>2020-07-07T12:27:57Z</time>
      </trkpt>
      <trkpt lat="47.1644" lon="-1.29155">
        <ele>22.993067</ele>
        <time>2020-07-07T12:27:59Z</time>
      </trkpt>
      <trkpt lat="47.1644" lon="-1.29163">
        <ele>22.38006</ele>
        <time>2020-07-07T12:28:00Z</time>
      </trkpt>
      <trkpt lat="47.1644" lon="-1.29171">
        <ele>22.604652</ele>
        <time>2020-07-07T12:28:01Z</time>
      </trkpt>
      <trkpt lat="47.16439" lon="-1.2918">
        <ele>22.163393</ele>
        <time>2020-07-07T12:28:02Z</time>
      </trkpt>
      <trkpt lat="47.16438" lon="-1.29188">
        <ele>22.403841</ele>
        <time>2020-07-07T12:28:03Z</time>
      </trkpt>
      <trkpt lat="47.16438" lon="-1.29196">
        <ele>22.19246</ele>
        <time>2020-07-07T12:28:04Z</time>
      </trkpt>
      <trkpt lat="47.16437" lon="-1.29205">
        <ele>22.018068</ele>
        <time>2020-07-07T12:28:05Z</time>
      </trkpt>
      <trkpt lat="47.16436" lon="-1.29214">
        <ele>21.711565</ele>
        <time>2020-07-07T12:28:06Z</time>
      </trkpt>
      <trkpt lat="47.16435" lon="-1.29224">
        <ele>20.940022</ele>
        <time>2020-07-07T12:28:07Z</time>
      </trkpt>
      <trkpt lat="47.16433" lon="-1.29234">
        <ele>20.921524</ele>
        <time>2020-07-07T12:28:08Z</time>
      </trkpt>
      <trkpt lat="47.16431" lon="-1.29243">
        <ele>20.747135</ele>
        <time>2020-07-07T12:28:09Z</time>
      </trkpt>
      <trkpt lat="47.16428" lon="-1.29252">
        <ele>20.361362</ele>
        <time>2020-07-07T12:28:10Z</time>
      </trkpt>
      <trkpt lat="47.16425" lon="-1.29262">
        <ele>19.96238</ele>
        <time>2020-07-07T12:28:11Z</time>
      </trkpt>
      <trkpt lat="47.16419" lon="-1.2928">
        <ele>19.766851</ele>
        <time>2020-07-07T12:28:12Z</time>
      </trkpt>
      <trkpt lat="47.16416" lon="-1.29289">
        <ele>19.896322</ele>
        <time>2020-07-07T12:28:14Z</time>
      </trkpt>
      <trkpt lat="47.16413" lon="-1.29296">
        <ele>18.9636</ele>
        <time>2020-07-07T12:28:15Z</time>
      </trkpt>
      <trkpt lat="47.16407" lon="-1.293">
        <ele>18.873762</ele>
        <time>2020-07-07T12:28:16Z</time>
      </trkpt>
      <trkpt lat="47.16403" lon="-1.29302">
        <ele>19.233112</ele>
        <time>2020-07-07T12:28:17Z</time>
      </trkpt>
      <trkpt lat="47.16397" lon="-1.29311">
        <ele>18.744291</ele>
        <time>2020-07-07T12:28:19Z</time>
      </trkpt>
      <trkpt lat="47.16396" lon="-1.29322">
        <ele>19.048153</ele>
        <time>2020-07-07T12:28:21Z</time>
      </trkpt>
      <trkpt lat="47.16395" lon="-1.29329">
        <ele>19.000591</ele>
        <time>2020-07-07T12:28:22Z</time>
      </trkpt>
      <trkpt lat="47.16394" lon="-1.29337">
        <ele>19.119493</ele>
        <time>2020-07-07T12:28:23Z</time>
      </trkpt>
      <trkpt lat="47.16393" lon="-1.29345">
        <ele>18.445715</ele>
        <time>2020-07-07T12:28:24Z</time>
      </trkpt>
      <trkpt lat="47.16392" lon="-1.29353">
        <ele>19.137989</ele>
        <time>2020-07-07T12:28:25Z</time>
      </trkpt>
      <trkpt lat="47.1639" lon="-1.29361">
        <ele>18.971527</ele>
        <time>2020-07-07T12:28:26Z</time>
      </trkpt>
      <trkpt lat="47.16388" lon="-1.29369">
        <ele>18.64917</ele>
        <time>2020-07-07T12:28:27Z</time>
      </trkpt>
      <trkpt lat="47.16385" lon="-1.29377">
        <ele>18.807705</ele>
        <time>2020-07-07T12:28:28Z</time>
      </trkpt>
      <trkpt lat="47.16382" lon="-1.29384">
        <ele>18.622746</ele>
        <time>2020-07-07T12:28:29Z</time>
      </trkpt>
      <trkpt lat="47.1638" lon="-1.29392">
        <ele>17.29104</ele>
        <time>2020-07-07T12:28:30Z</time>
      </trkpt>
      <trkpt lat="47.16378" lon="-1.29401">
        <ele>17.803642</ele>
        <time>2020-07-07T12:28:31Z</time>
      </trkpt>
      <trkpt lat="47.16378" lon="-1.29421">
        <ele>18.049374</ele>
        <time>2020-07-07T12:28:32Z</time>
      </trkpt>
      <trkpt lat="47.16378" lon="-1.29431">
        <ele>17.481285</ele>
        <time>2020-07-07T12:28:34Z</time>
      </trkpt>
      <trkpt lat="47.16377" lon="-1.29441">
        <ele>16.479862</ele>
        <time>2020-07-07T12:28:35Z</time>
      </trkpt>
      <trkpt lat="47.16377" lon="-1.29451">
        <ele>17.314821</ele>
        <time>2020-07-07T12:28:36Z</time>
      </trkpt>
      <trkpt lat="47.16376" lon="-1.29461">
        <ele>16.8947</ele>
        <time>2020-07-07T12:28:37Z</time>
      </trkpt>
      <trkpt lat="47.16376" lon="-1.2947">
        <ele>16.74409</ele>
        <time>2020-07-07T12:28:38Z</time>
      </trkpt>
      <trkpt lat="47.16377" lon="-1.29476">
        <ele>16.131083</ele>
        <time>2020-07-07T12:28:39Z</time>
      </trkpt>
      <trkpt lat="47.16381" lon="-1.29487">
        <ele>16.379456</ele>
        <time>2020-07-07T12:28:41Z</time>
      </trkpt>
      <trkpt lat="47.16387" lon="-1.29487">
        <ele>16.355675</ele>
        <time>2020-07-07T12:28:43Z</time>
      </trkpt>
      <trkpt lat="47.16395" lon="-1.29492">
        <ele>16.199781</ele>
        <time>2020-07-07T12:28:45Z</time>
      </trkpt>
      <trkpt lat="47.16398" lon="-1.29498">
        <ele>16.353033</ele>
        <time>2020-07-07T12:28:46Z</time>
      </trkpt>
      <trkpt lat="47.16402" lon="-1.29505">
        <ele>16.567057</ele>
        <time>2020-07-07T12:28:47Z</time>
      </trkpt>
      <trkpt lat="47.16406" lon="-1.29511">
        <ele>16.450798</ele>
        <time>2020-07-07T12:28:48Z</time>
      </trkpt>
      <trkpt lat="47.16415" lon="-1.29523">
        <ele>16.038603</ele>
        <time>2020-07-07T12:28:49Z</time>
      </trkpt>
      <trkpt lat="47.1642" lon="-1.29528">
        <ele>16.434944</ele>
        <time>2020-07-07T12:28:50Z</time>
      </trkpt>
      <trkpt lat="47.16426" lon="-1.29543">
        <ele>16.04653</ele>
        <time>2020-07-07T12:28:52Z</time>
      </trkpt>
      <trkpt lat="47.16427" lon="-1.29551">
        <ele>15.998968</ele>
        <time>2020-07-07T12:28:53Z</time>
      </trkpt>
      <trkpt lat="47.16427" lon="-1.29559">
        <ele>15.267058</ele>
        <time>2020-07-07T12:28:55Z</time>
      </trkpt>
      <trkpt lat="47.16425" lon="-1.29567">
        <ele>15.679254</ele>
        <time>2020-07-07T12:28:56Z</time>
      </trkpt>
      <trkpt lat="47.1642" lon="-1.29574">
        <ele>15.43088</ele>
        <time>2020-07-07T12:28:57Z</time>
      </trkpt>
      <trkpt lat="47.16415" lon="-1.29581">
        <ele>15.22214</ele>
        <time>2020-07-07T12:28:58Z</time>
      </trkpt>
      <trkpt lat="47.16404" lon="-1.29594">
        <ele>15.158726</ele>
        <time>2020-07-07T12:28:59Z</time>
      </trkpt>
      <trkpt lat="47.16399" lon="-1.29602">
        <ele>15.259131</ele>
        <time>2020-07-07T12:29:01Z</time>
      </trkpt>
      <trkpt lat="47.16389" lon="-1.29618">
        <ele>14.627628</ele>
        <time>2020-07-07T12:29:02Z</time>
      </trkpt>
      <trkpt lat="47.16385" lon="-1.29627">
        <ele>15.25649</ele>
        <time>2020-07-07T12:29:03Z</time>
      </trkpt>
      <trkpt lat="47.1638" lon="-1.29637">
        <ele>14.492872</ele>
        <time>2020-07-07T12:29:04Z</time>
      </trkpt>
      <trkpt lat="47.16377" lon="-1.29648">
        <ele>14.556287</ele>
        <time>2020-07-07T12:29:05Z</time>
      </trkpt>
      <trkpt lat="47.16374" lon="-1.29659">
        <ele>14.495515</ele>
        <time>2020-07-07T12:29:06Z</time>
      </trkpt>
      <trkpt lat="47.1637" lon="-1.29682">
        <ele>14.167872</ele>
        <time>2020-07-07T12:29:08Z</time>
      </trkpt>
      <trkpt lat="47.16368" lon="-1.29693">
        <ele>14.236572</ele>
        <time>2020-07-07T12:29:09Z</time>
      </trkpt>
      <trkpt lat="47.16367" lon="-1.29704">
        <ele>13.578646</ele>
        <time>2020-07-07T12:29:10Z</time>
      </trkpt>
      <trkpt lat="47.16366" lon="-1.29715">
        <ele>14.691043</ele>
        <time>2020-07-07T12:29:11Z</time>
      </trkpt>
      <trkpt lat="47.16365" lon="-1.29726">
        <ele>13.779458</ele>
        <time>2020-07-07T12:29:12Z</time>
      </trkpt>
      <trkpt lat="47.16363" lon="-1.29736">
        <ele>14.564214</ele>
        <time>2020-07-07T12:29:13Z</time>
      </trkpt>
      <trkpt lat="47.16362" lon="-1.29747">
        <ele>13.787385</ele>
        <time>2020-07-07T12:29:14Z</time>
      </trkpt>
      <trkpt lat="47.1636" lon="-1.29757">
        <ele>14.133523</ele>
        <time>2020-07-07T12:29:15Z</time>
      </trkpt>
      <trkpt lat="47.16357" lon="-1.29766">
        <ele>13.470312</ele>
        <time>2020-07-07T12:29:16Z</time>
      </trkpt>
      <trkpt lat="47.16354" lon="-1.29775">
        <ele>13.837588</ele>
        <time>2020-07-07T12:29:17Z</time>
      </trkpt>
      <trkpt lat="47.16351" lon="-1.29785">
        <ele>13.359337</ele>
        <time>2020-07-07T12:29:18Z</time>
      </trkpt>
      <trkpt lat="47.16347" lon="-1.29793">
        <ele>13.945922</ele>
        <time>2020-07-07T12:29:19Z</time>
      </trkpt>
      <trkpt lat="47.16343" lon="-1.29802">
        <ele>13.737182</ele>
        <time>2020-07-07T12:29:20Z</time>
      </trkpt>
      <trkpt lat="47.16338" lon="-1.2981">
        <ele>13.457101</ele>
        <time>2020-07-07T12:29:21Z</time>
      </trkpt>
      <trkpt lat="47.16335" lon="-1.2982">
        <ele>13.372548</ele>
        <time>2020-07-07T12:29:22Z</time>
      </trkpt>
      <trkpt lat="47.16335" lon="-1.2983">
        <ele>13.319703</ele>
        <time>2020-07-07T12:29:23Z</time>
      </trkpt>
      <trkpt lat="47.16336" lon="-1.29838">
        <ele>12.85202</ele>
        <time>2020-07-07T12:29:24Z</time>
      </trkpt>
      <trkpt lat="47.16338" lon="-1.29847">
        <ele>13.08454</ele>
        <time>2020-07-07T12:29:25Z</time>
      </trkpt>
      <trkpt lat="47.1634" lon="-1.29856">
        <ele>13.340841</ele>
        <time>2020-07-07T12:29:26Z</time>
      </trkpt>
      <trkpt lat="47.16342" lon="-1.29865">
        <ele>12.920719</ele>
        <time>2020-07-07T12:29:27Z</time>
      </trkpt>
      <trkpt lat="47.16343" lon="-1.29875">
        <ele>13.198158</ele>
        <time>2020-07-07T12:29:28Z</time>
      </trkpt>
      <trkpt lat="47.16345" lon="-1.29885">
        <ele>13.129459</ele>
        <time>2020-07-07T12:29:29Z</time>
      </trkpt>
      <trkpt lat="47.16347" lon="-1.29895">
        <ele>13.562792</ele>
        <time>2020-07-07T12:29:30Z</time>
      </trkpt>
      <trkpt lat="47.16348" lon="-1.29904">
        <ele>12.881085</ele>
        <time>2020-07-07T12:29:31Z</time>
      </trkpt>
      <trkpt lat="47.1635" lon="-1.29913">
        <ele>13.716043</ele>
        <time>2020-07-07T12:29:32Z</time>
      </trkpt>
      <trkpt lat="47.16351" lon="-1.29923">
        <ele>12.939216</ele>
        <time>2020-07-07T12:29:33Z</time>
      </trkpt>
      <trkpt lat="47.16351" lon="-1.29932">
        <ele>13.515231</ele>
        <time>2020-07-07T12:29:34Z</time>
      </trkpt>
      <trkpt lat="47.16352" lon="-1.29942">
        <ele>12.809744</ele>
        <time>2020-07-07T12:29:35Z</time>
      </trkpt>
      <trkpt lat="47.16351" lon="-1.29952">
        <ele>13.0158415</ele>
        <time>2020-07-07T12:29:36Z</time>
      </trkpt>
      <trkpt lat="47.16351" lon="-1.29961">
        <ele>12.667061</ele>
        <time>2020-07-07T12:29:37Z</time>
      </trkpt>
      <trkpt lat="47.1635" lon="-1.29971">
        <ele>12.376411</ele>
        <time>2020-07-07T12:29:38Z</time>
      </trkpt>
      <trkpt lat="47.16349" lon="-1.2998">
        <ele>13.541654</ele>
        <time>2020-07-07T12:29:39Z</time>
      </trkpt>
      <trkpt lat="47.16348" lon="-1.29988">
        <ele>12.614216</ele>
        <time>2020-07-07T12:29:40Z</time>
      </trkpt>
      <trkpt lat="47.16346" lon="-1.29998">
        <ele>12.77011</ele>
        <time>2020-07-07T12:29:41Z</time>
      </trkpt>
      <trkpt lat="47.16345" lon="-1.30007">
        <ele>12.595719</ele>
        <time>2020-07-07T12:29:42Z</time>
      </trkpt>
      <trkpt lat="47.16344" lon="-1.30016">
        <ele>13.612995</ele>
        <time>2020-07-07T12:29:43Z</time>
      </trkpt>
      <trkpt lat="47.16341" lon="-1.30026">
        <ele>11.853241</ele>
        <time>2020-07-07T12:29:44Z</time>
      </trkpt>
      <trkpt lat="47.16339" lon="-1.30036">
        <ele>12.788606</ele>
        <time>2020-07-07T12:29:45Z</time>
      </trkpt>
      <trkpt lat="47.16337" lon="-1.30046">
        <ele>12.70141</ele>
        <time>2020-07-07T12:29:46Z</time>
      </trkpt>
      <trkpt lat="47.16335" lon="-1.30056">
        <ele>12.690842</ele>
        <time>2020-07-07T12:29:47Z</time>
      </trkpt>
      <trkpt lat="47.16333" lon="-1.30066">
        <ele>12.194094</ele>
        <time>2020-07-07T12:29:48Z</time>
      </trkpt>
      <trkpt lat="47.16331" lon="-1.30077">
        <ele>11.626005</ele>
        <time>2020-07-07T12:29:49Z</time>
      </trkpt>
      <trkpt lat="47.16329" lon="-1.3009">
        <ele>11.787184</ele>
        <time>2020-07-07T12:29:50Z</time>
      </trkpt>
      <trkpt lat="47.16327" lon="-1.30101">
        <ele>11.906086</ele>
        <time>2020-07-07T12:29:51Z</time>
      </trkpt>
      <trkpt lat="47.16325" lon="-1.30113">
        <ele>10.415844</ele>
        <time>2020-07-07T12:29:52Z</time>
      </trkpt>
      <trkpt lat="47.16324" lon="-1.30124">
        <ele>11.150396</ele>
        <time>2020-07-07T12:29:53Z</time>
      </trkpt>
      <trkpt lat="47.16323" lon="-1.30136">
        <ele>11.200599</ele>
        <time>2020-07-07T12:29:54Z</time>
      </trkpt>
      <trkpt lat="47.16322" lon="-1.30148">
        <ele>10.994502</ele>
        <time>2020-07-07T12:29:55Z</time>
      </trkpt>
      <trkpt lat="47.1632" lon="-1.30158">
        <ele>10.754055</ele>
        <time>2020-07-07T12:29:56Z</time>
      </trkpt>
      <trkpt lat="47.16319" lon="-1.30169">
        <ele>11.234949</ele>
        <time>2020-07-07T12:29:57Z</time>
      </trkpt>
      <trkpt lat="47.16317" lon="-1.30179">
        <ele>11.094908</ele>
        <time>2020-07-07T12:29:58Z</time>
      </trkpt>
      <trkpt lat="47.16316" lon="-1.30188">
        <ele>11.459542</ele>
        <time>2020-07-07T12:29:59Z</time>
      </trkpt>
      <trkpt lat="47.16315" lon="-1.30197">
        <ele>11.443688</ele>
        <time>2020-07-07T12:30:00Z</time>
      </trkpt>
      <trkpt lat="47.16315" lon="-1.30206">
        <ele>11.084339</ele>
        <time>2020-07-07T12:30:01Z</time>
      </trkpt>
      <trkpt lat="47.16315" lon="-1.30213">
        <ele>11.129257</ele>
        <time>2020-07-07T12:30:02Z</time>
      </trkpt>
      <trkpt lat="47.16314" lon="-1.30221">
        <ele>9.99308</ele>
        <time>2020-07-07T12:30:03Z</time>
      </trkpt>
      <trkpt lat="47.16313" lon="-1.30227">
        <ele>10.508324</ele>
        <time>2020-07-07T12:30:04Z</time>
      </trkpt>
      <trkpt lat="47.16306" lon="-1.30235">
        <ele>10.674787</ele>
        <time>2020-07-07T12:30:06Z</time>
      </trkpt>
      <trkpt lat="47.16301" lon="-1.30238">
        <ele>10.5506</ele>
        <time>2020-07-07T12:30:07Z</time>
      </trkpt>
      <trkpt lat="47.16296" lon="-1.3024">
        <ele>11.012998</ele>
        <time>2020-07-07T12:30:08Z</time>
      </trkpt>
      <trkpt lat="47.16291" lon="-1.30242">
        <ele>9.9904375</ele>
        <time>2020-07-07T12:30:09Z</time>
      </trkpt>
      <trkpt lat="47.16287" lon="-1.30243">
        <ele>11.020925</ele>
        <time>2020-07-07T12:30:10Z</time>
      </trkpt>
      <trkpt lat="47.16281" lon="-1.30245">
        <ele>10.828038</ele>
        <time>2020-07-07T12:30:11Z</time>
      </trkpt>
      <trkpt lat="47.16276" lon="-1.30246">
        <ele>11.264013</ele>
        <time>2020-07-07T12:30:12Z</time>
      </trkpt>
      <trkpt lat="47.1627" lon="-1.30247">
        <ele>10.841249</ele>
        <time>2020-07-07T12:30:13Z</time>
      </trkpt>
      <trkpt lat="47.16265" lon="-1.30249">
        <ele>11.327428</ele>
        <time>2020-07-07T12:30:14Z</time>
      </trkpt>
      <trkpt lat="47.16259" lon="-1.3025">
        <ele>10.833323</ele>
        <time>2020-07-07T12:30:15Z</time>
      </trkpt>
      <trkpt lat="47.16254" lon="-1.30252">
        <ele>11.470111</ele>
        <time>2020-07-07T12:30:16Z</time>
      </trkpt>
      <trkpt lat="47.16248" lon="-1.30253">
        <ele>10.722347</ele>
        <time>2020-07-07T12:30:17Z</time>
      </trkpt>
      <trkpt lat="47.16243" lon="-1.30254">
        <ele>11.694704</ele>
        <time>2020-07-07T12:30:18Z</time>
      </trkpt>
      <trkpt lat="47.16237" lon="-1.30256">
        <ele>11.459542</ele>
        <time>2020-07-07T12:30:19Z</time>
      </trkpt>
      <trkpt lat="47.16232" lon="-1.30257">
        <ele>11.126616</ele>
        <time>2020-07-07T12:30:20Z</time>
      </trkpt>
      <trkpt lat="47.16226" lon="-1.30258">
        <ele>11.7290535</ele>
        <time>2020-07-07T12:30:21Z</time>
      </trkpt>
      <trkpt lat="47.16221" lon="-1.30259">
        <ele>12.170314</ele>
        <time>2020-07-07T12:30:22Z</time>
      </trkpt>
      <trkpt lat="47.16215" lon="-1.30261">
        <ele>11.710558</ele>
        <time>2020-07-07T12:30:23Z</time>
      </trkpt>
      <trkpt lat="47.16209" lon="-1.30262">
        <ele>11.644501</ele>
        <time>2020-07-07T12:30:24Z</time>
      </trkpt>
      <trkpt lat="47.16204" lon="-1.30264">
        <ele>11.639216</ele>
        <time>2020-07-07T12:30:25Z</time>
      </trkpt>
      <trkpt lat="47.16198" lon="-1.30265">
        <ele>11.470111</ele>
        <time>2020-07-07T12:30:26Z</time>
      </trkpt>
      <trkpt lat="47.16192" lon="-1.30267">
        <ele>11.110762</ele>
        <time>2020-07-07T12:30:27Z</time>
      </trkpt>
      <trkpt lat="47.16187" lon="-1.30268">
        <ele>11.311575</ele>
        <time>2020-07-07T12:30:28Z</time>
      </trkpt>
      <trkpt lat="47.1618" lon="-1.30269">
        <ele>11.07377</ele>
        <time>2020-07-07T12:30:29Z</time>
      </trkpt>
      <trkpt lat="47.16174" lon="-1.30271">
        <ele>10.788404</ele>
        <time>2020-07-07T12:30:30Z</time>
      </trkpt>
      <trkpt lat="47.16169" lon="-1.30273">
        <ele>11.079055</ele>
        <time>2020-07-07T12:30:31Z</time>
      </trkpt>
      <trkpt lat="47.16163" lon="-1.30275">
        <ele>10.999786</ele>
        <time>2020-07-07T12:30:32Z</time>
      </trkpt>
      <trkpt lat="47.16157" lon="-1.30279">
        <ele>10.719706</ele>
        <time>2020-07-07T12:30:33Z</time>
      </trkpt>
      <trkpt lat="47.16152" lon="-1.30283">
        <ele>10.426413</ele>
        <time>2020-07-07T12:30:34Z</time>
      </trkpt>
      <trkpt lat="47.16147" lon="-1.30289">
        <ele>9.913812</ele>
        <time>2020-07-07T12:30:35Z</time>
      </trkpt>
      <trkpt lat="47.16144" lon="-1.30296">
        <ele>10.384136</ele>
        <time>2020-07-07T12:30:36Z</time>
      </trkpt>
      <trkpt lat="47.16141" lon="-1.30305">
        <ele>10.709136</ele>
        <time>2020-07-07T12:30:37Z</time>
      </trkpt>
      <trkpt lat="47.16139" lon="-1.30313">
        <ele>10.880884</ele>
        <time>2020-07-07T12:30:38Z</time>
      </trkpt>
      <trkpt lat="47.16137" lon="-1.30323">
        <ele>10.521535</ele>
        <time>2020-07-07T12:30:39Z</time>
      </trkpt>
      <trkpt lat="47.16136" lon="-1.30332">
        <ele>10.587591</ele>
        <time>2020-07-07T12:30:40Z</time>
      </trkpt>
      <trkpt lat="47.16135" lon="-1.30342">
        <ele>9.942877</ele>
        <time>2020-07-07T12:30:41Z</time>
      </trkpt>
      <trkpt lat="47.16133" lon="-1.30352">
        <ele>9.477837</ele>
        <time>2020-07-07T12:30:42Z</time>
      </trkpt>
      <trkpt lat="47.16131" lon="-1.30361">
        <ele>9.282309</ele>
        <time>2020-07-07T12:30:43Z</time>
      </trkpt>
      <trkpt lat="47.16129" lon="-1.3037">
        <ele>9.554462</ele>
        <time>2020-07-07T12:30:44Z</time>
      </trkpt>
      <trkpt lat="47.16127" lon="-1.30378">
        <ele>9.134341</ele>
        <time>2020-07-07T12:30:45Z</time>
      </trkpt>
      <trkpt lat="47.16122" lon="-1.30385">
        <ele>10.43434</ele>
        <time>2020-07-07T12:30:46Z</time>
      </trkpt>
      <trkpt lat="47.16118" lon="-1.30391">
        <ele>8.822553</ele>
        <time>2020-07-07T12:30:47Z</time>
      </trkpt>
      <trkpt lat="47.16113" lon="-1.30397">
        <ele>10.069706</ele>
        <time>2020-07-07T12:30:48Z</time>
      </trkpt>
      <trkpt lat="47.16109" lon="-1.30402">
        <ele>9.321942</ele>
        <time>2020-07-07T12:30:49Z</time>
      </trkpt>
      <trkpt lat="47.16105" lon="-1.30408">
        <ele>9.710357</ele>
        <time>2020-07-07T12:30:50Z</time>
      </trkpt>
      <trkpt lat="47.161" lon="-1.30413">
        <ele>9.763202</ele>
        <time>2020-07-07T12:30:51Z</time>
      </trkpt>
      <trkpt lat="47.16094" lon="-1.30418">
        <ele>8.706292</ele>
        <time>2020-07-07T12:30:52Z</time>
      </trkpt>
      <trkpt lat="47.16089" lon="-1.30422">
        <ele>9.2981615</ele>
        <time>2020-07-07T12:30:53Z</time>
      </trkpt>
      <trkpt lat="47.16083" lon="-1.30426">
        <ele>9.385357</ele>
        <time>2020-07-07T12:30:54Z</time>
      </trkpt>
      <trkpt lat="47.16077" lon="-1.3043">
        <ele>9.419706</ele>
        <time>2020-07-07T12:30:55Z</time>
      </trkpt>
      <trkpt lat="47.16071" lon="-1.30434">
        <ele>9.023365</ele>
        <time>2020-07-07T12:30:56Z</time>
      </trkpt>
      <trkpt lat="47.16065" lon="-1.30437">
        <ele>9.488405</ele>
        <time>2020-07-07T12:30:57Z</time>
      </trkpt>
      <trkpt lat="47.1606" lon="-1.3044">
        <ele>9.380073</ele>
        <time>2020-07-07T12:30:58Z</time>
      </trkpt>
      <trkpt lat="47.16054" lon="-1.30442">
        <ele>9.562389</ele>
        <time>2020-07-07T12:30:59Z</time>
      </trkpt>
      <trkpt lat="47.16049" lon="-1.30444">
        <ele>9.427633</ele>
        <time>2020-07-07T12:31:00Z</time>
      </trkpt>
      <trkpt lat="47.16044" lon="-1.30446">
        <ele>9.797552</ele>
        <time>2020-07-07T12:31:01Z</time>
      </trkpt>
      <trkpt lat="47.16038" lon="-1.30448">
        <ele>10.1569</ele>
        <time>2020-07-07T12:31:03Z</time>
      </trkpt>
      <trkpt lat="47.16034" lon="-1.30451">
        <ele>10.072348</ele>
        <time>2020-07-07T12:31:05Z</time>
      </trkpt>
      <trkpt lat="47.16032" lon="-1.30462">
        <ele>10.209746</ele>
        <time>2020-07-07T12:31:07Z</time>
      </trkpt>
      <trkpt lat="47.1603" lon="-1.3047">
        <ele>9.311373</ele>
        <time>2020-07-07T12:31:08Z</time>
      </trkpt>
      <trkpt lat="47.16029" lon="-1.30477">
        <ele>9.971942</ele>
        <time>2020-07-07T12:31:09Z</time>
      </trkpt>
      <trkpt lat="47.16028" lon="-1.30484">
        <ele>10.117267</ele>
        <time>2020-07-07T12:31:10Z</time>
      </trkpt>
      <trkpt lat="47.16027" lon="-1.30491">
        <ele>10.558527</ele>
        <time>2020-07-07T12:31:11Z</time>
      </trkpt>
      <trkpt lat="47.16021" lon="-1.30502">
        <ele>10.241453</ele>
        <time>2020-07-07T12:31:13Z</time>
      </trkpt>
      <trkpt lat="47.16016" lon="-1.30506">
        <ele>9.588812</ele>
        <time>2020-07-07T12:31:14Z</time>
      </trkpt>
      <trkpt lat="47.16011" lon="-1.30507">
        <ele>10.0882015</ele>
        <time>2020-07-07T12:31:15Z</time>
      </trkpt>
      <trkpt lat="47.16001" lon="-1.30509">
        <ele>9.361576</ele>
        <time>2020-07-07T12:31:17Z</time>
      </trkpt>
      <trkpt lat="47.15995" lon="-1.3051">
        <ele>9.615234</ele>
        <time>2020-07-07T12:31:18Z</time>
      </trkpt>
      <trkpt lat="47.15989" lon="-1.30511">
        <ele>9.554462</ele>
        <time>2020-07-07T12:31:19Z</time>
      </trkpt>
      <trkpt lat="47.15983" lon="-1.30512">
        <ele>9.821332</ele>
        <time>2020-07-07T12:31:20Z</time>
      </trkpt>
      <trkpt lat="47.15977" lon="-1.30514">
        <ele>9.633731</ele>
        <time>2020-07-07T12:31:21Z</time>
      </trkpt>
      <trkpt lat="47.15971" lon="-1.30514">
        <ele>10.001007</ele>
        <time>2020-07-07T12:31:22Z</time>
      </trkpt>
      <trkpt lat="47.15965" lon="-1.30515">
        <ele>9.594096</ele>
        <time>2020-07-07T12:31:23Z</time>
      </trkpt>
      <trkpt lat="47.1596" lon="-1.30516">
        <ele>10.146332</ele>
        <time>2020-07-07T12:31:24Z</time>
      </trkpt>
      <trkpt lat="47.15953" lon="-1.30517">
        <ele>9.99308</ele>
        <time>2020-07-07T12:31:25Z</time>
      </trkpt>
      <trkpt lat="47.15948" lon="-1.30518">
        <ele>10.1569</ele>
        <time>2020-07-07T12:31:26Z</time>
      </trkpt>
      <trkpt lat="47.15942" lon="-1.30518">
        <ele>10.080275</ele>
        <time>2020-07-07T12:31:27Z</time>
      </trkpt>
      <trkpt lat="47.15936" lon="-1.30518">
        <ele>10.299583</ele>
        <time>2020-07-07T12:31:28Z</time>
      </trkpt>
      <trkpt lat="47.15931" lon="-1.30518">
        <ele>9.966658</ele>
        <time>2020-07-07T12:31:29Z</time>
      </trkpt>
      <trkpt lat="47.15925" lon="-1.30518">
        <ele>10.695925</ele>
        <time>2020-07-07T12:31:30Z</time>
      </trkpt>
      <trkpt lat="47.15919" lon="-1.30517">
        <ele>10.08556</ele>
        <time>2020-07-07T12:31:31Z</time>
      </trkpt>
      <trkpt lat="47.15914" lon="-1.30517">
        <ele>10.740844</ele>
        <time>2020-07-07T12:31:32Z</time>
      </trkpt>
      <trkpt lat="47.15909" lon="-1.30517">
        <ele>11.150396</ele>
        <time>2020-07-07T12:31:33Z</time>
      </trkpt>
      <trkpt lat="47.15904" lon="-1.30516">
        <ele>11.324786</ele>
        <time>2020-07-07T12:31:34Z</time>
      </trkpt>
      <trkpt lat="47.15899" lon="-1.30516">
        <ele>11.160965</ele>
        <time>2020-07-07T12:31:35Z</time>
      </trkpt>
      <trkpt lat="47.15895" lon="-1.30516">
        <ele>12.00385</ele>
        <time>2020-07-07T12:31:36Z</time>
      </trkpt>
      <trkpt lat="47.1589" lon="-1.30515">
        <ele>12.067265</ele>
        <time>2020-07-07T12:31:37Z</time>
      </trkpt>
      <trkpt lat="47.15886" lon="-1.30514">
        <ele>12.231086</ele>
        <time>2020-07-07T12:31:38Z</time>
      </trkpt>
      <trkpt lat="47.15881" lon="-1.30514">
        <ele>12.4213295</ele>
        <time>2020-07-07T12:31:39Z</time>
      </trkpt>
      <trkpt lat="47.15876" lon="-1.30514">
        <ele>12.040842</ele>
        <time>2020-07-07T12:31:40Z</time>
      </trkpt>
      <trkpt lat="47.15872" lon="-1.30513">
        <ele>13.134744</ele>
        <time>2020-07-07T12:31:41Z</time>
      </trkpt>
      <trkpt lat="47.15863" lon="-1.30512">
        <ele>13.332914</ele>
        <time>2020-07-07T12:31:43Z</time>
      </trkpt>
      <trkpt lat="47.15859" lon="-1.30512">
        <ele>13.615638</ele>
        <time>2020-07-07T12:31:44Z</time>
      </trkpt>
      <trkpt lat="47.15854" lon="-1.30512">
        <ele>13.108321</ele>
        <time>2020-07-07T12:31:45Z</time>
      </trkpt>
      <trkpt lat="47.15849" lon="-1.30511">
        <ele>14.017263</ele>
        <time>2020-07-07T12:31:46Z</time>
      </trkpt>
      <trkpt lat="47.15845" lon="-1.3051">
        <ele>14.376613</ele>
        <time>2020-07-07T12:31:47Z</time>
      </trkpt>
      <trkpt lat="47.1584" lon="-1.3051">
        <ele>14.587995</ele>
        <time>2020-07-07T12:31:48Z</time>
      </trkpt>
      <trkpt lat="47.15836" lon="-1.3051">
        <ele>14.220718</ele>
        <time>2020-07-07T12:31:49Z</time>
      </trkpt>
      <trkpt lat="47.15827" lon="-1.30508">
        <ele>15.148156</ele>
        <time>2020-07-07T12:31:51Z</time>
      </trkpt>
      <trkpt lat="47.15823" lon="-1.30508">
        <ele>15.079457</ele>
        <time>2020-07-07T12:31:52Z</time>
      </trkpt>
      <trkpt lat="47.15818" lon="-1.30507">
        <ele>15.938196</ele>
        <time>2020-07-07T12:31:53Z</time>
      </trkpt>
      <trkpt lat="47.15809" lon="-1.30507">
        <ele>16.366245</ele>
        <time>2020-07-07T12:31:55Z</time>
      </trkpt>
      <trkpt lat="47.15804" lon="-1.30507">
        <ele>16.501001</ele>
        <time>2020-07-07T12:31:56Z</time>
      </trkpt>
      <trkpt lat="47.15796" lon="-1.30508">
        <ele>16.944902</ele>
        <time>2020-07-07T12:31:58Z</time>
      </trkpt>
      <trkpt lat="47.15791" lon="-1.30509">
        <ele>16.643682</ele>
        <time>2020-07-07T12:31:59Z</time>
      </trkpt>
      <trkpt lat="47.15782" lon="-1.30509">
        <ele>17.328032</ele>
        <time>2020-07-07T12:32:01Z</time>
      </trkpt>
      <trkpt lat="47.15773" lon="-1.30511">
        <ele>17.51299</ele>
        <time>2020-07-07T12:32:03Z</time>
      </trkpt>
      <trkpt lat="47.15768" lon="-1.30512">
        <ele>17.703236</ele>
        <time>2020-07-07T12:32:04Z</time>
      </trkpt>
      <trkpt lat="47.1576" lon="-1.30514">
        <ele>18.07051</ele>
        <time>2020-07-07T12:32:06Z</time>
      </trkpt>
      <trkpt lat="47.15752" lon="-1.30515">
        <ele>17.925186</ele>
        <time>2020-07-07T12:32:08Z</time>
      </trkpt>
      <trkpt lat="47.15743" lon="-1.30516">
        <ele>18.24226</ele>
        <time>2020-07-07T12:32:10Z</time>
      </trkpt>
      <trkpt lat="47.15734" lon="-1.30519">
        <ele>17.948967</ele>
        <time>2020-07-07T12:32:12Z</time>
      </trkpt>
      <trkpt lat="47.1573" lon="-1.3052">
        <ele>18.318886</ele>
        <time>2020-07-07T12:32:13Z</time>
      </trkpt>
      <trkpt lat="47.15725" lon="-1.3052">
        <ele>18.073154</ele>
        <time>2020-07-07T12:32:14Z</time>
      </trkpt>
      <trkpt lat="47.1572" lon="-1.30521">
        <ele>18.458925</ele>
        <time>2020-07-07T12:32:15Z</time>
      </trkpt>
      <trkpt lat="47.15714" lon="-1.30522">
        <ele>17.867056</ele>
        <time>2020-07-07T12:32:16Z</time>
      </trkpt>
      <trkpt lat="47.15709" lon="-1.30524">
        <ele>17.542057</ele>
        <time>2020-07-07T12:32:17Z</time>
      </trkpt>
      <trkpt lat="47.15704" lon="-1.30525">
        <ele>17.465431</ele>
        <time>2020-07-07T12:32:18Z</time>
      </trkpt>
      <trkpt lat="47.15699" lon="-1.30525">
        <ele>17.822138</ele>
        <time>2020-07-07T12:32:19Z</time>
      </trkpt>
      <trkpt lat="47.15693" lon="-1.30526">
        <ele>17.251406</ele>
        <time>2020-07-07T12:32:20Z</time>
      </trkpt>
      <trkpt lat="47.15688" lon="-1.30528">
        <ele>16.870918</ele>
        <time>2020-07-07T12:32:21Z</time>
      </trkpt>
      <trkpt lat="47.15682" lon="-1.30528">
        <ele>16.987179</ele>
        <time>2020-07-07T12:32:22Z</time>
      </trkpt>
      <trkpt lat="47.15677" lon="-1.3053">
        <ele>16.625187</ele>
        <time>2020-07-07T12:32:23Z</time>
      </trkpt>
      <trkpt lat="47.15671" lon="-1.30531">
        <ele>16.78901</ele>
        <time>2020-07-07T12:32:24Z</time>
      </trkpt>
      <trkpt lat="47.15665" lon="-1.30532">
        <ele>15.893277</ele>
        <time>2020-07-07T12:32:25Z</time>
      </trkpt>
      <trkpt lat="47.1566" lon="-1.30533">
        <ele>15.996326</ele>
        <time>2020-07-07T12:32:26Z</time>
      </trkpt>
      <trkpt lat="47.15654" lon="-1.30534">
        <ele>15.901204</ele>
        <time>2020-07-07T12:32:27Z</time>
      </trkpt>
      <trkpt lat="47.15648" lon="-1.30535">
        <ele>16.239416</ele>
        <time>2020-07-07T12:32:28Z</time>
      </trkpt>
      <trkpt lat="47.15642" lon="-1.30536">
        <ele>15.518075</ele>
        <time>2020-07-07T12:32:29Z</time>
      </trkpt>
      <trkpt lat="47.15636" lon="-1.30537">
        <ele>14.997547</ele>
        <time>2020-07-07T12:32:30Z</time>
      </trkpt>
      <trkpt lat="47.15629" lon="-1.30538">
        <ele>15.053035</ele>
        <time>2020-07-07T12:32:31Z</time>
      </trkpt>
      <trkpt lat="47.15622" lon="-1.30539">
        <ele>14.490231</ele>
        <time>2020-07-07T12:32:32Z</time>
      </trkpt>
      <trkpt lat="47.15616" lon="-1.30539">
        <ele>14.923563</ele>
        <time>2020-07-07T12:32:33Z</time>
      </trkpt>
      <trkpt lat="47.15609" lon="-1.30539">
        <ele>14.912994</ele>
        <time>2020-07-07T12:32:34Z</time>
      </trkpt>
      <trkpt lat="47.15602" lon="-1.30539">
        <ele>14.270922</ele>
        <time>2020-07-07T12:32:35Z</time>
      </trkpt>
      <trkpt lat="47.15595" lon="-1.30539">
        <ele>14.352832</ele>
        <time>2020-07-07T12:32:36Z</time>
      </trkpt>
      <trkpt lat="47.15587" lon="-1.30538">
        <ele>13.845515</ele>
        <time>2020-07-07T12:32:37Z</time>
      </trkpt>
      <trkpt lat="47.1558" lon="-1.30538">
        <ele>13.663198</ele>
        <time>2020-07-07T12:32:38Z</time>
      </trkpt>
      <trkpt lat="47.15573" lon="-1.30537">
        <ele>13.803239</ele>
        <time>2020-07-07T12:32:39Z</time>
      </trkpt>
      <trkpt lat="47.15566" lon="-1.30535">
        <ele>13.319703</ele>
        <time>2020-07-07T12:32:40Z</time>
      </trkpt>
      <trkpt lat="47.15559" lon="-1.30534">
        <ele>14.228645</ele>
        <time>2020-07-07T12:32:41Z</time>
      </trkpt>
      <trkpt lat="47.15553" lon="-1.30533">
        <ele>12.949784</ele>
        <time>2020-07-07T12:32:42Z</time>
      </trkpt>
      <trkpt lat="47.15547" lon="-1.30532">
        <ele>13.480882</ele>
        <time>2020-07-07T12:32:43Z</time>
      </trkpt>
      <trkpt lat="47.1554" lon="-1.3053">
        <ele>13.295922</ele>
        <time>2020-07-07T12:32:44Z</time>
      </trkpt>
      <trkpt lat="47.15534" lon="-1.30529">
        <ele>13.700191</ele>
        <time>2020-07-07T12:32:45Z</time>
      </trkpt>
      <trkpt lat="47.15528" lon="-1.30528">
        <ele>13.192874</ele>
        <time>2020-07-07T12:32:46Z</time>
      </trkpt>
      <trkpt lat="47.15522" lon="-1.30526">
        <ele>13.679052</ele>
        <time>2020-07-07T12:32:47Z</time>
      </trkpt>
      <trkpt lat="47.15516" lon="-1.30525">
        <ele>13.2113695</ele>
        <time>2020-07-07T12:32:48Z</time>
      </trkpt>
      <trkpt lat="47.15509" lon="-1.30524">
        <ele>13.46767</ele>
        <time>2020-07-07T12:32:49Z</time>
      </trkpt>
      <trkpt lat="47.15504" lon="-1.30522">
        <ele>13.356694</ele>
        <time>2020-07-07T12:32:50Z</time>
      </trkpt>
      <trkpt lat="47.15498" lon="-1.30521">
        <ele>14.265636</ele>
        <time>2020-07-07T12:32:51Z</time>
      </trkpt>
      <trkpt lat="47.15492" lon="-1.3052">
        <ele>13.605068</ele>
        <time>2020-07-07T12:32:52Z</time>
      </trkpt>
      <trkpt lat="47.15486" lon="-1.30518">
        <ele>14.553644</ele>
        <time>2020-07-07T12:32:53Z</time>
      </trkpt>
      <trkpt lat="47.1548" lon="-1.30517">
        <ele>14.532507</ele>
        <time>2020-07-07T12:32:54Z</time>
      </trkpt>
      <trkpt lat="47.15475" lon="-1.30516">
        <ele>14.181084</ele>
        <time>2020-07-07T12:32:55Z</time>
      </trkpt>
      <trkpt lat="47.15469" lon="-1.30515">
        <ele>14.144093</ele>
        <time>2020-07-07T12:32:56Z</time>
      </trkpt>
      <trkpt lat="47.15463" lon="-1.30513">
        <ele>14.030475</ele>
        <time>2020-07-07T12:32:57Z</time>
      </trkpt>
      <trkpt lat="47.15457" lon="-1.30511">
        <ele>14.088604</ele>
        <time>2020-07-07T12:32:58Z</time>
      </trkpt>
      <trkpt lat="47.15451" lon="-1.30509">
        <ele>14.329051</ele>
        <time>2020-07-07T12:32:59Z</time>
      </trkpt>
      <trkpt lat="47.15446" lon="-1.30506">
        <ele>14.165231</ele>
        <time>2020-07-07T12:33:00Z</time>
      </trkpt>
      <trkpt lat="47.1544" lon="-1.30503">
        <ele>14.207507</ele>
        <time>2020-07-07T12:33:01Z</time>
      </trkpt>
      <trkpt lat="47.15435" lon="-1.30499">
        <ele>14.136166</ele>
        <time>2020-07-07T12:33:02Z</time>
      </trkpt>
      <trkpt lat="47.1543" lon="-1.30494">
        <ele>14.461165</ele>
        <time>2020-07-07T12:33:03Z</time>
      </trkpt>
      <trkpt lat="47.15425" lon="-1.3049">
        <ele>14.543076</ele>
        <time>2020-07-07T12:33:04Z</time>
      </trkpt>
      <trkpt lat="47.15419" lon="-1.30485">
        <ele>14.735962</ele>
        <time>2020-07-07T12:33:05Z</time>
      </trkpt>
      <trkpt lat="47.15414" lon="-1.30481">
        <ele>15.108522</ele>
        <time>2020-07-07T12:33:06Z</time>
      </trkpt>
      <trkpt lat="47.15409" lon="-1.30477">
        <ele>14.395108</ele>
        <time>2020-07-07T12:33:07Z</time>
      </trkpt>
      <trkpt lat="47.15404" lon="-1.30473">
        <ele>15.224782</ele>
        <time>2020-07-07T12:33:08Z</time>
      </trkpt>
      <trkpt lat="47.15398" lon="-1.3047">
        <ele>14.968482</ele>
        <time>2020-07-07T12:33:09Z</time>
      </trkpt>
      <trkpt lat="47.15393" lon="-1.30467">
        <ele>15.134945</ele>
        <time>2020-07-07T12:33:10Z</time>
      </trkpt>
      <trkpt lat="47.15387" lon="-1.30463">
        <ele>15.031897</ele>
        <time>2020-07-07T12:33:11Z</time>
      </trkpt>
      <trkpt lat="47.15382" lon="-1.3046">
        <ele>14.92092</ele>
        <time>2020-07-07T12:33:12Z</time>
      </trkpt>
      <trkpt lat="47.15377" lon="-1.30457">
        <ele>15.3938875</ele>
        <time>2020-07-07T12:33:13Z</time>
      </trkpt>
      <trkpt lat="47.15371" lon="-1.30454">
        <ele>14.656693</ele>
        <time>2020-07-07T12:33:14Z</time>
      </trkpt>
      <trkpt lat="47.15366" lon="-1.30451">
        <ele>15.692465</ele>
        <time>2020-07-07T12:33:15Z</time>
      </trkpt>
      <trkpt lat="47.1536" lon="-1.30449">
        <ele>15.22214</ele>
        <time>2020-07-07T12:33:16Z</time>
      </trkpt>
      <trkpt lat="47.15355" lon="-1.30448">
        <ele>15.441448</ele>
        <time>2020-07-07T12:33:17Z</time>
      </trkpt>
      <trkpt lat="47.15349" lon="-1.30448">
        <ele>15.438807</ele>
        <time>2020-07-07T12:33:18Z</time>
      </trkpt>
      <trkpt lat="47.15344" lon="-1.30452">
        <ele>15.565636</ele>
        <time>2020-07-07T12:33:19Z</time>
      </trkpt>
      <trkpt lat="47.1534" lon="-1.30459">
        <ele>15.121734</ele>
        <time>2020-07-07T12:33:20Z</time>
      </trkpt>
      <trkpt lat="47.15338" lon="-1.30467">
        <ele>16.05974</ele>
        <time>2020-07-07T12:33:21Z</time>
      </trkpt>
      <trkpt lat="47.15336" lon="-1.30474">
        <ele>15.726814</ele>
        <time>2020-07-07T12:33:22Z</time>
      </trkpt>
      <trkpt lat="47.15334" lon="-1.30482">
        <ele>15.317262</ele>
        <time>2020-07-07T12:33:23Z</time>
      </trkpt>
      <trkpt lat="47.15331" lon="-1.3049">
        <ele>16.191854</ele>
        <time>2020-07-07T12:33:24Z</time>
      </trkpt>
      <trkpt lat="47.15329" lon="-1.30497">
        <ele>15.798156</ele>
        <time>2020-07-07T12:33:25Z</time>
      </trkpt>
      <trkpt lat="47.15326" lon="-1.30505">
        <ele>15.795513</ele>
        <time>2020-07-07T12:33:26Z</time>
      </trkpt>
      <trkpt lat="47.15323" lon="-1.30513">
        <ele>16.23149</ele>
        <time>2020-07-07T12:33:27Z</time>
      </trkpt>
      <trkpt lat="47.15321" lon="-1.3052">
        <ele>16.183928</ele>
        <time>2020-07-07T12:33:28Z</time>
      </trkpt>
      <trkpt lat="47.15319" lon="-1.30528">
        <ele>15.848359</ele>
        <time>2020-07-07T12:33:29Z</time>
      </trkpt>
      <trkpt lat="47.15316" lon="-1.30535">
        <ele>16.820715</ele>
        <time>2020-07-07T12:33:30Z</time>
      </trkpt>
      <trkpt lat="47.15314" lon="-1.30542">
        <ele>16.424374</ele>
        <time>2020-07-07T12:33:31Z</time>
      </trkpt>
      <trkpt lat="47.15311" lon="-1.30549">
        <ele>16.815432</ele>
        <time>2020-07-07T12:33:32Z</time>
      </trkpt>
      <trkpt lat="47.15309" lon="-1.30556">
        <ele>16.503643</ele>
        <time>2020-07-07T12:33:33Z</time>
      </trkpt>
      <trkpt lat="47.15307" lon="-1.30563">
        <ele>16.926407</ele>
        <time>2020-07-07T12:33:34Z</time>
      </trkpt>
      <trkpt lat="47.15304" lon="-1.3057">
        <ele>16.685959</ele>
        <time>2020-07-07T12:33:35Z</time>
      </trkpt>
      <trkpt lat="47.15301" lon="-1.30577">
        <ele>17.222342</ele>
        <time>2020-07-07T12:33:36Z</time>
      </trkpt>
      <trkpt lat="47.15299" lon="-1.30584">
        <ele>17.0823</ele>
        <time>2020-07-07T12:33:37Z</time>
      </trkpt>
      <trkpt lat="47.15297" lon="-1.30592">
        <ele>16.715025</ele>
        <time>2020-07-07T12:33:38Z</time>
      </trkpt>
      <trkpt lat="47.15294" lon="-1.30599">
        <ele>17.63982</ele>
        <time>2020-07-07T12:33:39Z</time>
      </trkpt>
      <trkpt lat="47.15292" lon="-1.30607">
        <ele>16.870918</ele>
        <time>2020-07-07T12:33:40Z</time>
      </trkpt>
      <trkpt lat="47.15289" lon="-1.30613">
        <ele>17.602829</ele>
        <time>2020-07-07T12:33:41Z</time>
      </trkpt>
      <trkpt lat="47.15286" lon="-1.3062">
        <ele>17.491854</ele>
        <time>2020-07-07T12:33:42Z</time>
      </trkpt>
      <trkpt lat="47.15283" lon="-1.30627">
        <ele>17.734943</ele>
        <time>2020-07-07T12:33:43Z</time>
      </trkpt>
      <trkpt lat="47.15279" lon="-1.30634">
        <ele>18.152422</ele>
        <time>2020-07-07T12:33:44Z</time>
      </trkpt>
      <trkpt lat="47.15275" lon="-1.3064">
        <ele>17.7323</ele>
        <time>2020-07-07T12:33:45Z</time>
      </trkpt>
      <trkpt lat="47.15271" lon="-1.30645">
        <ele>17.444292</ele>
        <time>2020-07-07T12:33:46Z</time>
      </trkpt>
      <trkpt lat="47.15267" lon="-1.30651">
        <ele>18.186771</ele>
        <time>2020-07-07T12:33:47Z</time>
      </trkpt>
      <trkpt lat="47.15263" lon="-1.30657">
        <ele>17.948967</ele>
        <time>2020-07-07T12:33:48Z</time>
      </trkpt>
      <trkpt lat="47.15258" lon="-1.30662">
        <ele>18.374372</ele>
        <time>2020-07-07T12:33:49Z</time>
      </trkpt>
      <trkpt lat="47.15255" lon="-1.30667">
        <ele>18.284534</ele>
        <time>2020-07-07T12:33:50Z</time>
      </trkpt>
      <trkpt lat="47.15251" lon="-1.30671">
        <ele>18.260756</ele>
        <time>2020-07-07T12:33:51Z</time>
      </trkpt>
      <trkpt lat="47.15245" lon="-1.3068">
        <ele>18.355877</ele>
        <time>2020-07-07T12:33:53Z</time>
      </trkpt>
      <trkpt lat="47.15239" lon="-1.30688">
        <ele>18.263397</ele>
        <time>2020-07-07T12:33:55Z</time>
      </trkpt>
      <trkpt lat="47.15235" lon="-1.30696">
        <ele>18.13921</ele>
        <time>2020-07-07T12:33:57Z</time>
      </trkpt>
      <trkpt lat="47.15235" lon="-1.30706">
        <ele>19.064007</ele>
        <time>2020-07-07T12:33:59Z</time>
      </trkpt>
      <trkpt lat="47.15237" lon="-1.30716">
        <ele>19.003235</ele>
        <time>2020-07-07T12:34:01Z</time>
      </trkpt>
      <trkpt lat="47.15241" lon="-1.30726">
        <ele>19.288599</ele>
        <time>2020-07-07T12:34:03Z</time>
      </trkpt>
      <trkpt lat="47.15243" lon="-1.30733">
        <ele>18.318886</ele>
        <time>2020-07-07T12:34:04Z</time>
      </trkpt>
      <trkpt lat="47.15245" lon="-1.30739">
        <ele>19.653233</ele>
        <time>2020-07-07T12:34:05Z</time>
      </trkpt>
      <trkpt lat="47.15249" lon="-1.3075">
        <ele>18.900185</ele>
        <time>2020-07-07T12:34:07Z</time>
      </trkpt>
      <trkpt lat="47.15252" lon="-1.30756">
        <ele>19.177624</ele>
        <time>2020-07-07T12:34:08Z</time>
      </trkpt>
      <trkpt lat="47.15254" lon="-1.30763">
        <ele>19.211973</ele>
        <time>2020-07-07T12:34:09Z</time>
      </trkpt>
      <trkpt lat="47.15256" lon="-1.30769">
        <ele>19.217258</ele>
        <time>2020-07-07T12:34:10Z</time>
      </trkpt>
      <trkpt lat="47.15258" lon="-1.30775">
        <ele>19.000591</ele>
        <time>2020-07-07T12:34:11Z</time>
      </trkpt>
      <trkpt lat="47.1526" lon="-1.30782">
        <ele>19.280672</ele>
        <time>2020-07-07T12:34:12Z</time>
      </trkpt>
      <trkpt lat="47.15263" lon="-1.30788">
        <ele>19.159128</ele>
        <time>2020-07-07T12:34:13Z</time>
      </trkpt>
      <trkpt lat="47.15264" lon="-1.30795">
        <ele>19.412786</ele>
        <time>2020-07-07T12:34:14Z</time>
      </trkpt>
      <trkpt lat="47.15266" lon="-1.30801">
        <ele>18.60425</ele>
        <time>2020-07-07T12:34:15Z</time>
      </trkpt>
      <trkpt lat="47.15268" lon="-1.30808">
        <ele>19.523762</ele>
        <time>2020-07-07T12:34:16Z</time>
      </trkpt>
      <trkpt lat="47.1527" lon="-1.30814">
        <ele>19.167055</ele>
        <time>2020-07-07T12:34:17Z</time>
      </trkpt>
      <trkpt lat="47.15272" lon="-1.30821">
        <ele>19.10364</ele>
        <time>2020-07-07T12:34:18Z</time>
      </trkpt>
      <trkpt lat="47.15274" lon="-1.30827">
        <ele>19.4762</ele>
        <time>2020-07-07T12:34:19Z</time>
      </trkpt>
      <trkpt lat="47.15276" lon="-1.30834">
        <ele>19.174982</ele>
        <time>2020-07-07T12:34:20Z</time>
      </trkpt>
      <trkpt lat="47.15277" lon="-1.30841">
        <ele>19.322948</ele>
        <time>2020-07-07T12:34:21Z</time>
      </trkpt>
      <trkpt lat="47.15278" lon="-1.30848">
        <ele>19.137989</ele>
        <time>2020-07-07T12:34:22Z</time>
      </trkpt>
      <trkpt lat="47.15279" lon="-1.30855">
        <ele>18.937178</ele>
        <time>2020-07-07T12:34:23Z</time>
      </trkpt>
      <trkpt lat="47.1528" lon="-1.30863">
        <ele>19.182909</ele>
        <time>2020-07-07T12:34:24Z</time>
      </trkpt>
      <trkpt lat="47.15281" lon="-1.3087">
        <ele>19.053436</ele>
        <time>2020-07-07T12:34:25Z</time>
      </trkpt>
      <trkpt lat="47.15281" lon="-1.30878">
        <ele>18.839413</ele>
        <time>2020-07-07T12:34:26Z</time>
      </trkpt>
      <trkpt lat="47.15282" lon="-1.30886">
        <ele>18.577827</ele>
        <time>2020-07-07T12:34:27Z</time>
      </trkpt>
      <trkpt lat="47.15282" lon="-1.30894">
        <ele>18.931892</ele>
        <time>2020-07-07T12:34:28Z</time>
      </trkpt>
      <trkpt lat="47.15282" lon="-1.30902">
        <ele>18.667665</ele>
        <time>2020-07-07T12:34:29Z</time>
      </trkpt>
      <trkpt lat="47.15282" lon="-1.30909">
        <ele>18.559332</ele>
        <time>2020-07-07T12:34:30Z</time>
      </trkpt>
      <trkpt lat="47.15282" lon="-1.30917">
        <ele>18.176203</ele>
        <time>2020-07-07T12:34:31Z</time>
      </trkpt>
      <trkpt lat="47.15282" lon="-1.30924">
        <ele>18.355877</ele>
        <time>2020-07-07T12:34:32Z</time>
      </trkpt>
      <trkpt lat="47.15282" lon="-1.30931">
        <ele>18.152422</ele>
        <time>2020-07-07T12:34:33Z</time>
      </trkpt>
      <trkpt lat="47.15282" lon="-1.30938">
        <ele>18.408722</ele>
        <time>2020-07-07T12:34:34Z</time>
      </trkpt>
      <trkpt lat="47.15282" lon="-1.30945">
        <ele>18.34795</ele>
        <time>2020-07-07T12:34:35Z</time>
      </trkpt>
      <trkpt lat="47.15282" lon="-1.30953">
        <ele>18.141853</ele>
        <time>2020-07-07T12:34:36Z</time>
      </trkpt>
      <trkpt lat="47.15282" lon="-1.3096">
        <ele>18.429861</ele>
        <time>2020-07-07T12:34:37Z</time>
      </trkpt>
      <trkpt lat="47.15282" lon="-1.30968">
        <ele>18.273966</ele>
        <time>2020-07-07T12:34:38Z</time>
      </trkpt>
      <trkpt lat="47.15282" lon="-1.30976">
        <ele>18.310959</ele>
        <time>2020-07-07T12:34:39Z</time>
      </trkpt>
      <trkpt lat="47.15281" lon="-1.30984">
        <ele>17.978031</ele>
        <time>2020-07-07T12:34:40Z</time>
      </trkpt>
      <trkpt lat="47.15279" lon="-1.30992">
        <ele>18.083723</ele>
        <time>2020-07-07T12:34:41Z</time>
      </trkpt>
      <trkpt lat="47.15277" lon="-1.30999">
        <ele>18.144495</ele>
        <time>2020-07-07T12:34:42Z</time>
      </trkpt>
      <trkpt lat="47.15274" lon="-1.31005">
        <ele>17.668886</ele>
        <time>2020-07-07T12:34:43Z</time>
      </trkpt>
      <trkpt lat="47.15271" lon="-1.31011">
        <ele>18.036161</ele>
        <time>2020-07-07T12:34:44Z</time>
      </trkpt>
      <trkpt lat="47.15268" lon="-1.31017">
        <ele>18.596323</ele>
        <time>2020-07-07T12:34:45Z</time>
      </trkpt>
      <trkpt lat="47.15265" lon="-1.31022">
        <ele>18.495918</ele>
        <time>2020-07-07T12:34:46Z</time>
      </trkpt>
      <trkpt lat="47.1526" lon="-1.31033">
        <ele>18.593681</ele>
        <time>2020-07-07T12:34:48Z</time>
      </trkpt>
      <trkpt lat="47.15255" lon="-1.31043">
        <ele>18.686161</ele>
        <time>2020-07-07T12:34:50Z</time>
      </trkpt>
      <trkpt lat="47.15252" lon="-1.31048">
        <ele>18.715225</ele>
        <time>2020-07-07T12:34:51Z</time>
      </trkpt>
      <trkpt lat="47.15247" lon="-1.31058">
        <ele>19.259535</ele>
        <time>2020-07-07T12:34:53Z</time>
      </trkpt>
      <trkpt lat="47.15244" lon="-1.31064">
        <ele>19.135347</ele>
        <time>2020-07-07T12:34:54Z</time>
      </trkpt>
      <trkpt lat="47.15239" lon="-1.31075">
        <ele>19.12742</ele>
        <time>2020-07-07T12:34:56Z</time>
      </trkpt>
      <trkpt lat="47.15235" lon="-1.31086">
        <ele>19.18555</ele>
        <time>2020-07-07T12:34:58Z</time>
      </trkpt>
      <trkpt lat="47.15231" lon="-1.31097">
        <ele>19.507908</ele>
        <time>2020-07-07T12:35:00Z</time>
      </trkpt>
      <trkpt lat="47.15228" lon="-1.3111">
        <ele>19.560753</ele>
        <time>2020-07-07T12:35:02Z</time>
      </trkpt>
      <trkpt lat="47.15226" lon="-1.31117">
        <ele>19.692867</ele>
        <time>2020-07-07T12:35:03Z</time>
      </trkpt>
      <trkpt lat="47.15222" lon="-1.31128">
        <ele>19.991444</ele>
        <time>2020-07-07T12:35:05Z</time>
      </trkpt>
      <trkpt lat="47.15218" lon="-1.31138">
        <ele>19.883112</ele>
        <time>2020-07-07T12:35:07Z</time>
      </trkpt>
      <trkpt lat="47.15217" lon="-1.31144">
        <ele>20.168476</ele>
        <time>2020-07-07T12:35:08Z</time>
      </trkpt>
      <trkpt lat="47.15215" lon="-1.3115">
        <ele>19.64795</ele>
        <time>2020-07-07T12:35:09Z</time>
      </trkpt>
      <trkpt lat="47.15213" lon="-1.31156">
        <ele>20.430061</ele>
        <time>2020-07-07T12:35:10Z</time>
      </trkpt>
      <trkpt lat="47.15209" lon="-1.31167">
        <ele>20.213396</ele>
        <time>2020-07-07T12:35:12Z</time>
      </trkpt>
      <trkpt lat="47.15204" lon="-1.31177">
        <ele>19.838192</ele>
        <time>2020-07-07T12:35:14Z</time>
      </trkpt>
      <trkpt lat="47.15196" lon="-1.31184">
        <ele>20.245102</ele>
        <time>2020-07-07T12:35:16Z</time>
      </trkpt>
      <trkpt lat="47.15191" lon="-1.31188">
        <ele>20.128843</ele>
        <time>2020-07-07T12:35:17Z</time>
      </trkpt>
      <trkpt lat="47.15187" lon="-1.31191">
        <ele>19.843477</ele>
        <time>2020-07-07T12:35:18Z</time>
      </trkpt>
      <trkpt lat="47.15182" lon="-1.31194">
        <ele>20.284737</ele>
        <time>2020-07-07T12:35:19Z</time>
      </trkpt>
      <trkpt lat="47.15178" lon="-1.31197">
        <ele>20.105062</ele>
        <time>2020-07-07T12:35:20Z</time>
      </trkpt>
      <trkpt lat="47.15173" lon="-1.312">
        <ele>20.488192</ele>
        <time>2020-07-07T12:35:21Z</time>
      </trkpt>
      <trkpt lat="47.15169" lon="-1.31203">
        <ele>20.390429</ele>
        <time>2020-07-07T12:35:22Z</time>
      </trkpt>
      <trkpt lat="47.15162" lon="-1.31212">
        <ele>20.255672</ele>
        <time>2020-07-07T12:35:24Z</time>
      </trkpt>
      <trkpt lat="47.15159" lon="-1.31218">
        <ele>19.819696</ele>
        <time>2020-07-07T12:35:25Z</time>
      </trkpt>
      <trkpt lat="47.15156" lon="-1.31225">
        <ele>20.932095</ele>
        <time>2020-07-07T12:35:26Z</time>
      </trkpt>
      <trkpt lat="47.15152" lon="-1.31236">
        <ele>20.039005</ele>
        <time>2020-07-07T12:35:28Z</time>
      </trkpt>
      <trkpt lat="47.15149" lon="-1.31242">
        <ele>19.917461</ele>
        <time>2020-07-07T12:35:29Z</time>
      </trkpt>
      <trkpt lat="47.15146" lon="-1.31248">
        <ele>19.875185</ele>
        <time>2020-07-07T12:35:30Z</time>
      </trkpt>
      <trkpt lat="47.15141" lon="-1.31258">
        <ele>19.8699</ele>
        <time>2020-07-07T12:35:32Z</time>
      </trkpt>
      <trkpt lat="47.15136" lon="-1.31269">
        <ele>19.782705</ele>
        <time>2020-07-07T12:35:34Z</time>
      </trkpt>
      <trkpt lat="47.1513" lon="-1.31279">
        <ele>20.06807</ele>
        <time>2020-07-07T12:35:36Z</time>
      </trkpt>
      <trkpt lat="47.15126" lon="-1.3129">
        <ele>20.61238</ele>
        <time>2020-07-07T12:35:38Z</time>
      </trkpt>
      <trkpt lat="47.15127" lon="-1.31303">
        <ele>20.398354</ele>
        <time>2020-07-07T12:35:40Z</time>
      </trkpt>
      <trkpt lat="47.15131" lon="-1.3131">
        <ele>20.477623</ele>
        <time>2020-07-07T12:35:41Z</time>
      </trkpt>
      <trkpt lat="47.15134" lon="-1.31316">
        <ele>19.980875</ele>
        <time>2020-07-07T12:35:42Z</time>
      </trkpt>
      <trkpt lat="47.15138" lon="-1.3132">
        <ele>19.930672</ele>
        <time>2020-07-07T12:35:43Z</time>
      </trkpt>
      <trkpt lat="47.15142" lon="-1.31325">
        <ele>19.71929</ele>
        <time>2020-07-07T12:35:44Z</time>
      </trkpt>
      <trkpt lat="47.15146" lon="-1.31329">
        <ele>19.920103</ele>
        <time>2020-07-07T12:35:45Z</time>
      </trkpt>
      <trkpt lat="47.1515" lon="-1.31333">
        <ele>19.761566</ele>
        <time>2020-07-07T12:35:46Z</time>
      </trkpt>
      <trkpt lat="47.15157" lon="-1.31341">
        <ele>19.83555</ele>
        <time>2020-07-07T12:35:48Z</time>
      </trkpt>
      <trkpt lat="47.15158" lon="-1.31353">
        <ele>19.616241</ele>
        <time>2020-07-07T12:35:50Z</time>
      </trkpt>
      <trkpt lat="47.15155" lon="-1.31359">
        <ele>18.92925</ele>
        <time>2020-07-07T12:35:51Z</time>
      </trkpt>
      <trkpt lat="47.15152" lon="-1.31365">
        <ele>19.42864</ele>
        <time>2020-07-07T12:35:52Z</time>
      </trkpt>
      <trkpt lat="47.15149" lon="-1.3137">
        <ele>18.894901</ele>
        <time>2020-07-07T12:35:53Z</time>
      </trkpt>
      <trkpt lat="47.15144" lon="-1.31375">
        <ele>19.130062</ele>
        <time>2020-07-07T12:35:54Z</time>
      </trkpt>
      <trkpt lat="47.15141" lon="-1.31381">
        <ele>19.378437</ele>
        <time>2020-07-07T12:35:55Z</time>
      </trkpt>
      <trkpt lat="47.15138" lon="-1.31387">
        <ele>19.058722</ele>
        <time>2020-07-07T12:35:56Z</time>
      </trkpt>
      <trkpt lat="47.15135" lon="-1.31392">
        <ele>19.529047</ele>
        <time>2020-07-07T12:35:57Z</time>
      </trkpt>
      <trkpt lat="47.15132" lon="-1.31397">
        <ele>19.48677</ele>
        <time>2020-07-07T12:35:58Z</time>
      </trkpt>
      <trkpt lat="47.15128" lon="-1.31402">
        <ele>19.640022</ele>
        <time>2020-07-07T12:35:59Z</time>
      </trkpt>
      <trkpt lat="47.15125" lon="-1.31407">
        <ele>19.714006</ele>
        <time>2020-07-07T12:36:00Z</time>
      </trkpt>
      <trkpt lat="47.15121" lon="-1.31412">
        <ele>19.645306</ele>
        <time>2020-07-07T12:36:01Z</time>
      </trkpt>
      <trkpt lat="47.15118" lon="-1.31417">
        <ele>19.624168</ele>
        <time>2020-07-07T12:36:02Z</time>
      </trkpt>
      <trkpt lat="47.15115" lon="-1.31422">
        <ele>19.8012</ele>
        <time>2020-07-07T12:36:03Z</time>
      </trkpt>
      <trkpt lat="47.15112" lon="-1.31428">
        <ele>19.891037</ele>
        <time>2020-07-07T12:36:04Z</time>
      </trkpt>
      <trkpt lat="47.15108" lon="-1.31434">
        <ele>19.785347</ele>
        <time>2020-07-07T12:36:05Z</time>
      </trkpt>
      <trkpt lat="47.15105" lon="-1.31439">
        <ele>19.40486</ele>
        <time>2020-07-07T12:36:06Z</time>
      </trkpt>
      <trkpt lat="47.15101" lon="-1.31445">
        <ele>19.732502</ele>
        <time>2020-07-07T12:36:07Z</time>
      </trkpt>
      <trkpt lat="47.15098" lon="-1.31451">
        <ele>19.447136</ele>
        <time>2020-07-07T12:36:08Z</time>
      </trkpt>
      <trkpt lat="47.15094" lon="-1.31456">
        <ele>19.315022</ele>
        <time>2020-07-07T12:36:09Z</time>
      </trkpt>
      <trkpt lat="47.1509" lon="-1.31462">
        <ele>20.07864</ele>
        <time>2020-07-07T12:36:10Z</time>
      </trkpt>
      <trkpt lat="47.15086" lon="-1.31467">
        <ele>19.531689</ele>
        <time>2020-07-07T12:36:11Z</time>
      </trkpt>
      <trkpt lat="47.15082" lon="-1.31474">
        <ele>20.337582</ele>
        <time>2020-07-07T12:36:12Z</time>
      </trkpt>
      <trkpt lat="47.15078" lon="-1.3148">
        <ele>20.139412</ele>
        <time>2020-07-07T12:36:13Z</time>
      </trkpt>
      <trkpt lat="47.15074" lon="-1.31486">
        <ele>19.92803</ele>
        <time>2020-07-07T12:36:14Z</time>
      </trkpt>
      <trkpt lat="47.1507" lon="-1.31492">
        <ele>19.967665</ele>
        <time>2020-07-07T12:36:15Z</time>
      </trkpt>
      <trkpt lat="47.15066" lon="-1.31498">
        <ele>19.946526</ele>
        <time>2020-07-07T12:36:16Z</time>
      </trkpt>
      <trkpt lat="47.15062" lon="-1.31504">
        <ele>19.484127</ele>
        <time>2020-07-07T12:36:17Z</time>
      </trkpt>
      <trkpt lat="47.15058" lon="-1.31509">
        <ele>19.737785</ele>
        <time>2020-07-07T12:36:18Z</time>
      </trkpt>
      <trkpt lat="47.15054" lon="-1.31515">
        <ele>19.883112</ele>
        <time>2020-07-07T12:36:19Z</time>
      </trkpt>
      <trkpt lat="47.15051" lon="-1.3152">
        <ele>19.5449</ele>
        <time>2020-07-07T12:36:20Z</time>
      </trkpt>
      <trkpt lat="47.15047" lon="-1.31526">
        <ele>19.81177</ele>
        <time>2020-07-07T12:36:21Z</time>
      </trkpt>
      <trkpt lat="47.15043" lon="-1.31532">
        <ele>19.209332</ele>
        <time>2020-07-07T12:36:22Z</time>
      </trkpt>
      <trkpt lat="47.15038" lon="-1.31538">
        <ele>19.333519</ele>
        <time>2020-07-07T12:36:23Z</time>
      </trkpt>
      <trkpt lat="47.15035" lon="-1.31544">
        <ele>18.984737</ele>
        <time>2020-07-07T12:36:24Z</time>
      </trkpt>
      <trkpt lat="47.1503" lon="-1.31551">
        <ele>19.064007</ele>
        <time>2020-07-07T12:36:25Z</time>
      </trkpt>
      <trkpt lat="47.15026" lon="-1.31557">
        <ele>19.357298</ele>
        <time>2020-07-07T12:36:26Z</time>
      </trkpt>
      <trkpt lat="47.15022" lon="-1.31563">
        <ele>18.53291</ele>
        <time>2020-07-07T12:36:27Z</time>
      </trkpt>
      <trkpt lat="47.15017" lon="-1.31569">
        <ele>18.342665</ele>
        <time>2020-07-07T12:36:28Z</time>
      </trkpt>
      <trkpt lat="47.15013" lon="-1.31576">
        <ele>18.004454</ele>
        <time>2020-07-07T12:36:29Z</time>
      </trkpt>
      <trkpt lat="47.15009" lon="-1.31582">
        <ele>18.279251</ele>
        <time>2020-07-07T12:36:30Z</time>
      </trkpt>
      <trkpt lat="47.15005" lon="-1.31588">
        <ele>17.38352</ele>
        <time>2020-07-07T12:36:31Z</time>
      </trkpt>
      <trkpt lat="47.15001" lon="-1.31595">
        <ele>18.136568</ele>
        <time>2020-07-07T12:36:32Z</time>
      </trkpt>
      <trkpt lat="47.14996" lon="-1.31601">
        <ele>17.745512</ele>
        <time>2020-07-07T12:36:33Z</time>
      </trkpt>
      <trkpt lat="47.14992" lon="-1.31608">
        <ele>18.131283</ele>
        <time>2020-07-07T12:36:34Z</time>
      </trkpt>
      <trkpt lat="47.14988" lon="-1.31614">
        <ele>17.288399</ele>
        <time>2020-07-07T12:36:35Z</time>
      </trkpt>
      <trkpt lat="47.14985" lon="-1.3162">
        <ele>17.658316</ele>
        <time>2020-07-07T12:36:36Z</time>
      </trkpt>
      <trkpt lat="47.14981" lon="-1.31626">
        <ele>17.293682</ele>
        <time>2020-07-07T12:36:37Z</time>
      </trkpt>
      <trkpt lat="47.14977" lon="-1.31632">
        <ele>17.132504</ele>
        <time>2020-07-07T12:36:38Z</time>
      </trkpt>
      <trkpt lat="47.14973" lon="-1.31637">
        <ele>17.230268</ele>
        <time>2020-07-07T12:36:39Z</time>
      </trkpt>
      <trkpt lat="47.14969" lon="-1.31642">
        <ele>17.314821</ele>
        <time>2020-07-07T12:36:40Z</time>
      </trkpt>
      <trkpt lat="47.14964" lon="-1.31647">
        <ele>17.172138</ele>
        <time>2020-07-07T12:36:41Z</time>
      </trkpt>
      <trkpt lat="47.14959" lon="-1.3165">
        <ele>17.04795</ele>
        <time>2020-07-07T12:36:42Z</time>
      </trkpt>
      <trkpt lat="47.14953" lon="-1.31651">
        <ele>17.114008</ele>
        <time>2020-07-07T12:36:43Z</time>
      </trkpt>
      <trkpt lat="47.14947" lon="-1.3165">
        <ele>16.530066</ele>
        <time>2020-07-07T12:36:44Z</time>
      </trkpt>
      <trkpt lat="47.14941" lon="-1.31647">
        <ele>17.486568</ele>
        <time>2020-07-07T12:36:45Z</time>
      </trkpt>
      <trkpt lat="47.14936" lon="-1.31642">
        <ele>16.955471</ele>
        <time>2020-07-07T12:36:46Z</time>
      </trkpt>
      <trkpt lat="47.1493" lon="-1.31637">
        <ele>16.870918</ele>
        <time>2020-07-07T12:36:47Z</time>
      </trkpt>
      <trkpt lat="47.14925" lon="-1.31631">
        <ele>16.514212</ele>
        <time>2020-07-07T12:36:48Z</time>
      </trkpt>
      <trkpt lat="47.14921" lon="-1.31626">
        <ele>16.971325</ele>
        <time>2020-07-07T12:36:49Z</time>
      </trkpt>
      <trkpt lat="47.14916" lon="-1.31619">
        <ele>16.580269</ele>
        <time>2020-07-07T12:36:50Z</time>
      </trkpt>
      <trkpt lat="47.14911" lon="-1.31613">
        <ele>16.966042</ele>
        <time>2020-07-07T12:36:51Z</time>
      </trkpt>
      <trkpt lat="47.14906" lon="-1.31606">
        <ele>16.812788</ele>
        <time>2020-07-07T12:36:52Z</time>
      </trkpt>
      <trkpt lat="47.14901" lon="-1.31599">
        <ele>16.76787</ele>
        <time>2020-07-07T12:36:53Z</time>
      </trkpt>
      <trkpt lat="47.14895" lon="-1.31592">
        <ele>16.170715</ele>
        <time>2020-07-07T12:36:54Z</time>
      </trkpt>
      <trkpt lat="47.1489" lon="-1.31585">
        <ele>16.516853</ele>
        <time>2020-07-07T12:36:55Z</time>
      </trkpt>
      <trkpt lat="47.14884" lon="-1.31577">
        <ele>16.464008</ele>
        <time>2020-07-07T12:36:56Z</time>
      </trkpt>
      <trkpt lat="47.14879" lon="-1.3157">
        <ele>16.88413</ele>
        <time>2020-07-07T12:36:57Z</time>
      </trkpt>
      <trkpt lat="47.14874" lon="-1.31564">
        <ele>16.862991</ele>
        <time>2020-07-07T12:36:58Z</time>
      </trkpt>
      <trkpt lat="47.14869" lon="-1.31556">
        <ele>16.305471</ele>
        <time>2020-07-07T12:36:59Z</time>
      </trkpt>
      <trkpt lat="47.14864" lon="-1.31549">
        <ele>16.30283</ele>
        <time>2020-07-07T12:37:00Z</time>
      </trkpt>
      <trkpt lat="47.14859" lon="-1.31541">
        <ele>16.358318</ele>
        <time>2020-07-07T12:37:01Z</time>
      </trkpt>
      <trkpt lat="47.14854" lon="-1.31534">
        <ele>16.12844</ele>
        <time>2020-07-07T12:37:02Z</time>
      </trkpt>
      <trkpt lat="47.14848" lon="-1.31527">
        <ele>15.5973425</ele>
        <time>2020-07-07T12:37:03Z</time>
      </trkpt>
      <trkpt lat="47.14843" lon="-1.31519">
        <ele>15.718887</ele>
        <time>2020-07-07T12:37:04Z</time>
      </trkpt>
      <trkpt lat="47.14837" lon="-1.31514">
        <ele>16.49043</ele>
        <time>2020-07-07T12:37:05Z</time>
      </trkpt>
      <trkpt lat="47.14831" lon="-1.31511">
        <ele>15.845716</ele>
        <time>2020-07-07T12:37:06Z</time>
      </trkpt>
      <trkpt lat="47.14825" lon="-1.3151">
        <ele>16.273766</ele>
        <time>2020-07-07T12:37:07Z</time>
      </trkpt>
      <trkpt lat="47.1482" lon="-1.31513">
        <ele>16.149578</ele>
        <time>2020-07-07T12:37:08Z</time>
      </trkpt>
      <trkpt lat="47.14815" lon="-1.31518">
        <ele>15.998968</ele>
        <time>2020-07-07T12:37:09Z</time>
      </trkpt>
      <trkpt lat="47.14811" lon="-1.31523">
        <ele>15.991041</ele>
        <time>2020-07-07T12:37:10Z</time>
      </trkpt>
      <trkpt lat="47.14807" lon="-1.31528">
        <ele>15.811367</ele>
        <time>2020-07-07T12:37:11Z</time>
      </trkpt>
      <trkpt lat="47.14803" lon="-1.31533">
        <ele>15.782302</ele>
        <time>2020-07-07T12:37:12Z</time>
      </trkpt>
      <trkpt lat="47.14799" lon="-1.31539">
        <ele>16.125797</ele>
        <time>2020-07-07T12:37:13Z</time>
      </trkpt>
      <trkpt lat="47.14794" lon="-1.31544">
        <ele>15.967261</ele>
        <time>2020-07-07T12:37:14Z</time>
      </trkpt>
      <trkpt lat="47.1479" lon="-1.31549">
        <ele>15.314619</ele>
        <time>2020-07-07T12:37:15Z</time>
      </trkpt>
      <trkpt lat="47.14785" lon="-1.31555">
        <ele>15.840432</ele>
        <time>2020-07-07T12:37:16Z</time>
      </trkpt>
      <trkpt lat="47.1478" lon="-1.31561">
        <ele>15.924985</ele>
        <time>2020-07-07T12:37:17Z</time>
      </trkpt>
      <trkpt lat="47.14776" lon="-1.31566">
        <ele>15.555066</ele>
        <time>2020-07-07T12:37:18Z</time>
      </trkpt>
      <trkpt lat="47.14772" lon="-1.31572">
        <ele>15.594701</ele>
        <time>2020-07-07T12:37:19Z</time>
      </trkpt>
      <trkpt lat="47.14767" lon="-1.31579">
        <ele>15.819294</ele>
        <time>2020-07-07T12:37:20Z</time>
      </trkpt>
      <trkpt lat="47.14761" lon="-1.31585">
        <ele>15.401814</ele>
        <time>2020-07-07T12:37:21Z</time>
      </trkpt>
      <trkpt lat="47.14756" lon="-1.31591">
        <ele>15.467872</ele>
        <time>2020-07-07T12:37:22Z</time>
      </trkpt>
      <trkpt lat="47.14751" lon="-1.31597">
        <ele>15.161367</ele>
        <time>2020-07-07T12:37:23Z</time>
      </trkpt>
      <trkpt lat="47.14746" lon="-1.31603">
        <ele>15.673969</ele>
        <time>2020-07-07T12:37:24Z</time>
      </trkpt>
      <trkpt lat="47.14741" lon="-1.31609">
        <ele>14.841653</ele>
        <time>2020-07-07T12:37:25Z</time>
      </trkpt>
      <trkpt lat="47.14735" lon="-1.31616">
        <ele>14.783523</ele>
        <time>2020-07-07T12:37:26Z</time>
      </trkpt>
      <trkpt lat="47.14731" lon="-1.31622">
        <ele>14.307913</ele>
        <time>2020-07-07T12:37:27Z</time>
      </trkpt>
      <trkpt lat="47.14726" lon="-1.31628">
        <ele>14.632913</ele>
        <time>2020-07-07T12:37:28Z</time>
      </trkpt>
      <trkpt lat="47.1472" lon="-1.31634">
        <ele>13.668483</ele>
        <time>2020-07-07T12:37:29Z</time>
      </trkpt>
      <trkpt lat="47.14715" lon="-1.3164">
        <ele>13.578646</ele>
        <time>2020-07-07T12:37:30Z</time>
      </trkpt>
      <trkpt lat="47.14709" lon="-1.31646">
        <ele>13.134744</ele>
        <time>2020-07-07T12:37:31Z</time>
      </trkpt>
      <trkpt lat="47.14703" lon="-1.31651">
        <ele>13.081898</ele>
        <time>2020-07-07T12:37:32Z</time>
      </trkpt>
      <trkpt lat="47.14698" lon="-1.31657">
        <ele>12.883728</ele>
        <time>2020-07-07T12:37:33Z</time>
      </trkpt>
      <trkpt lat="47.14692" lon="-1.31662">
        <ele>13.187589</ele>
        <time>2020-07-07T12:37:34Z</time>
      </trkpt>
      <trkpt lat="47.14686" lon="-1.31667">
        <ele>12.320923</ele>
        <time>2020-07-07T12:37:35Z</time>
      </trkpt>
      <trkpt lat="47.14681" lon="-1.31673">
        <ele>12.614216</ele>
        <time>2020-07-07T12:37:36Z</time>
      </trkpt>
      <trkpt lat="47.14676" lon="-1.31678">
        <ele>12.93393</ele>
        <time>2020-07-07T12:37:37Z</time>
      </trkpt>
      <trkpt lat="47.14671" lon="-1.31683">
        <ele>12.63007</ele>
        <time>2020-07-07T12:37:38Z</time>
      </trkpt>
      <trkpt lat="47.14667" lon="-1.31689">
        <ele>12.46889</ele>
        <time>2020-07-07T12:37:39Z</time>
      </trkpt>
      <trkpt lat="47.14664" lon="-1.31696">
        <ele>12.672346</ele>
        <time>2020-07-07T12:37:40Z</time>
      </trkpt>
      <trkpt lat="47.1466" lon="-1.31702">
        <ele>12.93393</ele>
        <time>2020-07-07T12:37:41Z</time>
      </trkpt>
      <trkpt lat="47.14656" lon="-1.31708">
        <ele>13.158524</ele>
        <time>2020-07-07T12:37:42Z</time>
      </trkpt>
      <trkpt lat="47.14652" lon="-1.31714">
        <ele>13.1136055</ele>
        <time>2020-07-07T12:37:43Z</time>
      </trkpt>
      <trkpt lat="47.14648" lon="-1.31718">
        <ele>13.35141</ele>
        <time>2020-07-07T12:37:44Z</time>
      </trkpt>
      <trkpt lat="47.14643" lon="-1.3172">
        <ele>13.906287</ele>
        <time>2020-07-07T12:37:45Z</time>
      </trkpt>
      <trkpt lat="47.14637" lon="-1.31719">
        <ele>13.280068</ele>
        <time>2020-07-07T12:37:46Z</time>
      </trkpt>
      <trkpt lat="47.14632" lon="-1.31717">
        <ele>13.5575075</ele>
        <time>2020-07-07T12:37:47Z</time>
      </trkpt>
      <trkpt lat="47.14628" lon="-1.31715">
        <ele>13.774174</ele>
        <time>2020-07-07T12:37:48Z</time>
      </trkpt>
      <trkpt lat="47.14623" lon="-1.31712">
        <ele>13.438605</ele>
        <time>2020-07-07T12:37:49Z</time>
      </trkpt>
      <trkpt lat="47.14618" lon="-1.31708">
        <ele>13.589214</ele>
        <time>2020-07-07T12:37:50Z</time>
      </trkpt>
      <trkpt lat="47.14613" lon="-1.31703">
        <ele>13.29328</ele>
        <time>2020-07-07T12:37:51Z</time>
      </trkpt>
      <trkpt lat="47.14609" lon="-1.31699">
        <ele>13.5945</ele>
        <time>2020-07-07T12:37:52Z</time>
      </trkpt>
      <trkpt lat="47.14604" lon="-1.31695">
        <ele>13.871938</ele>
        <time>2020-07-07T12:37:53Z</time>
      </trkpt>
      <trkpt lat="47.146" lon="-1.31691">
        <ele>13.396329</ele>
        <time>2020-07-07T12:37:54Z</time>
      </trkpt>
      <trkpt lat="47.14595" lon="-1.31687">
        <ele>13.507304</ele>
        <time>2020-07-07T12:37:55Z</time>
      </trkpt>
      <trkpt lat="47.14588" lon="-1.31679">
        <ele>12.688199</ele>
        <time>2020-07-07T12:37:57Z</time>
      </trkpt>
      <trkpt lat="47.14584" lon="-1.31675">
        <ele>13.105679</ele>
        <time>2020-07-07T12:37:58Z</time>
      </trkpt>
      <trkpt lat="47.14579" lon="-1.31672">
        <ele>12.920719</ele>
        <time>2020-07-07T12:37:59Z</time>
      </trkpt>
      <trkpt lat="47.14574" lon="-1.31669">
        <ele>12.796533</ele>
        <time>2020-07-07T12:38:00Z</time>
      </trkpt>
      <trkpt lat="47.1457" lon="-1.31667">
        <ele>13.23515</ele>
        <time>2020-07-07T12:38:01Z</time>
      </trkpt>
      <trkpt lat="47.14565" lon="-1.31665">
        <ele>13.134744</ele>
        <time>2020-07-07T12:38:02Z</time>
      </trkpt>
      <trkpt lat="47.14561" lon="-1.31665">
        <ele>13.813808</ele>
        <time>2020-07-07T12:38:03Z</time>
      </trkpt>
      <trkpt lat="47.14553" lon="-1.31669">
        <ele>13.697548</ele>
        <time>2020-07-07T12:38:05Z</time>
      </trkpt>
      <trkpt lat="47.14552" lon="-1.31681">
        <ele>13.961775</ele>
        <time>2020-07-07T12:38:07Z</time>
      </trkpt>
      <trkpt lat="47.1455" lon="-1.31688">
        <ele>13.845515</ele>
        <time>2020-07-07T12:38:08Z</time>
      </trkpt>
      <trkpt lat="47.14549" lon="-1.31695">
        <ele>13.87458</ele>
        <time>2020-07-07T12:38:09Z</time>
      </trkpt>
      <trkpt lat="47.14548" lon="-1.31703">
        <ele>13.985556</ele>
        <time>2020-07-07T12:38:10Z</time>
      </trkpt>
      <trkpt lat="47.14546" lon="-1.3171">
        <ele>13.620922</ele>
        <time>2020-07-07T12:38:11Z</time>
      </trkpt>
      <trkpt lat="47.14545" lon="-1.31718">
        <ele>14.091247</ele>
        <time>2020-07-07T12:38:12Z</time>
      </trkpt>
      <trkpt lat="47.14543" lon="-1.31726">
        <ele>13.90893</ele>
        <time>2020-07-07T12:38:13Z</time>
      </trkpt>
      <trkpt lat="47.14542" lon="-1.31734">
        <ele>14.017263</ele>
        <time>2020-07-07T12:38:14Z</time>
      </trkpt>
      <trkpt lat="47.1454" lon="-1.31743">
        <ele>14.54836</ele>
        <time>2020-07-07T12:38:15Z</time>
      </trkpt>
      <trkpt lat="47.14539" lon="-1.31751">
        <ele>14.091247</ele>
        <time>2020-07-07T12:38:16Z</time>
      </trkpt>
      <trkpt lat="47.14537" lon="-1.31759">
        <ele>14.358116</ele>
        <time>2020-07-07T12:38:17Z</time>
      </trkpt>
      <trkpt lat="47.14535" lon="-1.31768">
        <ele>13.953849</ele>
        <time>2020-07-07T12:38:18Z</time>
      </trkpt>
      <trkpt lat="47.14533" lon="-1.31776">
        <ele>14.196938</ele>
        <time>2020-07-07T12:38:19Z</time>
      </trkpt>
      <trkpt lat="47.14531" lon="-1.31784">
        <ele>14.350189</ele>
        <time>2020-07-07T12:38:20Z</time>
      </trkpt>
      <trkpt lat="47.14529" lon="-1.31792">
        <ele>14.05954</ele>
        <time>2020-07-07T12:38:21Z</time>
      </trkpt>
      <trkpt lat="47.14528" lon="-1.31801">
        <ele>14.360759</ele>
        <time>2020-07-07T12:38:22Z</time>
      </trkpt>
      <trkpt lat="47.14526" lon="-1.31809">
        <ele>13.985556</ele>
        <time>2020-07-07T12:38:23Z</time>
      </trkpt>
      <trkpt lat="47.14525" lon="-1.31818">
        <ele>14.191653</ele>
        <time>2020-07-07T12:38:24Z</time>
      </trkpt>
      <trkpt lat="47.14524" lon="-1.31826">
        <ele>14.329051</ele>
        <time>2020-07-07T12:38:25Z</time>
      </trkpt>
      <trkpt lat="47.14523" lon="-1.31835">
        <ele>14.062181</ele>
        <time>2020-07-07T12:38:26Z</time>
      </trkpt>
      <trkpt lat="47.14522" lon="-1.31843">
        <ele>13.99084</ele>
        <time>2020-07-07T12:38:27Z</time>
      </trkpt>
      <trkpt lat="47.14521" lon="-1.31851">
        <ele>14.336978</ele>
        <time>2020-07-07T12:38:28Z</time>
      </trkpt>
      <trkpt lat="47.1452" lon="-1.3186">
        <ele>14.408319</ele>
        <time>2020-07-07T12:38:29Z</time>
      </trkpt>
      <trkpt lat="47.1452" lon="-1.31869">
        <ele>14.683116</ele>
        <time>2020-07-07T12:38:30Z</time>
      </trkpt>
      <trkpt lat="47.14518" lon="-1.31877">
        <ele>13.916857</ele>
        <time>2020-07-07T12:38:31Z</time>
      </trkpt>
      <trkpt lat="47.14518" lon="-1.31885">
        <ele>13.729256</ele>
        <time>2020-07-07T12:38:32Z</time>
      </trkpt>
      <trkpt lat="47.14517" lon="-1.31894">
        <ele>13.428036</ele>
        <time>2020-07-07T12:38:33Z</time>
      </trkpt>
      <trkpt lat="47.14516" lon="-1.31903">
        <ele>13.961775</ele>
        <time>2020-07-07T12:38:34Z</time>
      </trkpt>
      <trkpt lat="47.14515" lon="-1.31911">
        <ele>13.901003</ele>
        <time>2020-07-07T12:38:35Z</time>
      </trkpt>
      <trkpt lat="47.14515" lon="-1.3192">
        <ele>13.790028</ele>
        <time>2020-07-07T12:38:36Z</time>
      </trkpt>
      <trkpt lat="47.14514" lon="-1.31928">
        <ele>13.573361</ele>
        <time>2020-07-07T12:38:37Z</time>
      </trkpt>
      <trkpt lat="47.14513" lon="-1.31937">
        <ele>13.755678</ele>
        <time>2020-07-07T12:38:38Z</time>
      </trkpt>
      <trkpt lat="47.14513" lon="-1.31946">
        <ele>14.305271</ele>
        <time>2020-07-07T12:38:39Z</time>
      </trkpt>
      <trkpt lat="47.14512" lon="-1.31954">
        <ele>13.972344</ele>
        <time>2020-07-07T12:38:40Z</time>
      </trkpt>
      <trkpt lat="47.14512" lon="-1.31963">
        <ele>14.022548</ele>
        <time>2020-07-07T12:38:41Z</time>
      </trkpt>
      <trkpt lat="47.14511" lon="-1.31971">
        <ele>13.700191</ele>
        <time>2020-07-07T12:38:42Z</time>
      </trkpt>
      <trkpt lat="47.14511" lon="-1.31979">
        <ele>13.607711</ele>
        <time>2020-07-07T12:38:43Z</time>
      </trkpt>
      <trkpt lat="47.1451" lon="-1.31987">
        <ele>13.721329</ele>
        <time>2020-07-07T12:38:44Z</time>
      </trkpt>
      <trkpt lat="47.1451" lon="-1.31995">
        <ele>13.433321</ele>
        <time>2020-07-07T12:38:45Z</time>
      </trkpt>
      <trkpt lat="47.14509" lon="-1.32002">
        <ele>13.340841</ele>
        <time>2020-07-07T12:38:46Z</time>
      </trkpt>
      <trkpt lat="47.14509" lon="-1.3201">
        <ele>13.475597</ele>
        <time>2020-07-07T12:38:47Z</time>
      </trkpt>
      <trkpt lat="47.14509" lon="-1.32017">
        <ele>13.531085</ele>
        <time>2020-07-07T12:38:48Z</time>
      </trkpt>
      <trkpt lat="47.14508" lon="-1.32024">
        <ele>12.828239</ele>
        <time>2020-07-07T12:38:49Z</time>
      </trkpt>
      <trkpt lat="47.14508" lon="-1.32031">
        <ele>13.324987</ele>
        <time>2020-07-07T12:38:50Z</time>
      </trkpt>
      <trkpt lat="47.14507" lon="-1.32044">
        <ele>13.100394</ele>
        <time>2020-07-07T12:38:52Z</time>
      </trkpt>
      <trkpt lat="47.14502" lon="-1.32053">
        <ele>14.00141</ele>
        <time>2020-07-07T12:38:54Z</time>
      </trkpt>
      <trkpt lat="47.14495" lon="-1.32057">
        <ele>12.80446</ele>
        <time>2020-07-07T12:38:56Z</time>
      </trkpt>
      <trkpt lat="47.14487" lon="-1.32061">
        <ele>13.496735</ele>
        <time>2020-07-07T12:38:58Z</time>
      </trkpt>
      <trkpt lat="47.14478" lon="-1.32062">
        <ele>13.771532</ele>
        <time>2020-07-07T12:39:00Z</time>
      </trkpt>
      <trkpt lat="47.1447" lon="-1.32064">
        <ele>13.243076</ele>
        <time>2020-07-07T12:39:02Z</time>
      </trkpt>
      <trkpt lat="47.14461" lon="-1.32066">
        <ele>13.824377</ele>
        <time>2020-07-07T12:39:04Z</time>
      </trkpt>
      <trkpt lat="47.14452" lon="-1.32067">
        <ele>13.446532</ele>
        <time>2020-07-07T12:39:06Z</time>
      </trkpt>
      <trkpt lat="47.14447" lon="-1.32067">
        <ele>13.076613</ele>
        <time>2020-07-07T12:39:07Z</time>
      </trkpt>
      <trkpt lat="47.14442" lon="-1.32068">
        <ele>13.726613</ele>
        <time>2020-07-07T12:39:08Z</time>
      </trkpt>
      <trkpt lat="47.14438" lon="-1.32068">
        <ele>13.853442</ele>
        <time>2020-07-07T12:39:09Z</time>
      </trkpt>
      <trkpt lat="47.14433" lon="-1.32069">
        <ele>13.927425</ele>
        <time>2020-07-07T12:39:10Z</time>
      </trkpt>
      <trkpt lat="47.14428" lon="-1.3207">
        <ele>14.574783</ele>
        <time>2020-07-07T12:39:11Z</time>
      </trkpt>
      <trkpt lat="47.14424" lon="-1.32071">
        <ele>13.5125885</ele>
        <time>2020-07-07T12:39:12Z</time>
      </trkpt>
      <trkpt lat="47.1442" lon="-1.32074">
        <ele>14.096531</ele>
        <time>2020-07-07T12:39:13Z</time>
      </trkpt>
      <trkpt lat="47.14415" lon="-1.32077">
        <ele>13.797955</ele>
        <time>2020-07-07T12:39:14Z</time>
      </trkpt>
      <trkpt lat="47.1441" lon="-1.32079">
        <ele>14.067467</ele>
        <time>2020-07-07T12:39:15Z</time>
      </trkpt>
      <trkpt lat="47.14405" lon="-1.32081">
        <ele>13.845515</ele>
        <time>2020-07-07T12:39:16Z</time>
      </trkpt>
      <trkpt lat="47.14399" lon="-1.32082">
        <ele>14.519295</ele>
        <time>2020-07-07T12:39:17Z</time>
      </trkpt>
      <trkpt lat="47.14394" lon="-1.32083">
        <ele>14.247141</ele>
        <time>2020-07-07T12:39:18Z</time>
      </trkpt>
      <trkpt lat="47.14389" lon="-1.32085">
        <ele>13.81645</ele>
        <time>2020-07-07T12:39:19Z</time>
      </trkpt>
      <trkpt lat="47.14385" lon="-1.32086">
        <ele>14.458523</ele>
        <time>2020-07-07T12:39:20Z</time>
      </trkpt>
      <trkpt lat="47.1438" lon="-1.32087">
        <ele>14.886571</ele>
        <time>2020-07-07T12:39:21Z</time>
      </trkpt>
      <trkpt lat="47.14375" lon="-1.32088">
        <ele>14.273563</ele>
        <time>2020-07-07T12:39:22Z</time>
      </trkpt>
      <trkpt lat="47.1437" lon="-1.32089">
        <ele>14.202222</ele>
        <time>2020-07-07T12:39:23Z</time>
      </trkpt>
      <trkpt lat="47.14365" lon="-1.32091">
        <ele>13.663198</ele>
        <time>2020-07-07T12:39:24Z</time>
      </trkpt>
      <trkpt lat="47.1436" lon="-1.32092">
        <ele>14.691043</ele>
        <time>2020-07-07T12:39:25Z</time>
      </trkpt>
      <trkpt lat="47.14356" lon="-1.32095">
        <ele>13.64206</ele>
        <time>2020-07-07T12:39:26Z</time>
      </trkpt>
      <trkpt lat="47.14349" lon="-1.321">
        <ele>14.64084</ele>
        <time>2020-07-07T12:39:28Z</time>
      </trkpt>
      <trkpt lat="47.14344" lon="-1.32103">
        <ele>13.922141</ele>
        <time>2020-07-07T12:39:29Z</time>
      </trkpt>
      <trkpt lat="47.14336" lon="-1.32107">
        <ele>13.980271</ele>
        <time>2020-07-07T12:39:31Z</time>
      </trkpt>
      <trkpt lat="47.14328" lon="-1.32109">
        <ele>14.091247</ele>
        <time>2020-07-07T12:39:33Z</time>
      </trkpt>
      <trkpt lat="47.14322" lon="-1.32108">
        <ele>14.255068</ele>
        <time>2020-07-07T12:39:35Z</time>
      </trkpt>
      <trkpt lat="47.14315" lon="-1.32107">
        <ele>14.096531</ele>
        <time>2020-07-07T12:39:37Z</time>
      </trkpt>
      <trkpt lat="47.14308" lon="-1.32103">
        <ele>14.582709</ele>
        <time>2020-07-07T12:39:39Z</time>
      </trkpt>
      <trkpt lat="47.14302" lon="-1.32097">
        <ele>14.241857</ele>
        <time>2020-07-07T12:39:41Z</time>
      </trkpt>
      <trkpt lat="47.14296" lon="-1.32092">
        <ele>13.982914</ele>
        <time>2020-07-07T12:39:43Z</time>
      </trkpt>
      <trkpt lat="47.1429" lon="-1.32086">
        <ele>14.041043</ele>
        <time>2020-07-07T12:39:45Z</time>
      </trkpt>
      <trkpt lat="47.14285" lon="-1.3208">
        <ele>14.395108</ele>
        <time>2020-07-07T12:39:47Z</time>
      </trkpt>
      <trkpt lat="47.14278" lon="-1.32075">
        <ele>14.00141</ele>
        <time>2020-07-07T12:39:49Z</time>
      </trkpt>
      <trkpt lat="47.14271" lon="-1.32073">
        <ele>13.586573</ele>
        <time>2020-07-07T12:39:51Z</time>
      </trkpt>
      <trkpt lat="47.14264" lon="-1.32071">
        <ele>13.631491</ele>
        <time>2020-07-07T12:39:53Z</time>
      </trkpt>
      <trkpt lat="47.14257" lon="-1.3207">
        <ele>13.716043</ele>
        <time>2020-07-07T12:39:55Z</time>
      </trkpt>
      <trkpt lat="47.14251" lon="-1.32069">
        <ele>13.787385</ele>
        <time>2020-07-07T12:39:57Z</time>
      </trkpt>
      <trkpt lat="47.14245" lon="-1.3207">
        <ele>13.147955</ele>
        <time>2020-07-07T12:39:59Z</time>
      </trkpt>
      <trkpt lat="47.14241" lon="-1.32075">
        <ele>13.169093</ele>
        <time>2020-07-07T12:40:01Z</time>
      </trkpt>
      <trkpt lat="47.14245" lon="-1.32084">
        <ele>13.517874</ele>
        <time>2020-07-07T12:40:04Z</time>
      </trkpt>
      <trkpt lat="47.14249" lon="-1.32093">
        <ele>13.702832</ele>
        <time>2020-07-07T12:40:06Z</time>
      </trkpt>
      <trkpt lat="47.14252" lon="-1.32103">
        <ele>13.745109</ele>
        <time>2020-07-07T12:40:08Z</time>
      </trkpt>
      <trkpt lat="47.14253" lon="-1.32115">
        <ele>13.620922</ele>
        <time>2020-07-07T12:40:10Z</time>
      </trkpt>
      <trkpt lat="47.14256" lon="-1.32126">
        <ele>12.799175</ele>
        <time>2020-07-07T12:40:12Z</time>
      </trkpt>
      <trkpt lat="47.14257" lon="-1.32137">
        <ele>13.190231</ele>
        <time>2020-07-07T12:40:14Z</time>
      </trkpt>
      <trkpt lat="47.14259" lon="-1.32147">
        <ele>13.179663</ele>
        <time>2020-07-07T12:40:16Z</time>
      </trkpt>
      <trkpt lat="47.1426" lon="-1.32158">
        <ele>13.462385</ele>
        <time>2020-07-07T12:40:18Z</time>
      </trkpt>
      <trkpt lat="47.14261" lon="-1.32169">
        <ele>13.306492</ele>
        <time>2020-07-07T12:40:20Z</time>
      </trkpt>
      <trkpt lat="47.14261" lon="-1.3218">
        <ele>13.100394</ele>
        <time>2020-07-07T12:40:22Z</time>
      </trkpt>
      <trkpt lat="47.14261" lon="-1.32192">
        <ele>12.80446</ele>
        <time>2020-07-07T12:40:24Z</time>
      </trkpt>
      <trkpt lat="47.14263" lon="-1.32204">
        <ele>13.110963</ele>
        <time>2020-07-07T12:40:26Z</time>
      </trkpt>
      <trkpt lat="47.14265" lon="-1.32215">
        <ele>12.815028</ele>
        <time>2020-07-07T12:40:28Z</time>
      </trkpt>
      <trkpt lat="47.14265" lon="-1.32226">
        <ele>12.52702</ele>
        <time>2020-07-07T12:40:30Z</time>
      </trkpt>
      <trkpt lat="47.14263" lon="-1.32237">
        <ele>12.392264</ele>
        <time>2020-07-07T12:40:32Z</time>
      </trkpt>
      <trkpt lat="47.14259" lon="-1.32248">
        <ele>11.956289</ele>
        <time>2020-07-07T12:40:34Z</time>
      </trkpt>
      <trkpt lat="47.14256" lon="-1.3226">
        <ele>11.895517</ele>
        <time>2020-07-07T12:40:36Z</time>
      </trkpt>
      <trkpt lat="47.14253" lon="-1.32271">
        <ele>11.48068</ele>
        <time>2020-07-07T12:40:38Z</time>
      </trkpt>
      <trkpt lat="47.1425" lon="-1.32282">
        <ele>10.545315</ele>
        <time>2020-07-07T12:40:40Z</time>
      </trkpt>
      <trkpt lat="47.14247" lon="-1.32293">
        <ele>10.870315</ele>
        <time>2020-07-07T12:40:42Z</time>
      </trkpt>
      <trkpt lat="47.14243" lon="-1.32304">
        <ele>10.170113</ele>
        <time>2020-07-07T12:40:44Z</time>
      </trkpt>
      <trkpt lat="47.14239" lon="-1.32316">
        <ele>10.008934</ele>
        <time>2020-07-07T12:40:46Z</time>
      </trkpt>
      <trkpt lat="47.14234" lon="-1.32327">
        <ele>9.218894</ele>
        <time>2020-07-07T12:40:48Z</time>
      </trkpt>
      <trkpt lat="47.14231" lon="-1.32332">
        <ele>9.974584</ele>
        <time>2020-07-07T12:40:49Z</time>
      </trkpt>
      <trkpt lat="47.14228" lon="-1.32338">
        <ele>9.176618</ele>
        <time>2020-07-07T12:40:50Z</time>
      </trkpt>
      <trkpt lat="47.14225" lon="-1.32344">
        <ele>9.562389</ele>
        <time>2020-07-07T12:40:51Z</time>
      </trkpt>
      <trkpt lat="47.14222" lon="-1.32349">
        <ele>9.129056</ele>
        <time>2020-07-07T12:40:52Z</time>
      </trkpt>
      <trkpt lat="47.14219" lon="-1.32355">
        <ele>8.302025</ele>
        <time>2020-07-07T12:40:53Z</time>
      </trkpt>
      <trkpt lat="47.14216" lon="-1.3236">
        <ele>8.095927</ele>
        <time>2020-07-07T12:40:54Z</time>
      </trkpt>
      <trkpt lat="47.14212" lon="-1.32365">
        <ele>8.574179</ele>
        <time>2020-07-07T12:40:55Z</time>
      </trkpt>
      <trkpt lat="47.14209" lon="-1.32371">
        <ele>8.856902</ele>
        <time>2020-07-07T12:40:56Z</time>
      </trkpt>
      <trkpt lat="47.14205" lon="-1.32376">
        <ele>7.6784477</ele>
        <time>2020-07-07T12:40:57Z</time>
      </trkpt>
      <trkpt lat="47.14201" lon="-1.3238">
        <ele>8.65609</ele>
        <time>2020-07-07T12:40:58Z</time>
      </trkpt>
      <trkpt lat="47.14197" lon="-1.32384">
        <ele>6.9121885</ele>
        <time>2020-07-07T12:40:59Z</time>
      </trkpt>
      <trkpt lat="47.14188" lon="-1.32391">
        <ele>6.523774</ele>
        <time>2020-07-07T12:41:01Z</time>
      </trkpt>
      <trkpt lat="47.1418" lon="-1.32397">
        <ele>7.295318</ele>
        <time>2020-07-07T12:41:03Z</time>
      </trkpt>
      <trkpt lat="47.14175" lon="-1.32401">
        <ele>7.2134075</ele>
        <time>2020-07-07T12:41:04Z</time>
      </trkpt>
      <trkpt lat="47.14171" lon="-1.32405">
        <ele>6.4603596</ele>
        <time>2020-07-07T12:41:05Z</time>
      </trkpt>
      <trkpt lat="47.14165" lon="-1.3241">
        <ele>6.1010103</ele>
        <time>2020-07-07T12:41:06Z</time>
      </trkpt>
      <trkpt lat="47.14159" lon="-1.32415">
        <ele>6.6823106</ele>
        <time>2020-07-07T12:41:07Z</time>
      </trkpt>
      <trkpt lat="47.14152" lon="-1.32418">
        <ele>6.3467417</ele>
        <time>2020-07-07T12:41:08Z</time>
      </trkpt>
      <trkpt lat="47.14145" lon="-1.32421">
        <ele>6.640034</ele>
        <time>2020-07-07T12:41:09Z</time>
      </trkpt>
      <trkpt lat="47.1414" lon="-1.32423">
        <ele>6.560766</ele>
        <time>2020-07-07T12:41:10Z</time>
      </trkpt>
      <trkpt lat="47.14134" lon="-1.32425">
        <ele>5.865848</ele>
        <time>2020-07-07T12:41:11Z</time>
      </trkpt>
      <trkpt lat="47.14128" lon="-1.32427">
        <ele>6.6004</ele>
        <time>2020-07-07T12:41:12Z</time>
      </trkpt>
      <trkpt lat="47.14123" lon="-1.3243">
        <ele>6.1142216</ele>
        <time>2020-07-07T12:41:13Z</time>
      </trkpt>
      <trkpt lat="47.14118" lon="-1.32433">
        <ele>5.5910516</ele>
        <time>2020-07-07T12:41:14Z</time>
      </trkpt>
      <trkpt lat="47.14113" lon="-1.32437">
        <ele>4.8115807</ele>
        <time>2020-07-07T12:41:15Z</time>
      </trkpt>
      <trkpt lat="47.14108" lon="-1.32441">
        <ele>5.2132063</ele>
        <time>2020-07-07T12:41:16Z</time>
      </trkpt>
      <trkpt lat="47.14103" lon="-1.32446">
        <ele>4.9357677</ele>
        <time>2020-07-07T12:41:17Z</time>
      </trkpt>
      <trkpt lat="47.14098" lon="-1.32451">
        <ele>4.824792</ele>
        <time>2020-07-07T12:41:18Z</time>
      </trkpt>
      <trkpt lat="47.14093" lon="-1.32456">
        <ele>4.528857</ele>
        <time>2020-07-07T12:41:19Z</time>
      </trkpt>
      <trkpt lat="47.14088" lon="-1.3246">
        <ele>4.3069067</ele>
        <time>2020-07-07T12:41:20Z</time>
      </trkpt>
      <trkpt lat="47.14082" lon="-1.32465">
        <ele>3.91585</ele>
        <time>2020-07-07T12:41:21Z</time>
      </trkpt>
      <trkpt lat="47.14077" lon="-1.3247">
        <ele>3.522151</ele>
        <time>2020-07-07T12:41:22Z</time>
      </trkpt>
      <trkpt lat="47.14072" lon="-1.32475">
        <ele>3.7203217</ele>
        <time>2020-07-07T12:41:23Z</time>
      </trkpt>
      <trkpt lat="47.14067" lon="-1.3248">
        <ele>3.5274358</ele>
        <time>2020-07-07T12:41:24Z</time>
      </trkpt>
      <trkpt lat="47.14061" lon="-1.32484">
        <ele>3.7493868</ele>
        <time>2020-07-07T12:41:25Z</time>
      </trkpt>
      <trkpt lat="47.14056" lon="-1.32488">
        <ele>3.704468</ele>
        <time>2020-07-07T12:41:26Z</time>
      </trkpt>
      <trkpt lat="47.14051" lon="-1.32491">
        <ele>3.7890208</ele>
        <time>2020-07-07T12:41:27Z</time>
      </trkpt>
      <trkpt lat="47.14045" lon="-1.32495">
        <ele>3.0148344</ele>
        <time>2020-07-07T12:41:28Z</time>
      </trkpt>
      <trkpt lat="47.14041" lon="-1.325">
        <ele>2.8245907</ele>
        <time>2020-07-07T12:41:29Z</time>
      </trkpt>
      <trkpt lat="47.14036" lon="-1.32505">
        <ele>1.9315022</ele>
        <time>2020-07-07T12:41:30Z</time>
      </trkpt>
      <trkpt lat="47.14031" lon="-1.32513">
        <ele>1.6752017</ele>
        <time>2020-07-07T12:41:31Z</time>
      </trkpt>
      <trkpt lat="47.14026" lon="-1.32522">
        <ele>0.29593468</ele>
        <time>2020-07-07T12:41:32Z</time>
      </trkpt>
      <trkpt lat="47.14021" lon="-1.32532">
        <ele>-0.24837375</ele>
        <time>2020-07-07T12:41:33Z</time>
      </trkpt>
      <trkpt lat="47.14019" lon="-1.32541">
        <ele>-0.39105654</ele>
        <time>2020-07-07T12:41:34Z</time>
      </trkpt>
      <trkpt lat="47.14016" lon="-1.32547">
        <ele>0.15060961</ele>
        <time>2020-07-07T12:41:35Z</time>
      </trkpt>
      <trkpt lat="47.14014" lon="-1.32557">
        <ele>-0.6288612</ele>
        <time>2020-07-07T12:41:37Z</time>
      </trkpt>
      <trkpt lat="47.14014" lon="-1.32564">
        <ele>-1.273576</ele>
        <time>2020-07-07T12:41:38Z</time>
      </trkpt>
      <trkpt lat="47.14018" lon="-1.32575">
        <ele>-1.3369906</ele>
        <time>2020-07-07T12:41:40Z</time>
      </trkpt>
      <trkpt lat="47.14019" lon="-1.32582">
        <ele>-1.3951206</ele>
        <time>2020-07-07T12:41:41Z</time>
      </trkpt>
      <trkpt lat="47.14021" lon="-1.3259">
        <ele>-1.5219498</ele>
        <time>2020-07-07T12:41:42Z</time>
      </trkpt>
      <trkpt lat="47.14023" lon="-1.32597">
        <ele>-1.4585352</ele>
        <time>2020-07-07T12:41:43Z</time>
      </trkpt>
      <trkpt lat="47.14025" lon="-1.32603">
        <ele>-1.4691043</ele>
        <time>2020-07-07T12:41:44Z</time>
      </trkpt>
      <trkpt lat="47.14028" lon="-1.3261">
        <ele>-1.3581288</ele>
        <time>2020-07-07T12:41:45Z</time>
      </trkpt>
      <trkpt lat="47.14031" lon="-1.32618">
        <ele>-1.1943078</ele>
        <time>2020-07-07T12:41:46Z</time>
      </trkpt>
      <trkpt lat="47.14034" lon="-1.32624">
        <ele>-0.96707225</ele>
        <time>2020-07-07T12:41:47Z</time>
      </trkpt>
      <trkpt lat="47.14037" lon="-1.32631">
        <ele>-1.3845515</ele>
        <time>2020-07-07T12:41:48Z</time>
      </trkpt>
      <trkpt lat="47.1404" lon="-1.32638">
        <ele>-1.3264215</ele>
        <time>2020-07-07T12:41:49Z</time>
      </trkpt>
      <trkpt lat="47.14043" lon="-1.32644">
        <ele>-1.5166652</ele>
        <time>2020-07-07T12:41:50Z</time>
      </trkpt>
      <trkpt lat="47.14047" lon="-1.32648">
        <ele>-0.9406495</ele>
        <time>2020-07-07T12:41:51Z</time>
      </trkpt>
      <trkpt lat="47.14051" lon="-1.32651">
        <ele>-0.80325127</ele>
        <time>2020-07-07T12:41:52Z</time>
      </trkpt>
      <trkpt lat="47.14059" lon="-1.32658">
        <ele>-0.32764196</ele>
        <time>2020-07-07T12:41:54Z</time>
      </trkpt>
      <trkpt lat="47.14066" lon="-1.32664">
        <ele>0.385772</ele>
        <time>2020-07-07T12:41:56Z</time>
      </trkpt>
      <trkpt lat="47.14071" lon="-1.32669">
        <ele>-0.60243845</ele>
        <time>2020-07-07T12:41:58Z</time>
      </trkpt>
      <trkpt lat="47.14076" lon="-1.32674">
        <ele>0.6869912</ele>
        <time>2020-07-07T12:42:00Z</time>
      </trkpt>
      <trkpt lat="47.14082" lon="-1.3268">
        <ele>0.99613726</ele>
        <time>2020-07-07T12:42:02Z</time>
      </trkpt>
      <trkpt lat="47.14087" lon="-1.32687">
        <ele>1.6355675</ele>
        <time>2020-07-07T12:42:04Z</time>
      </trkpt>
      <trkpt lat="47.14092" lon="-1.3269">
        <ele>1.5932912</ele>
        <time>2020-07-07T12:42:05Z</time>
      </trkpt>
      <trkpt lat="47.14095" lon="-1.32695">
        <ele>2.3621929</ele>
        <time>2020-07-07T12:42:06Z</time>
      </trkpt>
      <trkpt lat="47.14101" lon="-1.32701">
        <ele>2.5101602</ele>
        <time>2020-07-07T12:42:08Z</time>
      </trkpt>
      <trkpt lat="47.141" lon="-1.32716">
        <ele>-4.063817</ele>
        <time>2020-07-07T12:42:20Z</time>
      </trkpt>
      <trkpt lat="47.14097" lon="-1.32725">
        <ele>-2.5682902</ele>
        <time>2020-07-07T12:42:34Z</time>
      </trkpt>
      <trkpt lat="47.14094" lon="-1.32732">
        <ele>-3.028046</ele>
        <time>2020-07-07T12:42:36Z</time>
      </trkpt>
      <trkpt lat="47.14091" lon="-1.32738">
        <ele>-2.499591</ele>
        <time>2020-07-07T12:42:37Z</time>
      </trkpt>
      <trkpt lat="47.14088" lon="-1.32743">
        <ele>-2.208941</ele>
        <time>2020-07-07T12:42:38Z</time>
      </trkpt>
      <trkpt lat="47.14082" lon="-1.32755">
        <ele>-2.055689</ele>
        <time>2020-07-07T12:42:40Z</time>
      </trkpt>
      <trkpt lat="47.14077" lon="-1.32764">
        <ele>-2.1138191</ele>
        <time>2020-07-07T12:42:41Z</time>
      </trkpt>
      <trkpt lat="47.14071" lon="-1.32783">
        <ele>-1.099186</ele>
        <time>2020-07-07T12:42:43Z</time>
      </trkpt>
      <trkpt lat="47.14068" lon="-1.3279">
        <ele>-0.7821131</ele>
        <time>2020-07-07T12:42:44Z</time>
      </trkpt>
      <trkpt lat="47.14065" lon="-1.32799">
        <ele>-0.4756093</ele>
        <time>2020-07-07T12:42:46Z</time>
      </trkpt>
      <trkpt lat="47.14062" lon="-1.32807">
        <ele>-0.052845478</ele>
        <time>2020-07-07T12:42:48Z</time>
      </trkpt>
      <trkpt lat="47.14059" lon="-1.32813">
        <ele>0.105690956</ele>
        <time>2020-07-07T12:42:49Z</time>
      </trkpt>
      <trkpt lat="47.14054" lon="-1.32822">
        <ele>0.10833323</ele>
        <time>2020-07-07T12:42:51Z</time>
      </trkpt>
      <trkpt lat="47.14048" lon="-1.32834">
        <ele>0.7768285</ele>
        <time>2020-07-07T12:42:53Z</time>
      </trkpt>
      <trkpt lat="47.14046" lon="-1.32841">
        <ele>1.5113807</ele>
        <time>2020-07-07T12:42:55Z</time>
      </trkpt>
      <trkpt lat="47.14041" lon="-1.32851">
        <ele>1.7121935</ele>
        <time>2020-07-07T12:42:56Z</time>
      </trkpt>
      <trkpt lat="47.14037" lon="-1.32862">
        <ele>2.5630057</ele>
        <time>2020-07-07T12:42:58Z</time>
      </trkpt>
      <trkpt lat="47.14034" lon="-1.32869">
        <ele>2.4731684</ele>
        <time>2020-07-07T12:42:59Z</time>
      </trkpt>
      <trkpt lat="47.14031" lon="-1.32875">
        <ele>3.0941029</ele>
        <time>2020-07-07T12:43:00Z</time>
      </trkpt>
      <trkpt lat="47.14028" lon="-1.32881">
        <ele>4.010972</ele>
        <time>2020-07-07T12:43:01Z</time>
      </trkpt>
      <trkpt lat="47.14024" lon="-1.3289">
        <ele>4.5024347</ele>
        <time>2020-07-07T12:43:03Z</time>
      </trkpt>
      <trkpt lat="47.14022" lon="-1.32898">
        <ele>4.2408495</ele>
        <time>2020-07-07T12:43:04Z</time>
      </trkpt>
      <trkpt lat="47.1402" lon="-1.32905">
        <ele>5.065239</ele>
        <time>2020-07-07T12:43:05Z</time>
      </trkpt>
      <trkpt lat="47.14019" lon="-1.32912">
        <ele>4.5843453</ele>
        <time>2020-07-07T12:43:06Z</time>
      </trkpt>
      <trkpt lat="47.14015" lon="-1.32927">
        <ele>4.4971504</ele>
        <time>2020-07-07T12:43:08Z</time>
      </trkpt>
      <trkpt lat="47.14012" lon="-1.32935">
        <ele>4.8934913</ele>
        <time>2020-07-07T12:43:09Z</time>
      </trkpt>
      <trkpt lat="47.1401" lon="-1.32942">
        <ele>4.8855643</ele>
        <time>2020-07-07T12:43:10Z</time>
      </trkpt>
      <trkpt lat="47.14006" lon="-1.32948">
        <ele>4.8010116</ele>
        <time>2020-07-07T12:43:11Z</time>
      </trkpt>
      <trkpt lat="47.14003" lon="-1.32955">
        <ele>4.592272</ele>
        <time>2020-07-07T12:43:12Z</time>
      </trkpt>
      <trkpt lat="47.14001" lon="-1.32961">
        <ele>4.581703</ele>
        <time>2020-07-07T12:43:13Z</time>
      </trkpt>
      <trkpt lat="47.13996" lon="-1.32971">
        <ele>4.756093</ele>
        <time>2020-07-07T12:43:15Z</time>
      </trkpt>
      <trkpt lat="47.13992" lon="-1.32982">
        <ele>4.528857</ele>
        <time>2020-07-07T12:43:17Z</time>
      </trkpt>
      <trkpt lat="47.13988" lon="-1.32994">
        <ele>4.539427</ele>
        <time>2020-07-07T12:43:19Z</time>
      </trkpt>
      <trkpt lat="47.13985" lon="-1.32999">
        <ele>4.4892235</ele>
        <time>2020-07-07T12:43:20Z</time>
      </trkpt>
      <trkpt lat="47.13982" lon="-1.33005">
        <ele>4.494508</ele>
        <time>2020-07-07T12:43:21Z</time>
      </trkpt>
      <trkpt lat="47.13977" lon="-1.33014">
        <ele>4.7825155</ele>
        <time>2020-07-07T12:43:23Z</time>
      </trkpt>
      <trkpt lat="47.13973" lon="-1.33022">
        <ele>4.832719</ele>
        <time>2020-07-07T12:43:25Z</time>
      </trkpt>
      <trkpt lat="47.13969" lon="-1.33031">
        <ele>3.97398</ele>
        <time>2020-07-07T12:43:27Z</time>
      </trkpt>
      <trkpt lat="47.13965" lon="-1.3304">
        <ele>4.188004</ele>
        <time>2020-07-07T12:43:29Z</time>
      </trkpt>
      <trkpt lat="47.1396" lon="-1.3305">
        <ele>4.6953206</ele>
        <time>2020-07-07T12:43:31Z</time>
      </trkpt>
      <trkpt lat="47.13958" lon="-1.33055">
        <ele>4.0743866</ele>
        <time>2020-07-07T12:43:32Z</time>
      </trkpt>
      <trkpt lat="47.13953" lon="-1.33067">
        <ele>4.3703213</ele>
        <time>2020-07-07T12:43:34Z</time>
      </trkpt>
      <trkpt lat="47.1395" lon="-1.33072">
        <ele>4.3438983</ele>
        <time>2020-07-07T12:43:35Z</time>
      </trkpt>
      <trkpt lat="47.13947" lon="-1.33078">
        <ele>5.08902</ele>
        <time>2020-07-07T12:43:36Z</time>
      </trkpt>
      <trkpt lat="47.13942" lon="-1.33088">
        <ele>4.3861747</ele>
        <time>2020-07-07T12:43:38Z</time>
      </trkpt>
      <trkpt lat="47.13937" lon="-1.33097">
        <ele>4.3254023</ele>
        <time>2020-07-07T12:43:40Z</time>
      </trkpt>
      <trkpt lat="47.13934" lon="-1.33102">
        <ele>4.520931</ele>
        <time>2020-07-07T12:43:41Z</time>
      </trkpt>
      <trkpt lat="47.13929" lon="-1.3311">
        <ele>4.6926785</ele>
        <time>2020-07-07T12:43:43Z</time>
      </trkpt>
      <trkpt lat="47.13924" lon="-1.33118">
        <ele>5.308328</ele>
        <time>2020-07-07T12:43:45Z</time>
      </trkpt>
      <trkpt lat="47.13919" lon="-1.33124">
        <ele>5.429873</ele>
        <time>2020-07-07T12:43:47Z</time>
      </trkpt>
      <trkpt lat="47.13912" lon="-1.33131">
        <ele>5.1445074</ele>
        <time>2020-07-07T12:43:49Z</time>
      </trkpt>
      <trkpt lat="47.13904" lon="-1.33139">
        <ele>4.563207</ele>
        <time>2020-07-07T12:43:51Z</time>
      </trkpt>
      <trkpt lat="47.139" lon="-1.33144">
        <ele>5.3796697</ele>
        <time>2020-07-07T12:43:52Z</time>
      </trkpt>
      <trkpt lat="47.139" lon="-1.33156">
        <ele>5.2528405</ele>
        <time>2020-07-07T12:43:54Z</time>
      </trkpt>
      <trkpt lat="47.13905" lon="-1.33165">
        <ele>5.3400354</ele>
        <time>2020-07-07T12:43:56Z</time>
      </trkpt>
      <trkpt lat="47.13913" lon="-1.3317">
        <ele>5.4642224</ele>
        <time>2020-07-07T12:43:58Z</time>
      </trkpt>
      <trkpt lat="47.13917" lon="-1.33173">
        <ele>5.9160514</ele>
        <time>2020-07-07T12:43:59Z</time>
      </trkpt>
      <trkpt lat="47.13924" lon="-1.33179">
        <ele>6.196132</ele>
        <time>2020-07-07T12:44:01Z</time>
      </trkpt>
      <trkpt lat="47.13931" lon="-1.33184">
        <ele>6.7193027</ele>
        <time>2020-07-07T12:44:03Z</time>
      </trkpt>
      <trkpt lat="47.13937" lon="-1.33189">
        <ele>6.8249936</ele>
        <time>2020-07-07T12:44:05Z</time>
      </trkpt>
      <trkpt lat="47.13944" lon="-1.33194">
        <ele>7.406294</ele>
        <time>2020-07-07T12:44:07Z</time>
      </trkpt>
      <trkpt lat="47.13948" lon="-1.33201">
        <ele>7.5489764</ele>
        <time>2020-07-07T12:44:09Z</time>
      </trkpt>
      <trkpt lat="47.13946" lon="-1.33209">
        <ele>8.243895</ele>
        <time>2020-07-07T12:44:11Z</time>
      </trkpt>
      <trkpt lat="47.13944" lon="-1.33216">
        <ele>8.875398</ele>
        <time>2020-07-07T12:44:12Z</time>
      </trkpt>
      <trkpt lat="47.13942" lon="-1.33222">
        <ele>9.277023</ele>
        <time>2020-07-07T12:44:13Z</time>
      </trkpt>
      <trkpt lat="47.13938" lon="-1.33232">
        <ele>9.158121</ele>
        <time>2020-07-07T12:44:15Z</time>
      </trkpt>
      <trkpt lat="47.13933" lon="-1.33243">
        <ele>9.414422</ele>
        <time>2020-07-07T12:44:17Z</time>
      </trkpt>
      <trkpt lat="47.13929" lon="-1.33252">
        <ele>9.752633</ele>
        <time>2020-07-07T12:44:19Z</time>
      </trkpt>
      <trkpt lat="47.13925" lon="-1.33262">
        <ele>9.887389</ele>
        <time>2020-07-07T12:44:21Z</time>
      </trkpt>
      <trkpt lat="47.13921" lon="-1.33271">
        <ele>9.694503</ele>
        <time>2020-07-07T12:44:23Z</time>
      </trkpt>
      <trkpt lat="47.13917" lon="-1.3328">
        <ele>10.01686</ele>
        <time>2020-07-07T12:44:25Z</time>
      </trkpt>
      <trkpt lat="47.13913" lon="-1.33289">
        <ele>10.31808</ele>
        <time>2020-07-07T12:44:27Z</time>
      </trkpt>
      <trkpt lat="47.1391" lon="-1.33298">
        <ele>10.362998</ele>
        <time>2020-07-07T12:44:29Z</time>
      </trkpt>
      <trkpt lat="47.13906" lon="-1.33307">
        <ele>10.791046</ele>
        <time>2020-07-07T12:44:31Z</time>
      </trkpt>
      <trkpt lat="47.13903" lon="-1.33316">
        <ele>11.279867</ele>
        <time>2020-07-07T12:44:33Z</time>
      </trkpt>
      <trkpt lat="47.13899" lon="-1.33325">
        <ele>11.554664</ele>
        <time>2020-07-07T12:44:35Z</time>
      </trkpt>
      <trkpt lat="47.13896" lon="-1.33335">
        <ele>11.702631</ele>
        <time>2020-07-07T12:44:37Z</time>
      </trkpt>
      <trkpt lat="47.13892" lon="-1.33344">
        <ele>12.141249</ele>
        <time>2020-07-07T12:44:39Z</time>
      </trkpt>
      <trkpt lat="47.1389" lon="-1.33353">
        <ele>12.157103</ele>
        <time>2020-07-07T12:44:41Z</time>
      </trkpt>
      <trkpt lat="47.13888" lon="-1.33363">
        <ele>12.8203125</ele>
        <time>2020-07-07T12:44:43Z</time>
      </trkpt>
      <trkpt lat="47.13885" lon="-1.3337">
        <ele>12.611573</ele>
        <time>2020-07-07T12:44:45Z</time>
      </trkpt>
      <trkpt lat="47.13882" lon="-1.3338">
        <ele>12.846736</ele>
        <time>2020-07-07T12:44:47Z</time>
      </trkpt>
      <trkpt lat="47.13878" lon="-1.3339">
        <ele>13.663198</ele>
        <time>2020-07-07T12:44:49Z</time>
      </trkpt>
      <trkpt lat="47.13875" lon="-1.334">
        <ele>13.64206</ele>
        <time>2020-07-07T12:44:51Z</time>
      </trkpt>
      <trkpt lat="47.13874" lon="-1.33409">
        <ele>13.787385</ele>
        <time>2020-07-07T12:44:53Z</time>
      </trkpt>
      <trkpt lat="47.13876" lon="-1.33417">
        <ele>14.241857</ele>
        <time>2020-07-07T12:44:55Z</time>
      </trkpt>
      <trkpt lat="47.13882" lon="-1.3342">
        <ele>14.69897</ele>
        <time>2020-07-07T12:44:57Z</time>
      </trkpt>
      <trkpt lat="47.13889" lon="-1.33425">
        <ele>15.346327</ele>
        <time>2020-07-07T12:44:59Z</time>
      </trkpt>
      <trkpt lat="47.13897" lon="-1.3343">
        <ele>14.79145</ele>
        <time>2020-07-07T12:45:01Z</time>
      </trkpt>
      <trkpt lat="47.13903" lon="-1.33435">
        <ele>15.843075</ele>
        <time>2020-07-07T12:45:03Z</time>
      </trkpt>
      <trkpt lat="47.13911" lon="-1.3344">
        <ele>15.444091</ele>
        <time>2020-07-07T12:45:05Z</time>
      </trkpt>
      <trkpt lat="47.13916" lon="-1.33444">
        <ele>15.790229</ele>
        <time>2020-07-07T12:45:07Z</time>
      </trkpt>
      <trkpt lat="47.13922" lon="-1.33448">
        <ele>16.16279</ele>
        <time>2020-07-07T12:45:09Z</time>
      </trkpt>
      <trkpt lat="47.13928" lon="-1.33453">
        <ele>15.541855</ele>
        <time>2020-07-07T12:45:11Z</time>
      </trkpt>
      <trkpt lat="47.13934" lon="-1.33458">
        <ele>16.01218</ele>
        <time>2020-07-07T12:45:13Z</time>
      </trkpt>
      <trkpt lat="47.1394" lon="-1.33463">
        <ele>16.160147</ele>
        <time>2020-07-07T12:45:16Z</time>
      </trkpt>
      <trkpt lat="47.13946" lon="-1.33468">
        <ele>16.855064</ele>
        <time>2020-07-07T12:45:18Z</time>
      </trkpt>
      <trkpt lat="47.13952" lon="-1.33474">
        <ele>17.60547</ele>
        <time>2020-07-07T12:45:20Z</time>
      </trkpt>
      <trkpt lat="47.13959" lon="-1.33479">
        <ele>17.753439</ele>
        <time>2020-07-07T12:45:22Z</time>
      </trkpt>
      <trkpt lat="47.13965" lon="-1.33484">
        <ele>17.65039</ele>
        <time>2020-07-07T12:45:24Z</time>
      </trkpt>
      <trkpt lat="47.13971" lon="-1.33489">
        <ele>17.647747</ele>
        <time>2020-07-07T12:45:26Z</time>
      </trkpt>
      <trkpt lat="47.13977" lon="-1.33495">
        <ele>17.769293</ele>
        <time>2020-07-07T12:45:28Z</time>
      </trkpt>
      <trkpt lat="47.13982" lon="-1.33501">
        <ele>17.394089</ele>
        <time>2020-07-07T12:45:30Z</time>
      </trkpt>
      <trkpt lat="47.13988" lon="-1.33508">
        <ele>17.996527</ele>
        <time>2020-07-07T12:45:32Z</time>
      </trkpt>
      <trkpt lat="47.13994" lon="-1.33514">
        <ele>17.86177</ele>
        <time>2020-07-07T12:45:34Z</time>
      </trkpt>
      <trkpt lat="47.14" lon="-1.33521">
        <ele>17.872341</ele>
        <time>2020-07-07T12:45:36Z</time>
      </trkpt>
      <trkpt lat="47.14006" lon="-1.33527">
        <ele>18.61482</ele>
        <time>2020-07-07T12:45:38Z</time>
      </trkpt>
      <trkpt lat="47.14013" lon="-1.33534">
        <ele>17.935755</ele>
        <time>2020-07-07T12:45:40Z</time>
      </trkpt>
      <trkpt lat="47.14019" lon="-1.33541">
        <ele>17.787788</ele>
        <time>2020-07-07T12:45:42Z</time>
      </trkpt>
      <trkpt lat="47.14025" lon="-1.33548">
        <ele>18.0573</ele>
        <time>2020-07-07T12:45:44Z</time>
      </trkpt>
      <trkpt lat="47.14031" lon="-1.33554">
        <ele>17.597544</ele>
        <time>2020-07-07T12:45:46Z</time>
      </trkpt>
      <trkpt lat="47.14037" lon="-1.33561">
        <ele>17.9199</ele>
        <time>2020-07-07T12:45:48Z</time>
      </trkpt>
      <trkpt lat="47.14043" lon="-1.33568">
        <ele>17.16157</ele>
        <time>2020-07-07T12:45:50Z</time>
      </trkpt>
      <trkpt lat="47.14049" lon="-1.33575">
        <ele>17.330675</ele>
        <time>2020-07-07T12:45:52Z</time>
      </trkpt>
      <trkpt lat="47.14056" lon="-1.33584">
        <ele>17.240837</ele>
        <time>2020-07-07T12:45:54Z</time>
      </trkpt>
      <trkpt lat="47.14059" lon="-1.33588">
        <ele>16.654253</ele>
        <time>2020-07-07T12:45:55Z</time>
      </trkpt>
      <trkpt lat="47.14063" lon="-1.33592">
        <ele>17.452219</ele>
        <time>2020-07-07T12:45:56Z</time>
      </trkpt>
      <trkpt lat="47.14067" lon="-1.33596">
        <ele>16.51157</ele>
        <time>2020-07-07T12:45:57Z</time>
      </trkpt>
      <trkpt lat="47.14074" lon="-1.33605">
        <ele>16.6384</ele>
        <time>2020-07-07T12:45:59Z</time>
      </trkpt>
      <trkpt lat="47.14077" lon="-1.33609">
        <ele>17.026814</ele>
        <time>2020-07-07T12:46:00Z</time>
      </trkpt>
      <trkpt lat="47.14084" lon="-1.33618">
        <ele>17.470715</ele>
        <time>2020-07-07T12:46:02Z</time>
      </trkpt>
      <trkpt lat="47.14087" lon="-1.33622">
        <ele>16.506285</ele>
        <time>2020-07-07T12:46:03Z</time>
      </trkpt>
      <trkpt lat="47.14094" lon="-1.33629">
        <ele>16.794292</ele>
        <time>2020-07-07T12:46:05Z</time>
      </trkpt>
      <trkpt lat="47.14099" lon="-1.33637">
        <ele>17.0823</ele>
        <time>2020-07-07T12:46:07Z</time>
      </trkpt>
      <trkpt lat="47.14106" lon="-1.33645">
        <ele>16.405878</ele>
        <time>2020-07-07T12:46:09Z</time>
      </trkpt>
      <trkpt lat="47.14113" lon="-1.33654">
        <ele>16.461367</ele>
        <time>2020-07-07T12:46:11Z</time>
      </trkpt>
      <trkpt lat="47.14116" lon="-1.33659">
        <ele>16.49043</ele>
        <time>2020-07-07T12:46:12Z</time>
      </trkpt>
      <trkpt lat="47.1412" lon="-1.33663">
        <ele>15.993684</ele>
        <time>2020-07-07T12:46:13Z</time>
      </trkpt>
      <trkpt lat="47.14128" lon="-1.33671">
        <ele>17.108723</ele>
        <time>2020-07-07T12:46:15Z</time>
      </trkpt>
      <trkpt lat="47.14134" lon="-1.33678">
        <ele>16.33718</ele>
        <time>2020-07-07T12:46:17Z</time>
      </trkpt>
      <trkpt lat="47.1414" lon="-1.33685">
        <ele>15.924985</ele>
        <time>2020-07-07T12:46:19Z</time>
      </trkpt>
      <trkpt lat="47.14146" lon="-1.33692">
        <ele>15.980473</ele>
        <time>2020-07-07T12:46:21Z</time>
      </trkpt>
      <trkpt lat="47.14152" lon="-1.33699">
        <ele>16.125797</ele>
        <time>2020-07-07T12:46:23Z</time>
      </trkpt>
      <trkpt lat="47.14158" lon="-1.33706">
        <ele>16.051813</ele>
        <time>2020-07-07T12:46:25Z</time>
      </trkpt>
      <trkpt lat="47.14164" lon="-1.33712">
        <ele>15.444091</ele>
        <time>2020-07-07T12:46:27Z</time>
      </trkpt>
      <trkpt lat="47.14167" lon="-1.33721">
        <ele>15.684538</ele>
        <time>2020-07-07T12:46:29Z</time>
      </trkpt>
      <trkpt lat="47.14164" lon="-1.33731">
        <ele>15.438807</ele>
        <time>2020-07-07T12:46:31Z</time>
      </trkpt>
      <trkpt lat="47.14163" lon="-1.33743">
        <ele>15.689822</ele>
        <time>2020-07-07T12:46:33Z</time>
      </trkpt>
      <trkpt lat="47.14163" lon="-1.33751">
        <ele>15.293482</ele>
        <time>2020-07-07T12:46:35Z</time>
      </trkpt>
      <trkpt lat="47.14156" lon="-1.33755">
        <ele>14.8522215</ele>
        <time>2020-07-07T12:46:37Z</time>
      </trkpt>
      <trkpt lat="47.14148" lon="-1.33758">
        <ele>15.0134</ele>
        <time>2020-07-07T12:46:39Z</time>
      </trkpt>
      <trkpt lat="47.14141" lon="-1.33763">
        <ele>15.10588</ele>
        <time>2020-07-07T12:46:41Z</time>
      </trkpt>
      <trkpt lat="47.14136" lon="-1.33769">
        <ele>15.15344</ele>
        <time>2020-07-07T12:46:43Z</time>
      </trkpt>
      <trkpt lat="47.14134" lon="-1.33778">
        <ele>14.889214</ele>
        <time>2020-07-07T12:47:27Z</time>
      </trkpt>
      <trkpt lat="47.1413" lon="-1.33785">
        <ele>16.183928</ele>
        <time>2020-07-07T12:47:29Z</time>
      </trkpt>
      <trkpt lat="47.14124" lon="-1.33793">
        <ele>15.713603</ele>
        <time>2020-07-07T12:47:31Z</time>
      </trkpt>
      <trkpt lat="47.14117" lon="-1.33801">
        <ele>14.22336</ele>
        <time>2020-07-07T12:47:33Z</time>
      </trkpt>
      <trkpt lat="47.14113" lon="-1.33805">
        <ele>13.671125</ele>
        <time>2020-07-07T12:47:34Z</time>
      </trkpt>
      <trkpt lat="47.14109" lon="-1.33809">
        <ele>13.700191</ele>
        <time>2020-07-07T12:47:35Z</time>
      </trkpt>
      <trkpt lat="47.14103" lon="-1.33818">
        <ele>13.684337</ele>
        <time>2020-07-07T12:47:37Z</time>
      </trkpt>
      <trkpt lat="47.14097" lon="-1.33828">
        <ele>14.04897</ele>
        <time>2020-07-07T12:47:39Z</time>
      </trkpt>
      <trkpt lat="47.14093" lon="-1.33833">
        <ele>14.363401</ele>
        <time>2020-07-07T12:47:40Z</time>
      </trkpt>
      <trkpt lat="47.1409" lon="-1.33837">
        <ele>14.289417</ele>
        <time>2020-07-07T12:47:41Z</time>
      </trkpt>
      <trkpt lat="47.14086" lon="-1.33841">
        <ele>13.494093</ele>
        <time>2020-07-07T12:47:42Z</time>
      </trkpt>
      <trkpt lat="47.14082" lon="-1.33846">
        <ele>14.2048645</ele>
        <time>2020-07-07T12:47:43Z</time>
      </trkpt>
      <trkpt lat="47.14078" lon="-1.3385">
        <ele>13.488809</ele>
        <time>2020-07-07T12:47:44Z</time>
      </trkpt>
      <trkpt lat="47.14074" lon="-1.33854">
        <ele>13.5575075</ele>
        <time>2020-07-07T12:47:45Z</time>
      </trkpt>
      <trkpt lat="47.1407" lon="-1.33858">
        <ele>13.639418</ele>
        <time>2020-07-07T12:47:46Z</time>
      </trkpt>
      <trkpt lat="47.14066" lon="-1.33862">
        <ele>13.67641</ele>
        <time>2020-07-07T12:47:47Z</time>
      </trkpt>
      <trkpt lat="47.14062" lon="-1.33866">
        <ele>13.475597</ele>
        <time>2020-07-07T12:47:48Z</time>
      </trkpt>
      <trkpt lat="47.14057" lon="-1.3387">
        <ele>12.926004</ele>
        <time>2020-07-07T12:47:50Z</time>
      </trkpt>
      <trkpt lat="47.14054" lon="-1.33876">
        <ele>13.132101</ele>
        <time>2020-07-07T12:47:52Z</time>
      </trkpt>
      <trkpt lat="47.14053" lon="-1.33886">
        <ele>13.192874</ele>
        <time>2020-07-07T12:47:54Z</time>
      </trkpt>
      <trkpt lat="47.14057" lon="-1.33898">
        <ele>13.626206</ele>
        <time>2020-07-07T12:47:56Z</time>
      </trkpt>
      <trkpt lat="47.14059" lon="-1.33903">
        <ele>13.369905</ele>
        <time>2020-07-07T12:47:57Z</time>
      </trkpt>
      <trkpt lat="47.14062" lon="-1.33909">
        <ele>14.72275</ele>
        <time>2020-07-07T12:47:58Z</time>
      </trkpt>
      <trkpt lat="47.14065" lon="-1.33915">
        <ele>13.332914</ele>
        <time>2020-07-07T12:47:59Z</time>
      </trkpt>
      <trkpt lat="47.14067" lon="-1.33921">
        <ele>13.951206</ele>
        <time>2020-07-07T12:48:00Z</time>
      </trkpt>
      <trkpt lat="47.1407" lon="-1.33927">
        <ele>13.945922</ele>
        <time>2020-07-07T12:48:01Z</time>
      </trkpt>
      <trkpt lat="47.14074" lon="-1.33939">
        <ele>14.236572</ele>
        <time>2020-07-07T12:48:03Z</time>
      </trkpt>
      <trkpt lat="47.14076" lon="-1.33945">
        <ele>14.37397</ele>
        <time>2020-07-07T12:48:04Z</time>
      </trkpt>
      <trkpt lat="47.14078" lon="-1.33951">
        <ele>15.063603</ele>
        <time>2020-07-07T12:48:05Z</time>
      </trkpt>
      <trkpt lat="47.1408" lon="-1.33957">
        <ele>14.461165</ele>
        <time>2020-07-07T12:48:06Z</time>
      </trkpt>
      <trkpt lat="47.14084" lon="-1.33968">
        <ele>14.817872</ele>
        <time>2020-07-07T12:48:08Z</time>
      </trkpt>
      <trkpt lat="47.14088" lon="-1.33978">
        <ele>14.717465</ele>
        <time>2020-07-07T12:48:10Z</time>
      </trkpt>
      <trkpt lat="47.14093" lon="-1.33989">
        <ele>15.277628</ele>
        <time>2020-07-07T12:48:12Z</time>
      </trkpt>
      <trkpt lat="47.14098" lon="-1.33998">
        <ele>15.359538</ele>
        <time>2020-07-07T12:48:14Z</time>
      </trkpt>
      <trkpt lat="47.14105" lon="-1.34006">
        <ele>15.856286</ele>
        <time>2020-07-07T12:48:16Z</time>
      </trkpt>
      <trkpt lat="47.14111" lon="-1.34015">
        <ele>15.800798</ele>
        <time>2020-07-07T12:48:18Z</time>
      </trkpt>
      <trkpt lat="47.14115" lon="-1.34025">
        <ele>14.865433</ele>
        <time>2020-07-07T12:48:20Z</time>
      </trkpt>
      <trkpt lat="47.14119" lon="-1.34036">
        <ele>14.815229</ele>
        <time>2020-07-07T12:48:22Z</time>
      </trkpt>
      <trkpt lat="47.14122" lon="-1.34046">
        <ele>14.397751</ele>
        <time>2020-07-07T12:48:24Z</time>
      </trkpt>
      <trkpt lat="47.14119" lon="-1.34056">
        <ele>14.28149</ele>
        <time>2020-07-07T12:48:26Z</time>
      </trkpt>
      <trkpt lat="47.14113" lon="-1.34062">
        <ele>14.410962</ele>
        <time>2020-07-07T12:48:28Z</time>
      </trkpt>
      <trkpt lat="47.14106" lon="-1.34067">
        <ele>14.228645</ele>
        <time>2020-07-07T12:48:30Z</time>
      </trkpt>
      <trkpt lat="47.14099" lon="-1.34073">
        <ele>14.080678</ele>
        <time>2020-07-07T12:48:32Z</time>
      </trkpt>
      <trkpt lat="47.14093" lon="-1.34078">
        <ele>14.035759</ele>
        <time>2020-07-07T12:48:34Z</time>
      </trkpt>
      <trkpt lat="47.14086" lon="-1.34084">
        <ele>13.668483</ele>
        <time>2020-07-07T12:48:36Z</time>
      </trkpt>
      <trkpt lat="47.14079" lon="-1.34092">
        <ele>14.099174</ele>
        <time>2020-07-07T12:48:38Z</time>
      </trkpt>
      <trkpt lat="47.14073" lon="-1.34098">
        <ele>13.64206</ele>
        <time>2020-07-07T12:48:40Z</time>
      </trkpt>
      <trkpt lat="47.14068" lon="-1.34105">
        <ele>12.482101</ele>
        <time>2020-07-07T12:48:42Z</time>
      </trkpt>
      <trkpt lat="47.14063" lon="-1.3411">
        <ele>12.231086</ele>
        <time>2020-07-07T12:48:45Z</time>
      </trkpt>
      <trkpt lat="47.14057" lon="-1.34107">
        <ele>12.035558</ele>
        <time>2020-07-07T12:48:47Z</time>
      </trkpt>
      <trkpt lat="47.1405" lon="-1.34102">
        <ele>11.990639</ele>
        <time>2020-07-07T12:48:49Z</time>
      </trkpt>
      <trkpt lat="47.14044" lon="-1.34103">
        <ele>11.699989</ele>
        <time>2020-07-07T12:48:51Z</time>
      </trkpt>
      <trkpt lat="47.14036" lon="-1.34107">
        <ele>10.532104</ele>
        <time>2020-07-07T12:48:53Z</time>
      </trkpt>
      <trkpt lat="47.14031" lon="-1.34108">
        <ele>10.484543</ele>
        <time>2020-07-07T12:48:54Z</time>
      </trkpt>
      <trkpt lat="47.14026" lon="-1.34111">
        <ele>9.308731</ele>
        <time>2020-07-07T12:48:55Z</time>
      </trkpt>
      <trkpt lat="47.14018" lon="-1.34116">
        <ele>10.976006</ele>
        <time>2020-07-07T12:48:56Z</time>
      </trkpt>
      <trkpt lat="47.14011" lon="-1.3412">
        <ele>9.306088</ele>
        <time>2020-07-07T12:48:57Z</time>
      </trkpt>
      <trkpt lat="47.14006" lon="-1.34124">
        <ele>9.911169</ele>
        <time>2020-07-07T12:48:58Z</time>
      </trkpt>
      <trkpt lat="47.14002" lon="-1.34126">
        <ele>9.269096</ele>
        <time>2020-07-07T12:48:59Z</time>
      </trkpt>
      <trkpt lat="47.13997" lon="-1.34129">
        <ele>8.259748</ele>
        <time>2020-07-07T12:49:00Z</time>
      </trkpt>
      <trkpt lat="47.13991" lon="-1.34132">
        <ele>8.111781</ele>
        <time>2020-07-07T12:49:01Z</time>
      </trkpt>
      <trkpt lat="47.13985" lon="-1.34132">
        <ele>7.7920656</ele>
        <time>2020-07-07T12:49:02Z</time>
      </trkpt>
      <trkpt lat="47.13979" lon="-1.3413">
        <ele>7.089221</ele>
        <time>2020-07-07T12:49:03Z</time>
      </trkpt>
      <trkpt lat="47.13974" lon="-1.34128">
        <ele>6.753652</ele>
        <time>2020-07-07T12:49:04Z</time>
      </trkpt>
      <trkpt lat="47.13969" lon="-1.34126">
        <ele>6.721945</ele>
        <time>2020-07-07T12:49:05Z</time>
      </trkpt>
      <trkpt lat="47.13964" lon="-1.34124">
        <ele>5.8420677</ele>
        <time>2020-07-07T12:49:06Z</time>
      </trkpt>
      <trkpt lat="47.13958" lon="-1.34122">
        <ele>5.34532</ele>
        <time>2020-07-07T12:49:07Z</time>
      </trkpt>
      <trkpt lat="47.13953" lon="-1.3412">
        <ele>5.102231</ele>
        <time>2020-07-07T12:49:08Z</time>
      </trkpt>
      <trkpt lat="47.13947" lon="-1.34118">
        <ele>4.137801</ele>
        <time>2020-07-07T12:49:09Z</time>
      </trkpt>
      <trkpt lat="47.1394" lon="-1.34115">
        <ele>4.785158</ele>
        <time>2020-07-07T12:49:10Z</time>
      </trkpt>
      <trkpt lat="47.13934" lon="-1.34113">
        <ele>1.5615839</ele>
        <time>2020-07-07T12:49:11Z</time>
      </trkpt>
      <trkpt lat="47.13929" lon="-1.34111">
        <ele>2.5815015</ele>
        <time>2020-07-07T12:49:12Z</time>
      </trkpt>
      <trkpt lat="47.13924" lon="-1.34109">
        <ele>2.4652414</ele>
        <time>2020-07-07T12:49:13Z</time>
      </trkpt>
      <trkpt lat="47.13919" lon="-1.34108">
        <ele>1.9949168</ele>
        <time>2020-07-07T12:49:14Z</time>
      </trkpt>
      <trkpt lat="47.1391" lon="-1.34105">
        <ele>0.14004052</ele>
        <time>2020-07-07T12:49:16Z</time>
      </trkpt>
      <trkpt lat="47.13902" lon="-1.34106">
        <ele>-0.031707287</ele>
        <time>2020-07-07T12:49:18Z</time>
      </trkpt>
      <trkpt lat="47.13893" lon="-1.3411">
        <ele>-1.8865836</ele>
        <time>2020-07-07T12:49:20Z</time>
      </trkpt>
      <trkpt lat="47.13885" lon="-1.34116">
        <ele>-2.8695095</ele>
        <time>2020-07-07T12:49:22Z</time>
      </trkpt>
      <trkpt lat="47.13879" lon="-1.34121">
        <ele>-1.2894297</ele>
        <time>2020-07-07T12:49:24Z</time>
      </trkpt>
      <trkpt lat="47.13873" lon="-1.34127">
        <ele>-3.6833298</ele>
        <time>2020-07-07T12:49:26Z</time>
      </trkpt>
      <trkpt lat="47.13869" lon="-1.34131">
        <ele>-3.5089397</ele>
        <time>2020-07-07T12:49:27Z</time>
      </trkpt>
      <trkpt lat="47.13865" lon="-1.34135">
        <ele>-2.6898348</ele>
        <time>2020-07-07T12:49:28Z</time>
      </trkpt>
      <trkpt lat="47.13859" lon="-1.34141">
        <ele>-4.544711</ele>
        <time>2020-07-07T12:49:30Z</time>
      </trkpt>
      <trkpt lat="47.13854" lon="-1.34145">
        <ele>-4.3386135</ele>
        <time>2020-07-07T12:49:32Z</time>
      </trkpt>
      <trkpt lat="47.13849" lon="-1.34151">
        <ele>-4.756093</ele>
        <time>2020-07-07T12:49:34Z</time>
      </trkpt>
      <trkpt lat="47.13844" lon="-1.34158">
        <ele>-4.7983694</ele>
        <time>2020-07-07T12:49:36Z</time>
      </trkpt>
      <trkpt lat="47.13839" lon="-1.34163">
        <ele>-4.7878003</ele>
        <time>2020-07-07T12:49:38Z</time>
      </trkpt>
      <trkpt lat="47.13834" lon="-1.34168">
        <ele>-5.427231</ele>
        <time>2020-07-07T12:49:41Z</time>
      </trkpt>
      <trkpt lat="47.13829" lon="-1.34174">
        <ele>-6.394303</ele>
        <time>2020-07-07T12:49:44Z</time>
      </trkpt>
      <trkpt lat="47.13827" lon="-1.34182">
        <ele>-6.494709</ele>
        <time>2020-07-07T12:49:54Z</time>
      </trkpt>
      <trkpt lat="47.13825" lon="-1.34188">
        <ele>-5.4853606</ele>
        <time>2020-07-07T13:14:22Z</time>
      </trkpt>
      <trkpt lat="47.13828" lon="-1.34193">
        <ele>-4.7085323</ele>
        <time>2020-07-07T13:15:56Z</time>
      </trkpt>
      <trkpt lat="47.13832" lon="-1.34202">
        <ele>-5.411377</ele>
        <time>2020-07-07T13:15:58Z</time>
      </trkpt>
      <trkpt lat="47.13837" lon="-1.3421">
        <ele>-3.704468</ele>
        <time>2020-07-07T13:16:00Z</time>
      </trkpt>
      <trkpt lat="47.13841" lon="-1.34223">
        <ele>-5.945116</ele>
        <time>2020-07-07T13:16:02Z</time>
      </trkpt>
      <trkpt lat="47.13843" lon="-1.34229">
        <ele>-6.510563</ele>
        <time>2020-07-07T13:16:03Z</time>
      </trkpt>
      <trkpt lat="47.13845" lon="-1.34236">
        <ele>-6.6638145</ele>
        <time>2020-07-07T13:16:04Z</time>
      </trkpt>
      <trkpt lat="47.13848" lon="-1.34242">
        <ele>-7.292676</ele>
        <time>2020-07-07T13:16:05Z</time>
      </trkpt>
      <trkpt lat="47.13851" lon="-1.34249">
        <ele>-7.081294</ele>
        <time>2020-07-07T13:16:06Z</time>
      </trkpt>
      <trkpt lat="47.13854" lon="-1.34257">
        <ele>-6.7906437</ele>
        <time>2020-07-07T13:16:07Z</time>
      </trkpt>
      <trkpt lat="47.13857" lon="-1.34264">
        <ele>-6.5739775</ele>
        <time>2020-07-07T13:16:08Z</time>
      </trkpt>
      <trkpt lat="47.13859" lon="-1.34271">
        <ele>-6.0455227</ele>
        <time>2020-07-07T13:16:09Z</time>
      </trkpt>
      <trkpt lat="47.13862" lon="-1.34278">
        <ele>-5.9398317</ele>
        <time>2020-07-07T13:16:10Z</time>
      </trkpt>
      <trkpt lat="47.13863" lon="-1.34285">
        <ele>-7.3349524</ele>
        <time>2020-07-07T13:16:11Z</time>
      </trkpt>
      <trkpt lat="47.13865" lon="-1.34292">
        <ele>-6.8751965</ele>
        <time>2020-07-07T13:16:12Z</time>
      </trkpt>
      <trkpt lat="47.13868" lon="-1.34299">
        <ele>-7.403651</ele>
        <time>2020-07-07T13:16:13Z</time>
      </trkpt>
      <trkpt lat="47.13869" lon="-1.34305">
        <ele>-7.091863</ele>
        <time>2020-07-07T13:16:14Z</time>
      </trkpt>
      <trkpt lat="47.1387" lon="-1.34312">
        <ele>-7.609749</ele>
        <time>2020-07-07T13:16:15Z</time>
      </trkpt>
      <trkpt lat="47.13871" lon="-1.34318">
        <ele>-7.430074</ele>
        <time>2020-07-07T13:16:16Z</time>
      </trkpt>
      <trkpt lat="47.13873" lon="-1.34331">
        <ele>-7.652025</ele>
        <time>2020-07-07T13:16:18Z</time>
      </trkpt>
      <trkpt lat="47.13873" lon="-1.34343">
        <ele>-8.159342</ele>
        <time>2020-07-07T13:16:20Z</time>
      </trkpt>
      <trkpt lat="47.13871" lon="-1.34355">
        <ele>-7.5833263</ele>
        <time>2020-07-07T13:16:22Z</time>
      </trkpt>
      <trkpt lat="47.1387" lon="-1.34362">
        <ele>-7.387798</ele>
        <time>2020-07-07T13:16:23Z</time>
      </trkpt>
      <trkpt lat="47.13868" lon="-1.34369">
        <ele>-7.8158464</ele>
        <time>2020-07-07T13:16:24Z</time>
      </trkpt>
      <trkpt lat="47.13868" lon="-1.34377">
        <ele>-7.0284486</ele>
        <time>2020-07-07T13:16:25Z</time>
      </trkpt>
      <trkpt lat="47.13866" lon="-1.34385">
        <ele>-7.979667</ele>
        <time>2020-07-07T13:16:26Z</time>
      </trkpt>
      <trkpt lat="47.13865" lon="-1.34393">
        <ele>-7.6361713</ele>
        <time>2020-07-07T13:16:27Z</time>
      </trkpt>
      <trkpt lat="47.13865" lon="-1.34402">
        <ele>-7.8686914</ele>
        <time>2020-07-07T13:16:28Z</time>
      </trkpt>
      <trkpt lat="47.13864" lon="-1.3441">
        <ele>-7.0760098</ele>
        <time>2020-07-07T13:16:29Z</time>
      </trkpt>
      <trkpt lat="47.13863" lon="-1.34418">
        <ele>-7.5516186</ele>
        <time>2020-07-07T13:16:30Z</time>
      </trkpt>
      <trkpt lat="47.13863" lon="-1.34426">
        <ele>-6.8170667</ele>
        <time>2020-07-07T13:16:31Z</time>
      </trkpt>
      <trkpt lat="47.13863" lon="-1.34434">
        <ele>-6.959749</ele>
        <time>2020-07-07T13:16:32Z</time>
      </trkpt>
      <trkpt lat="47.13863" lon="-1.34442">
        <ele>-8.00609</ele>
        <time>2020-07-07T13:16:33Z</time>
      </trkpt>
      <trkpt lat="47.13864" lon="-1.34449">
        <ele>-9.506902</ele>
        <time>2020-07-07T13:16:34Z</time>
      </trkpt>
      <trkpt lat="47.13864" lon="-1.34457">
        <ele>-8.560967</ele>
        <time>2020-07-07T13:16:35Z</time>
      </trkpt>
      <trkpt lat="47.13864" lon="-1.34466">
        <ele>-8.00609</ele>
        <time>2020-07-07T13:16:36Z</time>
      </trkpt>
      <trkpt lat="47.13863" lon="-1.34475">
        <ele>-6.579262</ele>
        <time>2020-07-07T13:16:37Z</time>
      </trkpt>
      <trkpt lat="47.13862" lon="-1.34484">
        <ele>-8.370724</ele>
        <time>2020-07-07T13:16:38Z</time>
      </trkpt>
      <trkpt lat="47.1386" lon="-1.34492">
        <ele>-6.9333267</ele>
        <time>2020-07-07T13:16:39Z</time>
      </trkpt>
      <trkpt lat="47.13858" lon="-1.34499">
        <ele>-9.179259</ele>
        <time>2020-07-07T13:16:40Z</time>
      </trkpt>
      <trkpt lat="47.13857" lon="-1.34507">
        <ele>-7.3930826</ele>
        <time>2020-07-07T13:16:41Z</time>
      </trkpt>
      <trkpt lat="47.13856" lon="-1.34513">
        <ele>-7.6837325</ele>
        <time>2020-07-07T13:16:42Z</time>
      </trkpt>
      <trkpt lat="47.13857" lon="-1.34525">
        <ele>-7.0865784</ele>
        <time>2020-07-07T13:16:44Z</time>
      </trkpt>
      <trkpt lat="47.1386" lon="-1.34535">
        <ele>-5.733734</ele>
        <time>2020-07-07T13:16:46Z</time>
      </trkpt>
      <trkpt lat="47.13865" lon="-1.34544">
        <ele>-6.494709</ele>
        <time>2020-07-07T13:16:48Z</time>
      </trkpt>
      <trkpt lat="47.13869" lon="-1.34553">
        <ele>-6.415441</ele>
        <time>2020-07-07T13:16:50Z</time>
      </trkpt>
      <trkpt lat="47.13873" lon="-1.34563">
        <ele>-4.7138166</ele>
        <time>2020-07-07T13:16:52Z</time>
      </trkpt>
      <trkpt lat="47.13875" lon="-1.34573">
        <ele>-4.539427</ele>
        <time>2020-07-07T13:16:54Z</time>
      </trkpt>
      <trkpt lat="47.13879" lon="-1.34582">
        <ele>-3.1284523</ele>
        <time>2020-07-07T13:16:56Z</time>
      </trkpt>
      <trkpt lat="47.13881" lon="-1.34591">
        <ele>-3.1284523</ele>
        <time>2020-07-07T13:16:58Z</time>
      </trkpt>
      <trkpt lat="47.13882" lon="-1.34602">
        <ele>-3.154875</ele>
        <time>2020-07-07T13:17:00Z</time>
      </trkpt>
      <trkpt lat="47.13882" lon="-1.34609">
        <ele>-3.2288587</ele>
        <time>2020-07-07T13:17:01Z</time>
      </trkpt>
      <trkpt lat="47.13882" lon="-1.34616">
        <ele>-3.0544686</ele>
        <time>2020-07-07T13:17:02Z</time>
      </trkpt>
      <trkpt lat="47.13882" lon="-1.34624">
        <ele>-3.5142243</ele>
        <time>2020-07-07T13:17:03Z</time>
      </trkpt>
      <trkpt lat="47.13883" lon="-1.34633">
        <ele>-4.2487764</ele>
        <time>2020-07-07T13:17:04Z</time>
      </trkpt>
      <trkpt lat="47.13883" lon="-1.3464">
        <ele>-3.424387</ele>
        <time>2020-07-07T13:17:05Z</time>
      </trkpt>
      <trkpt lat="47.13884" lon="-1.34648">
        <ele>-4.61341</ele>
        <time>2020-07-07T13:17:06Z</time>
      </trkpt>
      <trkpt lat="47.13885" lon="-1.34655">
        <ele>-4.7613773</ele>
        <time>2020-07-07T13:17:07Z</time>
      </trkpt>
      <trkpt lat="47.13886" lon="-1.34662">
        <ele>-4.1589394</ele>
        <time>2020-07-07T13:17:08Z</time>
      </trkpt>
      <trkpt lat="47.13887" lon="-1.34669">
        <ele>-5.3479624</ele>
        <time>2020-07-07T13:17:09Z</time>
      </trkpt>
      <trkpt lat="47.13887" lon="-1.34676">
        <ele>-4.1536546</ele>
        <time>2020-07-07T13:17:10Z</time>
      </trkpt>
      <trkpt lat="47.13888" lon="-1.34683">
        <ele>-4.2329226</ele>
        <time>2020-07-07T13:17:11Z</time>
      </trkpt>
      <trkpt lat="47.13889" lon="-1.3469">
        <ele>-3.049184</ele>
        <time>2020-07-07T13:17:12Z</time>
      </trkpt>
      <trkpt lat="47.13889" lon="-1.34697">
        <ele>-4.872353</ele>
        <time>2020-07-07T13:17:13Z</time>
      </trkpt>
      <trkpt lat="47.1389" lon="-1.34705">
        <ele>-5.3004017</ele>
        <time>2020-07-07T13:17:14Z</time>
      </trkpt>
      <trkpt lat="47.13891" lon="-1.34712">
        <ele>-5.057312</ele>
        <time>2020-07-07T13:17:15Z</time>
      </trkpt>
      <trkpt lat="47.13891" lon="-1.34719">
        <ele>-4.766662</ele>
        <time>2020-07-07T13:17:16Z</time>
      </trkpt>
      <trkpt lat="47.13891" lon="-1.34726">
        <ele>-2.864225</ele>
        <time>2020-07-07T13:17:17Z</time>
      </trkpt>
      <trkpt lat="47.13892" lon="-1.34734">
        <ele>-3.049184</ele>
        <time>2020-07-07T13:17:18Z</time>
      </trkpt>
      <trkpt lat="47.13892" lon="-1.34741">
        <ele>-3.646338</ele>
        <time>2020-07-07T13:17:19Z</time>
      </trkpt>
      <trkpt lat="47.13893" lon="-1.34748">
        <ele>-2.4520302</ele>
        <time>2020-07-07T13:17:20Z</time>
      </trkpt>
      <trkpt lat="47.13894" lon="-1.34755">
        <ele>-4.2329226</ele>
        <time>2020-07-07T13:17:21Z</time>
      </trkpt>
      <trkpt lat="47.13895" lon="-1.34762">
        <ele>-4.3174753</ele>
        <time>2020-07-07T13:17:22Z</time>
      </trkpt>
      <trkpt lat="47.13895" lon="-1.34768">
        <ele>-4.2804837</ele>
        <time>2020-07-07T13:17:23Z</time>
      </trkpt>
      <trkpt lat="47.13897" lon="-1.34775">
        <ele>-3.4191024</ele>
        <time>2020-07-07T13:17:24Z</time>
      </trkpt>
      <trkpt lat="47.13898" lon="-1.34782">
        <ele>-3.6727607</ele>
        <time>2020-07-07T13:17:25Z</time>
      </trkpt>
      <trkpt lat="47.13899" lon="-1.34789">
        <ele>-5.0995884</ele>
        <time>2020-07-07T13:17:26Z</time>
      </trkpt>
      <trkpt lat="47.139" lon="-1.34796">
        <ele>-3.2182896</ele>
        <time>2020-07-07T13:17:27Z</time>
      </trkpt>
      <trkpt lat="47.13901" lon="-1.34803">
        <ele>-3.5089397</ele>
        <time>2020-07-07T13:17:28Z</time>
      </trkpt>
      <trkpt lat="47.13903" lon="-1.34816">
        <ele>-3.5723543</ele>
        <time>2020-07-07T13:17:30Z</time>
      </trkpt>
      <trkpt lat="47.13906" lon="-1.34828">
        <ele>-3.1495905</ele>
        <time>2020-07-07T13:17:32Z</time>
      </trkpt>
      <trkpt lat="47.13908" lon="-1.3484">
        <ele>-1.8284535</ele>
        <time>2020-07-07T13:17:34Z</time>
      </trkpt>
      <trkpt lat="47.1391" lon="-1.34849">
        <ele>-2.7268267</ele>
        <time>2020-07-07T13:17:36Z</time>
      </trkpt>
      <trkpt lat="47.13911" lon="-1.34858">
        <ele>-3.9422727</ele>
        <time>2020-07-07T13:17:38Z</time>
      </trkpt>
      <trkpt lat="47.13913" lon="-1.3487">
        <ele>-4.169508</ele>
        <time>2020-07-07T13:17:40Z</time>
      </trkpt>
      <trkpt lat="47.13914" lon="-1.34883">
        <ele>-3.4878016</ele>
        <time>2020-07-07T13:17:42Z</time>
      </trkpt>
      <trkpt lat="47.13915" lon="-1.34891">
        <ele>-4.978044</ele>
        <time>2020-07-07T13:17:43Z</time>
      </trkpt>
      <trkpt lat="47.13915" lon="-1.34899">
        <ele>-3.97398</ele>
        <time>2020-07-07T13:17:44Z</time>
      </trkpt>
      <trkpt lat="47.13916" lon="-1.34906">
        <ele>-3.984549</ele>
        <time>2020-07-07T13:17:45Z</time>
      </trkpt>
      <trkpt lat="47.13913" lon="-1.34917">
        <ele>-4.8300767</ele>
        <time>2020-07-07T13:17:47Z</time>
      </trkpt>
      <trkpt lat="47.13906" lon="-1.34919">
        <ele>-6.1459293</ele>
        <time>2020-07-07T13:17:49Z</time>
      </trkpt>
      <trkpt lat="47.13902" lon="-1.3492">
        <ele>-5.141865</ele>
        <time>2020-07-07T13:17:50Z</time>
      </trkpt>
      <trkpt lat="47.13897" lon="-1.34921">
        <ele>-4.9621906</ele>
        <time>2020-07-07T13:17:51Z</time>
      </trkpt>
      <trkpt lat="47.13892" lon="-1.34923">
        <ele>-5.712596</ele>
        <time>2020-07-07T13:17:52Z</time>
      </trkpt>
      <trkpt lat="47.13888" lon="-1.34926">
        <ele>-7.049587</ele>
        <time>2020-07-07T13:17:53Z</time>
      </trkpt>
      <trkpt lat="47.13885" lon="-1.34932">
        <ele>-5.982108</ele>
        <time>2020-07-07T13:17:54Z</time>
      </trkpt>
      <trkpt lat="47.13881" lon="-1.34944">
        <ele>-7.012595</ele>
        <time>2020-07-07T13:17:56Z</time>
      </trkpt>
      <trkpt lat="47.1388" lon="-1.34951">
        <ele>-6.436579</ele>
        <time>2020-07-07T13:17:57Z</time>
      </trkpt>
      <trkpt lat="47.13881" lon="-1.34959">
        <ele>-8.00609</ele>
        <time>2020-07-07T13:17:58Z</time>
      </trkpt>
      <trkpt lat="47.13881" lon="-1.34965">
        <ele>-6.54227</ele>
        <time>2020-07-07T13:17:59Z</time>
      </trkpt>
      <trkpt lat="47.13882" lon="-1.34973">
        <ele>-7.197554</ele>
        <time>2020-07-07T13:18:00Z</time>
      </trkpt>
      <trkpt lat="47.13882" lon="-1.34982">
        <ele>-7.5463343</ele>
        <time>2020-07-07T13:18:01Z</time>
      </trkpt>
      <trkpt lat="47.13882" lon="-1.3499">
        <ele>-6.209344</ele>
        <time>2020-07-07T13:18:02Z</time>
      </trkpt>
      <trkpt lat="47.13882" lon="-1.34998">
        <ele>-7.2873917</ele>
        <time>2020-07-07T13:18:03Z</time>
      </trkpt>
      <trkpt lat="47.13881" lon="-1.35006">
        <ele>-6.494709</ele>
        <time>2020-07-07T13:18:04Z</time>
      </trkpt>
      <trkpt lat="47.13881" lon="-1.35015">
        <ele>-8.254463</ele>
        <time>2020-07-07T13:18:05Z</time>
      </trkpt>
      <trkpt lat="47.1388" lon="-1.35023">
        <ele>-9.348365</ele>
        <time>2020-07-07T13:18:06Z</time>
      </trkpt>
      <trkpt lat="47.13879" lon="-1.35031">
        <ele>-7.8158464</ele>
        <time>2020-07-07T13:18:07Z</time>
      </trkpt>
      <trkpt lat="47.13878" lon="-1.35038">
        <ele>-8.148773</ele>
        <time>2020-07-07T13:18:08Z</time>
      </trkpt>
      <trkpt lat="47.13877" lon="-1.35046">
        <ele>-7.94796</ele>
        <time>2020-07-07T13:18:09Z</time>
      </trkpt>
      <trkpt lat="47.13876" lon="-1.35053">
        <ele>-8.259748</ele>
        <time>2020-07-07T13:18:10Z</time>
      </trkpt>
      <trkpt lat="47.13874" lon="-1.35063">
        <ele>-7.7312937</ele>
        <time>2020-07-07T13:18:11Z</time>
      </trkpt>
      <trkpt lat="47.13871" lon="-1.35071">
        <ele>-9.358934</ele>
        <time>2020-07-07T13:18:12Z</time>
      </trkpt>
      <trkpt lat="47.13869" lon="-1.3508">
        <ele>-7.77357</ele>
        <time>2020-07-07T13:18:13Z</time>
      </trkpt>
      <trkpt lat="47.13867" lon="-1.35088">
        <ele>-8.439423</ele>
        <time>2020-07-07T13:18:14Z</time>
      </trkpt>
      <trkpt lat="47.13864" lon="-1.35097">
        <ele>-7.5833263</ele>
        <time>2020-07-07T13:18:15Z</time>
      </trkpt>
      <trkpt lat="47.13861" lon="-1.35104">
        <ele>-8.883325</ele>
        <time>2020-07-07T13:18:16Z</time>
      </trkpt>
      <trkpt lat="47.13859" lon="-1.35113">
        <ele>-7.9902363</ele>
        <time>2020-07-07T13:18:17Z</time>
      </trkpt>
      <trkpt lat="47.13856" lon="-1.35121">
        <ele>-9.670723</ele>
        <time>2020-07-07T13:18:18Z</time>
      </trkpt>
      <trkpt lat="47.13854" lon="-1.35128">
        <ele>-8.640236</ele>
        <time>2020-07-07T13:18:19Z</time>
      </trkpt>
      <trkpt lat="47.13851" lon="-1.35136">
        <ele>-9.269096</ele>
        <time>2020-07-07T13:18:20Z</time>
      </trkpt>
      <trkpt lat="47.13849" lon="-1.35144">
        <ele>-8.069505</ele>
        <time>2020-07-07T13:18:21Z</time>
      </trkpt>
      <trkpt lat="47.13846" lon="-1.35152">
        <ele>-8.793488</ele>
        <time>2020-07-07T13:18:22Z</time>
      </trkpt>
      <trkpt lat="47.13844" lon="-1.3516">
        <ele>-9.073568</ele>
        <time>2020-07-07T13:18:23Z</time>
      </trkpt>
      <trkpt lat="47.13841" lon="-1.35167">
        <ele>-7.9215374</ele>
        <time>2020-07-07T13:18:24Z</time>
      </trkpt>
      <trkpt lat="47.13838" lon="-1.35175">
        <ele>-8.566252</ele>
        <time>2020-07-07T13:18:25Z</time>
      </trkpt>
      <trkpt lat="47.13836" lon="-1.35182">
        <ele>-8.719503</ele>
        <time>2020-07-07T13:18:26Z</time>
      </trkpt>
      <trkpt lat="47.13833" lon="-1.35188">
        <ele>-8.185764</ele>
        <time>2020-07-07T13:18:27Z</time>
      </trkpt>
      <trkpt lat="47.13831" lon="-1.35195">
        <ele>-9.411779</ele>
        <time>2020-07-07T13:18:28Z</time>
      </trkpt>
      <trkpt lat="47.13828" lon="-1.35201">
        <ele>-7.863407</ele>
        <time>2020-07-07T13:18:29Z</time>
      </trkpt>
      <trkpt lat="47.13826" lon="-1.35207">
        <ele>-9.427633</ele>
        <time>2020-07-07T13:18:30Z</time>
      </trkpt>
      <trkpt lat="47.13822" lon="-1.35218">
        <ele>-9.390641</ele>
        <time>2020-07-07T13:18:32Z</time>
      </trkpt>
      <trkpt lat="47.13818" lon="-1.3523">
        <ele>-8.550398</ele>
        <time>2020-07-07T13:18:34Z</time>
      </trkpt>
      <trkpt lat="47.13815" lon="-1.35242">
        <ele>-8.349586</ele>
        <time>2020-07-07T13:18:36Z</time>
      </trkpt>
      <trkpt lat="47.13811" lon="-1.35254">
        <ele>-7.757716</ele>
        <time>2020-07-07T13:18:38Z</time>
      </trkpt>
      <trkpt lat="47.13808" lon="-1.35264">
        <ele>-8.132919</ele>
        <time>2020-07-07T13:18:40Z</time>
      </trkpt>
      <trkpt lat="47.13805" lon="-1.35275">
        <ele>-7.937391</ele>
        <time>2020-07-07T13:18:42Z</time>
      </trkpt>
      <trkpt lat="47.13803" lon="-1.35284">
        <ele>-6.637392</ele>
        <time>2020-07-07T13:18:44Z</time>
      </trkpt>
      <trkpt lat="47.13803" lon="-1.35294">
        <ele>-6.3256035</ele>
        <time>2020-07-07T13:18:46Z</time>
      </trkpt>
      <trkpt lat="47.13805" lon="-1.35306">
        <ele>-4.9040604</ele>
        <time>2020-07-07T13:18:48Z</time>
      </trkpt>
      <trkpt lat="47.13809" lon="-1.35316">
        <ele>-5.4642224</ele>
        <time>2020-07-07T13:18:50Z</time>
      </trkpt>
      <trkpt lat="47.13814" lon="-1.35322">
        <ele>-4.8564997</ele>
        <time>2020-07-07T13:18:52Z</time>
      </trkpt>
      <trkpt lat="47.13817" lon="-1.35328">
        <ele>-4.0004025</ele>
        <time>2020-07-07T13:18:54Z</time>
      </trkpt>
      <trkpt lat="47.1382" lon="-1.35334">
        <ele>-3.4085333</ele>
        <time>2020-07-07T13:18:56Z</time>
      </trkpt>
      <trkpt lat="47.13826" lon="-1.3534">
        <ele>-3.413818</ele>
        <time>2020-07-07T13:18:58Z</time>
      </trkpt>
      <trkpt lat="47.13831" lon="-1.35346">
        <ele>-4.2487764</ele>
        <time>2020-07-07T13:19:00Z</time>
      </trkpt>
      <trkpt lat="47.13834" lon="-1.35351">
        <ele>-3.4878016</ele>
        <time>2020-07-07T13:19:02Z</time>
      </trkpt>
      <trkpt lat="47.13838" lon="-1.35357">
        <ele>-2.1719491</ele>
        <time>2020-07-07T13:19:11Z</time>
      </trkpt>
      <trkpt lat="47.13844" lon="-1.3536">
        <ele>-3.4878016</ele>
        <time>2020-07-07T13:19:13Z</time>
      </trkpt>
      <trkpt lat="47.1385" lon="-1.35365">
        <ele>-3.2658505</ele>
        <time>2020-07-07T13:19:15Z</time>
      </trkpt>
      <trkpt lat="47.13854" lon="-1.35369">
        <ele>-2.1191037</ele>
        <time>2020-07-07T13:19:16Z</time>
      </trkpt>
      <trkpt lat="47.13858" lon="-1.35374">
        <ele>-3.1390214</ele>
        <time>2020-07-07T13:19:17Z</time>
      </trkpt>
      <trkpt lat="47.13862" lon="-1.35378">
        <ele>-3.0016232</ele>
        <time>2020-07-07T13:19:18Z</time>
      </trkpt>
      <trkpt lat="47.13866" lon="-1.35383">
        <ele>-4.328045</ele>
        <time>2020-07-07T13:19:19Z</time>
      </trkpt>
      <trkpt lat="47.1387" lon="-1.35388">
        <ele>-2.1878028</ele>
        <time>2020-07-07T13:19:20Z</time>
      </trkpt>
      <trkpt lat="47.13874" lon="-1.35393">
        <ele>-1.8865836</ele>
        <time>2020-07-07T13:19:21Z</time>
      </trkpt>
      <trkpt lat="47.13879" lon="-1.35398">
        <ele>-1.6752017</ele>
        <time>2020-07-07T13:19:22Z</time>
      </trkpt>
      <trkpt lat="47.13882" lon="-1.35402">
        <ele>-2.991054</ele>
        <time>2020-07-07T13:19:23Z</time>
      </trkpt>
      <trkpt lat="47.13886" lon="-1.35407">
        <ele>-2.9065013</ele>
        <time>2020-07-07T13:19:24Z</time>
      </trkpt>
      <trkpt lat="47.1389" lon="-1.35412">
        <ele>-3.6040616</ele>
        <time>2020-07-07T13:19:25Z</time>
      </trkpt>
      <trkpt lat="47.13893" lon="-1.35417">
        <ele>-1.8443072</ele>
        <time>2020-07-07T13:19:26Z</time>
      </trkpt>
      <trkpt lat="47.13897" lon="-1.35422">
        <ele>-3.8260126</ele>
        <time>2020-07-07T13:19:27Z</time>
      </trkpt>
      <trkpt lat="47.13902" lon="-1.35427">
        <ele>-1.3475597</ele>
        <time>2020-07-07T13:19:28Z</time>
      </trkpt>
      <trkpt lat="47.13906" lon="-1.35431">
        <ele>-1.4691043</ele>
        <time>2020-07-07T13:19:29Z</time>
      </trkpt>
      <trkpt lat="47.1391" lon="-1.35436">
        <ele>-1.3898361</ele>
        <time>2020-07-07T13:19:30Z</time>
      </trkpt>
      <trkpt lat="47.13914" lon="-1.3544">
        <ele>-3.1125987</ele>
        <time>2020-07-07T13:19:31Z</time>
      </trkpt>
      <trkpt lat="47.13918" lon="-1.35445">
        <ele>-2.1825182</ele>
        <time>2020-07-07T13:19:32Z</time>
      </trkpt>
      <trkpt lat="47.13922" lon="-1.35449">
        <ele>-2.2247946</ele>
        <time>2020-07-07T13:19:33Z</time>
      </trkpt>
      <trkpt lat="47.13927" lon="-1.35453">
        <ele>-1.437397</ele>
        <time>2020-07-07T13:19:34Z</time>
      </trkpt>
      <trkpt lat="47.13932" lon="-1.35456">
        <ele>-1.9552827</ele>
        <time>2020-07-07T13:19:35Z</time>
      </trkpt>
      <trkpt lat="47.13937" lon="-1.3546">
        <ele>-2.2247946</ele>
        <time>2020-07-07T13:19:36Z</time>
      </trkpt>
      <trkpt lat="47.13941" lon="-1.35462">
        <ele>-2.7743876</ele>
        <time>2020-07-07T13:19:37Z</time>
      </trkpt>
      <trkpt lat="47.13947" lon="-1.35464">
        <ele>-2.991054</ele>
        <time>2020-07-07T13:19:38Z</time>
      </trkpt>
      <trkpt lat="47.13952" lon="-1.35465">
        <ele>-5.104873</ele>
        <time>2020-07-07T13:19:39Z</time>
      </trkpt>
      <trkpt lat="47.13957" lon="-1.35467">
        <ele>-4.4231663</ele>
        <time>2020-07-07T13:19:40Z</time>
      </trkpt>
      <trkpt lat="47.13963" lon="-1.35468">
        <ele>-4.5711336</ele>
        <time>2020-07-07T13:19:41Z</time>
      </trkpt>
      <trkpt lat="47.13968" lon="-1.35469">
        <ele>-1.5113807</ele>
        <time>2020-07-07T13:19:42Z</time>
      </trkpt>
      <trkpt lat="47.13973" lon="-1.35469">
        <ele>-1.6276407</ele>
        <time>2020-07-07T13:19:43Z</time>
      </trkpt>
      <trkpt lat="47.13977" lon="-1.3547">
        <ele>-2.198372</ele>
        <time>2020-07-07T13:19:44Z</time>
      </trkpt>
      <trkpt lat="47.13985" lon="-1.3547">
        <ele>-1.765039</ele>
        <time>2020-07-07T13:19:46Z</time>
      </trkpt>
      <trkpt lat="47.13993" lon="-1.3547">
        <ele>-2.256502</ele>
        <time>2020-07-07T13:19:48Z</time>
      </trkpt>
      <trkpt lat="47.14" lon="-1.35471">
        <ele>-1.7914617</ele>
        <time>2020-07-07T13:19:50Z</time>
      </trkpt>
      <trkpt lat="47.14007" lon="-1.35475">
        <ele>-0.35934925</ele>
        <time>2020-07-07T13:19:52Z</time>
      </trkpt>
      <trkpt lat="47.14011" lon="-1.35484">
        <ele>-2.1825182</ele>
        <time>2020-07-07T13:19:54Z</time>
      </trkpt>
      <trkpt lat="47.14012" lon="-1.35497">
        <ele>-0.8085358</ele>
        <time>2020-07-07T13:19:56Z</time>
      </trkpt>
      <trkpt lat="47.14011" lon="-1.35504">
        <ele>-0.30121922</ele>
        <time>2020-07-07T13:19:57Z</time>
      </trkpt>
      <trkpt lat="47.14009" lon="-1.35512">
        <ele>-0.87723494</ele>
        <time>2020-07-07T13:19:58Z</time>
      </trkpt>
      <trkpt lat="47.14007" lon="-1.35519">
        <ele>-0.7186985</ele>
        <time>2020-07-07T13:19:59Z</time>
      </trkpt>
      <trkpt lat="47.14006" lon="-1.35527">
        <ele>-2.5788593</ele>
        <time>2020-07-07T13:20:00Z</time>
      </trkpt>
      <trkpt lat="47.14004" lon="-1.35535">
        <ele>-0.59186935</ele>
        <time>2020-07-07T13:20:01Z</time>
      </trkpt>
      <trkpt lat="47.14002" lon="-1.35544">
        <ele>-3.5195088</ele>
        <time>2020-07-07T13:20:02Z</time>
      </trkpt>
      <trkpt lat="47.14" lon="-1.35552">
        <ele>-1.9552827</ele>
        <time>2020-07-07T13:20:03Z</time>
      </trkpt>
      <trkpt lat="47.13998" lon="-1.35561">
        <ele>-3.9211345</ele>
        <time>2020-07-07T13:20:04Z</time>
      </trkpt>
      <trkpt lat="47.13996" lon="-1.35569">
        <ele>-3.6621916</ele>
        <time>2020-07-07T13:20:05Z</time>
      </trkpt>
      <trkpt lat="47.13993" lon="-1.35578">
        <ele>-2.5260139</ele>
        <time>2020-07-07T13:20:06Z</time>
      </trkpt>
      <trkpt lat="47.13991" lon="-1.35588">
        <ele>-5.9873924</ele>
        <time>2020-07-07T13:20:07Z</time>
      </trkpt>
      <trkpt lat="47.13989" lon="-1.35597">
        <ele>-3.9951181</ele>
        <time>2020-07-07T13:20:08Z</time>
      </trkpt>
      <trkpt lat="47.13987" lon="-1.35606">
        <ele>-5.141865</ele>
        <time>2020-07-07T13:20:09Z</time>
      </trkpt>
      <trkpt lat="47.13985" lon="-1.35615">
        <ele>-2.8483713</ele>
        <time>2020-07-07T13:20:10Z</time>
      </trkpt>
      <trkpt lat="47.13983" lon="-1.35624">
        <ele>-3.318696</ele>
        <time>2020-07-07T13:20:11Z</time>
      </trkpt>
      <trkpt lat="47.13981" lon="-1.35633">
        <ele>-4.7508087</ele>
        <time>2020-07-07T13:20:12Z</time>
      </trkpt>
      <trkpt lat="47.1398" lon="-1.35641">
        <ele>-4.3861747</ele>
        <time>2020-07-07T13:20:13Z</time>
      </trkpt>
      <trkpt lat="47.13979" lon="-1.35649">
        <ele>-5.189426</ele>
        <time>2020-07-07T13:20:14Z</time>
      </trkpt>
      <trkpt lat="47.13977" lon="-1.35657">
        <ele>-5.062597</ele>
        <time>2020-07-07T13:20:15Z</time>
      </trkpt>
      <trkpt lat="47.13977" lon="-1.35664">
        <ele>-5.3373933</ele>
        <time>2020-07-07T13:20:16Z</time>
      </trkpt>
      <trkpt lat="47.13976" lon="-1.35672">
        <ele>-3.5195088</ele>
        <time>2020-07-07T13:20:17Z</time>
      </trkpt>
      <trkpt lat="47.13976" lon="-1.35679">
        <ele>-4.137801</ele>
        <time>2020-07-07T13:20:18Z</time>
      </trkpt>
      <trkpt lat="47.13976" lon="-1.35687">
        <ele>-6.230482</ele>
        <time>2020-07-07T13:20:19Z</time>
      </trkpt>
      <trkpt lat="47.13976" lon="-1.35695">
        <ele>-4.185362</ele>
        <time>2020-07-07T13:20:20Z</time>
      </trkpt>
      <trkpt lat="47.13976" lon="-1.35703">
        <ele>-5.2052794</ele>
        <time>2020-07-07T13:20:21Z</time>
      </trkpt>
      <trkpt lat="47.13977" lon="-1.35711">
        <ele>-5.606905</ele>
        <time>2020-07-07T13:20:22Z</time>
      </trkpt>
      <trkpt lat="47.13977" lon="-1.35718">
        <ele>-4.4812965</ele>
        <time>2020-07-07T13:20:23Z</time>
      </trkpt>
      <trkpt lat="47.13977" lon="-1.35726">
        <ele>-4.069102</ele>
        <time>2020-07-07T13:20:24Z</time>
      </trkpt>
      <trkpt lat="47.13977" lon="-1.35734">
        <ele>-3.7943053</ele>
        <time>2020-07-07T13:20:25Z</time>
      </trkpt>
      <trkpt lat="47.13977" lon="-1.35742">
        <ele>-4.5499954</ele>
        <time>2020-07-07T13:20:26Z</time>
      </trkpt>
      <trkpt lat="47.13976" lon="-1.3575">
        <ele>-3.028046</ele>
        <time>2020-07-07T13:20:27Z</time>
      </trkpt>
      <trkpt lat="47.13975" lon="-1.35757">
        <ele>-5.5117836</ele>
        <time>2020-07-07T13:20:28Z</time>
      </trkpt>
      <trkpt lat="47.13973" lon="-1.35765">
        <ele>-4.3174753</ele>
        <time>2020-07-07T13:20:29Z</time>
      </trkpt>
      <trkpt lat="47.13971" lon="-1.35772">
        <ele>-3.8260126</ele>
        <time>2020-07-07T13:20:30Z</time>
      </trkpt>
      <trkpt lat="47.13968" lon="-1.35779">
        <ele>-5.07845</ele>
        <time>2020-07-07T13:20:31Z</time>
      </trkpt>
      <trkpt lat="47.13965" lon="-1.35786">
        <ele>-4.296337</ele>
        <time>2020-07-07T13:20:32Z</time>
      </trkpt>
      <trkpt lat="47.13963" lon="-1.35794">
        <ele>-4.169508</ele>
        <time>2020-07-07T13:20:33Z</time>
      </trkpt>
      <trkpt lat="47.1396" lon="-1.35801">
        <ele>-3.936988</ele>
        <time>2020-07-07T13:20:34Z</time>
      </trkpt>
      <trkpt lat="47.13957" lon="-1.35808">
        <ele>-5.268694</ele>
        <time>2020-07-07T13:20:35Z</time>
      </trkpt>
      <trkpt lat="47.13955" lon="-1.35815">
        <ele>-4.618695</ele>
        <time>2020-07-07T13:20:36Z</time>
      </trkpt>
      <trkpt lat="47.13952" lon="-1.35823">
        <ele>-3.9634109</ele>
        <time>2020-07-07T13:20:37Z</time>
      </trkpt>
      <trkpt lat="47.13949" lon="-1.35831">
        <ele>-5.517068</ele>
        <time>2020-07-07T13:20:38Z</time>
      </trkpt>
      <trkpt lat="47.13947" lon="-1.35839">
        <ele>-4.8089385</ele>
        <time>2020-07-07T13:20:39Z</time>
      </trkpt>
      <trkpt lat="47.13944" lon="-1.35848">
        <ele>-6.6690993</ele>
        <time>2020-07-07T13:20:40Z</time>
      </trkpt>
      <trkpt lat="47.1394" lon="-1.35856">
        <ele>-6.6426764</ele>
        <time>2020-07-07T13:20:41Z</time>
      </trkpt>
      <trkpt lat="47.13937" lon="-1.35865">
        <ele>-5.628043</ele>
        <time>2020-07-07T13:20:42Z</time>
      </trkpt>
      <trkpt lat="47.13935" lon="-1.35873">
        <ele>-6.1459293</ele>
        <time>2020-07-07T13:20:43Z</time>
      </trkpt>
      <trkpt lat="47.13932" lon="-1.35882">
        <ele>-4.9251986</ele>
        <time>2020-07-07T13:20:44Z</time>
      </trkpt>
      <trkpt lat="47.13929" lon="-1.3589">
        <ele>-6.8223515</ele>
        <time>2020-07-07T13:20:45Z</time>
      </trkpt>
      <trkpt lat="47.13928" lon="-1.35898">
        <ele>-3.7890208</ele>
        <time>2020-07-07T13:20:46Z</time>
      </trkpt>
      <trkpt lat="47.13926" lon="-1.35906">
        <ele>-5.855279</ele>
        <time>2020-07-07T13:20:47Z</time>
      </trkpt>
      <trkpt lat="47.13926" lon="-1.35913">
        <ele>-6.5634084</ele>
        <time>2020-07-07T13:20:48Z</time>
      </trkpt>
      <trkpt lat="47.13928" lon="-1.3592">
        <ele>-6.0138154</ele>
        <time>2020-07-07T13:20:49Z</time>
      </trkpt>
      <trkpt lat="47.13933" lon="-1.35929">
        <ele>-5.0995884</ele>
        <time>2020-07-07T13:20:51Z</time>
      </trkpt>
      <trkpt lat="47.13935" lon="-1.3594">
        <ele>-3.7573135</ele>
        <time>2020-07-07T13:20:53Z</time>
      </trkpt>
      <trkpt lat="47.13934" lon="-1.35947">
        <ele>-4.756093</ele>
        <time>2020-07-07T13:20:54Z</time>
      </trkpt>
      <trkpt lat="47.13932" lon="-1.35953">
        <ele>-3.6833298</ele>
        <time>2020-07-07T13:20:55Z</time>
      </trkpt>
      <trkpt lat="47.1393" lon="-1.3596">
        <ele>-4.1325164</ele>
        <time>2020-07-07T13:20:56Z</time>
      </trkpt>
      <trkpt lat="47.13929" lon="-1.35968">
        <ele>-3.1495905</ele>
        <time>2020-07-07T13:20:57Z</time>
      </trkpt>
      <trkpt lat="47.13928" lon="-1.35976">
        <ele>-3.6093462</ele>
        <time>2020-07-07T13:20:58Z</time>
      </trkpt>
      <trkpt lat="47.13927" lon="-1.35984">
        <ele>-4.687394</ele>
        <time>2020-07-07T13:20:59Z</time>
      </trkpt>
      <trkpt lat="47.13926" lon="-1.35992">
        <ele>-3.8999963</ele>
        <time>2020-07-07T13:21:00Z</time>
      </trkpt>
      <trkpt lat="47.13925" lon="-1.36">
        <ele>-5.199995</ele>
        <time>2020-07-07T13:21:01Z</time>
      </trkpt>
      <trkpt lat="47.13924" lon="-1.36009">
        <ele>-5.2317023</ele>
        <time>2020-07-07T13:21:02Z</time>
      </trkpt>
      <trkpt lat="47.13923" lon="-1.36017">
        <ele>-3.868289</ele>
        <time>2020-07-07T13:21:03Z</time>
      </trkpt>
      <trkpt lat="47.13922" lon="-1.36025">
        <ele>-3.8312972</ele>
        <time>2020-07-07T13:21:04Z</time>
      </trkpt>
      <trkpt lat="47.13921" lon="-1.36034">
        <ele>-4.9251986</ele>
        <time>2020-07-07T13:21:05Z</time>
      </trkpt>
      <trkpt lat="47.1392" lon="-1.36043">
        <ele>-3.97398</ele>
        <time>2020-07-07T13:21:06Z</time>
      </trkpt>
      <trkpt lat="47.1392" lon="-1.36051">
        <ele>-5.210564</ele>
        <time>2020-07-07T13:21:07Z</time>
      </trkpt>
      <trkpt lat="47.13919" lon="-1.3606">
        <ele>-3.9581263</ele>
        <time>2020-07-07T13:21:08Z</time>
      </trkpt>
      <trkpt lat="47.13918" lon="-1.36069">
        <ele>-4.999182</ele>
        <time>2020-07-07T13:21:09Z</time>
      </trkpt>
      <trkpt lat="47.13918" lon="-1.36078">
        <ele>-3.598777</ele>
        <time>2020-07-07T13:21:10Z</time>
      </trkpt>
      <trkpt lat="47.13918" lon="-1.36087">
        <ele>-5.141865</ele>
        <time>2020-07-07T13:21:11Z</time>
      </trkpt>
      <trkpt lat="47.13918" lon="-1.36096">
        <ele>-4.8353615</ele>
        <time>2020-07-07T13:21:12Z</time>
      </trkpt>
      <trkpt lat="47.13919" lon="-1.36105">
        <ele>-4.634548</ele>
        <time>2020-07-07T13:21:13Z</time>
      </trkpt>
      <trkpt lat="47.13919" lon="-1.36114">
        <ele>-3.4508097</ele>
        <time>2020-07-07T13:21:14Z</time>
      </trkpt>
      <trkpt lat="47.13919" lon="-1.36123">
        <ele>-4.539427</ele>
        <time>2020-07-07T13:21:15Z</time>
      </trkpt>
      <trkpt lat="47.1392" lon="-1.36132">
        <ele>-5.0097513</ele>
        <time>2020-07-07T13:21:16Z</time>
      </trkpt>
      <trkpt lat="47.13921" lon="-1.36141">
        <ele>-4.777231</ele>
        <time>2020-07-07T13:21:17Z</time>
      </trkpt>
      <trkpt lat="47.13921" lon="-1.3615">
        <ele>-5.96097</ele>
        <time>2020-07-07T13:21:18Z</time>
      </trkpt>
      <trkpt lat="47.13923" lon="-1.36158">
        <ele>-4.32276</ele>
        <time>2020-07-07T13:21:19Z</time>
      </trkpt>
      <trkpt lat="47.13923" lon="-1.36167">
        <ele>-4.417882</ele>
        <time>2020-07-07T13:21:20Z</time>
      </trkpt>
      <trkpt lat="47.13924" lon="-1.36176">
        <ele>-4.190646</ele>
        <time>2020-07-07T13:21:21Z</time>
      </trkpt>
      <trkpt lat="47.13924" lon="-1.36184">
        <ele>-3.4191024</ele>
        <time>2020-07-07T13:21:22Z</time>
      </trkpt>
      <trkpt lat="47.13925" lon="-1.36193">
        <ele>-4.8195076</ele>
        <time>2020-07-07T13:21:23Z</time>
      </trkpt>
      <trkpt lat="47.13926" lon="-1.36202">
        <ele>-4.417882</ele>
        <time>2020-07-07T13:21:24Z</time>
      </trkpt>
      <trkpt lat="47.13926" lon="-1.3621">
        <ele>-4.9251986</ele>
        <time>2020-07-07T13:21:25Z</time>
      </trkpt>
      <trkpt lat="47.13926" lon="-1.36219">
        <ele>-4.6081257</ele>
        <time>2020-07-07T13:21:26Z</time>
      </trkpt>
      <trkpt lat="47.13927" lon="-1.36227">
        <ele>-3.6780453</ele>
        <time>2020-07-07T13:21:27Z</time>
      </trkpt>
      <trkpt lat="47.13928" lon="-1.36235">
        <ele>-4.5024347</ele>
        <time>2020-07-07T13:21:28Z</time>
      </trkpt>
      <trkpt lat="47.13929" lon="-1.36244">
        <ele>-5.3321085</ele>
        <time>2020-07-07T13:21:29Z</time>
      </trkpt>
      <trkpt lat="47.13929" lon="-1.36252">
        <ele>-2.885363</ele>
        <time>2020-07-07T13:21:30Z</time>
      </trkpt>
      <trkpt lat="47.13929" lon="-1.36261">
        <ele>-3.2552814</ele>
        <time>2020-07-07T13:21:31Z</time>
      </trkpt>
      <trkpt lat="47.1393" lon="-1.36268">
        <ele>-4.3386135</ele>
        <time>2020-07-07T13:21:32Z</time>
      </trkpt>
      <trkpt lat="47.13931" lon="-1.36276">
        <ele>-6.1882057</ele>
        <time>2020-07-07T13:21:33Z</time>
      </trkpt>
      <trkpt lat="47.13932" lon="-1.36285">
        <ele>-5.5699134</ele>
        <time>2020-07-07T13:21:34Z</time>
      </trkpt>
      <trkpt lat="47.13932" lon="-1.36294">
        <ele>-4.618695</ele>
        <time>2020-07-07T13:21:35Z</time>
      </trkpt>
      <trkpt lat="47.13933" lon="-1.36302">
        <ele>-3.2552814</ele>
        <time>2020-07-07T13:21:36Z</time>
      </trkpt>
      <trkpt lat="47.13934" lon="-1.3631">
        <ele>-4.433736</ele>
        <time>2020-07-07T13:21:37Z</time>
      </trkpt>
      <trkpt lat="47.13934" lon="-1.3632">
        <ele>-4.851215</ele>
        <time>2020-07-07T13:21:38Z</time>
      </trkpt>
      <trkpt lat="47.13936" lon="-1.36328">
        <ele>-4.2012157</ele>
        <time>2020-07-07T13:21:39Z</time>
      </trkpt>
      <trkpt lat="47.13937" lon="-1.36336">
        <ele>-3.6251998</ele>
        <time>2020-07-07T13:21:40Z</time>
      </trkpt>
      <trkpt lat="47.13938" lon="-1.36344">
        <ele>-5.6016207</ele>
        <time>2020-07-07T13:21:41Z</time>
      </trkpt>
      <trkpt lat="47.13939" lon="-1.36352">
        <ele>-4.2857685</ele>
        <time>2020-07-07T13:21:42Z</time>
      </trkpt>
      <trkpt lat="47.1394" lon="-1.36361">
        <ele>-4.824792</ele>
        <time>2020-07-07T13:21:43Z</time>
      </trkpt>
      <trkpt lat="47.13942" lon="-1.36369">
        <ele>-4.766662</ele>
        <time>2020-07-07T13:21:44Z</time>
      </trkpt>
      <trkpt lat="47.13944" lon="-1.36377">
        <ele>-5.9186935</ele>
        <time>2020-07-07T13:21:45Z</time>
      </trkpt>
      <trkpt lat="47.13945" lon="-1.36385">
        <ele>-3.5617852</ele>
        <time>2020-07-07T13:21:46Z</time>
      </trkpt>
      <trkpt lat="47.13947" lon="-1.36394">
        <ele>-3.762598</ele>
        <time>2020-07-07T13:21:47Z</time>
      </trkpt>
      <trkpt lat="47.13949" lon="-1.36402">
        <ele>-6.441864</ele>
        <time>2020-07-07T13:21:48Z</time>
      </trkpt>
      <trkpt lat="47.13951" lon="-1.36411">
        <ele>-7.5833263</ele>
        <time>2020-07-07T13:21:49Z</time>
      </trkpt>
      <trkpt lat="47.13953" lon="-1.3642">
        <ele>-5.834141</ele>
        <time>2020-07-07T13:21:50Z</time>
      </trkpt>
      <trkpt lat="47.13954" lon="-1.36429">
        <ele>-4.534142</ele>
        <time>2020-07-07T13:21:51Z</time>
      </trkpt>
      <trkpt lat="47.13956" lon="-1.36436">
        <ele>-5.2422714</ele>
        <time>2020-07-07T13:21:52Z</time>
      </trkpt>
      <trkpt lat="47.13958" lon="-1.36444">
        <ele>-3.868289</ele>
        <time>2020-07-07T13:21:53Z</time>
      </trkpt>
      <trkpt lat="47.13959" lon="-1.36452">
        <ele>-5.073166</ele>
        <time>2020-07-07T13:21:54Z</time>
      </trkpt>
      <trkpt lat="47.1396" lon="-1.36459">
        <ele>-5.210564</ele>
        <time>2020-07-07T13:21:55Z</time>
      </trkpt>
      <trkpt lat="47.13961" lon="-1.36467">
        <ele>-4.3703213</ele>
        <time>2020-07-07T13:21:56Z</time>
      </trkpt>
      <trkpt lat="47.13963" lon="-1.36478">
        <ele>-4.3597517</ele>
        <time>2020-07-07T13:21:58Z</time>
      </trkpt>
      <trkpt lat="47.13965" lon="-1.36488">
        <ele>-5.1524343</ele>
        <time>2020-07-07T13:22:00Z</time>
      </trkpt>
      <trkpt lat="47.13961" lon="-1.36496">
        <ele>-3.4772325</ele>
        <time>2020-07-07T13:22:02Z</time>
      </trkpt>
      <trkpt lat="47.13957" lon="-1.36498">
        <ele>-4.8300767</ele>
        <time>2020-07-07T13:22:03Z</time>
      </trkpt>
      <trkpt lat="47.13952" lon="-1.365">
        <ele>-4.396744</ele>
        <time>2020-07-07T13:22:04Z</time>
      </trkpt>
      <trkpt lat="47.13947" lon="-1.36503">
        <ele>-4.766662</ele>
        <time>2020-07-07T13:22:05Z</time>
      </trkpt>
      <trkpt lat="47.13942" lon="-1.36506">
        <ele>-2.4837375</ele>
        <time>2020-07-07T13:22:06Z</time>
      </trkpt>
      <trkpt lat="47.13936" lon="-1.36509">
        <ele>-5.4166613</ele>
        <time>2020-07-07T13:22:07Z</time>
      </trkpt>
      <trkpt lat="47.13931" lon="-1.36512">
        <ele>-6.0613766</ele>
        <time>2020-07-07T13:22:08Z</time>
      </trkpt>
      <trkpt lat="47.13925" lon="-1.36515">
        <ele>-7.2398305</ele>
        <time>2020-07-07T13:22:09Z</time>
      </trkpt>
      <trkpt lat="47.13919" lon="-1.36517">
        <ele>-6.9227576</ele>
        <time>2020-07-07T13:22:10Z</time>
      </trkpt>
      <trkpt lat="47.13913" lon="-1.3652">
        <ele>-7.493489</ele>
        <time>2020-07-07T13:22:11Z</time>
      </trkpt>
      <trkpt lat="47.13908" lon="-1.36522">
        <ele>-5.997962</ele>
        <time>2020-07-07T13:22:12Z</time>
      </trkpt>
      <trkpt lat="47.13902" lon="-1.36524">
        <ele>-6.19349</ele>
        <time>2020-07-07T13:22:13Z</time>
      </trkpt>
      <trkpt lat="47.13897" lon="-1.36528">
        <ele>-6.0455227</ele>
        <time>2020-07-07T13:22:14Z</time>
      </trkpt>
      <trkpt lat="47.13892" lon="-1.36532">
        <ele>-5.4377995</ele>
        <time>2020-07-07T13:22:15Z</time>
      </trkpt>
      <trkpt lat="47.13889" lon="-1.36538">
        <ele>-5.374385</ele>
        <time>2020-07-07T13:22:16Z</time>
      </trkpt>
      <trkpt lat="47.13887" lon="-1.36546">
        <ele>-7.94796</ele>
        <time>2020-07-07T13:22:17Z</time>
      </trkpt>
      <trkpt lat="47.13886" lon="-1.36554">
        <ele>-6.30975</ele>
        <time>2020-07-07T13:22:18Z</time>
      </trkpt>
      <trkpt lat="47.13886" lon="-1.36562">
        <ele>-6.6796684</ele>
        <time>2020-07-07T13:22:19Z</time>
      </trkpt>
      <trkpt lat="47.13886" lon="-1.3657">
        <ele>-7.9268217</ele>
        <time>2020-07-07T13:22:20Z</time>
      </trkpt>
      <trkpt lat="47.13887" lon="-1.36578">
        <ele>-7.8158464</ele>
        <time>2020-07-07T13:22:21Z</time>
      </trkpt>
      <trkpt lat="47.13887" lon="-1.36586">
        <ele>-5.9556856</ele>
        <time>2020-07-07T13:22:22Z</time>
      </trkpt>
      <trkpt lat="47.13888" lon="-1.36595">
        <ele>-5.5910516</ele>
        <time>2020-07-07T13:22:23Z</time>
      </trkpt>
      <trkpt lat="47.13889" lon="-1.36603">
        <ele>-6.753652</ele>
        <time>2020-07-07T13:22:24Z</time>
      </trkpt>
      <trkpt lat="47.13889" lon="-1.36611">
        <ele>-7.012595</ele>
        <time>2020-07-07T13:22:25Z</time>
      </trkpt>
      <trkpt lat="47.13889" lon="-1.36618">
        <ele>-6.2199125</ele>
        <time>2020-07-07T13:22:26Z</time>
      </trkpt>
      <trkpt lat="47.1389" lon="-1.36626">
        <ele>-6.494709</ele>
        <time>2020-07-07T13:22:27Z</time>
      </trkpt>
      <trkpt lat="47.1389" lon="-1.36634">
        <ele>-9.12113</ele>
        <time>2020-07-07T13:22:28Z</time>
      </trkpt>
      <trkpt lat="47.13891" lon="-1.36641">
        <ele>-8.730073</ele>
        <time>2020-07-07T13:22:29Z</time>
      </trkpt>
      <trkpt lat="47.13892" lon="-1.36648">
        <ele>-8.687797</ele>
        <time>2020-07-07T13:22:30Z</time>
      </trkpt>
      <trkpt lat="47.13892" lon="-1.36656">
        <ele>-7.2451153</ele>
        <time>2020-07-07T13:22:31Z</time>
      </trkpt>
      <trkpt lat="47.13894" lon="-1.36664">
        <ele>-6.5052786</ele>
        <time>2020-07-07T13:22:32Z</time>
      </trkpt>
      <trkpt lat="47.13895" lon="-1.36672">
        <ele>-6.0455227</ele>
        <time>2020-07-07T13:22:33Z</time>
      </trkpt>
      <trkpt lat="47.13896" lon="-1.36679">
        <ele>-7.5304804</ele>
        <time>2020-07-07T13:22:34Z</time>
      </trkpt>
      <trkpt lat="47.13899" lon="-1.36688">
        <ele>-8.693081</ele>
        <time>2020-07-07T13:22:35Z</time>
      </trkpt>
      <trkpt lat="47.13901" lon="-1.36694">
        <ele>-8.196334</ele>
        <time>2020-07-07T13:22:36Z</time>
      </trkpt>
      <trkpt lat="47.13904" lon="-1.367">
        <ele>-8.592674</ele>
        <time>2020-07-07T13:22:37Z</time>
      </trkpt>
      <trkpt lat="47.13907" lon="-1.36706">
        <ele>-5.876417</ele>
        <time>2020-07-07T13:22:38Z</time>
      </trkpt>
      <trkpt lat="47.1391" lon="-1.36712">
        <ele>-6.404872</ele>
        <time>2020-07-07T13:22:39Z</time>
      </trkpt>
      <trkpt lat="47.13913" lon="-1.36718">
        <ele>-6.1406446</ele>
        <time>2020-07-07T13:22:40Z</time>
      </trkpt>
      <trkpt lat="47.13916" lon="-1.36725">
        <ele>-6.394303</ele>
        <time>2020-07-07T13:22:41Z</time>
      </trkpt>
      <trkpt lat="47.13919" lon="-1.3673">
        <ele>-5.7971487</ele>
        <time>2020-07-07T13:22:42Z</time>
      </trkpt>
      <trkpt lat="47.13922" lon="-1.36737">
        <ele>-5.527637</ele>
        <time>2020-07-07T13:22:43Z</time>
      </trkpt>
      <trkpt lat="47.13926" lon="-1.36743">
        <ele>-4.7138166</ele>
        <time>2020-07-07T13:22:44Z</time>
      </trkpt>
      <trkpt lat="47.13929" lon="-1.36749">
        <ele>-6.5634084</ele>
        <time>2020-07-07T13:22:45Z</time>
      </trkpt>
      <trkpt lat="47.13932" lon="-1.36755">
        <ele>-7.9056835</ele>
        <time>2020-07-07T13:22:46Z</time>
      </trkpt>
      <trkpt lat="47.13938" lon="-1.36764">
        <ele>-5.8817015</ele>
        <time>2020-07-07T13:22:48Z</time>
      </trkpt>
      <trkpt lat="47.13944" lon="-1.36773">
        <ele>-5.094304</ele>
        <time>2020-07-07T13:22:50Z</time>
      </trkpt>
      <trkpt lat="47.13947" lon="-1.36777">
        <ele>-5.2264175</ele>
        <time>2020-07-07T13:22:51Z</time>
      </trkpt>
      <trkpt lat="47.13953" lon="-1.36784">
        <ele>-6.441864</ele>
        <time>2020-07-07T13:22:53Z</time>
      </trkpt>
      <trkpt lat="47.13956" lon="-1.36789">
        <ele>-6.288612</ele>
        <time>2020-07-07T13:22:54Z</time>
      </trkpt>
      <trkpt lat="47.13962" lon="-1.36798">
        <ele>-6.394303</ele>
        <time>2020-07-07T13:22:56Z</time>
      </trkpt>
      <trkpt lat="47.13966" lon="-1.36806">
        <ele>-5.9398317</ele>
        <time>2020-07-07T13:22:58Z</time>
      </trkpt>
      <trkpt lat="47.13971" lon="-1.36813">
        <ele>-6.1089373</ele>
        <time>2020-07-07T13:23:00Z</time>
      </trkpt>
      <trkpt lat="47.13975" lon="-1.36819">
        <ele>-7.2979603</ele>
        <time>2020-07-07T13:23:01Z</time>
      </trkpt>
      <trkpt lat="47.13978" lon="-1.36824">
        <ele>-5.982108</ele>
        <time>2020-07-07T13:23:02Z</time>
      </trkpt>
      <trkpt lat="47.13985" lon="-1.36832">
        <ele>-6.6004</ele>
        <time>2020-07-07T13:23:04Z</time>
      </trkpt>
      <trkpt lat="47.13992" lon="-1.36843">
        <ele>-7.1394243</ele>
        <time>2020-07-07T13:23:06Z</time>
      </trkpt>
      <trkpt lat="47.13997" lon="-1.36849">
        <ele>-7.493489</ele>
        <time>2020-07-07T13:23:07Z</time>
      </trkpt>
      <trkpt lat="47.14" lon="-1.36854">
        <ele>-6.1089373</ele>
        <time>2020-07-07T13:23:08Z</time>
      </trkpt>
      <trkpt lat="47.14004" lon="-1.36859">
        <ele>-7.2609687</ele>
        <time>2020-07-07T13:23:09Z</time>
      </trkpt>
      <trkpt lat="47.14008" lon="-1.36865">
        <ele>-6.394303</ele>
        <time>2020-07-07T13:23:10Z</time>
      </trkpt>
      <trkpt lat="47.14013" lon="-1.3687">
        <ele>-6.1300755</ele>
        <time>2020-07-07T13:23:11Z</time>
      </trkpt>
      <trkpt lat="47.1402" lon="-1.36879">
        <ele>-6.7853594</ele>
        <time>2020-07-07T13:23:13Z</time>
      </trkpt>
      <trkpt lat="47.14025" lon="-1.36885">
        <ele>-7.271538</ele>
        <time>2020-07-07T13:23:14Z</time>
      </trkpt>
      <trkpt lat="47.1403" lon="-1.3689">
        <ele>-7.2662535</ele>
        <time>2020-07-07T13:23:15Z</time>
      </trkpt>
      <trkpt lat="47.14035" lon="-1.36895">
        <ele>-6.7377987</ele>
        <time>2020-07-07T13:23:16Z</time>
      </trkpt>
      <trkpt lat="47.1404" lon="-1.36899">
        <ele>-7.6573095</ele>
        <time>2020-07-07T13:23:17Z</time>
      </trkpt>
      <trkpt lat="47.14045" lon="-1.36903">
        <ele>-7.3560905</ele>
        <time>2020-07-07T13:23:18Z</time>
      </trkpt>
      <trkpt lat="47.14049" lon="-1.36906">
        <ele>-7.7947083</ele>
        <time>2020-07-07T13:23:19Z</time>
      </trkpt>
      <trkpt lat="47.14054" lon="-1.3691">
        <ele>-7.202839</ele>
        <time>2020-07-07T13:23:20Z</time>
      </trkpt>
      <trkpt lat="47.14058" lon="-1.36913">
        <ele>-7.1922693</ele>
        <time>2020-07-07T13:23:21Z</time>
      </trkpt>
      <trkpt lat="47.14063" lon="-1.36917">
        <ele>-5.3373933</ele>
        <time>2020-07-07T13:23:22Z</time>
      </trkpt>
      <trkpt lat="47.14067" lon="-1.36921">
        <ele>-7.118286</ele>
        <time>2020-07-07T13:23:23Z</time>
      </trkpt>
      <trkpt lat="47.14072" lon="-1.36926">
        <ele>-6.0032463</ele>
        <time>2020-07-07T13:23:24Z</time>
      </trkpt>
      <trkpt lat="47.14077" lon="-1.3693">
        <ele>-7.0020256</ele>
        <time>2020-07-07T13:23:25Z</time>
      </trkpt>
      <trkpt lat="47.14085" lon="-1.36936">
        <ele>-5.7918644</ele>
        <time>2020-07-07T13:23:27Z</time>
      </trkpt>
      <trkpt lat="47.14089" lon="-1.3694">
        <ele>-6.727229</ele>
        <time>2020-07-07T13:23:28Z</time>
      </trkpt>
      <trkpt lat="47.14095" lon="-1.36944">
        <ele>-6.5739775</ele>
        <time>2020-07-07T13:23:29Z</time>
      </trkpt>
      <trkpt lat="47.14099" lon="-1.36948">
        <ele>-5.876417</ele>
        <time>2020-07-07T13:23:30Z</time>
      </trkpt>
      <trkpt lat="47.14104" lon="-1.36953">
        <ele>-7.593895</ele>
        <time>2020-07-07T13:23:31Z</time>
      </trkpt>
      <trkpt lat="47.14108" lon="-1.36958">
        <ele>-6.0138154</ele>
        <time>2020-07-07T13:23:32Z</time>
      </trkpt>
      <trkpt lat="47.14113" lon="-1.36964">
        <ele>-6.5951157</ele>
        <time>2020-07-07T13:23:33Z</time>
      </trkpt>
      <trkpt lat="47.14117" lon="-1.3697">
        <ele>-7.0548716</ele>
        <time>2020-07-07T13:23:34Z</time>
      </trkpt>
      <trkpt lat="47.14121" lon="-1.36977">
        <ele>-7.525196</ele>
        <time>2020-07-07T13:23:35Z</time>
      </trkpt>
      <trkpt lat="47.14126" lon="-1.36985">
        <ele>-8.846333</ele>
        <time>2020-07-07T13:23:36Z</time>
      </trkpt>
      <trkpt lat="47.14131" lon="-1.36994">
        <ele>-8.825195</ele>
        <time>2020-07-07T13:23:37Z</time>
      </trkpt>
      <trkpt lat="47.14135" lon="-1.37">
        <ele>-4.9357677</ele>
        <time>2020-07-07T13:23:38Z</time>
      </trkpt>
      <trkpt lat="47.1414" lon="-1.37006">
        <ele>-6.4577174</ele>
        <time>2020-07-07T13:23:39Z</time>
      </trkpt>
      <trkpt lat="47.14145" lon="-1.37013">
        <ele>-7.4829197</ele>
        <time>2020-07-07T13:23:40Z</time>
      </trkpt>
      <trkpt lat="47.14148" lon="-1.37019">
        <ele>-7.171131</ele>
        <time>2020-07-07T13:23:41Z</time>
      </trkpt>
      <trkpt lat="47.14151" lon="-1.37024">
        <ele>-6.0930834</ele>
        <time>2020-07-07T13:23:42Z</time>
      </trkpt>
      <trkpt lat="47.14156" lon="-1.37029">
        <ele>-6.1300755</ele>
        <time>2020-07-07T13:23:43Z</time>
      </trkpt>
      <trkpt lat="47.1416" lon="-1.37033">
        <ele>-6.521132</ele>
        <time>2020-07-07T13:23:44Z</time>
      </trkpt>
      <trkpt lat="47.14164" lon="-1.37038">
        <ele>-6.616254</ele>
        <time>2020-07-07T13:23:45Z</time>
      </trkpt>
      <trkpt lat="47.14168" lon="-1.37043">
        <ele>-6.838205</ele>
        <time>2020-07-07T13:23:46Z</time>
      </trkpt>
      <trkpt lat="47.14172" lon="-1.37047">
        <ele>-6.288612</ele>
        <time>2020-07-07T13:23:47Z</time>
      </trkpt>
      <trkpt lat="47.14175" lon="-1.37052">
        <ele>-6.721945</ele>
        <time>2020-07-07T13:23:48Z</time>
      </trkpt>
      <trkpt lat="47.14179" lon="-1.37056">
        <ele>-6.172352</ele>
        <time>2020-07-07T13:23:49Z</time>
      </trkpt>
      <trkpt lat="47.14183" lon="-1.37062">
        <ele>-6.315035</ele>
        <time>2020-07-07T13:23:50Z</time>
      </trkpt>
      <trkpt lat="47.14186" lon="-1.37067">
        <ele>-6.7008066</ele>
        <time>2020-07-07T13:23:51Z</time>
      </trkpt>
      <trkpt lat="47.1419" lon="-1.37073">
        <ele>-7.8105617</ele>
        <time>2020-07-07T13:23:52Z</time>
      </trkpt>
      <trkpt lat="47.14195" lon="-1.3708">
        <ele>-5.2264175</ele>
        <time>2020-07-07T13:23:53Z</time>
      </trkpt>
      <trkpt lat="47.14198" lon="-1.37086">
        <ele>-4.137801</ele>
        <time>2020-07-07T13:23:54Z</time>
      </trkpt>
      <trkpt lat="47.14202" lon="-1.3709">
        <ele>-7.937391</ele>
        <time>2020-07-07T13:23:55Z</time>
      </trkpt>
      <trkpt lat="47.14206" lon="-1.37095">
        <ele>-7.1288548</ele>
        <time>2020-07-07T13:23:56Z</time>
      </trkpt>
      <trkpt lat="47.14212" lon="-1.37104">
        <ele>-6.8434896</ele>
        <time>2020-07-07T13:23:58Z</time>
      </trkpt>
      <trkpt lat="47.14219" lon="-1.37111">
        <ele>-6.0349536</ele>
        <time>2020-07-07T13:24:00Z</time>
      </trkpt>
      <trkpt lat="47.14222" lon="-1.37117">
        <ele>-7.467066</ele>
        <time>2020-07-07T13:24:01Z</time>
      </trkpt>
      <trkpt lat="47.14227" lon="-1.37128">
        <ele>-5.749588</ele>
        <time>2020-07-07T13:24:03Z</time>
      </trkpt>
      <trkpt lat="47.14231" lon="-1.37136">
        <ele>-6.2674737</ele>
        <time>2020-07-07T13:24:04Z</time>
      </trkpt>
      <trkpt lat="47.14234" lon="-1.37142">
        <ele>-7.1447086</ele>
        <time>2020-07-07T13:24:05Z</time>
      </trkpt>
      <trkpt lat="47.1424" lon="-1.37151">
        <ele>-7.519912</ele>
        <time>2020-07-07T13:24:07Z</time>
      </trkpt>
      <trkpt lat="47.14246" lon="-1.37161">
        <ele>-8.12235</ele>
        <time>2020-07-07T13:24:09Z</time>
      </trkpt>
      <trkpt lat="47.1425" lon="-1.37168">
        <ele>-7.329668</ele>
        <time>2020-07-07T13:24:10Z</time>
      </trkpt>
      <trkpt lat="47.14254" lon="-1.37175">
        <ele>-7.303245</ele>
        <time>2020-07-07T13:24:11Z</time>
      </trkpt>
      <trkpt lat="47.14259" lon="-1.37186">
        <ele>-7.3930826</ele>
        <time>2020-07-07T13:24:13Z</time>
      </trkpt>
      <trkpt lat="47.14262" lon="-1.37192">
        <ele>-8.6508045</ele>
        <time>2020-07-07T13:24:14Z</time>
      </trkpt>
      <trkpt lat="47.14265" lon="-1.37198">
        <ele>-7.3719444</ele>
        <time>2020-07-07T13:24:15Z</time>
      </trkpt>
      <trkpt lat="47.14269" lon="-1.37209">
        <ele>-7.097148</ele>
        <time>2020-07-07T13:24:16Z</time>
      </trkpt>
      <trkpt lat="47.14273" lon="-1.37215">
        <ele>-8.323163</ele>
        <time>2020-07-07T13:24:17Z</time>
      </trkpt>
      <trkpt lat="47.14277" lon="-1.3722">
        <ele>-9.126414</ele>
        <time>2020-07-07T13:24:18Z</time>
      </trkpt>
      <trkpt lat="47.14281" lon="-1.37227">
        <ele>-9.036577</ele>
        <time>2020-07-07T13:24:20Z</time>
      </trkpt>
      <trkpt lat="47.14286" lon="-1.37235">
        <ele>-7.8951144</ele>
        <time>2020-07-07T13:24:22Z</time>
      </trkpt>
      <trkpt lat="47.14291" lon="-1.37241">
        <ele>-8.502837</ele>
        <time>2020-07-07T13:24:24Z</time>
      </trkpt>
      <trkpt lat="47.14297" lon="-1.37249">
        <ele>-8.428854</ele>
        <time>2020-07-07T13:24:26Z</time>
      </trkpt>
      <trkpt lat="47.14301" lon="-1.3726">
        <ele>-8.946739</ele>
        <time>2020-07-07T13:24:28Z</time>
      </trkpt>
      <trkpt lat="47.14307" lon="-1.37272">
        <ele>-7.7048707</ele>
        <time>2020-07-07T13:24:30Z</time>
      </trkpt>
      <trkpt lat="47.14312" lon="-1.3728">
        <ele>-7.6837325</ele>
        <time>2020-07-07T13:24:31Z</time>
      </trkpt>
      <trkpt lat="47.14317" lon="-1.37286">
        <ele>-7.7312937</ele>
        <time>2020-07-07T13:24:32Z</time>
      </trkpt>
      <trkpt lat="47.1432" lon="-1.37291">
        <ele>-6.9491806</ele>
        <time>2020-07-07T13:24:33Z</time>
      </trkpt>
      <trkpt lat="47.14327" lon="-1.37299">
        <ele>-6.547555</ele>
        <time>2020-07-07T13:24:35Z</time>
      </trkpt>
      <trkpt lat="47.1433" lon="-1.37303">
        <ele>-7.0760098</ele>
        <time>2020-07-07T13:24:36Z</time>
      </trkpt>
      <trkpt lat="47.14334" lon="-1.37309">
        <ele>-7.1394243</ele>
        <time>2020-07-07T13:24:37Z</time>
      </trkpt>
      <trkpt lat="47.14338" lon="-1.37314">
        <ele>-8.1540575</ele>
        <time>2020-07-07T13:24:38Z</time>
      </trkpt>
      <trkpt lat="47.14344" lon="-1.37325">
        <ele>-5.945116</ele>
        <time>2020-07-07T13:24:40Z</time>
      </trkpt>
      <trkpt lat="47.14347" lon="-1.3733">
        <ele>-6.4788556</ele>
        <time>2020-07-07T13:24:41Z</time>
      </trkpt>
      <trkpt lat="47.14352" lon="-1.3734">
        <ele>-7.070725</ele>
        <time>2020-07-07T13:24:43Z</time>
      </trkpt>
      <trkpt lat="47.14355" lon="-1.37346">
        <ele>-6.938611</ele>
        <time>2020-07-07T13:24:44Z</time>
      </trkpt>
      <trkpt lat="47.14357" lon="-1.37352">
        <ele>-6.547555</ele>
        <time>2020-07-07T13:24:45Z</time>
      </trkpt>
      <trkpt lat="47.1436" lon="-1.37359">
        <ele>-6.4841404</ele>
        <time>2020-07-07T13:24:46Z</time>
      </trkpt>
      <trkpt lat="47.14363" lon="-1.37366">
        <ele>-6.30975</ele>
        <time>2020-07-07T13:24:47Z</time>
      </trkpt>
      <trkpt lat="47.14366" lon="-1.37375">
        <ele>-6.8540583</ele>
        <time>2020-07-07T13:24:48Z</time>
      </trkpt>
      <trkpt lat="47.14369" lon="-1.37382">
        <ele>-7.6573095</ele>
        <time>2020-07-07T13:24:49Z</time>
      </trkpt>
      <trkpt lat="47.14372" lon="-1.37388">
        <ele>-8.5979595</ele>
        <time>2020-07-07T13:24:50Z</time>
      </trkpt>
      <trkpt lat="47.14375" lon="-1.37395">
        <ele>-8.217472</ele>
        <time>2020-07-07T13:24:51Z</time>
      </trkpt>
      <trkpt lat="47.1438" lon="-1.37408">
        <ele>-6.9016194</ele>
        <time>2020-07-07T13:24:53Z</time>
      </trkpt>
      <trkpt lat="47.14384" lon="-1.37421">
        <ele>-8.270317</ele>
        <time>2020-07-07T13:24:55Z</time>
      </trkpt>
      <trkpt lat="47.14386" lon="-1.37429">
        <ele>-7.3772287</ele>
        <time>2020-07-07T13:24:56Z</time>
      </trkpt>
      <trkpt lat="47.1439" lon="-1.3744">
        <ele>-8.185764</ele>
        <time>2020-07-07T13:24:58Z</time>
      </trkpt>
      <trkpt lat="47.14394" lon="-1.37449">
        <ele>-6.547555</ele>
        <time>2020-07-07T13:25:00Z</time>
      </trkpt>
      <trkpt lat="47.14397" lon="-1.37454">
        <ele>-5.538206</ele>
        <time>2020-07-07T13:25:01Z</time>
      </trkpt>
      <trkpt lat="47.144" lon="-1.37464">
        <ele>-6.3256035</ele>
        <time>2020-07-07T13:25:03Z</time>
      </trkpt>
      <trkpt lat="47.14402" lon="-1.37471">
        <ele>-6.1459293</ele>
        <time>2020-07-07T13:25:04Z</time>
      </trkpt>
      <trkpt lat="47.14404" lon="-1.3748">
        <ele>-8.148773</ele>
        <time>2020-07-07T13:25:05Z</time>
      </trkpt>
      <trkpt lat="47.14407" lon="-1.37486">
        <ele>-8.069505</ele>
        <time>2020-07-07T13:25:06Z</time>
      </trkpt>
      <trkpt lat="47.14412" lon="-1.37495">
        <ele>-7.5516186</ele>
        <time>2020-07-07T13:25:08Z</time>
      </trkpt>
      <trkpt lat="47.14418" lon="-1.37502">
        <ele>-5.3109703</ele>
        <time>2020-07-07T13:25:10Z</time>
      </trkpt>
      <trkpt lat="47.14424" lon="-1.37511">
        <ele>-6.6955223</ele>
        <time>2020-07-07T13:25:12Z</time>
      </trkpt>
      <trkpt lat="47.14429" lon="-1.3752">
        <ele>-5.427231</ele>
        <time>2020-07-07T13:25:14Z</time>
      </trkpt>
      <trkpt lat="47.14433" lon="-1.37527">
        <ele>-5.480076</ele>
        <time>2020-07-07T13:25:15Z</time>
      </trkpt>
      <trkpt lat="47.14435" lon="-1.37534">
        <ele>-5.469507</ele>
        <time>2020-07-07T13:25:16Z</time>
      </trkpt>
      <trkpt lat="47.14438" lon="-1.3754">
        <ele>-4.5764184</ele>
        <time>2020-07-07T13:25:17Z</time>
      </trkpt>
      <trkpt lat="47.14442" lon="-1.37548">
        <ele>-5.8024335</ele>
        <time>2020-07-07T13:25:19Z</time>
      </trkpt>
      <trkpt lat="47.14447" lon="-1.37558">
        <ele>-6.647961</ele>
        <time>2020-07-07T13:25:21Z</time>
      </trkpt>
      <trkpt lat="47.14449" lon="-1.37564">
        <ele>-6.204059</ele>
        <time>2020-07-07T13:25:22Z</time>
      </trkpt>
      <trkpt lat="47.14452" lon="-1.3757">
        <ele>-6.568693</ele>
        <time>2020-07-07T13:25:23Z</time>
      </trkpt>
      <trkpt lat="47.14453" lon="-1.37576">
        <ele>-4.766662</ele>
        <time>2020-07-07T13:25:24Z</time>
      </trkpt>
      <trkpt lat="47.14455" lon="-1.37586">
        <ele>-6.5951157</ele>
        <time>2020-07-07T13:25:26Z</time>
      </trkpt>
      <trkpt lat="47.14456" lon="-1.37598">
        <ele>-5.3691006</ele>
        <time>2020-07-07T13:25:28Z</time>
      </trkpt>
      <trkpt lat="47.14457" lon="-1.37605">
        <ele>-5.6386127</ele>
        <time>2020-07-07T13:25:29Z</time>
      </trkpt>
      <trkpt lat="47.14459" lon="-1.37614">
        <ele>-5.892271</ele>
        <time>2020-07-07T13:25:30Z</time>
      </trkpt>
      <trkpt lat="47.14461" lon="-1.37622">
        <ele>-6.0138154</ele>
        <time>2020-07-07T13:25:31Z</time>
      </trkpt>
      <trkpt lat="47.14463" lon="-1.37629">
        <ele>-6.7008066</ele>
        <time>2020-07-07T13:25:32Z</time>
      </trkpt>
      <trkpt lat="47.14465" lon="-1.37636">
        <ele>-6.3308883</ele>
        <time>2020-07-07T13:25:33Z</time>
      </trkpt>
      <trkpt lat="47.14468" lon="-1.37647">
        <ele>-5.9873924</ele>
        <time>2020-07-07T13:25:35Z</time>
      </trkpt>
      <trkpt lat="47.14471" lon="-1.37656">
        <ele>-7.1341395</ele>
        <time>2020-07-07T13:25:37Z</time>
      </trkpt>
      <trkpt lat="47.14475" lon="-1.37664">
        <ele>-7.910968</ele>
        <time>2020-07-07T13:25:39Z</time>
      </trkpt>
      <trkpt lat="47.14481" lon="-1.37667">
        <ele>-4.417882</ele>
        <time>2020-07-07T13:25:45Z</time>
      </trkpt>
      <trkpt lat="47.14485" lon="-1.3766">
        <ele>-5.110158</ele>
        <time>2020-07-07T13:25:47Z</time>
      </trkpt>
      <trkpt lat="47.14488" lon="-1.37654">
        <ele>-3.2922733</ele>
        <time>2020-07-07T13:25:49Z</time>
      </trkpt>
      <trkpt lat="47.14496" lon="-1.37641">
        <ele>-4.4495893</ele>
        <time>2020-07-07T13:25:55Z</time>
      </trkpt>
      <trkpt lat="47.14499" lon="-1.37635">
        <ele>-4.1536546</ele>
        <time>2020-07-07T13:25:58Z</time>
      </trkpt>
      <trkpt lat="47.14502" lon="-1.37625">
        <ele>-1.7386162</ele>
        <time>2020-07-07T13:26:04Z</time>
      </trkpt>
      <trkpt lat="47.14507" lon="-1.37614">
        <ele>-0.771544</ele>
        <time>2020-07-07T13:26:21Z</time>
      </trkpt>
      <trkpt lat="47.1451" lon="-1.37606">
        <ele>-0.15853643</ele>
        <time>2020-07-07T13:26:25Z</time>
      </trkpt>
      <trkpt lat="47.14513" lon="-1.37597">
        <ele>-0.07926822</ele>
        <time>2020-07-07T13:26:29Z</time>
      </trkpt>
      <trkpt lat="47.14517" lon="-1.37591">
        <ele>-0.71341395</ele>
        <time>2020-07-07T13:26:32Z</time>
      </trkpt>
      <trkpt lat="47.14521" lon="-1.37585">
        <ele>-0.110975504</ele>
        <time>2020-07-07T13:26:34Z</time>
      </trkpt>
      <trkpt lat="47.14523" lon="-1.37576">
        <ele>0.15060961</ele>
        <time>2020-07-07T13:26:37Z</time>
      </trkpt>
      <trkpt lat="47.14526" lon="-1.37568">
        <ele>1.3871938</ele>
        <time>2020-07-07T13:26:39Z</time>
      </trkpt>
      <trkpt lat="47.1453" lon="-1.37559">
        <ele>2.1455264</ele>
        <time>2020-07-07T13:26:42Z</time>
      </trkpt>
      <trkpt lat="47.14533" lon="-1.37552">
        <ele>3.3953218</ele>
        <time>2020-07-07T13:26:44Z</time>
      </trkpt>
      <trkpt lat="47.14536" lon="-1.37545">
        <ele>2.6184936</ele>
        <time>2020-07-07T13:26:46Z</time>
      </trkpt>
      <trkpt lat="47.14539" lon="-1.3754">
        <ele>2.3093474</ele>
        <time>2020-07-07T13:26:48Z</time>
      </trkpt>
      <trkpt lat="47.14542" lon="-1.37534">
        <ele>2.3040628</ele>
        <time>2020-07-07T13:26:50Z</time>
      </trkpt>
      <trkpt lat="47.14546" lon="-1.3753">
        <ele>2.5339408</ele>
        <time>2020-07-07T13:26:52Z</time>
      </trkpt>
      <trkpt lat="47.1455" lon="-1.37527">
        <ele>2.594713</ele>
        <time>2020-07-07T13:26:54Z</time>
      </trkpt>
      <trkpt lat="47.14558" lon="-1.37526">
        <ele>3.2156472</ele>
        <time>2020-07-07T13:26:56Z</time>
      </trkpt>
      <trkpt lat="47.14563" lon="-1.37528">
        <ele>3.249997</ele>
        <time>2020-07-07T13:26:58Z</time>
      </trkpt>
      <trkpt lat="47.14565" lon="-1.37537">
        <ele>1.2947142</ele>
        <time>2020-07-07T13:27:01Z</time>
      </trkpt>
      <trkpt lat="47.14566" lon="-1.37544">
        <ele>4.7138166</ele>
        <time>2020-07-07T13:27:03Z</time>
      </trkpt>
      <trkpt lat="47.14567" lon="-1.37552">
        <ele>3.9396305</ele>
        <time>2020-07-07T13:27:05Z</time>
      </trkpt>
      <trkpt lat="47.14568" lon="-1.37559">
        <ele>2.6819081</ele>
        <time>2020-07-07T13:27:07Z</time>
      </trkpt>
      <trkpt lat="47.14569" lon="-1.37567">
        <ele>4.063817</ele>
        <time>2020-07-07T13:27:09Z</time>
      </trkpt>
      <trkpt lat="47.14571" lon="-1.37576">
        <ele>3.8075166</ele>
        <time>2020-07-07T13:27:11Z</time>
      </trkpt>
      <trkpt lat="47.14576" lon="-1.37584">
        <ele>2.150811</ele>
        <time>2020-07-07T13:27:13Z</time>
      </trkpt>
      <trkpt lat="47.1458" lon="-1.37584">
        <ele>3.107314</ele>
        <time>2020-07-07T13:27:16Z</time>
      </trkpt>
      <trkpt lat="47.14584" lon="-1.3758">
        <ele>3.9290614</ele>
        <time>2020-07-07T13:27:18Z</time>
      </trkpt>
      <trkpt lat="47.14588" lon="-1.37576">
        <ele>3.8735735</ele>
        <time>2020-07-07T13:27:20Z</time>
      </trkpt>
      <trkpt lat="47.14592" lon="-1.37572">
        <ele>4.436378</ele>
        <time>2020-07-07T13:27:22Z</time>
      </trkpt>
      <trkpt lat="47.14598" lon="-1.37567">
        <ele>5.104873</ele>
        <time>2020-07-07T13:27:25Z</time>
      </trkpt>
      <trkpt lat="47.14604" lon="-1.37563">
        <ele>5.498572</ele>
        <time>2020-07-07T13:27:28Z</time>
      </trkpt>
      <trkpt lat="47.14608" lon="-1.3756">
        <ele>5.990035</ele>
        <time>2020-07-07T13:27:30Z</time>
      </trkpt>
      <trkpt lat="47.14613" lon="-1.37558">
        <ele>6.840847</ele>
        <time>2020-07-07T13:27:33Z</time>
      </trkpt>
      <trkpt lat="47.14618" lon="-1.37554">
        <ele>7.2503996</ele>
        <time>2020-07-07T13:27:36Z</time>
      </trkpt>
      <trkpt lat="47.14624" lon="-1.3755">
        <ele>7.6890173</ele>
        <time>2020-07-07T13:27:39Z</time>
      </trkpt>
      <trkpt lat="47.14629" lon="-1.37546">
        <ele>8.867472</ele>
        <time>2020-07-07T13:27:42Z</time>
      </trkpt>
      <trkpt lat="47.14634" lon="-1.37544">
        <ele>7.630887</ele>
        <time>2020-07-07T13:27:44Z</time>
      </trkpt>
      <trkpt lat="47.1464" lon="-1.37543">
        <ele>9.388</ele>
        <time>2020-07-07T13:27:46Z</time>
      </trkpt>
      <trkpt lat="47.14645" lon="-1.37542">
        <ele>8.246537</ele>
        <time>2020-07-07T13:27:48Z</time>
      </trkpt>
      <trkpt lat="47.14649" lon="-1.37542">
        <ele>8.989016</ele>
        <time>2020-07-07T13:27:50Z</time>
      </trkpt>
      <trkpt lat="47.14655" lon="-1.37542">
        <ele>8.785561</ele>
        <time>2020-07-07T13:27:52Z</time>
      </trkpt>
      <trkpt lat="47.1466" lon="-1.37541">
        <ele>9.311373</ele>
        <time>2020-07-07T13:27:54Z</time>
      </trkpt>
      <trkpt lat="47.14665" lon="-1.37541">
        <ele>9.224178</ele>
        <time>2020-07-07T13:27:56Z</time>
      </trkpt>
      <trkpt lat="47.1467" lon="-1.3754">
        <ele>9.765844</ele>
        <time>2020-07-07T13:27:58Z</time>
      </trkpt>
      <trkpt lat="47.14674" lon="-1.3754">
        <ele>10.16747</ele>
        <time>2020-07-07T13:28:00Z</time>
      </trkpt>
      <trkpt lat="47.14679" lon="-1.37539">
        <ele>11.07377</ele>
        <time>2020-07-07T13:28:02Z</time>
      </trkpt>
      <trkpt lat="47.14684" lon="-1.37538">
        <ele>10.960152</ele>
        <time>2020-07-07T13:28:04Z</time>
      </trkpt>
      <trkpt lat="47.14689" lon="-1.37538">
        <ele>11.219095</ele>
        <time>2020-07-07T13:28:06Z</time>
      </trkpt>
      <trkpt lat="47.14693" lon="-1.37536">
        <ele>11.781899</ele>
        <time>2020-07-07T13:28:08Z</time>
      </trkpt>
      <trkpt lat="47.14698" lon="-1.37535">
        <ele>11.808322</ele>
        <time>2020-07-07T13:28:10Z</time>
      </trkpt>
      <trkpt lat="47.14703" lon="-1.37533">
        <ele>12.379053</ele>
        <time>2020-07-07T13:28:12Z</time>
      </trkpt>
      <trkpt lat="47.14708" lon="-1.37532">
        <ele>13.380475</ele>
        <time>2020-07-07T13:28:14Z</time>
      </trkpt>
      <trkpt lat="47.14713" lon="-1.3753">
        <ele>13.49145</ele>
        <time>2020-07-07T13:28:16Z</time>
      </trkpt>
      <trkpt lat="47.14719" lon="-1.37526">
        <ele>14.997547</ele>
        <time>2020-07-07T13:28:19Z</time>
      </trkpt>
      <trkpt lat="47.14725" lon="-1.37523">
        <ele>15.777018</ele>
        <time>2020-07-07T13:28:22Z</time>
      </trkpt>
      <trkpt lat="47.1473" lon="-1.37521">
        <ele>15.903847</ele>
        <time>2020-07-07T13:28:25Z</time>
      </trkpt>
      <trkpt lat="47.14735" lon="-1.37519">
        <ele>15.914415</ele>
        <time>2020-07-07T13:28:28Z</time>
      </trkpt>
      <trkpt lat="47.14739" lon="-1.37517">
        <ele>17.214415</ele>
        <time>2020-07-07T13:28:31Z</time>
      </trkpt>
      <trkpt lat="47.14744" lon="-1.37514">
        <ele>16.934334</ele>
        <time>2020-07-07T13:28:34Z</time>
      </trkpt>
      <trkpt lat="47.14749" lon="-1.37512">
        <ele>17.830065</ele>
        <time>2020-07-07T13:28:37Z</time>
      </trkpt>
      <trkpt lat="47.14754" lon="-1.3751">
        <ele>18.84734</ele>
        <time>2020-07-07T13:28:40Z</time>
      </trkpt>
      <trkpt lat="47.14759" lon="-1.37507">
        <ele>18.659739</ele>
        <time>2020-07-07T13:28:43Z</time>
      </trkpt>
      <trkpt lat="47.14765" lon="-1.37505">
        <ele>18.950388</ele>
        <time>2020-07-07T13:28:46Z</time>
      </trkpt>
      <trkpt lat="47.1477" lon="-1.37502">
        <ele>20.329655</ele>
        <time>2020-07-07T13:28:49Z</time>
      </trkpt>
      <trkpt lat="47.14776" lon="-1.37499">
        <ele>20.665224</ele>
        <time>2020-07-07T13:28:52Z</time>
      </trkpt>
      <trkpt lat="47.14781" lon="-1.37496">
        <ele>20.813192</ele>
        <time>2020-07-07T13:28:55Z</time>
      </trkpt>
      <trkpt lat="47.14787" lon="-1.37494">
        <ele>21.368069</ele>
        <time>2020-07-07T13:28:58Z</time>
      </trkpt>
      <trkpt lat="47.14791" lon="-1.37492">
        <ele>20.274168</ele>
        <time>2020-07-07T13:29:01Z</time>
      </trkpt>
      <trkpt lat="47.14796" lon="-1.3749">
        <ele>22.115833</ele>
        <time>2020-07-07T13:29:04Z</time>
      </trkpt>
      <trkpt lat="47.14801" lon="-1.37488">
        <ele>21.431484</ele>
        <time>2020-07-07T13:29:07Z</time>
      </trkpt>
      <trkpt lat="47.14806" lon="-1.37486">
        <ele>22.35628</ele>
        <time>2020-07-07T13:29:10Z</time>
      </trkpt>
      <trkpt lat="47.14811" lon="-1.37484">
        <ele>22.792255</ele>
        <time>2020-07-07T13:29:13Z</time>
      </trkpt>
      <trkpt lat="47.14816" lon="-1.37482">
        <ele>22.90323</ele>
        <time>2020-07-07T13:29:16Z</time>
      </trkpt>
      <trkpt lat="47.14821" lon="-1.3748">
        <ele>25.01705</ele>
        <time>2020-07-07T13:29:19Z</time>
      </trkpt>
      <trkpt lat="47.14826" lon="-1.37478">
        <ele>24.512375</ele>
        <time>2020-07-07T13:29:22Z</time>
      </trkpt>
      <trkpt lat="47.14831" lon="-1.37477">
        <ele>24.612782</ele>
        <time>2020-07-07T13:29:25Z</time>
      </trkpt>
      <trkpt lat="47.14836" lon="-1.37475">
        <ele>25.236359</ele>
        <time>2020-07-07T13:29:28Z</time>
      </trkpt>
      <trkpt lat="47.14842" lon="-1.37473">
        <ele>26.385748</ele>
        <time>2020-07-07T13:29:31Z</time>
      </trkpt>
      <trkpt lat="47.14846" lon="-1.37472">
        <ele>25.114813</ele>
        <time>2020-07-07T13:29:34Z</time>
      </trkpt>
      <trkpt lat="47.14851" lon="-1.37475">
        <ele>26.044893</ele>
        <time>2020-07-07T13:29:37Z</time>
      </trkpt>
      <trkpt lat="47.14854" lon="-1.37482">
        <ele>26.536356</ele>
        <time>2020-07-07T13:29:40Z</time>
      </trkpt>
      <trkpt lat="47.14857" lon="-1.37487">
        <ele>26.240421</ele>
        <time>2020-07-07T13:29:42Z</time>
      </trkpt>
      <trkpt lat="47.14859" lon="-1.37493">
        <ele>25.965626</ele>
        <time>2020-07-07T13:29:44Z</time>
      </trkpt>
      <trkpt lat="47.14862" lon="-1.37499">
        <ele>26.314405</ele>
        <time>2020-07-07T13:29:46Z</time>
      </trkpt>
      <trkpt lat="47.14865" lon="-1.37504">
        <ele>25.886358</ele>
        <time>2020-07-07T13:29:48Z</time>
      </trkpt>
      <trkpt lat="47.14868" lon="-1.37511">
        <ele>26.01847</ele>
        <time>2020-07-07T13:29:50Z</time>
      </trkpt>
      <trkpt lat="47.14871" lon="-1.37517">
        <ele>27.329039</ele>
        <time>2020-07-07T13:29:52Z</time>
      </trkpt>
      <trkpt lat="47.14874" lon="-1.37523">
        <ele>27.52721</ele>
        <time>2020-07-07T13:29:54Z</time>
      </trkpt>
      <trkpt lat="47.14877" lon="-1.37528">
        <ele>26.898348</ele>
        <time>2020-07-07T13:29:56Z</time>
      </trkpt>
      <trkpt lat="47.14879" lon="-1.37534">
        <ele>26.766235</ele>
        <time>2020-07-07T13:29:58Z</time>
      </trkpt>
      <trkpt lat="47.14883" lon="-1.37543">
        <ele>27.59591</ele>
        <time>2020-07-07T13:30:01Z</time>
      </trkpt>
      <trkpt lat="47.14887" lon="-1.37551">
        <ele>27.292048</ele>
        <time>2020-07-07T13:30:04Z</time>
      </trkpt>
      <trkpt lat="47.1489" lon="-1.37556">
        <ele>27.495502</ele>
        <time>2020-07-07T13:30:06Z</time>
      </trkpt>
      <trkpt lat="47.14893" lon="-1.37562">
        <ele>28.44672</ele>
        <time>2020-07-07T13:30:08Z</time>
      </trkpt>
      <trkpt lat="47.14896" lon="-1.3757">
        <ele>27.070097</ele>
        <time>2020-07-07T13:30:11Z</time>
      </trkpt>
      <trkpt lat="47.14899" lon="-1.37576">
        <ele>29.133713</ele>
        <time>2020-07-07T13:30:13Z</time>
      </trkpt>
      <trkpt lat="47.14902" lon="-1.37584">
        <ele>28.91176</ele>
        <time>2020-07-07T13:30:16Z</time>
      </trkpt>
      <trkpt lat="47.14907" lon="-1.37588">
        <ele>28.666029</ele>
        <time>2020-07-07T13:30:19Z</time>
      </trkpt>
      <trkpt lat="47.14912" lon="-1.37587">
        <ele>29.823345</ele>
        <time>2020-07-07T13:30:21Z</time>
      </trkpt>
      <trkpt lat="47.14916" lon="-1.37585">
        <ele>29.046516</ele>
        <time>2020-07-07T13:30:23Z</time>
      </trkpt>
      <trkpt lat="47.14921" lon="-1.37585">
        <ele>30.800987</ele>
        <time>2020-07-07T13:30:25Z</time>
      </trkpt>
      <trkpt lat="47.14927" lon="-1.37584">
        <ele>31.45627</ele>
        <time>2020-07-07T13:30:28Z</time>
      </trkpt>
      <trkpt lat="47.14932" lon="-1.37583">
        <ele>30.695295</ele>
        <time>2020-07-07T13:30:30Z</time>
      </trkpt>
      <trkpt lat="47.14936" lon="-1.37583">
        <ele>31.144482</ele>
        <time>2020-07-07T13:30:32Z</time>
      </trkpt>
      <trkpt lat="47.14941" lon="-1.37582">
        <ele>30.613386</ele>
        <time>2020-07-07T13:30:34Z</time>
      </trkpt>
      <trkpt lat="47.14948" lon="-1.37581">
        <ele>32.18818</ele>
        <time>2020-07-07T13:30:37Z</time>
      </trkpt>
      <trkpt lat="47.14953" lon="-1.37579">
        <ele>31.498547</ele>
        <time>2020-07-07T13:30:39Z</time>
      </trkpt>
      <trkpt lat="47.14957" lon="-1.3758">
        <ele>32.36257</ele>
        <time>2020-07-07T13:30:41Z</time>
      </trkpt>
      <trkpt lat="47.14962" lon="-1.3758">
        <ele>32.16176</ele>
        <time>2020-07-07T13:30:43Z</time>
      </trkpt>
      <trkpt lat="47.14968" lon="-1.37582">
        <ele>30.251394</ele>
        <time>2020-07-07T13:30:45Z</time>
      </trkpt>
      <trkpt lat="47.14973" lon="-1.37582">
        <ele>30.996515</ele>
        <time>2020-07-07T13:30:47Z</time>
      </trkpt>
      <trkpt lat="47.14978" lon="-1.37582">
        <ele>30.378223</ele>
        <time>2020-07-07T13:30:49Z</time>
      </trkpt>
      <trkpt lat="47.14983" lon="-1.37581">
        <ele>31.688791</ele>
        <time>2020-07-07T13:30:51Z</time>
      </trkpt>
      <trkpt lat="47.14988" lon="-1.37579">
        <ele>31.612165</ele>
        <time>2020-07-07T13:30:53Z</time>
      </trkpt>
      <trkpt lat="47.14994" lon="-1.37578">
        <ele>33.366634</ele>
        <time>2020-07-07T13:30:55Z</time>
      </trkpt>
      <trkpt lat="47.14999" lon="-1.37576">
        <ele>33.934723</ele>
        <time>2020-07-07T13:30:57Z</time>
      </trkpt>
      <trkpt lat="47.15005" lon="-1.37574">
        <ele>33.015213</ele>
        <time>2020-07-07T13:30:59Z</time>
      </trkpt>
      <trkpt lat="47.15011" lon="-1.37574">
        <ele>31.871107</ele>
        <time>2020-07-07T13:31:01Z</time>
      </trkpt>
      <trkpt lat="47.15017" lon="-1.37578">
        <ele>34.204235</ele>
        <time>2020-07-07T13:31:03Z</time>
      </trkpt>
      <trkpt lat="47.15021" lon="-1.37586">
        <ele>33.057487</ele>
        <time>2020-07-07T13:31:05Z</time>
      </trkpt>
      <trkpt lat="47.15023" lon="-1.37596">
        <ele>34.235943</ele>
        <time>2020-07-07T13:31:07Z</time>
      </trkpt>
      <trkpt lat="47.15025" lon="-1.37605">
        <ele>32.95708</ele>
        <time>2020-07-07T13:31:09Z</time>
      </trkpt>
      <trkpt lat="47.15027" lon="-1.37613">
        <ele>33.112976</ele>
        <time>2020-07-07T13:31:11Z</time>
      </trkpt>
      <trkpt lat="47.15029" lon="-1.37623">
        <ele>34.67456</ele>
        <time>2020-07-07T13:31:13Z</time>
      </trkpt>
      <trkpt lat="47.15031" lon="-1.37632">
        <ele>34.574154</ele>
        <time>2020-07-07T13:31:15Z</time>
      </trkpt>
      <trkpt lat="47.15034" lon="-1.37641">
        <ele>30.893467</ele>
        <time>2020-07-07T13:31:17Z</time>
      </trkpt>
      <trkpt lat="47.15037" lon="-1.37651">
        <ele>36.91785</ele>
        <time>2020-07-07T13:31:19Z</time>
      </trkpt>
      <trkpt lat="47.15039" lon="-1.37661">
        <ele>33.1896</ele>
        <time>2020-07-07T13:31:21Z</time>
      </trkpt>
      <trkpt lat="47.15041" lon="-1.3767">
        <ele>33.464397</ele>
        <time>2020-07-07T13:31:23Z</time>
      </trkpt>
      <trkpt lat="47.15043" lon="-1.37679">
        <ele>33.76826</ele>
        <time>2020-07-07T13:31:25Z</time>
      </trkpt>
      <trkpt lat="47.15045" lon="-1.37688">
        <ele>32.97822</ele>
        <time>2020-07-07T13:31:27Z</time>
      </trkpt>
      <trkpt lat="47.15048" lon="-1.37698">
        <ele>34.708908</ele>
        <time>2020-07-07T13:31:29Z</time>
      </trkpt>
      <trkpt lat="47.1505" lon="-1.37708">
        <ele>35.295494</ele>
        <time>2020-07-07T13:31:31Z</time>
      </trkpt>
      <trkpt lat="47.15053" lon="-1.37718">
        <ele>33.691635</ele>
        <time>2020-07-07T13:31:33Z</time>
      </trkpt>
      <trkpt lat="47.15056" lon="-1.37729">
        <ele>33.134113</ele>
        <time>2020-07-07T13:31:35Z</time>
      </trkpt>
      <trkpt lat="47.15059" lon="-1.37742">
        <ele>33.136757</ele>
        <time>2020-07-07T13:31:37Z</time>
      </trkpt>
      <trkpt lat="47.15061" lon="-1.37753">
        <ele>34.772324</ele>
        <time>2020-07-07T13:31:39Z</time>
      </trkpt>
      <trkpt lat="47.15063" lon="-1.37765">
        <ele>34.735332</ele>
        <time>2020-07-07T13:31:41Z</time>
      </trkpt>
      <trkpt lat="47.15066" lon="-1.37777">
        <ele>33.807896</ele>
        <time>2020-07-07T13:31:43Z</time>
      </trkpt>
      <trkpt lat="47.15068" lon="-1.37788">
        <ele>34.8833</ele>
        <time>2020-07-07T13:31:45Z</time>
      </trkpt>
      <trkpt lat="47.15071" lon="-1.378">
        <ele>34.270294</ele>
        <time>2020-07-07T13:31:47Z</time>
      </trkpt>
      <trkpt lat="47.15073" lon="-1.37811">
        <ele>34.42883</ele>
        <time>2020-07-07T13:31:49Z</time>
      </trkpt>
      <trkpt lat="47.15075" lon="-1.37818">
        <ele>34.19895</ele>
        <time>2020-07-07T13:31:50Z</time>
      </trkpt>
      <trkpt lat="47.15077" lon="-1.37829">
        <ele>34.352203</ele>
        <time>2020-07-07T13:31:52Z</time>
      </trkpt>
      <trkpt lat="47.1508" lon="-1.37841">
        <ele>33.194885</ele>
        <time>2020-07-07T13:31:54Z</time>
      </trkpt>
      <trkpt lat="47.15082" lon="-1.37853">
        <ele>34.838383</ele>
        <time>2020-07-07T13:31:56Z</time>
      </trkpt>
      <trkpt lat="47.15084" lon="-1.37865">
        <ele>35.44082</ele>
        <time>2020-07-07T13:31:58Z</time>
      </trkpt>
      <trkpt lat="47.15087" lon="-1.37876">
        <ele>34.40505</ele>
        <time>2020-07-07T13:32:00Z</time>
      </trkpt>
      <trkpt lat="47.1509" lon="-1.37888">
        <ele>34.4896</ele>
        <time>2020-07-07T13:32:02Z</time>
      </trkpt>
      <trkpt lat="47.15092" lon="-1.379">
        <ele>34.584724</ele>
        <time>2020-07-07T13:32:04Z</time>
      </trkpt>
      <trkpt lat="47.15094" lon="-1.37911">
        <ele>34.63757</ele>
        <time>2020-07-07T13:32:06Z</time>
      </trkpt>
      <trkpt lat="47.15096" lon="-1.37921">
        <ele>34.539803</ele>
        <time>2020-07-07T13:32:08Z</time>
      </trkpt>
      <trkpt lat="47.15099" lon="-1.37931">
        <ele>35.34834</ele>
        <time>2020-07-07T13:32:10Z</time>
      </trkpt>
      <trkpt lat="47.15101" lon="-1.37943">
        <ele>35.446106</ele>
        <time>2020-07-07T13:32:12Z</time>
      </trkpt>
      <trkpt lat="47.15103" lon="-1.37955">
        <ele>34.68513</ele>
        <time>2020-07-07T13:32:14Z</time>
      </trkpt>
      <trkpt lat="47.15106" lon="-1.37966">
        <ele>35.747322</ele>
        <time>2020-07-07T13:32:16Z</time>
      </trkpt>
      <trkpt lat="47.15109" lon="-1.37978">
        <ele>35.75525</ele>
        <time>2020-07-07T13:32:18Z</time>
      </trkpt>
      <trkpt lat="47.15111" lon="-1.3799">
        <ele>35.374763</ele>
        <time>2020-07-07T13:32:20Z</time>
      </trkpt>
      <trkpt lat="47.15113" lon="-1.38003">
        <ele>35.760536</ele>
        <time>2020-07-07T13:32:22Z</time>
      </trkpt>
      <trkpt lat="47.15116" lon="-1.38015">
        <ele>34.320496</ele>
        <time>2020-07-07T13:32:24Z</time>
      </trkpt>
      <trkpt lat="47.15119" lon="-1.38027">
        <ele>34.84895</ele>
        <time>2020-07-07T13:32:26Z</time>
      </trkpt>
      <trkpt lat="47.15121" lon="-1.38039">
        <ele>36.125168</ele>
        <time>2020-07-07T13:32:28Z</time>
      </trkpt>
      <trkpt lat="47.15122" lon="-1.38046">
        <ele>35.644276</ele>
        <time>2020-07-07T13:32:29Z</time>
      </trkpt>
      <trkpt lat="47.15123" lon="-1.38053">
        <ele>36.1146</ele>
        <time>2020-07-07T13:32:30Z</time>
      </trkpt>
      <trkpt lat="47.15125" lon="-1.3806">
        <ele>35.80017</ele>
        <time>2020-07-07T13:32:31Z</time>
      </trkpt>
      <trkpt lat="47.15126" lon="-1.38067">
        <ele>35.7209</ele>
        <time>2020-07-07T13:32:32Z</time>
      </trkpt>
      <trkpt lat="47.15127" lon="-1.38073">
        <ele>36.26521</ele>
        <time>2020-07-07T13:32:33Z</time>
      </trkpt>
      <trkpt lat="47.15129" lon="-1.3808">
        <ele>36.54793</ele>
        <time>2020-07-07T13:32:34Z</time>
      </trkpt>
      <trkpt lat="47.1513" lon="-1.38088">
        <ele>34.856876</ele>
        <time>2020-07-07T13:32:35Z</time>
      </trkpt>
      <trkpt lat="47.15133" lon="-1.381">
        <ele>34.09326</ele>
        <time>2020-07-07T13:32:37Z</time>
      </trkpt>
      <trkpt lat="47.15135" lon="-1.38107">
        <ele>36.50037</ele>
        <time>2020-07-07T13:32:38Z</time>
      </trkpt>
      <trkpt lat="47.15136" lon="-1.38114">
        <ele>35.158096</ele>
        <time>2020-07-07T13:32:39Z</time>
      </trkpt>
      <trkpt lat="47.15138" lon="-1.38121">
        <ele>35.5333</ele>
        <time>2020-07-07T13:32:40Z</time>
      </trkpt>
      <trkpt lat="47.1514" lon="-1.38131">
        <ele>34.241226</ele>
        <time>2020-07-07T13:32:42Z</time>
      </trkpt>
      <trkpt lat="47.15142" lon="-1.38143">
        <ele>35.7209</ele>
        <time>2020-07-07T13:32:44Z</time>
      </trkpt>
      <trkpt lat="47.15143" lon="-1.3815">
        <ele>36.072323</ele>
        <time>2020-07-07T13:32:45Z</time>
      </trkpt>
      <trkpt lat="47.15144" lon="-1.38158">
        <ele>34.862164</ele>
        <time>2020-07-07T13:32:46Z</time>
      </trkpt>
      <trkpt lat="47.15144" lon="-1.38165">
        <ele>35.041836</ele>
        <time>2020-07-07T13:32:47Z</time>
      </trkpt>
      <trkpt lat="47.15145" lon="-1.38172">
        <ele>35.38269</ele>
        <time>2020-07-07T13:32:48Z</time>
      </trkpt>
      <trkpt lat="47.15146" lon="-1.38179">
        <ele>35.61521</ele>
        <time>2020-07-07T13:32:49Z</time>
      </trkpt>
      <trkpt lat="47.15149" lon="-1.38191">
        <ele>34.764397</ele>
        <time>2020-07-07T13:32:51Z</time>
      </trkpt>
      <trkpt lat="47.15149" lon="-1.38198">
        <ele>35.195087</ele>
        <time>2020-07-07T13:32:52Z</time>
      </trkpt>
      <trkpt lat="47.1515" lon="-1.38204">
        <ele>35.58086</ele>
        <time>2020-07-07T13:32:53Z</time>
      </trkpt>
      <trkpt lat="47.15151" lon="-1.38211">
        <ele>34.539803</ele>
        <time>2020-07-07T13:32:54Z</time>
      </trkpt>
      <trkpt lat="47.15154" lon="-1.38223">
        <ele>37.63919</ele>
        <time>2020-07-07T13:32:56Z</time>
      </trkpt>
      <trkpt lat="47.15158" lon="-1.38233">
        <ele>35.274357</ele>
        <time>2020-07-07T13:32:58Z</time>
      </trkpt>
      <trkpt lat="47.15162" lon="-1.38237">
        <ele>35.897934</ele>
        <time>2020-07-07T13:32:59Z</time>
      </trkpt>
      <trkpt lat="47.15169" lon="-1.38243">
        <ele>36.516224</ele>
        <time>2020-07-07T13:33:01Z</time>
      </trkpt>
      <trkpt lat="47.15176" lon="-1.3825">
        <ele>34.774967</ele>
        <time>2020-07-07T13:33:03Z</time>
      </trkpt>
      <trkpt lat="47.15181" lon="-1.38258">
        <ele>35.99834</ele>
        <time>2020-07-07T13:33:05Z</time>
      </trkpt>
      <trkpt lat="47.15184" lon="-1.38269">
        <ele>36.164803</ele>
        <time>2020-07-07T13:33:07Z</time>
      </trkpt>
      <trkpt lat="47.15186" lon="-1.38282">
        <ele>35.675983</ele>
        <time>2020-07-07T13:33:09Z</time>
      </trkpt>
      <trkpt lat="47.15188" lon="-1.38294">
        <ele>36.315414</ele>
        <time>2020-07-07T13:33:11Z</time>
      </trkpt>
      <trkpt lat="47.15189" lon="-1.38307">
        <ele>35.38533</ele>
        <time>2020-07-07T13:33:13Z</time>
      </trkpt>
      <trkpt lat="47.15191" lon="-1.3832">
        <ele>35.23208</ele>
        <time>2020-07-07T13:33:15Z</time>
      </trkpt>
      <trkpt lat="47.15191" lon="-1.38327">
        <ele>34.930862</ele>
        <time>2020-07-07T13:33:16Z</time>
      </trkpt>
      <trkpt lat="47.15193" lon="-1.38339">
        <ele>36.587566</ele>
        <time>2020-07-07T13:33:18Z</time>
      </trkpt>
      <trkpt lat="47.15194" lon="-1.38351">
        <ele>35.810738</ele>
        <time>2020-07-07T13:33:20Z</time>
      </trkpt>
      <trkpt lat="47.15195" lon="-1.38361">
        <ele>36.016834</ele>
        <time>2020-07-07T13:33:22Z</time>
      </trkpt>
      <trkpt lat="47.15196" lon="-1.38372">
        <ele>35.763176</ele>
        <time>2020-07-07T13:33:24Z</time>
      </trkpt>
      <trkpt lat="47.15197" lon="-1.38383">
        <ele>35.74204</ele>
        <time>2020-07-07T13:33:26Z</time>
      </trkpt>
      <trkpt lat="47.15198" lon="-1.38395">
        <ele>36.421104</ele>
        <time>2020-07-07T13:33:28Z</time>
      </trkpt>
      <trkpt lat="47.152" lon="-1.38405">
        <ele>36.03269</ele>
        <time>2020-07-07T13:33:30Z</time>
      </trkpt>
      <trkpt lat="47.15202" lon="-1.38416">
        <ele>36.24143</ele>
        <time>2020-07-07T13:33:32Z</time>
      </trkpt>
      <trkpt lat="47.15203" lon="-1.38427">
        <ele>36.96277</ele>
        <time>2020-07-07T13:33:34Z</time>
      </trkpt>
      <trkpt lat="47.15204" lon="-1.38437">
        <ele>35.609924</ele>
        <time>2020-07-07T13:33:36Z</time>
      </trkpt>
      <trkpt lat="47.15204" lon="-1.38449">
        <ele>35.68655</ele>
        <time>2020-07-07T13:33:38Z</time>
      </trkpt>
      <trkpt lat="47.15205" lon="-1.38461">
        <ele>36.64041</ele>
        <time>2020-07-07T13:33:40Z</time>
      </trkpt>
      <trkpt lat="47.15207" lon="-1.38472">
        <ele>36.70647</ele>
        <time>2020-07-07T13:33:42Z</time>
      </trkpt>
      <trkpt lat="47.1521" lon="-1.38482">
        <ele>36.761955</ele>
        <time>2020-07-07T13:33:44Z</time>
      </trkpt>
      <trkpt lat="47.15214" lon="-1.38492">
        <ele>37.33797</ele>
        <time>2020-07-07T13:33:46Z</time>
      </trkpt>
      <trkpt lat="47.15218" lon="-1.38502">
        <ele>36.82537</ele>
        <time>2020-07-07T13:33:48Z</time>
      </trkpt>
      <trkpt lat="47.15222" lon="-1.38512">
        <ele>37.673542</ele>
        <time>2020-07-07T13:33:50Z</time>
      </trkpt>
      <trkpt lat="47.15227" lon="-1.38521">
        <ele>38.526997</ele>
        <time>2020-07-07T13:33:52Z</time>
      </trkpt>
      <trkpt lat="47.15232" lon="-1.38531">
        <ele>38.896915</ele>
        <time>2020-07-07T13:33:54Z</time>
      </trkpt>
      <trkpt lat="47.15237" lon="-1.38541">
        <ele>38.80972</ele>
        <time>2020-07-07T13:33:56Z</time>
      </trkpt>
      <trkpt lat="47.15242" lon="-1.3855">
        <ele>39.443863</ele>
        <time>2020-07-07T13:33:58Z</time>
      </trkpt>
      <trkpt lat="47.15247" lon="-1.3856">
        <ele>39.78736</ele>
        <time>2020-07-07T13:34:00Z</time>
      </trkpt>
      <trkpt lat="47.15252" lon="-1.3857">
        <ele>40.41094</ele>
        <time>2020-07-07T13:34:02Z</time>
      </trkpt>
      <trkpt lat="47.15257" lon="-1.38578">
        <ele>40.48492</ele>
        <time>2020-07-07T13:34:04Z</time>
      </trkpt>
      <trkpt lat="47.15262" lon="-1.38588">
        <ele>40.469067</ele>
        <time>2020-07-07T13:34:06Z</time>
      </trkpt>
      <trkpt lat="47.15266" lon="-1.38599">
        <ele>40.788784</ele>
        <time>2020-07-07T13:34:08Z</time>
      </trkpt>
      <trkpt lat="47.15271" lon="-1.38609">
        <ele>41.629025</ele>
        <time>2020-07-07T13:34:10Z</time>
      </trkpt>
      <trkpt lat="47.15277" lon="-1.38618">
        <ele>40.476994</ele>
        <time>2020-07-07T13:34:12Z</time>
      </trkpt>
      <trkpt lat="47.15282" lon="-1.38628">
        <ele>42.24732</ele>
        <time>2020-07-07T13:34:14Z</time>
      </trkpt>
      <trkpt lat="47.15287" lon="-1.38638">
        <ele>42.685936</ele>
        <time>2020-07-07T13:34:16Z</time>
      </trkpt>
      <trkpt lat="47.15292" lon="-1.38648">
        <ele>41.708294</ele>
        <time>2020-07-07T13:34:18Z</time>
      </trkpt>
      <trkpt lat="47.15297" lon="-1.38658">
        <ele>42.22882</ele>
        <time>2020-07-07T13:34:20Z</time>
      </trkpt>
      <trkpt lat="47.15302" lon="-1.38668">
        <ele>42.514187</ele>
        <time>2020-07-07T13:34:22Z</time>
      </trkpt>
      <trkpt lat="47.15307" lon="-1.38677">
        <ele>43.328007</ele>
        <time>2020-07-07T13:34:24Z</time>
      </trkpt>
      <trkpt lat="47.15312" lon="-1.38687">
        <ele>42.638374</ele>
        <time>2020-07-07T13:34:26Z</time>
      </trkpt>
      <trkpt lat="47.15317" lon="-1.38697">
        <ele>43.14569</ele>
        <time>2020-07-07T13:34:28Z</time>
      </trkpt>
      <trkpt lat="47.15322" lon="-1.38707">
        <ele>42.87618</ele>
        <time>2020-07-07T13:34:30Z</time>
      </trkpt>
      <trkpt lat="47.15327" lon="-1.38716">
        <ele>43.51825</ele>
        <time>2020-07-07T13:34:32Z</time>
      </trkpt>
      <trkpt lat="47.15332" lon="-1.38726">
        <ele>42.662155</ele>
        <time>2020-07-07T13:34:34Z</time>
      </trkpt>
      <trkpt lat="47.15337" lon="-1.38736">
        <ele>42.987156</ele>
        <time>2020-07-07T13:34:36Z</time>
      </trkpt>
      <trkpt lat="47.15342" lon="-1.38745">
        <ele>43.925163</ele>
        <time>2020-07-07T13:34:38Z</time>
      </trkpt>
      <trkpt lat="47.15347" lon="-1.38755">
        <ele>43.359715</ele>
        <time>2020-07-07T13:34:40Z</time>
      </trkpt>
      <trkpt lat="47.15352" lon="-1.38765">
        <ele>43.568455</ele>
        <time>2020-07-07T13:34:42Z</time>
      </trkpt>
      <trkpt lat="47.15356" lon="-1.38775">
        <ele>44.197315</ele>
        <time>2020-07-07T13:34:44Z</time>
      </trkpt>
      <trkpt lat="47.15361" lon="-1.38785">
        <ele>43.660934</ele>
        <time>2020-07-07T13:34:46Z</time>
      </trkpt>
      <trkpt lat="47.15366" lon="-1.38794">
        <ele>44.62008</ele>
        <time>2020-07-07T13:34:48Z</time>
      </trkpt>
      <trkpt lat="47.1537" lon="-1.38803">
        <ele>43.697926</ele>
        <time>2020-07-07T13:34:50Z</time>
      </trkpt>
      <trkpt lat="47.15375" lon="-1.38813">
        <ele>44.1339</ele>
        <time>2020-07-07T13:34:52Z</time>
      </trkpt>
      <trkpt lat="47.1538" lon="-1.38822">
        <ele>44.218452</ele>
        <time>2020-07-07T13:34:54Z</time>
      </trkpt>
      <trkpt lat="47.15385" lon="-1.38832">
        <ele>43.351788</ele>
        <time>2020-07-07T13:34:56Z</time>
      </trkpt>
      <trkpt lat="47.1539" lon="-1.38842">
        <ele>42.371506</ele>
        <time>2020-07-07T13:34:58Z</time>
      </trkpt>
      <trkpt lat="47.1539" lon="-1.38854">
        <ele>43.510323</ele>
        <time>2020-07-07T13:35:00Z</time>
      </trkpt>
      <trkpt lat="47.15385" lon="-1.38862">
        <ele>45.383698</ele>
        <time>2020-07-07T13:35:02Z</time>
      </trkpt>
      <trkpt lat="47.15377" lon="-1.38863">
        <ele>42.675365</ele>
        <time>2020-07-07T13:35:04Z</time>
      </trkpt>
      <trkpt lat="47.15371" lon="-1.38863">
        <ele>44.638577</ele>
        <time>2020-07-07T13:35:06Z</time>
      </trkpt>
      <trkpt lat="47.15365" lon="-1.38864">
        <ele>45.8091</ele>
        <time>2020-07-07T13:35:08Z</time>
      </trkpt>
      <trkpt lat="47.15359" lon="-1.38865">
        <ele>45.241013</ele>
        <time>2020-07-07T13:35:10Z</time>
      </trkpt>
      <trkpt lat="47.15352" lon="-1.38867">
        <ele>44.38492</ele>
        <time>2020-07-07T13:35:12Z</time>
      </trkpt>
      <trkpt lat="47.15345" lon="-1.38868">
        <ele>44.960934</ele>
        <time>2020-07-07T13:35:14Z</time>
      </trkpt>
      <trkpt lat="47.1534" lon="-1.38873">
        <ele>44.88959</ele>
        <time>2020-07-07T13:35:16Z</time>
      </trkpt>
      <trkpt lat="47.1534" lon="-1.38883">
        <ele>44.863167</ele>
        <time>2020-07-07T13:35:18Z</time>
      </trkpt>
      <trkpt lat="47.15341" lon="-1.38893">
        <ele>44.849957</ele>
        <time>2020-07-07T13:35:20Z</time>
      </trkpt>
      <trkpt lat="47.15342" lon="-1.38904">
        <ele>46.17902</ele>
        <time>2020-07-07T13:35:22Z</time>
      </trkpt>
      <trkpt lat="47.15342" lon="-1.38916">
        <ele>45.49467</ele>
        <time>2020-07-07T13:35:24Z</time>
      </trkpt>
      <trkpt lat="47.15343" lon="-1.38922">
        <ele>46.089184</ele>
        <time>2020-07-07T13:35:25Z</time>
      </trkpt>
      <trkpt lat="47.15344" lon="-1.38934">
        <ele>45.63207</ele>
        <time>2020-07-07T13:35:27Z</time>
      </trkpt>
      <trkpt lat="47.15345" lon="-1.38945">
        <ele>47.264996</ele>
        <time>2020-07-07T13:35:29Z</time>
      </trkpt>
      <trkpt lat="47.15345" lon="-1.38951">
        <ele>46.969063</ele>
        <time>2020-07-07T13:35:30Z</time>
      </trkpt>
      <trkpt lat="47.15345" lon="-1.38964">
        <ele>47.716824</ele>
        <time>2020-07-07T13:35:32Z</time>
      </trkpt>
      <trkpt lat="47.15346" lon="-1.3897">
        <ele>49.133083</ele>
        <time>2020-07-07T13:35:33Z</time>
      </trkpt>
      <trkpt lat="47.15346" lon="-1.38976">
        <ele>46.065403</ele>
        <time>2020-07-07T13:35:34Z</time>
      </trkpt>
      <trkpt lat="47.15346" lon="-1.38983">
        <ele>47.087963</ele>
        <time>2020-07-07T13:35:35Z</time>
      </trkpt>
      <trkpt lat="47.15347" lon="-1.3899">
        <ele>47.9652</ele>
        <time>2020-07-07T13:35:36Z</time>
      </trkpt>
      <trkpt lat="47.15347" lon="-1.38997">
        <ele>47.745888</ele>
        <time>2020-07-07T13:35:37Z</time>
      </trkpt>
      <trkpt lat="47.15347" lon="-1.39004">
        <ele>46.707478</ele>
        <time>2020-07-07T13:35:38Z</time>
      </trkpt>
      <trkpt lat="47.15348" lon="-1.39016">
        <ele>46.963776</ele>
        <time>2020-07-07T13:35:40Z</time>
      </trkpt>
      <trkpt lat="47.15348" lon="-1.39022">
        <ele>47.185726</ele>
        <time>2020-07-07T13:35:41Z</time>
      </trkpt>
      <trkpt lat="47.1535" lon="-1.39031">
        <ele>47.1091</ele>
        <time>2020-07-07T13:35:43Z</time>
      </trkpt>
      <trkpt lat="47.15354" lon="-1.39034">
        <ele>46.091827</ele>
        <time>2020-07-07T13:35:45Z</time>
      </trkpt>
      <trkpt lat="47.1536" lon="-1.39033">
        <ele>45.81967</ele>
        <time>2020-07-07T13:35:47Z</time>
      </trkpt>
      <trkpt lat="47.15366" lon="-1.39032">
        <ele>45.663776</ele>
        <time>2020-07-07T13:35:49Z</time>
      </trkpt>
      <trkpt lat="47.15374" lon="-1.39036">
        <ele>45.357273</ele>
        <time>2020-07-07T13:35:51Z</time>
      </trkpt>
      <trkpt lat="47.15382" lon="-1.39042">
        <ele>45.830242</ele>
        <time>2020-07-07T13:35:53Z</time>
      </trkpt>
      <trkpt lat="47.15386" lon="-1.39045">
        <ele>45.88837</ele>
        <time>2020-07-07T13:35:54Z</time>
      </trkpt>
      <trkpt lat="47.15394" lon="-1.39051">
        <ele>45.727192</ele>
        <time>2020-07-07T13:35:56Z</time>
      </trkpt>
      <trkpt lat="47.15398" lon="-1.39054">
        <ele>44.38492</ele>
        <time>2020-07-07T13:35:57Z</time>
      </trkpt>
      <trkpt lat="47.15403" lon="-1.39056">
        <ele>46.395687</ele>
        <time>2020-07-07T13:35:58Z</time>
      </trkpt>
      <trkpt lat="47.15407" lon="-1.39059">
        <ele>44.775974</ele>
        <time>2020-07-07T13:35:59Z</time>
      </trkpt>
      <trkpt lat="47.15416" lon="-1.39062">
        <ele>44.717842</ele>
        <time>2020-07-07T13:36:01Z</time>
      </trkpt>
      <trkpt lat="47.1542" lon="-1.39063">
        <ele>45.62943</ele>
        <time>2020-07-07T13:36:02Z</time>
      </trkpt>
      <trkpt lat="47.15425" lon="-1.39063">
        <ele>45.37841</ele>
        <time>2020-07-07T13:36:03Z</time>
      </trkpt>
      <trkpt lat="47.15434" lon="-1.39061">
        <ele>45.079834</ele>
        <time>2020-07-07T13:36:05Z</time>
      </trkpt>
      <trkpt lat="47.15443" lon="-1.39059">
        <ele>46.570076</ele>
        <time>2020-07-07T13:36:07Z</time>
      </trkpt>
      <trkpt lat="47.15451" lon="-1.39057">
        <ele>44.102192</ele>
        <time>2020-07-07T13:36:09Z</time>
      </trkpt>
      <trkpt lat="47.1546" lon="-1.39053">
        <ele>44.39813</ele>
        <time>2020-07-07T13:36:11Z</time>
      </trkpt>
      <trkpt lat="47.15464" lon="-1.39051">
        <ele>44.78654</ele>
        <time>2020-07-07T13:36:12Z</time>
      </trkpt>
      <trkpt lat="47.15473" lon="-1.39048">
        <ele>41.488983</ele>
        <time>2020-07-07T13:36:14Z</time>
      </trkpt>
      <trkpt lat="47.15477" lon="-1.39046">
        <ele>42.05179</ele>
        <time>2020-07-07T13:36:15Z</time>
      </trkpt>
      <trkpt lat="47.15484" lon="-1.39043">
        <ele>41.732075</ele>
        <time>2020-07-07T13:36:17Z</time>
      </trkpt>
      <trkpt lat="47.15488" lon="-1.39046">
        <ele>40.796707</ele>
        <time>2020-07-07T13:36:21Z</time>
      </trkpt>
      <trkpt lat="47.1549" lon="-1.39054">
        <ele>41.31195</ele>
        <time>2020-07-07T13:36:23Z</time>
      </trkpt>
      <trkpt lat="47.15493" lon="-1.39062">
        <ele>41.59996</ele>
        <time>2020-07-07T13:36:25Z</time>
      </trkpt>
      <trkpt lat="47.15496" lon="-1.39068">
        <ele>40.71744</ele>
        <time>2020-07-07T13:36:27Z</time>
      </trkpt>
      <trkpt lat="47.15496" lon="-1.39078">
        <ele>41.581463</ele>
        <time>2020-07-07T13:36:29Z</time>
      </trkpt>
      <trkpt lat="47.15496" lon="-1.3909">
        <ele>41.615814</ele>
        <time>2020-07-07T13:36:31Z</time>
      </trkpt>
      <trkpt lat="47.15495" lon="-1.39097">
        <ele>42.094067</ele>
        <time>2020-07-07T13:36:32Z</time>
      </trkpt>
      <trkpt lat="47.15494" lon="-1.39104">
        <ele>42.115204</ele>
        <time>2020-07-07T13:36:33Z</time>
      </trkpt>
      <trkpt lat="47.15493" lon="-1.3911">
        <ele>43.46805</ele>
        <time>2020-07-07T13:36:34Z</time>
      </trkpt>
      <trkpt lat="47.15492" lon="-1.39117">
        <ele>41.555042</ele>
        <time>2020-07-07T13:36:35Z</time>
      </trkpt>
      <trkpt lat="47.15492" lon="-1.39124">
        <ele>41.930244</ele>
        <time>2020-07-07T13:36:36Z</time>
      </trkpt>
      <trkpt lat="47.1549" lon="-1.39131">
        <ele>41.597317</ele>
        <time>2020-07-07T13:36:37Z</time>
      </trkpt>
      <trkpt lat="47.15489" lon="-1.39139">
        <ele>41.116425</ele>
        <time>2020-07-07T13:36:38Z</time>
      </trkpt>
      <trkpt lat="47.15488" lon="-1.39146">
        <ele>40.820488</ele>
        <time>2020-07-07T13:36:39Z</time>
      </trkpt>
      <trkpt lat="47.15487" lon="-1.39154">
        <ele>42.781055</ele>
        <time>2020-07-07T13:36:40Z</time>
      </trkpt>
      <trkpt lat="47.15486" lon="-1.39162">
        <ele>41.293457</ele>
        <time>2020-07-07T13:36:41Z</time>
      </trkpt>
      <trkpt lat="47.15485" lon="-1.3917">
        <ele>38.886345</ele>
        <time>2020-07-07T13:36:42Z</time>
      </trkpt>
      <trkpt lat="47.15484" lon="-1.39177">
        <ele>40.72537</ele>
        <time>2020-07-07T13:36:43Z</time>
      </trkpt>
      <trkpt lat="47.15483" lon="-1.39185">
        <ele>40.085938</ele>
        <time>2020-07-07T13:36:44Z</time>
      </trkpt>
      <trkpt lat="47.15481" lon="-1.39193">
        <ele>40.51927</ele>
        <time>2020-07-07T13:36:45Z</time>
      </trkpt>
      <trkpt lat="47.15479" lon="-1.392">
        <ele>40.06744</ele>
        <time>2020-07-07T13:36:46Z</time>
      </trkpt>
      <trkpt lat="47.15477" lon="-1.39208">
        <ele>39.900978</ele>
        <time>2020-07-07T13:36:47Z</time>
      </trkpt>
      <trkpt lat="47.15475" lon="-1.39215">
        <ele>39.46236</ele>
        <time>2020-07-07T13:36:48Z</time>
      </trkpt>
      <trkpt lat="47.15473" lon="-1.39223">
        <ele>39.07923</ele>
        <time>2020-07-07T13:36:49Z</time>
      </trkpt>
      <trkpt lat="47.15471" lon="-1.39231">
        <ele>40.247116</ele>
        <time>2020-07-07T13:36:50Z</time>
      </trkpt>
      <trkpt lat="47.1547" lon="-1.39239">
        <ele>38.52171</ele>
        <time>2020-07-07T13:36:51Z</time>
      </trkpt>
      <trkpt lat="47.15468" lon="-1.39248">
        <ele>38.128014</ele>
        <time>2020-07-07T13:36:52Z</time>
      </trkpt>
      <trkpt lat="47.15467" lon="-1.39256">
        <ele>38.96297</ele>
        <time>2020-07-07T13:36:53Z</time>
      </trkpt>
      <trkpt lat="47.15466" lon="-1.39265">
        <ele>39.19813</ele>
        <time>2020-07-07T13:36:54Z</time>
      </trkpt>
      <trkpt lat="47.15464" lon="-1.39274">
        <ele>37.261345</ele>
        <time>2020-07-07T13:36:55Z</time>
      </trkpt>
      <trkpt lat="47.15463" lon="-1.39283">
        <ele>37.958908</ele>
        <time>2020-07-07T13:36:56Z</time>
      </trkpt>
      <trkpt lat="47.15462" lon="-1.39293">
        <ele>37.594273</ele>
        <time>2020-07-07T13:36:57Z</time>
      </trkpt>
      <trkpt lat="47.1546" lon="-1.39304">
        <ele>37.97212</ele>
        <time>2020-07-07T13:36:58Z</time>
      </trkpt>
      <trkpt lat="47.15458" lon="-1.39314">
        <ele>37.478012</ele>
        <time>2020-07-07T13:36:59Z</time>
      </trkpt>
      <trkpt lat="47.15457" lon="-1.39326">
        <ele>37.271915</ele>
        <time>2020-07-07T13:37:00Z</time>
      </trkpt>
      <trkpt lat="47.15455" lon="-1.39337">
        <ele>35.784317</ele>
        <time>2020-07-07T13:37:01Z</time>
      </trkpt>
      <trkpt lat="47.15454" lon="-1.3935">
        <ele>36.170086</ele>
        <time>2020-07-07T13:37:02Z</time>
      </trkpt>
      <trkpt lat="47.15453" lon="-1.39362">
        <ele>36.455452</ele>
        <time>2020-07-07T13:37:03Z</time>
      </trkpt>
      <trkpt lat="47.15451" lon="-1.39375">
        <ele>36.735535</ele>
        <time>2020-07-07T13:37:04Z</time>
      </trkpt>
      <trkpt lat="47.15451" lon="-1.39387">
        <ele>36.085533</ele>
        <time>2020-07-07T13:37:05Z</time>
      </trkpt>
      <trkpt lat="47.1545" lon="-1.394">
        <ele>36.944275</ele>
        <time>2020-07-07T13:37:06Z</time>
      </trkpt>
      <trkpt lat="47.15448" lon="-1.39412">
        <ele>34.39712</ele>
        <time>2020-07-07T13:37:07Z</time>
      </trkpt>
      <trkpt lat="47.15447" lon="-1.39425">
        <ele>33.07863</ele>
        <time>2020-07-07T13:37:08Z</time>
      </trkpt>
      <trkpt lat="47.15445" lon="-1.39437">
        <ele>34.59529</ele>
        <time>2020-07-07T13:37:09Z</time>
      </trkpt>
      <trkpt lat="47.15443" lon="-1.39449">
        <ele>33.253017</ele>
        <time>2020-07-07T13:37:10Z</time>
      </trkpt>
      <trkpt lat="47.15442" lon="-1.39461">
        <ele>34.275578</ele>
        <time>2020-07-07T13:37:11Z</time>
      </trkpt>
      <trkpt lat="47.15441" lon="-1.39473">
        <ele>34.32314</ele>
        <time>2020-07-07T13:37:12Z</time>
      </trkpt>
      <trkpt lat="47.1544" lon="-1.39485">
        <ele>32.938587</ele>
        <time>2020-07-07T13:37:13Z</time>
      </trkpt>
      <trkpt lat="47.15438" lon="-1.39497">
        <ele>32.840824</ele>
        <time>2020-07-07T13:37:14Z</time>
      </trkpt>
      <trkpt lat="47.15436" lon="-1.39509">
        <ele>32.243668</ele>
        <time>2020-07-07T13:37:15Z</time>
      </trkpt>
      <trkpt lat="47.15434" lon="-1.3952">
        <ele>32.016434</ele>
        <time>2020-07-07T13:37:16Z</time>
      </trkpt>
      <trkpt lat="47.15434" lon="-1.39532">
        <ele>31.984726</ele>
        <time>2020-07-07T13:37:17Z</time>
      </trkpt>
      <trkpt lat="47.15434" lon="-1.39543">
        <ele>31.10749</ele>
        <time>2020-07-07T13:37:18Z</time>
      </trkpt>
      <trkpt lat="47.15433" lon="-1.39555">
        <ele>31.480051</ele>
        <time>2020-07-07T13:37:19Z</time>
      </trkpt>
      <trkpt lat="47.15433" lon="-1.39566">
        <ele>30.298954</ele>
        <time>2020-07-07T13:37:20Z</time>
      </trkpt>
      <trkpt lat="47.15432" lon="-1.39577">
        <ele>30.679441</ele>
        <time>2020-07-07T13:37:21Z</time>
      </trkpt>
      <trkpt lat="47.15431" lon="-1.39588">
        <ele>28.718876</ele>
        <time>2020-07-07T13:37:22Z</time>
      </trkpt>
      <trkpt lat="47.1543" lon="-1.39599">
        <ele>30.38615</ele>
        <time>2020-07-07T13:37:23Z</time>
      </trkpt>
      <trkpt lat="47.15428" lon="-1.3961">
        <ele>29.704443</ele>
        <time>2020-07-07T13:37:24Z</time>
      </trkpt>
      <trkpt lat="47.15427" lon="-1.39621">
        <ele>30.39936</ele>
        <time>2020-07-07T13:37:25Z</time>
      </trkpt>
      <trkpt lat="47.15426" lon="-1.39632">
        <ele>28.507494</ele>
        <time>2020-07-07T13:37:26Z</time>
      </trkpt>
      <trkpt lat="47.15424" lon="-1.39642">
        <ele>29.593468</ele>
        <time>2020-07-07T13:37:27Z</time>
      </trkpt>
      <trkpt lat="47.15423" lon="-1.39653">
        <ele>28.745298</ele>
        <time>2020-07-07T13:37:28Z</time>
      </trkpt>
      <trkpt lat="47.15422" lon="-1.39663">
        <ele>28.790216</ele>
        <time>2020-07-07T13:37:29Z</time>
      </trkpt>
      <trkpt lat="47.15421" lon="-1.39674">
        <ele>29.3768</ele>
        <time>2020-07-07T13:37:30Z</time>
      </trkpt>
      <trkpt lat="47.15421" lon="-1.39684">
        <ele>27.165218</ele>
        <time>2020-07-07T13:37:31Z</time>
      </trkpt>
      <trkpt lat="47.15419" lon="-1.39694">
        <ele>27.772942</ele>
        <time>2020-07-07T13:37:32Z</time>
      </trkpt>
      <trkpt lat="47.15419" lon="-1.39704">
        <ele>27.299974</ele>
        <time>2020-07-07T13:37:33Z</time>
      </trkpt>
      <trkpt lat="47.15418" lon="-1.39715">
        <ele>27.675177</ele>
        <time>2020-07-07T13:37:34Z</time>
      </trkpt>
      <trkpt lat="47.15417" lon="-1.39725">
        <ele>28.245909</ele>
        <time>2020-07-07T13:37:35Z</time>
      </trkpt>
      <trkpt lat="47.15415" lon="-1.39735">
        <ele>27.011967</ele>
        <time>2020-07-07T13:37:36Z</time>
      </trkpt>
      <trkpt lat="47.15414" lon="-1.39745">
        <ele>27.57477</ele>
        <time>2020-07-07T13:37:37Z</time>
      </trkpt>
      <trkpt lat="47.15413" lon="-1.39754">
        <ele>27.006681</ele>
        <time>2020-07-07T13:37:38Z</time>
      </trkpt>
      <trkpt lat="47.15411" lon="-1.39764">
        <ele>26.068674</ele>
        <time>2020-07-07T13:37:39Z</time>
      </trkpt>
      <trkpt lat="47.1541" lon="-1.39773">
        <ele>26.697536</ele>
        <time>2020-07-07T13:37:40Z</time>
      </trkpt>
      <trkpt lat="47.15408" lon="-1.3978">
        <ele>26.51786</ele>
        <time>2020-07-07T13:37:41Z</time>
      </trkpt>
      <trkpt lat="47.15402" lon="-1.39786">
        <ele>25.281277</ele>
        <time>2020-07-07T13:37:43Z</time>
      </trkpt>
      <trkpt lat="47.15393" lon="-1.39783">
        <ele>26.245707</ele>
        <time>2020-07-07T13:37:45Z</time>
      </trkpt>
      <trkpt lat="47.15385" lon="-1.3978">
        <ele>26.636763</ele>
        <time>2020-07-07T13:37:47Z</time>
      </trkpt>
      <trkpt lat="47.15377" lon="-1.39776">
        <ele>27.228632</ele>
        <time>2020-07-07T13:37:49Z</time>
      </trkpt>
      <trkpt lat="47.15372" lon="-1.39774">
        <ele>27.548347</ele>
        <time>2020-07-07T13:37:50Z</time>
      </trkpt>
      <trkpt lat="47.15367" lon="-1.39771">
        <ele>28.488997</ele>
        <time>2020-07-07T13:37:51Z</time>
      </trkpt>
      <trkpt lat="47.15361" lon="-1.39768">
        <ele>28.895908</ele>
        <time>2020-07-07T13:37:52Z</time>
      </trkpt>
      <trkpt lat="47.15356" lon="-1.39766">
        <ele>29.138996</ele>
        <time>2020-07-07T13:37:53Z</time>
      </trkpt>
      <trkpt lat="47.15351" lon="-1.39765">
        <ele>29.218266</ele>
        <time>2020-07-07T13:37:54Z</time>
      </trkpt>
      <trkpt lat="47.15345" lon="-1.39764">
        <ele>28.592047</ele>
        <time>2020-07-07T13:37:55Z</time>
      </trkpt>
      <trkpt lat="47.1534" lon="-1.39763">
        <ele>29.45607</ele>
        <time>2020-07-07T13:37:56Z</time>
      </trkpt>
      <trkpt lat="47.15335" lon="-1.39764">
        <ele>29.894688</ele>
        <time>2020-07-07T13:37:57Z</time>
      </trkpt>
      <trkpt lat="47.15329" lon="-1.39766">
        <ele>29.42172</ele>
        <time>2020-07-07T13:37:58Z</time>
      </trkpt>
      <trkpt lat="47.15324" lon="-1.39767">
        <ele>29.707085</ele>
        <time>2020-07-07T13:37:59Z</time>
      </trkpt>
      <trkpt lat="47.15319" lon="-1.39769">
        <ele>29.530052</ele>
        <time>2020-07-07T13:38:00Z</time>
      </trkpt>
      <trkpt lat="47.15314" lon="-1.3977">
        <ele>29.715012</ele>
        <time>2020-07-07T13:38:01Z</time>
      </trkpt>
      <trkpt lat="47.15309" lon="-1.39771">
        <ele>30.01359</ele>
        <time>2020-07-07T13:38:02Z</time>
      </trkpt>
      <trkpt lat="47.15303" lon="-1.39773">
        <ele>30.285744</ele>
        <time>2020-07-07T13:38:03Z</time>
      </trkpt>
      <trkpt lat="47.15298" lon="-1.39775">
        <ele>29.68859</ele>
        <time>2020-07-07T13:38:04Z</time>
      </trkpt>
      <trkpt lat="47.15293" lon="-1.39777">
        <ele>30.621313</ele>
        <time>2020-07-07T13:38:05Z</time>
      </trkpt>
      <trkpt lat="47.15287" lon="-1.3978">
        <ele>30.763994</ele>
        <time>2020-07-07T13:38:06Z</time>
      </trkpt>
      <trkpt lat="47.15282" lon="-1.39782">
        <ele>31.601597</ele>
        <time>2020-07-07T13:38:07Z</time>
      </trkpt>
      <trkpt lat="47.15277" lon="-1.39785">
        <ele>30.666231</ele>
        <time>2020-07-07T13:38:08Z</time>
      </trkpt>
      <trkpt lat="47.15272" lon="-1.39787">
        <ele>30.893467</ele>
        <time>2020-07-07T13:38:09Z</time>
      </trkpt>
      <trkpt lat="47.15267" lon="-1.3979">
        <ele>31.649157</ele>
        <time>2020-07-07T13:38:10Z</time>
      </trkpt>
      <trkpt lat="47.15262" lon="-1.39793">
        <ele>31.79184</ele>
        <time>2020-07-07T13:38:11Z</time>
      </trkpt>
      <trkpt lat="47.15257" lon="-1.39796">
        <ele>30.800987</ele>
        <time>2020-07-07T13:38:12Z</time>
      </trkpt>
      <trkpt lat="47.15252" lon="-1.39799">
        <ele>31.580458</ele>
        <time>2020-07-07T13:38:13Z</time>
      </trkpt>
      <trkpt lat="47.15248" lon="-1.39803">
        <ele>30.975376</ele>
        <time>2020-07-07T13:38:14Z</time>
      </trkpt>
      <trkpt lat="47.15244" lon="-1.39806">
        <ele>31.14184</ele>
        <time>2020-07-07T13:38:15Z</time>
      </trkpt>
      <trkpt lat="47.1524" lon="-1.3981">
        <ele>31.168262</ele>
        <time>2020-07-07T13:38:16Z</time>
      </trkpt>
      <trkpt lat="47.15235" lon="-1.39814">
        <ele>30.53676</ele>
        <time>2020-07-07T13:38:17Z</time>
      </trkpt>
      <trkpt lat="47.15231" lon="-1.39818">
        <ele>31.020296</ele>
        <time>2020-07-07T13:38:18Z</time>
      </trkpt>
      <trkpt lat="47.15226" lon="-1.39822">
        <ele>30.71379</ele>
        <time>2020-07-07T13:38:19Z</time>
      </trkpt>
      <trkpt lat="47.15222" lon="-1.39826">
        <ele>30.589605</ele>
        <time>2020-07-07T13:38:20Z</time>
      </trkpt>
      <trkpt lat="47.15217" lon="-1.39829">
        <ele>30.174768</ele>
        <time>2020-07-07T13:38:21Z</time>
      </trkpt>
      <trkpt lat="47.15212" lon="-1.39833">
        <ele>29.072939</ele>
        <time>2020-07-07T13:38:22Z</time>
      </trkpt>
      <trkpt lat="47.15208" lon="-1.39837">
        <ele>29.4455</ele>
        <time>2020-07-07T13:38:23Z</time>
      </trkpt>
      <trkpt lat="47.15204" lon="-1.39841">
        <ele>29.725582</ele>
        <time>2020-07-07T13:38:24Z</time>
      </trkpt>
      <trkpt lat="47.15199" lon="-1.39851">
        <ele>27.735949</ele>
        <time>2020-07-07T13:38:26Z</time>
      </trkpt>
      <trkpt lat="47.15199" lon="-1.39857">
        <ele>29.091436</ele>
        <time>2020-07-07T13:38:27Z</time>
      </trkpt>
      <trkpt lat="47.152" lon="-1.39871">
        <ele>28.813997</ele>
        <time>2020-07-07T13:38:29Z</time>
      </trkpt>
      <trkpt lat="47.152" lon="-1.39878">
        <ele>27.635542</ele>
        <time>2020-07-07T13:38:30Z</time>
      </trkpt>
      <trkpt lat="47.15201" lon="-1.39885">
        <ele>27.812574</ele>
        <time>2020-07-07T13:38:31Z</time>
      </trkpt>
      <trkpt lat="47.15202" lon="-1.39892">
        <ele>29.115215</ele>
        <time>2020-07-07T13:38:32Z</time>
      </trkpt>
      <trkpt lat="47.15203" lon="-1.39899">
        <ele>28.182493</ele>
        <time>2020-07-07T13:38:33Z</time>
      </trkpt>
      <trkpt lat="47.15203" lon="-1.39905">
        <ele>27.735949</ele>
        <time>2020-07-07T13:38:34Z</time>
      </trkpt>
      <trkpt lat="47.15203" lon="-1.39913">
        <ele>28.436152</ele>
        <time>2020-07-07T13:38:35Z</time>
      </trkpt>
      <trkpt lat="47.15202" lon="-1.3992">
        <ele>27.757088</ele>
        <time>2020-07-07T13:38:36Z</time>
      </trkpt>
      <trkpt lat="47.15202" lon="-1.39927">
        <ele>28.407087</ele>
        <time>2020-07-07T13:38:37Z</time>
      </trkpt>
      <trkpt lat="47.15201" lon="-1.39935">
        <ele>27.487576</ele>
        <time>2020-07-07T13:38:38Z</time>
      </trkpt>
      <trkpt lat="47.152" lon="-1.39943">
        <ele>27.802006</ele>
        <time>2020-07-07T13:38:39Z</time>
      </trkpt>
      <trkpt lat="47.152" lon="-1.39952">
        <ele>27.976397</ele>
        <time>2020-07-07T13:38:40Z</time>
      </trkpt>
      <trkpt lat="47.15199" lon="-1.3996">
        <ele>27.6329</ele>
        <time>2020-07-07T13:38:41Z</time>
      </trkpt>
      <trkpt lat="47.15199" lon="-1.39969">
        <ele>28.993671</ele>
        <time>2020-07-07T13:38:42Z</time>
      </trkpt>
      <trkpt lat="47.15198" lon="-1.39978">
        <ele>28.140217</ele>
        <time>2020-07-07T13:38:43Z</time>
      </trkpt>
      <trkpt lat="47.15197" lon="-1.39987">
        <ele>26.649975</ele>
        <time>2020-07-07T13:38:44Z</time>
      </trkpt>
      <trkpt lat="47.15196" lon="-1.39996">
        <ele>26.948551</ele>
        <time>2020-07-07T13:38:45Z</time>
      </trkpt>
      <trkpt lat="47.15194" lon="-1.40004">
        <ele>26.26156</ele>
        <time>2020-07-07T13:38:46Z</time>
      </trkpt>
      <trkpt lat="47.15192" lon="-1.40011">
        <ele>26.525787</ele>
        <time>2020-07-07T13:38:47Z</time>
      </trkpt>
      <trkpt lat="47.1519" lon="-1.40016">
        <ele>26.269487</ele>
        <time>2020-07-07T13:38:48Z</time>
      </trkpt>
      <trkpt lat="47.15187" lon="-1.40022">
        <ele>26.07396</ele>
        <time>2020-07-07T13:38:49Z</time>
      </trkpt>
      <trkpt lat="47.15183" lon="-1.40026">
        <ele>25.682903</ele>
        <time>2020-07-07T13:38:50Z</time>
      </trkpt>
      <trkpt lat="47.15178" lon="-1.4003">
        <ele>26.491438</ele>
        <time>2020-07-07T13:38:51Z</time>
      </trkpt>
      <trkpt lat="47.15173" lon="-1.40034">
        <ele>25.614202</ele>
        <time>2020-07-07T13:38:52Z</time>
      </trkpt>
      <trkpt lat="47.15168" lon="-1.40038">
        <ele>25.910137</ele>
        <time>2020-07-07T13:38:53Z</time>
      </trkpt>
      <trkpt lat="47.15162" lon="-1.40042">
        <ele>25.384325</ele>
        <time>2020-07-07T13:38:54Z</time>
      </trkpt>
      <trkpt lat="47.15157" lon="-1.40046">
        <ele>26.092455</ele>
        <time>2020-07-07T13:38:55Z</time>
      </trkpt>
      <trkpt lat="47.15152" lon="-1.40052">
        <ele>23.991848</ele>
        <time>2020-07-07T13:38:56Z</time>
      </trkpt>
      <trkpt lat="47.15148" lon="-1.40061">
        <ele>24.990627</ele>
        <time>2020-07-07T13:38:57Z</time>
      </trkpt>
      <trkpt lat="47.15147" lon="-1.4007">
        <ele>24.824163</ele>
        <time>2020-07-07T13:38:58Z</time>
      </trkpt>
      <trkpt lat="47.15147" lon="-1.4008">
        <ele>24.21644</ele>
        <time>2020-07-07T13:38:59Z</time>
      </trkpt>
      <trkpt lat="47.15149" lon="-1.4009">
        <ele>23.978636</ele>
        <time>2020-07-07T13:39:00Z</time>
      </trkpt>
      <trkpt lat="47.15153" lon="-1.40099">
        <ele>24.475384</ele>
        <time>2020-07-07T13:39:01Z</time>
      </trkpt>
      <trkpt lat="47.15157" lon="-1.40108">
        <ele>24.30892</ele>
        <time>2020-07-07T13:39:02Z</time>
      </trkpt>
      <trkpt lat="47.1516" lon="-1.40117">
        <ele>23.606075</ele>
        <time>2020-07-07T13:39:03Z</time>
      </trkpt>
      <trkpt lat="47.15164" lon="-1.40125">
        <ele>23.540018</ele>
        <time>2020-07-07T13:39:04Z</time>
      </trkpt>
      <trkpt lat="47.15168" lon="-1.40134">
        <ele>23.627213</ele>
        <time>2020-07-07T13:39:05Z</time>
      </trkpt>
      <trkpt lat="47.15171" lon="-1.40143">
        <ele>21.494898</ele>
        <time>2020-07-07T13:39:06Z</time>
      </trkpt>
      <trkpt lat="47.15175" lon="-1.40151">
        <ele>22.390629</ele>
        <time>2020-07-07T13:39:07Z</time>
      </trkpt>
      <trkpt lat="47.15178" lon="-1.40159">
        <ele>22.340425</ele>
        <time>2020-07-07T13:39:08Z</time>
      </trkpt>
      <trkpt lat="47.15183" lon="-1.40166">
        <ele>22.675995</ele>
        <time>2020-07-07T13:39:09Z</time>
      </trkpt>
      <trkpt lat="47.15189" lon="-1.40171">
        <ele>22.086767</ele>
        <time>2020-07-07T13:39:10Z</time>
      </trkpt>
      <trkpt lat="47.15195" lon="-1.40171">
        <ele>22.60201</ele>
        <time>2020-07-07T13:39:11Z</time>
      </trkpt>
      <trkpt lat="47.152" lon="-1.40169">
        <ele>21.502825</ele>
        <time>2020-07-07T13:39:12Z</time>
      </trkpt>
      <trkpt lat="47.15205" lon="-1.40164">
        <ele>23.175385</ele>
        <time>2020-07-07T13:39:13Z</time>
      </trkpt>
      <trkpt lat="47.15209" lon="-1.40159">
        <ele>21.962582</ele>
        <time>2020-07-07T13:39:14Z</time>
      </trkpt>
      <trkpt lat="47.15213" lon="-1.40154">
        <ele>23.104042</ele>
        <time>2020-07-07T13:39:15Z</time>
      </trkpt>
      <trkpt lat="47.15218" lon="-1.40149">
        <ele>23.701197</ele>
        <time>2020-07-07T13:39:16Z</time>
      </trkpt>
      <trkpt lat="47.15222" lon="-1.40145">
        <ele>23.096117</ele>
        <time>2020-07-07T13:39:17Z</time>
      </trkpt>
      <trkpt lat="47.15226" lon="-1.4014">
        <ele>23.489815</ele>
        <time>2020-07-07T13:39:18Z</time>
      </trkpt>
      <trkpt lat="47.1523" lon="-1.40136">
        <ele>24.448961</ele>
        <time>2020-07-07T13:39:19Z</time>
      </trkpt>
      <trkpt lat="47.15234" lon="-1.40132">
        <ele>24.089611</ele>
        <time>2020-07-07T13:39:20Z</time>
      </trkpt>
      <trkpt lat="47.15241" lon="-1.40125">
        <ele>22.702417</ele>
        <time>2020-07-07T13:39:22Z</time>
      </trkpt>
      <trkpt lat="47.15246" lon="-1.4012">
        <ele>23.975994</ele>
        <time>2020-07-07T13:39:24Z</time>
      </trkpt>
      <trkpt lat="47.1525" lon="-1.40117">
        <ele>23.455465</ele>
        <time>2020-07-07T13:39:26Z</time>
      </trkpt>
      <trkpt lat="47.15254" lon="-1.40124">
        <ele>22.842459</ele>
        <time>2020-07-07T13:39:28Z</time>
      </trkpt>
      <trkpt lat="47.15251" lon="-1.40134">
        <ele>22.454044</ele>
        <time>2020-07-07T13:39:30Z</time>
      </trkpt>
      <trkpt lat="47.15247" lon="-1.40147">
        <ele>22.78697</ele>
        <time>2020-07-07T13:39:32Z</time>
      </trkpt>
      <trkpt lat="47.15246" lon="-1.40154">
        <ele>22.96136</ele>
        <time>2020-07-07T13:39:33Z</time>
      </trkpt>
      <trkpt lat="47.15244" lon="-1.40161">
        <ele>22.993067</ele>
        <time>2020-07-07T13:39:34Z</time>
      </trkpt>
      <trkpt lat="47.15242" lon="-1.40169">
        <ele>22.61258</ele>
        <time>2020-07-07T13:39:35Z</time>
      </trkpt>
      <trkpt lat="47.15241" lon="-1.40178">
        <ele>22.567661</ele>
        <time>2020-07-07T13:39:36Z</time>
      </trkpt>
      <trkpt lat="47.15239" lon="-1.40187">
        <ele>21.209532</ele>
        <time>2020-07-07T13:39:37Z</time>
      </trkpt>
      <trkpt lat="47.15238" lon="-1.40196">
        <ele>20.921524</ele>
        <time>2020-07-07T13:39:38Z</time>
      </trkpt>
      <trkpt lat="47.15236" lon="-1.40206">
        <ele>22.683922</ele>
        <time>2020-07-07T13:39:39Z</time>
      </trkpt>
      <trkpt lat="47.15235" lon="-1.40216">
        <ele>21.259735</ele>
        <time>2020-07-07T13:39:40Z</time>
      </trkpt>
      <trkpt lat="47.15233" lon="-1.40227">
        <ele>20.903028</ele>
        <time>2020-07-07T13:39:41Z</time>
      </trkpt>
      <trkpt lat="47.15231" lon="-1.40238">
        <ele>20.496119</ele>
        <time>2020-07-07T13:39:42Z</time>
      </trkpt>
      <trkpt lat="47.15229" lon="-1.40248">
        <ele>19.885754</ele>
        <time>2020-07-07T13:39:43Z</time>
      </trkpt>
      <trkpt lat="47.15228" lon="-1.40259">
        <ele>20.61238</ele>
        <time>2020-07-07T13:39:44Z</time>
      </trkpt>
      <trkpt lat="47.15226" lon="-1.4027">
        <ele>19.238396</ele>
        <time>2020-07-07T13:39:45Z</time>
      </trkpt>
      <trkpt lat="47.15224" lon="-1.40281">
        <ele>20.03372</ele>
        <time>2020-07-07T13:39:46Z</time>
      </trkpt>
      <trkpt lat="47.15221" lon="-1.40291">
        <ele>19.137989</ele>
        <time>2020-07-07T13:39:47Z</time>
      </trkpt>
      <trkpt lat="47.15218" lon="-1.40302">
        <ele>19.94124</ele>
        <time>2020-07-07T13:39:48Z</time>
      </trkpt>
      <trkpt lat="47.15215" lon="-1.40312">
        <ele>19.529047</ele>
        <time>2020-07-07T13:39:49Z</time>
      </trkpt>
      <trkpt lat="47.1521" lon="-1.40321">
        <ele>18.72051</ele>
        <time>2020-07-07T13:39:50Z</time>
      </trkpt>
      <trkpt lat="47.15205" lon="-1.4033">
        <ele>20.1262</ele>
        <time>2020-07-07T13:39:51Z</time>
      </trkpt>
      <trkpt lat="47.15201" lon="-1.40339">
        <ele>17.727016</ele>
        <time>2020-07-07T13:39:52Z</time>
      </trkpt>
      <trkpt lat="47.15195" lon="-1.40347">
        <ele>16.67539</ele>
        <time>2020-07-07T13:39:53Z</time>
      </trkpt>
      <trkpt lat="47.15188" lon="-1.40352">
        <ele>17.11665</ele>
        <time>2020-07-07T13:39:54Z</time>
      </trkpt>
      <trkpt lat="47.15182" lon="-1.40358">
        <ele>15.623766</ele>
        <time>2020-07-07T13:39:55Z</time>
      </trkpt>
      <trkpt lat="47.15175" lon="-1.40361">
        <ele>17.11665</ele>
        <time>2020-07-07T13:39:56Z</time>
      </trkpt>
      <trkpt lat="47.15168" lon="-1.40363">
        <ele>16.870918</ele>
        <time>2020-07-07T13:39:57Z</time>
      </trkpt>
      <trkpt lat="47.1516" lon="-1.40365">
        <ele>14.973766</ele>
        <time>2020-07-07T13:39:58Z</time>
      </trkpt>
      <trkpt lat="47.15154" lon="-1.40367">
        <ele>13.486166</ele>
        <time>2020-07-07T13:39:59Z</time>
      </trkpt>
      <trkpt lat="47.15146" lon="-1.40369">
        <ele>15.356895</ele>
        <time>2020-07-07T13:40:00Z</time>
      </trkpt>
      <trkpt lat="47.15139" lon="-1.40371">
        <ele>14.878644</ele>
        <time>2020-07-07T13:40:01Z</time>
      </trkpt>
      <trkpt lat="47.15132" lon="-1.40373">
        <ele>15.367465</ele>
        <time>2020-07-07T13:40:02Z</time>
      </trkpt>
      <trkpt lat="47.15125" lon="-1.40375">
        <ele>13.314418</ele>
        <time>2020-07-07T13:40:03Z</time>
      </trkpt>
      <trkpt lat="47.15118" lon="-1.40378">
        <ele>14.220718</ele>
        <time>2020-07-07T13:40:04Z</time>
      </trkpt>
      <trkpt lat="47.15111" lon="-1.40381">
        <ele>13.147955</ele>
        <time>2020-07-07T13:40:05Z</time>
      </trkpt>
      <trkpt lat="47.15105" lon="-1.40384">
        <ele>14.984335</ele>
        <time>2020-07-07T13:40:06Z</time>
      </trkpt>
      <trkpt lat="47.15099" lon="-1.40386">
        <ele>13.435963</ele>
        <time>2020-07-07T13:40:07Z</time>
      </trkpt>
      <trkpt lat="47.15093" lon="-1.40389">
        <ele>12.53759</ele>
        <time>2020-07-07T13:40:08Z</time>
      </trkpt>
      <trkpt lat="47.15088" lon="-1.40391">
        <ele>13.089825</ele>
        <time>2020-07-07T13:40:09Z</time>
      </trkpt>
      <trkpt lat="47.15082" lon="-1.40394">
        <ele>13.753036</ele>
        <time>2020-07-07T13:40:10Z</time>
      </trkpt>
      <trkpt lat="47.15077" lon="-1.40397">
        <ele>12.447752</ele>
        <time>2020-07-07T13:40:11Z</time>
      </trkpt>
      <trkpt lat="47.15073" lon="-1.404">
        <ele>13.893076</ele>
        <time>2020-07-07T13:40:12Z</time>
      </trkpt>
      <trkpt lat="47.15065" lon="-1.40403">
        <ele>12.513809</ele>
        <time>2020-07-07T13:40:14Z</time>
      </trkpt>
      <trkpt lat="47.15059" lon="-1.40396">
        <ele>13.684337</ele>
        <time>2020-07-07T13:40:16Z</time>
      </trkpt>
      <trkpt lat="47.15052" lon="-1.40387">
        <ele>14.609133</ele>
        <time>2020-07-07T13:40:18Z</time>
      </trkpt>
      <trkpt lat="47.1505" lon="-1.4038">
        <ele>14.144093</ele>
        <time>2020-07-07T13:40:19Z</time>
      </trkpt>
      <trkpt lat="47.15048" lon="-1.40373">
        <ele>14.672547</ele>
        <time>2020-07-07T13:40:20Z</time>
      </trkpt>
      <trkpt lat="47.15047" lon="-1.40365">
        <ele>12.091045</ele>
        <time>2020-07-07T13:40:21Z</time>
      </trkpt>
      <trkpt lat="47.15046" lon="-1.40358">
        <ele>13.980271</ele>
        <time>2020-07-07T13:40:22Z</time>
      </trkpt>
      <trkpt lat="47.15044" lon="-1.4035">
        <ele>14.017263</ele>
        <time>2020-07-07T13:40:23Z</time>
      </trkpt>
      <trkpt lat="47.15043" lon="-1.40341">
        <ele>14.276206</ele>
        <time>2020-07-07T13:40:24Z</time>
      </trkpt>
      <trkpt lat="47.15039" lon="-1.40334">
        <ele>13.996125</ele>
        <time>2020-07-07T13:40:25Z</time>
      </trkpt>
      <trkpt lat="47.15036" lon="-1.40331">
        <ele>13.11889</ele>
        <time>2020-07-07T13:40:26Z</time>
      </trkpt>
      <trkpt lat="47.15027" lon="-1.40328">
        <ele>12.764825</ele>
        <time>2020-07-07T13:40:28Z</time>
      </trkpt>
      <trkpt lat="47.15022" lon="-1.40321">
        <ele>13.81645</ele>
        <time>2020-07-07T13:40:30Z</time>
      </trkpt>
      <trkpt lat="47.15018" lon="-1.40309">
        <ele>14.395108</ele>
        <time>2020-07-07T13:40:32Z</time>
      </trkpt>
      <trkpt lat="47.15015" lon="-1.40297">
        <ele>14.181084</ele>
        <time>2020-07-07T13:40:34Z</time>
      </trkpt>
      <trkpt lat="47.15012" lon="-1.40285">
        <ele>14.387181</ele>
        <time>2020-07-07T13:40:36Z</time>
      </trkpt>
      <trkpt lat="47.15016" lon="-1.40275">
        <ele>13.507304</ele>
        <time>2020-07-07T13:40:38Z</time>
      </trkpt>
      <trkpt lat="47.1502" lon="-1.40271">
        <ele>13.401613</ele>
        <time>2020-07-07T13:40:39Z</time>
      </trkpt>
      <trkpt lat="47.15025" lon="-1.40269">
        <ele>13.071329</ele>
        <time>2020-07-07T13:40:40Z</time>
      </trkpt>
      <trkpt lat="47.1503" lon="-1.40266">
        <ele>13.021126</ele>
        <time>2020-07-07T13:40:41Z</time>
      </trkpt>
      <trkpt lat="47.15036" lon="-1.40263">
        <ele>12.616858</ele>
        <time>2020-07-07T13:40:42Z</time>
      </trkpt>
      <trkpt lat="47.15043" lon="-1.40261">
        <ele>12.53759</ele>
        <time>2020-07-07T13:40:43Z</time>
      </trkpt>
      <trkpt lat="47.15049" lon="-1.40258">
        <ele>11.459542</ele>
        <time>2020-07-07T13:40:44Z</time>
      </trkpt>
      <trkpt lat="47.15056" lon="-1.40255">
        <ele>11.002428</ele>
        <time>2020-07-07T13:40:45Z</time>
      </trkpt>
      <trkpt lat="47.15063" lon="-1.40252">
        <ele>9.530682</ele>
        <time>2020-07-07T13:40:46Z</time>
      </trkpt>
      <trkpt lat="47.15068" lon="-1.40249">
        <ele>9.018081</ele>
        <time>2020-07-07T13:40:47Z</time>
      </trkpt>
      <trkpt lat="47.15075" lon="-1.40246">
        <ele>8.072146</ele>
        <time>2020-07-07T13:40:49Z</time>
      </trkpt>
      <trkpt lat="47.15079" lon="-1.40241">
        <ele>7.21605</ele>
        <time>2020-07-07T13:40:51Z</time>
      </trkpt>
      <trkpt lat="47.15081" lon="-1.40231">
        <ele>7.406294</ele>
        <time>2020-07-07T13:40:53Z</time>
      </trkpt>
      <trkpt lat="47.1508" lon="-1.40224">
        <ele>7.438001</ele>
        <time>2020-07-07T13:40:54Z</time>
      </trkpt>
      <trkpt lat="47.15078" lon="-1.40217">
        <ele>6.9121885</ele>
        <time>2020-07-07T13:40:55Z</time>
      </trkpt>
      <trkpt lat="47.15076" lon="-1.4021">
        <ele>6.7668633</ele>
        <time>2020-07-07T13:40:56Z</time>
      </trkpt>
      <trkpt lat="47.15073" lon="-1.40202">
        <ele>5.606905</ele>
        <time>2020-07-07T13:40:57Z</time>
      </trkpt>
      <trkpt lat="47.1507" lon="-1.40194">
        <ele>6.608327</ele>
        <time>2020-07-07T13:40:58Z</time>
      </trkpt>
      <trkpt lat="47.15067" lon="-1.40185">
        <ele>7.6044645</ele>
        <time>2020-07-07T13:40:59Z</time>
      </trkpt>
      <trkpt lat="47.15063" lon="-1.40177">
        <ele>6.8725543</ele>
        <time>2020-07-07T13:41:00Z</time>
      </trkpt>
      <trkpt lat="47.15058" lon="-1.40169">
        <ele>5.297759</ele>
        <time>2020-07-07T13:41:01Z</time>
      </trkpt>
      <trkpt lat="47.15053" lon="-1.40161">
        <ele>5.662393</ele>
        <time>2020-07-07T13:41:02Z</time>
      </trkpt>
      <trkpt lat="47.15048" lon="-1.40152">
        <ele>5.61219</ele>
        <time>2020-07-07T13:41:03Z</time>
      </trkpt>
      <trkpt lat="47.15043" lon="-1.40144">
        <ele>5.9847503</ele>
        <time>2020-07-07T13:41:04Z</time>
      </trkpt>
      <trkpt lat="47.15037" lon="-1.40136">
        <ele>5.4166613</ele>
        <time>2020-07-07T13:41:05Z</time>
      </trkpt>
      <trkpt lat="47.15032" lon="-1.40128">
        <ele>4.634548</ele>
        <time>2020-07-07T13:41:06Z</time>
      </trkpt>
      <trkpt lat="47.15027" lon="-1.4012">
        <ele>5.963612</ele>
        <time>2020-07-07T13:41:07Z</time>
      </trkpt>
      <trkpt lat="47.15022" lon="-1.40111">
        <ele>5.2607675</ele>
        <time>2020-07-07T13:41:08Z</time>
      </trkpt>
      <trkpt lat="47.15019" lon="-1.40101">
        <ele>4.874995</ele>
        <time>2020-07-07T13:41:09Z</time>
      </trkpt>
      <trkpt lat="47.15016" lon="-1.40091">
        <ele>3.6251998</ele>
        <time>2020-07-07T13:41:10Z</time>
      </trkpt>
      <trkpt lat="47.15014" lon="-1.40081">
        <ele>2.9355664</ele>
        <time>2020-07-07T13:41:11Z</time>
      </trkpt>
      <trkpt lat="47.15012" lon="-1.4007">
        <ele>3.733533</ele>
        <time>2020-07-07T13:41:12Z</time>
      </trkpt>
      <trkpt lat="47.15012" lon="-1.40059">
        <ele>3.1416636</ele>
        <time>2020-07-07T13:41:13Z</time>
      </trkpt>
      <trkpt lat="47.15012" lon="-1.40048">
        <ele>4.3914595</ele>
        <time>2020-07-07T13:41:14Z</time>
      </trkpt>
      <trkpt lat="47.15012" lon="-1.40036">
        <ele>2.2644286</ele>
        <time>2020-07-07T13:41:15Z</time>
      </trkpt>
      <trkpt lat="47.15012" lon="-1.40025">
        <ele>2.4071116</ele>
        <time>2020-07-07T13:41:16Z</time>
      </trkpt>
      <trkpt lat="47.15012" lon="-1.40013">
        <ele>2.8880053</ele>
        <time>2020-07-07T13:41:17Z</time>
      </trkpt>
      <trkpt lat="47.1501" lon="-1.40002">
        <ele>1.3977629</ele>
        <time>2020-07-07T13:41:18Z</time>
      </trkpt>
      <trkpt lat="47.15006" lon="-1.39991">
        <ele>2.4916644</ele>
        <time>2020-07-07T13:41:19Z</time>
      </trkpt>
      <trkpt lat="47.15001" lon="-1.39982">
        <ele>0.31707287</ele>
        <time>2020-07-07T13:41:20Z</time>
      </trkpt>
      <trkpt lat="47.14995" lon="-1.39974">
        <ele>-0.40162563</ele>
        <time>2020-07-07T13:41:21Z</time>
      </trkpt>
      <trkpt lat="47.14988" lon="-1.39968">
        <ele>1.9632095</ele>
        <time>2020-07-07T13:41:22Z</time>
      </trkpt>
      <trkpt lat="47.14981" lon="-1.39965">
        <ele>0.7292676</ele>
        <time>2020-07-07T13:41:23Z</time>
      </trkpt>
      <trkpt lat="47.14973" lon="-1.39964">
        <ele>1.1520314</ele>
        <time>2020-07-07T13:41:24Z</time>
      </trkpt>
      <trkpt lat="47.14966" lon="-1.39963">
        <ele>0.5152434</ele>
        <time>2020-07-07T13:41:25Z</time>
      </trkpt>
      <trkpt lat="47.14959" lon="-1.39961">
        <ele>0.30121922</ele>
        <time>2020-07-07T13:41:26Z</time>
      </trkpt>
      <trkpt lat="47.14952" lon="-1.3996">
        <ele>0.20609736</ele>
        <time>2020-07-07T13:41:27Z</time>
      </trkpt>
      <trkpt lat="47.14945" lon="-1.39959">
        <ele>0.7213408</ele>
        <time>2020-07-07T13:41:28Z</time>
      </trkpt>
      <trkpt lat="47.14937" lon="-1.39958">
        <ele>0.68434894</ele>
        <time>2020-07-07T13:41:29Z</time>
      </trkpt>
      <trkpt lat="47.1493" lon="-1.39957">
        <ele>-0.14796734</ele>
        <time>2020-07-07T13:41:30Z</time>
      </trkpt>
      <trkpt lat="47.14922" lon="-1.39956">
        <ele>0.5971539</ele>
        <time>2020-07-07T13:41:31Z</time>
      </trkpt>
      <trkpt lat="47.14915" lon="-1.39955">
        <ele>-0.40691018</ele>
        <time>2020-07-07T13:41:32Z</time>
      </trkpt>
      <trkpt lat="47.14908" lon="-1.39954">
        <ele>-0.3646338</ele>
        <time>2020-07-07T13:41:33Z</time>
      </trkpt>
      <trkpt lat="47.14901" lon="-1.39953">
        <ele>0.17439008</ele>
        <time>2020-07-07T13:41:34Z</time>
      </trkpt>
      <trkpt lat="47.14893" lon="-1.39953">
        <ele>0.026422739</ele>
        <time>2020-07-07T13:41:35Z</time>
      </trkpt>
      <trkpt lat="47.14886" lon="-1.39952">
        <ele>-0.56016207</ele>
        <time>2020-07-07T13:41:36Z</time>
      </trkpt>
      <trkpt lat="47.14878" lon="-1.39952">
        <ele>0.49410522</ele>
        <time>2020-07-07T13:41:37Z</time>
      </trkpt>
      <trkpt lat="47.14871" lon="-1.39953">
        <ele>-0.026422739</ele>
        <time>2020-07-07T13:41:38Z</time>
      </trkpt>
      <trkpt lat="47.14864" lon="-1.39955">
        <ele>0.29593468</ele>
        <time>2020-07-07T13:41:39Z</time>
      </trkpt>
      <trkpt lat="47.14857" lon="-1.39958">
        <ele>-0.4650402</ele>
        <time>2020-07-07T13:41:40Z</time>
      </trkpt>
      <trkpt lat="47.14851" lon="-1.39962">
        <ele>0.10304868</ele>
        <time>2020-07-07T13:41:41Z</time>
      </trkpt>
      <trkpt lat="47.14845" lon="-1.39966">
        <ele>1.8680876</ele>
        <time>2020-07-07T13:41:42Z</time>
      </trkpt>
      <trkpt lat="47.1484" lon="-1.39971">
        <ele>-0.06341457</ele>
        <time>2020-07-07T13:41:43Z</time>
      </trkpt>
      <trkpt lat="47.14836" lon="-1.39976">
        <ele>0.13475597</ele>
        <time>2020-07-07T13:41:44Z</time>
      </trkpt>
      <trkpt lat="47.14834" lon="-1.39983">
        <ele>0.010569096</ele>
        <time>2020-07-07T13:41:45Z</time>
      </trkpt>
      <trkpt lat="47.14832" lon="-1.39989">
        <ele>-1.9711363</ele>
        <time>2020-07-07T13:41:46Z</time>
      </trkpt>
      <trkpt lat="47.14831" lon="-1.39997">
        <ele>-0.82438946</ele>
        <time>2020-07-07T13:41:47Z</time>
      </trkpt>
      <trkpt lat="47.14833" lon="-1.40004">
        <ele>-0.52317023</ele>
        <time>2020-07-07T13:41:48Z</time>
      </trkpt>
      <trkpt lat="47.14834" lon="-1.40011">
        <ele>-1.7333317</ele>
        <time>2020-07-07T13:41:49Z</time>
      </trkpt>
      <trkpt lat="47.14835" lon="-1.4002">
        <ele>-2.769103</ele>
        <time>2020-07-07T13:41:50Z</time>
      </trkpt>
      <trkpt lat="47.14836" lon="-1.40029">
        <ele>-0.9195113</ele>
        <time>2020-07-07T13:41:51Z</time>
      </trkpt>
      <trkpt lat="47.14837" lon="-1.40038">
        <ele>-1.2101614</ele>
        <time>2020-07-07T13:41:52Z</time>
      </trkpt>
      <trkpt lat="47.14838" lon="-1.40047">
        <ele>-2.2036564</ele>
        <time>2020-07-07T13:41:53Z</time>
      </trkpt>
      <trkpt lat="47.14838" lon="-1.40056">
        <ele>-2.2617865</ele>
        <time>2020-07-07T13:41:54Z</time>
      </trkpt>
      <trkpt lat="47.14839" lon="-1.40065">
        <ele>-2.885363</ele>
        <time>2020-07-07T13:41:55Z</time>
      </trkpt>
      <trkpt lat="47.14839" lon="-1.40073">
        <ele>-2.9963386</ele>
        <time>2020-07-07T13:41:56Z</time>
      </trkpt>
      <trkpt lat="47.14839" lon="-1.40081">
        <ele>-3.9422727</ele>
        <time>2020-07-07T13:41:57Z</time>
      </trkpt>
      <trkpt lat="47.14834" lon="-1.40088">
        <ele>-1.3951206</ele>
        <time>2020-07-07T13:41:59Z</time>
      </trkpt>
      <trkpt lat="47.14827" lon="-1.40091">
        <ele>-1.9711363</ele>
        <time>2020-07-07T13:42:01Z</time>
      </trkpt>
      <trkpt lat="47.14822" lon="-1.40094">
        <ele>-2.1296728</ele>
        <time>2020-07-07T13:42:03Z</time>
      </trkpt>
      <trkpt lat="47.14817" lon="-1.40096">
        <ele>-2.7215421</ele>
        <time>2020-07-07T13:42:05Z</time>
      </trkpt>
      <trkpt lat="47.14811" lon="-1.401">
        <ele>-1.0304868</ele>
        <time>2020-07-07T13:42:07Z</time>
      </trkpt>
      <trkpt lat="47.14805" lon="-1.40103">
        <ele>-1.1837387</ele>
        <time>2020-07-07T13:42:09Z</time>
      </trkpt>
      <trkpt lat="47.148" lon="-1.40108">
        <ele>-0.44918656</ele>
        <time>2020-07-07T13:42:11Z</time>
      </trkpt>
      <trkpt lat="47.14796" lon="-1.40116">
        <ele>-2.8008103</ele>
        <time>2020-07-07T13:42:13Z</time>
      </trkpt>
      <trkpt lat="47.14792" lon="-1.40124">
        <ele>-1.2524378</ele>
        <time>2020-07-07T13:42:15Z</time>
      </trkpt>
      <trkpt lat="47.14787" lon="-1.40131">
        <ele>-0.81382036</ele>
        <time>2020-07-07T13:42:17Z</time>
      </trkpt>
      <trkpt lat="47.14783" lon="-1.40136">
        <ele>-1.321137</ele>
        <time>2020-07-07T13:42:19Z</time>
      </trkpt>
      <trkpt lat="47.14781" lon="-1.40144">
        <ele>-0.8825195</ele>
        <time>2020-07-07T13:42:21Z</time>
      </trkpt>
      <trkpt lat="47.14785" lon="-1.40152">
        <ele>-1.2947142</ele>
        <time>2020-07-07T13:42:24Z</time>
      </trkpt>
      <trkpt lat="47.14788" lon="-1.40157">
        <ele>-2.0504045</ele>
        <time>2020-07-07T13:42:27Z</time>
      </trkpt>
      <trkpt lat="47.14789" lon="-1.40165">
        <ele>-0.63414574</ele>
        <time>2020-07-07T13:42:40Z</time>
      </trkpt>
      <trkpt lat="47.14784" lon="-1.40162">
        <ele>-0.052845478</ele>
        <time>2020-07-07T13:42:44Z</time>
      </trkpt>
      <trkpt lat="47.14779" lon="-1.40159">
        <ele>1.0331291</ele>
        <time>2020-07-07T13:42:47Z</time>
      </trkpt>
      <trkpt lat="47.14774" lon="-1.40157">
        <ele>2.5075178</ele>
        <time>2020-07-07T13:42:50Z</time>
      </trkpt>
      <trkpt lat="47.14769" lon="-1.40156">
        <ele>2.0821118</ele>
        <time>2020-07-07T13:42:53Z</time>
      </trkpt>
      <trkpt lat="47.14763" lon="-1.40157">
        <ele>4.1404433</ele>
        <time>2020-07-07T13:42:55Z</time>
      </trkpt>
      <trkpt lat="47.14757" lon="-1.40157">
        <ele>5.0678816</ele>
        <time>2020-07-07T13:42:58Z</time>
      </trkpt>
      <trkpt lat="47.14752" lon="-1.40158">
        <ele>4.2567034</ele>
        <time>2020-07-07T13:43:01Z</time>
      </trkpt>
      <trkpt lat="47.14747" lon="-1.40158">
        <ele>5.855279</ele>
        <time>2020-07-07T13:43:04Z</time>
      </trkpt>
      <trkpt lat="47.14743" lon="-1.40162">
        <ele>6.848774</ele>
        <time>2020-07-07T13:43:07Z</time>
      </trkpt>
      <trkpt lat="47.14739" lon="-1.40167">
        <ele>9.229463</ele>
        <time>2020-07-07T13:43:12Z</time>
      </trkpt>
      <trkpt lat="47.14734" lon="-1.40176">
        <ele>9.411779</ele>
        <time>2020-07-07T13:43:16Z</time>
      </trkpt>
      <trkpt lat="47.14728" lon="-1.4018">
        <ele>10.619299</ele>
        <time>2020-07-07T13:43:21Z</time>
      </trkpt>
      <trkpt lat="47.14725" lon="-1.40186">
        <ele>12.009135</ele>
        <time>2020-07-07T13:43:32Z</time>
      </trkpt>
      <trkpt lat="47.14724" lon="-1.40193">
        <ele>14.017263</ele>
        <time>2020-07-07T13:43:43Z</time>
      </trkpt>
      <trkpt lat="47.14723" lon="-1.40207">
        <ele>15.784945</ele>
        <time>2020-07-07T13:43:50Z</time>
      </trkpt>
      <trkpt lat="47.14722" lon="-1.40215">
        <ele>15.787586</ele>
        <time>2020-07-07T13:43:54Z</time>
      </trkpt>
      <trkpt lat="47.14721" lon="-1.40221">
        <ele>15.980473</ele>
        <time>2020-07-07T13:44:03Z</time>
      </trkpt>
      <trkpt lat="47.14721" lon="-1.4023">
        <ele>16.115229</ele>
        <time>2020-07-07T13:44:06Z</time>
      </trkpt>
      <trkpt lat="47.14721" lon="-1.40238">
        <ele>16.892057</ele>
        <time>2020-07-07T13:44:09Z</time>
      </trkpt>
      <trkpt lat="47.14722" lon="-1.40246">
        <ele>17.108723</ele>
        <time>2020-07-07T13:44:12Z</time>
      </trkpt>
      <trkpt lat="47.14724" lon="-1.40254">
        <ele>16.923765</ele>
        <time>2020-07-07T13:44:15Z</time>
      </trkpt>
      <trkpt lat="47.14724" lon="-1.40261">
        <ele>17.827421</ele>
        <time>2020-07-07T13:44:18Z</time>
      </trkpt>
      <trkpt lat="47.14724" lon="-1.4027">
        <ele>16.979252</ele>
        <time>2020-07-07T13:44:22Z</time>
      </trkpt>
      <trkpt lat="47.14725" lon="-1.40278">
        <ele>18.855267</ele>
        <time>2020-07-07T13:44:25Z</time>
      </trkpt>
      <trkpt lat="47.14723" lon="-1.40287">
        <ele>17.66096</ele>
        <time>2020-07-07T13:44:28Z</time>
      </trkpt>
      <trkpt lat="47.14721" lon="-1.40296">
        <ele>17.874983</ele>
        <time>2020-07-07T13:44:31Z</time>
      </trkpt>
      <trkpt lat="47.1472" lon="-1.40303">
        <ele>18.41929</ele>
        <time>2020-07-07T13:44:34Z</time>
      </trkpt>
      <trkpt lat="47.14718" lon="-1.40311">
        <ele>18.9636</ele>
        <time>2020-07-07T13:44:37Z</time>
      </trkpt>
      <trkpt lat="47.14717" lon="-1.40319">
        <ele>18.77864</ele>
        <time>2020-07-07T13:44:40Z</time>
      </trkpt>
      <trkpt lat="47.14714" lon="-1.40329">
        <ele>20.504045</ele>
        <time>2020-07-07T13:44:43Z</time>
      </trkpt>
      <trkpt lat="47.14712" lon="-1.40337">
        <ele>19.484127</ele>
        <time>2020-07-07T13:44:46Z</time>
      </trkpt>
      <trkpt lat="47.1471" lon="-1.40345">
        <ele>21.20689</ele>
        <time>2020-07-07T13:44:49Z</time>
      </trkpt>
      <trkpt lat="47.14707" lon="-1.40353">
        <ele>21.325792</ele>
        <time>2020-07-07T13:44:52Z</time>
      </trkpt>
      <trkpt lat="47.14705" lon="-1.40361">
        <ele>21.743273</ele>
        <time>2020-07-07T13:44:55Z</time>
      </trkpt>
      <trkpt lat="47.14703" lon="-1.4037">
        <ele>22.242662</ele>
        <time>2020-07-07T13:44:58Z</time>
      </trkpt>
      <trkpt lat="47.14701" lon="-1.40378">
        <ele>23.862375</ele>
        <time>2020-07-07T13:45:01Z</time>
      </trkpt>
      <trkpt lat="47.14698" lon="-1.40386">
        <ele>23.318068</ele>
        <time>2020-07-07T13:45:04Z</time>
      </trkpt>
      <trkpt lat="47.14696" lon="-1.40396">
        <ele>23.080263</ele>
        <time>2020-07-07T13:45:07Z</time>
      </trkpt>
      <trkpt lat="47.14694" lon="-1.40403">
        <ele>25.001196</ele>
        <time>2020-07-07T13:45:10Z</time>
      </trkpt>
      <trkpt lat="47.14694" lon="-1.40411">
        <ele>24.676195</ele>
        <time>2020-07-07T13:45:13Z</time>
      </trkpt>
      <trkpt lat="47.14693" lon="-1.4042">
        <ele>25.825584</ele>
        <time>2020-07-07T13:45:16Z</time>
      </trkpt>
      <trkpt lat="47.14694" lon="-1.40429">
        <ele>25.693472</ele>
        <time>2020-07-07T13:45:19Z</time>
      </trkpt>
      <trkpt lat="47.14694" lon="-1.40438">
        <ele>25.669691</ele>
        <time>2020-07-07T13:45:22Z</time>
      </trkpt>
      <trkpt lat="47.14695" lon="-1.40447">
        <ele>26.681683</ele>
        <time>2020-07-07T13:45:25Z</time>
      </trkpt>
      <trkpt lat="47.14695" lon="-1.40456">
        <ele>26.768877</ele>
        <time>2020-07-07T13:45:28Z</time>
      </trkpt>
      <trkpt lat="47.14695" lon="-1.40466">
        <ele>26.628836</ele>
        <time>2020-07-07T13:45:31Z</time>
      </trkpt>
      <trkpt lat="47.14694" lon="-1.40475">
        <ele>27.20221</ele>
        <time>2020-07-07T13:45:34Z</time>
      </trkpt>
      <trkpt lat="47.14694" lon="-1.40484">
        <ele>27.71217</ele>
        <time>2020-07-07T13:45:37Z</time>
      </trkpt>
      <trkpt lat="47.14694" lon="-1.40494">
        <ele>27.905054</ele>
        <time>2020-07-07T13:45:40Z</time>
      </trkpt>
      <trkpt lat="47.14695" lon="-1.40503">
        <ele>28.311964</ele>
        <time>2020-07-07T13:45:43Z</time>
      </trkpt>
      <trkpt lat="47.14695" lon="-1.40512">
        <ele>28.924973</ele>
        <time>2020-07-07T13:45:46Z</time>
      </trkpt>
      <trkpt lat="47.14695" lon="-1.4052">
        <ele>28.652819</ele>
        <time>2020-07-07T13:45:49Z</time>
      </trkpt>
      <trkpt lat="47.14697" lon="-1.40529">
        <ele>29.210339</ele>
        <time>2020-07-07T13:45:52Z</time>
      </trkpt>
      <trkpt lat="47.14698" lon="-1.40538">
        <ele>29.884117</ele>
        <time>2020-07-07T13:45:55Z</time>
      </trkpt>
      <trkpt lat="47.147" lon="-1.40546">
        <ele>30.145702</ele>
        <time>2020-07-07T13:45:58Z</time>
      </trkpt>
      <trkpt lat="47.14701" lon="-1.40555">
        <ele>29.535337</ele>
        <time>2020-07-07T13:46:01Z</time>
      </trkpt>
      <trkpt lat="47.14703" lon="-1.40564">
        <ele>31.49062</ele>
        <time>2020-07-07T13:46:04Z</time>
      </trkpt>
      <trkpt lat="47.14705" lon="-1.40573">
        <ele>31.69936</ele>
        <time>2020-07-07T13:46:07Z</time>
      </trkpt>
      <trkpt lat="47.14707" lon="-1.40582">
        <ele>31.065214</ele>
        <time>2020-07-07T13:46:10Z</time>
      </trkpt>
      <trkpt lat="47.14709" lon="-1.40591">
        <ele>31.096922</ele>
        <time>2020-07-07T13:46:13Z</time>
      </trkpt>
      <trkpt lat="47.14711" lon="-1.40601">
        <ele>31.749563</ele>
        <time>2020-07-07T13:46:16Z</time>
      </trkpt>
      <trkpt lat="47.14711" lon="-1.40609">
        <ele>31.704645</ele>
        <time>2020-07-07T13:46:18Z</time>
      </trkpt>
      <trkpt lat="47.14712" lon="-1.40616">
        <ele>31.263386</ele>
        <time>2020-07-07T13:46:20Z</time>
      </trkpt>
      <trkpt lat="47.14713" lon="-1.40623">
        <ele>30.822124</ele>
        <time>2020-07-07T13:46:22Z</time>
      </trkpt>
      <trkpt lat="47.14714" lon="-1.40631">
        <ele>31.672937</ele>
        <time>2020-07-07T13:46:24Z</time>
      </trkpt>
      <trkpt lat="47.14716" lon="-1.40639">
        <ele>31.561962</ele>
        <time>2020-07-07T13:46:26Z</time>
      </trkpt>
      <trkpt lat="47.14718" lon="-1.40647">
        <ele>31.984726</ele>
        <time>2020-07-07T13:46:28Z</time>
      </trkpt>
      <trkpt lat="47.1472" lon="-1.40654">
        <ele>33.506676</ele>
        <time>2020-07-07T13:46:30Z</time>
      </trkpt>
      <trkpt lat="47.14723" lon="-1.40661">
        <ele>31.59367</ele>
        <time>2020-07-07T13:46:32Z</time>
      </trkpt>
      <trkpt lat="47.14725" lon="-1.4067">
        <ele>32.478832</ele>
        <time>2020-07-07T13:46:34Z</time>
      </trkpt>
      <trkpt lat="47.14727" lon="-1.40678">
        <ele>32.322937</ele>
        <time>2020-07-07T13:46:36Z</time>
      </trkpt>
      <trkpt lat="47.14729" lon="-1.40687">
        <ele>32.637367</ele>
        <time>2020-07-07T13:46:38Z</time>
      </trkpt>
      <trkpt lat="47.14731" lon="-1.40697">
        <ele>31.662369</ele>
        <time>2020-07-07T13:46:40Z</time>
      </trkpt>
      <trkpt lat="47.14732" lon="-1.40705">
        <ele>32.846107</ele>
        <time>2020-07-07T13:46:42Z</time>
      </trkpt>
      <trkpt lat="47.14734" lon="-1.40713">
        <ele>31.923954</ele>
        <time>2020-07-07T13:46:44Z</time>
      </trkpt>
      <trkpt lat="47.14738" lon="-1.40722">
        <ele>33.519886</ele>
        <time>2020-07-07T13:46:46Z</time>
      </trkpt>
      <trkpt lat="47.14742" lon="-1.40731">
        <ele>31.189402</ele>
        <time>2020-07-07T13:46:48Z</time>
      </trkpt>
      <trkpt lat="47.14746" lon="-1.40741">
        <ele>31.96623</ele>
        <time>2020-07-07T13:46:50Z</time>
      </trkpt>
      <trkpt lat="47.14751" lon="-1.40751">
        <ele>31.894888</ele>
        <time>2020-07-07T13:46:52Z</time>
      </trkpt>
      <trkpt lat="47.14756" lon="-1.40759">
        <ele>32.740417</ele>
        <time>2020-07-07T13:46:54Z</time>
      </trkpt>
      <trkpt lat="47.14761" lon="-1.40767">
        <ele>31.797125</ele>
        <time>2020-07-07T13:46:56Z</time>
      </trkpt>
      <trkpt lat="47.14766" lon="-1.40775">
        <ele>32.65322</ele>
        <time>2020-07-07T13:46:58Z</time>
      </trkpt>
      <trkpt lat="47.1477" lon="-1.40786">
        <ele>30.518263</ele>
        <time>2020-07-07T13:47:00Z</time>
      </trkpt>
      <trkpt lat="47.14772" lon="-1.40792">
        <ele>32.891026</ele>
        <time>2020-07-07T13:47:01Z</time>
      </trkpt>
      <trkpt lat="47.14777" lon="-1.40802">
        <ele>30.388792</ele>
        <time>2020-07-07T13:47:03Z</time>
      </trkpt>
      <trkpt lat="47.14784" lon="-1.4081">
        <ele>30.018873</ele>
        <time>2020-07-07T13:47:05Z</time>
      </trkpt>
      <trkpt lat="47.14789" lon="-1.40816">
        <ele>31.519686</ele>
        <time>2020-07-07T13:47:07Z</time>
      </trkpt>
      <trkpt lat="47.14794" lon="-1.40824">
        <ele>30.8644</ele>
        <time>2020-07-07T13:47:09Z</time>
      </trkpt>
      <trkpt lat="47.14799" lon="-1.40831">
        <ele>30.042654</ele>
        <time>2020-07-07T13:47:11Z</time>
      </trkpt>
      <trkpt lat="47.14804" lon="-1.40837">
        <ele>31.263386</ele>
        <time>2020-07-07T13:47:13Z</time>
      </trkpt>
      <trkpt lat="47.14811" lon="-1.40841">
        <ele>31.009727</ele>
        <time>2020-07-07T13:47:15Z</time>
      </trkpt>
      <trkpt lat="47.14819" lon="-1.40844">
        <ele>28.72416</ele>
        <time>2020-07-07T13:47:17Z</time>
      </trkpt>
      <trkpt lat="47.14826" lon="-1.40848">
        <ele>29.97924</ele>
        <time>2020-07-07T13:47:19Z</time>
      </trkpt>
      <trkpt lat="47.1483" lon="-1.40852">
        <ele>28.671314</ele>
        <time>2020-07-07T13:48:53Z</time>
      </trkpt>
      <trkpt lat="47.14835" lon="-1.40859">
        <ele>29.32924</ele>
        <time>2020-07-07T13:49:20Z</time>
      </trkpt>
      <trkpt lat="47.1484" lon="-1.40866">
        <ele>29.30546</ele>
        <time>2020-07-07T13:49:22Z</time>
      </trkpt>
      <trkpt lat="47.14846" lon="-1.40874">
        <ele>30.280458</ele>
        <time>2020-07-07T13:49:24Z</time>
      </trkpt>
      <trkpt lat="47.14851" lon="-1.40882">
        <ele>29.191841</ele>
        <time>2020-07-07T13:49:26Z</time>
      </trkpt>
      <trkpt lat="47.14856" lon="-1.40891">
        <ele>29.138996</ele>
        <time>2020-07-07T13:49:28Z</time>
      </trkpt>
      <trkpt lat="47.14862" lon="-1.409">
        <ele>28.636965</ele>
        <time>2020-07-07T13:49:30Z</time>
      </trkpt>
      <trkpt lat="47.14869" lon="-1.40907">
        <ele>29.23412</ele>
        <time>2020-07-07T13:49:32Z</time>
      </trkpt>
      <trkpt lat="47.14875" lon="-1.40915">
        <ele>28.576193</ele>
        <time>2020-07-07T13:49:34Z</time>
      </trkpt>
      <trkpt lat="47.14882" lon="-1.40922">
        <ele>28.01603</ele>
        <time>2020-07-07T13:49:36Z</time>
      </trkpt>
      <trkpt lat="47.14889" lon="-1.40928">
        <ele>28.290827</ele>
        <time>2020-07-07T13:49:38Z</time>
      </trkpt>
      <trkpt lat="47.14897" lon="-1.40935">
        <ele>27.976397</ele>
        <time>2020-07-07T13:49:40Z</time>
      </trkpt>
      <trkpt lat="47.14901" lon="-1.40939">
        <ele>27.881275</ele>
        <time>2020-07-07T13:49:41Z</time>
      </trkpt>
      <trkpt lat="47.14906" lon="-1.40943">
        <ele>27.466436</ele>
        <time>2020-07-07T13:49:42Z</time>
      </trkpt>
      <trkpt lat="47.1491" lon="-1.40946">
        <ele>27.677818</ele>
        <time>2020-07-07T13:49:43Z</time>
      </trkpt>
      <trkpt lat="47.14915" lon="-1.40951">
        <ele>27.152006</ele>
        <time>2020-07-07T13:49:44Z</time>
      </trkpt>
      <trkpt lat="47.14919" lon="-1.40955">
        <ele>27.186356</ele>
        <time>2020-07-07T13:49:45Z</time>
      </trkpt>
      <trkpt lat="47.14923" lon="-1.40961">
        <ele>26.861357</ele>
        <time>2020-07-07T13:49:46Z</time>
      </trkpt>
      <trkpt lat="47.14927" lon="-1.40967">
        <ele>26.697536</ele>
        <time>2020-07-07T13:49:47Z</time>
      </trkpt>
      <trkpt lat="47.14932" lon="-1.40972">
        <ele>26.7266</ele>
        <time>2020-07-07T13:49:48Z</time>
      </trkpt>
      <trkpt lat="47.14936" lon="-1.40978">
        <ele>26.55221</ele>
        <time>2020-07-07T13:49:49Z</time>
      </trkpt>
      <trkpt lat="47.1494" lon="-1.40984">
        <ele>27.01725</ele>
        <time>2020-07-07T13:49:50Z</time>
      </trkpt>
      <trkpt lat="47.14945" lon="-1.4099">
        <ele>26.356682</ele>
        <time>2020-07-07T13:49:51Z</time>
      </trkpt>
      <trkpt lat="47.14949" lon="-1.40995">
        <ele>26.153227</ele>
        <time>2020-07-07T13:49:52Z</time>
      </trkpt>
      <trkpt lat="47.14954" lon="-1.41001">
        <ele>25.503227</ele>
        <time>2020-07-07T13:49:53Z</time>
      </trkpt>
      <trkpt lat="47.14959" lon="-1.41006">
        <ele>25.566643</ele>
        <time>2020-07-07T13:49:54Z</time>
      </trkpt>
      <trkpt lat="47.14964" lon="-1.41011">
        <ele>25.490017</ele>
        <time>2020-07-07T13:49:55Z</time>
      </trkpt>
      <trkpt lat="47.14968" lon="-1.41015">
        <ele>24.636562</ele>
        <time>2020-07-07T13:49:56Z</time>
      </trkpt>
      <trkpt lat="47.14973" lon="-1.41018">
        <ele>25.48209</ele>
        <time>2020-07-07T13:49:57Z</time>
      </trkpt>
      <trkpt lat="47.14978" lon="-1.4102">
        <ele>24.411968</ele>
        <time>2020-07-07T13:49:58Z</time>
      </trkpt>
      <trkpt lat="47.14982" lon="-1.41022">
        <ele>25.363188</ele>
        <time>2020-07-07T13:49:59Z</time>
      </trkpt>
      <trkpt lat="47.14987" lon="-1.41024">
        <ele>24.734325</ele>
        <time>2020-07-07T13:50:00Z</time>
      </trkpt>
      <trkpt lat="47.14992" lon="-1.41025">
        <ele>24.861155</ele>
        <time>2020-07-07T13:50:01Z</time>
      </trkpt>
      <trkpt lat="47.14997" lon="-1.41026">
        <ele>24.70262</ele>
        <time>2020-07-07T13:50:02Z</time>
      </trkpt>
      <trkpt lat="47.15002" lon="-1.41027">
        <ele>23.923147</ele>
        <time>2020-07-07T13:50:03Z</time>
      </trkpt>
      <trkpt lat="47.15007" lon="-1.41028">
        <ele>24.475384</ele>
        <time>2020-07-07T13:50:04Z</time>
      </trkpt>
      <trkpt lat="47.15013" lon="-1.41029">
        <ele>25.027618</ele>
        <time>2020-07-07T13:50:05Z</time>
      </trkpt>
      <trkpt lat="47.15018" lon="-1.41029">
        <ele>25.120098</ele>
        <time>2020-07-07T13:50:06Z</time>
      </trkpt>
      <trkpt lat="47.15023" lon="-1.4103">
        <ele>24.87965</ele>
        <time>2020-07-07T13:50:07Z</time>
      </trkpt>
      <trkpt lat="47.15028" lon="-1.4103">
        <ele>25.024977</ele>
        <time>2020-07-07T13:50:08Z</time>
      </trkpt>
      <trkpt lat="47.15034" lon="-1.41031">
        <ele>24.697334</ele>
        <time>2020-07-07T13:50:09Z</time>
      </trkpt>
      <trkpt lat="47.15039" lon="-1.41033">
        <ele>24.594286</ele>
        <time>2020-07-07T13:50:10Z</time>
      </trkpt>
      <trkpt lat="47.15044" lon="-1.41034">
        <ele>24.562578</ele>
        <time>2020-07-07T13:50:11Z</time>
      </trkpt>
      <trkpt lat="47.15055" lon="-1.41036">
        <ele>24.417253</ele>
        <time>2020-07-07T13:50:13Z</time>
      </trkpt>
      <trkpt lat="47.15061" lon="-1.41039">
        <ele>24.071115</ele>
        <time>2020-07-07T13:50:14Z</time>
      </trkpt>
      <trkpt lat="47.15066" lon="-1.41041">
        <ele>23.178026</ele>
        <time>2020-07-07T13:50:15Z</time>
      </trkpt>
      <trkpt lat="47.15072" lon="-1.41044">
        <ele>23.595507</ele>
        <time>2020-07-07T13:50:16Z</time>
      </trkpt>
      <trkpt lat="47.15078" lon="-1.41046">
        <ele>24.131887</ele>
        <time>2020-07-07T13:50:17Z</time>
      </trkpt>
      <trkpt lat="47.15083" lon="-1.41048">
        <ele>24.803024</ele>
        <time>2020-07-07T13:50:18Z</time>
      </trkpt>
      <trkpt lat="47.15089" lon="-1.4105">
        <ele>24.361765</ele>
        <time>2020-07-07T13:50:19Z</time>
      </trkpt>
      <trkpt lat="47.15094" lon="-1.41052">
        <ele>23.56644</ele>
        <time>2020-07-07T13:50:20Z</time>
      </trkpt>
      <trkpt lat="47.151" lon="-1.41055">
        <ele>23.47396</ele>
        <time>2020-07-07T13:50:21Z</time>
      </trkpt>
      <trkpt lat="47.15107" lon="-1.41057">
        <ele>23.06705</ele>
        <time>2020-07-07T13:50:22Z</time>
      </trkpt>
      <trkpt lat="47.15114" lon="-1.41059">
        <ele>21.925589</ele>
        <time>2020-07-07T13:50:23Z</time>
      </trkpt>
      <trkpt lat="47.1512" lon="-1.41062">
        <ele>21.146118</ele>
        <time>2020-07-07T13:50:24Z</time>
      </trkpt>
      <trkpt lat="47.15126" lon="-1.41065">
        <ele>20.271526</ele>
        <time>2020-07-07T13:50:25Z</time>
      </trkpt>
      <trkpt lat="47.15132" lon="-1.41068">
        <ele>18.054657</ele>
        <time>2020-07-07T13:50:27Z</time>
      </trkpt>
      <trkpt lat="47.15134" lon="-1.41075">
        <ele>18.120714</ele>
        <time>2020-07-07T13:50:29Z</time>
      </trkpt>
      <trkpt lat="47.15136" lon="-1.41084">
        <ele>18.083723</ele>
        <time>2020-07-07T13:50:31Z</time>
      </trkpt>
      <trkpt lat="47.1514" lon="-1.41092">
        <ele>18.678234</ele>
        <time>2020-07-07T13:50:33Z</time>
      </trkpt>
      <trkpt lat="47.15145" lon="-1.41098">
        <ele>18.028234</ele>
        <time>2020-07-07T13:50:35Z</time>
      </trkpt>
      <trkpt lat="47.1515" lon="-1.41106">
        <ele>16.992464</ele>
        <time>2020-07-07T13:50:37Z</time>
      </trkpt>
      <trkpt lat="47.15153" lon="-1.41115">
        <ele>15.599985</ele>
        <time>2020-07-07T13:50:39Z</time>
      </trkpt>
      <trkpt lat="47.15152" lon="-1.41122">
        <ele>16.096733</ele>
        <time>2020-07-07T13:50:41Z</time>
      </trkpt>
      <trkpt lat="47.15151" lon="-1.41112">
        <ele>16.738806</ele>
        <time>2020-07-07T13:50:45Z</time>
      </trkpt>
      <trkpt lat="47.15149" lon="-1.41102">
        <ele>16.870918</ele>
        <time>2020-07-07T13:50:47Z</time>
      </trkpt>
      <trkpt lat="47.15146" lon="-1.41096">
        <ele>17.602829</ele>
        <time>2020-07-07T13:50:49Z</time>
      </trkpt>
      <trkpt lat="47.15141" lon="-1.41092">
        <ele>17.51035</ele>
        <time>2020-07-07T13:50:51Z</time>
      </trkpt>
      <trkpt lat="47.15137" lon="-1.41084">
        <ele>17.800999</ele>
        <time>2020-07-07T13:50:53Z</time>
      </trkpt>
      <trkpt lat="47.15135" lon="-1.41074">
        <ele>17.90669</ele>
        <time>2020-07-07T13:50:55Z</time>
      </trkpt>
      <trkpt lat="47.15136" lon="-1.41066">
        <ele>16.493074</ele>
        <time>2020-07-07T13:50:57Z</time>
      </trkpt>
      <trkpt lat="47.15141" lon="-1.41064">
        <ele>17.248764</ele>
        <time>2020-07-07T13:50:58Z</time>
      </trkpt>
      <trkpt lat="47.15149" lon="-1.41061">
        <ele>15.237993</ele>
        <time>2020-07-07T13:51:00Z</time>
      </trkpt>
      <trkpt lat="47.15155" lon="-1.41055">
        <ele>13.866653</ele>
        <time>2020-07-07T13:51:02Z</time>
      </trkpt>
      <trkpt lat="47.1516" lon="-1.41051">
        <ele>13.457101</ele>
        <time>2020-07-07T13:51:03Z</time>
      </trkpt>
      <trkpt lat="47.15165" lon="-1.41049">
        <ele>12.756899</ele>
        <time>2020-07-07T13:51:04Z</time>
      </trkpt>
      <trkpt lat="47.15171" lon="-1.41047">
        <ele>12.199379</ele>
        <time>2020-07-07T13:51:05Z</time>
      </trkpt>
      <trkpt lat="47.15177" lon="-1.41045">
        <ele>11.438404</ele>
        <time>2020-07-07T13:51:06Z</time>
      </trkpt>
      <trkpt lat="47.15184" lon="-1.41043">
        <ele>11.723769</ele>
        <time>2020-07-07T13:51:07Z</time>
      </trkpt>
      <trkpt lat="47.15191" lon="-1.4104">
        <ele>9.271739</ele>
        <time>2020-07-07T13:51:08Z</time>
      </trkpt>
      <trkpt lat="47.15196" lon="-1.4104">
        <ele>8.44735</ele>
        <time>2020-07-07T13:51:09Z</time>
      </trkpt>
      <trkpt lat="47.15201" lon="-1.41041">
        <ele>7.6810904</ele>
        <time>2020-07-07T13:51:10Z</time>
      </trkpt>
      <trkpt lat="47.15204" lon="-1.4105">
        <ele>5.305686</ele>
        <time>2020-07-07T13:51:12Z</time>
      </trkpt>
      <trkpt lat="47.15204" lon="-1.41061">
        <ele>6.079872</ele>
        <time>2020-07-07T13:51:14Z</time>
      </trkpt>
      <trkpt lat="47.15204" lon="-1.41071">
        <ele>5.5804825</ele>
        <time>2020-07-07T13:51:16Z</time>
      </trkpt>
      <trkpt lat="47.15207" lon="-1.41079">
        <ele>3.9475572</ele>
        <time>2020-07-07T13:51:18Z</time>
      </trkpt>
      <trkpt lat="47.15211" lon="-1.41089">
        <ele>3.1231678</ele>
        <time>2020-07-07T13:51:20Z</time>
      </trkpt>
      <trkpt lat="47.15213" lon="-1.41095">
        <ele>2.6079245</ele>
        <time>2020-07-07T13:51:21Z</time>
      </trkpt>
      <trkpt lat="47.15215" lon="-1.41103">
        <ele>1.2947142</ele>
        <time>2020-07-07T13:51:22Z</time>
      </trkpt>
      <trkpt lat="47.15216" lon="-1.4111">
        <ele>0.6684953</ele>
        <time>2020-07-07T13:51:23Z</time>
      </trkpt>
      <trkpt lat="47.15217" lon="-1.41116">
        <ele>0.43861747</ele>
        <time>2020-07-07T13:51:24Z</time>
      </trkpt>
      <trkpt lat="47.15218" lon="-1.41124">
        <ele>-0.084552765</ele>
        <time>2020-07-07T13:51:25Z</time>
      </trkpt>
      <trkpt lat="47.15218" lon="-1.41132">
        <ele>-1.7439008</ele>
        <time>2020-07-07T13:51:26Z</time>
      </trkpt>
      <trkpt lat="47.15219" lon="-1.41139">
        <ele>-1.7016244</ele>
        <time>2020-07-07T13:51:27Z</time>
      </trkpt>
      <trkpt lat="47.15219" lon="-1.41147">
        <ele>-3.1601596</ele>
        <time>2020-07-07T13:51:28Z</time>
      </trkpt>
      <trkpt lat="47.15219" lon="-1.41154">
        <ele>-3.1601596</ele>
        <time>2020-07-07T13:51:29Z</time>
      </trkpt>
      <trkpt lat="47.15218" lon="-1.41161">
        <ele>-4.402028</ele>
        <time>2020-07-07T13:51:30Z</time>
      </trkpt>
      <trkpt lat="47.15218" lon="-1.41173">
        <ele>-5.9186935</ele>
        <time>2020-07-07T13:51:32Z</time>
      </trkpt>
      <trkpt lat="47.1522" lon="-1.4118">
        <ele>-6.3256035</ele>
        <time>2020-07-07T13:51:34Z</time>
      </trkpt>
      <trkpt lat="47.15224" lon="-1.41184">
        <ele>-6.859343</ele>
        <time>2020-07-07T13:51:36Z</time>
      </trkpt>
      <trkpt lat="47.15227" lon="-1.41195">
        <ele>-7.6731634</ele>
        <time>2020-07-07T13:51:38Z</time>
      </trkpt>
      <trkpt lat="47.15228" lon="-1.41204">
        <ele>-8.132919</ele>
        <time>2020-07-07T13:51:40Z</time>
      </trkpt>
      <trkpt lat="47.15227" lon="-1.41213">
        <ele>-8.106497</ele>
        <time>2020-07-07T13:51:42Z</time>
      </trkpt>
      <trkpt lat="47.15225" lon="-1.41221">
        <ele>-7.641456</ele>
        <time>2020-07-07T13:51:44Z</time>
      </trkpt>
      <trkpt lat="47.15225" lon="-1.41231">
        <ele>-7.9215374</ele>
        <time>2020-07-07T13:51:46Z</time>
      </trkpt>
      <trkpt lat="47.15225" lon="-1.41238">
        <ele>-8.286171</ele>
        <time>2020-07-07T13:51:49Z</time>
      </trkpt>
      <trkpt lat="47.15221" lon="-1.41249">
        <ele>-9.475194</ele>
        <time>2020-07-07T13:51:57Z</time>
      </trkpt>
      <trkpt lat="47.15215" lon="-1.41246">
        <ele>-8.529261</ele>
        <time>2020-07-07T13:52:01Z</time>
      </trkpt>
      <trkpt lat="47.15206" lon="-1.41247">
        <ele>-8.5081215</ele>
        <time>2020-07-07T13:52:03Z</time>
      </trkpt>
      <trkpt lat="47.15201" lon="-1.41247">
        <ele>-7.2345457</ele>
        <time>2020-07-07T13:52:04Z</time>
      </trkpt>
      <trkpt lat="47.15196" lon="-1.41248">
        <ele>-8.449992</ele>
        <time>2020-07-07T13:52:05Z</time>
      </trkpt>
      <trkpt lat="47.15187" lon="-1.41251">
        <ele>-9.189829</ele>
        <time>2020-07-07T13:52:14Z</time>
      </trkpt>
      <trkpt lat="47.15182" lon="-1.41253">
        <ele>-8.323163</ele>
        <time>2020-07-07T13:52:21Z</time>
      </trkpt>
      <trkpt lat="47.15178" lon="-1.41256">
        <ele>-7.3455215</ele>
        <time>2020-07-07T13:52:23Z</time>
      </trkpt>
      <trkpt lat="47.1517" lon="-1.41257">
        <ele>-9.269096</ele>
        <time>2020-07-07T13:52:25Z</time>
      </trkpt>
      <trkpt lat="47.15164" lon="-1.41261">
        <ele>-8.492269</ele>
        <time>2020-07-07T13:52:27Z</time>
      </trkpt>
      <trkpt lat="47.15159" lon="-1.41264">
        <ele>-8.280887</ele>
        <time>2020-07-07T13:52:28Z</time>
      </trkpt>
      <trkpt lat="47.15155" lon="-1.41267">
        <ele>-7.9268217</ele>
        <time>2020-07-07T13:52:29Z</time>
      </trkpt>
      <trkpt lat="47.15148" lon="-1.41272">
        <ele>-7.8105617</ele>
        <time>2020-07-07T13:52:31Z</time>
      </trkpt>
      <trkpt lat="47.15142" lon="-1.41277">
        <ele>-9.073568</ele>
        <time>2020-07-07T13:52:33Z</time>
      </trkpt>
      <trkpt lat="47.15137" lon="-1.4128">
        <ele>-7.4987736</ele>
        <time>2020-07-07T13:52:35Z</time>
      </trkpt>
      <trkpt lat="47.15132" lon="-1.41287">
        <ele>-8.23861</ele>
        <time>2020-07-07T13:52:38Z</time>
      </trkpt>
      <trkpt lat="47.15125" lon="-1.41298">
        <ele>-7.8951144</ele>
        <time>2020-07-07T13:53:11Z</time>
      </trkpt>
      <trkpt lat="47.15122" lon="-1.41304">
        <ele>-8.788203</ele>
        <time>2020-07-07T13:53:19Z</time>
      </trkpt>
      <trkpt lat="47.15119" lon="-1.41309">
        <ele>-8.391862</ele>
        <time>2020-07-07T13:53:21Z</time>
      </trkpt>
      <trkpt lat="47.15114" lon="-1.41316">
        <ele>-8.333732</ele>
        <time>2020-07-07T13:53:23Z</time>
      </trkpt>
      <trkpt lat="47.15109" lon="-1.41319">
        <ele>-7.826415</ele>
        <time>2020-07-07T13:53:25Z</time>
      </trkpt>
      <trkpt lat="47.15101" lon="-1.41328">
        <ele>-9.5914545</ele>
        <time>2020-07-07T13:53:38Z</time>
      </trkpt>
      <trkpt lat="47.15095" lon="-1.41333">
        <ele>-7.509342</ele>
        <time>2020-07-07T13:53:46Z</time>
      </trkpt>
      <trkpt lat="47.15091" lon="-1.41336">
        <ele>-7.3190985</ele>
        <time>2020-07-07T13:53:48Z</time>
      </trkpt>
      <trkpt lat="47.15086" lon="-1.4134">
        <ele>-7.720724</ele>
        <time>2020-07-07T13:53:50Z</time>
      </trkpt>
      <trkpt lat="47.1508" lon="-1.4134">
        <ele>-7.8369846</ele>
        <time>2020-07-07T13:53:52Z</time>
      </trkpt>
      <trkpt lat="47.15075" lon="-1.41341">
        <ele>-7.3243833</ele>
        <time>2020-07-07T13:53:54Z</time>
      </trkpt>
      <trkpt lat="47.15068" lon="-1.41344">
        <ele>-7.7418623</ele>
        <time>2020-07-07T13:53:56Z</time>
      </trkpt>
      <trkpt lat="47.15064" lon="-1.41347">
        <ele>-6.885766</ele>
        <time>2020-07-07T13:53:58Z</time>
      </trkpt>
      <trkpt lat="47.1506" lon="-1.41353">
        <ele>-7.54105</ele>
        <time>2020-07-07T13:54:00Z</time>
      </trkpt>
      <trkpt lat="47.15054" lon="-1.41359">
        <ele>-7.0760098</ele>
        <time>2020-07-07T13:54:05Z</time>
      </trkpt>
      <trkpt lat="47.1505" lon="-1.41366">
        <ele>-7.0548716</ele>
        <time>2020-07-07T13:54:08Z</time>
      </trkpt>
      <trkpt lat="47.15045" lon="-1.41374">
        <ele>-7.3666596</ele>
        <time>2020-07-07T13:54:10Z</time>
      </trkpt>
      <trkpt lat="47.15041" lon="-1.4138">
        <ele>-7.361375</ele>
        <time>2020-07-07T13:54:12Z</time>
      </trkpt>
      <trkpt lat="47.15036" lon="-1.41385">
        <ele>-7.720724</ele>
        <time>2020-07-07T13:54:14Z</time>
      </trkpt>
      <trkpt lat="47.1503" lon="-1.41391">
        <ele>-7.4459276</ele>
        <time>2020-07-07T13:54:17Z</time>
      </trkpt>
      <trkpt lat="47.15025" lon="-1.41396">
        <ele>-7.408936</ele>
        <time>2020-07-07T13:54:19Z</time>
      </trkpt>
      <trkpt lat="47.15021" lon="-1.41401">
        <ele>-7.5991797</ele>
        <time>2020-07-07T13:54:21Z</time>
      </trkpt>
      <trkpt lat="47.15017" lon="-1.41405">
        <ele>-7.097148</ele>
        <time>2020-07-07T13:54:23Z</time>
      </trkpt>
      <trkpt lat="47.15013" lon="-1.4141">
        <ele>-7.54105</ele>
        <time>2020-07-07T13:54:25Z</time>
      </trkpt>
      <trkpt lat="47.15008" lon="-1.41414">
        <ele>-6.885766</ele>
        <time>2020-07-07T13:54:27Z</time>
      </trkpt>
      <trkpt lat="47.15004" lon="-1.41421">
        <ele>-8.16991</ele>
        <time>2020-07-07T13:54:29Z</time>
      </trkpt>
      <trkpt lat="47.15" lon="-1.41431">
        <ele>-7.4776354</ele>
        <time>2020-07-07T13:54:31Z</time>
      </trkpt>
      <trkpt lat="47.14997" lon="-1.41438">
        <ele>-6.7695055</ele>
        <time>2020-07-07T13:54:34Z</time>
      </trkpt>
      <trkpt lat="47.14991" lon="-1.41445">
        <ele>-7.8317</ele>
        <time>2020-07-07T13:54:37Z</time>
      </trkpt>
      <trkpt lat="47.14988" lon="-1.4145">
        <ele>-8.011374</ele>
        <time>2020-07-07T13:54:39Z</time>
      </trkpt>
      <trkpt lat="47.14984" lon="-1.41455">
        <ele>-7.9426756</ele>
        <time>2020-07-07T13:54:41Z</time>
      </trkpt>
      <trkpt lat="47.1498" lon="-1.4146">
        <ele>-7.091863</ele>
        <time>2020-07-07T13:54:43Z</time>
      </trkpt>
      <trkpt lat="47.14975" lon="-1.41468">
        <ele>-7.430074</ele>
        <time>2020-07-07T13:54:45Z</time>
      </trkpt>
      <trkpt lat="47.1497" lon="-1.41473">
        <ele>-7.593895</ele>
        <time>2020-07-07T13:54:48Z</time>
      </trkpt>
      <trkpt lat="47.14964" lon="-1.41475">
        <ele>-6.65853</ele>
        <time>2020-07-07T13:54:51Z</time>
      </trkpt>
      <trkpt lat="47.14957" lon="-1.41477">
        <ele>-6.4471483</ele>
        <time>2020-07-07T13:54:53Z</time>
      </trkpt>
      <trkpt lat="47.14952" lon="-1.41479">
        <ele>-6.283327</ele>
        <time>2020-07-07T13:54:55Z</time>
      </trkpt>
      <trkpt lat="47.14947" lon="-1.41478">
        <ele>-5.654466</ele>
        <time>2020-07-07T13:54:57Z</time>
      </trkpt>
      <trkpt lat="47.14942" lon="-1.41476">
        <ele>-5.7548723</ele>
        <time>2020-07-07T13:54:59Z</time>
      </trkpt>
      <trkpt lat="47.14935" lon="-1.41476">
        <ele>-6.19349</ele>
        <time>2020-07-07T13:55:01Z</time>
      </trkpt>
      <trkpt lat="47.14926" lon="-1.41478">
        <ele>-6.1195064</ele>
        <time>2020-07-07T13:55:15Z</time>
      </trkpt>
      <trkpt lat="47.14921" lon="-1.41478">
        <ele>-6.087799</ele>
        <time>2020-07-07T13:55:19Z</time>
      </trkpt>
      <trkpt lat="47.14918" lon="-1.41471">
        <ele>-5.0678816</ele>
        <time>2020-07-07T13:55:22Z</time>
      </trkpt>
      <trkpt lat="47.14915" lon="-1.41466">
        <ele>-5.2422714</ele>
        <time>2020-07-07T13:55:24Z</time>
      </trkpt>
      <trkpt lat="47.14911" lon="-1.4146">
        <ele>-5.5963364</ele>
        <time>2020-07-07T13:55:26Z</time>
      </trkpt>
      <trkpt lat="47.14909" lon="-1.41454">
        <ele>-4.9146295</ele>
        <time>2020-07-07T13:55:28Z</time>
      </trkpt>
      <trkpt lat="47.14906" lon="-1.41449">
        <ele>-4.4125977</ele>
        <time>2020-07-07T13:55:30Z</time>
      </trkpt>
      <trkpt lat="47.14903" lon="-1.41443">
        <ele>-4.6926785</ele>
        <time>2020-07-07T13:55:32Z</time>
      </trkpt>
      <trkpt lat="47.14901" lon="-1.41438">
        <ele>-3.9475572</ele>
        <time>2020-07-07T13:55:34Z</time>
      </trkpt>
      <trkpt lat="47.14896" lon="-1.41429">
        <ele>-3.4666634</ele>
        <time>2020-07-07T13:55:37Z</time>
      </trkpt>
      <trkpt lat="47.14894" lon="-1.41423">
        <ele>-3.3609724</ele>
        <time>2020-07-07T13:55:39Z</time>
      </trkpt>
      <trkpt lat="47.14892" lon="-1.41418">
        <ele>-3.2869887</ele>
        <time>2020-07-07T13:55:41Z</time>
      </trkpt>
      <trkpt lat="47.1489" lon="-1.41412">
        <ele>-2.3463392</ele>
        <time>2020-07-07T13:55:43Z</time>
      </trkpt>
      <trkpt lat="47.14887" lon="-1.41406">
        <ele>-2.5577211</ele>
        <time>2020-07-07T13:55:45Z</time>
      </trkpt>
      <trkpt lat="47.14884" lon="-1.414">
        <ele>-2.0504045</ele>
        <time>2020-07-07T13:55:47Z</time>
      </trkpt>
      <trkpt lat="47.14882" lon="-1.41394">
        <ele>-1.9975591</ele>
        <time>2020-07-07T13:55:49Z</time>
      </trkpt>
      <trkpt lat="47.14879" lon="-1.41389">
        <ele>-1.4479661</ele>
        <time>2020-07-07T13:55:51Z</time>
      </trkpt>
      <trkpt lat="47.14876" lon="-1.41381">
        <ele>-1.2471533</ele>
        <time>2020-07-07T13:55:54Z</time>
      </trkpt>
      <trkpt lat="47.14872" lon="-1.41374">
        <ele>-0.41747928</ele>
        <time>2020-07-07T13:55:57Z</time>
      </trkpt>
      <trkpt lat="47.14869" lon="-1.41367">
        <ele>0.17439008</ele>
        <time>2020-07-07T13:56:00Z</time>
      </trkpt>
      <trkpt lat="47.14866" lon="-1.41358">
        <ele>0.007926822</ele>
        <time>2020-07-07T13:56:03Z</time>
      </trkpt>
      <trkpt lat="47.14862" lon="-1.41351">
        <ele>0.8613813</ele>
        <time>2020-07-07T13:56:06Z</time>
      </trkpt>
      <trkpt lat="47.14859" lon="-1.41343">
        <ele>1.3290638</ele>
        <time>2020-07-07T13:56:09Z</time>
      </trkpt>
      <trkpt lat="47.14856" lon="-1.41338">
        <ele>1.8548763</ele>
        <time>2020-07-07T13:56:11Z</time>
      </trkpt>
      <trkpt lat="47.14853" lon="-1.4133">
        <ele>1.8839413</ele>
        <time>2020-07-07T13:56:14Z</time>
      </trkpt>
      <trkpt lat="47.1485" lon="-1.41324">
        <ele>2.9699159</ele>
        <time>2020-07-07T13:56:17Z</time>
      </trkpt>
      <trkpt lat="47.14846" lon="-1.41318">
        <ele>3.2077205</ele>
        <time>2020-07-07T13:56:20Z</time>
      </trkpt>
      <trkpt lat="47.14842" lon="-1.41311">
        <ele>3.3715415</ele>
        <time>2020-07-07T13:56:23Z</time>
      </trkpt>
      <trkpt lat="47.14838" lon="-1.41306">
        <ele>3.4006066</ele>
        <time>2020-07-07T13:56:26Z</time>
      </trkpt>
      <trkpt lat="47.14835" lon="-1.413">
        <ele>4.454874</ele>
        <time>2020-07-07T13:56:29Z</time>
      </trkpt>
      <trkpt lat="47.14832" lon="-1.41295">
        <ele>4.1615815</ele>
        <time>2020-07-07T13:56:32Z</time>
      </trkpt>
      <trkpt lat="47.14828" lon="-1.4129">
        <ele>4.6081257</ele>
        <time>2020-07-07T13:56:35Z</time>
      </trkpt>
      <trkpt lat="47.14824" lon="-1.41284">
        <ele>5.295117</ele>
        <time>2020-07-07T13:56:38Z</time>
      </trkpt>
      <trkpt lat="47.14819" lon="-1.4128">
        <ele>5.5593443</ele>
        <time>2020-07-07T13:56:41Z</time>
      </trkpt>
      <trkpt lat="47.14815" lon="-1.41274">
        <ele>6.0930834</ele>
        <time>2020-07-07T13:56:45Z</time>
      </trkpt>
      <trkpt lat="47.14811" lon="-1.41267">
        <ele>6.7113757</ele>
        <time>2020-07-07T13:56:48Z</time>
      </trkpt>
      <trkpt lat="47.14806" lon="-1.41262">
        <ele>6.9095464</ele>
        <time>2020-07-07T13:56:51Z</time>
      </trkpt>
      <trkpt lat="47.148" lon="-1.41258">
        <ele>7.6943016</ele>
        <time>2020-07-07T13:56:54Z</time>
      </trkpt>
      <trkpt lat="47.14795" lon="-1.41255">
        <ele>7.7999926</ele>
        <time>2020-07-07T13:56:57Z</time>
      </trkpt>
      <trkpt lat="47.1479" lon="-1.41251">
        <ele>8.217472</ele>
        <time>2020-07-07T13:57:00Z</time>
      </trkpt>
      <trkpt lat="47.14785" lon="-1.41248">
        <ele>8.370724</ele>
        <time>2020-07-07T13:57:03Z</time>
      </trkpt>
      <trkpt lat="47.14779" lon="-1.41246">
        <ele>8.463203</ele>
        <time>2020-07-07T13:57:07Z</time>
      </trkpt>
      <trkpt lat="47.14774" lon="-1.41243">
        <ele>9.189829</ele>
        <time>2020-07-07T13:57:10Z</time>
      </trkpt>
      <trkpt lat="47.14769" lon="-1.41242">
        <ele>10.244096</ele>
        <time>2020-07-07T13:57:13Z</time>
      </trkpt>
      <trkpt lat="47.14764" lon="-1.41238">
        <ele>10.111982</ele>
        <time>2020-07-07T13:57:17Z</time>
      </trkpt>
      <trkpt lat="47.1476" lon="-1.41237">
        <ele>10.053852</ele>
        <time>2020-07-07T13:57:19Z</time>
      </trkpt>
      <trkpt lat="47.14755" lon="-1.41235">
        <ele>10.687998</ele>
        <time>2020-07-07T13:57:21Z</time>
      </trkpt>
      <trkpt lat="47.1475" lon="-1.41234">
        <ele>11.369704</ele>
        <time>2020-07-07T13:57:24Z</time>
      </trkpt>
      <trkpt lat="47.14745" lon="-1.41233">
        <ele>11.522957</ele>
        <time>2020-07-07T13:57:26Z</time>
      </trkpt>
      <trkpt lat="47.14739" lon="-1.41232">
        <ele>11.200599</ele>
        <time>2020-07-07T13:57:29Z</time>
      </trkpt>
      <trkpt lat="47.14734" lon="-1.41232">
        <ele>12.291859</ele>
        <time>2020-07-07T13:57:32Z</time>
      </trkpt>
      <trkpt lat="47.14728" lon="-1.41232">
        <ele>12.725191</ele>
        <time>2020-07-07T13:57:35Z</time>
      </trkpt>
      <trkpt lat="47.14723" lon="-1.41237">
        <ele>12.772752</ele>
        <time>2020-07-07T13:57:38Z</time>
      </trkpt>
      <trkpt lat="47.14721" lon="-1.41246">
        <ele>12.706696</ele>
        <time>2020-07-07T13:57:41Z</time>
      </trkpt>
      <trkpt lat="47.1472" lon="-1.41255">
        <ele>12.859947</ele>
        <time>2020-07-07T13:57:44Z</time>
      </trkpt>
      <trkpt lat="47.14718" lon="-1.41264">
        <ele>13.272141</ele>
        <time>2020-07-07T13:57:47Z</time>
      </trkpt>
      <trkpt lat="47.14716" lon="-1.41271">
        <ele>13.576003</ele>
        <time>2020-07-07T13:57:50Z</time>
      </trkpt>
      <trkpt lat="47.14714" lon="-1.41279">
        <ele>13.052834</ele>
        <time>2020-07-07T13:57:53Z</time>
      </trkpt>
      <trkpt lat="47.14712" lon="-1.41285">
        <ele>13.430678</ele>
        <time>2020-07-07T13:57:55Z</time>
      </trkpt>
      <trkpt lat="47.1471" lon="-1.41294">
        <ele>14.067467</ele>
        <time>2020-07-07T13:57:58Z</time>
      </trkpt>
      <trkpt lat="47.14708" lon="-1.41303">
        <ele>14.403035</ele>
        <time>2020-07-07T13:58:01Z</time>
      </trkpt>
      <trkpt lat="47.14707" lon="-1.41312">
        <ele>14.9949045</ele>
        <time>2020-07-07T13:58:04Z</time>
      </trkpt>
      <trkpt lat="47.14705" lon="-1.41321">
        <ele>15.510148</ele>
        <time>2020-07-07T13:58:07Z</time>
      </trkpt>
      <trkpt lat="47.147" lon="-1.41325">
        <ele>15.705676</ele>
        <time>2020-07-07T13:58:10Z</time>
      </trkpt>
      <trkpt lat="47.14694" lon="-1.41325">
        <ele>15.74531</ele>
        <time>2020-07-07T13:58:13Z</time>
      </trkpt>
      <trkpt lat="47.14688" lon="-1.41322">
        <ele>16.08088</ele>
        <time>2020-07-07T13:58:16Z</time>
      </trkpt>
      <trkpt lat="47.14682" lon="-1.41322">
        <ele>16.522139</ele>
        <time>2020-07-07T13:58:19Z</time>
      </trkpt>
      <trkpt lat="47.14676" lon="-1.41321">
        <ele>17.412584</ele>
        <time>2020-07-07T13:58:22Z</time>
      </trkpt>
      <trkpt lat="47.14669" lon="-1.41321">
        <ele>17.629251</ele>
        <time>2020-07-07T13:58:25Z</time>
      </trkpt>
      <trkpt lat="47.14665" lon="-1.41321">
        <ele>18.107504</ele>
        <time>2020-07-07T13:58:27Z</time>
      </trkpt>
      <trkpt lat="47.14659" lon="-1.41321">
        <ele>19.328234</ele>
        <time>2020-07-07T13:58:30Z</time>
      </trkpt>
      <trkpt lat="47.14653" lon="-1.41321">
        <ele>19.589819</ele>
        <time>2020-07-07T13:58:33Z</time>
      </trkpt>
      <trkpt lat="47.14647" lon="-1.41323">
        <ele>19.95181</ele>
        <time>2020-07-07T13:58:36Z</time>
      </trkpt>
      <trkpt lat="47.14642" lon="-1.41325">
        <ele>19.201405</ele>
        <time>2020-07-07T13:58:39Z</time>
      </trkpt>
      <trkpt lat="47.14637" lon="-1.41327">
        <ele>20.662582</ele>
        <time>2020-07-07T13:58:42Z</time>
      </trkpt>
      <trkpt lat="47.14632" lon="-1.41331">
        <ele>21.732702</ele>
        <time>2020-07-07T13:58:45Z</time>
      </trkpt>
      <trkpt lat="47.14628" lon="-1.41338">
        <ele>22.456686</ele>
        <time>2020-07-07T13:58:48Z</time>
      </trkpt>
      <trkpt lat="47.14626" lon="-1.41346">
        <ele>22.641645</ele>
        <time>2020-07-07T13:58:51Z</time>
      </trkpt>
      <trkpt lat="47.14624" lon="-1.41355">
        <ele>22.942863</ele>
        <time>2020-07-07T13:58:54Z</time>
      </trkpt>
      <trkpt lat="47.14623" lon="-1.41363">
        <ele>23.22823</ele>
        <time>2020-07-07T13:58:57Z</time>
      </trkpt>
      <trkpt lat="47.14622" lon="-1.41371">
        <ele>23.22823</ele>
        <time>2020-07-07T13:59:00Z</time>
      </trkpt>
      <trkpt lat="47.14621" lon="-1.41379">
        <ele>23.154245</ele>
        <time>2020-07-07T13:59:03Z</time>
      </trkpt>
      <trkpt lat="47.14619" lon="-1.41386">
        <ele>23.674774</ele>
        <time>2020-07-07T13:59:05Z</time>
      </trkpt>
      <trkpt lat="47.14617" lon="-1.41393">
        <ele>23.40262</ele>
        <time>2020-07-07T13:59:07Z</time>
      </trkpt>
      <trkpt lat="47.14615" lon="-1.414">
        <ele>23.510954</ele>
        <time>2020-07-07T13:59:09Z</time>
      </trkpt>
      <trkpt lat="47.14613" lon="-1.41408">
        <ele>23.687986</ele>
        <time>2020-07-07T13:59:11Z</time>
      </trkpt>
      <trkpt lat="47.14611" lon="-1.41415">
        <ele>23.431684</ele>
        <time>2020-07-07T13:59:13Z</time>
      </trkpt>
      <trkpt lat="47.14608" lon="-1.41421">
        <ele>22.742052</ele>
        <time>2020-07-07T13:59:15Z</time>
      </trkpt>
      <trkpt lat="47.14605" lon="-1.41426">
        <ele>22.771116</ele>
        <time>2020-07-07T13:59:17Z</time>
      </trkpt>
      <trkpt lat="47.146" lon="-1.41432">
        <ele>22.927011</ele>
        <time>2020-07-07T13:59:19Z</time>
      </trkpt>
      <trkpt lat="47.14595" lon="-1.41437">
        <ele>23.859734</ele>
        <time>2020-07-07T13:59:21Z</time>
      </trkpt>
      <trkpt lat="47.1459" lon="-1.41441">
        <ele>23.777822</ele>
        <time>2020-07-07T13:59:23Z</time>
      </trkpt>
      <trkpt lat="47.14585" lon="-1.41443">
        <ele>23.455465</ele>
        <time>2020-07-07T13:59:25Z</time>
      </trkpt>
      <trkpt lat="47.14578" lon="-1.41445">
        <ele>23.37884</ele>
        <time>2020-07-07T13:59:28Z</time>
      </trkpt>
      <trkpt lat="47.14574" lon="-1.41447">
        <ele>23.50831</ele>
        <time>2020-07-07T13:59:30Z</time>
      </trkpt>
      <trkpt lat="47.14569" lon="-1.41448">
        <ele>23.452824</ele>
        <time>2020-07-07T13:59:32Z</time>
      </trkpt>
      <trkpt lat="47.14564" lon="-1.41449">
        <ele>23.991848</ele>
        <time>2020-07-07T13:59:34Z</time>
      </trkpt>
      <trkpt lat="47.1456" lon="-1.41449">
        <ele>23.983921</ele>
        <time>2020-07-07T13:59:36Z</time>
      </trkpt>
      <trkpt lat="47.14555" lon="-1.4145">
        <ele>24.515017</ele>
        <time>2020-07-07T13:59:38Z</time>
      </trkpt>
      <trkpt lat="47.1455" lon="-1.4145">
        <ele>25.183512</ele>
        <time>2020-07-07T13:59:40Z</time>
      </trkpt>
      <trkpt lat="47.14546" lon="-1.4145">
        <ele>24.858513</ele>
        <time>2020-07-07T13:59:42Z</time>
      </trkpt>
      <trkpt lat="47.14541" lon="-1.4145">
        <ele>25.545504</ele>
        <time>2020-07-07T13:59:44Z</time>
      </trkpt>
      <trkpt lat="47.14535" lon="-1.4145">
        <ele>25.849365</ele>
        <time>2020-07-07T13:59:47Z</time>
      </trkpt>
      <trkpt lat="47.14529" lon="-1.41449">
        <ele>26.549568</ele>
        <time>2020-07-07T13:59:50Z</time>
      </trkpt>
      <trkpt lat="47.14524" lon="-1.41449">
        <ele>27.360746</ele>
        <time>2020-07-07T13:59:52Z</time>
      </trkpt>
      <trkpt lat="47.1452" lon="-1.41448">
        <ele>26.73981</ele>
        <time>2020-07-07T13:59:54Z</time>
      </trkpt>
      <trkpt lat="47.14515" lon="-1.41448">
        <ele>27.556274</ele>
        <time>2020-07-07T13:59:56Z</time>
      </trkpt>
      <trkpt lat="47.1451" lon="-1.41448">
        <ele>27.508713</ele>
        <time>2020-07-07T13:59:58Z</time>
      </trkpt>
      <trkpt lat="47.14506" lon="-1.41449">
        <ele>28.475786</ele>
        <time>2020-07-07T14:00:00Z</time>
      </trkpt>
      <trkpt lat="47.14502" lon="-1.41452">
        <ele>28.639606</ele>
        <time>2020-07-07T14:00:02Z</time>
      </trkpt>
      <trkpt lat="47.14499" lon="-1.41457">
        <ele>28.985744</ele>
        <time>2020-07-07T14:00:04Z</time>
      </trkpt>
      <trkpt lat="47.14496" lon="-1.41463">
        <ele>30.121922</ele>
        <time>2020-07-07T14:00:06Z</time>
      </trkpt>
      <trkpt lat="47.14494" lon="-1.41471">
        <ele>29.65424</ele>
        <time>2020-07-07T14:00:08Z</time>
      </trkpt>
      <trkpt lat="47.14492" lon="-1.41477">
        <ele>29.461353</ele>
        <time>2020-07-07T14:00:10Z</time>
      </trkpt>
      <trkpt lat="47.14489" lon="-1.41486">
        <ele>29.638386</ele>
        <time>2020-07-07T14:00:13Z</time>
      </trkpt>
      <trkpt lat="47.14486" lon="-1.41493">
        <ele>29.574972</ele>
        <time>2020-07-07T14:00:15Z</time>
      </trkpt>
      <trkpt lat="47.14483" lon="-1.41498">
        <ele>29.331882</ele>
        <time>2020-07-07T14:00:17Z</time>
      </trkpt>
      <trkpt lat="47.14478" lon="-1.41502">
        <ele>30.045296</ele>
        <time>2020-07-07T14:00:19Z</time>
      </trkpt>
      <trkpt lat="47.14474" lon="-1.41504">
        <ele>30.594889</ele>
        <time>2020-07-07T14:00:21Z</time>
      </trkpt>
      <trkpt lat="47.14469" lon="-1.41505">
        <ele>30.06115</ele>
        <time>2020-07-07T14:00:23Z</time>
      </trkpt>
      <trkpt lat="47.14464" lon="-1.41506">
        <ele>30.040012</ele>
        <time>2020-07-07T14:00:25Z</time>
      </trkpt>
      <trkpt lat="47.14459" lon="-1.41506">
        <ele>30.17741</ele>
        <time>2020-07-07T14:00:27Z</time>
      </trkpt>
      <trkpt lat="47.14455" lon="-1.41507">
        <ele>30.719076</ele>
        <time>2020-07-07T14:00:29Z</time>
      </trkpt>
      <trkpt lat="47.1445" lon="-1.41508">
        <ele>30.4205</ele>
        <time>2020-07-07T14:00:31Z</time>
      </trkpt>
      <trkpt lat="47.14445" lon="-1.41508">
        <ele>31.125986</ele>
        <time>2020-07-07T14:00:33Z</time>
      </trkpt>
      <trkpt lat="47.1444" lon="-1.41508">
        <ele>30.57111</ele>
        <time>2020-07-07T14:00:35Z</time>
      </trkpt>
      <trkpt lat="47.14435" lon="-1.41509">
        <ele>31.287165</ele>
        <time>2020-07-07T14:00:37Z</time>
      </trkpt>
      <trkpt lat="47.1443" lon="-1.41509">
        <ele>31.826189</ele>
        <time>2020-07-07T14:00:39Z</time>
      </trkpt>
      <trkpt lat="47.14425" lon="-1.4151">
        <ele>31.26867</ele>
        <time>2020-07-07T14:00:41Z</time>
      </trkpt>
      <trkpt lat="47.1442" lon="-1.41511">
        <ele>31.646515</ele>
        <time>2020-07-07T14:00:43Z</time>
      </trkpt>
      <trkpt lat="47.14415" lon="-1.41512">
        <ele>31.453629</ele>
        <time>2020-07-07T14:00:45Z</time>
      </trkpt>
      <trkpt lat="47.1441" lon="-1.41512">
        <ele>32.05078</ele>
        <time>2020-07-07T14:00:47Z</time>
      </trkpt>
      <trkpt lat="47.14405" lon="-1.41513">
        <ele>32.595093</ele>
        <time>2020-07-07T14:00:49Z</time>
      </trkpt>
      <trkpt lat="47.144" lon="-1.41514">
        <ele>32.505253</ele>
        <time>2020-07-07T14:00:52Z</time>
      </trkpt>
      <trkpt lat="47.14399" lon="-1.41521">
        <ele>32.412773</ele>
        <time>2020-07-07T14:00:55Z</time>
      </trkpt>
      <trkpt lat="47.14399" lon="-1.41528">
        <ele>32.312366</ele>
        <time>2020-07-07T14:00:57Z</time>
      </trkpt>
      <trkpt lat="47.14399" lon="-1.41536">
        <ele>32.225174</ele>
        <time>2020-07-07T14:00:59Z</time>
      </trkpt>
      <trkpt lat="47.14399" lon="-1.41546">
        <ele>32.86196</ele>
        <time>2020-07-07T14:01:02Z</time>
      </trkpt>
      <trkpt lat="47.14399" lon="-1.41553">
        <ele>32.66643</ele>
        <time>2020-07-07T14:01:04Z</time>
      </trkpt>
      <trkpt lat="47.14399" lon="-1.41561">
        <ele>33.02314</ele>
        <time>2020-07-07T14:01:06Z</time>
      </trkpt>
      <trkpt lat="47.14399" lon="-1.41571">
        <ele>32.608303</ele>
        <time>2020-07-07T14:01:09Z</time>
      </trkpt>
      <trkpt lat="47.14399" lon="-1.41581">
        <ele>32.25424</ele>
        <time>2020-07-07T14:01:12Z</time>
      </trkpt>
      <trkpt lat="47.14399" lon="-1.41588">
        <ele>32.40749</ele>
        <time>2020-07-07T14:01:14Z</time>
      </trkpt>
      <trkpt lat="47.14397" lon="-1.41597">
        <ele>32.650578</ele>
        <time>2020-07-07T14:01:17Z</time>
      </trkpt>
      <trkpt lat="47.14394" lon="-1.41602">
        <ele>33.107693</ele>
        <time>2020-07-07T14:01:26Z</time>
      </trkpt>
      <trkpt lat="47.14389" lon="-1.41606">
        <ele>32.100986</ele>
        <time>2020-07-07T14:01:30Z</time>
      </trkpt>
      <trkpt lat="47.14384" lon="-1.41603">
        <ele>32.782692</ele>
        <time>2020-07-07T14:01:32Z</time>
      </trkpt>
      <trkpt lat="47.14379" lon="-1.416">
        <ele>32.264805</ele>
        <time>2020-07-07T14:01:34Z</time>
      </trkpt>
      <trkpt lat="47.14372" lon="-1.41599">
        <ele>31.93188</ele>
        <time>2020-07-07T14:01:36Z</time>
      </trkpt>
      <trkpt lat="47.14365" lon="-1.416">
        <ele>31.974157</ele>
        <time>2020-07-07T14:01:38Z</time>
      </trkpt>
      <trkpt lat="47.14358" lon="-1.41602">
        <ele>32.880455</ele>
        <time>2020-07-07T14:01:40Z</time>
      </trkpt>
      <trkpt lat="47.14351" lon="-1.41603">
        <ele>32.441837</ele>
        <time>2020-07-07T14:01:42Z</time>
      </trkpt>
      <trkpt lat="47.14344" lon="-1.41605">
        <ele>32.029644</ele>
        <time>2020-07-07T14:01:44Z</time>
      </trkpt>
      <trkpt lat="47.14336" lon="-1.41607">
        <ele>31.768059</ele>
        <time>2020-07-07T14:01:46Z</time>
      </trkpt>
      <trkpt lat="47.14329" lon="-1.41609">
        <ele>31.495905</ele>
        <time>2020-07-07T14:01:48Z</time>
      </trkpt>
      <trkpt lat="47.14322" lon="-1.41613">
        <ele>30.99123</ele>
        <time>2020-07-07T14:01:50Z</time>
      </trkpt>
      <trkpt lat="47.14315" lon="-1.41618">
        <ele>29.350378</ele>
        <time>2020-07-07T14:01:52Z</time>
      </trkpt>
      <trkpt lat="47.14308" lon="-1.41624">
        <ele>31.17619</ele>
        <time>2020-07-07T14:01:54Z</time>
      </trkpt>
      <trkpt lat="47.14301" lon="-1.41629">
        <ele>32.011147</ele>
        <time>2020-07-07T14:01:56Z</time>
      </trkpt>
      <trkpt lat="47.14296" lon="-1.41635">
        <ele>31.445702</ele>
        <time>2020-07-07T14:01:58Z</time>
      </trkpt>
      <trkpt lat="47.1429" lon="-1.41641">
        <ele>30.75607</ele>
        <time>2020-07-07T14:02:00Z</time>
      </trkpt>
      <trkpt lat="47.14284" lon="-1.41647">
        <ele>30.39936</ele>
        <time>2020-07-07T14:02:02Z</time>
      </trkpt>
      <trkpt lat="47.14277" lon="-1.41652">
        <ele>31.332085</ele>
        <time>2020-07-07T14:02:04Z</time>
      </trkpt>
      <trkpt lat="47.1427" lon="-1.41657">
        <ele>30.475986</ele>
        <time>2020-07-07T14:02:06Z</time>
      </trkpt>
      <trkpt lat="47.14264" lon="-1.41663">
        <ele>30.88554</ele>
        <time>2020-07-07T14:02:08Z</time>
      </trkpt>
      <trkpt lat="47.14257" lon="-1.41668">
        <ele>29.88676</ele>
        <time>2020-07-07T14:02:10Z</time>
      </trkpt>
      <trkpt lat="47.14252" lon="-1.41672">
        <ele>30.481272</ele>
        <time>2020-07-07T14:02:12Z</time>
      </trkpt>
      <trkpt lat="47.14246" lon="-1.41674">
        <ele>30.988588</ele>
        <time>2020-07-07T14:02:15Z</time>
      </trkpt>
      <trkpt lat="47.14239" lon="-1.41678">
        <ele>29.08351</ele>
        <time>2020-07-07T14:02:18Z</time>
      </trkpt>
      <trkpt lat="47.14232" lon="-1.41682">
        <ele>29.683306</ele>
        <time>2020-07-07T14:02:20Z</time>
      </trkpt>
      <trkpt lat="47.14228" lon="-1.41685">
        <ele>29.06237</ele>
        <time>2020-07-07T14:02:21Z</time>
      </trkpt>
      <trkpt lat="47.14224" lon="-1.41688">
        <ele>27.66725</ele>
        <time>2020-07-07T14:02:22Z</time>
      </trkpt>
      <trkpt lat="47.14219" lon="-1.41691">
        <ele>27.894485</ele>
        <time>2020-07-07T14:02:23Z</time>
      </trkpt>
      <trkpt lat="47.14213" lon="-1.41695">
        <ele>27.791437</ele>
        <time>2020-07-07T14:02:24Z</time>
      </trkpt>
      <trkpt lat="47.14208" lon="-1.41699">
        <ele>27.825787</ele>
        <time>2020-07-07T14:02:25Z</time>
      </trkpt>
      <trkpt lat="47.14201" lon="-1.41704">
        <ele>27.421518</ele>
        <time>2020-07-07T14:02:26Z</time>
      </trkpt>
      <trkpt lat="47.14195" lon="-1.41709">
        <ele>27.270908</ele>
        <time>2020-07-07T14:02:27Z</time>
      </trkpt>
      <trkpt lat="47.14188" lon="-1.41713">
        <ele>27.717453</ele>
        <time>2020-07-07T14:02:28Z</time>
      </trkpt>
      <trkpt lat="47.14181" lon="-1.41719">
        <ele>26.084528</ele>
        <time>2020-07-07T14:02:29Z</time>
      </trkpt>
      <trkpt lat="47.14173" lon="-1.41725">
        <ele>25.52965</ele>
        <time>2020-07-07T14:02:30Z</time>
      </trkpt>
      <trkpt lat="47.14166" lon="-1.41732">
        <ele>24.570505</ele>
        <time>2020-07-07T14:02:31Z</time>
      </trkpt>
      <trkpt lat="47.14158" lon="-1.41739">
        <ele>22.834532</ele>
        <time>2020-07-07T14:02:32Z</time>
      </trkpt>
      <trkpt lat="47.1415" lon="-1.41747">
        <ele>22.517458</ele>
        <time>2020-07-07T14:02:33Z</time>
      </trkpt>
      <trkpt lat="47.1414" lon="-1.41755">
        <ele>20.897745</ele>
        <time>2020-07-07T14:02:34Z</time>
      </trkpt>
      <trkpt lat="47.1413" lon="-1.41763">
        <ele>19.814411</ele>
        <time>2020-07-07T14:02:35Z</time>
      </trkpt>
      <trkpt lat="47.14119" lon="-1.41772">
        <ele>17.851202</ele>
        <time>2020-07-07T14:02:36Z</time>
      </trkpt>
      <trkpt lat="47.14108" lon="-1.4178">
        <ele>15.967261</ele>
        <time>2020-07-07T14:02:37Z</time>
      </trkpt>
      <trkpt lat="47.14097" lon="-1.41791">
        <ele>14.854864</ele>
        <time>2020-07-07T14:02:38Z</time>
      </trkpt>
      <trkpt lat="47.14085" lon="-1.41801">
        <ele>12.52702</ele>
        <time>2020-07-07T14:02:39Z</time>
      </trkpt>
      <trkpt lat="47.14073" lon="-1.41812">
        <ele>11.3749895</ele>
        <time>2020-07-07T14:02:40Z</time>
      </trkpt>
      <trkpt lat="47.14061" lon="-1.41823">
        <ele>8.790845</ele>
        <time>2020-07-07T14:02:41Z</time>
      </trkpt>
      <trkpt lat="47.14048" lon="-1.41833">
        <ele>6.6690993</ele>
        <time>2020-07-07T14:02:42Z</time>
      </trkpt>
      <trkpt lat="47.14035" lon="-1.4184">
        <ele>5.40345</ele>
        <time>2020-07-07T14:02:43Z</time>
      </trkpt>
      <trkpt lat="47.14022" lon="-1.41844">
        <ele>3.1575174</ele>
        <time>2020-07-07T14:02:44Z</time>
      </trkpt>
      <trkpt lat="47.1401" lon="-1.41844">
        <ele>1.1256087</ele>
        <time>2020-07-07T14:02:45Z</time>
      </trkpt>
      <trkpt lat="47.13998" lon="-1.41841">
        <ele>0.76625943</ele>
        <time>2020-07-07T14:02:46Z</time>
      </trkpt>
      <trkpt lat="47.13987" lon="-1.41836">
        <ele>0.20345509</ele>
        <time>2020-07-07T14:02:47Z</time>
      </trkpt>
      <trkpt lat="47.13977" lon="-1.4183">
        <ele>0.192886</ele>
        <time>2020-07-07T14:02:48Z</time>
      </trkpt>
      <trkpt lat="47.13969" lon="-1.41825">
        <ele>-0.71341395</ele>
        <time>2020-07-07T14:02:49Z</time>
      </trkpt>
      <trkpt lat="47.13962" lon="-1.41821">
        <ele>-1.5219498</ele>
        <time>2020-07-07T14:02:50Z</time>
      </trkpt>
      <trkpt lat="47.13957" lon="-1.41818">
        <ele>-2.6264203</ele>
        <time>2020-07-07T14:02:51Z</time>
      </trkpt>
      <trkpt lat="47.1395" lon="-1.41816">
        <ele>-3.752029</ele>
        <time>2020-07-07T14:02:53Z</time>
      </trkpt>
      <trkpt lat="47.13944" lon="-1.41814">
        <ele>-4.6768246</ele>
        <time>2020-07-07T14:02:56Z</time>
      </trkpt>
      <trkpt lat="47.1394" lon="-1.41809">
        <ele>-4.349183</ele>
        <time>2020-07-07T14:02:59Z</time>
      </trkpt>
      <trkpt lat="47.13937" lon="-1.41801">
        <ele>-3.8841426</ele>
        <time>2020-07-07T14:03:02Z</time>
      </trkpt>
      <trkpt lat="47.13933" lon="-1.41796">
        <ele>-3.6886144</ele>
        <time>2020-07-07T14:03:05Z</time>
      </trkpt>
      <trkpt lat="47.13928" lon="-1.41793">
        <ele>-3.4191024</ele>
        <time>2020-07-07T14:03:08Z</time>
      </trkpt>
      <trkpt lat="47.13921" lon="-1.41795">
        <ele>-3.4613788</ele>
        <time>2020-07-07T14:03:10Z</time>
      </trkpt>
      <trkpt lat="47.13912" lon="-1.41794">
        <ele>-3.540647</ele>
        <time>2020-07-07T14:03:12Z</time>
      </trkpt>
      <trkpt lat="47.13904" lon="-1.41792">
        <ele>-4.217069</ele>
        <time>2020-07-07T14:03:14Z</time>
      </trkpt>
      <trkpt lat="47.13899" lon="-1.41791">
        <ele>-4.978044</ele>
        <time>2020-07-07T14:03:15Z</time>
      </trkpt>
      <trkpt lat="47.13894" lon="-1.4179">
        <ele>-5.1365805</ele>
        <time>2020-07-07T14:03:16Z</time>
      </trkpt>
      <trkpt lat="47.13889" lon="-1.41789">
        <ele>-4.7508087</ele>
        <time>2020-07-07T14:03:17Z</time>
      </trkpt>
      <trkpt lat="47.13885" lon="-1.41788">
        <ele>-4.7243857</ele>
        <time>2020-07-07T14:03:18Z</time>
      </trkpt>
      <trkpt lat="47.1388" lon="-1.41788">
        <ele>-4.877638</ele>
        <time>2020-07-07T14:03:19Z</time>
      </trkpt>
      <trkpt lat="47.13875" lon="-1.41787">
        <ele>-5.268694</ele>
        <time>2020-07-07T14:03:20Z</time>
      </trkpt>
      <trkpt lat="47.1387" lon="-1.41786">
        <ele>-5.036174</ele>
        <time>2020-07-07T14:03:21Z</time>
      </trkpt>
      <trkpt lat="47.13865" lon="-1.41785">
        <ele>-4.956906</ele>
        <time>2020-07-07T14:03:22Z</time>
      </trkpt>
      <trkpt lat="47.13861" lon="-1.41781">
        <ele>-5.643897</ele>
        <time>2020-07-07T14:03:23Z</time>
      </trkpt>
      <trkpt lat="47.13857" lon="-1.41776">
        <ele>-5.892271</ele>
        <time>2020-07-07T14:03:24Z</time>
      </trkpt>
      <trkpt lat="47.13854" lon="-1.41772">
        <ele>-5.61219</ele>
        <time>2020-07-07T14:03:25Z</time>
      </trkpt>
      <trkpt lat="47.13847" lon="-1.41765">
        <ele>-5.1735725</ele>
        <time>2020-07-07T14:03:27Z</time>
      </trkpt>
      <trkpt lat="47.1384" lon="-1.41761">
        <ele>-5.07845</ele>
        <time>2020-07-07T14:03:29Z</time>
      </trkpt>
      <trkpt lat="47.13834" lon="-1.41756">
        <ele>-4.9938974</ele>
        <time>2020-07-07T14:03:31Z</time>
      </trkpt>
      <trkpt lat="47.1383" lon="-1.41751">
        <ele>-4.09024</ele>
        <time>2020-07-07T14:03:33Z</time>
      </trkpt>
      <trkpt lat="47.13825" lon="-1.41747">
        <ele>-4.5658493</ele>
        <time>2020-07-07T14:03:35Z</time>
      </trkpt>
      <trkpt lat="47.13818" lon="-1.41743">
        <ele>-5.08902</ele>
        <time>2020-07-07T14:03:37Z</time>
      </trkpt>
      <trkpt lat="47.13812" lon="-1.41736">
        <ele>-5.215849</ele>
        <time>2020-07-07T14:03:39Z</time>
      </trkpt>
      <trkpt lat="47.13807" lon="-1.41731">
        <ele>-5.057312</ele>
        <time>2020-07-07T14:03:41Z</time>
      </trkpt>
      <trkpt lat="47.138" lon="-1.41728">
        <ele>-7.6625943</ele>
        <time>2020-07-07T14:03:43Z</time>
      </trkpt>
      <trkpt lat="47.13792" lon="-1.41723">
        <ele>-6.1882057</ele>
        <time>2020-07-07T14:03:45Z</time>
      </trkpt>
      <trkpt lat="47.13786" lon="-1.41718">
        <ele>-5.6386127</ele>
        <time>2020-07-07T14:03:47Z</time>
      </trkpt>
      <trkpt lat="47.13779" lon="-1.41713">
        <ele>-6.2727585</ele>
        <time>2020-07-07T14:03:49Z</time>
      </trkpt>
      <trkpt lat="47.13771" lon="-1.41709">
        <ele>-5.6967425</ele>
        <time>2020-07-07T14:03:51Z</time>
      </trkpt>
      <trkpt lat="47.13767" lon="-1.41703">
        <ele>-5.295117</ele>
        <time>2020-07-07T14:03:52Z</time>
      </trkpt>
      <trkpt lat="47.13763" lon="-1.41699">
        <ele>-6.1300755</ele>
        <time>2020-07-07T14:03:53Z</time>
      </trkpt>
      <trkpt lat="47.13759" lon="-1.41695">
        <ele>-5.9345474</ele>
        <time>2020-07-07T14:03:54Z</time>
      </trkpt>
      <trkpt lat="47.13751" lon="-1.41688">
        <ele>-5.7971487</ele>
        <time>2020-07-07T14:03:56Z</time>
      </trkpt>
      <trkpt lat="47.13745" lon="-1.41681">
        <ele>-6.13536</ele>
        <time>2020-07-07T14:03:58Z</time>
      </trkpt>
      <trkpt lat="47.13739" lon="-1.41678">
        <ele>-6.621538</ele>
        <time>2020-07-07T14:04:00Z</time>
      </trkpt>
      <trkpt lat="47.13732" lon="-1.41672">
        <ele>-6.8434896</ele>
        <time>2020-07-07T14:04:02Z</time>
      </trkpt>
      <trkpt lat="47.13727" lon="-1.41665">
        <ele>-5.8130026</ele>
        <time>2020-07-07T14:04:04Z</time>
      </trkpt>
      <trkpt lat="47.1372" lon="-1.41659">
        <ele>-5.8288565</ele>
        <time>2020-07-07T14:04:06Z</time>
      </trkpt>
      <trkpt lat="47.13717" lon="-1.41655">
        <ele>-5.7231655</ele>
        <time>2020-07-07T14:04:07Z</time>
      </trkpt>
      <trkpt lat="47.13713" lon="-1.41651">
        <ele>-6.5845466</ele>
        <time>2020-07-07T14:04:08Z</time>
      </trkpt>
      <trkpt lat="47.13709" lon="-1.41646">
        <ele>-6.3837337</ele>
        <time>2020-07-07T14:04:09Z</time>
      </trkpt>
      <trkpt lat="47.13706" lon="-1.41641">
        <ele>-5.8869863</ele>
        <time>2020-07-07T14:04:10Z</time>
      </trkpt>
      <trkpt lat="47.13703" lon="-1.41636">
        <ele>-6.1670675</ele>
        <time>2020-07-07T14:04:11Z</time>
      </trkpt>
      <trkpt lat="47.137" lon="-1.4163">
        <ele>-5.432515</ele>
        <time>2020-07-07T14:04:12Z</time>
      </trkpt>
      <trkpt lat="47.13697" lon="-1.41624">
        <ele>-6.4471483</ele>
        <time>2020-07-07T14:04:13Z</time>
      </trkpt>
      <trkpt lat="47.13692" lon="-1.41613">
        <ele>-6.283327</ele>
        <time>2020-07-07T14:04:15Z</time>
      </trkpt>
      <trkpt lat="47.13688" lon="-1.41603">
        <ele>-6.3308883</ele>
        <time>2020-07-07T14:04:17Z</time>
      </trkpt>
      <trkpt lat="47.13683" lon="-1.41593">
        <ele>-6.156498</ele>
        <time>2020-07-07T14:04:19Z</time>
      </trkpt>
      <trkpt lat="47.13679" lon="-1.41583">
        <ele>-5.8288565</ele>
        <time>2020-07-07T14:04:21Z</time>
      </trkpt>
      <trkpt lat="47.13676" lon="-1.41576">
        <ele>-6.0085306</ele>
        <time>2020-07-07T14:04:22Z</time>
      </trkpt>
      <trkpt lat="47.13673" lon="-1.41569">
        <ele>-5.659751</ele>
        <time>2020-07-07T14:04:23Z</time>
      </trkpt>
      <trkpt lat="47.13668" lon="-1.41559">
        <ele>-5.8077183</ele>
        <time>2020-07-07T14:04:25Z</time>
      </trkpt>
      <trkpt lat="47.13664" lon="-1.41554">
        <ele>-5.992677</ele>
        <time>2020-07-07T14:04:26Z</time>
      </trkpt>
      <trkpt lat="47.1366" lon="-1.4155">
        <ele>-6.1512136</ele>
        <time>2020-07-07T14:04:27Z</time>
      </trkpt>
      <trkpt lat="47.13653" lon="-1.4154">
        <ele>-6.1089373</ele>
        <time>2020-07-07T14:04:29Z</time>
      </trkpt>
      <trkpt lat="47.13649" lon="-1.41535">
        <ele>-5.6016207</ele>
        <time>2020-07-07T14:04:30Z</time>
      </trkpt>
      <trkpt lat="47.13645" lon="-1.41531">
        <ele>-5.8869863</ele>
        <time>2020-07-07T14:04:31Z</time>
      </trkpt>
      <trkpt lat="47.13641" lon="-1.41528">
        <ele>-5.326824</ele>
        <time>2020-07-07T14:04:32Z</time>
      </trkpt>
      <trkpt lat="47.13636" lon="-1.41525">
        <ele>-5.3796697</ele>
        <time>2020-07-07T14:04:33Z</time>
      </trkpt>
      <trkpt lat="47.13632" lon="-1.41523">
        <ele>-6.0243845</ele>
        <time>2020-07-07T14:04:34Z</time>
      </trkpt>
      <trkpt lat="47.13624" lon="-1.41518">
        <ele>-5.4959297</ele>
        <time>2020-07-07T14:04:36Z</time>
      </trkpt>
      <trkpt lat="47.13619" lon="-1.41515">
        <ele>-5.6967425</ele>
        <time>2020-07-07T14:04:37Z</time>
      </trkpt>
      <trkpt lat="47.13613" lon="-1.41513">
        <ele>-6.3995876</ele>
        <time>2020-07-07T14:04:38Z</time>
      </trkpt>
      <trkpt lat="47.13607" lon="-1.41512">
        <ele>-5.3373933</ele>
        <time>2020-07-07T14:04:39Z</time>
      </trkpt>
      <trkpt lat="47.13601" lon="-1.41514">
        <ele>-5.517068</ele>
        <time>2020-07-07T14:04:40Z</time>
      </trkpt>
      <trkpt lat="47.13596" lon="-1.41515">
        <ele>-5.834141</ele>
        <time>2020-07-07T14:04:41Z</time>
      </trkpt>
      <trkpt lat="47.1359" lon="-1.41515">
        <ele>-5.966254</ele>
        <time>2020-07-07T14:04:42Z</time>
      </trkpt>
      <trkpt lat="47.13585" lon="-1.41515">
        <ele>-6.721945</ele>
        <time>2020-07-07T14:04:43Z</time>
      </trkpt>
      <trkpt lat="47.1358" lon="-1.41513">
        <ele>-6.7008066</ele>
        <time>2020-07-07T14:04:44Z</time>
      </trkpt>
      <trkpt lat="47.13575" lon="-1.4151">
        <ele>-6.389018</ele>
        <time>2020-07-07T14:04:45Z</time>
      </trkpt>
      <trkpt lat="47.1357" lon="-1.41507">
        <ele>-6.19349</ele>
        <time>2020-07-07T14:04:46Z</time>
      </trkpt>
      <trkpt lat="47.13565" lon="-1.41503">
        <ele>-6.653246</ele>
        <time>2020-07-07T14:04:47Z</time>
      </trkpt>
      <trkpt lat="47.13561" lon="-1.41498">
        <ele>-6.7906437</ele>
        <time>2020-07-07T14:04:48Z</time>
      </trkpt>
      <trkpt lat="47.13556" lon="-1.41494">
        <ele>-6.4577174</ele>
        <time>2020-07-07T14:04:49Z</time>
      </trkpt>
      <trkpt lat="47.13551" lon="-1.41489">
        <ele>-6.1670675</ele>
        <time>2020-07-07T14:04:50Z</time>
      </trkpt>
      <trkpt lat="47.13545" lon="-1.41485">
        <ele>-6.209344</ele>
        <time>2020-07-07T14:04:51Z</time>
      </trkpt>
      <trkpt lat="47.13541" lon="-1.41481">
        <ele>-6.616254</ele>
        <time>2020-07-07T14:04:52Z</time>
      </trkpt>
      <trkpt lat="47.13536" lon="-1.41478">
        <ele>-6.5581236</ele>
        <time>2020-07-07T14:04:53Z</time>
      </trkpt>
      <trkpt lat="47.13532" lon="-1.41476">
        <ele>-5.84471</ele>
        <time>2020-07-07T14:04:54Z</time>
      </trkpt>
      <trkpt lat="47.13526" lon="-1.41475">
        <ele>-5.628043</ele>
        <time>2020-07-07T14:04:55Z</time>
      </trkpt>
      <trkpt lat="47.13521" lon="-1.41473">
        <ele>-6.441864</ele>
        <time>2020-07-07T14:04:56Z</time>
      </trkpt>
      <trkpt lat="47.13514" lon="-1.41471">
        <ele>-6.6109695</ele>
        <time>2020-07-07T14:04:57Z</time>
      </trkpt>
      <trkpt lat="47.1351" lon="-1.4147">
        <ele>-5.480076</ele>
        <time>2020-07-07T14:04:58Z</time>
      </trkpt>
      <trkpt lat="47.13504" lon="-1.41469">
        <ele>-6.1142216</ele>
        <time>2020-07-07T14:04:59Z</time>
      </trkpt>
      <trkpt lat="47.13499" lon="-1.41468">
        <ele>-6.082515</ele>
        <time>2020-07-07T14:05:00Z</time>
      </trkpt>
      <trkpt lat="47.13493" lon="-1.41467">
        <ele>-6.1512136</ele>
        <time>2020-07-07T14:05:01Z</time>
      </trkpt>
      <trkpt lat="47.13488" lon="-1.41465">
        <ele>-6.36788</ele>
        <time>2020-07-07T14:05:02Z</time>
      </trkpt>
      <trkpt lat="47.1348" lon="-1.41461">
        <ele>-6.8012133</ele>
        <time>2020-07-07T14:05:05Z</time>
      </trkpt>
      <trkpt lat="47.13472" lon="-1.41457">
        <ele>-6.7166605</ele>
        <time>2020-07-07T14:05:07Z</time>
      </trkpt>
      <trkpt lat="47.13467" lon="-1.41455">
        <ele>-6.299181</ele>
        <time>2020-07-07T14:05:08Z</time>
      </trkpt>
      <trkpt lat="47.13463" lon="-1.41453">
        <ele>-6.4312944</ele>
        <time>2020-07-07T14:05:09Z</time>
      </trkpt>
      <trkpt lat="47.13458" lon="-1.41452">
        <ele>-6.5845466</ele>
        <time>2020-07-07T14:05:10Z</time>
      </trkpt>
      <trkpt lat="47.13454" lon="-1.4145">
        <ele>-6.071945</ele>
        <time>2020-07-07T14:05:11Z</time>
      </trkpt>
      <trkpt lat="47.13448" lon="-1.41447">
        <ele>-6.3995876</ele>
        <time>2020-07-07T14:05:12Z</time>
      </trkpt>
      <trkpt lat="47.1344" lon="-1.41442">
        <ele>-5.643897</ele>
        <time>2020-07-07T14:05:14Z</time>
      </trkpt>
      <trkpt lat="47.13436" lon="-1.41438">
        <ele>-7.023164</ele>
        <time>2020-07-07T14:05:15Z</time>
      </trkpt>
      <trkpt lat="47.13432" lon="-1.41435">
        <ele>-6.415441</ele>
        <time>2020-07-07T14:05:16Z</time>
      </trkpt>
      <trkpt lat="47.13425" lon="-1.41431">
        <ele>-6.721945</ele>
        <time>2020-07-07T14:05:18Z</time>
      </trkpt>
      <trkpt lat="47.13419" lon="-1.41426">
        <ele>-7.0020256</ele>
        <time>2020-07-07T14:05:20Z</time>
      </trkpt>
      <trkpt lat="47.13413" lon="-1.41422">
        <ele>-6.156498</ele>
        <time>2020-07-07T14:05:22Z</time>
      </trkpt>
      <trkpt lat="47.13405" lon="-1.41418">
        <ele>-6.938611</ele>
        <time>2020-07-07T14:05:24Z</time>
      </trkpt>
      <trkpt lat="47.13398" lon="-1.41414">
        <ele>-6.0402384</ele>
        <time>2020-07-07T14:05:26Z</time>
      </trkpt>
      <trkpt lat="47.13389" lon="-1.41409">
        <ele>-6.436579</ele>
        <time>2020-07-07T14:05:28Z</time>
      </trkpt>
      <trkpt lat="47.13382" lon="-1.41404">
        <ele>-5.739019</ele>
        <time>2020-07-07T14:05:30Z</time>
      </trkpt>
      <trkpt lat="47.13374" lon="-1.41396">
        <ele>-6.172352</ele>
        <time>2020-07-07T14:05:32Z</time>
      </trkpt>
      <trkpt lat="47.1337" lon="-1.41392">
        <ele>-6.0930834</ele>
        <time>2020-07-07T14:05:33Z</time>
      </trkpt>
      <trkpt lat="47.13366" lon="-1.41388">
        <ele>-6.3414574</ele>
        <time>2020-07-07T14:05:34Z</time>
      </trkpt>
      <trkpt lat="47.13363" lon="-1.41384">
        <ele>-5.5646286</ele>
        <time>2020-07-07T14:05:35Z</time>
      </trkpt>
      <trkpt lat="47.13358" lon="-1.4138">
        <ele>-6.182921</ele>
        <time>2020-07-07T14:05:36Z</time>
      </trkpt>
      <trkpt lat="47.13353" lon="-1.41377">
        <ele>-6.2357664</ele>
        <time>2020-07-07T14:05:37Z</time>
      </trkpt>
      <trkpt lat="47.13349" lon="-1.41375">
        <ele>-6.7695055</ele>
        <time>2020-07-07T14:05:38Z</time>
      </trkpt>
      <trkpt lat="47.13344" lon="-1.41372">
        <ele>-5.6756043</ele>
        <time>2020-07-07T14:05:39Z</time>
      </trkpt>
      <trkpt lat="47.1334" lon="-1.41368">
        <ele>-5.1207266</ele>
        <time>2020-07-07T14:05:40Z</time>
      </trkpt>
      <trkpt lat="47.13336" lon="-1.41365">
        <ele>-6.1300755</ele>
        <time>2020-07-07T14:05:41Z</time>
      </trkpt>
      <trkpt lat="47.13328" lon="-1.41358">
        <ele>-4.7983694</ele>
        <time>2020-07-07T14:05:43Z</time>
      </trkpt>
      <trkpt lat="47.13321" lon="-1.41352">
        <ele>-4.7296705</ele>
        <time>2020-07-07T14:05:45Z</time>
      </trkpt>
      <trkpt lat="47.13315" lon="-1.41348">
        <ele>-5.0308895</ele>
        <time>2020-07-07T14:05:47Z</time>
      </trkpt>
      <trkpt lat="47.13308" lon="-1.41345">
        <ele>-4.2487764</ele>
        <time>2020-07-07T14:05:49Z</time>
      </trkpt>
      <trkpt lat="47.13302" lon="-1.4134">
        <ele>-3.9898336</ele>
        <time>2020-07-07T14:05:51Z</time>
      </trkpt>
      <trkpt lat="47.13295" lon="-1.41336">
        <ele>-3.926419</ele>
        <time>2020-07-07T14:05:53Z</time>
      </trkpt>
      <trkpt lat="47.13287" lon="-1.4133">
        <ele>-4.2857685</ele>
        <time>2020-07-07T14:05:55Z</time>
      </trkpt>
      <trkpt lat="47.1328" lon="-1.41321">
        <ele>-3.9105654</ele>
        <time>2020-07-07T14:05:57Z</time>
      </trkpt>
      <trkpt lat="47.13275" lon="-1.41315">
        <ele>-4.4231663</ele>
        <time>2020-07-07T14:05:59Z</time>
      </trkpt>
      <trkpt lat="47.13269" lon="-1.41311">
        <ele>-3.8471508</ele>
        <time>2020-07-07T14:06:01Z</time>
      </trkpt>
      <trkpt lat="47.13261" lon="-1.41305">
        <ele>-4.3174753</ele>
        <time>2020-07-07T14:06:03Z</time>
      </trkpt>
      <trkpt lat="47.13256" lon="-1.41301">
        <ele>-4.956906</ele>
        <time>2020-07-07T14:06:04Z</time>
      </trkpt>
      <trkpt lat="47.1325" lon="-1.413">
        <ele>-5.945116</ele>
        <time>2020-07-07T14:06:05Z</time>
      </trkpt>
      <trkpt lat="47.13243" lon="-1.41298">
        <ele>-5.062597</ele>
        <time>2020-07-07T14:06:06Z</time>
      </trkpt>
      <trkpt lat="47.13236" lon="-1.41297">
        <ele>-5.659751</ele>
        <time>2020-07-07T14:06:07Z</time>
      </trkpt>
      <trkpt lat="47.1323" lon="-1.41296">
        <ele>-6.6004</ele>
        <time>2020-07-07T14:06:08Z</time>
      </trkpt>
      <trkpt lat="47.13224" lon="-1.41293">
        <ele>-5.163003</ele>
        <time>2020-07-07T14:06:09Z</time>
      </trkpt>
      <trkpt lat="47.1322" lon="-1.41289">
        <ele>-6.315035</ele>
        <time>2020-07-07T14:06:10Z</time>
      </trkpt>
      <trkpt lat="47.13212" lon="-1.41284">
        <ele>-6.4682865</ele>
        <time>2020-07-07T14:06:12Z</time>
      </trkpt>
      <trkpt lat="47.13205" lon="-1.41282">
        <ele>-6.54227</ele>
        <time>2020-07-07T14:06:14Z</time>
      </trkpt>
      <trkpt lat="47.13198" lon="-1.4128">
        <ele>-6.864628</ele>
        <time>2020-07-07T14:06:16Z</time>
      </trkpt>
      <trkpt lat="47.13191" lon="-1.41279">
        <ele>-6.9121885</ele>
        <time>2020-07-07T14:06:18Z</time>
      </trkpt>
      <trkpt lat="47.13186" lon="-1.41279">
        <ele>-6.7166605</ele>
        <time>2020-07-07T14:06:19Z</time>
      </trkpt>
      <trkpt lat="47.13181" lon="-1.41278">
        <ele>-6.758937</ele>
        <time>2020-07-07T14:06:20Z</time>
      </trkpt>
      <trkpt lat="47.13177" lon="-1.41278">
        <ele>-6.3308883</ele>
        <time>2020-07-07T14:06:21Z</time>
      </trkpt>
      <trkpt lat="47.13172" lon="-1.41278">
        <ele>-7.255684</ele>
        <time>2020-07-07T14:06:22Z</time>
      </trkpt>
      <trkpt lat="47.13168" lon="-1.41278">
        <ele>-6.42601</ele>
        <time>2020-07-07T14:06:23Z</time>
      </trkpt>
      <trkpt lat="47.1316" lon="-1.41278">
        <ele>-6.7906437</ele>
        <time>2020-07-07T14:06:25Z</time>
      </trkpt>
      <trkpt lat="47.13155" lon="-1.41278">
        <ele>-7.4776354</ele>
        <time>2020-07-07T14:06:26Z</time>
      </trkpt>
      <trkpt lat="47.13146" lon="-1.41276">
        <ele>-7.7101555</ele>
        <time>2020-07-07T14:06:28Z</time>
      </trkpt>
      <trkpt lat="47.13138" lon="-1.41275">
        <ele>-7.3772287</ele>
        <time>2020-07-07T14:06:30Z</time>
      </trkpt>
      <trkpt lat="47.13129" lon="-1.41274">
        <ele>-6.156498</ele>
        <time>2020-07-07T14:06:32Z</time>
      </trkpt>
      <trkpt lat="47.13121" lon="-1.41272">
        <ele>-6.616254</ele>
        <time>2020-07-07T14:06:34Z</time>
      </trkpt>
      <trkpt lat="47.13113" lon="-1.41271">
        <ele>-6.0455227</ele>
        <time>2020-07-07T14:06:36Z</time>
      </trkpt>
      <trkpt lat="47.13105" lon="-1.4127">
        <ele>-6.1987743</ele>
        <time>2020-07-07T14:06:38Z</time>
      </trkpt>
      <trkpt lat="47.13097" lon="-1.4127">
        <ele>-6.209344</ele>
        <time>2020-07-07T14:06:40Z</time>
      </trkpt>
      <trkpt lat="47.1309" lon="-1.4127">
        <ele>-6.975603</ele>
        <time>2020-07-07T14:06:42Z</time>
      </trkpt>
      <trkpt lat="47.13083" lon="-1.41269">
        <ele>-6.616254</ele>
        <time>2020-07-07T14:06:44Z</time>
      </trkpt>
      <trkpt lat="47.13077" lon="-1.41269">
        <ele>-6.5739775</ele>
        <time>2020-07-07T14:06:46Z</time>
      </trkpt>
      <trkpt lat="47.13071" lon="-1.41269">
        <ele>-6.721945</ele>
        <time>2020-07-07T14:06:48Z</time>
      </trkpt>
      <trkpt lat="47.13066" lon="-1.41268">
        <ele>-6.182921</ele>
        <time>2020-07-07T14:06:50Z</time>
      </trkpt>
      <trkpt lat="47.1306" lon="-1.41267">
        <ele>-6.6321077</ele>
        <time>2020-07-07T14:06:52Z</time>
      </trkpt>
      <trkpt lat="47.13054" lon="-1.41266">
        <ele>-6.082515</ele>
        <time>2020-07-07T14:06:54Z</time>
      </trkpt>
      <trkpt lat="47.13047" lon="-1.41265">
        <ele>-6.42601</ele>
        <time>2020-07-07T14:06:56Z</time>
      </trkpt>
      <trkpt lat="47.13041" lon="-1.41264">
        <ele>-6.515847</ele>
        <time>2020-07-07T14:06:58Z</time>
      </trkpt>
      <trkpt lat="47.13035" lon="-1.41262">
        <ele>-6.7747903</ele>
        <time>2020-07-07T14:07:00Z</time>
      </trkpt>
      <trkpt lat="47.13029" lon="-1.4126">
        <ele>-6.864628</ele>
        <time>2020-07-07T14:07:02Z</time>
      </trkpt>
      <trkpt lat="47.13023" lon="-1.41256">
        <ele>-6.1459293</ele>
        <time>2020-07-07T14:07:04Z</time>
      </trkpt>
      <trkpt lat="47.13016" lon="-1.41253">
        <ele>-6.172352</ele>
        <time>2020-07-07T14:07:06Z</time>
      </trkpt>
      <trkpt lat="47.13009" lon="-1.41252">
        <ele>-6.087799</ele>
        <time>2020-07-07T14:07:08Z</time>
      </trkpt>
      <trkpt lat="47.13004" lon="-1.41254">
        <ele>-6.954465</ele>
        <time>2020-07-07T14:07:10Z</time>
      </trkpt>
      <trkpt lat="47.12998" lon="-1.41254">
        <ele>-6.2569046</ele>
        <time>2020-07-07T14:07:12Z</time>
      </trkpt>
      <trkpt lat="47.12991" lon="-1.41252">
        <ele>-6.3837337</ele>
        <time>2020-07-07T14:07:14Z</time>
      </trkpt>
      <trkpt lat="47.12985" lon="-1.41246">
        <ele>-5.96097</ele>
        <time>2020-07-07T14:07:16Z</time>
      </trkpt>
      <trkpt lat="47.1298" lon="-1.41241">
        <ele>-6.2674737</ele>
        <time>2020-07-07T14:07:18Z</time>
      </trkpt>
      <trkpt lat="47.12975" lon="-1.41237">
        <ele>-6.177636</ele>
        <time>2020-07-07T14:07:20Z</time>
      </trkpt>
      <trkpt lat="47.12967" lon="-1.41234">
        <ele>-6.4101562</ele>
        <time>2020-07-07T14:07:22Z</time>
      </trkpt>
      <trkpt lat="47.12959" lon="-1.41231">
        <ele>-6.6638145</ele>
        <time>2020-07-07T14:07:24Z</time>
      </trkpt>
      <trkpt lat="47.12953" lon="-1.41231">
        <ele>-7.641456</ele>
        <time>2020-07-07T14:07:26Z</time>
      </trkpt>
      <trkpt lat="47.12944" lon="-1.41231">
        <ele>-7.070725</ele>
        <time>2020-07-07T14:07:28Z</time>
      </trkpt>
      <trkpt lat="47.12939" lon="-1.41232">
        <ele>-7.271538</ele>
        <time>2020-07-07T14:07:30Z</time>
      </trkpt>
      <trkpt lat="47.12933" lon="-1.41231">
        <ele>-7.06544</ele>
        <time>2020-07-07T14:07:32Z</time>
      </trkpt>
      <trkpt lat="47.12928" lon="-1.4123">
        <ele>-6.547555</ele>
        <time>2020-07-07T14:07:34Z</time>
      </trkpt>
      <trkpt lat="47.12921" lon="-1.4123">
        <ele>-6.494709</ele>
        <time>2020-07-07T14:07:36Z</time>
      </trkpt>
      <trkpt lat="47.12915" lon="-1.41229">
        <ele>-7.361375</ele>
        <time>2020-07-07T14:07:38Z</time>
      </trkpt>
      <trkpt lat="47.12909" lon="-1.41229">
        <ele>-6.36788</ele>
        <time>2020-07-07T14:07:40Z</time>
      </trkpt>
      <trkpt lat="47.129" lon="-1.4123">
        <ele>-7.0073104</ele>
        <time>2020-07-07T14:07:42Z</time>
      </trkpt>
      <trkpt lat="47.12892" lon="-1.41228">
        <ele>-6.8223515</ele>
        <time>2020-07-07T14:07:44Z</time>
      </trkpt>
      <trkpt lat="47.12885" lon="-1.41228">
        <ele>-7.2345457</ele>
        <time>2020-07-07T14:07:46Z</time>
      </trkpt>
      <trkpt lat="47.12878" lon="-1.41227">
        <ele>-6.917473</ele>
        <time>2020-07-07T14:07:48Z</time>
      </trkpt>
      <trkpt lat="47.12872" lon="-1.41229">
        <ele>-7.165847</ele>
        <time>2020-07-07T14:07:50Z</time>
      </trkpt>
      <trkpt lat="47.12867" lon="-1.41231">
        <ele>-6.943896</ele>
        <time>2020-07-07T14:07:52Z</time>
      </trkpt>
      <trkpt lat="47.12862" lon="-1.41231">
        <ele>-6.526417</ele>
        <time>2020-07-07T14:07:54Z</time>
      </trkpt>
      <trkpt lat="47.12856" lon="-1.4123">
        <ele>-7.023164</ele>
        <time>2020-07-07T14:07:56Z</time>
      </trkpt>
      <trkpt lat="47.12849" lon="-1.41231">
        <ele>-6.4471483</ele>
        <time>2020-07-07T14:07:58Z</time>
      </trkpt>
      <trkpt lat="47.12843" lon="-1.41233">
        <ele>-7.736578</ele>
        <time>2020-07-07T14:08:00Z</time>
      </trkpt>
      <trkpt lat="47.12838" lon="-1.41234">
        <ele>-6.54227</ele>
        <time>2020-07-07T14:08:04Z</time>
      </trkpt>
      <trkpt lat="47.12832" lon="-1.41234">
        <ele>-5.6386127</ele>
        <time>2020-07-07T14:08:07Z</time>
      </trkpt>
      <trkpt lat="47.12824" lon="-1.41237">
        <ele>-6.19349</ele>
        <time>2020-07-07T14:08:10Z</time>
      </trkpt>
      <trkpt lat="47.12819" lon="-1.41238">
        <ele>-6.2463355</ele>
        <time>2020-07-07T14:08:12Z</time>
      </trkpt>
      <trkpt lat="47.12814" lon="-1.41237">
        <ele>-5.876417</ele>
        <time>2020-07-07T14:08:18Z</time>
      </trkpt>
      <trkpt lat="47.12808" lon="-1.41236">
        <ele>-6.320319</ele>
        <time>2020-07-07T14:08:34Z</time>
      </trkpt>
      <trkpt lat="47.12803" lon="-1.41236">
        <ele>-6.209344</ele>
        <time>2020-07-07T14:08:38Z</time>
      </trkpt>
      <trkpt lat="47.12799" lon="-1.41239">
        <ele>-6.209344</ele>
        <time>2020-07-07T14:08:40Z</time>
      </trkpt>
      <trkpt lat="47.12794" lon="-1.41241">
        <ele>-6.182921</ele>
        <time>2020-07-07T14:08:42Z</time>
      </trkpt>
      <trkpt lat="47.12788" lon="-1.41244">
        <ele>-6.2516203</ele>
        <time>2020-07-07T14:08:44Z</time>
      </trkpt>
      <trkpt lat="47.12783" lon="-1.41246">
        <ele>-6.4894247</ele>
        <time>2020-07-07T14:08:46Z</time>
      </trkpt>
      <trkpt lat="47.12778" lon="-1.41249">
        <ele>-6.415441</ele>
        <time>2020-07-07T14:08:48Z</time>
      </trkpt>
      <trkpt lat="47.12771" lon="-1.41251">
        <ele>-6.3256035</ele>
        <time>2020-07-07T14:08:50Z</time>
      </trkpt>
      <trkpt lat="47.12764" lon="-1.41254">
        <ele>-6.262189</ele>
        <time>2020-07-07T14:08:52Z</time>
      </trkpt>
      <trkpt lat="47.12758" lon="-1.41258">
        <ele>-5.945116</ele>
        <time>2020-07-07T14:08:54Z</time>
      </trkpt>
      <trkpt lat="47.1275" lon="-1.41263">
        <ele>-6.1089373</ele>
        <time>2020-07-07T14:08:56Z</time>
      </trkpt>
      <trkpt lat="47.12744" lon="-1.41266">
        <ele>-5.9873924</ele>
        <time>2020-07-07T14:08:57Z</time>
      </trkpt>
      <trkpt lat="47.12738" lon="-1.41269">
        <ele>-5.876417</ele>
        <time>2020-07-07T14:08:58Z</time>
      </trkpt>
      <trkpt lat="47.12733" lon="-1.41273">
        <ele>-6.0613766</ele>
        <time>2020-07-07T14:08:59Z</time>
      </trkpt>
      <trkpt lat="47.12728" lon="-1.41276">
        <ele>-6.4841404</ele>
        <time>2020-07-07T14:09:00Z</time>
      </trkpt>
      <trkpt lat="47.12722" lon="-1.41279">
        <ele>-5.997962</ele>
        <time>2020-07-07T14:09:01Z</time>
      </trkpt>
      <trkpt lat="47.12717" lon="-1.41282">
        <ele>-5.839425</ele>
        <time>2020-07-07T14:09:02Z</time>
      </trkpt>
      <trkpt lat="47.12712" lon="-1.41284">
        <ele>-5.6650352</ele>
        <time>2020-07-07T14:09:03Z</time>
      </trkpt>
      <trkpt lat="47.12708" lon="-1.41286">
        <ele>-6.3414574</ele>
        <time>2020-07-07T14:09:04Z</time>
      </trkpt>
      <trkpt lat="47.12703" lon="-1.41288">
        <ele>-6.124791</ele>
        <time>2020-07-07T14:09:05Z</time>
      </trkpt>
      <trkpt lat="47.12697" lon="-1.41291">
        <ele>-5.4747915</ele>
        <time>2020-07-07T14:09:07Z</time>
      </trkpt>
      <trkpt lat="47.1269" lon="-1.41295">
        <ele>-5.326824</ele>
        <time>2020-07-07T14:09:09Z</time>
      </trkpt>
      <trkpt lat="47.12683" lon="-1.413">
        <ele>-4.861784</ele>
        <time>2020-07-07T14:09:11Z</time>
      </trkpt>
      <trkpt lat="47.12679" lon="-1.41303">
        <ele>-4.8882065</ele>
        <time>2020-07-07T14:09:12Z</time>
      </trkpt>
      <trkpt lat="47.12675" lon="-1.41306">
        <ele>-5.3691006</ele>
        <time>2020-07-07T14:09:13Z</time>
      </trkpt>
      <trkpt lat="47.12668" lon="-1.41311">
        <ele>-5.0414586</ele>
        <time>2020-07-07T14:09:15Z</time>
      </trkpt>
      <trkpt lat="47.12661" lon="-1.41316">
        <ele>-5.07845</ele>
        <time>2020-07-07T14:09:17Z</time>
      </trkpt>
      <trkpt lat="47.12653" lon="-1.41321">
        <ele>-5.411377</ele>
        <time>2020-07-07T14:09:19Z</time>
      </trkpt>
      <trkpt lat="47.12649" lon="-1.41324">
        <ele>-5.633328</ele>
        <time>2020-07-07T14:09:20Z</time>
      </trkpt>
      <trkpt lat="47.12644" lon="-1.41328">
        <ele>-5.633328</ele>
        <time>2020-07-07T14:09:21Z</time>
      </trkpt>
      <trkpt lat="47.12637" lon="-1.41336">
        <ele>-5.532922</ele>
        <time>2020-07-07T14:09:23Z</time>
      </trkpt>
      <trkpt lat="47.12632" lon="-1.4134">
        <ele>-4.8353615</ele>
        <time>2020-07-07T14:09:24Z</time>
      </trkpt>
      <trkpt lat="47.12627" lon="-1.41343">
        <ele>-4.629264</ele>
        <time>2020-07-07T14:09:25Z</time>
      </trkpt>
      <trkpt lat="47.1262" lon="-1.41346">
        <ele>-4.771947</ele>
        <time>2020-07-07T14:09:27Z</time>
      </trkpt>
      <trkpt lat="47.12612" lon="-1.41351">
        <ele>-4.1325164</ele>
        <time>2020-07-07T14:09:29Z</time>
      </trkpt>
      <trkpt lat="47.12607" lon="-1.41358">
        <ele>-5.923978</ele>
        <time>2020-07-07T14:09:30Z</time>
      </trkpt>
      <trkpt lat="47.12603" lon="-1.41363">
        <ele>-6.2251973</ele>
        <time>2020-07-07T14:09:31Z</time>
      </trkpt>
      <trkpt lat="47.126" lon="-1.41368">
        <ele>-5.6967425</ele>
        <time>2020-07-07T14:09:32Z</time>
      </trkpt>
      <trkpt lat="47.12595" lon="-1.41374">
        <ele>-5.32154</ele>
        <time>2020-07-07T14:09:33Z</time>
      </trkpt>
      <trkpt lat="47.1259" lon="-1.41378">
        <ele>-5.712596</ele>
        <time>2020-07-07T14:09:34Z</time>
      </trkpt>
      <trkpt lat="47.12585" lon="-1.41382">
        <ele>-5.5804825</ele>
        <time>2020-07-07T14:09:35Z</time>
      </trkpt>
      <trkpt lat="47.12581" lon="-1.41386">
        <ele>-5.395523</ele>
        <time>2020-07-07T14:09:36Z</time>
      </trkpt>
      <trkpt lat="47.12574" lon="-1.41392">
        <ele>-5.0414586</ele>
        <time>2020-07-07T14:09:38Z</time>
      </trkpt>
      <trkpt lat="47.12569" lon="-1.41395">
        <ele>-5.2792635</ele>
        <time>2020-07-07T14:09:39Z</time>
      </trkpt>
      <trkpt lat="47.12564" lon="-1.41398">
        <ele>-3.9792645</ele>
        <time>2020-07-07T14:09:41Z</time>
      </trkpt>
      <trkpt lat="47.12558" lon="-1.41401">
        <ele>-3.9528418</ele>
        <time>2020-07-07T14:09:43Z</time>
      </trkpt>
      <trkpt lat="47.12553" lon="-1.41404">
        <ele>-4.1430855</ele>
        <time>2020-07-07T14:09:45Z</time>
      </trkpt>
      <trkpt lat="47.12548" lon="-1.41407">
        <ele>-4.0532484</ele>
        <time>2020-07-07T14:09:47Z</time>
      </trkpt>
      <trkpt lat="47.12544" lon="-1.41409">
        <ele>-3.0438995</ele>
        <time>2020-07-07T14:09:49Z</time>
      </trkpt>
      <trkpt lat="47.12539" lon="-1.41412">
        <ele>-2.4943066</ele>
        <time>2020-07-07T14:09:51Z</time>
      </trkpt>
      <trkpt lat="47.12534" lon="-1.41415">
        <ele>-1.2577224</ele>
        <time>2020-07-07T14:09:53Z</time>
      </trkpt>
      <trkpt lat="47.12528" lon="-1.4142">
        <ele>-1.9817054</ele>
        <time>2020-07-07T14:09:56Z</time>
      </trkpt>
      <trkpt lat="47.12524" lon="-1.41426">
        <ele>-2.0979655</ele>
        <time>2020-07-07T14:09:58Z</time>
      </trkpt>
      <trkpt lat="47.1252" lon="-1.41432">
        <ele>-2.8800786</ele>
        <time>2020-07-07T14:10:00Z</time>
      </trkpt>
      <trkpt lat="47.12515" lon="-1.41439">
        <ele>-3.1601596</ele>
        <time>2020-07-07T14:10:02Z</time>
      </trkpt>
      <trkpt lat="47.12512" lon="-1.41446">
        <ele>-3.5089397</ele>
        <time>2020-07-07T14:10:04Z</time>
      </trkpt>
      <trkpt lat="47.12509" lon="-1.41452">
        <ele>-4.2012157</ele>
        <time>2020-07-07T14:10:07Z</time>
      </trkpt>
      <trkpt lat="47.12504" lon="-1.41449">
        <ele>-4.1272316</ele>
        <time>2020-07-07T14:10:14Z</time>
      </trkpt>
      <trkpt lat="47.12502" lon="-1.41455">
        <ele>-4.5658493</ele>
        <time>2020-07-07T14:10:19Z</time>
      </trkpt>
      <trkpt lat="47.12499" lon="-1.41464">
        <ele>-4.38089</ele>
        <time>2020-07-07T14:10:22Z</time>
      </trkpt>
      <trkpt lat="47.12495" lon="-1.41472">
        <ele>-5.07845</ele>
        <time>2020-07-07T14:10:24Z</time>
      </trkpt>
      <trkpt lat="47.12492" lon="-1.4148">
        <ele>-4.5658493</ele>
        <time>2020-07-07T14:10:26Z</time>
      </trkpt>
      <trkpt lat="47.12488" lon="-1.41488">
        <ele>-5.062597</ele>
        <time>2020-07-07T14:10:28Z</time>
      </trkpt>
      <trkpt lat="47.12484" lon="-1.41497">
        <ele>-4.3438983</ele>
        <time>2020-07-07T14:10:30Z</time>
      </trkpt>
      <trkpt lat="47.1248" lon="-1.41507">
        <ele>-4.8882065</ele>
        <time>2020-07-07T14:10:32Z</time>
      </trkpt>
      <trkpt lat="47.12476" lon="-1.41517">
        <ele>-5.2052794</ele>
        <time>2020-07-07T14:10:34Z</time>
      </trkpt>
      <trkpt lat="47.12471" lon="-1.41527">
        <ele>-4.61341</ele>
        <time>2020-07-07T14:10:36Z</time>
      </trkpt>
      <trkpt lat="47.12468" lon="-1.41536">
        <ele>-4.9410524</ele>
        <time>2020-07-07T14:10:38Z</time>
      </trkpt>
      <trkpt lat="47.12464" lon="-1.41545">
        <ele>-5.094304</ele>
        <time>2020-07-07T14:10:40Z</time>
      </trkpt>
      <trkpt lat="47.1246" lon="-1.41553">
        <ele>-5.1947107</ele>
        <time>2020-07-07T14:10:42Z</time>
      </trkpt>
      <trkpt lat="47.12457" lon="-1.41562">
        <ele>-5.215849</ele>
        <time>2020-07-07T14:10:44Z</time>
      </trkpt>
      <trkpt lat="47.12453" lon="-1.4157">
        <ele>-5.289832</ele>
        <time>2020-07-07T14:10:46Z</time>
      </trkpt>
      <trkpt lat="47.12448" lon="-1.41579">
        <ele>-5.6650352</ele>
        <time>2020-07-07T14:10:48Z</time>
      </trkpt>
      <trkpt lat="47.12444" lon="-1.41588">
        <ele>-4.7613773</ele>
        <time>2020-07-07T14:10:50Z</time>
      </trkpt>
      <trkpt lat="47.12439" lon="-1.41596">
        <ele>-5.104873</ele>
        <time>2020-07-07T14:10:52Z</time>
      </trkpt>
      <trkpt lat="47.12434" lon="-1.41604">
        <ele>-4.756093</ele>
        <time>2020-07-07T14:10:54Z</time>
      </trkpt>
      <trkpt lat="47.12428" lon="-1.41611">
        <ele>-4.9251986</ele>
        <time>2020-07-07T14:10:56Z</time>
      </trkpt>
      <trkpt lat="47.12422" lon="-1.41618">
        <ele>-4.824792</ele>
        <time>2020-07-07T14:10:58Z</time>
      </trkpt>
      <trkpt lat="47.12416" lon="-1.41626">
        <ele>-5.316255</ele>
        <time>2020-07-07T14:11:00Z</time>
      </trkpt>
      <trkpt lat="47.12412" lon="-1.4163">
        <ele>-5.9873924</ele>
        <time>2020-07-07T14:11:01Z</time>
      </trkpt>
      <trkpt lat="47.12407" lon="-1.4164">
        <ele>-4.9093447</ele>
        <time>2020-07-07T14:11:03Z</time>
      </trkpt>
      <trkpt lat="47.12403" lon="-1.41649">
        <ele>-4.9093447</ele>
        <time>2020-07-07T14:11:05Z</time>
      </trkpt>
      <trkpt lat="47.12399" lon="-1.41658">
        <ele>-5.966254</ele>
        <time>2020-07-07T14:11:07Z</time>
      </trkpt>
      <trkpt lat="47.12394" lon="-1.41666">
        <ele>-5.527637</ele>
        <time>2020-07-07T14:11:09Z</time>
      </trkpt>
      <trkpt lat="47.12391" lon="-1.41676">
        <ele>-4.7878003</ele>
        <time>2020-07-07T14:11:11Z</time>
      </trkpt>
      <trkpt lat="47.12387" lon="-1.41684">
        <ele>-4.766662</ele>
        <time>2020-07-07T14:11:13Z</time>
      </trkpt>
      <trkpt lat="47.12384" lon="-1.41692">
        <ele>-5.289832</ele>
        <time>2020-07-07T14:11:15Z</time>
      </trkpt>
      <trkpt lat="47.12382" lon="-1.41701">
        <ele>-5.0678816</ele>
        <time>2020-07-07T14:11:17Z</time>
      </trkpt>
      <trkpt lat="47.12382" lon="-1.41709">
        <ele>-4.9357677</ele>
        <time>2020-07-07T14:11:19Z</time>
      </trkpt>
      <trkpt lat="47.12382" lon="-1.41718">
        <ele>-4.5499954</ele>
        <time>2020-07-07T14:11:21Z</time>
      </trkpt>
      <trkpt lat="47.12383" lon="-1.41725">
        <ele>-5.400808</ele>
        <time>2020-07-07T14:11:23Z</time>
      </trkpt>
      <trkpt lat="47.12384" lon="-1.41732">
        <ele>-4.3914595</ele>
        <time>2020-07-07T14:11:25Z</time>
      </trkpt>
      <trkpt lat="47.12388" lon="-1.41737">
        <ele>-4.978044</ele>
        <time>2020-07-07T14:11:28Z</time>
      </trkpt>
      <trkpt lat="47.12383" lon="-1.41739">
        <ele>-4.9146295</ele>
        <time>2020-07-07T14:16:15Z</time>
      </trkpt>
      <trkpt lat="47.12386" lon="-1.41744">
        <ele>-4.9199142</ele>
        <time>2020-07-07T14:18:02Z</time>
      </trkpt>
      <trkpt lat="47.12389" lon="-1.41739">
        <ele>-4.745524</ele>
        <time>2020-07-07T14:19:00Z</time>
      </trkpt>
      <trkpt lat="47.12385" lon="-1.41746">
        <ele>-3.4455252</ele>
        <time>2020-07-07T14:20:58Z</time>
      </trkpt>
      <trkpt lat="47.1238" lon="-1.41754">
        <ele>-4.55528</ele>
        <time>2020-07-07T14:21:00Z</time>
      </trkpt>
      <trkpt lat="47.12375" lon="-1.41762">
        <ele>-2.594713</ele>
        <time>2020-07-07T14:21:02Z</time>
      </trkpt>
      <trkpt lat="47.12371" lon="-1.41771">
        <ele>-4.243492</ele>
        <time>2020-07-07T14:21:04Z</time>
      </trkpt>
      <trkpt lat="47.12369" lon="-1.41778">
        <ele>-4.7613773</ele>
        <time>2020-07-07T14:21:06Z</time>
      </trkpt>
      <trkpt lat="47.12365" lon="-1.41783">
        <ele>-5.628043</ele>
        <time>2020-07-07T14:21:08Z</time>
      </trkpt>
      <trkpt lat="47.12361" lon="-1.41789">
        <ele>-4.291053</ele>
        <time>2020-07-07T14:21:10Z</time>
      </trkpt>
      <trkpt lat="47.12357" lon="-1.41796">
        <ele>-4.6556864</ele>
        <time>2020-07-07T14:21:12Z</time>
      </trkpt>
      <trkpt lat="47.12353" lon="-1.41803">
        <ele>-4.666256</ele>
        <time>2020-07-07T14:21:14Z</time>
      </trkpt>
      <trkpt lat="47.12348" lon="-1.41809">
        <ele>-4.2804837</ele>
        <time>2020-07-07T14:21:16Z</time>
      </trkpt>
      <trkpt lat="47.12343" lon="-1.41814">
        <ele>-4.03211</ele>
        <time>2020-07-07T14:21:18Z</time>
      </trkpt>
      <trkpt lat="47.12338" lon="-1.41819">
        <ele>-4.32276</ele>
        <time>2020-07-07T14:21:20Z</time>
      </trkpt>
      <trkpt lat="47.12332" lon="-1.41823">
        <ele>-3.5036552</ele>
        <time>2020-07-07T14:21:22Z</time>
      </trkpt>
      <trkpt lat="47.12326" lon="-1.41828">
        <ele>-3.493086</ele>
        <time>2020-07-07T14:21:24Z</time>
      </trkpt>
      <trkpt lat="47.1232" lon="-1.41833">
        <ele>-3.7573135</ele>
        <time>2020-07-07T14:21:26Z</time>
      </trkpt>
      <trkpt lat="47.12312" lon="-1.41838">
        <ele>-5.61219</ele>
        <time>2020-07-07T14:21:28Z</time>
      </trkpt>
      <trkpt lat="47.12307" lon="-1.41842">
        <ele>-5.5646286</ele>
        <time>2020-07-07T14:21:29Z</time>
      </trkpt>
      <trkpt lat="47.123" lon="-1.41847">
        <ele>-5.1947107</ele>
        <time>2020-07-07T14:21:31Z</time>
      </trkpt>
      <trkpt lat="47.12296" lon="-1.4185">
        <ele>-3.8365817</ele>
        <time>2020-07-07T14:21:32Z</time>
      </trkpt>
      <trkpt lat="47.12289" lon="-1.41853">
        <ele>-6.1670675</ele>
        <time>2020-07-07T14:21:34Z</time>
      </trkpt>
      <trkpt lat="47.12283" lon="-1.41855">
        <ele>-6.1195064</ele>
        <time>2020-07-07T14:21:36Z</time>
      </trkpt>
      <trkpt lat="47.12277" lon="-1.41854">
        <ele>-5.9081244</ele>
        <time>2020-07-07T14:21:38Z</time>
      </trkpt>
      <trkpt lat="47.12269" lon="-1.41853">
        <ele>-5.585767</ele>
        <time>2020-07-07T14:21:40Z</time>
      </trkpt>
      <trkpt lat="47.12264" lon="-1.41854">
        <ele>-4.3438983</ele>
        <time>2020-07-07T14:21:41Z</time>
      </trkpt>
      <trkpt lat="47.12257" lon="-1.41856">
        <ele>-4.43902</ele>
        <time>2020-07-07T14:21:43Z</time>
      </trkpt>
      <trkpt lat="47.12249" lon="-1.41858">
        <ele>-4.3756056</ele>
        <time>2020-07-07T14:21:45Z</time>
      </trkpt>
      <trkpt lat="47.12243" lon="-1.41857">
        <ele>-4.618695</ele>
        <time>2020-07-07T14:21:47Z</time>
      </trkpt>
      <trkpt lat="47.12236" lon="-1.41854">
        <ele>-4.169508</ele>
        <time>2020-07-07T14:21:49Z</time>
      </trkpt>
      <trkpt lat="47.12231" lon="-1.41851">
        <ele>-3.878858</ele>
        <time>2020-07-07T14:21:50Z</time>
      </trkpt>
      <trkpt lat="47.12226" lon="-1.41849">
        <ele>-5.5910516</ele>
        <time>2020-07-07T14:21:51Z</time>
      </trkpt>
      <trkpt lat="47.12218" lon="-1.41846">
        <ele>-4.063817</ele>
        <time>2020-07-07T14:21:53Z</time>
      </trkpt>
      <trkpt lat="47.12214" lon="-1.41843">
        <ele>-5.7812953</ele>
        <time>2020-07-07T14:21:54Z</time>
      </trkpt>
      <trkpt lat="47.12206" lon="-1.41838">
        <ele>-4.402028</ele>
        <time>2020-07-07T14:21:56Z</time>
      </trkpt>
      <trkpt lat="47.12201" lon="-1.41835">
        <ele>-3.9052808</ele>
        <time>2020-07-07T14:21:57Z</time>
      </trkpt>
      <trkpt lat="47.12195" lon="-1.41831">
        <ele>-4.5658493</ele>
        <time>2020-07-07T14:21:59Z</time>
      </trkpt>
      <trkpt lat="47.12189" lon="-1.4183">
        <ele>-4.872353</ele>
        <time>2020-07-07T14:22:01Z</time>
      </trkpt>
      <trkpt lat="47.12182" lon="-1.41824">
        <ele>-4.967475</ele>
        <time>2020-07-07T14:22:03Z</time>
      </trkpt>
      <trkpt lat="47.12176" lon="-1.41818">
        <ele>-4.2065</ele>
        <time>2020-07-07T14:22:05Z</time>
      </trkpt>
      <trkpt lat="47.1217" lon="-1.41811">
        <ele>-3.7308908</ele>
        <time>2020-07-07T14:22:07Z</time>
      </trkpt>
      <trkpt lat="47.12165" lon="-1.41805">
        <ele>-5.992677</ele>
        <time>2020-07-07T14:22:09Z</time>
      </trkpt>
      <trkpt lat="47.12162" lon="-1.41798">
        <ele>-4.7878003</ele>
        <time>2020-07-07T14:22:11Z</time>
      </trkpt>
      <trkpt lat="47.1216" lon="-1.4179">
        <ele>-5.527637</ele>
        <time>2020-07-07T14:22:13Z</time>
      </trkpt>
      <trkpt lat="47.12158" lon="-1.41784">
        <ele>-4.5869875</ele>
        <time>2020-07-07T14:22:15Z</time>
      </trkpt>
      <trkpt lat="47.12153" lon="-1.41777">
        <ele>-2.1191037</ele>
        <time>2020-07-07T14:22:18Z</time>
      </trkpt>
      <trkpt lat="47.12146" lon="-1.41773">
        <ele>-3.9792645</ele>
        <time>2020-07-07T14:22:20Z</time>
      </trkpt>
      <trkpt lat="47.12142" lon="-1.4177">
        <ele>-2.208941</ele>
        <time>2020-07-07T14:22:21Z</time>
      </trkpt>
      <trkpt lat="47.12135" lon="-1.41767">
        <ele>-3.249997</ele>
        <time>2020-07-07T14:22:23Z</time>
      </trkpt>
      <trkpt lat="47.1213" lon="-1.41762">
        <ele>-2.4837375</ele>
        <time>2020-07-07T14:22:26Z</time>
      </trkpt>
      <trkpt lat="47.12125" lon="-1.41757">
        <ele>-3.1337368</ele>
        <time>2020-07-07T14:22:28Z</time>
      </trkpt>
      <trkpt lat="47.1212" lon="-1.41754">
        <ele>-3.0597532</ele>
        <time>2020-07-07T14:22:31Z</time>
      </trkpt>
      <trkpt lat="47.12116" lon="-1.41752">
        <ele>-4.851215</ele>
        <time>2020-07-07T14:22:34Z</time>
      </trkpt>
      <trkpt lat="47.12111" lon="-1.41751">
        <ele>-3.308127</ele>
        <time>2020-07-07T14:22:40Z</time>
      </trkpt>
      <trkpt lat="47.12106" lon="-1.41752">
        <ele>-5.295117</ele>
        <time>2020-07-07T14:22:51Z</time>
      </trkpt>
      <trkpt lat="47.12101" lon="-1.41752">
        <ele>-4.777231</ele>
        <time>2020-07-07T14:22:54Z</time>
      </trkpt>
      <trkpt lat="47.12095" lon="-1.41752">
        <ele>-4.6081257</ele>
        <time>2020-07-07T14:22:58Z</time>
      </trkpt>
      <trkpt lat="47.12091" lon="-1.41754">
        <ele>-3.202436</ele>
        <time>2020-07-07T14:23:10Z</time>
      </trkpt>
      <trkpt lat="47.12086" lon="-1.41753">
        <ele>-5.7231655</ele>
        <time>2020-07-07T14:23:15Z</time>
      </trkpt>
      <trkpt lat="47.12081" lon="-1.4175">
        <ele>-6.1142216</ele>
        <time>2020-07-07T14:23:17Z</time>
      </trkpt>
      <trkpt lat="47.12077" lon="-1.41746">
        <ele>-4.9621906</ele>
        <time>2020-07-07T14:23:20Z</time>
      </trkpt>
      <trkpt lat="47.12075" lon="-1.41739">
        <ele>-4.1536546</ele>
        <time>2020-07-07T14:23:29Z</time>
      </trkpt>
      <trkpt lat="47.12073" lon="-1.41733">
        <ele>-4.3069067</ele>
        <time>2020-07-07T14:23:41Z</time>
      </trkpt>
      <trkpt lat="47.12071" lon="-1.41727">
        <ele>-4.6979628</ele>
        <time>2020-07-07T14:23:49Z</time>
      </trkpt>
      <trkpt lat="47.12064" lon="-1.41725">
        <ele>-4.7983694</ele>
        <time>2020-07-07T14:23:52Z</time>
      </trkpt>
      <trkpt lat="47.1206" lon="-1.41718">
        <ele>-4.2593455</ele>
        <time>2020-07-07T14:23:54Z</time>
      </trkpt>
      <trkpt lat="47.12054" lon="-1.41713">
        <ele>-4.8300767</ele>
        <time>2020-07-07T14:23:57Z</time>
      </trkpt>
      <trkpt lat="47.1205" lon="-1.41713">
        <ele>-5.55406</ele>
        <time>2020-07-07T14:23:59Z</time>
      </trkpt>
      <trkpt lat="47.12045" lon="-1.41712">
        <ele>-5.163003</ele>
        <time>2020-07-07T14:24:01Z</time>
      </trkpt>
      <trkpt lat="47.1204" lon="-1.4171">
        <ele>-4.988613</ele>
        <time>2020-07-07T14:24:03Z</time>
      </trkpt>
      <trkpt lat="47.12033" lon="-1.4171">
        <ele>-6.0032463</ele>
        <time>2020-07-07T14:24:05Z</time>
      </trkpt>
      <trkpt lat="47.12028" lon="-1.41708">
        <ele>-5.501214</ele>
        <time>2020-07-07T14:24:07Z</time>
      </trkpt>
      <trkpt lat="47.12021" lon="-1.41707">
        <ele>-4.983329</ele>
        <time>2020-07-07T14:24:10Z</time>
      </trkpt>
      <trkpt lat="47.12014" lon="-1.41706">
        <ele>-5.374385</ele>
        <time>2020-07-07T14:24:13Z</time>
      </trkpt>
      <trkpt lat="47.12006" lon="-1.41706">
        <ele>-5.427231</ele>
        <time>2020-07-07T14:24:15Z</time>
      </trkpt>
      <trkpt lat="47.12" lon="-1.41708">
        <ele>-4.4601583</ele>
        <time>2020-07-07T14:24:17Z</time>
      </trkpt>
      <trkpt lat="47.11993" lon="-1.4171">
        <ele>-6.54227</ele>
        <time>2020-07-07T14:24:19Z</time>
      </trkpt>
      <trkpt lat="47.11987" lon="-1.41712">
        <ele>-4.296337</ele>
        <time>2020-07-07T14:24:21Z</time>
      </trkpt>
      <trkpt lat="47.1198" lon="-1.41712">
        <ele>-6.029669</ele>
        <time>2020-07-07T14:24:23Z</time>
      </trkpt>
      <trkpt lat="47.11972" lon="-1.41712">
        <ele>-7.504058</ele>
        <time>2020-07-07T14:24:25Z</time>
      </trkpt>
      <trkpt lat="47.11964" lon="-1.41711">
        <ele>-4.2593455</ele>
        <time>2020-07-07T14:24:27Z</time>
      </trkpt>
      <trkpt lat="47.11958" lon="-1.41711">
        <ele>-5.289832</ele>
        <time>2020-07-07T14:24:29Z</time>
      </trkpt>
      <trkpt lat="47.11952" lon="-1.41712">
        <ele>-5.9081244</ele>
        <time>2020-07-07T14:24:31Z</time>
      </trkpt>
      <trkpt lat="47.11942" lon="-1.41711">
        <ele>-5.427231</ele>
        <time>2020-07-07T14:24:34Z</time>
      </trkpt>
      <trkpt lat="47.11934" lon="-1.41708">
        <ele>-5.633328</ele>
        <time>2020-07-07T14:24:36Z</time>
      </trkpt>
      <trkpt lat="47.1193" lon="-1.41708">
        <ele>-4.433736</ele>
        <time>2020-07-07T14:24:37Z</time>
      </trkpt>
      <trkpt lat="47.11923" lon="-1.41711">
        <ele>-5.189426</ele>
        <time>2020-07-07T14:24:39Z</time>
      </trkpt>
      <trkpt lat="47.11915" lon="-1.41711">
        <ele>-4.312191</ele>
        <time>2020-07-07T14:24:41Z</time>
      </trkpt>
      <trkpt lat="47.11908" lon="-1.41711">
        <ele>-5.7971487</ele>
        <time>2020-07-07T14:24:43Z</time>
      </trkpt>
      <trkpt lat="47.119" lon="-1.41711">
        <ele>-4.9410524</ele>
        <time>2020-07-07T14:24:45Z</time>
      </trkpt>
      <trkpt lat="47.11896" lon="-1.41709">
        <ele>-6.278043</ele>
        <time>2020-07-07T14:24:46Z</time>
      </trkpt>
      <trkpt lat="47.11889" lon="-1.41706">
        <ele>-5.517068</ele>
        <time>2020-07-07T14:24:48Z</time>
      </trkpt>
      <trkpt lat="47.11881" lon="-1.41702">
        <ele>-5.0203204</ele>
        <time>2020-07-07T14:24:50Z</time>
      </trkpt>
      <trkpt lat="47.11873" lon="-1.41699">
        <ele>-5.1947107</ele>
        <time>2020-07-07T14:24:52Z</time>
      </trkpt>
      <trkpt lat="47.11868" lon="-1.41699">
        <ele>-4.4231663</ele>
        <time>2020-07-07T14:24:53Z</time>
      </trkpt>
      <trkpt lat="47.11863" lon="-1.41699">
        <ele>-4.291053</ele>
        <time>2020-07-07T14:24:54Z</time>
      </trkpt>
      <trkpt lat="47.11857" lon="-1.417">
        <ele>-5.3479624</ele>
        <time>2020-07-07T14:24:56Z</time>
      </trkpt>
      <trkpt lat="47.11851" lon="-1.41704">
        <ele>-4.312191</ele>
        <time>2020-07-07T14:24:58Z</time>
      </trkpt>
      <trkpt lat="47.11845" lon="-1.41707">
        <ele>-5.189426</ele>
        <time>2020-07-07T14:25:00Z</time>
      </trkpt>
      <trkpt lat="47.1184" lon="-1.41707">
        <ele>-4.687394</ele>
        <time>2020-07-07T14:25:02Z</time>
      </trkpt>
      <trkpt lat="47.11834" lon="-1.41705">
        <ele>-5.210564</ele>
        <time>2020-07-07T14:25:04Z</time>
      </trkpt>
      <trkpt lat="47.11828" lon="-1.41703">
        <ele>-4.4654427</ele>
        <time>2020-07-07T14:25:06Z</time>
      </trkpt>
      <trkpt lat="47.11823" lon="-1.41699">
        <ele>-3.936988</ele>
        <time>2020-07-07T14:25:08Z</time>
      </trkpt>
      <trkpt lat="47.11819" lon="-1.41697">
        <ele>-4.222354</ele>
        <time>2020-07-07T14:25:10Z</time>
      </trkpt>
      <trkpt lat="47.11814" lon="-1.41693">
        <ele>-4.777231</ele>
        <time>2020-07-07T14:25:13Z</time>
      </trkpt>
      <trkpt lat="47.11808" lon="-1.41691">
        <ele>-4.988613</ele>
        <time>2020-07-07T14:25:16Z</time>
      </trkpt>
      <trkpt lat="47.11802" lon="-1.4169">
        <ele>-4.898776</ele>
        <time>2020-07-07T14:25:18Z</time>
      </trkpt>
      <trkpt lat="47.11795" lon="-1.41687">
        <ele>-5.971539</ele>
        <time>2020-07-07T14:25:20Z</time>
      </trkpt>
      <trkpt lat="47.11789" lon="-1.41685">
        <ele>-5.448369</ele>
        <time>2020-07-07T14:25:22Z</time>
      </trkpt>
      <trkpt lat="47.11775" lon="-1.41683">
        <ele>-4.877638</ele>
        <time>2020-07-07T14:25:25Z</time>
      </trkpt>
      <trkpt lat="47.11767" lon="-1.41681">
        <ele>-5.469507</ele>
        <time>2020-07-07T14:25:27Z</time>
      </trkpt>
      <trkpt lat="47.11761" lon="-1.41681">
        <ele>-4.095525</ele>
        <time>2020-07-07T14:25:29Z</time>
      </trkpt>
      <trkpt lat="47.11755" lon="-1.41682">
        <ele>-3.97398</ele>
        <time>2020-07-07T14:25:32Z</time>
      </trkpt>
      <trkpt lat="47.11749" lon="-1.41685">
        <ele>-4.069102</ele>
        <time>2020-07-07T14:25:34Z</time>
      </trkpt>
      <trkpt lat="47.11741" lon="-1.41688">
        <ele>-3.3345497</ele>
        <time>2020-07-07T14:25:36Z</time>
      </trkpt>
      <trkpt lat="47.11735" lon="-1.4169">
        <ele>-4.61341</ele>
        <time>2020-07-07T14:25:38Z</time>
      </trkpt>
      <trkpt lat="47.11728" lon="-1.4169">
        <ele>-5.0414586</ele>
        <time>2020-07-07T14:25:40Z</time>
      </trkpt>
      <trkpt lat="47.11722" lon="-1.41687">
        <ele>-3.7731671</ele>
        <time>2020-07-07T14:25:42Z</time>
      </trkpt>
      <trkpt lat="47.11717" lon="-1.41683">
        <ele>-4.7296705</ele>
        <time>2020-07-07T14:25:44Z</time>
      </trkpt>
      <trkpt lat="47.11712" lon="-1.41678">
        <ele>-5.2739787</ele>
        <time>2020-07-07T14:25:46Z</time>
      </trkpt>
      <trkpt lat="47.11709" lon="-1.41672">
        <ele>-4.756093</ele>
        <time>2020-07-07T14:25:48Z</time>
      </trkpt>
      <trkpt lat="47.11704" lon="-1.41669">
        <ele>-6.087799</ele>
        <time>2020-07-07T14:25:50Z</time>
      </trkpt>
      <trkpt lat="47.11699" lon="-1.41673">
        <ele>-5.432515</ele>
        <time>2020-07-07T14:25:53Z</time>
      </trkpt>
      <trkpt lat="47.11693" lon="-1.41674">
        <ele>-6.4101562</ele>
        <time>2020-07-07T14:25:55Z</time>
      </trkpt>
      <trkpt lat="47.11686" lon="-1.41672">
        <ele>-4.560565</ele>
        <time>2020-07-07T14:25:57Z</time>
      </trkpt>
      <trkpt lat="47.1168" lon="-1.41668">
        <ele>-5.104873</ele>
        <time>2020-07-07T14:25:59Z</time>
      </trkpt>
      <trkpt lat="47.11674" lon="-1.41664">
        <ele>-4.513004</ele>
        <time>2020-07-07T14:26:01Z</time>
      </trkpt>
      <trkpt lat="47.11668" lon="-1.4166">
        <ele>-5.680889</ele>
        <time>2020-07-07T14:26:03Z</time>
      </trkpt>
      <trkpt lat="47.11663" lon="-1.41657">
        <ele>-5.9292626</ele>
        <time>2020-07-07T14:26:05Z</time>
      </trkpt>
      <trkpt lat="47.11655" lon="-1.41651">
        <ele>-4.190646</ele>
        <time>2020-07-07T14:26:08Z</time>
      </trkpt>
      <trkpt lat="47.11649" lon="-1.41645">
        <ele>-6.1459293</ele>
        <time>2020-07-07T14:26:10Z</time>
      </trkpt>
      <trkpt lat="47.11643" lon="-1.4164">
        <ele>-5.950401</ele>
        <time>2020-07-07T14:26:12Z</time>
      </trkpt>
      <trkpt lat="47.11639" lon="-1.41634">
        <ele>-5.4853606</ele>
        <time>2020-07-07T14:26:14Z</time>
      </trkpt>
      <trkpt lat="47.11633" lon="-1.4163">
        <ele>-4.756093</ele>
        <time>2020-07-07T14:26:16Z</time>
      </trkpt>
      <trkpt lat="47.11628" lon="-1.41625">
        <ele>-4.8089385</ele>
        <time>2020-07-07T14:26:18Z</time>
      </trkpt>
      <trkpt lat="47.11625" lon="-1.41617">
        <ele>-3.202436</ele>
        <time>2020-07-07T14:26:20Z</time>
      </trkpt>
      <trkpt lat="47.11621" lon="-1.4161">
        <ele>-5.374385</ele>
        <time>2020-07-07T14:26:22Z</time>
      </trkpt>
      <trkpt lat="47.11617" lon="-1.41605">
        <ele>-5.8605633</ele>
        <time>2020-07-07T14:26:24Z</time>
      </trkpt>
      <trkpt lat="47.11613" lon="-1.416">
        <ele>-5.3796697</ele>
        <time>2020-07-07T14:26:26Z</time>
      </trkpt>
      <trkpt lat="47.11608" lon="-1.41593">
        <ele>-3.9686954</ele>
        <time>2020-07-07T14:26:28Z</time>
      </trkpt>
      <trkpt lat="47.11603" lon="-1.41587">
        <ele>-4.5711336</ele>
        <time>2020-07-07T14:26:30Z</time>
      </trkpt>
      <trkpt lat="47.11598" lon="-1.41584">
        <ele>-4.217069</ele>
        <time>2020-07-07T14:26:32Z</time>
      </trkpt>
      <trkpt lat="47.11593" lon="-1.41579">
        <ele>-4.3544674</ele>
        <time>2020-07-07T14:26:34Z</time>
      </trkpt>
      <trkpt lat="47.11589" lon="-1.41574">
        <ele>-4.8934913</ele>
        <time>2020-07-07T14:26:36Z</time>
      </trkpt>
      <trkpt lat="47.11585" lon="-1.41571">
        <ele>-4.650402</ele>
        <time>2020-07-07T14:26:53Z</time>
      </trkpt>
      <trkpt lat="47.11579" lon="-1.41566">
        <ele>-4.0162563</ele>
        <time>2020-07-07T14:27:58Z</time>
      </trkpt>
      <trkpt lat="47.11575" lon="-1.41561">
        <ele>-4.333329</ele>
        <time>2020-07-07T14:28:00Z</time>
      </trkpt>
      <trkpt lat="47.11573" lon="-1.41554">
        <ele>-4.2646303</ele>
        <time>2020-07-07T14:28:02Z</time>
      </trkpt>
      <trkpt lat="47.11569" lon="-1.41547">
        <ele>-3.9686954</ele>
        <time>2020-07-07T14:28:04Z</time>
      </trkpt>
      <trkpt lat="47.11564" lon="-1.4154">
        <ele>-4.4231663</ele>
        <time>2020-07-07T14:28:06Z</time>
      </trkpt>
      <trkpt lat="47.1156" lon="-1.41534">
        <ele>-4.137801</ele>
        <time>2020-07-07T14:28:08Z</time>
      </trkpt>
      <trkpt lat="47.11554" lon="-1.41529">
        <ele>-4.217069</ele>
        <time>2020-07-07T14:28:10Z</time>
      </trkpt>
      <trkpt lat="47.11548" lon="-1.41525">
        <ele>-4.222354</ele>
        <time>2020-07-07T14:28:12Z</time>
      </trkpt>
      <trkpt lat="47.11544" lon="-1.41521">
        <ele>-4.428451</ele>
        <time>2020-07-07T14:28:13Z</time>
      </trkpt>
      <trkpt lat="47.11539" lon="-1.41515">
        <ele>-4.2593455</ele>
        <time>2020-07-07T14:28:15Z</time>
      </trkpt>
      <trkpt lat="47.11535" lon="-1.41509">
        <ele>-4.2804837</ele>
        <time>2020-07-07T14:28:17Z</time>
      </trkpt>
      <trkpt lat="47.11531" lon="-1.41503">
        <ele>-4.328045</ele>
        <time>2020-07-07T14:28:19Z</time>
      </trkpt>
      <trkpt lat="47.11529" lon="-1.41495">
        <ele>-4.8142233</ele>
        <time>2020-07-07T14:28:21Z</time>
      </trkpt>
      <trkpt lat="47.11526" lon="-1.4149">
        <ele>-4.55528</ele>
        <time>2020-07-07T14:28:23Z</time>
      </trkpt>
      <trkpt lat="47.11522" lon="-1.41483">
        <ele>-4.6239796</ele>
        <time>2020-07-07T14:28:25Z</time>
      </trkpt>
      <trkpt lat="47.11517" lon="-1.41475">
        <ele>-4.6081257</ele>
        <time>2020-07-07T14:28:27Z</time>
      </trkpt>
      <trkpt lat="47.11512" lon="-1.41468">
        <ele>-4.4971504</ele>
        <time>2020-07-07T14:28:29Z</time>
      </trkpt>
      <trkpt lat="47.11504" lon="-1.41461">
        <ele>-4.1060934</ele>
        <time>2020-07-07T14:28:31Z</time>
      </trkpt>
      <trkpt lat="47.115" lon="-1.41453">
        <ele>-4.275199</ele>
        <time>2020-07-07T14:28:33Z</time>
      </trkpt>
      <trkpt lat="47.11496" lon="-1.41443">
        <ele>-4.116663</ele>
        <time>2020-07-07T14:28:35Z</time>
      </trkpt>
      <trkpt lat="47.11492" lon="-1.41436">
        <ele>-4.296337</ele>
        <time>2020-07-07T14:28:37Z</time>
      </trkpt>
      <trkpt lat="47.11489" lon="-1.41429">
        <ele>-4.063817</ele>
        <time>2020-07-07T14:28:40Z</time>
      </trkpt>
      <trkpt lat="47.1149" lon="-1.41422">
        <ele>-3.049184</ele>
        <time>2020-07-07T14:28:44Z</time>
      </trkpt>
      <trkpt lat="47.11488" lon="-1.41416">
        <ele>-2.5154448</ele>
        <time>2020-07-07T14:28:46Z</time>
      </trkpt>
      <trkpt lat="47.11485" lon="-1.41407">
        <ele>-1.7808926</ele>
        <time>2020-07-07T14:28:49Z</time>
      </trkpt>
      <trkpt lat="47.11481" lon="-1.41402">
        <ele>-0.8508122</ele>
        <time>2020-07-07T14:28:52Z</time>
      </trkpt>
      <trkpt lat="47.11478" lon="-1.41396">
        <ele>-0.052845478</ele>
        <time>2020-07-07T14:28:54Z</time>
      </trkpt>
      <trkpt lat="47.11474" lon="-1.41391">
        <ele>0.8719504</ele>
        <time>2020-07-07T14:28:58Z</time>
      </trkpt>
      <trkpt lat="47.1147" lon="-1.41387">
        <ele>1.495527</ele>
        <time>2020-07-07T14:29:01Z</time>
      </trkpt>
      <trkpt lat="47.11466" lon="-1.41383">
        <ele>2.1560955</ele>
        <time>2020-07-07T14:29:04Z</time>
      </trkpt>
      <trkpt lat="47.11462" lon="-1.4138">
        <ele>2.9144282</ele>
        <time>2020-07-07T14:29:10Z</time>
      </trkpt>
      <trkpt lat="47.11458" lon="-1.41375">
        <ele>3.926419</ele>
        <time>2020-07-07T14:29:21Z</time>
      </trkpt>
      <trkpt lat="47.11454" lon="-1.4137">
        <ele>4.668898</ele>
        <time>2020-07-07T14:29:35Z</time>
      </trkpt>
      <trkpt lat="47.11449" lon="-1.41368">
        <ele>5.22906</ele>
        <time>2020-07-07T14:29:43Z</time>
      </trkpt>
      <trkpt lat="47.11446" lon="-1.41364">
        <ele>5.884344</ele>
        <time>2020-07-07T14:29:49Z</time>
      </trkpt>
      <trkpt lat="47.11444" lon="-1.41357">
        <ele>6.666457</ele>
        <time>2020-07-07T14:29:58Z</time>
      </trkpt>
      <trkpt lat="47.11441" lon="-1.4135">
        <ele>7.7999926</ele>
        <time>2020-07-07T14:30:02Z</time>
      </trkpt>
      <trkpt lat="47.11438" lon="-1.41345">
        <ele>8.299382</ele>
        <time>2020-07-07T14:30:05Z</time>
      </trkpt>
      <trkpt lat="47.11435" lon="-1.41338">
        <ele>9.306088</ele>
        <time>2020-07-07T14:30:08Z</time>
      </trkpt>
      <trkpt lat="47.11435" lon="-1.4133">
        <ele>10.616656</ele>
        <time>2020-07-07T14:30:11Z</time>
      </trkpt>
      <trkpt lat="47.11433" lon="-1.41323">
        <ele>11.100193</ele>
        <time>2020-07-07T14:30:14Z</time>
      </trkpt>
      <trkpt lat="47.11433" lon="-1.41316">
        <ele>12.474175</ele>
        <time>2020-07-07T14:30:19Z</time>
      </trkpt>
      <trkpt lat="47.11433" lon="-1.4131">
        <ele>13.457101</ele>
        <time>2020-07-07T14:30:22Z</time>
      </trkpt>
      <trkpt lat="47.11432" lon="-1.41303">
        <ele>14.413604</ele>
        <time>2020-07-07T14:30:26Z</time>
      </trkpt>
      <trkpt lat="47.1143" lon="-1.41296">
        <ele>15.113807</ele>
        <time>2020-07-07T14:30:32Z</time>
      </trkpt>
      <trkpt lat="47.11426" lon="-1.4129">
        <ele>15.697749</ele>
        <time>2020-07-07T14:30:37Z</time>
      </trkpt>
      <trkpt lat="47.11422" lon="-1.41284">
        <ele>16.506285</ele>
        <time>2020-07-07T14:30:41Z</time>
      </trkpt>
      <trkpt lat="47.1142" lon="-1.41277">
        <ele>17.256691</ele>
        <time>2020-07-07T14:30:47Z</time>
      </trkpt>
      <trkpt lat="47.11417" lon="-1.41271">
        <ele>18.065228</ele>
        <time>2020-07-07T14:30:53Z</time>
      </trkpt>
      <trkpt lat="47.11414" lon="-1.41264">
        <ele>19.135347</ele>
        <time>2020-07-07T14:30:59Z</time>
      </trkpt>
      <trkpt lat="47.11411" lon="-1.41259">
        <ele>20.060143</ele>
        <time>2020-07-07T14:31:04Z</time>
      </trkpt>
      <trkpt lat="47.11408" lon="-1.41253">
        <ele>20.366648</ele>
        <time>2020-07-07T14:31:08Z</time>
      </trkpt>
      <trkpt lat="47.11404" lon="-1.41247">
        <ele>20.752419</ele>
        <time>2020-07-07T14:31:17Z</time>
      </trkpt>
      <trkpt lat="47.11402" lon="-1.4124">
        <ele>22.060345</ele>
        <time>2020-07-07T14:31:23Z</time>
      </trkpt>
      <trkpt lat="47.11401" lon="-1.41233">
        <ele>22.977215</ele>
        <time>2020-07-07T14:31:26Z</time>
      </trkpt>
      <trkpt lat="47.11406" lon="-1.41234">
        <ele>23.71705</ele>
        <time>2020-07-07T14:31:45Z</time>
      </trkpt>
      <trkpt lat="47.11409" lon="-1.4124">
        <ele>23.392052</ele>
        <time>2020-07-07T14:31:48Z</time>
      </trkpt>
      <trkpt lat="47.11414" lon="-1.41246">
        <ele>23.939001</ele>
        <time>2020-07-07T14:31:51Z</time>
      </trkpt>
      <trkpt lat="47.11418" lon="-1.41251">
        <ele>23.928432</ele>
        <time>2020-07-07T14:31:53Z</time>
      </trkpt>
      <trkpt lat="47.11423" lon="-1.41255">
        <ele>24.121319</ele>
        <time>2020-07-07T14:31:55Z</time>
      </trkpt>
      <trkpt lat="47.11428" lon="-1.41258">
        <ele>24.264002</ele>
        <time>2020-07-07T14:31:57Z</time>
      </trkpt>
      <trkpt lat="47.11433" lon="-1.41259">
        <ele>24.232294</ele>
        <time>2020-07-07T14:31:59Z</time>
      </trkpt>
      <trkpt lat="47.11439" lon="-1.41259">
        <ele>24.887577</ele>
        <time>2020-07-07T14:32:02Z</time>
      </trkpt>
      <trkpt lat="47.11444" lon="-1.41258">
        <ele>25.21522</ele>
        <time>2020-07-07T14:32:04Z</time>
      </trkpt>
      <trkpt lat="47.11448" lon="-1.41254">
        <ele>26.177008</ele>
        <time>2020-07-07T14:32:06Z</time>
      </trkpt>
      <trkpt lat="47.11453" lon="-1.4125">
        <ele>26.589203</ele>
        <time>2020-07-07T14:32:09Z</time>
      </trkpt>
      <trkpt lat="47.11457" lon="-1.41246">
        <ele>26.766235</ele>
        <time>2020-07-07T14:32:12Z</time>
      </trkpt>
      <trkpt lat="47.11462" lon="-1.41241">
        <ele>28.21156</ele>
        <time>2020-07-07T14:32:15Z</time>
      </trkpt>
      <trkpt lat="47.11467" lon="-1.41237">
        <ele>28.644892</ele>
        <time>2020-07-07T14:32:18Z</time>
      </trkpt>
      <trkpt lat="47.11472" lon="-1.41233">
        <ele>29.395298</ele>
        <time>2020-07-07T14:32:21Z</time>
      </trkpt>
      <trkpt lat="47.11477" lon="-1.41232">
        <ele>29.74672</ele>
        <time>2020-07-07T14:32:24Z</time>
      </trkpt>
      <trkpt lat="47.11483" lon="-1.41234">
        <ele>30.008305</ele>
        <time>2020-07-07T14:32:28Z</time>
      </trkpt>
      <trkpt lat="47.11488" lon="-1.41239">
        <ele>30.616028</ele>
        <time>2020-07-07T14:32:31Z</time>
      </trkpt>
      <trkpt lat="47.11493" lon="-1.41243">
        <ele>30.610743</ele>
        <time>2020-07-07T14:32:34Z</time>
      </trkpt>
      <trkpt lat="47.11498" lon="-1.41248">
        <ele>30.911963</ele>
        <time>2020-07-07T14:32:37Z</time>
      </trkpt>
      <trkpt lat="47.11502" lon="-1.41252">
        <ele>30.777206</ele>
        <time>2020-07-07T14:32:39Z</time>
      </trkpt>
      <trkpt lat="47.11506" lon="-1.41257">
        <ele>30.750784</ele>
        <time>2020-07-07T14:32:42Z</time>
      </trkpt>
      <trkpt lat="47.1151" lon="-1.41261">
        <ele>30.695295</ele>
        <time>2020-07-07T14:32:45Z</time>
      </trkpt>
      <trkpt lat="47.11514" lon="-1.41265">
        <ele>30.848547</ele>
        <time>2020-07-07T14:32:48Z</time>
      </trkpt>
      <trkpt lat="47.11519" lon="-1.41271">
        <ele>30.872328</ele>
        <time>2020-07-07T14:32:51Z</time>
      </trkpt>
      <trkpt lat="47.11523" lon="-1.41275">
        <ele>30.452208</ele>
        <time>2020-07-07T14:32:54Z</time>
      </trkpt>
      <trkpt lat="47.11527" lon="-1.41279">
        <ele>30.777206</ele>
        <time>2020-07-07T14:32:57Z</time>
      </trkpt>
      <trkpt lat="47.11533" lon="-1.41286">
        <ele>30.272532</ele>
        <time>2020-07-07T14:33:01Z</time>
      </trkpt>
      <trkpt lat="47.1154" lon="-1.41293">
        <ele>30.005663</ele>
        <time>2020-07-07T14:33:05Z</time>
      </trkpt>
      <trkpt lat="47.11546" lon="-1.41299">
        <ele>30.383507</ele>
        <time>2020-07-07T14:33:08Z</time>
      </trkpt>
      <trkpt lat="47.1155" lon="-1.41304">
        <ele>29.847126</ele>
        <time>2020-07-07T14:33:11Z</time>
      </trkpt>
      <trkpt lat="47.11555" lon="-1.41308">
        <ele>30.04794</ele>
        <time>2020-07-07T14:33:14Z</time>
      </trkpt>
      <trkpt lat="47.11558" lon="-1.41313">
        <ele>30.346516</ele>
        <time>2020-07-07T14:33:16Z</time>
      </trkpt>
      <trkpt lat="47.11563" lon="-1.41319">
        <ele>30.317451</ele>
        <time>2020-07-07T14:33:19Z</time>
      </trkpt>
      <trkpt lat="47.11567" lon="-1.41323">
        <ele>29.511557</ele>
        <time>2020-07-07T14:33:22Z</time>
      </trkpt>
      <trkpt lat="47.11572" lon="-1.41328">
        <ele>29.944891</ele>
        <time>2020-07-07T14:33:26Z</time>
      </trkpt>
      <trkpt lat="47.11577" lon="-1.41335">
        <ele>29.781069</ele>
        <time>2020-07-07T14:33:29Z</time>
      </trkpt>
      <trkpt lat="47.11582" lon="-1.41336">
        <ele>29.485134</ele>
        <time>2020-07-07T14:33:31Z</time>
      </trkpt>
      <trkpt lat="47.11587" lon="-1.41335">
        <ele>29.387371</ele>
        <time>2020-07-07T14:33:33Z</time>
      </trkpt>
      <trkpt lat="47.11594" lon="-1.41338">
        <ele>29.405867</ele>
        <time>2020-07-07T14:33:36Z</time>
      </trkpt>
      <trkpt lat="47.11597" lon="-1.41344">
        <ele>29.308102</ele>
        <time>2020-07-07T14:33:38Z</time>
      </trkpt>
      <trkpt lat="47.11599" lon="-1.41351">
        <ele>28.996313</ele>
        <time>2020-07-07T14:33:40Z</time>
      </trkpt>
      <trkpt lat="47.11601" lon="-1.41357">
        <ele>29.508915</ele>
        <time>2020-07-07T14:33:42Z</time>
      </trkpt>
      <trkpt lat="47.11605" lon="-1.41361">
        <ele>29.202412</ele>
        <time>2020-07-07T14:33:44Z</time>
      </trkpt>
      <trkpt lat="47.1161" lon="-1.41363">
        <ele>29.577614</ele>
        <time>2020-07-07T14:33:46Z</time>
      </trkpt>
      <trkpt lat="47.11616" lon="-1.41363">
        <ele>30.49184</ele>
        <time>2020-07-07T14:33:49Z</time>
      </trkpt>
      <trkpt lat="47.11621" lon="-1.4137">
        <ele>30.911963</ele>
        <time>2020-07-07T14:33:52Z</time>
      </trkpt>
      <trkpt lat="47.11625" lon="-1.41375">
        <ele>30.88554</ele>
        <time>2020-07-07T14:33:54Z</time>
      </trkpt>
      <trkpt lat="47.11629" lon="-1.41379">
        <ele>31.289808</ele>
        <time>2020-07-07T14:33:56Z</time>
      </trkpt>
      <trkpt lat="47.11634" lon="-1.41384">
        <ele>31.205256</ele>
        <time>2020-07-07T14:33:58Z</time>
      </trkpt>
      <trkpt lat="47.11638" lon="-1.41388">
        <ele>31.189402</ele>
        <time>2020-07-07T14:34:00Z</time>
      </trkpt>
      <trkpt lat="47.11643" lon="-1.41393">
        <ele>31.567245</ele>
        <time>2020-07-07T14:34:02Z</time>
      </trkpt>
      <trkpt lat="47.11648" lon="-1.41398">
        <ele>31.564604</ele>
        <time>2020-07-07T14:34:04Z</time>
      </trkpt>
      <trkpt lat="47.11654" lon="-1.41404">
        <ele>31.728424</ele>
        <time>2020-07-07T14:34:06Z</time>
      </trkpt>
      <trkpt lat="47.1166" lon="-1.41411">
        <ele>31.797125</ele>
        <time>2020-07-07T14:34:08Z</time>
      </trkpt>
      <trkpt lat="47.11666" lon="-1.41418">
        <ele>31.987368</ele>
        <time>2020-07-07T14:34:10Z</time>
      </trkpt>
      <trkpt lat="47.11672" lon="-1.41424">
        <ele>31.313587</ele>
        <time>2020-07-07T14:34:12Z</time>
      </trkpt>
      <trkpt lat="47.11678" lon="-1.41429">
        <ele>31.371717</ele>
        <time>2020-07-07T14:34:14Z</time>
      </trkpt>
      <trkpt lat="47.11683" lon="-1.41435">
        <ele>31.210539</ele>
        <time>2020-07-07T14:34:16Z</time>
      </trkpt>
      <trkpt lat="47.11688" lon="-1.4144">
        <ele>31.30566</ele>
        <time>2020-07-07T14:34:18Z</time>
      </trkpt>
      <trkpt lat="47.11694" lon="-1.41447">
        <ele>31.591026</ele>
        <time>2020-07-07T14:34:20Z</time>
      </trkpt>
      <trkpt lat="47.11701" lon="-1.41455">
        <ele>30.705866</ele>
        <time>2020-07-07T14:34:22Z</time>
      </trkpt>
      <trkpt lat="47.11709" lon="-1.41459">
        <ele>30.639809</ele>
        <time>2020-07-07T14:34:24Z</time>
      </trkpt>
      <trkpt lat="47.11715" lon="-1.41463">
        <ele>30.674158</ele>
        <time>2020-07-07T14:34:26Z</time>
      </trkpt>
      <trkpt lat="47.11717" lon="-1.41472">
        <ele>30.135134</ele>
        <time>2020-07-07T14:34:28Z</time>
      </trkpt>
      <trkpt lat="47.11713" lon="-1.41482">
        <ele>29.146923</ele>
        <time>2020-07-07T14:34:30Z</time>
      </trkpt>
      <trkpt lat="47.11711" lon="-1.41492">
        <ele>28.095299</ele>
        <time>2020-07-07T14:34:32Z</time>
      </trkpt>
      <trkpt lat="47.11709" lon="-1.41502">
        <ele>27.820501</ele>
        <time>2020-07-07T14:34:34Z</time>
      </trkpt>
      <trkpt lat="47.11713" lon="-1.41512">
        <ele>27.418877</ele>
        <time>2020-07-07T14:34:36Z</time>
      </trkpt>
      <trkpt lat="47.11718" lon="-1.41519">
        <ele>27.860136</ele>
        <time>2020-07-07T14:34:38Z</time>
      </trkpt>
      <trkpt lat="47.11725" lon="-1.41523">
        <ele>28.045095</ele>
        <time>2020-07-07T14:34:40Z</time>
      </trkpt>
      <trkpt lat="47.11731" lon="-1.41526">
        <ele>28.372738</ele>
        <time>2020-07-07T14:34:42Z</time>
      </trkpt>
      <trkpt lat="47.11737" lon="-1.4153">
        <ele>28.459932</ele>
        <time>2020-07-07T14:34:44Z</time>
      </trkpt>
      <trkpt lat="47.11743" lon="-1.41534">
        <ele>28.150785</ele>
        <time>2020-07-07T14:34:46Z</time>
      </trkpt>
      <trkpt lat="47.11751" lon="-1.41537">
        <ele>28.647533</ele>
        <time>2020-07-07T14:34:48Z</time>
      </trkpt>
      <trkpt lat="47.11759" lon="-1.41539">
        <ele>28.50485</ele>
        <time>2020-07-07T14:34:50Z</time>
      </trkpt>
      <trkpt lat="47.11765" lon="-1.41539">
        <ele>28.37538</ele>
        <time>2020-07-07T14:34:52Z</time>
      </trkpt>
      <trkpt lat="47.11772" lon="-1.41539">
        <ele>28.845705</ele>
        <time>2020-07-07T14:34:54Z</time>
      </trkpt>
      <trkpt lat="47.11779" lon="-1.41538">
        <ele>29.207695</ele>
        <time>2020-07-07T14:34:56Z</time>
      </trkpt>
      <trkpt lat="47.11787" lon="-1.41536">
        <ele>28.850988</ele>
        <time>2020-07-07T14:34:58Z</time>
      </trkpt>
      <trkpt lat="47.11794" lon="-1.41534">
        <ele>29.220907</ele>
        <time>2020-07-07T14:35:00Z</time>
      </trkpt>
      <trkpt lat="47.11802" lon="-1.41531">
        <ele>29.54855</ele>
        <time>2020-07-07T14:35:02Z</time>
      </trkpt>
      <trkpt lat="47.11809" lon="-1.41529">
        <ele>30.214401</ele>
        <time>2020-07-07T14:35:04Z</time>
      </trkpt>
      <trkpt lat="47.11817" lon="-1.4153">
        <ele>30.08493</ele>
        <time>2020-07-07T14:35:06Z</time>
      </trkpt>
      <trkpt lat="47.11824" lon="-1.41531">
        <ele>30.335947</ele>
        <time>2020-07-07T14:35:08Z</time>
      </trkpt>
      <trkpt lat="47.11832" lon="-1.41533">
        <ele>30.766638</ele>
        <time>2020-07-07T14:35:10Z</time>
      </trkpt>
      <trkpt lat="47.11839" lon="-1.41535">
        <ele>30.658304</ele>
        <time>2020-07-07T14:35:12Z</time>
      </trkpt>
      <trkpt lat="47.11847" lon="-1.41538">
        <ele>30.880255</ele>
        <time>2020-07-07T14:35:14Z</time>
      </trkpt>
      <trkpt lat="47.11855" lon="-1.41541">
        <ele>31.0018</ele>
        <time>2020-07-07T14:35:16Z</time>
      </trkpt>
      <trkpt lat="47.11864" lon="-1.41545">
        <ele>31.123344</ele>
        <time>2020-07-07T14:35:18Z</time>
      </trkpt>
      <trkpt lat="47.11871" lon="-1.41548">
        <ele>30.90932</ele>
        <time>2020-07-07T14:35:20Z</time>
      </trkpt>
      <trkpt lat="47.11878" lon="-1.41551">
        <ele>31.252815</ele>
        <time>2020-07-07T14:35:22Z</time>
      </trkpt>
      <trkpt lat="47.11884" lon="-1.41554">
        <ele>31.75749</ele>
        <time>2020-07-07T14:35:24Z</time>
      </trkpt>
      <trkpt lat="47.1189" lon="-1.41557">
        <ele>32.225174</ele>
        <time>2020-07-07T14:35:26Z</time>
      </trkpt>
      <trkpt lat="47.11895" lon="-1.41559">
        <ele>32.01379</ele>
        <time>2020-07-07T14:35:28Z</time>
      </trkpt>
      <trkpt lat="47.11902" lon="-1.41561">
        <ele>32.447124</ele>
        <time>2020-07-07T14:35:30Z</time>
      </trkpt>
      <trkpt lat="47.11907" lon="-1.41563">
        <ele>32.428627</ele>
        <time>2020-07-07T14:35:32Z</time>
      </trkpt>
      <trkpt lat="47.11913" lon="-1.41566">
        <ele>32.782692</ele>
        <time>2020-07-07T14:35:34Z</time>
      </trkpt>
      <trkpt lat="47.11919" lon="-1.41569">
        <ele>33.07863</ele>
        <time>2020-07-07T14:35:36Z</time>
      </trkpt>
      <trkpt lat="47.11928" lon="-1.41572">
        <ele>33.48818</ele>
        <time>2020-07-07T14:35:39Z</time>
      </trkpt>
      <trkpt lat="47.11933" lon="-1.41573">
        <ele>33.86338</ele>
        <time>2020-07-07T14:35:41Z</time>
      </trkpt>
      <trkpt lat="47.11939" lon="-1.41573">
        <ele>34.074764</ele>
        <time>2020-07-07T14:35:43Z</time>
      </trkpt>
      <trkpt lat="47.11944" lon="-1.41574">
        <ele>33.913586</ele>
        <time>2020-07-07T14:35:45Z</time>
      </trkpt>
      <trkpt lat="47.1195" lon="-1.41575">
        <ele>34.34956</ele>
        <time>2020-07-07T14:35:47Z</time>
      </trkpt>
      <trkpt lat="47.11956" lon="-1.41577">
        <ele>34.73269</ele>
        <time>2020-07-07T14:35:49Z</time>
      </trkpt>
      <trkpt lat="47.11963" lon="-1.41578">
        <ele>34.85952</ele>
        <time>2020-07-07T14:35:51Z</time>
      </trkpt>
      <trkpt lat="47.11969" lon="-1.4158">
        <ele>34.994274</ele>
        <time>2020-07-07T14:35:53Z</time>
      </trkpt>
      <trkpt lat="47.11974" lon="-1.4158">
        <ele>35.02598</ele>
        <time>2020-07-07T14:35:55Z</time>
      </trkpt>
      <trkpt lat="47.1198" lon="-1.41581">
        <ele>35.073544</ele>
        <time>2020-07-07T14:35:57Z</time>
      </trkpt>
      <trkpt lat="47.11986" lon="-1.41582">
        <ele>35.200375</ele>
        <time>2020-07-07T14:35:59Z</time>
      </trkpt>
      <trkpt lat="47.11992" lon="-1.41583">
        <ele>35.38269</ele>
        <time>2020-07-07T14:36:01Z</time>
      </trkpt>
      <trkpt lat="47.11998" lon="-1.41584">
        <ele>35.3272</ele>
        <time>2020-07-07T14:36:03Z</time>
      </trkpt>
      <trkpt lat="47.12005" lon="-1.41584">
        <ele>35.89529</ele>
        <time>2020-07-07T14:36:05Z</time>
      </trkpt>
      <trkpt lat="47.1201" lon="-1.41585">
        <ele>35.64956</ele>
        <time>2020-07-07T14:36:07Z</time>
      </trkpt>
      <trkpt lat="47.12016" lon="-1.41586">
        <ele>35.763176</ele>
        <time>2020-07-07T14:36:09Z</time>
      </trkpt>
      <trkpt lat="47.12022" lon="-1.41587">
        <ele>35.83452</ele>
        <time>2020-07-07T14:36:11Z</time>
      </trkpt>
      <trkpt lat="47.12028" lon="-1.41589">
        <ele>36.44224</ele>
        <time>2020-07-07T14:36:13Z</time>
      </trkpt>
      <trkpt lat="47.12034" lon="-1.41591">
        <ele>36.399963</ele>
        <time>2020-07-07T14:36:15Z</time>
      </trkpt>
      <trkpt lat="47.12041" lon="-1.41593">
        <ele>36.56643</ele>
        <time>2020-07-07T14:36:17Z</time>
      </trkpt>
      <trkpt lat="47.12046" lon="-1.41594">
        <ele>37.203217</ele>
        <time>2020-07-07T14:36:19Z</time>
      </trkpt>
      <trkpt lat="47.1205" lon="-1.41595">
        <ele>37.43045</ele>
        <time>2020-07-07T14:36:21Z</time>
      </trkpt>
      <trkpt lat="47.12056" lon="-1.41596">
        <ele>37.35647</ele>
        <time>2020-07-07T14:36:23Z</time>
      </trkpt>
      <trkpt lat="47.12061" lon="-1.41599">
        <ele>37.82415</ele>
        <time>2020-07-07T14:36:25Z</time>
      </trkpt>
      <trkpt lat="47.12066" lon="-1.41603">
        <ele>37.456875</ele>
        <time>2020-07-07T14:36:27Z</time>
      </trkpt>
      <trkpt lat="47.12071" lon="-1.41606">
        <ele>37.803013</ele>
        <time>2020-07-07T14:36:29Z</time>
      </trkpt>
      <trkpt lat="47.12076" lon="-1.41609">
        <ele>37.631264</ele>
        <time>2020-07-07T14:36:31Z</time>
      </trkpt>
      <trkpt lat="47.12082" lon="-1.41612">
        <ele>38.109516</ele>
        <time>2020-07-07T14:36:33Z</time>
      </trkpt>
      <trkpt lat="47.12087" lon="-1.41615">
        <ele>38.040817</ele>
        <time>2020-07-07T14:36:35Z</time>
      </trkpt>
      <trkpt lat="47.12093" lon="-1.41618">
        <ele>37.943054</ele>
        <time>2020-07-07T14:36:37Z</time>
      </trkpt>
      <trkpt lat="47.12098" lon="-1.41621">
        <ele>38.431873</ele>
        <time>2020-07-07T14:36:39Z</time>
      </trkpt>
      <trkpt lat="47.12104" lon="-1.41624">
        <ele>38.178215</ele>
        <time>2020-07-07T14:36:41Z</time>
      </trkpt>
      <trkpt lat="47.12111" lon="-1.41627">
        <ele>38.51907</ele>
        <time>2020-07-07T14:36:43Z</time>
      </trkpt>
      <trkpt lat="47.12117" lon="-1.41629">
        <ele>38.52171</ele>
        <time>2020-07-07T14:36:45Z</time>
      </trkpt>
      <trkpt lat="47.12124" lon="-1.41632">
        <ele>38.944473</ele>
        <time>2020-07-07T14:36:47Z</time>
      </trkpt>
      <trkpt lat="47.1213" lon="-1.41633">
        <ele>39.29854</ele>
        <time>2020-07-07T14:36:49Z</time>
      </trkpt>
      <trkpt lat="47.12137" lon="-1.41634">
        <ele>38.643257</ele>
        <time>2020-07-07T14:36:51Z</time>
      </trkpt>
      <trkpt lat="47.12143" lon="-1.41636">
        <ele>38.76744</ele>
        <time>2020-07-07T14:36:53Z</time>
      </trkpt>
      <trkpt lat="47.12151" lon="-1.41637">
        <ele>38.421307</ele>
        <time>2020-07-07T14:36:55Z</time>
      </trkpt>
      <trkpt lat="47.12158" lon="-1.41638">
        <ele>38.64854</ele>
        <time>2020-07-07T14:36:57Z</time>
      </trkpt>
      <trkpt lat="47.12164" lon="-1.41638">
        <ele>38.328827</ele>
        <time>2020-07-07T14:36:59Z</time>
      </trkpt>
      <trkpt lat="47.12172" lon="-1.41638">
        <ele>38.34732</ele>
        <time>2020-07-07T14:37:01Z</time>
      </trkpt>
      <trkpt lat="47.1218" lon="-1.41637">
        <ele>38.355247</ele>
        <time>2020-07-07T14:37:03Z</time>
      </trkpt>
      <trkpt lat="47.12187" lon="-1.41638">
        <ele>38.54285</ele>
        <time>2020-07-07T14:37:05Z</time>
      </trkpt>
      <trkpt lat="47.12195" lon="-1.41638">
        <ele>38.46358</ele>
        <time>2020-07-07T14:37:07Z</time>
      </trkpt>
      <trkpt lat="47.12202" lon="-1.41638">
        <ele>37.921913</ele>
        <time>2020-07-07T14:37:09Z</time>
      </trkpt>
      <trkpt lat="47.12209" lon="-1.41638">
        <ele>38.186142</ele>
        <time>2020-07-07T14:37:11Z</time>
      </trkpt>
      <trkpt lat="47.12217" lon="-1.41638">
        <ele>37.752808</ele>
        <time>2020-07-07T14:37:13Z</time>
      </trkpt>
      <trkpt lat="47.12223" lon="-1.41638">
        <ele>37.475372</ele>
        <time>2020-07-07T14:37:15Z</time>
      </trkpt>
      <trkpt lat="47.12227" lon="-1.4163">
        <ele>37.599556</ele>
        <time>2020-07-07T14:37:17Z</time>
      </trkpt>
      <trkpt lat="47.12226" lon="-1.41622">
        <ele>38.154434</ele>
        <time>2020-07-07T14:37:19Z</time>
      </trkpt>
      <trkpt lat="47.12222" lon="-1.41614">
        <ele>38.62476</ele>
        <time>2020-07-07T14:37:21Z</time>
      </trkpt>
      <trkpt lat="47.12219" lon="-1.41607">
        <ele>38.62476</ele>
        <time>2020-07-07T14:37:23Z</time>
      </trkpt>
      <trkpt lat="47.12219" lon="-1.41598">
        <ele>39.235126</ele>
        <time>2020-07-07T14:37:25Z</time>
      </trkpt>
      <trkpt lat="47.1222" lon="-1.41591">
        <ele>39.779434</ele>
        <time>2020-07-07T14:37:27Z</time>
      </trkpt>
      <trkpt lat="47.12226" lon="-1.41587">
        <ele>39.63675</ele>
        <time>2020-07-07T14:37:29Z</time>
      </trkpt>
      <trkpt lat="47.12231" lon="-1.41584">
        <ele>39.900978</ele>
        <time>2020-07-07T14:37:31Z</time>
      </trkpt>
      <trkpt lat="47.12236" lon="-1.4158">
        <ele>39.919476</ele>
        <time>2020-07-07T14:37:33Z</time>
      </trkpt>
      <trkpt lat="47.12242" lon="-1.41577">
        <ele>40.072727</ele>
        <time>2020-07-07T14:37:35Z</time>
      </trkpt>
      <trkpt lat="47.12249" lon="-1.41577">
        <ele>40.210125</ele>
        <time>2020-07-07T14:37:37Z</time>
      </trkpt>
      <trkpt lat="47.12256" lon="-1.41578">
        <ele>39.40687</ele>
        <time>2020-07-07T14:37:39Z</time>
      </trkpt>
      <trkpt lat="47.12265" lon="-1.41578">
        <ele>39.245693</ele>
        <time>2020-07-07T14:37:41Z</time>
      </trkpt>
      <trkpt lat="47.12269" lon="-1.41578">
        <ele>39.0898</ele>
        <time>2020-07-07T14:37:42Z</time>
      </trkpt>
      <trkpt lat="47.12274" lon="-1.41577">
        <ele>39.155857</ele>
        <time>2020-07-07T14:37:43Z</time>
      </trkpt>
      <trkpt lat="47.12279" lon="-1.41578">
        <ele>38.780655</ele>
        <time>2020-07-07T14:37:44Z</time>
      </trkpt>
      <trkpt lat="47.12283" lon="-1.41582">
        <ele>38.74102</ele>
        <time>2020-07-07T14:37:45Z</time>
      </trkpt>
      <trkpt lat="47.12286" lon="-1.41588">
        <ele>38.151794</ele>
        <time>2020-07-07T14:37:46Z</time>
      </trkpt>
      <trkpt lat="47.12292" lon="-1.41595">
        <ele>37.66033</ele>
        <time>2020-07-07T14:37:48Z</time>
      </trkpt>
      <trkpt lat="47.12299" lon="-1.41591">
        <ele>37.142445</ele>
        <time>2020-07-07T14:37:50Z</time>
      </trkpt>
      <trkpt lat="47.12304" lon="-1.41585">
        <ele>37.734314</ele>
        <time>2020-07-07T14:37:52Z</time>
      </trkpt>
      <trkpt lat="47.12309" lon="-1.41579">
        <ele>37.388176</ele>
        <time>2020-07-07T14:37:54Z</time>
      </trkpt>
      <trkpt lat="47.12314" lon="-1.41572">
        <ele>37.26927</ele>
        <time>2020-07-07T14:37:56Z</time>
      </trkpt>
      <trkpt lat="47.12319" lon="-1.41563">
        <ele>37.327404</ele>
        <time>2020-07-07T14:37:58Z</time>
      </trkpt>
      <trkpt lat="47.12325" lon="-1.41554">
        <ele>37.406673</ele>
        <time>2020-07-07T14:38:00Z</time>
      </trkpt>
      <trkpt lat="47.12328" lon="-1.41551">
        <ele>37.480656</ele>
        <time>2020-07-07T14:38:01Z</time>
      </trkpt>
      <trkpt lat="47.12336" lon="-1.41543">
        <ele>37.665615</ele>
        <time>2020-07-07T14:38:03Z</time>
      </trkpt>
      <trkpt lat="47.1234" lon="-1.41539">
        <ele>37.364395</ele>
        <time>2020-07-07T14:38:04Z</time>
      </trkpt>
      <trkpt lat="47.12344" lon="-1.41535">
        <ele>37.081673</ele>
        <time>2020-07-07T14:38:05Z</time>
      </trkpt>
      <trkpt lat="47.12348" lon="-1.4153">
        <ele>36.783096</ele>
        <time>2020-07-07T14:38:06Z</time>
      </trkpt>
      <trkpt lat="47.12352" lon="-1.41526">
        <ele>36.899357</ele>
        <time>2020-07-07T14:38:07Z</time>
      </trkpt>
      <trkpt lat="47.12355" lon="-1.41521">
        <ele>36.75667</ele>
        <time>2020-07-07T14:38:08Z</time>
      </trkpt>
      <trkpt lat="47.12359" lon="-1.41515">
        <ele>36.51094</ele>
        <time>2020-07-07T14:38:09Z</time>
      </trkpt>
      <trkpt lat="47.12362" lon="-1.4151">
        <ele>36.576996</ele>
        <time>2020-07-07T14:38:10Z</time>
      </trkpt>
      <trkpt lat="47.12366" lon="-1.41505">
        <ele>36.25464</ele>
        <time>2020-07-07T14:38:11Z</time>
      </trkpt>
      <trkpt lat="47.1237" lon="-1.415">
        <ele>36.362972</ele>
        <time>2020-07-07T14:38:12Z</time>
      </trkpt>
      <trkpt lat="47.12373" lon="-1.41495">
        <ele>36.180656</ele>
        <time>2020-07-07T14:38:13Z</time>
      </trkpt>
      <trkpt lat="47.12376" lon="-1.4149">
        <ele>36.22029</ele>
        <time>2020-07-07T14:38:14Z</time>
      </trkpt>
      <trkpt lat="47.1238" lon="-1.41485">
        <ele>36.20708</ele>
        <time>2020-07-07T14:38:15Z</time>
      </trkpt>
      <trkpt lat="47.12383" lon="-1.4148">
        <ele>35.68391</ele>
        <time>2020-07-07T14:38:16Z</time>
      </trkpt>
      <trkpt lat="47.12386" lon="-1.41476">
        <ele>35.483097</ele>
        <time>2020-07-07T14:38:17Z</time>
      </trkpt>
      <trkpt lat="47.12393" lon="-1.41468">
        <ele>35.250576</ele>
        <time>2020-07-07T14:38:19Z</time>
      </trkpt>
      <trkpt lat="47.124" lon="-1.41461">
        <ele>35.353626</ele>
        <time>2020-07-07T14:38:21Z</time>
      </trkpt>
      <trkpt lat="47.12408" lon="-1.41456">
        <ele>34.82253</ele>
        <time>2020-07-07T14:38:23Z</time>
      </trkpt>
      <trkpt lat="47.12415" lon="-1.41451">
        <ele>35.213585</ele>
        <time>2020-07-07T14:38:25Z</time>
      </trkpt>
      <trkpt lat="47.12423" lon="-1.41445">
        <ele>35.22944</ele>
        <time>2020-07-07T14:38:27Z</time>
      </trkpt>
      <trkpt lat="47.12428" lon="-1.41442">
        <ele>34.954643</ele>
        <time>2020-07-07T14:38:28Z</time>
      </trkpt>
      <trkpt lat="47.12432" lon="-1.41437">
        <ele>34.352203</ele>
        <time>2020-07-07T14:38:29Z</time>
      </trkpt>
      <trkpt lat="47.12437" lon="-1.41433">
        <ele>34.716835</ele>
        <time>2020-07-07T14:38:30Z</time>
      </trkpt>
      <trkpt lat="47.12441" lon="-1.41428">
        <ele>34.320496</ele>
        <time>2020-07-07T14:38:31Z</time>
      </trkpt>
      <trkpt lat="47.12445" lon="-1.41423">
        <ele>34.053627</ele>
        <time>2020-07-07T14:38:32Z</time>
      </trkpt>
      <trkpt lat="47.12447" lon="-1.41416">
        <ele>33.55952</ele>
        <time>2020-07-07T14:38:33Z</time>
      </trkpt>
      <trkpt lat="47.12449" lon="-1.41409">
        <ele>33.728626</ele>
        <time>2020-07-07T14:38:34Z</time>
      </trkpt>
      <trkpt lat="47.12451" lon="-1.41402">
        <ele>33.527813</ele>
        <time>2020-07-07T14:38:35Z</time>
      </trkpt>
      <trkpt lat="47.12454" lon="-1.4139">
        <ele>33.408913</ele>
        <time>2020-07-07T14:38:37Z</time>
      </trkpt>
      <trkpt lat="47.12455" lon="-1.41377">
        <ele>33.35078</ele>
        <time>2020-07-07T14:38:39Z</time>
      </trkpt>
      <trkpt lat="47.12452" lon="-1.41365">
        <ele>32.970295</ele>
        <time>2020-07-07T14:38:41Z</time>
      </trkpt>
      <trkpt lat="47.12447" lon="-1.41355">
        <ele>33.1394</ele>
        <time>2020-07-07T14:38:43Z</time>
      </trkpt>
      <trkpt lat="47.12444" lon="-1.41349">
        <ele>33.435333</ele>
        <time>2020-07-07T14:38:44Z</time>
      </trkpt>
      <trkpt lat="47.12441" lon="-1.41343">
        <ele>33.242447</ele>
        <time>2020-07-07T14:38:45Z</time>
      </trkpt>
      <trkpt lat="47.12438" lon="-1.41337">
        <ele>33.345497</ele>
        <time>2020-07-07T14:38:46Z</time>
      </trkpt>
      <trkpt lat="47.12435" lon="-1.41331">
        <ele>33.345497</ele>
        <time>2020-07-07T14:38:47Z</time>
      </trkpt>
      <trkpt lat="47.12432" lon="-1.41325">
        <ele>32.925377</ele>
        <time>2020-07-07T14:38:48Z</time>
      </trkpt>
      <trkpt lat="47.12429" lon="-1.41319">
        <ele>33.168465</ele>
        <time>2020-07-07T14:38:49Z</time>
      </trkpt>
      <trkpt lat="47.12425" lon="-1.41312">
        <ele>33.075985</ele>
        <time>2020-07-07T14:38:50Z</time>
      </trkpt>
      <trkpt lat="47.12422" lon="-1.41304">
        <ele>32.70871</ele>
        <time>2020-07-07T14:38:51Z</time>
      </trkpt>
      <trkpt lat="47.12418" lon="-1.41297">
        <ele>33.41948</ele>
        <time>2020-07-07T14:38:52Z</time>
      </trkpt>
      <trkpt lat="47.12414" lon="-1.41289">
        <ele>32.193466</ele>
        <time>2020-07-07T14:38:53Z</time>
      </trkpt>
      <trkpt lat="47.1241" lon="-1.41282">
        <ele>31.916027</ele>
        <time>2020-07-07T14:38:54Z</time>
      </trkpt>
      <trkpt lat="47.12407" lon="-1.41276">
        <ele>31.44306</ele>
        <time>2020-07-07T14:38:55Z</time>
      </trkpt>
      <trkpt lat="47.12405" lon="-1.4127">
        <ele>31.125986</ele>
        <time>2020-07-07T14:38:56Z</time>
      </trkpt>
      <trkpt lat="47.12405" lon="-1.41262">
        <ele>31.08371</ele>
        <time>2020-07-07T14:38:58Z</time>
      </trkpt>
      <trkpt lat="47.1241" lon="-1.41257">
        <ele>30.4205</ele>
        <time>2020-07-07T14:39:00Z</time>
      </trkpt>
      <trkpt lat="47.12415" lon="-1.41257">
        <ele>30.224972</ele>
        <time>2020-07-07T14:39:02Z</time>
      </trkpt>
      <trkpt lat="47.12421" lon="-1.41254">
        <ele>30.058508</ele>
        <time>2020-07-07T14:39:10Z</time>
      </trkpt>
      <trkpt lat="47.12425" lon="-1.41249">
        <ele>30.074362</ele>
        <time>2020-07-07T14:39:13Z</time>
      </trkpt>
      <trkpt lat="47.12429" lon="-1.41244">
        <ele>30.70058</ele>
        <time>2020-07-07T14:39:16Z</time>
      </trkpt>
      <trkpt lat="47.12433" lon="-1.41241">
        <ele>31.387571</ele>
        <time>2020-07-07T14:39:18Z</time>
      </trkpt>
      <trkpt lat="47.12437" lon="-1.41237">
        <ele>31.638588</ele>
        <time>2020-07-07T14:39:20Z</time>
      </trkpt>
      <trkpt lat="47.12442" lon="-1.41234">
        <ele>31.598953</ele>
        <time>2020-07-07T14:39:22Z</time>
      </trkpt>
      <trkpt lat="47.12448" lon="-1.4123">
        <ele>32.23574</ele>
        <time>2020-07-07T14:39:25Z</time>
      </trkpt>
      <trkpt lat="47.12452" lon="-1.41225">
        <ele>32.846107</ele>
        <time>2020-07-07T14:39:27Z</time>
      </trkpt>
      <trkpt lat="47.12457" lon="-1.4122">
        <ele>33.15261</ele>
        <time>2020-07-07T14:39:29Z</time>
      </trkpt>
      <trkpt lat="47.12462" lon="-1.41215">
        <ele>32.840824</ele>
        <time>2020-07-07T14:39:31Z</time>
      </trkpt>
      <trkpt lat="47.12467" lon="-1.41212">
        <ele>33.831676</ele>
        <time>2020-07-07T14:39:33Z</time>
      </trkpt>
      <trkpt lat="47.12472" lon="-1.41205">
        <ele>34.40505</ele>
        <time>2020-07-07T14:39:36Z</time>
      </trkpt>
      <trkpt lat="47.12476" lon="-1.41198">
        <ele>34.634926</ele>
        <time>2020-07-07T14:39:38Z</time>
      </trkpt>
      <trkpt lat="47.12483" lon="-1.41191">
        <ele>34.619072</ele>
        <time>2020-07-07T14:39:40Z</time>
      </trkpt>
      <trkpt lat="47.12489" lon="-1.41186">
        <ele>34.796104</ele>
        <time>2020-07-07T14:39:42Z</time>
      </trkpt>
      <trkpt lat="47.12494" lon="-1.41178">
        <ele>35.25322</ele>
        <time>2020-07-07T14:39:44Z</time>
      </trkpt>
      <trkpt lat="47.12499" lon="-1.41169">
        <ele>35.62578</ele>
        <time>2020-07-07T14:39:46Z</time>
      </trkpt>
      <trkpt lat="47.12502" lon="-1.4116">
        <ele>35.353626</ele>
        <time>2020-07-07T14:39:48Z</time>
      </trkpt>
      <trkpt lat="47.12506" lon="-1.41153">
        <ele>36.003624</ele>
        <time>2020-07-07T14:39:50Z</time>
      </trkpt>
      <trkpt lat="47.12509" lon="-1.41146">
        <ele>36.016834</ele>
        <time>2020-07-07T14:39:52Z</time>
      </trkpt>
      <trkpt lat="47.12511" lon="-1.41139">
        <ele>36.55322</ele>
        <time>2020-07-07T14:39:54Z</time>
      </trkpt>
      <trkpt lat="47.12515" lon="-1.41132">
        <ele>36.68269</ele>
        <time>2020-07-07T14:39:56Z</time>
      </trkpt>
      <trkpt lat="47.12519" lon="-1.41126">
        <ele>37.197933</ele>
        <time>2020-07-07T14:39:58Z</time>
      </trkpt>
      <trkpt lat="47.12523" lon="-1.4112">
        <ele>36.80159</ele>
        <time>2020-07-07T14:40:00Z</time>
      </trkpt>
      <trkpt lat="47.12528" lon="-1.41113">
        <ele>36.84915</ele>
        <time>2020-07-07T14:40:02Z</time>
      </trkpt>
      <trkpt lat="47.12533" lon="-1.41105">
        <ele>36.909924</ele>
        <time>2020-07-07T14:40:04Z</time>
      </trkpt>
      <trkpt lat="47.12537" lon="-1.41099">
        <ele>36.66155</ele>
        <time>2020-07-07T14:40:06Z</time>
      </trkpt>
      <trkpt lat="47.12541" lon="-1.41094">
        <ele>36.89143</ele>
        <time>2020-07-07T14:40:08Z</time>
      </trkpt>
      <trkpt lat="47.12545" lon="-1.41088">
        <ele>37.081673</ele>
        <time>2020-07-07T14:40:10Z</time>
      </trkpt>
      <trkpt lat="47.12549" lon="-1.41082">
        <ele>37.203217</ele>
        <time>2020-07-07T14:40:12Z</time>
      </trkpt>
      <trkpt lat="47.12554" lon="-1.41075">
        <ele>36.965412</ele>
        <time>2020-07-07T14:40:14Z</time>
      </trkpt>
      <trkpt lat="47.12558" lon="-1.41068">
        <ele>37.071102</ele>
        <time>2020-07-07T14:40:16Z</time>
      </trkpt>
      <trkpt lat="47.12563" lon="-1.4106">
        <ele>37.108093</ele>
        <time>2020-07-07T14:40:18Z</time>
      </trkpt>
      <trkpt lat="47.12566" lon="-1.41054">
        <ele>37.39346</ele>
        <time>2020-07-07T14:40:20Z</time>
      </trkpt>
      <trkpt lat="47.12568" lon="-1.41048">
        <ele>37.594273</ele>
        <time>2020-07-07T14:40:22Z</time>
      </trkpt>
      <trkpt lat="47.1257" lon="-1.41041">
        <ele>37.713177</ele>
        <time>2020-07-07T14:40:24Z</time>
      </trkpt>
      <trkpt lat="47.12573" lon="-1.41035">
        <ele>37.697323</ele>
        <time>2020-07-07T14:40:26Z</time>
      </trkpt>
      <trkpt lat="47.12575" lon="-1.41027">
        <ele>38.29712</ele>
        <time>2020-07-07T14:40:28Z</time>
      </trkpt>
      <trkpt lat="47.12577" lon="-1.4102">
        <ele>38.458298</ele>
        <time>2020-07-07T14:40:30Z</time>
      </trkpt>
      <trkpt lat="47.12581" lon="-1.41013">
        <ele>38.49529</ele>
        <time>2020-07-07T14:40:32Z</time>
      </trkpt>
      <trkpt lat="47.12583" lon="-1.41005">
        <ele>38.571915</ele>
        <time>2020-07-07T14:40:34Z</time>
      </trkpt>
      <trkpt lat="47.12585" lon="-1.40998">
        <ele>38.748947</ele>
        <time>2020-07-07T14:40:36Z</time>
      </trkpt>
      <trkpt lat="47.12588" lon="-1.40992">
        <ele>39.05545</ele>
        <time>2020-07-07T14:40:38Z</time>
      </trkpt>
      <trkpt lat="47.1259" lon="-1.40985">
        <ele>39.200775</ele>
        <time>2020-07-07T14:40:40Z</time>
      </trkpt>
      <trkpt lat="47.12594" lon="-1.40978">
        <ele>39.713375</ele>
        <time>2020-07-07T14:40:42Z</time>
      </trkpt>
      <trkpt lat="47.12598" lon="-1.40971">
        <ele>39.784718</ele>
        <time>2020-07-07T14:40:44Z</time>
      </trkpt>
      <trkpt lat="47.12602" lon="-1.40963">
        <ele>39.441223</ele>
        <time>2020-07-07T14:40:46Z</time>
      </trkpt>
      <trkpt lat="47.12605" lon="-1.40956">
        <ele>39.48614</ele>
        <time>2020-07-07T14:40:48Z</time>
      </trkpt>
      <trkpt lat="47.12608" lon="-1.40949">
        <ele>39.81907</ele>
        <time>2020-07-07T14:40:50Z</time>
      </trkpt>
      <trkpt lat="47.12612" lon="-1.40943">
        <ele>39.673744</ele>
        <time>2020-07-07T14:40:52Z</time>
      </trkpt>
      <trkpt lat="47.12615" lon="-1.40938">
        <ele>39.887768</ele>
        <time>2020-07-07T14:40:54Z</time>
      </trkpt>
      <trkpt lat="47.12619" lon="-1.40932">
        <ele>39.760937</ele>
        <time>2020-07-07T14:40:56Z</time>
      </trkpt>
      <trkpt lat="47.12623" lon="-1.40927">
        <ele>40.323742</ele>
        <time>2020-07-07T14:40:58Z</time>
      </trkpt>
      <trkpt lat="47.12626" lon="-1.40922">
        <ele>39.93797</ele>
        <time>2020-07-07T14:41:00Z</time>
      </trkpt>
      <trkpt lat="47.12631" lon="-1.40916">
        <ele>39.91155</ele>
        <time>2020-07-07T14:41:03Z</time>
      </trkpt>
      <trkpt lat="47.12635" lon="-1.40912">
        <ele>39.718662</ele>
        <time>2020-07-07T14:41:05Z</time>
      </trkpt>
      <trkpt lat="47.1264" lon="-1.40909">
        <ele>39.885124</ele>
        <time>2020-07-07T14:41:07Z</time>
      </trkpt>
      <trkpt lat="47.12647" lon="-1.40906">
        <ele>39.72659</ele>
        <time>2020-07-07T14:41:10Z</time>
      </trkpt>
      <trkpt lat="47.12651" lon="-1.40903">
        <ele>39.367237</ele>
        <time>2020-07-07T14:41:12Z</time>
      </trkpt>
      <trkpt lat="47.12655" lon="-1.40897">
        <ele>39.377808</ele>
        <time>2020-07-07T14:41:15Z</time>
      </trkpt>
      <trkpt lat="47.12662" lon="-1.40894">
        <ele>39.20342</ele>
        <time>2020-07-07T14:41:18Z</time>
      </trkpt>
      <trkpt lat="47.12667" lon="-1.40895">
        <ele>39.40687</ele>
        <time>2020-07-07T14:41:20Z</time>
      </trkpt>
      <trkpt lat="47.12672" lon="-1.40895">
        <ele>38.762157</ele>
        <time>2020-07-07T14:41:22Z</time>
      </trkpt>
      <trkpt lat="47.12677" lon="-1.40893">
        <ele>38.188786</ele>
        <time>2020-07-07T14:42:56Z</time>
      </trkpt>
      <trkpt lat="47.12678" lon="-1.40887">
        <ele>37.554638</ele>
        <time>2020-07-07T14:42:59Z</time>
      </trkpt>
      <trkpt lat="47.12676" lon="-1.4088">
        <ele>38.920696</ele>
        <time>2020-07-07T14:43:01Z</time>
      </trkpt>
      <trkpt lat="47.12678" lon="-1.40872">
        <ele>38.225777</ele>
        <time>2020-07-07T14:43:05Z</time>
      </trkpt>
      <trkpt lat="47.12679" lon="-1.40863">
        <ele>36.862362</ele>
        <time>2020-07-07T14:43:07Z</time>
      </trkpt>
      <trkpt lat="47.12679" lon="-1.40851">
        <ele>36.899357</ele>
        <time>2020-07-07T14:43:09Z</time>
      </trkpt>
      <trkpt lat="47.12678" lon="-1.40845">
        <ele>37.306267</ele>
        <time>2020-07-07T14:43:10Z</time>
      </trkpt>
      <trkpt lat="47.12677" lon="-1.40838">
        <ele>37.026184</ele>
        <time>2020-07-07T14:43:11Z</time>
      </trkpt>
      <trkpt lat="47.12676" lon="-1.40831">
        <ele>36.55586</ele>
        <time>2020-07-07T14:43:12Z</time>
      </trkpt>
      <trkpt lat="47.12676" lon="-1.40824">
        <ele>36.42903</ele>
        <time>2020-07-07T14:43:13Z</time>
      </trkpt>
      <trkpt lat="47.12674" lon="-1.40817">
        <ele>36.307487</ele>
        <time>2020-07-07T14:43:14Z</time>
      </trkpt>
      <trkpt lat="47.12674" lon="-1.40809">
        <ele>35.792244</ele>
        <time>2020-07-07T14:43:15Z</time>
      </trkpt>
      <trkpt lat="47.12673" lon="-1.40802">
        <ele>35.956062</ele>
        <time>2020-07-07T14:43:16Z</time>
      </trkpt>
      <trkpt lat="47.12672" lon="-1.40795">
        <ele>35.945496</ele>
        <time>2020-07-07T14:43:17Z</time>
      </trkpt>
      <trkpt lat="47.12672" lon="-1.40788">
        <ele>35.860943</ele>
        <time>2020-07-07T14:43:18Z</time>
      </trkpt>
      <trkpt lat="47.12672" lon="-1.40781">
        <ele>35.596714</ele>
        <time>2020-07-07T14:43:19Z</time>
      </trkpt>
      <trkpt lat="47.12672" lon="-1.40774">
        <ele>35.41968</ele>
        <time>2020-07-07T14:43:20Z</time>
      </trkpt>
      <trkpt lat="47.12672" lon="-1.40767">
        <ele>35.21887</ele>
        <time>2020-07-07T14:43:21Z</time>
      </trkpt>
      <trkpt lat="47.12672" lon="-1.4076">
        <ele>35.739395</ele>
        <time>2020-07-07T14:43:22Z</time>
      </trkpt>
      <trkpt lat="47.12674" lon="-1.40748">
        <ele>35.142242</ele>
        <time>2020-07-07T14:43:24Z</time>
      </trkpt>
      <trkpt lat="47.12677" lon="-1.4074">
        <ele>36.28899</ele>
        <time>2020-07-07T14:43:26Z</time>
      </trkpt>
      <trkpt lat="47.1268" lon="-1.4073">
        <ele>36.701183</ele>
        <time>2020-07-07T14:43:28Z</time>
      </trkpt>
      <trkpt lat="47.12685" lon="-1.40722">
        <ele>35.509518</ele>
        <time>2020-07-07T14:43:30Z</time>
      </trkpt>
      <trkpt lat="47.1269" lon="-1.40712">
        <ele>36.415817</ele>
        <time>2020-07-07T14:43:32Z</time>
      </trkpt>
      <trkpt lat="47.12692" lon="-1.407">
        <ele>35.9085</ele>
        <time>2020-07-07T14:43:34Z</time>
      </trkpt>
      <trkpt lat="47.12693" lon="-1.40688">
        <ele>36.45017</ele>
        <time>2020-07-07T14:43:36Z</time>
      </trkpt>
      <trkpt lat="47.12694" lon="-1.40675">
        <ele>36.629845</ele>
        <time>2020-07-07T14:43:38Z</time>
      </trkpt>
      <trkpt lat="47.12695" lon="-1.40668">
        <ele>36.724964</ele>
        <time>2020-07-07T14:43:39Z</time>
      </trkpt>
      <trkpt lat="47.12695" lon="-1.40661">
        <ele>35.9085</ele>
        <time>2020-07-07T14:43:40Z</time>
      </trkpt>
      <trkpt lat="47.12696" lon="-1.40654">
        <ele>36.28899</ele>
        <time>2020-07-07T14:43:41Z</time>
      </trkpt>
      <trkpt lat="47.12696" lon="-1.40647">
        <ele>35.879436</ele>
        <time>2020-07-07T14:43:42Z</time>
      </trkpt>
      <trkpt lat="47.12697" lon="-1.4064">
        <ele>36.088177</ele>
        <time>2020-07-07T14:43:43Z</time>
      </trkpt>
      <trkpt lat="47.12698" lon="-1.40634">
        <ele>36.55586</ele>
        <time>2020-07-07T14:43:44Z</time>
      </trkpt>
      <trkpt lat="47.12699" lon="-1.40627">
        <ele>36.413177</ele>
        <time>2020-07-07T14:43:45Z</time>
      </trkpt>
      <trkpt lat="47.12701" lon="-1.40614">
        <ele>36.761955</ele>
        <time>2020-07-07T14:43:47Z</time>
      </trkpt>
      <trkpt lat="47.12703" lon="-1.40604">
        <ele>36.83858</ele>
        <time>2020-07-07T14:43:49Z</time>
      </trkpt>
      <trkpt lat="47.12707" lon="-1.40596">
        <ele>37.372322</ele>
        <time>2020-07-07T14:43:51Z</time>
      </trkpt>
      <trkpt lat="47.1271" lon="-1.40587">
        <ele>37.435738</ele>
        <time>2020-07-07T14:43:53Z</time>
      </trkpt>
      <trkpt lat="47.12713" lon="-1.40578">
        <ele>38.212566</ele>
        <time>2020-07-07T14:43:55Z</time>
      </trkpt>
      <trkpt lat="47.12716" lon="-1.40568">
        <ele>37.628624</ele>
        <time>2020-07-07T14:43:57Z</time>
      </trkpt>
      <trkpt lat="47.12719" lon="-1.40558">
        <ele>38.072525</ele>
        <time>2020-07-07T14:43:59Z</time>
      </trkpt>
      <trkpt lat="47.12722" lon="-1.40548">
        <ele>38.363174</ele>
        <time>2020-07-07T14:44:01Z</time>
      </trkpt>
      <trkpt lat="47.12726" lon="-1.40538">
        <ele>38.109516</ele>
        <time>2020-07-07T14:44:03Z</time>
      </trkpt>
      <trkpt lat="47.1273" lon="-1.40529">
        <ele>37.82151</ele>
        <time>2020-07-07T14:44:05Z</time>
      </trkpt>
      <trkpt lat="47.12735" lon="-1.40521">
        <ele>38.24163</ele>
        <time>2020-07-07T14:44:07Z</time>
      </trkpt>
      <trkpt lat="47.12739" lon="-1.40512">
        <ele>37.8585</ele>
        <time>2020-07-07T14:44:09Z</time>
      </trkpt>
      <trkpt lat="47.12742" lon="-1.40503">
        <ele>37.78716</ele>
        <time>2020-07-07T14:44:11Z</time>
      </trkpt>
      <trkpt lat="47.12743" lon="-1.40493">
        <ele>37.258705</ele>
        <time>2020-07-07T14:44:13Z</time>
      </trkpt>
      <trkpt lat="47.12744" lon="-1.40483">
        <ele>37.308907</ele>
        <time>2020-07-07T14:44:15Z</time>
      </trkpt>
      <trkpt lat="47.12745" lon="-1.40473">
        <ele>37.631264</ele>
        <time>2020-07-07T14:44:17Z</time>
      </trkpt>
      <trkpt lat="47.12746" lon="-1.40463">
        <ele>37.30098</ele>
        <time>2020-07-07T14:44:19Z</time>
      </trkpt>
      <trkpt lat="47.12747" lon="-1.40454">
        <ele>36.84387</ele>
        <time>2020-07-07T14:44:21Z</time>
      </trkpt>
      <trkpt lat="47.12748" lon="-1.40446">
        <ele>37.1398</ele>
        <time>2020-07-07T14:44:23Z</time>
      </trkpt>
      <trkpt lat="47.12749" lon="-1.40438">
        <ele>37.50972</ele>
        <time>2020-07-07T14:44:25Z</time>
      </trkpt>
      <trkpt lat="47.12748" lon="-1.40431">
        <ele>36.759315</ele>
        <time>2020-07-07T14:44:27Z</time>
      </trkpt>
      <trkpt lat="47.12748" lon="-1.40424">
        <ele>36.98391</ele>
        <time>2020-07-07T14:46:14Z</time>
      </trkpt>
      <trkpt lat="47.12747" lon="-1.40416">
        <ele>36.310127</ele>
        <time>2020-07-07T14:46:16Z</time>
      </trkpt>
      <trkpt lat="47.12748" lon="-1.40407">
        <ele>36.77781</ele>
        <time>2020-07-07T14:46:18Z</time>
      </trkpt>
      <trkpt lat="47.12748" lon="-1.40396">
        <ele>37.203217</ele>
        <time>2020-07-07T14:46:20Z</time>
      </trkpt>
      <trkpt lat="47.12747" lon="-1.40385">
        <ele>36.68269</ele>
        <time>2020-07-07T14:46:22Z</time>
      </trkpt>
      <trkpt lat="47.12746" lon="-1.40374">
        <ele>36.468666</ele>
        <time>2020-07-07T14:46:24Z</time>
      </trkpt>
      <trkpt lat="47.12744" lon="-1.40362">
        <ele>36.06968</ele>
        <time>2020-07-07T14:46:26Z</time>
      </trkpt>
      <trkpt lat="47.12743" lon="-1.4035">
        <ele>36.56907</ele>
        <time>2020-07-07T14:46:28Z</time>
      </trkpt>
      <trkpt lat="47.12739" lon="-1.40339">
        <ele>36.714397</ele>
        <time>2020-07-07T14:46:30Z</time>
      </trkpt>
      <trkpt lat="47.12734" lon="-1.40329">
        <ele>36.360332</ele>
        <time>2020-07-07T14:46:32Z</time>
      </trkpt>
      <trkpt lat="47.12729" lon="-1.40323">
        <ele>36.82537</ele>
        <time>2020-07-07T14:46:34Z</time>
      </trkpt>
      <trkpt lat="47.12725" lon="-1.40316">
        <ele>36.841225</ele>
        <time>2020-07-07T14:46:36Z</time>
      </trkpt>
      <trkpt lat="47.12722" lon="-1.40309">
        <ele>36.600777</ele>
        <time>2020-07-07T14:46:38Z</time>
      </trkpt>
      <trkpt lat="47.1272" lon="-1.40302">
        <ele>36.73025</ele>
        <time>2020-07-07T14:46:40Z</time>
      </trkpt>
      <trkpt lat="47.12718" lon="-1.40294">
        <ele>37.028828</ele>
        <time>2020-07-07T14:46:42Z</time>
      </trkpt>
      <trkpt lat="47.12716" lon="-1.40287">
        <ele>36.86765</ele>
        <time>2020-07-07T14:46:44Z</time>
      </trkpt>
      <trkpt lat="47.12713" lon="-1.40281">
        <ele>36.96277</ele>
        <time>2020-07-07T14:46:46Z</time>
      </trkpt>
      <trkpt lat="47.1271" lon="-1.40271">
        <ele>36.56643</ele>
        <time>2020-07-07T14:46:48Z</time>
      </trkpt>
      <trkpt lat="47.12708" lon="-1.4026">
        <ele>35.69712</ele>
        <time>2020-07-07T14:46:50Z</time>
      </trkpt>
      <trkpt lat="47.12704" lon="-1.40249">
        <ele>36.31277</ele>
        <time>2020-07-07T14:46:52Z</time>
      </trkpt>
      <trkpt lat="47.127" lon="-1.40238">
        <ele>36.806877</ele>
        <time>2020-07-07T14:46:54Z</time>
      </trkpt>
      <trkpt lat="47.12696" lon="-1.40227">
        <ele>36.466022</ele>
        <time>2020-07-07T14:46:56Z</time>
      </trkpt>
      <trkpt lat="47.12692" lon="-1.40215">
        <ele>36.2335</ele>
        <time>2020-07-07T14:46:58Z</time>
      </trkpt>
      <trkpt lat="47.12689" lon="-1.40205">
        <ele>35.948135</ele>
        <time>2020-07-07T14:47:00Z</time>
      </trkpt>
      <trkpt lat="47.12685" lon="-1.40194">
        <ele>35.38269</ele>
        <time>2020-07-07T14:47:02Z</time>
      </trkpt>
      <trkpt lat="47.12683" lon="-1.40188">
        <ele>35.607285</ele>
        <time>2020-07-07T14:47:03Z</time>
      </trkpt>
      <trkpt lat="47.1268" lon="-1.40182">
        <ele>35.54387</ele>
        <time>2020-07-07T14:47:04Z</time>
      </trkpt>
      <trkpt lat="47.12679" lon="-1.40176">
        <ele>34.838383</ele>
        <time>2020-07-07T14:47:05Z</time>
      </trkpt>
      <trkpt lat="47.12675" lon="-1.40166">
        <ele>35.089397</ele>
        <time>2020-07-07T14:47:07Z</time>
      </trkpt>
      <trkpt lat="47.12671" lon="-1.4016">
        <ele>34.391838</ele>
        <time>2020-07-07T14:48:07Z</time>
      </trkpt>
      <trkpt lat="47.12675" lon="-1.40153">
        <ele>34.22009</ele>
        <time>2020-07-07T14:48:10Z</time>
      </trkpt>
      <trkpt lat="47.12681" lon="-1.4015">
        <ele>34.71948</ele>
        <time>2020-07-07T14:48:12Z</time>
      </trkpt>
      <trkpt lat="47.12688" lon="-1.40147">
        <ele>33.96643</ele>
        <time>2020-07-07T14:48:14Z</time>
      </trkpt>
      <trkpt lat="47.12692" lon="-1.40144">
        <ele>33.699562</ele>
        <time>2020-07-07T14:48:15Z</time>
      </trkpt>
      <trkpt lat="47.12697" lon="-1.40141">
        <ele>33.728626</ele>
        <time>2020-07-07T14:48:16Z</time>
      </trkpt>
      <trkpt lat="47.12702" lon="-1.40138">
        <ele>33.10241</ele>
        <time>2020-07-07T14:48:17Z</time>
      </trkpt>
      <trkpt lat="47.12706" lon="-1.40134">
        <ele>33.464397</ele>
        <time>2020-07-07T14:48:18Z</time>
      </trkpt>
      <trkpt lat="47.1271" lon="-1.4013">
        <ele>32.97558</ele>
        <time>2020-07-07T14:48:19Z</time>
      </trkpt>
      <trkpt lat="47.12715" lon="-1.40126">
        <ele>33.031067</ele>
        <time>2020-07-07T14:48:20Z</time>
      </trkpt>
      <trkpt lat="47.12721" lon="-1.4012">
        <ele>32.840824</ele>
        <time>2020-07-07T14:48:21Z</time>
      </trkpt>
      <trkpt lat="47.12725" lon="-1.40116">
        <ele>32.922733</ele>
        <time>2020-07-07T14:48:22Z</time>
      </trkpt>
      <trkpt lat="47.1273" lon="-1.4011">
        <ele>32.922733</ele>
        <time>2020-07-07T14:48:23Z</time>
      </trkpt>
      <trkpt lat="47.12736" lon="-1.40105">
        <ele>32.151188</ele>
        <time>2020-07-07T14:48:24Z</time>
      </trkpt>
      <trkpt lat="47.12742" lon="-1.401">
        <ele>32.566025</ele>
        <time>2020-07-07T14:48:25Z</time>
      </trkpt>
      <trkpt lat="47.12747" lon="-1.40095">
        <ele>32.787975</ele>
        <time>2020-07-07T14:48:26Z</time>
      </trkpt>
      <trkpt lat="47.12753" lon="-1.40089">
        <ele>32.494686</ele>
        <time>2020-07-07T14:48:27Z</time>
      </trkpt>
      <trkpt lat="47.12759" lon="-1.40084">
        <ele>32.425987</ele>
        <time>2020-07-07T14:48:28Z</time>
      </trkpt>
      <trkpt lat="47.12765" lon="-1.40078">
        <ele>32.196106</ele>
        <time>2020-07-07T14:48:29Z</time>
      </trkpt>
      <trkpt lat="47.12771" lon="-1.40072">
        <ele>32.410133</ele>
        <time>2020-07-07T14:48:30Z</time>
      </trkpt>
      <trkpt lat="47.12777" lon="-1.40067">
        <ele>32.584522</ele>
        <time>2020-07-07T14:48:31Z</time>
      </trkpt>
      <trkpt lat="47.12783" lon="-1.40061">
        <ele>32.283302</ele>
        <time>2020-07-07T14:48:32Z</time>
      </trkpt>
      <trkpt lat="47.12789" lon="-1.40055">
        <ele>32.169685</ele>
        <time>2020-07-07T14:48:33Z</time>
      </trkpt>
      <trkpt lat="47.12795" lon="-1.40049">
        <ele>32.071922</ele>
        <time>2020-07-07T14:48:34Z</time>
      </trkpt>
      <trkpt lat="47.12802" lon="-1.40043">
        <ele>31.789198</ele>
        <time>2020-07-07T14:48:35Z</time>
      </trkpt>
      <trkpt lat="47.12808" lon="-1.40036">
        <ele>32.02436</ele>
        <time>2020-07-07T14:48:36Z</time>
      </trkpt>
      <trkpt lat="47.12814" lon="-1.4003">
        <ele>32.436554</ele>
        <time>2020-07-07T14:48:37Z</time>
      </trkpt>
      <trkpt lat="47.1282" lon="-1.40025">
        <ele>31.86318</ele>
        <time>2020-07-07T14:48:38Z</time>
      </trkpt>
      <trkpt lat="47.12827" lon="-1.40019">
        <ele>32.11684</ele>
        <time>2020-07-07T14:48:39Z</time>
      </trkpt>
      <trkpt lat="47.12833" lon="-1.40013">
        <ele>32.19875</ele>
        <time>2020-07-07T14:48:40Z</time>
      </trkpt>
      <trkpt lat="47.12839" lon="-1.40007">
        <ele>32.06135</ele>
        <time>2020-07-07T14:48:41Z</time>
      </trkpt>
      <trkpt lat="47.12845" lon="-1.40001">
        <ele>32.29123</ele>
        <time>2020-07-07T14:48:42Z</time>
      </trkpt>
      <trkpt lat="47.12851" lon="-1.39995">
        <ele>31.736351</ele>
        <time>2020-07-07T14:48:43Z</time>
      </trkpt>
      <trkpt lat="47.12857" lon="-1.39989">
        <ele>31.945091</ele>
        <time>2020-07-07T14:48:44Z</time>
      </trkpt>
      <trkpt lat="47.12864" lon="-1.39984">
        <ele>31.715214</ele>
        <time>2020-07-07T14:48:45Z</time>
      </trkpt>
      <trkpt lat="47.1287" lon="-1.39977">
        <ele>32.299156</ele>
        <time>2020-07-07T14:48:46Z</time>
      </trkpt>
      <trkpt lat="47.12875" lon="-1.39972">
        <ele>32.15383</ele>
        <time>2020-07-07T14:48:47Z</time>
      </trkpt>
      <trkpt lat="47.12881" lon="-1.39967">
        <ele>32.529034</ele>
        <time>2020-07-07T14:48:48Z</time>
      </trkpt>
      <trkpt lat="47.12888" lon="-1.39962">
        <ele>32.164402</ele>
        <time>2020-07-07T14:48:49Z</time>
      </trkpt>
      <trkpt lat="47.12894" lon="-1.39957">
        <ele>32.48676</ele>
        <time>2020-07-07T14:48:50Z</time>
      </trkpt>
      <trkpt lat="47.12901" lon="-1.39952">
        <ele>31.995295</ele>
        <time>2020-07-07T14:48:51Z</time>
      </trkpt>
      <trkpt lat="47.12908" lon="-1.39949">
        <ele>32.201393</ele>
        <time>2020-07-07T14:48:52Z</time>
      </trkpt>
      <trkpt lat="47.12915" lon="-1.39946">
        <ele>32.35993</ele>
        <time>2020-07-07T14:48:53Z</time>
      </trkpt>
      <trkpt lat="47.12922" lon="-1.39943">
        <ele>32.270092</ele>
        <time>2020-07-07T14:48:54Z</time>
      </trkpt>
      <trkpt lat="47.12929" lon="-1.39941">
        <ele>32.169685</ele>
        <time>2020-07-07T14:48:55Z</time>
      </trkpt>
      <trkpt lat="47.12936" lon="-1.39938">
        <ele>32.809116</ele>
        <time>2020-07-07T14:48:56Z</time>
      </trkpt>
      <trkpt lat="47.12942" lon="-1.39936">
        <ele>32.603016</ele>
        <time>2020-07-07T14:48:57Z</time>
      </trkpt>
      <trkpt lat="47.12948" lon="-1.39934">
        <ele>33.017853</ele>
        <time>2020-07-07T14:48:58Z</time>
      </trkpt>
      <trkpt lat="47.12954" lon="-1.39931">
        <ele>32.819683</ele>
        <time>2020-07-07T14:48:59Z</time>
      </trkpt>
      <trkpt lat="47.12959" lon="-1.39929">
        <ele>33.110332</ele>
        <time>2020-07-07T14:49:00Z</time>
      </trkpt>
      <trkpt lat="47.12964" lon="-1.39926">
        <ele>33.242447</ele>
        <time>2020-07-07T14:49:01Z</time>
      </trkpt>
      <trkpt lat="47.12968" lon="-1.39927">
        <ele>33.316433</ele>
        <time>2020-07-07T14:49:02Z</time>
      </trkpt>
      <trkpt lat="47.12973" lon="-1.39927">
        <ele>33.134113</ele>
        <time>2020-07-07T14:49:03Z</time>
      </trkpt>
      <trkpt lat="47.12978" lon="-1.39929">
        <ele>33.19753</ele>
        <time>2020-07-07T14:49:04Z</time>
      </trkpt>
      <trkpt lat="47.12983" lon="-1.39931">
        <ele>33.247734</ele>
        <time>2020-07-07T14:49:05Z</time>
      </trkpt>
      <trkpt lat="47.12988" lon="-1.39933">
        <ele>32.449764</ele>
        <time>2020-07-07T14:49:06Z</time>
      </trkpt>
      <trkpt lat="47.12992" lon="-1.39933">
        <ele>32.914806</ele>
        <time>2020-07-07T14:49:07Z</time>
      </trkpt>
      <trkpt lat="47.12997" lon="-1.39934">
        <ele>32.43391</ele>
        <time>2020-07-07T14:49:08Z</time>
      </trkpt>
      <trkpt lat="47.13005" lon="-1.39936">
        <ele>33.020496</ele>
        <time>2020-07-07T14:49:10Z</time>
      </trkpt>
      <trkpt lat="47.13012" lon="-1.39939">
        <ele>32.946514</ele>
        <time>2020-07-07T14:49:12Z</time>
      </trkpt>
      <trkpt lat="47.13017" lon="-1.39942">
        <ele>32.872528</ele>
        <time>2020-07-07T14:49:14Z</time>
      </trkpt>
      <trkpt lat="47.13023" lon="-1.39949">
        <ele>32.555458</ele>
        <time>2020-07-07T14:49:16Z</time>
      </trkpt>
      <trkpt lat="47.13028" lon="-1.39954">
        <ele>32.817043</ele>
        <time>2020-07-07T14:49:17Z</time>
      </trkpt>
      <trkpt lat="47.13032" lon="-1.39959">
        <ele>32.196106</ele>
        <time>2020-07-07T14:49:18Z</time>
      </trkpt>
      <trkpt lat="47.13036" lon="-1.39964">
        <ele>32.83818</ele>
        <time>2020-07-07T14:49:19Z</time>
      </trkpt>
      <trkpt lat="47.13042" lon="-1.39967">
        <ele>32.264805</ele>
        <time>2020-07-07T14:49:20Z</time>
      </trkpt>
      <trkpt lat="47.13047" lon="-1.3997">
        <ele>31.342653</ele>
        <time>2020-07-07T14:49:21Z</time>
      </trkpt>
      <trkpt lat="47.13053" lon="-1.39974">
        <ele>31.879034</ele>
        <time>2020-07-07T14:49:22Z</time>
      </trkpt>
      <trkpt lat="47.13059" lon="-1.39978">
        <ele>32.137978</ele>
        <time>2020-07-07T14:49:23Z</time>
      </trkpt>
      <trkpt lat="47.13064" lon="-1.39982">
        <ele>31.67558</ele>
        <time>2020-07-07T14:49:24Z</time>
      </trkpt>
      <trkpt lat="47.1307" lon="-1.39986">
        <ele>31.543467</ele>
        <time>2020-07-07T14:49:25Z</time>
      </trkpt>
      <trkpt lat="47.13076" lon="-1.3999">
        <ele>31.073141</ele>
        <time>2020-07-07T14:49:26Z</time>
      </trkpt>
      <trkpt lat="47.13081" lon="-1.39994">
        <ele>31.194685</ele>
        <time>2020-07-07T14:49:27Z</time>
      </trkpt>
      <trkpt lat="47.13087" lon="-1.39997">
        <ele>31.678223</ele>
        <time>2020-07-07T14:49:28Z</time>
      </trkpt>
      <trkpt lat="47.13093" lon="-1.4">
        <ele>31.543467</ele>
        <time>2020-07-07T14:49:29Z</time>
      </trkpt>
      <trkpt lat="47.13099" lon="-1.40003">
        <ele>31.52497</ele>
        <time>2020-07-07T14:49:30Z</time>
      </trkpt>
      <trkpt lat="47.13104" lon="-1.40005">
        <ele>31.577816</ele>
        <time>2020-07-07T14:49:31Z</time>
      </trkpt>
      <trkpt lat="47.13109" lon="-1.40008">
        <ele>31.82883</ele>
        <time>2020-07-07T14:49:32Z</time>
      </trkpt>
      <trkpt lat="47.13117" lon="-1.40009">
        <ele>31.865824</ele>
        <time>2020-07-07T14:49:34Z</time>
      </trkpt>
      <trkpt lat="47.13123" lon="-1.40011">
        <ele>31.244888</ele>
        <time>2020-07-07T14:49:41Z</time>
      </trkpt>
      <trkpt lat="47.13128" lon="-1.40015">
        <ele>30.867044</ele>
        <time>2020-07-07T14:49:43Z</time>
      </trkpt>
      <trkpt lat="47.13134" lon="-1.40017">
        <ele>31.170906</ele>
        <time>2020-07-07T14:49:45Z</time>
      </trkpt>
      <trkpt lat="47.1314" lon="-1.4002">
        <ele>31.170906</ele>
        <time>2020-07-07T14:49:47Z</time>
      </trkpt>
      <trkpt lat="47.13145" lon="-1.40023">
        <ele>31.59367</ele>
        <time>2020-07-07T14:49:49Z</time>
      </trkpt>
      <trkpt lat="47.1315" lon="-1.40024">
        <ele>31.633303</ele>
        <time>2020-07-07T14:49:51Z</time>
      </trkpt>
      <trkpt lat="47.13154" lon="-1.40016">
        <ele>30.951597</ele>
        <time>2020-07-07T14:49:52Z</time>
      </trkpt>
      <trkpt lat="47.13157" lon="-1.40005">
        <ele>30.06115</ele>
        <time>2020-07-07T14:49:55Z</time>
      </trkpt>
      <trkpt lat="47.13161" lon="-1.39994">
        <ele>30.098143</ele>
        <time>2020-07-07T14:49:56Z</time>
      </trkpt>
      <trkpt lat="47.13162" lon="-1.39987">
        <ele>29.551191</ele>
        <time>2020-07-07T14:49:59Z</time>
      </trkpt>
      <trkpt lat="47.13165" lon="-1.39978">
        <ele>30.077003</ele>
        <time>2020-07-07T14:50:43Z</time>
      </trkpt>
      <trkpt lat="47.13167" lon="-1.39969">
        <ele>30.034727</ele>
        <time>2020-07-07T14:50:45Z</time>
      </trkpt>
      <trkpt lat="47.13171" lon="-1.39958">
        <ele>29.017452</ele>
        <time>2020-07-07T14:50:47Z</time>
      </trkpt>
      <trkpt lat="47.13173" lon="-1.39949">
        <ele>29.709728</ele>
        <time>2020-07-07T14:50:49Z</time>
      </trkpt>
      <trkpt lat="47.13171" lon="-1.3994">
        <ele>30.396719</ele>
        <time>2020-07-07T14:50:52Z</time>
      </trkpt>
      <trkpt lat="47.13163" lon="-1.39936">
        <ele>30.224972</ele>
        <time>2020-07-07T14:50:54Z</time>
      </trkpt>
      <trkpt lat="47.13159" lon="-1.39935">
        <ele>29.939606</ele>
        <time>2020-07-07T14:50:55Z</time>
      </trkpt>
      <trkpt lat="47.1315" lon="-1.39931">
        <ele>30.904036</ele>
        <time>2020-07-07T14:50:57Z</time>
      </trkpt>
      <trkpt lat="47.13142" lon="-1.39926">
        <ele>31.078426</ele>
        <time>2020-07-07T14:50:59Z</time>
      </trkpt>
      <trkpt lat="47.13133" lon="-1.39923">
        <ele>31.144482</ele>
        <time>2020-07-07T14:51:01Z</time>
      </trkpt>
      <trkpt lat="47.13126" lon="-1.39919">
        <ele>30.837978</ele>
        <time>2020-07-07T14:51:03Z</time>
      </trkpt>
      <trkpt lat="47.13121" lon="-1.39914">
        <ele>32.344074</ele>
        <time>2020-07-07T14:51:05Z</time>
      </trkpt>
      <trkpt lat="47.13118" lon="-1.39909">
        <ele>31.303019</ele>
        <time>2020-07-07T14:51:07Z</time>
      </trkpt>
      <trkpt lat="47.13118" lon="-1.399">
        <ele>31.226393</ele>
        <time>2020-07-07T14:51:09Z</time>
      </trkpt>
      <trkpt lat="47.1312" lon="-1.39886">
        <ele>31.633303</ele>
        <time>2020-07-07T14:51:11Z</time>
      </trkpt>
      <trkpt lat="47.13121" lon="-1.39876">
        <ele>32.011147</ele>
        <time>2020-07-07T14:51:13Z</time>
      </trkpt>
      <trkpt lat="47.13123" lon="-1.39865">
        <ele>32.333508</ele>
        <time>2020-07-07T14:51:15Z</time>
      </trkpt>
      <trkpt lat="47.13127" lon="-1.39857">
        <ele>31.231678</ele>
        <time>2020-07-07T14:51:17Z</time>
      </trkpt>
      <trkpt lat="47.13132" lon="-1.39852">
        <ele>31.64123</ele>
        <time>2020-07-07T14:51:19Z</time>
      </trkpt>
      <trkpt lat="47.13137" lon="-1.3985">
        <ele>31.009727</ele>
        <time>2020-07-07T14:51:21Z</time>
      </trkpt>
      <trkpt lat="47.13141" lon="-1.39844">
        <ele>31.11806</ele>
        <time>2020-07-07T14:51:23Z</time>
      </trkpt>
      <trkpt lat="47.13142" lon="-1.39837">
        <ele>31.5831</ele>
        <time>2020-07-07T14:51:25Z</time>
      </trkpt>
      <trkpt lat="47.13142" lon="-1.3983">
        <ele>29.926394</ele>
        <time>2020-07-07T14:52:01Z</time>
      </trkpt>
      <trkpt lat="47.13143" lon="-1.39822">
        <ele>31.765417</ele>
        <time>2020-07-07T14:52:04Z</time>
      </trkpt>
      <trkpt lat="47.13144" lon="-1.39813">
        <ele>32.82761</ele>
        <time>2020-07-07T14:52:07Z</time>
      </trkpt>
      <trkpt lat="47.13144" lon="-1.39805">
        <ele>32.299156</ele>
        <time>2020-07-07T14:52:09Z</time>
      </trkpt>
      <trkpt lat="47.13145" lon="-1.39795">
        <ele>31.131271</ele>
        <time>2020-07-07T14:52:11Z</time>
      </trkpt>
      <trkpt lat="47.13145" lon="-1.39784">
        <ele>31.950377</ele>
        <time>2020-07-07T14:52:13Z</time>
      </trkpt>
      <trkpt lat="47.13145" lon="-1.39773">
        <ele>31.413994</ele>
        <time>2020-07-07T14:52:15Z</time>
      </trkpt>
      <trkpt lat="47.13146" lon="-1.39763">
        <ele>31.503832</ele>
        <time>2020-07-07T14:52:17Z</time>
      </trkpt>
      <trkpt lat="47.13147" lon="-1.39753">
        <ele>31.538181</ele>
        <time>2020-07-07T14:52:19Z</time>
      </trkpt>
      <trkpt lat="47.13145" lon="-1.39744">
        <ele>30.790419</ele>
        <time>2020-07-07T14:52:21Z</time>
      </trkpt>
      <trkpt lat="47.13141" lon="-1.39737">
        <ele>30.896109</ele>
        <time>2020-07-07T14:52:23Z</time>
      </trkpt>
      <trkpt lat="47.13134" lon="-1.3973">
        <ele>31.355864</ele>
        <time>2020-07-07T14:52:25Z</time>
      </trkpt>
      <trkpt lat="47.13126" lon="-1.39724">
        <ele>32.14062</ele>
        <time>2020-07-07T14:52:27Z</time>
      </trkpt>
      <trkpt lat="47.13125" lon="-1.39715">
        <ele>31.30566</ele>
        <time>2020-07-07T14:52:29Z</time>
      </trkpt>
      <trkpt lat="47.13126" lon="-1.39705">
        <ele>31.236961</ele>
        <time>2020-07-07T14:52:31Z</time>
      </trkpt>
      <trkpt lat="47.13128" lon="-1.39696">
        <ele>31.102205</ele>
        <time>2020-07-07T14:52:33Z</time>
      </trkpt>
      <trkpt lat="47.13131" lon="-1.39686">
        <ele>31.115417</ele>
        <time>2020-07-07T14:52:35Z</time>
      </trkpt>
      <trkpt lat="47.13133" lon="-1.39677">
        <ele>31.202612</ele>
        <time>2020-07-07T14:52:37Z</time>
      </trkpt>
      <trkpt lat="47.13137" lon="-1.39667">
        <ele>30.8644</ele>
        <time>2020-07-07T14:52:39Z</time>
      </trkpt>
      <trkpt lat="47.13141" lon="-1.39657">
        <ele>31.252815</ele>
        <time>2020-07-07T14:52:41Z</time>
      </trkpt>
      <trkpt lat="47.13145" lon="-1.39647">
        <ele>30.729645</ele>
        <time>2020-07-07T14:52:43Z</time>
      </trkpt>
      <trkpt lat="47.13149" lon="-1.39636">
        <ele>30.80627</ele>
        <time>2020-07-07T14:52:45Z</time>
      </trkpt>
      <trkpt lat="47.13152" lon="-1.39629">
        <ele>30.354443</ele>
        <time>2020-07-07T14:52:46Z</time>
      </trkpt>
      <trkpt lat="47.13154" lon="-1.39622">
        <ele>30.481272</ele>
        <time>2020-07-07T14:52:47Z</time>
      </trkpt>
      <trkpt lat="47.13157" lon="-1.39616">
        <ele>29.60668</ele>
        <time>2020-07-07T14:52:48Z</time>
      </trkpt>
      <trkpt lat="47.13159" lon="-1.39609">
        <ele>30.26989</ele>
        <time>2020-07-07T14:52:49Z</time>
      </trkpt>
      <trkpt lat="47.13162" lon="-1.39603">
        <ele>30.391434</ele>
        <time>2020-07-07T14:52:50Z</time>
      </trkpt>
      <trkpt lat="47.13164" lon="-1.39597">
        <ele>29.664808</ele>
        <time>2020-07-07T14:52:51Z</time>
      </trkpt>
      <trkpt lat="47.13168" lon="-1.39585">
        <ele>29.942247</ele>
        <time>2020-07-07T14:52:53Z</time>
      </trkpt>
      <trkpt lat="47.1317" lon="-1.39579">
        <ele>28.917046</ele>
        <time>2020-07-07T14:52:54Z</time>
      </trkpt>
      <trkpt lat="47.13172" lon="-1.39573">
        <ele>29.5829</ele>
        <time>2020-07-07T14:52:55Z</time>
      </trkpt>
      <trkpt lat="47.13176" lon="-1.39561">
        <ele>28.46786</ele>
        <time>2020-07-07T14:52:57Z</time>
      </trkpt>
      <trkpt lat="47.13179" lon="-1.39555">
        <ele>28.610542</ele>
        <time>2020-07-07T14:52:58Z</time>
      </trkpt>
      <trkpt lat="47.13182" lon="-1.39549">
        <ele>28.576193</ele>
        <time>2020-07-07T14:52:59Z</time>
      </trkpt>
      <trkpt lat="47.13184" lon="-1.39543">
        <ele>28.692451</ele>
        <time>2020-07-07T14:53:00Z</time>
      </trkpt>
      <trkpt lat="47.13189" lon="-1.39533">
        <ele>29.5142</ele>
        <time>2020-07-07T14:53:02Z</time>
      </trkpt>
      <trkpt lat="47.13191" lon="-1.39527">
        <ele>29.672735</ele>
        <time>2020-07-07T14:53:03Z</time>
      </trkpt>
      <trkpt lat="47.13193" lon="-1.39521">
        <ele>29.881475</ele>
        <time>2020-07-07T14:53:04Z</time>
      </trkpt>
      <trkpt lat="47.13195" lon="-1.39514">
        <ele>28.425583</ele>
        <time>2020-07-07T14:53:05Z</time>
      </trkpt>
      <trkpt lat="47.13197" lon="-1.39507">
        <ele>28.57355</ele>
        <time>2020-07-07T14:53:06Z</time>
      </trkpt>
      <trkpt lat="47.13197" lon="-1.395">
        <ele>28.285542</ele>
        <time>2020-07-07T14:53:07Z</time>
      </trkpt>
      <trkpt lat="47.13198" lon="-1.39493">
        <ele>28.46786</ele>
        <time>2020-07-07T14:53:08Z</time>
      </trkpt>
      <trkpt lat="47.13198" lon="-1.39481">
        <ele>28.541843</ele>
        <time>2020-07-07T14:53:10Z</time>
      </trkpt>
      <trkpt lat="47.13199" lon="-1.3947">
        <ele>28.531273</ele>
        <time>2020-07-07T14:53:12Z</time>
      </trkpt>
      <trkpt lat="47.13199" lon="-1.39463">
        <ele>28.475786</ele>
        <time>2020-07-07T14:53:13Z</time>
      </trkpt>
      <trkpt lat="47.132" lon="-1.39456">
        <ele>28.227411</ele>
        <time>2020-07-07T14:53:14Z</time>
      </trkpt>
      <trkpt lat="47.13202" lon="-1.39449">
        <ele>29.242044</ele>
        <time>2020-07-07T14:53:15Z</time>
      </trkpt>
      <trkpt lat="47.13203" lon="-1.39441">
        <ele>28.951395</ele>
        <time>2020-07-07T14:53:16Z</time>
      </trkpt>
      <trkpt lat="47.13204" lon="-1.39434">
        <ele>27.529852</ele>
        <time>2020-07-07T14:53:17Z</time>
      </trkpt>
      <trkpt lat="47.13205" lon="-1.39427">
        <ele>28.111153</ele>
        <time>2020-07-07T14:53:18Z</time>
      </trkpt>
      <trkpt lat="47.13207" lon="-1.39414">
        <ele>27.87599</ele>
        <time>2020-07-07T14:53:20Z</time>
      </trkpt>
      <trkpt lat="47.1321" lon="-1.39403">
        <ele>28.35424</ele>
        <time>2020-07-07T14:53:22Z</time>
      </trkpt>
      <trkpt lat="47.13213" lon="-1.39394">
        <ele>27.770298</ele>
        <time>2020-07-07T14:53:24Z</time>
      </trkpt>
      <trkpt lat="47.13216" lon="-1.39385">
        <ele>28.385948</ele>
        <time>2020-07-07T14:53:26Z</time>
      </trkpt>
      <trkpt lat="47.1322" lon="-1.39377">
        <ele>27.239202</ele>
        <time>2020-07-07T14:53:28Z</time>
      </trkpt>
      <trkpt lat="47.13224" lon="-1.39366">
        <ele>27.775583</ele>
        <time>2020-07-07T14:53:30Z</time>
      </trkpt>
      <trkpt lat="47.13228" lon="-1.39355">
        <ele>26.879852</ele>
        <time>2020-07-07T14:53:32Z</time>
      </trkpt>
      <trkpt lat="47.13231" lon="-1.39345">
        <ele>26.391031</ele>
        <time>2020-07-07T14:53:34Z</time>
      </trkpt>
      <trkpt lat="47.13234" lon="-1.39333">
        <ele>26.718674</ele>
        <time>2020-07-07T14:53:36Z</time>
      </trkpt>
      <trkpt lat="47.13234" lon="-1.39322">
        <ele>26.171722</ele>
        <time>2020-07-07T14:53:38Z</time>
      </trkpt>
      <trkpt lat="47.13235" lon="-1.39312">
        <ele>26.340828</ele>
        <time>2020-07-07T14:53:40Z</time>
      </trkpt>
      <trkpt lat="47.13238" lon="-1.39303">
        <ele>25.497944</ele>
        <time>2020-07-07T14:53:42Z</time>
      </trkpt>
      <trkpt lat="47.13242" lon="-1.39294">
        <ele>26.747738</ele>
        <time>2020-07-07T14:53:44Z</time>
      </trkpt>
      <trkpt lat="47.13246" lon="-1.39284">
        <ele>26.927414</ele>
        <time>2020-07-07T14:53:46Z</time>
      </trkpt>
      <trkpt lat="47.13249" lon="-1.39274">
        <ele>27.416233</ele>
        <time>2020-07-07T14:53:48Z</time>
      </trkpt>
      <trkpt lat="47.13252" lon="-1.39262">
        <ele>27.865421</ele>
        <time>2020-07-07T14:53:50Z</time>
      </trkpt>
      <trkpt lat="47.13255" lon="-1.39252">
        <ele>27.416233</ele>
        <time>2020-07-07T14:53:52Z</time>
      </trkpt>
      <trkpt lat="47.13257" lon="-1.39241">
        <ele>27.6329</ele>
        <time>2020-07-07T14:53:54Z</time>
      </trkpt>
      <trkpt lat="47.1326" lon="-1.3923">
        <ele>28.113794</ele>
        <time>2020-07-07T14:53:56Z</time>
      </trkpt>
      <trkpt lat="47.13262" lon="-1.39221">
        <ele>28.800785</ele>
        <time>2020-07-07T14:53:58Z</time>
      </trkpt>
      <trkpt lat="47.13265" lon="-1.39211">
        <ele>29.331882</ele>
        <time>2020-07-07T14:54:00Z</time>
      </trkpt>
      <trkpt lat="47.13268" lon="-1.392">
        <ele>29.207695</ele>
        <time>2020-07-07T14:54:02Z</time>
      </trkpt>
      <trkpt lat="47.13271" lon="-1.3919">
        <ele>28.811356</ele>
        <time>2020-07-07T14:54:04Z</time>
      </trkpt>
      <trkpt lat="47.13273" lon="-1.39179">
        <ele>29.778427</ele>
        <time>2020-07-07T14:54:06Z</time>
      </trkpt>
      <trkpt lat="47.13276" lon="-1.39168">
        <ele>29.244688</ele>
        <time>2020-07-07T14:54:08Z</time>
      </trkpt>
      <trkpt lat="47.13279" lon="-1.39158">
        <ele>29.384727</ele>
        <time>2020-07-07T14:54:10Z</time>
      </trkpt>
      <trkpt lat="47.13281" lon="-1.39148">
        <ele>29.71237</ele>
        <time>2020-07-07T14:54:12Z</time>
      </trkpt>
      <trkpt lat="47.13284" lon="-1.39137">
        <ele>29.884117</ele>
        <time>2020-07-07T14:54:14Z</time>
      </trkpt>
      <trkpt lat="47.13286" lon="-1.39127">
        <ele>30.158915</ele>
        <time>2020-07-07T14:54:16Z</time>
      </trkpt>
      <trkpt lat="47.13288" lon="-1.39118">
        <ele>30.217045</ele>
        <time>2020-07-07T14:54:18Z</time>
      </trkpt>
      <trkpt lat="47.1329" lon="-1.39111">
        <ele>30.320093</ele>
        <time>2020-07-07T14:54:20Z</time>
      </trkpt>
      <trkpt lat="47.13294" lon="-1.39105">
        <ele>29.8392</ele>
        <time>2020-07-07T14:54:22Z</time>
      </trkpt>
      <trkpt lat="47.13299" lon="-1.39099">
        <ele>29.704443</ele>
        <time>2020-07-07T14:54:24Z</time>
      </trkpt>
      <trkpt lat="47.13304" lon="-1.39092">
        <ele>29.944891</ele>
        <time>2020-07-07T14:54:26Z</time>
      </trkpt>
      <trkpt lat="47.13308" lon="-1.39083">
        <ele>29.308102</ele>
        <time>2020-07-07T14:54:28Z</time>
      </trkpt>
      <trkpt lat="47.13314" lon="-1.39074">
        <ele>29.46928</ele>
        <time>2020-07-07T14:54:30Z</time>
      </trkpt>
      <trkpt lat="47.13319" lon="-1.39065">
        <ele>29.458712</ele>
        <time>2020-07-07T14:54:32Z</time>
      </trkpt>
      <trkpt lat="47.13324" lon="-1.39059">
        <ele>28.882696</ele>
        <time>2020-07-07T14:54:34Z</time>
      </trkpt>
      <trkpt lat="47.13329" lon="-1.39052">
        <ele>29.144281</ele>
        <time>2020-07-07T14:54:36Z</time>
      </trkpt>
      <trkpt lat="47.13334" lon="-1.39046">
        <ele>29.181273</ele>
        <time>2020-07-07T14:54:38Z</time>
      </trkpt>
      <trkpt lat="47.13337" lon="-1.39039">
        <ele>29.146923</ele>
        <time>2020-07-07T14:54:40Z</time>
      </trkpt>
      <trkpt lat="47.13341" lon="-1.39032">
        <ele>28.998957</ele>
        <time>2020-07-07T14:54:42Z</time>
      </trkpt>
      <trkpt lat="47.13346" lon="-1.39025">
        <ele>28.64225</ele>
        <time>2020-07-07T14:54:44Z</time>
      </trkpt>
      <trkpt lat="47.13351" lon="-1.39018">
        <ele>27.706884</ele>
        <time>2020-07-07T14:54:46Z</time>
      </trkpt>
      <trkpt lat="47.13357" lon="-1.39011">
        <ele>28.095299</ele>
        <time>2020-07-07T14:54:48Z</time>
      </trkpt>
      <trkpt lat="47.13363" lon="-1.39005">
        <ele>27.881275</ele>
        <time>2020-07-07T14:54:50Z</time>
      </trkpt>
      <trkpt lat="47.13368" lon="-1.38996">
        <ele>27.33168</ele>
        <time>2020-07-07T14:55:30Z</time>
      </trkpt>
      <trkpt lat="47.13373" lon="-1.38992">
        <ele>27.656681</ele>
        <time>2020-07-07T14:55:32Z</time>
      </trkpt>
      <trkpt lat="47.13378" lon="-1.38986">
        <ele>26.380463</ele>
        <time>2020-07-07T14:55:34Z</time>
      </trkpt>
      <trkpt lat="47.13384" lon="-1.38979">
        <ele>26.723959</ele>
        <time>2020-07-07T14:55:36Z</time>
      </trkpt>
      <trkpt lat="47.1339" lon="-1.38971">
        <ele>26.642048</ele>
        <time>2020-07-07T14:55:38Z</time>
      </trkpt>
      <trkpt lat="47.13393" lon="-1.38966">
        <ele>25.36583</ele>
        <time>2020-07-07T14:55:39Z</time>
      </trkpt>
      <trkpt lat="47.13396" lon="-1.38961">
        <ele>25.135952</ele>
        <time>2020-07-07T14:55:40Z</time>
      </trkpt>
      <trkpt lat="47.13399" lon="-1.38956">
        <ele>25.225788</ele>
        <time>2020-07-07T14:55:41Z</time>
      </trkpt>
      <trkpt lat="47.13402" lon="-1.3895">
        <ele>25.86522</ele>
        <time>2020-07-07T14:55:42Z</time>
      </trkpt>
      <trkpt lat="47.13405" lon="-1.38945">
        <ele>25.339407</ele>
        <time>2020-07-07T14:55:43Z</time>
      </trkpt>
      <trkpt lat="47.13409" lon="-1.38936">
        <ele>24.433107</ele>
        <time>2020-07-07T14:55:45Z</time>
      </trkpt>
      <trkpt lat="47.13412" lon="-1.3893">
        <ele>23.754042</ele>
        <time>2020-07-07T14:55:46Z</time>
      </trkpt>
      <trkpt lat="47.13415" lon="-1.38925">
        <ele>24.227009</ele>
        <time>2020-07-07T14:55:47Z</time>
      </trkpt>
      <trkpt lat="47.13418" lon="-1.38919">
        <ele>23.175385</ele>
        <time>2020-07-07T14:55:48Z</time>
      </trkpt>
      <trkpt lat="47.13421" lon="-1.38913">
        <ele>23.497742</ele>
        <time>2020-07-07T14:55:49Z</time>
      </trkpt>
      <trkpt lat="47.13424" lon="-1.38907">
        <ele>23.178026</ele>
        <time>2020-07-07T14:55:50Z</time>
      </trkpt>
      <trkpt lat="47.13428" lon="-1.38901">
        <ele>22.699776</ele>
        <time>2020-07-07T14:55:51Z</time>
      </trkpt>
      <trkpt lat="47.13434" lon="-1.38891">
        <ele>22.837173</ele>
        <time>2020-07-07T14:55:53Z</time>
      </trkpt>
      <trkpt lat="47.13438" lon="-1.3888">
        <ele>21.959938</ele>
        <time>2020-07-07T14:55:56Z</time>
      </trkpt>
      <trkpt lat="47.13436" lon="-1.38874">
        <ele>23.259937</ele>
        <time>2020-07-07T14:55:58Z</time>
      </trkpt>
      <trkpt lat="47.13433" lon="-1.38868">
        <ele>23.47396</ele>
        <time>2020-07-07T14:56:00Z</time>
      </trkpt>
      <trkpt lat="47.13429" lon="-1.3886">
        <ele>23.40262</ele>
        <time>2020-07-07T14:56:02Z</time>
      </trkpt>
      <trkpt lat="47.13424" lon="-1.38854">
        <ele>23.325994</ele>
        <time>2020-07-07T14:56:04Z</time>
      </trkpt>
      <trkpt lat="47.13419" lon="-1.38846">
        <ele>23.870302</ele>
        <time>2020-07-07T14:56:06Z</time>
      </trkpt>
      <trkpt lat="47.13411" lon="-1.38838">
        <ele>23.904652</ele>
        <time>2020-07-07T14:56:08Z</time>
      </trkpt>
      <trkpt lat="47.13404" lon="-1.38829">
        <ele>24.213799</ele>
        <time>2020-07-07T14:56:10Z</time>
      </trkpt>
      <trkpt lat="47.13401" lon="-1.38824">
        <ele>24.34327</ele>
        <time>2020-07-07T14:56:11Z</time>
      </trkpt>
      <trkpt lat="47.13397" lon="-1.3882">
        <ele>24.097538</ele>
        <time>2020-07-07T14:56:12Z</time>
      </trkpt>
      <trkpt lat="47.13393" lon="-1.38815">
        <ele>24.620708</ele>
        <time>2020-07-07T14:56:13Z</time>
      </trkpt>
      <trkpt lat="47.13386" lon="-1.38806">
        <ele>24.771318</ele>
        <time>2020-07-07T14:56:15Z</time>
      </trkpt>
      <trkpt lat="47.13382" lon="-1.38801">
        <ele>25.014406</ele>
        <time>2020-07-07T14:56:16Z</time>
      </trkpt>
      <trkpt lat="47.13376" lon="-1.38792">
        <ele>24.787172</ele>
        <time>2020-07-07T14:56:18Z</time>
      </trkpt>
      <trkpt lat="47.13371" lon="-1.38783">
        <ele>24.27457</ele>
        <time>2020-07-07T14:56:20Z</time>
      </trkpt>
      <trkpt lat="47.13368" lon="-1.38777">
        <ele>25.291845</ele>
        <time>2020-07-07T14:56:22Z</time>
      </trkpt>
      <trkpt lat="47.13363" lon="-1.38773">
        <ele>26.129446</ele>
        <time>2020-07-07T14:57:14Z</time>
      </trkpt>
      <trkpt lat="47.13358" lon="-1.38766">
        <ele>25.270708</ele>
        <time>2020-07-07T14:57:17Z</time>
      </trkpt>
      <trkpt lat="47.13355" lon="-1.3876">
        <ele>25.73839</ele>
        <time>2020-07-07T14:57:19Z</time>
      </trkpt>
      <trkpt lat="47.1335" lon="-1.38755">
        <ele>26.346113</ele>
        <time>2020-07-07T14:57:21Z</time>
      </trkpt>
      <trkpt lat="47.13345" lon="-1.38748">
        <ele>26.800585</ele>
        <time>2020-07-07T14:57:23Z</time>
      </trkpt>
      <trkpt lat="47.13339" lon="-1.38741">
        <ele>27.112373</ele>
        <time>2020-07-07T14:57:25Z</time>
      </trkpt>
      <trkpt lat="47.13334" lon="-1.38733">
        <ele>26.63412</ele>
        <time>2020-07-07T14:57:27Z</time>
      </trkpt>
      <trkpt lat="47.13328" lon="-1.38727">
        <ele>27.384527</ele>
        <time>2020-07-07T14:57:29Z</time>
      </trkpt>
      <trkpt lat="47.13322" lon="-1.3872">
        <ele>27.677818</ele>
        <time>2020-07-07T14:57:31Z</time>
      </trkpt>
      <trkpt lat="47.13318" lon="-1.38713">
        <ele>28.150785</ele>
        <time>2020-07-07T14:57:33Z</time>
      </trkpt>
      <trkpt lat="47.13313" lon="-1.38705">
        <ele>28.465218</ele>
        <time>2020-07-07T14:57:35Z</time>
      </trkpt>
      <trkpt lat="47.13308" lon="-1.38698">
        <ele>28.576193</ele>
        <time>2020-07-07T14:57:37Z</time>
      </trkpt>
      <trkpt lat="47.13303" lon="-1.38691">
        <ele>28.703022</ele>
        <time>2020-07-07T14:57:39Z</time>
      </trkpt>
      <trkpt lat="47.133" lon="-1.38685">
        <ele>29.971313</ele>
        <time>2020-07-07T14:57:41Z</time>
      </trkpt>
      <trkpt lat="47.13296" lon="-1.38679">
        <ele>29.53798</ele>
        <time>2020-07-07T14:57:43Z</time>
      </trkpt>
      <trkpt lat="47.13292" lon="-1.38673">
        <ele>29.7705</ele>
        <time>2020-07-07T14:57:45Z</time>
      </trkpt>
      <trkpt lat="47.13289" lon="-1.38665">
        <ele>30.256678</ele>
        <time>2020-07-07T14:57:47Z</time>
      </trkpt>
      <trkpt lat="47.13285" lon="-1.38658">
        <ele>30.11928</ele>
        <time>2020-07-07T14:57:49Z</time>
      </trkpt>
      <trkpt lat="47.13281" lon="-1.3865">
        <ele>29.8392</ele>
        <time>2020-07-07T14:57:51Z</time>
      </trkpt>
      <trkpt lat="47.13276" lon="-1.38642">
        <ele>31.0018</ele>
        <time>2020-07-07T14:57:53Z</time>
      </trkpt>
      <trkpt lat="47.13272" lon="-1.38634">
        <ele>31.033506</ele>
        <time>2020-07-07T14:57:55Z</time>
      </trkpt>
      <trkpt lat="47.13267" lon="-1.38626">
        <ele>31.02558</ele>
        <time>2020-07-07T14:57:57Z</time>
      </trkpt>
      <trkpt lat="47.13262" lon="-1.38618">
        <ele>30.594889</ele>
        <time>2020-07-07T14:57:59Z</time>
      </trkpt>
      <trkpt lat="47.13258" lon="-1.38611">
        <ele>31.19997</ele>
        <time>2020-07-07T14:58:01Z</time>
      </trkpt>
      <trkpt lat="47.13253" lon="-1.38604">
        <ele>30.96745</ele>
        <time>2020-07-07T14:58:03Z</time>
      </trkpt>
      <trkpt lat="47.1325" lon="-1.38597">
        <ele>31.358507</ele>
        <time>2020-07-07T14:58:05Z</time>
      </trkpt>
      <trkpt lat="47.13246" lon="-1.3859">
        <ele>31.004442</ele>
        <time>2020-07-07T14:58:07Z</time>
      </trkpt>
      <trkpt lat="47.13243" lon="-1.38582">
        <ele>30.436354</ele>
        <time>2020-07-07T14:58:09Z</time>
      </trkpt>
      <trkpt lat="47.13239" lon="-1.38573">
        <ele>30.203833</ele>
        <time>2020-07-07T14:58:11Z</time>
      </trkpt>
      <trkpt lat="47.13236" lon="-1.38563">
        <ele>30.409931</ele>
        <time>2020-07-07T14:58:13Z</time>
      </trkpt>
      <trkpt lat="47.13232" lon="-1.38555">
        <ele>30.803629</ele>
        <time>2020-07-07T14:58:15Z</time>
      </trkpt>
      <trkpt lat="47.13228" lon="-1.38545">
        <ele>31.033506</ele>
        <time>2020-07-07T14:58:17Z</time>
      </trkpt>
      <trkpt lat="47.13226" lon="-1.38539">
        <ele>31.252815</ele>
        <time>2020-07-07T14:58:18Z</time>
      </trkpt>
      <trkpt lat="47.13224" lon="-1.38532">
        <ele>31.054646</ele>
        <time>2020-07-07T14:58:19Z</time>
      </trkpt>
      <trkpt lat="47.1322" lon="-1.38521">
        <ele>30.00302</ele>
        <time>2020-07-07T14:58:21Z</time>
      </trkpt>
      <trkpt lat="47.13217" lon="-1.38514">
        <ele>30.055866</ele>
        <time>2020-07-07T14:58:22Z</time>
      </trkpt>
      <trkpt lat="47.13215" lon="-1.38508">
        <ele>30.325378</ele>
        <time>2020-07-07T14:58:23Z</time>
      </trkpt>
      <trkpt lat="47.13211" lon="-1.38496">
        <ele>29.53798</ele>
        <time>2020-07-07T14:58:25Z</time>
      </trkpt>
      <trkpt lat="47.13207" lon="-1.38484">
        <ele>29.588182</ele>
        <time>2020-07-07T14:58:27Z</time>
      </trkpt>
      <trkpt lat="47.13203" lon="-1.38473">
        <ele>29.273752</ele>
        <time>2020-07-07T14:58:29Z</time>
      </trkpt>
      <trkpt lat="47.132" lon="-1.38467">
        <ele>29.202412</ele>
        <time>2020-07-07T14:58:30Z</time>
      </trkpt>
      <trkpt lat="47.13196" lon="-1.38459">
        <ele>29.500988</ele>
        <time>2020-07-07T14:58:32Z</time>
      </trkpt>
      <trkpt lat="47.13195" lon="-1.38449">
        <ele>28.800785</ele>
        <time>2020-07-07T14:58:34Z</time>
      </trkpt>
      <trkpt lat="47.13194" lon="-1.38442">
        <ele>28.425583</ele>
        <time>2020-07-07T14:58:35Z</time>
      </trkpt>
      <trkpt lat="47.13193" lon="-1.38435">
        <ele>28.687168</ele>
        <time>2020-07-07T14:58:36Z</time>
      </trkpt>
      <trkpt lat="47.13191" lon="-1.38424">
        <ele>28.285542</ele>
        <time>2020-07-07T14:58:38Z</time>
      </trkpt>
      <trkpt lat="47.13187" lon="-1.38411">
        <ele>27.915625</ele>
        <time>2020-07-07T14:58:40Z</time>
      </trkpt>
      <trkpt lat="47.13186" lon="-1.38401">
        <ele>28.193062</ele>
        <time>2020-07-07T14:58:42Z</time>
      </trkpt>
      <trkpt lat="47.13182" lon="-1.38393">
        <ele>27.881275</ele>
        <time>2020-07-07T14:59:19Z</time>
      </trkpt>
      <trkpt lat="47.13179" lon="-1.38384">
        <ele>27.897127</ele>
        <time>2020-07-07T14:59:22Z</time>
      </trkpt>
      <trkpt lat="47.13177" lon="-1.38375">
        <ele>27.849567</ele>
        <time>2020-07-07T14:59:24Z</time>
      </trkpt>
      <trkpt lat="47.13173" lon="-1.38366">
        <ele>27.720095</ele>
        <time>2020-07-07T14:59:26Z</time>
      </trkpt>
      <trkpt lat="47.1317" lon="-1.38356">
        <ele>27.98168</ele>
        <time>2020-07-07T14:59:28Z</time>
      </trkpt>
      <trkpt lat="47.13166" lon="-1.38347">
        <ele>28.071518</ele>
        <time>2020-07-07T14:59:30Z</time>
      </trkpt>
      <trkpt lat="47.13162" lon="-1.38337">
        <ele>27.043673</ele>
        <time>2020-07-07T14:59:32Z</time>
      </trkpt>
      <trkpt lat="47.13159" lon="-1.38328">
        <ele>27.13351</ele>
        <time>2020-07-07T14:59:34Z</time>
      </trkpt>
      <trkpt lat="47.13156" lon="-1.38319">
        <ele>27.368673</ele>
        <time>2020-07-07T14:59:36Z</time>
      </trkpt>
      <trkpt lat="47.13152" lon="-1.38309">
        <ele>27.093876</ele>
        <time>2020-07-07T14:59:38Z</time>
      </trkpt>
      <trkpt lat="47.13148" lon="-1.38298">
        <ele>27.085949</ele>
        <time>2020-07-07T14:59:40Z</time>
      </trkpt>
      <trkpt lat="47.13144" lon="-1.38286">
        <ele>26.813795</ele>
        <time>2020-07-07T14:59:42Z</time>
      </trkpt>
      <trkpt lat="47.13141" lon="-1.38276">
        <ele>26.607698</ele>
        <time>2020-07-07T14:59:44Z</time>
      </trkpt>
      <trkpt lat="47.13138" lon="-1.38266">
        <ele>26.774162</ele>
        <time>2020-07-07T14:59:46Z</time>
      </trkpt>
      <trkpt lat="47.13139" lon="-1.38255">
        <ele>26.216642</ele>
        <time>2020-07-07T14:59:48Z</time>
      </trkpt>
      <trkpt lat="47.13141" lon="-1.38245">
        <ele>26.058105</ele>
        <time>2020-07-07T14:59:50Z</time>
      </trkpt>
      <trkpt lat="47.13144" lon="-1.38233">
        <ele>25.379042</ele>
        <time>2020-07-07T14:59:52Z</time>
      </trkpt>
      <trkpt lat="47.13145" lon="-1.38226">
        <ele>24.961561</ele>
        <time>2020-07-07T14:59:53Z</time>
      </trkpt>
      <trkpt lat="47.13147" lon="-1.38219">
        <ele>24.388187</ele>
        <time>2020-07-07T14:59:54Z</time>
      </trkpt>
      <trkpt lat="47.13148" lon="-1.38211">
        <ele>23.981277</ele>
        <time>2020-07-07T14:59:55Z</time>
      </trkpt>
      <trkpt lat="47.1315" lon="-1.38203">
        <ele>23.384125</ele>
        <time>2020-07-07T14:59:56Z</time>
      </trkpt>
      <trkpt lat="47.13151" lon="-1.38194">
        <ele>23.006279</ele>
        <time>2020-07-07T14:59:57Z</time>
      </trkpt>
      <trkpt lat="47.13154" lon="-1.38186">
        <ele>22.504248</ele>
        <time>2020-07-07T14:59:58Z</time>
      </trkpt>
      <trkpt lat="47.13158" lon="-1.38178">
        <ele>21.737988</ele>
        <time>2020-07-07T14:59:59Z</time>
      </trkpt>
      <trkpt lat="47.13162" lon="-1.3817">
        <ele>21.843678</ele>
        <time>2020-07-07T15:00:00Z</time>
      </trkpt>
      <trkpt lat="47.13165" lon="-1.38162">
        <ele>21.257093</ele>
        <time>2020-07-07T15:00:01Z</time>
      </trkpt>
      <trkpt lat="47.13169" lon="-1.38153">
        <ele>21.048353</ele>
        <time>2020-07-07T15:00:02Z</time>
      </trkpt>
      <trkpt lat="47.13172" lon="-1.38144">
        <ele>20.371931</ele>
        <time>2020-07-07T15:00:03Z</time>
      </trkpt>
      <trkpt lat="47.13174" lon="-1.38136">
        <ele>20.192257</ele>
        <time>2020-07-07T15:00:04Z</time>
      </trkpt>
      <trkpt lat="47.13177" lon="-1.38127">
        <ele>20.27681</ele>
        <time>2020-07-07T15:00:05Z</time>
      </trkpt>
      <trkpt lat="47.13179" lon="-1.38119">
        <ele>20.139412</ele>
        <time>2020-07-07T15:00:06Z</time>
      </trkpt>
      <trkpt lat="47.13181" lon="-1.3811">
        <ele>20.398354</ele>
        <time>2020-07-07T15:00:07Z</time>
      </trkpt>
      <trkpt lat="47.13181" lon="-1.38101">
        <ele>20.18433</ele>
        <time>2020-07-07T15:00:08Z</time>
      </trkpt>
      <trkpt lat="47.1318" lon="-1.38093">
        <ele>20.604452</ele>
        <time>2020-07-07T15:00:09Z</time>
      </trkpt>
      <trkpt lat="47.13179" lon="-1.38086">
        <ele>19.296526</ele>
        <time>2020-07-07T15:00:10Z</time>
      </trkpt>
      <trkpt lat="47.13178" lon="-1.38079">
        <ele>19.95181</ele>
        <time>2020-07-07T15:00:11Z</time>
      </trkpt>
      <trkpt lat="47.13178" lon="-1.38072">
        <ele>20.456484</ele>
        <time>2020-07-07T15:00:12Z</time>
      </trkpt>
      <trkpt lat="47.13178" lon="-1.38065">
        <ele>19.824982</ele>
        <time>2020-07-07T15:00:13Z</time>
      </trkpt>
      <trkpt lat="47.13177" lon="-1.38052">
        <ele>20.128843</ele>
        <time>2020-07-07T15:00:15Z</time>
      </trkpt>
      <trkpt lat="47.13177" lon="-1.38044">
        <ele>19.637379</ele>
        <time>2020-07-07T15:00:16Z</time>
      </trkpt>
      <trkpt lat="47.13177" lon="-1.38037">
        <ele>20.678436</ele>
        <time>2020-07-07T15:00:17Z</time>
      </trkpt>
      <trkpt lat="47.13176" lon="-1.38029">
        <ele>20.770916</ele>
        <time>2020-07-07T15:00:18Z</time>
      </trkpt>
      <trkpt lat="47.13176" lon="-1.38022">
        <ele>19.560753</ele>
        <time>2020-07-07T15:00:19Z</time>
      </trkpt>
      <trkpt lat="47.13176" lon="-1.38013">
        <ele>20.723354</ele>
        <time>2020-07-07T15:00:20Z</time>
      </trkpt>
      <trkpt lat="47.13176" lon="-1.38005">
        <ele>20.852825</ele>
        <time>2020-07-07T15:00:21Z</time>
      </trkpt>
      <trkpt lat="47.13175" lon="-1.37997">
        <ele>20.216038</ele>
        <time>2020-07-07T15:00:22Z</time>
      </trkpt>
      <trkpt lat="47.13176" lon="-1.37988">
        <ele>20.086567</ele>
        <time>2020-07-07T15:00:23Z</time>
      </trkpt>
      <trkpt lat="47.13175" lon="-1.3798">
        <ele>20.61502</ele>
        <time>2020-07-07T15:00:24Z</time>
      </trkpt>
      <trkpt lat="47.13175" lon="-1.37971">
        <ele>19.322948</ele>
        <time>2020-07-07T15:00:25Z</time>
      </trkpt>
      <trkpt lat="47.13175" lon="-1.37962">
        <ele>19.177624</ele>
        <time>2020-07-07T15:00:26Z</time>
      </trkpt>
      <trkpt lat="47.13174" lon="-1.37952">
        <ele>18.540836</ele>
        <time>2020-07-07T15:00:27Z</time>
      </trkpt>
      <trkpt lat="47.13174" lon="-1.37944">
        <ele>18.913397</ele>
        <time>2020-07-07T15:00:28Z</time>
      </trkpt>
      <trkpt lat="47.13174" lon="-1.37935">
        <ele>19.040226</ele>
        <time>2020-07-07T15:00:29Z</time>
      </trkpt>
      <trkpt lat="47.13173" lon="-1.37926">
        <ele>18.620104</ele>
        <time>2020-07-07T15:00:30Z</time>
      </trkpt>
      <trkpt lat="47.13173" lon="-1.37918">
        <ele>18.760145</ele>
        <time>2020-07-07T15:00:31Z</time>
      </trkpt>
      <trkpt lat="47.13173" lon="-1.37909">
        <ele>18.519697</ele>
        <time>2020-07-07T15:00:32Z</time>
      </trkpt>
      <trkpt lat="47.13173" lon="-1.37901">
        <ele>17.753439</ele>
        <time>2020-07-07T15:00:33Z</time>
      </trkpt>
      <trkpt lat="47.13173" lon="-1.37892">
        <ele>17.67417</ele>
        <time>2020-07-07T15:00:34Z</time>
      </trkpt>
      <trkpt lat="47.13173" lon="-1.37884">
        <ele>16.215635</ele>
        <time>2020-07-07T15:00:35Z</time>
      </trkpt>
      <trkpt lat="47.13173" lon="-1.37874">
        <ele>16.493074</ele>
        <time>2020-07-07T15:00:36Z</time>
      </trkpt>
      <trkpt lat="47.13172" lon="-1.37865">
        <ele>15.800798</ele>
        <time>2020-07-07T15:00:37Z</time>
      </trkpt>
      <trkpt lat="47.13172" lon="-1.37855">
        <ele>13.924784</ele>
        <time>2020-07-07T15:00:38Z</time>
      </trkpt>
      <trkpt lat="47.13171" lon="-1.37844">
        <ele>14.461165</ele>
        <time>2020-07-07T15:00:39Z</time>
      </trkpt>
      <trkpt lat="47.13171" lon="-1.37835">
        <ele>14.6038475</ele>
        <time>2020-07-07T15:00:40Z</time>
      </trkpt>
      <trkpt lat="47.1317" lon="-1.37826">
        <ele>13.142671</ele>
        <time>2020-07-07T15:00:41Z</time>
      </trkpt>
      <trkpt lat="47.1317" lon="-1.37818">
        <ele>12.775394</ele>
        <time>2020-07-07T15:00:42Z</time>
      </trkpt>
      <trkpt lat="47.13169" lon="-1.37809">
        <ele>10.862388</ele>
        <time>2020-07-07T15:00:43Z</time>
      </trkpt>
      <trkpt lat="47.13169" lon="-1.378">
        <ele>10.822754</ele>
        <time>2020-07-07T15:00:44Z</time>
      </trkpt>
      <trkpt lat="47.13169" lon="-1.3779">
        <ele>9.623161</ele>
        <time>2020-07-07T15:00:45Z</time>
      </trkpt>
      <trkpt lat="47.1317" lon="-1.3778">
        <ele>9.348365</ele>
        <time>2020-07-07T15:00:46Z</time>
      </trkpt>
      <trkpt lat="47.13173" lon="-1.37768">
        <ele>8.47113</ele>
        <time>2020-07-07T15:00:47Z</time>
      </trkpt>
      <trkpt lat="47.13175" lon="-1.37758">
        <ele>7.5991797</ele>
        <time>2020-07-07T15:00:48Z</time>
      </trkpt>
      <trkpt lat="47.13178" lon="-1.37748">
        <ele>8.080073</ele>
        <time>2020-07-07T15:00:49Z</time>
      </trkpt>
      <trkpt lat="47.13181" lon="-1.37738">
        <ele>8.484342</ele>
        <time>2020-07-07T15:00:50Z</time>
      </trkpt>
      <trkpt lat="47.13182" lon="-1.37728">
        <ele>7.863407</ele>
        <time>2020-07-07T15:00:51Z</time>
      </trkpt>
      <trkpt lat="47.13184" lon="-1.37718">
        <ele>8.214829</ele>
        <time>2020-07-07T15:00:52Z</time>
      </trkpt>
      <trkpt lat="47.13186" lon="-1.37707">
        <ele>7.4776354</ele>
        <time>2020-07-07T15:00:53Z</time>
      </trkpt>
      <trkpt lat="47.13188" lon="-1.37697">
        <ele>7.881903</ele>
        <time>2020-07-07T15:00:54Z</time>
      </trkpt>
      <trkpt lat="47.1319" lon="-1.37688">
        <ele>7.5595455</ele>
        <time>2020-07-07T15:00:55Z</time>
      </trkpt>
      <trkpt lat="47.13192" lon="-1.37679">
        <ele>7.834342</ele>
        <time>2020-07-07T15:00:56Z</time>
      </trkpt>
      <trkpt lat="47.13193" lon="-1.3767">
        <ele>8.413</ele>
        <time>2020-07-07T15:00:57Z</time>
      </trkpt>
      <trkpt lat="47.13194" lon="-1.37659">
        <ele>8.127634</ele>
        <time>2020-07-07T15:00:58Z</time>
      </trkpt>
      <trkpt lat="47.13195" lon="-1.37649">
        <ele>8.151415</ele>
        <time>2020-07-07T15:00:59Z</time>
      </trkpt>
      <trkpt lat="47.13197" lon="-1.3764">
        <ele>8.523975</ele>
        <time>2020-07-07T15:01:00Z</time>
      </trkpt>
      <trkpt lat="47.13197" lon="-1.37632">
        <ele>8.523975</ele>
        <time>2020-07-07T15:01:01Z</time>
      </trkpt>
      <trkpt lat="47.13197" lon="-1.37622">
        <ele>9.081495</ele>
        <time>2020-07-07T15:01:02Z</time>
      </trkpt>
      <trkpt lat="47.13198" lon="-1.37613">
        <ele>9.332512</ele>
        <time>2020-07-07T15:01:03Z</time>
      </trkpt>
      <trkpt lat="47.13198" lon="-1.37605">
        <ele>9.805478</ele>
        <time>2020-07-07T15:01:04Z</time>
      </trkpt>
      <trkpt lat="47.13199" lon="-1.37598">
        <ele>10.447551</ele>
        <time>2020-07-07T15:01:05Z</time>
      </trkpt>
      <trkpt lat="47.13199" lon="-1.37586">
        <ele>10.777835</ele>
        <time>2020-07-07T15:01:07Z</time>
      </trkpt>
      <trkpt lat="47.13197" lon="-1.37576">
        <ele>11.6312895</ele>
        <time>2020-07-07T15:01:09Z</time>
      </trkpt>
      <trkpt lat="47.13197" lon="-1.37568">
        <ele>12.07255</ele>
        <time>2020-07-07T15:01:11Z</time>
      </trkpt>
      <trkpt lat="47.13196" lon="-1.37559">
        <ele>12.56137</ele>
        <time>2020-07-07T15:01:14Z</time>
      </trkpt>
      <trkpt lat="47.13195" lon="-1.37551">
        <ele>12.968281</ele>
        <time>2020-07-07T15:01:16Z</time>
      </trkpt>
      <trkpt lat="47.13194" lon="-1.37543">
        <ele>13.4597435</ele>
        <time>2020-07-07T15:01:18Z</time>
      </trkpt>
      <trkpt lat="47.13194" lon="-1.37536">
        <ele>13.972344</ele>
        <time>2020-07-07T15:01:20Z</time>
      </trkpt>
      <trkpt lat="47.13194" lon="-1.37529">
        <ele>14.582709</ele>
        <time>2020-07-07T15:01:22Z</time>
      </trkpt>
      <trkpt lat="47.13193" lon="-1.37521">
        <ele>15.293482</ele>
        <time>2020-07-07T15:01:24Z</time>
      </trkpt>
      <trkpt lat="47.13193" lon="-1.37515">
        <ele>15.851001</ele>
        <time>2020-07-07T15:01:26Z</time>
      </trkpt>
      <trkpt lat="47.13192" lon="-1.37506">
        <ele>16.553846</ele>
        <time>2020-07-07T15:01:29Z</time>
      </trkpt>
      <trkpt lat="47.13191" lon="-1.37498">
        <ele>16.923765</ele>
        <time>2020-07-07T15:01:32Z</time>
      </trkpt>
      <trkpt lat="47.1319" lon="-1.3749">
        <ele>17.82478</ele>
        <time>2020-07-07T15:01:35Z</time>
      </trkpt>
      <trkpt lat="47.13189" lon="-1.37482">
        <ele>18.448357</ele>
        <time>2020-07-07T15:01:38Z</time>
      </trkpt>
      <trkpt lat="47.13187" lon="-1.37475">
        <ele>19.01116</ele>
        <time>2020-07-07T15:01:41Z</time>
      </trkpt>
      <trkpt lat="47.13186" lon="-1.37467">
        <ele>19.595104</ele>
        <time>2020-07-07T15:01:44Z</time>
      </trkpt>
      <trkpt lat="47.13184" lon="-1.37459">
        <ele>20.459127</ele>
        <time>2020-07-07T15:01:47Z</time>
      </trkpt>
      <trkpt lat="47.13183" lon="-1.37451">
        <ele>20.46177</ele>
        <time>2020-07-07T15:01:50Z</time>
      </trkpt>
      <trkpt lat="47.13181" lon="-1.37444">
        <ele>20.934736</ele>
        <time>2020-07-07T15:01:53Z</time>
      </trkpt>
      <trkpt lat="47.13179" lon="-1.37436">
        <ele>21.65872</ele>
        <time>2020-07-07T15:01:56Z</time>
      </trkpt>
      <trkpt lat="47.13178" lon="-1.37428">
        <ele>21.954655</ele>
        <time>2020-07-07T15:02:00Z</time>
      </trkpt>
      <trkpt lat="47.13177" lon="-1.37421">
        <ele>22.446117</ele>
        <time>2020-07-07T15:02:03Z</time>
      </trkpt>
      <trkpt lat="47.13176" lon="-1.37413">
        <ele>23.278433</ele>
        <time>2020-07-07T15:02:07Z</time>
      </trkpt>
      <trkpt lat="47.13174" lon="-1.37405">
        <ele>22.977215</ele>
        <time>2020-07-07T15:02:10Z</time>
      </trkpt>
      <trkpt lat="47.13173" lon="-1.37397">
        <ele>23.614002</ele>
        <time>2020-07-07T15:02:13Z</time>
      </trkpt>
      <trkpt lat="47.13171" lon="-1.37389">
        <ele>24.30892</ele>
        <time>2020-07-07T15:02:16Z</time>
      </trkpt>
      <trkpt lat="47.1317" lon="-1.37381">
        <ele>24.747538</ele>
        <time>2020-07-07T15:02:19Z</time>
      </trkpt>
      <trkpt lat="47.13169" lon="-1.37373">
        <ele>25.196724</ele>
        <time>2020-07-07T15:02:22Z</time>
      </trkpt>
      <trkpt lat="47.1317" lon="-1.37365">
        <ele>25.431887</ele>
        <time>2020-07-07T15:02:25Z</time>
      </trkpt>
      <trkpt lat="47.1317" lon="-1.37357">
        <ele>26.08717</ele>
        <time>2020-07-07T15:02:28Z</time>
      </trkpt>
      <trkpt lat="47.13177" lon="-1.3735">
        <ele>26.908916</ele>
        <time>2020-07-07T15:03:49Z</time>
      </trkpt>
      <trkpt lat="47.13182" lon="-1.37346">
        <ele>26.647333</ele>
        <time>2020-07-07T15:03:51Z</time>
      </trkpt>
      <trkpt lat="47.13187" lon="-1.37341">
        <ele>27.093876</ele>
        <time>2020-07-07T15:03:53Z</time>
      </trkpt>
      <trkpt lat="47.13193" lon="-1.37337">
        <ele>27.857494</ele>
        <time>2020-07-07T15:03:56Z</time>
      </trkpt>
      <trkpt lat="47.13197" lon="-1.37334">
        <ele>27.646112</ele>
        <time>2020-07-07T15:03:58Z</time>
      </trkpt>
      <trkpt lat="47.13203" lon="-1.37331">
        <ele>27.812574</ele>
        <time>2020-07-07T15:04:01Z</time>
      </trkpt>
      <trkpt lat="47.13208" lon="-1.37327">
        <ele>28.301395</ele>
        <time>2020-07-07T15:04:03Z</time>
      </trkpt>
      <trkpt lat="47.13212" lon="-1.37323">
        <ele>28.919687</ele>
        <time>2020-07-07T15:04:05Z</time>
      </trkpt>
      <trkpt lat="47.13216" lon="-1.37319">
        <ele>28.935541</ele>
        <time>2020-07-07T15:04:07Z</time>
      </trkpt>
      <trkpt lat="47.1322" lon="-1.37316">
        <ele>28.65546</ele>
        <time>2020-07-07T15:04:09Z</time>
      </trkpt>
      <trkpt lat="47.13224" lon="-1.37312">
        <ele>29.24733</ele>
        <time>2020-07-07T15:04:11Z</time>
      </trkpt>
      <trkpt lat="47.13229" lon="-1.37307">
        <ele>29.17599</ele>
        <time>2020-07-07T15:04:13Z</time>
      </trkpt>
      <trkpt lat="47.13232" lon="-1.37301">
        <ele>29.06237</ele>
        <time>2020-07-07T15:04:15Z</time>
      </trkpt>
      <trkpt lat="47.13235" lon="-1.37293">
        <ele>29.04916</ele>
        <time>2020-07-07T15:04:17Z</time>
      </trkpt>
      <trkpt lat="47.13236" lon="-1.37286">
        <ele>29.57233</ele>
        <time>2020-07-07T15:04:19Z</time>
      </trkpt>
      <trkpt lat="47.13236" lon="-1.37279">
        <ele>29.865622</ele>
        <time>2020-07-07T15:04:21Z</time>
      </trkpt>
      <trkpt lat="47.13236" lon="-1.37272">
        <ele>29.818062</ele>
        <time>2020-07-07T15:04:23Z</time>
      </trkpt>
      <trkpt lat="47.13233" lon="-1.37266">
        <ele>29.881475</ele>
        <time>2020-07-07T15:04:25Z</time>
      </trkpt>
      <trkpt lat="47.1323" lon="-1.37259">
        <ele>30.666231</ele>
        <time>2020-07-07T15:04:28Z</time>
      </trkpt>
      <trkpt lat="47.13229" lon="-1.37252">
        <ele>30.742857</ele>
        <time>2020-07-07T15:04:30Z</time>
      </trkpt>
      <trkpt lat="47.13226" lon="-1.37245">
        <ele>31.27131</ele>
        <time>2020-07-07T15:04:32Z</time>
      </trkpt>
      <trkpt lat="47.13224" lon="-1.37238">
        <ele>31.086353</ele>
        <time>2020-07-07T15:04:34Z</time>
      </trkpt>
      <trkpt lat="47.13223" lon="-1.37231">
        <ele>31.598953</ele>
        <time>2020-07-07T15:04:36Z</time>
      </trkpt>
      <trkpt lat="47.13221" lon="-1.37223">
        <ele>31.823547</ele>
        <time>2020-07-07T15:04:38Z</time>
      </trkpt>
      <trkpt lat="47.13219" lon="-1.37216">
        <ele>31.950377</ele>
        <time>2020-07-07T15:04:40Z</time>
      </trkpt>
      <trkpt lat="47.13217" lon="-1.37209">
        <ele>32.39692</ele>
        <time>2020-07-07T15:04:42Z</time>
      </trkpt>
      <trkpt lat="47.13215" lon="-1.37201">
        <ele>32.634724</ele>
        <time>2020-07-07T15:04:44Z</time>
      </trkpt>
      <trkpt lat="47.13212" lon="-1.37195">
        <ele>33.08391</ele>
        <time>2020-07-07T15:04:46Z</time>
      </trkpt>
      <trkpt lat="47.1321" lon="-1.37187">
        <ele>32.848747</ele>
        <time>2020-07-07T15:04:48Z</time>
      </trkpt>
      <trkpt lat="47.13208" lon="-1.37181">
        <ele>33.149967</ele>
        <time>2020-07-07T15:04:50Z</time>
      </trkpt>
      <trkpt lat="47.13205" lon="-1.37173">
        <ele>33.445904</ele>
        <time>2020-07-07T15:04:52Z</time>
      </trkpt>
      <trkpt lat="47.13201" lon="-1.37167">
        <ele>33.599155</ele>
        <time>2020-07-07T15:04:54Z</time>
      </trkpt>
      <trkpt lat="47.13197" lon="-1.37162">
        <ele>33.79997</ele>
        <time>2020-07-07T15:04:56Z</time>
      </trkpt>
      <trkpt lat="47.13191" lon="-1.37158">
        <ele>33.7022</ele>
        <time>2020-07-07T15:04:58Z</time>
      </trkpt>
      <trkpt lat="47.13185" lon="-1.37154">
        <ele>33.797325</ele>
        <time>2020-07-07T15:05:00Z</time>
      </trkpt>
      <trkpt lat="47.13179" lon="-1.37151">
        <ele>33.852814</ele>
        <time>2020-07-07T15:05:02Z</time>
      </trkpt>
      <trkpt lat="47.13173" lon="-1.37147">
        <ele>34.03513</ele>
        <time>2020-07-07T15:05:04Z</time>
      </trkpt>
      <trkpt lat="47.13167" lon="-1.37143">
        <ele>33.84753</ele>
        <time>2020-07-07T15:05:06Z</time>
      </trkpt>
      <trkpt lat="47.13162" lon="-1.3714">
        <ele>33.345497</ele>
        <time>2020-07-07T15:05:08Z</time>
      </trkpt>
      <trkpt lat="47.13157" lon="-1.37137">
        <ele>34.09326</ele>
        <time>2020-07-07T15:05:10Z</time>
      </trkpt>
      <trkpt lat="47.13152" lon="-1.37135">
        <ele>34.056267</ele>
        <time>2020-07-07T15:05:12Z</time>
      </trkpt>
      <trkpt lat="47.13148" lon="-1.37132">
        <ele>33.963787</ele>
        <time>2020-07-07T15:05:14Z</time>
      </trkpt>
      <trkpt lat="47.13143" lon="-1.37128">
        <ele>34.20159</ele>
        <time>2020-07-07T15:05:16Z</time>
      </trkpt>
      <trkpt lat="47.13137" lon="-1.37124">
        <ele>34.124966</ele>
        <time>2020-07-07T15:05:18Z</time>
      </trkpt>
      <trkpt lat="47.13131" lon="-1.37119">
        <ele>33.551594</ele>
        <time>2020-07-07T15:05:20Z</time>
      </trkpt>
      <trkpt lat="47.13125" lon="-1.37112">
        <ele>34.0457</ele>
        <time>2020-07-07T15:05:22Z</time>
      </trkpt>
      <trkpt lat="47.13121" lon="-1.37104">
        <ele>33.432693</ele>
        <time>2020-07-07T15:05:24Z</time>
      </trkpt>
      <trkpt lat="47.13117" lon="-1.37097">
        <ele>33.908302</ele>
        <time>2020-07-07T15:05:26Z</time>
      </trkpt>
      <trkpt lat="47.13113" lon="-1.37089">
        <ele>33.786755</ele>
        <time>2020-07-07T15:05:28Z</time>
      </trkpt>
      <trkpt lat="47.1311" lon="-1.37082">
        <ele>33.879234</ele>
        <time>2020-07-07T15:05:30Z</time>
      </trkpt>
      <trkpt lat="47.13108" lon="-1.37075">
        <ele>33.815823</ele>
        <time>2020-07-07T15:06:21Z</time>
      </trkpt>
      <trkpt lat="47.13111" lon="-1.37067">
        <ele>33.15261</ele>
        <time>2020-07-07T15:06:23Z</time>
      </trkpt>
      <trkpt lat="47.13113" lon="-1.3706">
        <ele>34.28086</ele>
        <time>2020-07-07T15:06:25Z</time>
      </trkpt>
      <trkpt lat="47.13114" lon="-1.37051">
        <ele>34.46582</ele>
        <time>2020-07-07T15:06:27Z</time>
      </trkpt>
      <trkpt lat="47.13115" lon="-1.37041">
        <ele>34.212162</ele>
        <time>2020-07-07T15:06:29Z</time>
      </trkpt>
      <trkpt lat="47.13116" lon="-1.3703">
        <ele>34.468464</ele>
        <time>2020-07-07T15:06:31Z</time>
      </trkpt>
      <trkpt lat="47.13118" lon="-1.37019">
        <ele>34.032486</ele>
        <time>2020-07-07T15:06:33Z</time>
      </trkpt>
      <trkpt lat="47.13118" lon="-1.37007">
        <ele>34.444683</ele>
        <time>2020-07-07T15:06:35Z</time>
      </trkpt>
      <trkpt lat="47.13119" lon="-1.36997">
        <ele>34.671917</ele>
        <time>2020-07-07T15:06:37Z</time>
      </trkpt>
      <trkpt lat="47.1312" lon="-1.36986">
        <ele>34.967854</ele>
        <time>2020-07-07T15:06:39Z</time>
      </trkpt>
      <trkpt lat="47.13121" lon="-1.36975">
        <ele>35.308704</ele>
        <time>2020-07-07T15:06:41Z</time>
      </trkpt>
      <trkpt lat="47.13123" lon="-1.36964">
        <ele>34.888584</ele>
        <time>2020-07-07T15:06:43Z</time>
      </trkpt>
      <trkpt lat="47.13124" lon="-1.36954">
        <ele>34.75383</ele>
        <time>2020-07-07T15:06:45Z</time>
      </trkpt>
      <trkpt lat="47.13124" lon="-1.36943">
        <ele>35.31399</ele>
        <time>2020-07-07T15:06:47Z</time>
      </trkpt>
      <trkpt lat="47.13124" lon="-1.36931">
        <ele>35.18716</ele>
        <time>2020-07-07T15:06:49Z</time>
      </trkpt>
      <trkpt lat="47.13124" lon="-1.36918">
        <ele>34.632282</ele>
        <time>2020-07-07T15:06:51Z</time>
      </trkpt>
      <trkpt lat="47.13124" lon="-1.36911">
        <ele>34.627</ele>
        <time>2020-07-07T15:06:52Z</time>
      </trkpt>
      <trkpt lat="47.13124" lon="-1.36904">
        <ele>34.788177</ele>
        <time>2020-07-07T15:06:53Z</time>
      </trkpt>
      <trkpt lat="47.13125" lon="-1.36897">
        <ele>34.782894</ele>
        <time>2020-07-07T15:06:54Z</time>
      </trkpt>
      <trkpt lat="47.13125" lon="-1.36889">
        <ele>34.539803</ele>
        <time>2020-07-07T15:06:55Z</time>
      </trkpt>
      <trkpt lat="47.13125" lon="-1.36882">
        <ele>34.23066</ele>
        <time>2020-07-07T15:06:56Z</time>
      </trkpt>
      <trkpt lat="47.13126" lon="-1.36874">
        <ele>33.932083</ele>
        <time>2020-07-07T15:06:57Z</time>
      </trkpt>
      <trkpt lat="47.13126" lon="-1.36867">
        <ele>33.834316</ele>
        <time>2020-07-07T15:06:58Z</time>
      </trkpt>
      <trkpt lat="47.13126" lon="-1.3686">
        <ele>34.954643</ele>
        <time>2020-07-07T15:06:59Z</time>
      </trkpt>
      <trkpt lat="47.13127" lon="-1.36853">
        <ele>34.26765</ele>
        <time>2020-07-07T15:07:00Z</time>
      </trkpt>
      <trkpt lat="47.13128" lon="-1.36846">
        <ele>34.695698</ele>
        <time>2020-07-07T15:07:01Z</time>
      </trkpt>
      <trkpt lat="47.13128" lon="-1.36839">
        <ele>34.745903</ele>
        <time>2020-07-07T15:07:02Z</time>
      </trkpt>
      <trkpt lat="47.13128" lon="-1.36831">
        <ele>33.945293</ele>
        <time>2020-07-07T15:07:03Z</time>
      </trkpt>
      <trkpt lat="47.13129" lon="-1.36823">
        <ele>33.971714</ele>
        <time>2020-07-07T15:07:04Z</time>
      </trkpt>
      <trkpt lat="47.13129" lon="-1.36816">
        <ele>33.99021</ele>
        <time>2020-07-07T15:07:05Z</time>
      </trkpt>
      <trkpt lat="47.1313" lon="-1.36808">
        <ele>34.29143</ele>
        <time>2020-07-07T15:07:06Z</time>
      </trkpt>
      <trkpt lat="47.1313" lon="-1.36799">
        <ele>34.28086</ele>
        <time>2020-07-07T15:07:07Z</time>
      </trkpt>
      <trkpt lat="47.13131" lon="-1.36792">
        <ele>34.132893</ele>
        <time>2020-07-07T15:07:08Z</time>
      </trkpt>
      <trkpt lat="47.13131" lon="-1.36783">
        <ele>33.673138</ele>
        <time>2020-07-07T15:07:09Z</time>
      </trkpt>
      <trkpt lat="47.13133" lon="-1.36775">
        <ele>33.30058</ele>
        <time>2020-07-07T15:07:10Z</time>
      </trkpt>
      <trkpt lat="47.13134" lon="-1.36767">
        <ele>33.636147</ele>
        <time>2020-07-07T15:07:11Z</time>
      </trkpt>
      <trkpt lat="47.13134" lon="-1.36759">
        <ele>33.519886</ele>
        <time>2020-07-07T15:07:12Z</time>
      </trkpt>
      <trkpt lat="47.13135" lon="-1.36752">
        <ele>34.296715</ele>
        <time>2020-07-07T15:07:13Z</time>
      </trkpt>
      <trkpt lat="47.13136" lon="-1.36745">
        <ele>34.159317</ele>
        <time>2020-07-07T15:07:14Z</time>
      </trkpt>
      <trkpt lat="47.13137" lon="-1.36737">
        <ele>33.879234</ele>
        <time>2020-07-07T15:07:15Z</time>
      </trkpt>
      <trkpt lat="47.13138" lon="-1.36729">
        <ele>34.33635</ele>
        <time>2020-07-07T15:07:16Z</time>
      </trkpt>
      <trkpt lat="47.13139" lon="-1.36722">
        <ele>34.20688</ele>
        <time>2020-07-07T15:07:17Z</time>
      </trkpt>
      <trkpt lat="47.13141" lon="-1.36715">
        <ele>33.90566</ele>
        <time>2020-07-07T15:07:18Z</time>
      </trkpt>
      <trkpt lat="47.13142" lon="-1.36708">
        <ele>34.251797</ele>
        <time>2020-07-07T15:07:19Z</time>
      </trkpt>
      <trkpt lat="47.13143" lon="-1.36701">
        <ele>34.370697</ele>
        <time>2020-07-07T15:07:20Z</time>
      </trkpt>
      <trkpt lat="47.13145" lon="-1.36695">
        <ele>34.222733</ele>
        <time>2020-07-07T15:07:21Z</time>
      </trkpt>
      <trkpt lat="47.13146" lon="-1.36682">
        <ele>34.494884</ele>
        <time>2020-07-07T15:07:23Z</time>
      </trkpt>
      <trkpt lat="47.13145" lon="-1.3667">
        <ele>34.0457</ele>
        <time>2020-07-07T15:07:25Z</time>
      </trkpt>
      <trkpt lat="47.13144" lon="-1.36657">
        <ele>33.38249</ele>
        <time>2020-07-07T15:07:27Z</time>
      </trkpt>
      <trkpt lat="47.13143" lon="-1.3665">
        <ele>33.829033</ele>
        <time>2020-07-07T15:07:28Z</time>
      </trkpt>
      <trkpt lat="47.13143" lon="-1.36643">
        <ele>33.551594</ele>
        <time>2020-07-07T15:07:29Z</time>
      </trkpt>
      <trkpt lat="47.13143" lon="-1.36635">
        <ele>33.3957</ele>
        <time>2020-07-07T15:07:30Z</time>
      </trkpt>
      <trkpt lat="47.13144" lon="-1.36627">
        <ele>33.2583</ele>
        <time>2020-07-07T15:07:31Z</time>
      </trkpt>
      <trkpt lat="47.13145" lon="-1.36618">
        <ele>33.041634</ele>
        <time>2020-07-07T15:07:32Z</time>
      </trkpt>
      <trkpt lat="47.13146" lon="-1.3661">
        <ele>32.632084</ele>
        <time>2020-07-07T15:07:33Z</time>
      </trkpt>
      <trkpt lat="47.13147" lon="-1.36601">
        <ele>32.505253</ele>
        <time>2020-07-07T15:07:34Z</time>
      </trkpt>
      <trkpt lat="47.13149" lon="-1.36592">
        <ele>31.987368</ele>
        <time>2020-07-07T15:07:35Z</time>
      </trkpt>
      <trkpt lat="47.1315" lon="-1.36583">
        <ele>31.662369</ele>
        <time>2020-07-07T15:07:36Z</time>
      </trkpt>
      <trkpt lat="47.13152" lon="-1.36575">
        <ele>31.585743</ele>
        <time>2020-07-07T15:07:37Z</time>
      </trkpt>
      <trkpt lat="47.13154" lon="-1.36567">
        <ele>31.19997</ele>
        <time>2020-07-07T15:07:38Z</time>
      </trkpt>
      <trkpt lat="47.13155" lon="-1.36558">
        <ele>31.096922</ele>
        <time>2020-07-07T15:07:39Z</time>
      </trkpt>
      <trkpt lat="47.13157" lon="-1.36548">
        <ele>31.104849</ele>
        <time>2020-07-07T15:07:40Z</time>
      </trkpt>
      <trkpt lat="47.13158" lon="-1.36539">
        <ele>30.869686</ele>
        <time>2020-07-07T15:07:41Z</time>
      </trkpt>
      <trkpt lat="47.13158" lon="-1.3653">
        <ele>30.438995</ele>
        <time>2020-07-07T15:07:42Z</time>
      </trkpt>
      <trkpt lat="47.13159" lon="-1.36521">
        <ele>29.825989</ele>
        <time>2020-07-07T15:07:43Z</time>
      </trkpt>
      <trkpt lat="47.13159" lon="-1.36511">
        <ele>29.316029</ele>
        <time>2020-07-07T15:07:44Z</time>
      </trkpt>
      <trkpt lat="47.13159" lon="-1.36501">
        <ele>29.170704</ele>
        <time>2020-07-07T15:07:45Z</time>
      </trkpt>
      <trkpt lat="47.13158" lon="-1.36491">
        <ele>29.117859</ele>
        <time>2020-07-07T15:07:46Z</time>
      </trkpt>
      <trkpt lat="47.13157" lon="-1.36481">
        <ele>29.072939</ele>
        <time>2020-07-07T15:07:47Z</time>
      </trkpt>
      <trkpt lat="47.13155" lon="-1.36471">
        <ele>28.277615</ele>
        <time>2020-07-07T15:07:48Z</time>
      </trkpt>
      <trkpt lat="47.13154" lon="-1.36461">
        <ele>28.267046</ele>
        <time>2020-07-07T15:07:49Z</time>
      </trkpt>
      <trkpt lat="47.13153" lon="-1.36452">
        <ele>27.738592</ele>
        <time>2020-07-07T15:07:50Z</time>
      </trkpt>
      <trkpt lat="47.13152" lon="-1.36442">
        <ele>27.22599</ele>
        <time>2020-07-07T15:07:51Z</time>
      </trkpt>
      <trkpt lat="47.1315" lon="-1.36433">
        <ele>27.630259</ele>
        <time>2020-07-07T15:07:52Z</time>
      </trkpt>
      <trkpt lat="47.13148" lon="-1.36424">
        <ele>27.054243</ele>
        <time>2020-07-07T15:07:53Z</time>
      </trkpt>
      <trkpt lat="47.13148" lon="-1.36415">
        <ele>26.560137</ele>
        <time>2020-07-07T15:07:54Z</time>
      </trkpt>
      <trkpt lat="47.13148" lon="-1.36406">
        <ele>26.443878</ele>
        <time>2020-07-07T15:07:55Z</time>
      </trkpt>
      <trkpt lat="47.13149" lon="-1.36396">
        <ele>26.07396</ele>
        <time>2020-07-07T15:07:56Z</time>
      </trkpt>
      <trkpt lat="47.1315" lon="-1.36387">
        <ele>25.965626</ele>
        <time>2020-07-07T15:07:57Z</time>
      </trkpt>
      <trkpt lat="47.13151" lon="-1.36377">
        <ele>25.603634</ele>
        <time>2020-07-07T15:07:58Z</time>
      </trkpt>
      <trkpt lat="47.13152" lon="-1.36368">
        <ele>24.818878</ele>
        <time>2020-07-07T15:07:59Z</time>
      </trkpt>
      <trkpt lat="47.13152" lon="-1.36358">
        <ele>24.36705</ele>
        <time>2020-07-07T15:08:00Z</time>
      </trkpt>
      <trkpt lat="47.13154" lon="-1.3635">
        <ele>24.485952</ele>
        <time>2020-07-07T15:08:01Z</time>
      </trkpt>
      <trkpt lat="47.13157" lon="-1.36341">
        <ele>23.957497</ele>
        <time>2020-07-07T15:08:02Z</time>
      </trkpt>
      <trkpt lat="47.13161" lon="-1.36334">
        <ele>24.081684</ele>
        <time>2020-07-07T15:08:03Z</time>
      </trkpt>
      <trkpt lat="47.13164" lon="-1.36326">
        <ele>23.975994</ele>
        <time>2020-07-07T15:08:04Z</time>
      </trkpt>
      <trkpt lat="47.13168" lon="-1.36319">
        <ele>23.933718</ele>
        <time>2020-07-07T15:08:05Z</time>
      </trkpt>
      <trkpt lat="47.13169" lon="-1.3631">
        <ele>23.798962</ele>
        <time>2020-07-07T15:08:06Z</time>
      </trkpt>
      <trkpt lat="47.1317" lon="-1.36301">
        <ele>23.920506</ele>
        <time>2020-07-07T15:08:07Z</time>
      </trkpt>
      <trkpt lat="47.1317" lon="-1.36292">
        <ele>23.777822</ele>
        <time>2020-07-07T15:08:08Z</time>
      </trkpt>
      <trkpt lat="47.1317" lon="-1.36284">
        <ele>23.41583</ele>
        <time>2020-07-07T15:08:09Z</time>
      </trkpt>
      <trkpt lat="47.13168" lon="-1.36277">
        <ele>23.463392</ele>
        <time>2020-07-07T15:08:10Z</time>
      </trkpt>
      <trkpt lat="47.13166" lon="-1.36269">
        <ele>23.767254</ele>
        <time>2020-07-07T15:08:11Z</time>
      </trkpt>
      <trkpt lat="47.13164" lon="-1.36263">
        <ele>23.022133</ele>
        <time>2020-07-07T15:08:12Z</time>
      </trkpt>
      <trkpt lat="47.1316" lon="-1.36258">
        <ele>23.28636</ele>
        <time>2020-07-07T15:08:13Z</time>
      </trkpt>
      <trkpt lat="47.13156" lon="-1.36251">
        <ele>22.934937</ele>
        <time>2020-07-07T15:08:14Z</time>
      </trkpt>
      <trkpt lat="47.13152" lon="-1.36245">
        <ele>22.731482</ele>
        <time>2020-07-07T15:08:15Z</time>
      </trkpt>
      <trkpt lat="47.13149" lon="-1.36239">
        <ele>22.41441</ele>
        <time>2020-07-07T15:08:16Z</time>
      </trkpt>
      <trkpt lat="47.13145" lon="-1.36232">
        <ele>21.94937</ele>
        <time>2020-07-07T15:08:17Z</time>
      </trkpt>
      <trkpt lat="47.13141" lon="-1.36225">
        <ele>21.888597</ele>
        <time>2020-07-07T15:08:18Z</time>
      </trkpt>
      <trkpt lat="47.13138" lon="-1.36219">
        <ele>22.126402</ele>
        <time>2020-07-07T15:08:19Z</time>
      </trkpt>
      <trkpt lat="47.13135" lon="-1.36212">
        <ele>21.989004</ele>
        <time>2020-07-07T15:08:20Z</time>
      </trkpt>
      <trkpt lat="47.13132" lon="-1.36206">
        <ele>21.94937</ele>
        <time>2020-07-07T15:08:21Z</time>
      </trkpt>
      <trkpt lat="47.1313" lon="-1.36199">
        <ele>21.996931</ele>
        <time>2020-07-07T15:08:22Z</time>
      </trkpt>
      <trkpt lat="47.13128" lon="-1.36194">
        <ele>21.656076</ele>
        <time>2020-07-07T15:08:23Z</time>
      </trkpt>
      <trkpt lat="47.13125" lon="-1.36185">
        <ele>21.159328</ele>
        <time>2020-07-07T15:08:25Z</time>
      </trkpt>
      <trkpt lat="47.13125" lon="-1.36176">
        <ele>20.681078</ele>
        <time>2020-07-07T15:08:28Z</time>
      </trkpt>
      <trkpt lat="47.13131" lon="-1.36169">
        <ele>21.177826</ele>
        <time>2020-07-07T15:08:30Z</time>
      </trkpt>
      <trkpt lat="47.13137" lon="-1.36166">
        <ele>20.971727</ele>
        <time>2020-07-07T15:08:31Z</time>
      </trkpt>
      <trkpt lat="47.13142" lon="-1.36164">
        <ele>21.127623</ele>
        <time>2020-07-07T15:08:32Z</time>
      </trkpt>
      <trkpt lat="47.13147" lon="-1.36163">
        <ele>20.702215</ele>
        <time>2020-07-07T15:08:33Z</time>
      </trkpt>
      <trkpt lat="47.13152" lon="-1.36163">
        <ele>21.05628</ele>
        <time>2020-07-07T15:08:34Z</time>
      </trkpt>
      <trkpt lat="47.13159" lon="-1.36162">
        <ele>20.977013</ele>
        <time>2020-07-07T15:08:35Z</time>
      </trkpt>
      <trkpt lat="47.13166" lon="-1.36161">
        <ele>20.633516</ele>
        <time>2020-07-07T15:08:36Z</time>
      </trkpt>
      <trkpt lat="47.13173" lon="-1.3616">
        <ele>20.54368</ele>
        <time>2020-07-07T15:08:37Z</time>
      </trkpt>
      <trkpt lat="47.1318" lon="-1.3616">
        <ele>20.147339</ele>
        <time>2020-07-07T15:08:38Z</time>
      </trkpt>
      <trkpt lat="47.13187" lon="-1.36161">
        <ele>20.329655</ele>
        <time>2020-07-07T15:08:39Z</time>
      </trkpt>
      <trkpt lat="47.13194" lon="-1.36162">
        <ele>19.83555</ele>
        <time>2020-07-07T15:08:40Z</time>
      </trkpt>
      <trkpt lat="47.132" lon="-1.36162">
        <ele>19.727217</ele>
        <time>2020-07-07T15:08:41Z</time>
      </trkpt>
      <trkpt lat="47.13206" lon="-1.36163">
        <ele>19.169697</ele>
        <time>2020-07-07T15:08:42Z</time>
      </trkpt>
      <trkpt lat="47.13213" lon="-1.36164">
        <ele>18.88433</ele>
        <time>2020-07-07T15:08:43Z</time>
      </trkpt>
      <trkpt lat="47.1322" lon="-1.36164">
        <ele>18.699373</ele>
        <time>2020-07-07T15:08:44Z</time>
      </trkpt>
      <trkpt lat="47.13226" lon="-1.36165">
        <ele>18.089006</ele>
        <time>2020-07-07T15:08:45Z</time>
      </trkpt>
      <trkpt lat="47.13232" lon="-1.36165">
        <ele>17.86177</ele>
        <time>2020-07-07T15:08:46Z</time>
      </trkpt>
      <trkpt lat="47.13239" lon="-1.36165">
        <ele>17.690023</ele>
        <time>2020-07-07T15:08:47Z</time>
      </trkpt>
      <trkpt lat="47.13245" lon="-1.36165">
        <ele>17.037382</ele>
        <time>2020-07-07T15:08:48Z</time>
      </trkpt>
      <trkpt lat="47.13253" lon="-1.36165">
        <ele>16.70974</ele>
        <time>2020-07-07T15:08:49Z</time>
      </trkpt>
      <trkpt lat="47.1326" lon="-1.36164">
        <ele>15.700392</ele>
        <time>2020-07-07T15:08:50Z</time>
      </trkpt>
      <trkpt lat="47.13266" lon="-1.36162">
        <ele>15.568277</ele>
        <time>2020-07-07T15:08:51Z</time>
      </trkpt>
      <trkpt lat="47.13274" lon="-1.36161">
        <ele>15.58149</ele>
        <time>2020-07-07T15:08:52Z</time>
      </trkpt>
      <trkpt lat="47.1328" lon="-1.36159">
        <ele>15.240636</ele>
        <time>2020-07-07T15:08:53Z</time>
      </trkpt>
      <trkpt lat="47.13287" lon="-1.36158">
        <ele>15.161367</ele>
        <time>2020-07-07T15:08:54Z</time>
      </trkpt>
      <trkpt lat="47.13292" lon="-1.36157">
        <ele>14.3026285</ele>
        <time>2020-07-07T15:08:55Z</time>
      </trkpt>
      <trkpt lat="47.13298" lon="-1.36156">
        <ele>14.344905</ele>
        <time>2020-07-07T15:08:56Z</time>
      </trkpt>
      <trkpt lat="47.13303" lon="-1.36153">
        <ele>13.634133</ele>
        <time>2020-07-07T15:08:57Z</time>
      </trkpt>
      <trkpt lat="47.13307" lon="-1.36148">
        <ele>12.815028</ele>
        <time>2020-07-07T15:08:58Z</time>
      </trkpt>
      <trkpt lat="47.13311" lon="-1.36142">
        <ele>12.503241</ele>
        <time>2020-07-07T15:08:59Z</time>
      </trkpt>
      <trkpt lat="47.13312" lon="-1.36133">
        <ele>12.384337</ele>
        <time>2020-07-07T15:09:00Z</time>
      </trkpt>
      <trkpt lat="47.13311" lon="-1.36123">
        <ele>12.15446</ele>
        <time>2020-07-07T15:09:01Z</time>
      </trkpt>
      <trkpt lat="47.1331" lon="-1.36114">
        <ele>12.162387</ele>
        <time>2020-07-07T15:09:02Z</time>
      </trkpt>
      <trkpt lat="47.13308" lon="-1.36106">
        <ele>11.937794</ele>
        <time>2020-07-07T15:09:03Z</time>
      </trkpt>
      <trkpt lat="47.13306" lon="-1.36097">
        <ele>11.826818</ele>
        <time>2020-07-07T15:09:04Z</time>
      </trkpt>
      <trkpt lat="47.13304" lon="-1.36088">
        <ele>11.261372</ele>
        <time>2020-07-07T15:09:05Z</time>
      </trkpt>
      <trkpt lat="47.13302" lon="-1.36079">
        <ele>11.203241</ele>
        <time>2020-07-07T15:09:06Z</time>
      </trkpt>
      <trkpt lat="47.13298" lon="-1.3607">
        <ele>11.031493</ele>
        <time>2020-07-07T15:09:07Z</time>
      </trkpt>
      <trkpt lat="47.13295" lon="-1.36062">
        <ele>10.49247</ele>
        <time>2020-07-07T15:09:08Z</time>
      </trkpt>
      <trkpt lat="47.13291" lon="-1.36054">
        <ele>10.534746</ele>
        <time>2020-07-07T15:09:09Z</time>
      </trkpt>
      <trkpt lat="47.13287" lon="-1.36046">
        <ele>10.183324</ele>
        <time>2020-07-07T15:09:10Z</time>
      </trkpt>
      <trkpt lat="47.13284" lon="-1.36037">
        <ele>10.254665</ele>
        <time>2020-07-07T15:09:11Z</time>
      </trkpt>
      <trkpt lat="47.13279" lon="-1.36029">
        <ele>10.122551</ele>
        <time>2020-07-07T15:09:12Z</time>
      </trkpt>
      <trkpt lat="47.13276" lon="-1.36021">
        <ele>9.908527</ele>
        <time>2020-07-07T15:09:13Z</time>
      </trkpt>
      <trkpt lat="47.13272" lon="-1.36013">
        <ele>9.570316</ele>
        <time>2020-07-07T15:09:14Z</time>
      </trkpt>
      <trkpt lat="47.13268" lon="-1.36006">
        <ele>10.405274</ele>
        <time>2020-07-07T15:09:15Z</time>
      </trkpt>
      <trkpt lat="47.13266" lon="-1.35998">
        <ele>11.269299</ele>
        <time>2020-07-07T15:09:16Z</time>
      </trkpt>
      <trkpt lat="47.13263" lon="-1.35991">
        <ele>10.925802</ele>
        <time>2020-07-07T15:09:17Z</time>
      </trkpt>
      <trkpt lat="47.13261" lon="-1.35983">
        <ele>11.50446</ele>
        <time>2020-07-07T15:09:18Z</time>
      </trkpt>
      <trkpt lat="47.1326" lon="-1.35976">
        <ele>11.409339</ele>
        <time>2020-07-07T15:09:19Z</time>
      </trkpt>
      <trkpt lat="47.13259" lon="-1.35968">
        <ele>11.298363</ele>
        <time>2020-07-07T15:09:20Z</time>
      </trkpt>
      <trkpt lat="47.13258" lon="-1.35961">
        <ele>11.652428</ele>
        <time>2020-07-07T15:09:21Z</time>
      </trkpt>
      <trkpt lat="47.13257" lon="-1.35953">
        <ele>11.821533</ele>
        <time>2020-07-07T15:09:22Z</time>
      </trkpt>
      <trkpt lat="47.13255" lon="-1.35946">
        <ele>11.940435</ele>
        <time>2020-07-07T15:09:23Z</time>
      </trkpt>
      <trkpt lat="47.13254" lon="-1.35938">
        <ele>11.903444</ele>
        <time>2020-07-07T15:09:24Z</time>
      </trkpt>
      <trkpt lat="47.13253" lon="-1.35929">
        <ele>12.017061</ele>
        <time>2020-07-07T15:09:25Z</time>
      </trkpt>
      <trkpt lat="47.13253" lon="-1.35921">
        <ele>12.017061</ele>
        <time>2020-07-07T15:09:26Z</time>
      </trkpt>
      <trkpt lat="47.13252" lon="-1.35912">
        <ele>11.995924</ele>
        <time>2020-07-07T15:09:27Z</time>
      </trkpt>
      <trkpt lat="47.13251" lon="-1.35904">
        <ele>11.88759</ele>
        <time>2020-07-07T15:09:28Z</time>
      </trkpt>
      <trkpt lat="47.1325" lon="-1.35896">
        <ele>11.356493</ele>
        <time>2020-07-07T15:09:29Z</time>
      </trkpt>
      <trkpt lat="47.1325" lon="-1.35887">
        <ele>11.187387</ele>
        <time>2020-07-07T15:09:30Z</time>
      </trkpt>
      <trkpt lat="47.13248" lon="-1.35878">
        <ele>11.137184</ele>
        <time>2020-07-07T15:09:31Z</time>
      </trkpt>
      <trkpt lat="47.13248" lon="-1.35869">
        <ele>10.917875</ele>
        <time>2020-07-07T15:09:32Z</time>
      </trkpt>
      <trkpt lat="47.13247" lon="-1.3586">
        <ele>10.872957</ele>
        <time>2020-07-07T15:09:33Z</time>
      </trkpt>
      <trkpt lat="47.13246" lon="-1.35852">
        <ele>10.793689</ele>
        <time>2020-07-07T15:09:34Z</time>
      </trkpt>
      <trkpt lat="47.13245" lon="-1.35843">
        <ele>10.571738</ele>
        <time>2020-07-07T15:09:35Z</time>
      </trkpt>
      <trkpt lat="47.13245" lon="-1.35834">
        <ele>10.629868</ele>
        <time>2020-07-07T15:09:36Z</time>
      </trkpt>
      <trkpt lat="47.13245" lon="-1.35826">
        <ele>10.569096</ele>
        <time>2020-07-07T15:09:37Z</time>
      </trkpt>
      <trkpt lat="47.13244" lon="-1.35817">
        <ele>10.912591</ele>
        <time>2020-07-07T15:09:38Z</time>
      </trkpt>
      <trkpt lat="47.13243" lon="-1.35809">
        <ele>10.5849495</ele>
        <time>2020-07-07T15:09:39Z</time>
      </trkpt>
      <trkpt lat="47.13242" lon="-1.35801">
        <ele>10.516251</ele>
        <time>2020-07-07T15:09:40Z</time>
      </trkpt>
      <trkpt lat="47.13242" lon="-1.35794">
        <ele>10.767266</ele>
        <time>2020-07-07T15:09:41Z</time>
      </trkpt>
      <trkpt lat="47.13241" lon="-1.35785">
        <ele>10.635153</ele>
        <time>2020-07-07T15:09:42Z</time>
      </trkpt>
      <trkpt lat="47.13241" lon="-1.35777">
        <ele>10.756697</ele>
        <time>2020-07-07T15:09:43Z</time>
      </trkpt>
      <trkpt lat="47.1324" lon="-1.35769">
        <ele>10.933729</ele>
        <time>2020-07-07T15:09:44Z</time>
      </trkpt>
      <trkpt lat="47.1324" lon="-1.35761">
        <ele>10.968079</ele>
        <time>2020-07-07T15:09:45Z</time>
      </trkpt>
      <trkpt lat="47.1324" lon="-1.35753">
        <ele>10.846535</ele>
        <time>2020-07-07T15:09:46Z</time>
      </trkpt>
      <trkpt lat="47.1324" lon="-1.35745">
        <ele>11.203241</ele>
        <time>2020-07-07T15:09:47Z</time>
      </trkpt>
      <trkpt lat="47.1324" lon="-1.35737">
        <ele>11.22438</ele>
        <time>2020-07-07T15:09:48Z</time>
      </trkpt>
      <trkpt lat="47.1324" lon="-1.3573">
        <ele>11.557306</ele>
        <time>2020-07-07T15:09:49Z</time>
      </trkpt>
      <trkpt lat="47.1324" lon="-1.35723">
        <ele>11.303648</ele>
        <time>2020-07-07T15:09:50Z</time>
      </trkpt>
      <trkpt lat="47.1324" lon="-1.35716">
        <ele>11.890232</ele>
        <time>2020-07-07T15:09:51Z</time>
      </trkpt>
      <trkpt lat="47.1324" lon="-1.3571">
        <ele>11.818892</ele>
        <time>2020-07-07T15:09:52Z</time>
      </trkpt>
      <trkpt lat="47.1324" lon="-1.35697">
        <ele>12.643281</ele>
        <time>2020-07-07T15:09:54Z</time>
      </trkpt>
      <trkpt lat="47.1324" lon="-1.35687">
        <ele>13.058118</ele>
        <time>2020-07-07T15:09:56Z</time>
      </trkpt>
      <trkpt lat="47.1324" lon="-1.35676">
        <ele>13.50202</ele>
        <time>2020-07-07T15:09:58Z</time>
      </trkpt>
      <trkpt lat="47.1324" lon="-1.35666">
        <ele>13.581287</ele>
        <time>2020-07-07T15:10:00Z</time>
      </trkpt>
      <trkpt lat="47.1324" lon="-1.35654">
        <ele>14.29206</ele>
        <time>2020-07-07T15:10:02Z</time>
      </trkpt>
      <trkpt lat="47.1324" lon="-1.35642">
        <ele>14.329051</ele>
        <time>2020-07-07T15:10:04Z</time>
      </trkpt>
      <trkpt lat="47.1324" lon="-1.35632">
        <ele>14.7993765</ele>
        <time>2020-07-07T15:10:06Z</time>
      </trkpt>
      <trkpt lat="47.1324" lon="-1.35621">
        <ele>15.240636</ele>
        <time>2020-07-07T15:10:08Z</time>
      </trkpt>
      <trkpt lat="47.1324" lon="-1.3561">
        <ele>15.631693</ele>
        <time>2020-07-07T15:10:10Z</time>
      </trkpt>
      <trkpt lat="47.13239" lon="-1.356">
        <ele>16.01218</ele>
        <time>2020-07-07T15:10:12Z</time>
      </trkpt>
      <trkpt lat="47.13236" lon="-1.3559">
        <ele>16.437586</ele>
        <time>2020-07-07T15:10:14Z</time>
      </trkpt>
      <trkpt lat="47.13233" lon="-1.3558">
        <ele>16.680676</ele>
        <time>2020-07-07T15:10:16Z</time>
      </trkpt>
      <trkpt lat="47.1323" lon="-1.35572">
        <ele>17.351812</ele>
        <time>2020-07-07T15:10:18Z</time>
      </trkpt>
      <trkpt lat="47.13226" lon="-1.35565">
        <ele>17.137789</ele>
        <time>2020-07-07T15:10:20Z</time>
      </trkpt>
      <trkpt lat="47.13224" lon="-1.35558">
        <ele>17.800999</ele>
        <time>2020-07-07T15:10:22Z</time>
      </trkpt>
      <trkpt lat="47.13221" lon="-1.35549">
        <ele>18.10486</ele>
        <time>2020-07-07T15:10:24Z</time>
      </trkpt>
      <trkpt lat="47.1322" lon="-1.35539">
        <ele>18.350592</ele>
        <time>2020-07-07T15:10:26Z</time>
      </trkpt>
      <trkpt lat="47.13219" lon="-1.35532">
        <ele>18.612177</ele>
        <time>2020-07-07T15:10:28Z</time>
      </trkpt>
      <trkpt lat="47.13218" lon="-1.35524">
        <ele>18.337381</ele>
        <time>2020-07-07T15:10:30Z</time>
      </trkpt>
      <trkpt lat="47.13217" lon="-1.35517">
        <ele>18.715225</ele>
        <time>2020-07-07T15:10:32Z</time>
      </trkpt>
      <trkpt lat="47.13216" lon="-1.3551">
        <ele>18.723152</ele>
        <time>2020-07-07T15:10:34Z</time>
      </trkpt>
      <trkpt lat="47.13215" lon="-1.35502">
        <ele>19.262177</ele>
        <time>2020-07-07T15:10:37Z</time>
      </trkpt>
      <trkpt lat="47.13215" lon="-1.35492">
        <ele>19.415428</ele>
        <time>2020-07-07T15:10:40Z</time>
      </trkpt>
      <trkpt lat="47.13217" lon="-1.35484">
        <ele>19.315022</ele>
        <time>2020-07-07T15:10:43Z</time>
      </trkpt>
      <trkpt lat="47.13223" lon="-1.35475">
        <ele>18.485348</ele>
        <time>2020-07-07T15:10:45Z</time>
      </trkpt>
      <trkpt lat="47.13229" lon="-1.35467">
        <ele>18.620104</ele>
        <time>2020-07-07T15:10:47Z</time>
      </trkpt>
      <trkpt lat="47.13236" lon="-1.3546">
        <ele>18.707298</ele>
        <time>2020-07-07T15:10:49Z</time>
      </trkpt>
      <trkpt lat="47.13241" lon="-1.35452">
        <ele>18.538193</ele>
        <time>2020-07-07T15:10:51Z</time>
      </trkpt>
      <trkpt lat="47.13247" lon="-1.35445">
        <ele>18.358519</ele>
        <time>2020-07-07T15:10:53Z</time>
      </trkpt>
      <trkpt lat="47.13252" lon="-1.35439">
        <ele>18.234333</ele>
        <time>2020-07-07T15:10:55Z</time>
      </trkpt>
      <trkpt lat="47.13256" lon="-1.35432">
        <ele>18.374372</ele>
        <time>2020-07-07T15:10:57Z</time>
      </trkpt>
      <trkpt lat="47.13261" lon="-1.35426">
        <ele>18.340023</ele>
        <time>2020-07-07T15:10:59Z</time>
      </trkpt>
      <trkpt lat="47.13266" lon="-1.35419">
        <ele>18.059942</ele>
        <time>2020-07-07T15:11:01Z</time>
      </trkpt>
      <trkpt lat="47.13271" lon="-1.35412">
        <ele>18.37173</ele>
        <time>2020-07-07T15:11:03Z</time>
      </trkpt>
      <trkpt lat="47.13276" lon="-1.35406">
        <ele>18.284534</ele>
        <time>2020-07-07T15:11:05Z</time>
      </trkpt>
      <trkpt lat="47.13282" lon="-1.35399">
        <ele>18.310959</ele>
        <time>2020-07-07T15:11:07Z</time>
      </trkpt>
      <trkpt lat="47.13288" lon="-1.35392">
        <ele>17.51299</ele>
        <time>2020-07-07T15:11:09Z</time>
      </trkpt>
      <trkpt lat="47.13295" lon="-1.35386">
        <ele>17.23291</ele>
        <time>2020-07-07T15:11:11Z</time>
      </trkpt>
      <trkpt lat="47.13302" lon="-1.3538">
        <ele>16.67539</ele>
        <time>2020-07-07T15:11:13Z</time>
      </trkpt>
      <trkpt lat="47.13308" lon="-1.35375">
        <ele>16.527424</ele>
        <time>2020-07-07T15:11:15Z</time>
      </trkpt>
      <trkpt lat="47.13313" lon="-1.35372">
        <ele>15.961977</ele>
        <time>2020-07-07T15:11:16Z</time>
      </trkpt>
      <trkpt lat="47.13318" lon="-1.3537">
        <ele>16.38474</ele>
        <time>2020-07-07T15:11:17Z</time>
      </trkpt>
      <trkpt lat="47.13322" lon="-1.35367">
        <ele>15.761164</ele>
        <time>2020-07-07T15:11:18Z</time>
      </trkpt>
      <trkpt lat="47.13327" lon="-1.35365">
        <ele>15.364822</ele>
        <time>2020-07-07T15:11:19Z</time>
      </trkpt>
      <trkpt lat="47.13331" lon="-1.35362">
        <ele>15.16401</ele>
        <time>2020-07-07T15:11:20Z</time>
      </trkpt>
      <trkpt lat="47.13336" lon="-1.3536">
        <ele>15.002831</ele>
        <time>2020-07-07T15:11:21Z</time>
      </trkpt>
      <trkpt lat="47.13341" lon="-1.35357">
        <ele>15.063603</ele>
        <time>2020-07-07T15:11:22Z</time>
      </trkpt>
      <trkpt lat="47.13346" lon="-1.35356">
        <ele>14.495515</ele>
        <time>2020-07-07T15:11:23Z</time>
      </trkpt>
      <trkpt lat="47.13351" lon="-1.35354">
        <ele>14.537791</ele>
        <time>2020-07-07T15:11:24Z</time>
      </trkpt>
      <trkpt lat="47.13356" lon="-1.35352">
        <ele>14.6038475</ele>
        <time>2020-07-07T15:11:25Z</time>
      </trkpt>
      <trkpt lat="47.1336" lon="-1.3535">
        <ele>14.041043</ele>
        <time>2020-07-07T15:11:26Z</time>
      </trkpt>
      <trkpt lat="47.1337" lon="-1.35345">
        <ele>13.742467</ele>
        <time>2020-07-07T15:11:28Z</time>
      </trkpt>
      <trkpt lat="47.13375" lon="-1.35343">
        <ele>13.869296</ele>
        <time>2020-07-07T15:11:29Z</time>
      </trkpt>
      <trkpt lat="47.1338" lon="-1.35342">
        <ele>13.797955</ele>
        <time>2020-07-07T15:11:30Z</time>
      </trkpt>
      <trkpt lat="47.13386" lon="-1.3534">
        <ele>13.586573</ele>
        <time>2020-07-07T15:11:31Z</time>
      </trkpt>
      <trkpt lat="47.1339" lon="-1.35339">
        <ele>13.087183</ele>
        <time>2020-07-07T15:11:32Z</time>
      </trkpt>
      <trkpt lat="47.13396" lon="-1.35338">
        <ele>12.799175</ele>
        <time>2020-07-07T15:11:33Z</time>
      </trkpt>
      <trkpt lat="47.13401" lon="-1.35338">
        <ele>12.989418</ele>
        <time>2020-07-07T15:11:34Z</time>
      </trkpt>
      <trkpt lat="47.13407" lon="-1.35338">
        <ele>12.397549</ele>
        <time>2020-07-07T15:11:35Z</time>
      </trkpt>
      <trkpt lat="47.13413" lon="-1.35338">
        <ele>12.194094</ele>
        <time>2020-07-07T15:11:36Z</time>
      </trkpt>
      <trkpt lat="47.13418" lon="-1.35337">
        <ele>12.109541</ele>
        <time>2020-07-07T15:11:37Z</time>
      </trkpt>
      <trkpt lat="47.13424" lon="-1.35336">
        <ele>11.795111</ele>
        <time>2020-07-07T15:11:38Z</time>
      </trkpt>
      <trkpt lat="47.1343" lon="-1.35336">
        <ele>11.425192</ele>
        <time>2020-07-07T15:11:39Z</time>
      </trkpt>
      <trkpt lat="47.13436" lon="-1.35335">
        <ele>11.100193</ele>
        <time>2020-07-07T15:11:40Z</time>
      </trkpt>
      <trkpt lat="47.13442" lon="-1.35334">
        <ele>10.677429</ele>
        <time>2020-07-07T15:11:41Z</time>
      </trkpt>
      <trkpt lat="47.13448" lon="-1.35334">
        <ele>9.897958</ele>
        <time>2020-07-07T15:11:42Z</time>
      </trkpt>
      <trkpt lat="47.13454" lon="-1.35334">
        <ele>9.631088</ele>
        <time>2020-07-07T15:11:43Z</time>
      </trkpt>
      <trkpt lat="47.13461" lon="-1.35334">
        <ele>9.063</ele>
        <time>2020-07-07T15:11:44Z</time>
      </trkpt>
      <trkpt lat="47.13467" lon="-1.35334">
        <ele>8.574179</ele>
        <time>2020-07-07T15:11:45Z</time>
      </trkpt>
      <trkpt lat="47.13475" lon="-1.35335">
        <ele>8.952024</ele>
        <time>2020-07-07T15:11:46Z</time>
      </trkpt>
      <trkpt lat="47.13482" lon="-1.35333">
        <ele>8.405073</ele>
        <time>2020-07-07T15:11:47Z</time>
      </trkpt>
      <trkpt lat="47.13488" lon="-1.35334">
        <ele>7.9268217</ele>
        <time>2020-07-07T15:11:48Z</time>
      </trkpt>
      <trkpt lat="47.13495" lon="-1.35336">
        <ele>7.6969438</ele>
        <time>2020-07-07T15:11:49Z</time>
      </trkpt>
      <trkpt lat="47.13503" lon="-1.35338">
        <ele>7.504058</ele>
        <time>2020-07-07T15:11:50Z</time>
      </trkpt>
      <trkpt lat="47.13509" lon="-1.3534">
        <ele>7.282107</ele>
        <time>2020-07-07T15:11:51Z</time>
      </trkpt>
      <trkpt lat="47.13516" lon="-1.35342">
        <ele>7.5489764</ele>
        <time>2020-07-07T15:11:52Z</time>
      </trkpt>
      <trkpt lat="47.13522" lon="-1.35345">
        <ele>7.1367817</ele>
        <time>2020-07-07T15:11:53Z</time>
      </trkpt>
      <trkpt lat="47.13528" lon="-1.35346">
        <ele>7.33231</ele>
        <time>2020-07-07T15:11:54Z</time>
      </trkpt>
      <trkpt lat="47.13534" lon="-1.35348">
        <ele>7.0178795</ele>
        <time>2020-07-07T15:11:55Z</time>
      </trkpt>
      <trkpt lat="47.1354" lon="-1.3535">
        <ele>7.0258064</ele>
        <time>2020-07-07T15:11:56Z</time>
      </trkpt>
      <trkpt lat="47.13546" lon="-1.35352">
        <ele>6.8831234</ele>
        <time>2020-07-07T15:11:57Z</time>
      </trkpt>
      <trkpt lat="47.13552" lon="-1.35354">
        <ele>6.5898314</ele>
        <time>2020-07-07T15:11:58Z</time>
      </trkpt>
      <trkpt lat="47.13558" lon="-1.35356">
        <ele>6.230482</ele>
        <time>2020-07-07T15:11:59Z</time>
      </trkpt>
      <trkpt lat="47.13564" lon="-1.35358">
        <ele>6.4603596</ele>
        <time>2020-07-07T15:12:00Z</time>
      </trkpt>
      <trkpt lat="47.1357" lon="-1.3536">
        <ele>5.942474</ele>
        <time>2020-07-07T15:12:01Z</time>
      </trkpt>
      <trkpt lat="47.13575" lon="-1.35361">
        <ele>5.913409</ele>
        <time>2020-07-07T15:12:02Z</time>
      </trkpt>
      <trkpt lat="47.1358" lon="-1.35363">
        <ele>5.8869863</ele>
        <time>2020-07-07T15:12:03Z</time>
      </trkpt>
      <trkpt lat="47.13587" lon="-1.35365">
        <ele>5.643897</ele>
        <time>2020-07-07T15:12:04Z</time>
      </trkpt>
      <trkpt lat="47.13593" lon="-1.35366">
        <ele>5.5804825</ele>
        <time>2020-07-07T15:12:05Z</time>
      </trkpt>
      <trkpt lat="47.13598" lon="-1.35367">
        <ele>4.967475</ele>
        <time>2020-07-07T15:12:06Z</time>
      </trkpt>
      <trkpt lat="47.13603" lon="-1.35369">
        <ele>4.983329</ele>
        <time>2020-07-07T15:12:07Z</time>
      </trkpt>
      <trkpt lat="47.13608" lon="-1.3537">
        <ele>4.7798734</ele>
        <time>2020-07-07T15:12:08Z</time>
      </trkpt>
      <trkpt lat="47.13613" lon="-1.3537">
        <ele>4.542069</ele>
        <time>2020-07-07T15:12:09Z</time>
      </trkpt>
      <trkpt lat="47.13619" lon="-1.3537">
        <ele>4.513004</ele>
        <time>2020-07-07T15:12:10Z</time>
      </trkpt>
      <trkpt lat="47.13623" lon="-1.3537">
        <ele>5.0282474</ele>
        <time>2020-07-07T15:12:11Z</time>
      </trkpt>
      <trkpt lat="47.13628" lon="-1.35371">
        <ele>4.32276</ele>
        <time>2020-07-07T15:12:12Z</time>
      </trkpt>
      <trkpt lat="47.13633" lon="-1.35371">
        <ele>4.0162563</ele>
        <time>2020-07-07T15:12:13Z</time>
      </trkpt>
      <trkpt lat="47.13638" lon="-1.35371">
        <ele>4.119305</ele>
        <time>2020-07-07T15:12:14Z</time>
      </trkpt>
      <trkpt lat="47.13643" lon="-1.35371">
        <ele>4.2461343</ele>
        <time>2020-07-07T15:12:15Z</time>
      </trkpt>
      <trkpt lat="47.13648" lon="-1.3537">
        <ele>3.9871912</ele>
        <time>2020-07-07T15:12:16Z</time>
      </trkpt>
      <trkpt lat="47.13652" lon="-1.3537">
        <ele>3.715037</ele>
        <time>2020-07-07T15:12:17Z</time>
      </trkpt>
      <trkpt lat="47.13657" lon="-1.3537">
        <ele>3.8471508</ele>
        <time>2020-07-07T15:12:18Z</time>
      </trkpt>
      <trkpt lat="47.13662" lon="-1.3537">
        <ele>3.7678826</ele>
        <time>2020-07-07T15:12:19Z</time>
      </trkpt>
      <trkpt lat="47.13666" lon="-1.35369">
        <ele>3.6067038</ele>
        <time>2020-07-07T15:12:20Z</time>
      </trkpt>
      <trkpt lat="47.13671" lon="-1.35369">
        <ele>3.7758093</ele>
        <time>2020-07-07T15:12:21Z</time>
      </trkpt>
      <trkpt lat="47.13676" lon="-1.35368">
        <ele>2.9302816</ele>
        <time>2020-07-07T15:12:22Z</time>
      </trkpt>
      <trkpt lat="47.1368" lon="-1.35367">
        <ele>3.1628017</ele>
        <time>2020-07-07T15:12:23Z</time>
      </trkpt>
      <trkpt lat="47.13689" lon="-1.35365">
        <ele>3.078249</ele>
        <time>2020-07-07T15:12:25Z</time>
      </trkpt>
      <trkpt lat="47.13693" lon="-1.35359">
        <ele>2.333128</ele>
        <time>2020-07-07T15:12:26Z</time>
      </trkpt>
      <trkpt lat="47.13699" lon="-1.35353">
        <ele>1.6857708</ele>
        <time>2020-07-07T15:12:27Z</time>
      </trkpt>
      <trkpt lat="47.13705" lon="-1.35348">
        <ele>1.0357714</ele>
        <time>2020-07-07T15:12:28Z</time>
      </trkpt>
      <trkpt lat="47.1371" lon="-1.35341">
        <ele>0.15060961</ele>
        <time>2020-07-07T15:12:29Z</time>
      </trkpt>
      <trkpt lat="47.13717" lon="-1.35335">
        <ele>-0.7979667</ele>
        <time>2020-07-07T15:12:30Z</time>
      </trkpt>
      <trkpt lat="47.13722" lon="-1.35329">
        <ele>-1.8125999</ele>
        <time>2020-07-07T15:12:31Z</time>
      </trkpt>
      <trkpt lat="47.13727" lon="-1.35324">
        <ele>-2.1455264</ele>
        <time>2020-07-07T15:12:32Z</time>
      </trkpt>
      <trkpt lat="47.13733" lon="-1.35317">
        <ele>-2.27764</ele>
        <time>2020-07-07T15:12:34Z</time>
      </trkpt>
      <trkpt lat="47.13731" lon="-1.35309">
        <ele>-1.3052833</ele>
        <time>2020-07-07T15:12:37Z</time>
      </trkpt>
      <trkpt lat="47.1373" lon="-1.353">
        <ele>-1.1044705</ele>
        <time>2020-07-07T15:12:39Z</time>
      </trkpt>
      <trkpt lat="47.13728" lon="-1.35291">
        <ele>-0.9617877</ele>
        <time>2020-07-07T15:12:40Z</time>
      </trkpt>
      <trkpt lat="47.13727" lon="-1.35285">
        <ele>-0.8085358</ele>
        <time>2020-07-07T15:12:41Z</time>
      </trkpt>
      <trkpt lat="47.13725" lon="-1.35278">
        <ele>-0.6552839</ele>
        <time>2020-07-07T15:12:42Z</time>
      </trkpt>
      <trkpt lat="47.13724" lon="-1.35272">
        <ele>-0.47032475</ele>
        <time>2020-07-07T15:12:43Z</time>
      </trkpt>
      <trkpt lat="47.13723" lon="-1.35265">
        <ele>0.29065013</ele>
        <time>2020-07-07T15:12:44Z</time>
      </trkpt>
      <trkpt lat="47.13723" lon="-1.35258">
        <ele>0.47296703</ele>
        <time>2020-07-07T15:12:45Z</time>
      </trkpt>
      <trkpt lat="47.13721" lon="-1.3525">
        <ele>0.74247897</ele>
        <time>2020-07-07T15:12:46Z</time>
      </trkpt>
      <trkpt lat="47.1372" lon="-1.3524">
        <ele>1.1071128</ele>
        <time>2020-07-07T15:12:48Z</time>
      </trkpt>
      <trkpt lat="47.13718" lon="-1.35231">
        <ele>1.7782503</ele>
        <time>2020-07-07T15:12:50Z</time>
      </trkpt>
      <trkpt lat="47.13717" lon="-1.35222">
        <ele>2.0398355</ele>
        <time>2020-07-07T15:12:52Z</time>
      </trkpt>
      <trkpt lat="47.13718" lon="-1.35214">
        <ele>1.910364</ele>
        <time>2020-07-07T15:13:01Z</time>
      </trkpt>
      <trkpt lat="47.13723" lon="-1.35209">
        <ele>1.572153</ele>
        <time>2020-07-07T15:13:04Z</time>
      </trkpt>
      <trkpt lat="47.13729" lon="-1.35202">
        <ele>1.1810964</ele>
        <time>2020-07-07T15:13:06Z</time>
      </trkpt>
      <trkpt lat="47.13732" lon="-1.35197">
        <ele>1.0463405</ele>
        <time>2020-07-07T15:13:07Z</time>
      </trkpt>
      <trkpt lat="47.13737" lon="-1.35189">
        <ele>0.8376008</ele>
        <time>2020-07-07T15:13:09Z</time>
      </trkpt>
      <trkpt lat="47.13741" lon="-1.3518">
        <ele>-0.010569096</ele>
        <time>2020-07-07T15:13:11Z</time>
      </trkpt>
      <trkpt lat="47.13745" lon="-1.35172">
        <ele>0.36199152</ele>
        <time>2020-07-07T15:13:13Z</time>
      </trkpt>
      <trkpt lat="47.13749" lon="-1.35164">
        <ele>0.110975504</ele>
        <time>2020-07-07T15:13:15Z</time>
      </trkpt>
      <trkpt lat="47.13752" lon="-1.35156">
        <ele>-0.18495917</ele>
        <time>2020-07-07T15:13:17Z</time>
      </trkpt>
      <trkpt lat="47.13757" lon="-1.35148">
        <ele>-0.61300755</ele>
        <time>2020-07-07T15:13:19Z</time>
      </trkpt>
      <trkpt lat="47.13761" lon="-1.35142">
        <ele>-1.2101614</ele>
        <time>2020-07-07T15:13:21Z</time>
      </trkpt>
      <trkpt lat="47.13765" lon="-1.35134">
        <ele>-1.1731696</ele>
        <time>2020-07-07T15:13:23Z</time>
      </trkpt>
      <trkpt lat="47.1377" lon="-1.35127">
        <ele>-0.9036577</ele>
        <time>2020-07-07T15:13:26Z</time>
      </trkpt>
      <trkpt lat="47.13775" lon="-1.35119">
        <ele>-1.5747952</ele>
        <time>2020-07-07T15:13:28Z</time>
      </trkpt>
      <trkpt lat="47.13779" lon="-1.3511">
        <ele>-1.8971527</ele>
        <time>2020-07-07T15:13:30Z</time>
      </trkpt>
      <trkpt lat="47.13782" lon="-1.35104">
        <ele>-1.1256087</ele>
        <time>2020-07-07T15:13:31Z</time>
      </trkpt>
      <trkpt lat="47.13784" lon="-1.35098">
        <ele>-1.4321125</ele>
        <time>2020-07-07T15:13:32Z</time>
      </trkpt>
      <trkpt lat="47.13788" lon="-1.35086">
        <ele>-1.8178844</ele>
        <time>2020-07-07T15:13:34Z</time>
      </trkpt>
      <trkpt lat="47.13791" lon="-1.35076">
        <ele>-2.055689</ele>
        <time>2020-07-07T15:13:36Z</time>
      </trkpt>
      <trkpt lat="47.13793" lon="-1.35065">
        <ele>-1.5008116</ele>
        <time>2020-07-07T15:13:38Z</time>
      </trkpt>
      <trkpt lat="47.13796" lon="-1.35052">
        <ele>-1.6487789</ele>
        <time>2020-07-07T15:13:40Z</time>
      </trkpt>
      <trkpt lat="47.13797" lon="-1.35045">
        <ele>-1.6752017</ele>
        <time>2020-07-07T15:13:41Z</time>
      </trkpt>
      <trkpt lat="47.13798" lon="-1.35033">
        <ele>-2.0398355</ele>
        <time>2020-07-07T15:13:43Z</time>
      </trkpt>
      <trkpt lat="47.13799" lon="-1.3502">
        <ele>-1.5166652</ele>
        <time>2020-07-07T15:13:45Z</time>
      </trkpt>
      <trkpt lat="47.138" lon="-1.35011">
        <ele>-1.1890233</ele>
        <time>2020-07-07T15:13:47Z</time>
      </trkpt>
      <trkpt lat="47.138" lon="-1.34999">
        <ele>-1.9764209</ele>
        <time>2020-07-07T15:13:50Z</time>
      </trkpt>
      <trkpt lat="47.13801" lon="-1.34989">
        <ele>-1.1361778</ele>
        <time>2020-07-07T15:13:52Z</time>
      </trkpt>
      <trkpt lat="47.13803" lon="-1.34979">
        <ele>-1.3739824</ele>
        <time>2020-07-07T15:13:54Z</time>
      </trkpt>
      <trkpt lat="47.13804" lon="-1.34971">
        <ele>-1.1203241</ele>
        <time>2020-07-07T15:13:56Z</time>
      </trkpt>
      <trkpt lat="47.13805" lon="-1.34962">
        <ele>-1.4004052</ele>
        <time>2020-07-07T15:13:58Z</time>
      </trkpt>
      <trkpt lat="47.13807" lon="-1.34946">
        <ele>-1.273576</ele>
        <time>2020-07-07T15:14:00Z</time>
      </trkpt>
      <trkpt lat="47.13808" lon="-1.34937">
        <ele>-1.0252023</ele>
        <time>2020-07-07T15:14:03Z</time>
      </trkpt>
      <trkpt lat="47.13807" lon="-1.34927">
        <ele>-1.3264215</ele>
        <time>2020-07-07T15:14:04Z</time>
      </trkpt>
      <trkpt lat="47.13808" lon="-1.34915">
        <ele>-1.215446</ele>
        <time>2020-07-07T15:14:05Z</time>
      </trkpt>
      <trkpt lat="47.13807" lon="-1.34908">
        <ele>-1.5166652</ele>
        <time>2020-07-07T15:14:06Z</time>
      </trkpt>
      <trkpt lat="47.13806" lon="-1.34894">
        <ele>-1.1995924</ele>
        <time>2020-07-07T15:14:08Z</time>
      </trkpt>
      <trkpt lat="47.13804" lon="-1.34887">
        <ele>-0.5337393</ele>
        <time>2020-07-07T15:14:11Z</time>
      </trkpt>
      <trkpt lat="47.13799" lon="-1.34882">
        <ele>-0.15853643</ele>
        <time>2020-07-07T15:14:14Z</time>
      </trkpt>
      <trkpt lat="47.13792" lon="-1.34871">
        <ele>-0.110975504</ele>
        <time>2020-07-07T15:14:18Z</time>
      </trkpt>
      <trkpt lat="47.13788" lon="-1.34867">
        <ele>0.8693081</ele>
        <time>2020-07-07T15:14:20Z</time>
      </trkpt>
      <trkpt lat="47.13778" lon="-1.34865">
        <ele>3.1707287</ele>
        <time>2020-07-07T15:14:29Z</time>
      </trkpt>
      <trkpt lat="47.13768" lon="-1.34865">
        <ele>6.4894247</ele>
        <time>2020-07-07T15:14:36Z</time>
      </trkpt>
      <trkpt lat="47.13759" lon="-1.34868">
        <ele>6.3546686</ele>
        <time>2020-07-07T15:14:42Z</time>
      </trkpt>
      <trkpt lat="47.13751" lon="-1.3487">
        <ele>6.827636</ele>
        <time>2020-07-07T15:14:48Z</time>
      </trkpt>
      <trkpt lat="47.13742" lon="-1.34871">
        <ele>8.513407</ele>
        <time>2020-07-07T15:14:56Z</time>
      </trkpt>
      <trkpt lat="47.13733" lon="-1.34871">
        <ele>9.599381</ele>
        <time>2020-07-07T15:15:05Z</time>
      </trkpt>
      <trkpt lat="47.13724" lon="-1.34868">
        <ele>10.191251</ele>
        <time>2020-07-07T15:15:12Z</time>
      </trkpt>
      <trkpt lat="47.13717" lon="-1.34869">
        <ele>11.599583</ele>
        <time>2020-07-07T15:15:20Z</time>
      </trkpt>
      <trkpt lat="47.13712" lon="-1.34871">
        <ele>12.46889</ele>
        <time>2020-07-07T15:15:25Z</time>
      </trkpt>
      <trkpt lat="47.13705" lon="-1.34871">
        <ele>12.743687</ele>
        <time>2020-07-07T15:15:34Z</time>
      </trkpt>
      <trkpt lat="47.13701" lon="-1.34871">
        <ele>12.875801</ele>
        <time>2020-07-07T15:15:42Z</time>
      </trkpt>
      <trkpt lat="47.13696" lon="-1.3487">
        <ele>13.121532</ele>
        <time>2020-07-07T15:15:45Z</time>
      </trkpt>
      <trkpt lat="47.13691" lon="-1.34869">
        <ele>13.686979</ele>
        <time>2020-07-07T15:15:48Z</time>
      </trkpt>
      <trkpt lat="47.13685" lon="-1.34866">
        <ele>14.389824</ele>
        <time>2020-07-07T15:15:52Z</time>
      </trkpt>
      <trkpt lat="47.1368" lon="-1.34864">
        <ele>14.654051</ele>
        <time>2020-07-07T15:15:55Z</time>
      </trkpt>
      <trkpt lat="47.13675" lon="-1.34862">
        <ele>16.242058</ele>
        <time>2020-07-07T15:15:59Z</time>
      </trkpt>
      <trkpt lat="47.1367" lon="-1.34861">
        <ele>16.778439</ele>
        <time>2020-07-07T15:16:02Z</time>
      </trkpt>
      <trkpt lat="47.13665" lon="-1.34859">
        <ele>17.026814</ele>
        <time>2020-07-07T15:16:05Z</time>
      </trkpt>
      <trkpt lat="47.13659" lon="-1.34857">
        <ele>17.67417</ele>
        <time>2020-07-07T15:16:08Z</time>
      </trkpt>
      <trkpt lat="47.13653" lon="-1.34855">
        <ele>18.635958</ele>
        <time>2020-07-07T15:16:11Z</time>
      </trkpt>
      <trkpt lat="47.13648" lon="-1.34854">
        <ele>19.536974</ele>
        <time>2020-07-07T15:16:14Z</time>
      </trkpt>
      <trkpt lat="47.13641" lon="-1.34852">
        <ele>19.95181</ele>
        <time>2020-07-07T15:16:18Z</time>
      </trkpt>
      <trkpt lat="47.13635" lon="-1.3485">
        <ele>19.983517</ele>
        <time>2020-07-07T15:16:21Z</time>
      </trkpt>
      <trkpt lat="47.13628" lon="-1.34847">
        <ele>20.61238</ele>
        <time>2020-07-07T15:16:24Z</time>
      </trkpt>
      <trkpt lat="47.13623" lon="-1.34845">
        <ele>21.087988</ele>
        <time>2020-07-07T15:16:27Z</time>
      </trkpt>
      <trkpt lat="47.1362" lon="-1.34839">
        <ele>21.471117</ele>
        <time>2020-07-07T15:16:30Z</time>
      </trkpt>
      <trkpt lat="47.13617" lon="-1.34832">
        <ele>21.930874</ele>
        <time>2020-07-07T15:16:33Z</time>
      </trkpt>
      <trkpt lat="47.13613" lon="-1.34829">
        <ele>22.168678</ele>
        <time>2020-07-07T15:16:36Z</time>
      </trkpt>
      <trkpt lat="47.13607" lon="-1.34826">
        <ele>21.872744</ele>
        <time>2020-07-07T15:16:39Z</time>
      </trkpt>
      <trkpt lat="47.13602" lon="-1.34824">
        <ele>22.607296</ele>
        <time>2020-07-07T15:16:42Z</time>
      </trkpt>
      <trkpt lat="47.13596" lon="-1.34822">
        <ele>22.607296</ele>
        <time>2020-07-07T15:16:45Z</time>
      </trkpt>
      <trkpt lat="47.1359" lon="-1.34819">
        <ele>22.61258</ele>
        <time>2020-07-07T15:16:48Z</time>
      </trkpt>
      <trkpt lat="47.13583" lon="-1.34815">
        <ele>22.57823</ele>
        <time>2020-07-07T15:16:51Z</time>
      </trkpt>
      <trkpt lat="47.13578" lon="-1.34811">
        <ele>23.199165</ele>
        <time>2020-07-07T15:16:54Z</time>
      </trkpt>
      <trkpt lat="47.13572" lon="-1.34807">
        <ele>23.212376</ele>
        <time>2020-07-07T15:16:57Z</time>
      </trkpt>
      <trkpt lat="47.13567" lon="-1.34804">
        <ele>23.204449</ele>
        <time>2020-07-07T15:17:00Z</time>
      </trkpt>
      <trkpt lat="47.13562" lon="-1.348">
        <ele>23.84388</ele>
        <time>2020-07-07T15:17:02Z</time>
      </trkpt>
      <trkpt lat="47.13556" lon="-1.34796">
        <ele>23.97335</ele>
        <time>2020-07-07T15:17:05Z</time>
      </trkpt>
      <trkpt lat="47.13551" lon="-1.34793">
        <ele>24.515017</ele>
        <time>2020-07-07T15:17:08Z</time>
      </trkpt>
      <trkpt lat="47.13547" lon="-1.34789">
        <ele>24.258717</ele>
        <time>2020-07-07T15:17:10Z</time>
      </trkpt>
      <trkpt lat="47.13543" lon="-1.34786">
        <ele>25.038187</ele>
        <time>2020-07-07T15:17:12Z</time>
      </trkpt>
      <trkpt lat="47.13537" lon="-1.34782">
        <ele>24.554651</ele>
        <time>2020-07-07T15:17:15Z</time>
      </trkpt>
      <trkpt lat="47.13532" lon="-1.34779">
        <ele>25.265423</ele>
        <time>2020-07-07T15:17:17Z</time>
      </trkpt>
      <trkpt lat="47.13528" lon="-1.34776">
        <ele>25.368471</ele>
        <time>2020-07-07T15:17:19Z</time>
      </trkpt>
      <trkpt lat="47.13523" lon="-1.34771">
        <ele>25.690828</ele>
        <time>2020-07-07T15:17:22Z</time>
      </trkpt>
      <trkpt lat="47.13517" lon="-1.34767">
        <ele>25.677618</ele>
        <time>2020-07-07T15:17:25Z</time>
      </trkpt>
      <trkpt lat="47.13513" lon="-1.34763">
        <ele>25.799162</ele>
        <time>2020-07-07T15:17:27Z</time>
      </trkpt>
      <trkpt lat="47.13508" lon="-1.3476">
        <ele>25.775381</ele>
        <time>2020-07-07T15:17:29Z</time>
      </trkpt>
      <trkpt lat="47.13504" lon="-1.34758">
        <ele>25.73839</ele>
        <time>2020-07-07T15:17:31Z</time>
      </trkpt>
      <trkpt lat="47.135" lon="-1.34754">
        <ele>25.476805</ele>
        <time>2020-07-07T15:17:33Z</time>
      </trkpt>
      <trkpt lat="47.13494" lon="-1.34751">
        <ele>26.502007</ele>
        <time>2020-07-07T15:17:35Z</time>
      </trkpt>
      <trkpt lat="47.13488" lon="-1.34748">
        <ele>26.076601</ele>
        <time>2020-07-07T15:17:37Z</time>
      </trkpt>
      <trkpt lat="47.13483" lon="-1.34747">
        <ele>26.010544</ele>
        <time>2020-07-07T15:17:39Z</time>
      </trkpt>
      <trkpt lat="47.13478" lon="-1.34745">
        <ele>26.533714</ele>
        <time>2020-07-07T15:17:41Z</time>
      </trkpt>
      <trkpt lat="47.13473" lon="-1.34743">
        <ele>26.906275</ele>
        <time>2020-07-07T15:17:43Z</time>
      </trkpt>
      <trkpt lat="47.13467" lon="-1.34741">
        <ele>26.372536</ele>
        <time>2020-07-07T15:17:45Z</time>
      </trkpt>
      <trkpt lat="47.13461" lon="-1.3474">
        <ele>26.422739</ele>
        <time>2020-07-07T15:17:47Z</time>
      </trkpt>
      <trkpt lat="47.13455" lon="-1.34737">
        <ele>26.623552</ele>
        <time>2020-07-07T15:17:49Z</time>
      </trkpt>
      <trkpt lat="47.1345" lon="-1.34736">
        <ele>26.88778</ele>
        <time>2020-07-07T15:17:51Z</time>
      </trkpt>
      <trkpt lat="47.13443" lon="-1.34733">
        <ele>27.262981</ele>
        <time>2020-07-07T15:17:53Z</time>
      </trkpt>
      <trkpt lat="47.13438" lon="-1.3473">
        <ele>26.908916</ele>
        <time>2020-07-07T15:17:55Z</time>
      </trkpt>
      <trkpt lat="47.13432" lon="-1.34729">
        <ele>27.220705</ele>
        <time>2020-07-07T15:17:57Z</time>
      </trkpt>
      <trkpt lat="47.13425" lon="-1.34727">
        <ele>27.088593</ele>
        <time>2020-07-07T15:17:59Z</time>
      </trkpt>
      <trkpt lat="47.13419" lon="-1.34725">
        <ele>27.838997</ele>
        <time>2020-07-07T15:18:01Z</time>
      </trkpt>
      <trkpt lat="47.13414" lon="-1.34725">
        <ele>27.780869</ele>
        <time>2020-07-07T15:18:03Z</time>
      </trkpt>
      <trkpt lat="47.13408" lon="-1.34724">
        <ele>27.98168</ele>
        <time>2020-07-07T15:18:05Z</time>
      </trkpt>
      <trkpt lat="47.13401" lon="-1.34723">
        <ele>28.087372</ele>
        <time>2020-07-07T15:18:07Z</time>
      </trkpt>
      <trkpt lat="47.13395" lon="-1.34722">
        <ele>28.544485</ele>
        <time>2020-07-07T15:18:09Z</time>
      </trkpt>
      <trkpt lat="47.13388" lon="-1.34722">
        <ele>28.568266</ele>
        <time>2020-07-07T15:18:11Z</time>
      </trkpt>
      <trkpt lat="47.13382" lon="-1.34722">
        <ele>29.009525</ele>
        <time>2020-07-07T15:18:13Z</time>
      </trkpt>
      <trkpt lat="47.13375" lon="-1.34725">
        <ele>28.74794</ele>
        <time>2020-07-07T15:18:15Z</time>
      </trkpt>
      <trkpt lat="47.13369" lon="-1.34729">
        <ele>28.85363</ele>
        <time>2020-07-07T15:18:17Z</time>
      </trkpt>
      <trkpt lat="47.13364" lon="-1.34735">
        <ele>28.560339</ele>
        <time>2020-07-07T15:18:19Z</time>
      </trkpt>
      <trkpt lat="47.13359" lon="-1.34742">
        <ele>28.171925</ele>
        <time>2020-07-07T15:18:21Z</time>
      </trkpt>
      <trkpt lat="47.13354" lon="-1.34749">
        <ele>28.259119</ele>
        <time>2020-07-07T15:18:23Z</time>
      </trkpt>
      <trkpt lat="47.1335" lon="-1.34756">
        <ele>28.0266</ele>
        <time>2020-07-07T15:18:25Z</time>
      </trkpt>
      <trkpt lat="47.13345" lon="-1.34763">
        <ele>28.34103</ele>
        <time>2020-07-07T15:18:27Z</time>
      </trkpt>
      <trkpt lat="47.13339" lon="-1.34768">
        <ele>28.079445</ele>
        <time>2020-07-07T15:18:29Z</time>
      </trkpt>
      <trkpt lat="47.13334" lon="-1.34772">
        <ele>28.116436</ele>
        <time>2020-07-07T15:18:31Z</time>
      </trkpt>
      <trkpt lat="47.13328" lon="-1.34774">
        <ele>28.49164</ele>
        <time>2020-07-07T15:18:33Z</time>
      </trkpt>
      <trkpt lat="47.13322" lon="-1.34775">
        <ele>28.208916</ele>
        <time>2020-07-07T15:18:35Z</time>
      </trkpt>
      <trkpt lat="47.13315" lon="-1.34776">
        <ele>28.290827</ele>
        <time>2020-07-07T15:18:37Z</time>
      </trkpt>
      <trkpt lat="47.13308" lon="-1.34777">
        <ele>28.39916</ele>
        <time>2020-07-07T15:18:39Z</time>
      </trkpt>
      <trkpt lat="47.133" lon="-1.34778">
        <ele>28.475786</ele>
        <time>2020-07-07T15:18:41Z</time>
      </trkpt>
      <trkpt lat="47.13293" lon="-1.34778">
        <ele>28.668673</ele>
        <time>2020-07-07T15:18:43Z</time>
      </trkpt>
      <trkpt lat="47.13285" lon="-1.34779">
        <ele>28.827208</ele>
        <time>2020-07-07T15:18:45Z</time>
      </trkpt>
      <trkpt lat="47.13277" lon="-1.34779">
        <ele>28.845705</ele>
        <time>2020-07-07T15:18:47Z</time>
      </trkpt>
      <trkpt lat="47.13269" lon="-1.34782">
        <ele>28.975176</ele>
        <time>2020-07-07T15:18:49Z</time>
      </trkpt>
      <trkpt lat="47.1326" lon="-1.34784">
        <ele>29.03859</ele>
        <time>2020-07-07T15:18:51Z</time>
      </trkpt>
      <trkpt lat="47.13252" lon="-1.34786">
        <ele>29.57233</ele>
        <time>2020-07-07T15:18:53Z</time>
      </trkpt>
      <trkpt lat="47.13244" lon="-1.34786">
        <ele>29.321314</ele>
        <time>2020-07-07T15:18:55Z</time>
      </trkpt>
      <trkpt lat="47.13235" lon="-1.34787">
        <ele>29.170704</ele>
        <time>2020-07-07T15:18:57Z</time>
      </trkpt>
      <trkpt lat="47.13227" lon="-1.34787">
        <ele>29.593468</ele>
        <time>2020-07-07T15:18:59Z</time>
      </trkpt>
      <trkpt lat="47.13219" lon="-1.34787">
        <ele>29.82863</ele>
        <time>2020-07-07T15:19:01Z</time>
      </trkpt>
      <trkpt lat="47.13211" lon="-1.34787">
        <ele>30.098143</ele>
        <time>2020-07-07T15:19:03Z</time>
      </trkpt>
      <trkpt lat="47.13203" lon="-1.34788">
        <ele>30.520906</ele>
        <time>2020-07-07T15:19:05Z</time>
      </trkpt>
      <trkpt lat="47.13195" lon="-1.34788">
        <ele>30.565825</ele>
        <time>2020-07-07T15:19:07Z</time>
      </trkpt>
      <trkpt lat="47.13191" lon="-1.34789">
        <ele>30.79306</ele>
        <time>2020-07-07T15:19:08Z</time>
      </trkpt>
      <trkpt lat="47.13183" lon="-1.34789">
        <ele>31.01501</ele>
        <time>2020-07-07T15:19:10Z</time>
      </trkpt>
      <trkpt lat="47.13174" lon="-1.34791">
        <ele>31.229034</ele>
        <time>2020-07-07T15:19:12Z</time>
      </trkpt>
      <trkpt lat="47.13167" lon="-1.34793">
        <ele>30.70058</ele>
        <time>2020-07-07T15:19:14Z</time>
      </trkpt>
      <trkpt lat="47.13159" lon="-1.34795">
        <ele>30.703222</ele>
        <time>2020-07-07T15:19:16Z</time>
      </trkpt>
      <trkpt lat="47.13152" lon="-1.34798">
        <ele>30.999157</ele>
        <time>2020-07-07T15:19:18Z</time>
      </trkpt>
      <trkpt lat="47.13145" lon="-1.348">
        <ele>30.267248</ele>
        <time>2020-07-07T15:19:20Z</time>
      </trkpt>
      <trkpt lat="47.1314" lon="-1.34801">
        <ele>30.539402</ele>
        <time>2020-07-07T15:19:21Z</time>
      </trkpt>
      <trkpt lat="47.13131" lon="-1.34802">
        <ele>30.230255</ele>
        <time>2020-07-07T15:19:23Z</time>
      </trkpt>
      <trkpt lat="47.13127" lon="-1.34803">
        <ele>30.465418</ele>
        <time>2020-07-07T15:19:24Z</time>
      </trkpt>
      <trkpt lat="47.13122" lon="-1.34802">
        <ele>30.552612</ele>
        <time>2020-07-07T15:19:25Z</time>
      </trkpt>
      <trkpt lat="47.13114" lon="-1.34803">
        <ele>30.716434</ele>
        <time>2020-07-07T15:19:27Z</time>
      </trkpt>
      <trkpt lat="47.13106" lon="-1.34804">
        <ele>30.727003</ele>
        <time>2020-07-07T15:19:29Z</time>
      </trkpt>
      <trkpt lat="47.13099" lon="-1.34804">
        <ele>30.954239</ele>
        <time>2020-07-07T15:19:31Z</time>
      </trkpt>
      <trkpt lat="47.13091" lon="-1.34804">
        <ele>31.04936</ele>
        <time>2020-07-07T15:19:33Z</time>
      </trkpt>
      <trkpt lat="47.13083" lon="-1.34804">
        <ele>30.96745</ele>
        <time>2020-07-07T15:19:35Z</time>
      </trkpt>
      <trkpt lat="47.13075" lon="-1.34805">
        <ele>31.223751</ele>
        <time>2020-07-07T15:19:37Z</time>
      </trkpt>
      <trkpt lat="47.13067" lon="-1.34808">
        <ele>31.065214</ele>
        <time>2020-07-07T15:19:39Z</time>
      </trkpt>
      <trkpt lat="47.13062" lon="-1.3481">
        <ele>30.848547</ele>
        <time>2020-07-07T15:19:40Z</time>
      </trkpt>
      <trkpt lat="47.13055" lon="-1.34815">
        <ele>30.679441</ele>
        <time>2020-07-07T15:19:42Z</time>
      </trkpt>
      <trkpt lat="47.13048" lon="-1.3482">
        <ele>31.26867</ele>
        <time>2020-07-07T15:19:44Z</time>
      </trkpt>
      <trkpt lat="47.13041" lon="-1.34825">
        <ele>31.564604</ele>
        <time>2020-07-07T15:19:46Z</time>
      </trkpt>
      <trkpt lat="47.13034" lon="-1.3483">
        <ele>31.435133</ele>
        <time>2020-07-07T15:19:48Z</time>
      </trkpt>
      <trkpt lat="47.13028" lon="-1.34836">
        <ele>31.57253</ele>
        <time>2020-07-07T15:19:50Z</time>
      </trkpt>
      <trkpt lat="47.13021" lon="-1.34841">
        <ele>31.87375</ele>
        <time>2020-07-07T15:19:52Z</time>
      </trkpt>
      <trkpt lat="47.13013" lon="-1.34847">
        <ele>32.021717</ele>
        <time>2020-07-07T15:19:54Z</time>
      </trkpt>
      <trkpt lat="47.13006" lon="-1.34853">
        <ele>32.034927</ele>
        <time>2020-07-07T15:19:56Z</time>
      </trkpt>
      <trkpt lat="47.12998" lon="-1.34859">
        <ele>32.283302</ele>
        <time>2020-07-07T15:19:58Z</time>
      </trkpt>
      <trkpt lat="47.12991" lon="-1.34865">
        <ele>32.56074</ele>
        <time>2020-07-07T15:20:00Z</time>
      </trkpt>
      <trkpt lat="47.12986" lon="-1.34867">
        <ele>32.542244</ele>
        <time>2020-07-07T15:20:01Z</time>
      </trkpt>
      <trkpt lat="47.12979" lon="-1.34873">
        <ele>32.761555</ele>
        <time>2020-07-07T15:20:03Z</time>
      </trkpt>
      <trkpt lat="47.12972" lon="-1.34879">
        <ele>32.661148</ele>
        <time>2020-07-07T15:20:05Z</time>
      </trkpt>
      <trkpt lat="47.12965" lon="-1.34884">
        <ele>32.89367</ele>
        <time>2020-07-07T15:20:07Z</time>
      </trkpt>
      <trkpt lat="47.12959" lon="-1.34888">
        <ele>33.36135</ele>
        <time>2020-07-07T15:20:09Z</time>
      </trkpt>
      <trkpt lat="47.12952" lon="-1.34893">
        <ele>33.353424</ele>
        <time>2020-07-07T15:20:11Z</time>
      </trkpt>
      <trkpt lat="47.12946" lon="-1.34898">
        <ele>33.37456</ele>
        <time>2020-07-07T15:20:13Z</time>
      </trkpt>
      <trkpt lat="47.12941" lon="-1.34901">
        <ele>33.147327</ele>
        <time>2020-07-07T15:20:15Z</time>
      </trkpt>
      <trkpt lat="47.12937" lon="-1.34904">
        <ele>33.69692</ele>
        <time>2020-07-07T15:20:17Z</time>
      </trkpt>
      <trkpt lat="47.12932" lon="-1.34904">
        <ele>33.7022</ele>
        <time>2020-07-07T15:20:19Z</time>
      </trkpt>
      <trkpt lat="47.12927" lon="-1.34898">
        <ele>34.53188</ele>
        <time>2020-07-07T15:20:22Z</time>
      </trkpt>
      <trkpt lat="47.12926" lon="-1.34891">
        <ele>33.633503</ele>
        <time>2020-07-07T15:20:25Z</time>
      </trkpt>
      <trkpt lat="47.12925" lon="-1.34884">
        <ele>35.23208</ele>
        <time>2020-07-07T15:21:10Z</time>
      </trkpt>
      <trkpt lat="47.12924" lon="-1.34877">
        <ele>34.4896</ele>
        <time>2020-07-07T15:21:12Z</time>
      </trkpt>
      <trkpt lat="47.12922" lon="-1.34868">
        <ele>34.391838</ele>
        <time>2020-07-07T15:21:14Z</time>
      </trkpt>
      <trkpt lat="47.1292" lon="-1.34857">
        <ele>36.02212</ele>
        <time>2020-07-07T15:21:16Z</time>
      </trkpt>
      <trkpt lat="47.12917" lon="-1.34846">
        <ele>34.106472</ele>
        <time>2020-07-07T15:21:18Z</time>
      </trkpt>
      <trkpt lat="47.12914" lon="-1.34835">
        <ele>35.200375</ele>
        <time>2020-07-07T15:21:20Z</time>
      </trkpt>
      <trkpt lat="47.12911" lon="-1.34824">
        <ele>33.86338</ele>
        <time>2020-07-07T15:21:22Z</time>
      </trkpt>
      <trkpt lat="47.12909" lon="-1.34814">
        <ele>33.580658</ele>
        <time>2020-07-07T15:21:24Z</time>
      </trkpt>
      <trkpt lat="47.12906" lon="-1.34803">
        <ele>33.718056</ele>
        <time>2020-07-07T15:21:26Z</time>
      </trkpt>
      <trkpt lat="47.12903" lon="-1.34793">
        <ele>33.253017</ele>
        <time>2020-07-07T15:21:28Z</time>
      </trkpt>
      <trkpt lat="47.129" lon="-1.34782">
        <ele>32.909523</ele>
        <time>2020-07-07T15:21:30Z</time>
      </trkpt>
      <trkpt lat="47.12897" lon="-1.34772">
        <ele>31.340012</ele>
        <time>2020-07-07T15:21:32Z</time>
      </trkpt>
      <trkpt lat="47.12895" lon="-1.34762">
        <ele>33.910942</ele>
        <time>2020-07-07T15:21:34Z</time>
      </trkpt>
      <trkpt lat="47.12892" lon="-1.34751">
        <ele>32.737774</ele>
        <time>2020-07-07T15:21:36Z</time>
      </trkpt>
      <trkpt lat="47.12889" lon="-1.3474">
        <ele>31.445702</ele>
        <time>2020-07-07T15:21:38Z</time>
      </trkpt>
      <trkpt lat="47.12885" lon="-1.34729">
        <ele>33.459114</ele>
        <time>2020-07-07T15:21:40Z</time>
      </trkpt>
      <trkpt lat="47.12882" lon="-1.34717">
        <ele>32.576595</ele>
        <time>2020-07-07T15:21:42Z</time>
      </trkpt>
      <trkpt lat="47.1288" lon="-1.34711">
        <ele>31.844685</ele>
        <time>2020-07-07T15:21:43Z</time>
      </trkpt>
      <trkpt lat="47.12878" lon="-1.34704">
        <ele>31.844685</ele>
        <time>2020-07-07T15:21:44Z</time>
      </trkpt>
      <trkpt lat="47.12876" lon="-1.34698">
        <ele>31.820904</ele>
        <time>2020-07-07T15:21:45Z</time>
      </trkpt>
      <trkpt lat="47.12873" lon="-1.34691">
        <ele>33.64143</ele>
        <time>2020-07-07T15:21:46Z</time>
      </trkpt>
      <trkpt lat="47.1287" lon="-1.34684">
        <ele>32.06928</ele>
        <time>2020-07-07T15:21:47Z</time>
      </trkpt>
      <trkpt lat="47.12868" lon="-1.34677">
        <ele>31.736351</ele>
        <time>2020-07-07T15:21:48Z</time>
      </trkpt>
      <trkpt lat="47.12865" lon="-1.34669">
        <ele>32.14062</ele>
        <time>2020-07-07T15:21:49Z</time>
      </trkpt>
      <trkpt lat="47.12862" lon="-1.34662">
        <ele>31.826189</ele>
        <time>2020-07-07T15:21:50Z</time>
      </trkpt>
      <trkpt lat="47.12859" lon="-1.34655">
        <ele>33.02578</ele>
        <time>2020-07-07T15:21:51Z</time>
      </trkpt>
      <trkpt lat="47.12855" lon="-1.34649">
        <ele>31.495905</ele>
        <time>2020-07-07T15:21:52Z</time>
      </trkpt>
      <trkpt lat="47.12851" lon="-1.34643">
        <ele>31.252815</ele>
        <time>2020-07-07T15:21:53Z</time>
      </trkpt>
      <trkpt lat="47.12848" lon="-1.34637">
        <ele>31.221107</ele>
        <time>2020-07-07T15:21:54Z</time>
      </trkpt>
      <trkpt lat="47.12845" lon="-1.3463">
        <ele>30.90932</ele>
        <time>2020-07-07T15:21:55Z</time>
      </trkpt>
      <trkpt lat="47.12841" lon="-1.34624">
        <ele>30.970093</ele>
        <time>2020-07-07T15:21:56Z</time>
      </trkpt>
      <trkpt lat="47.12838" lon="-1.34618">
        <ele>30.954239</ele>
        <time>2020-07-07T15:21:57Z</time>
      </trkpt>
      <trkpt lat="47.12835" lon="-1.34611">
        <ele>30.127207</ele>
        <time>2020-07-07T15:21:58Z</time>
      </trkpt>
      <trkpt lat="47.12832" lon="-1.34605">
        <ele>30.275175</ele>
        <time>2020-07-07T15:21:59Z</time>
      </trkpt>
      <trkpt lat="47.12828" lon="-1.34598">
        <ele>30.29367</ele>
        <time>2020-07-07T15:22:00Z</time>
      </trkpt>
      <trkpt lat="47.12825" lon="-1.34592">
        <ele>29.30546</ele>
        <time>2020-07-07T15:22:01Z</time>
      </trkpt>
      <trkpt lat="47.12822" lon="-1.34586">
        <ele>29.87619</ele>
        <time>2020-07-07T15:22:02Z</time>
      </trkpt>
      <trkpt lat="47.12818" lon="-1.34579">
        <ele>28.803429</ele>
        <time>2020-07-07T15:22:03Z</time>
      </trkpt>
      <trkpt lat="47.12815" lon="-1.34573">
        <ele>28.05038</ele>
        <time>2020-07-07T15:22:04Z</time>
      </trkpt>
      <trkpt lat="47.12811" lon="-1.34567">
        <ele>29.773142</ele>
        <time>2020-07-07T15:22:05Z</time>
      </trkpt>
      <trkpt lat="47.12807" lon="-1.3456">
        <ele>29.02802</ele>
        <time>2020-07-07T15:22:06Z</time>
      </trkpt>
      <trkpt lat="47.12803" lon="-1.34554">
        <ele>28.274973</ele>
        <time>2020-07-07T15:22:07Z</time>
      </trkpt>
      <trkpt lat="47.12799" lon="-1.34547">
        <ele>28.071518</ele>
        <time>2020-07-07T15:22:08Z</time>
      </trkpt>
      <trkpt lat="47.12795" lon="-1.3454">
        <ele>27.122942</ele>
        <time>2020-07-07T15:22:09Z</time>
      </trkpt>
      <trkpt lat="47.12791" lon="-1.34533">
        <ele>26.908916</ele>
        <time>2020-07-07T15:22:10Z</time>
      </trkpt>
      <trkpt lat="47.12787" lon="-1.34525">
        <ele>26.502007</ele>
        <time>2020-07-07T15:22:11Z</time>
      </trkpt>
      <trkpt lat="47.12784" lon="-1.34516">
        <ele>26.11095</ele>
        <time>2020-07-07T15:22:12Z</time>
      </trkpt>
      <trkpt lat="47.12782" lon="-1.34506">
        <ele>26.943268</ele>
        <time>2020-07-07T15:22:13Z</time>
      </trkpt>
      <trkpt lat="47.12782" lon="-1.34496">
        <ele>26.914202</ele>
        <time>2020-07-07T15:22:14Z</time>
      </trkpt>
      <trkpt lat="47.12782" lon="-1.34485">
        <ele>26.361967</ele>
        <time>2020-07-07T15:22:15Z</time>
      </trkpt>
      <trkpt lat="47.12783" lon="-1.34474">
        <ele>25.630056</ele>
        <time>2020-07-07T15:22:16Z</time>
      </trkpt>
      <trkpt lat="47.12785" lon="-1.34462">
        <ele>24.914001</ele>
        <time>2020-07-07T15:22:17Z</time>
      </trkpt>
      <trkpt lat="47.12785" lon="-1.3445">
        <ele>24.821522</ele>
        <time>2020-07-07T15:22:18Z</time>
      </trkpt>
      <trkpt lat="47.12786" lon="-1.34438">
        <ele>24.625992</ele>
        <time>2020-07-07T15:22:19Z</time>
      </trkpt>
      <trkpt lat="47.12785" lon="-1.34425">
        <ele>23.637783</ele>
        <time>2020-07-07T15:22:20Z</time>
      </trkpt>
      <trkpt lat="47.12783" lon="-1.34413">
        <ele>22.958717</ele>
        <time>2020-07-07T15:22:21Z</time>
      </trkpt>
      <trkpt lat="47.12779" lon="-1.34402">
        <ele>23.479246</ele>
        <time>2020-07-07T15:22:22Z</time>
      </trkpt>
      <trkpt lat="47.12775" lon="-1.34391">
        <ele>23.230873</ele>
        <time>2020-07-07T15:22:23Z</time>
      </trkpt>
      <trkpt lat="47.12771" lon="-1.34382">
        <ele>22.35628</ele>
        <time>2020-07-07T15:22:24Z</time>
      </trkpt>
      <trkpt lat="47.12766" lon="-1.34373">
        <ele>21.082703</ele>
        <time>2020-07-07T15:22:25Z</time>
      </trkpt>
      <trkpt lat="47.12761" lon="-1.34364">
        <ele>20.937378</ele>
        <time>2020-07-07T15:22:26Z</time>
      </trkpt>
      <trkpt lat="47.12756" lon="-1.34356">
        <ele>20.115631</ele>
        <time>2020-07-07T15:22:27Z</time>
      </trkpt>
      <trkpt lat="47.12751" lon="-1.34347">
        <ele>21.169899</ele>
        <time>2020-07-07T15:22:28Z</time>
      </trkpt>
      <trkpt lat="47.12746" lon="-1.34338">
        <ele>20.770916</ele>
        <time>2020-07-07T15:22:29Z</time>
      </trkpt>
      <trkpt lat="47.12742" lon="-1.34329">
        <ele>20.321728</ele>
        <time>2020-07-07T15:22:30Z</time>
      </trkpt>
      <trkpt lat="47.12738" lon="-1.34319">
        <ele>19.983517</ele>
        <time>2020-07-07T15:22:31Z</time>
      </trkpt>
      <trkpt lat="47.12735" lon="-1.34309">
        <ele>20.506687</ele>
        <time>2020-07-07T15:22:32Z</time>
      </trkpt>
      <trkpt lat="47.12734" lon="-1.34298">
        <ele>20.247746</ele>
        <time>2020-07-07T15:22:33Z</time>
      </trkpt>
      <trkpt lat="47.12733" lon="-1.34288">
        <ele>19.851404</ele>
        <time>2020-07-07T15:22:34Z</time>
      </trkpt>
      <trkpt lat="47.12733" lon="-1.34277">
        <ele>18.979454</ele>
        <time>2020-07-07T15:22:35Z</time>
      </trkpt>
      <trkpt lat="47.12732" lon="-1.34265">
        <ele>17.476</ele>
        <time>2020-07-07T15:22:36Z</time>
      </trkpt>
      <trkpt lat="47.12732" lon="-1.34254">
        <ele>18.266039</ele>
        <time>2020-07-07T15:22:37Z</time>
      </trkpt>
      <trkpt lat="47.12732" lon="-1.34243">
        <ele>17.819496</ele>
        <time>2020-07-07T15:22:38Z</time>
      </trkpt>
      <trkpt lat="47.12732" lon="-1.34232">
        <ele>16.62783</ele>
        <time>2020-07-07T15:22:39Z</time>
      </trkpt>
      <trkpt lat="47.12732" lon="-1.3422">
        <ele>17.948967</ele>
        <time>2020-07-07T15:22:40Z</time>
      </trkpt>
      <trkpt lat="47.12731" lon="-1.34208">
        <ele>16.387383</ele>
        <time>2020-07-07T15:22:41Z</time>
      </trkpt>
      <trkpt lat="47.1273" lon="-1.34196">
        <ele>16.279049</ele>
        <time>2020-07-07T15:22:42Z</time>
      </trkpt>
      <trkpt lat="47.1273" lon="-1.34184">
        <ele>15.784945</ele>
        <time>2020-07-07T15:22:43Z</time>
      </trkpt>
      <trkpt lat="47.12729" lon="-1.34172">
        <ele>15.5973425</ele>
        <time>2020-07-07T15:22:44Z</time>
      </trkpt>
      <trkpt lat="47.12728" lon="-1.3416">
        <ele>13.953849</ele>
        <time>2020-07-07T15:22:45Z</time>
      </trkpt>
      <trkpt lat="47.12726" lon="-1.34148">
        <ele>13.599784</ele>
        <time>2020-07-07T15:22:46Z</time>
      </trkpt>
      <trkpt lat="47.12725" lon="-1.34136">
        <ele>13.385759</ele>
        <time>2020-07-07T15:22:47Z</time>
      </trkpt>
      <trkpt lat="47.12726" lon="-1.34124">
        <ele>12.257508</ele>
        <time>2020-07-07T15:22:48Z</time>
      </trkpt>
      <trkpt lat="47.12727" lon="-1.34113">
        <ele>11.174176</ele>
        <time>2020-07-07T15:22:49Z</time>
      </trkpt>
      <trkpt lat="47.12728" lon="-1.34103">
        <ele>10.064422</ele>
        <time>2020-07-07T15:22:50Z</time>
      </trkpt>
      <trkpt lat="47.12729" lon="-1.34095">
        <ele>9.924381</ele>
        <time>2020-07-07T15:22:51Z</time>
      </trkpt>
      <trkpt lat="47.12727" lon="-1.34086">
        <ele>7.7682853</ele>
        <time>2020-07-07T15:22:56Z</time>
      </trkpt>
      <trkpt lat="47.12725" lon="-1.34074">
        <ele>6.085157</ele>
        <time>2020-07-07T15:22:58Z</time>
      </trkpt>
      <trkpt lat="47.12724" lon="-1.34067">
        <ele>4.7006054</ele>
        <time>2020-07-07T15:22:59Z</time>
      </trkpt>
      <trkpt lat="47.12721" lon="-1.34062">
        <ele>5.297759</ele>
        <time>2020-07-07T15:23:00Z</time>
      </trkpt>
      <trkpt lat="47.12715" lon="-1.34055">
        <ele>5.3717427</ele>
        <time>2020-07-07T15:23:02Z</time>
      </trkpt>
      <trkpt lat="47.12711" lon="-1.34051">
        <ele>4.520931</ele>
        <time>2020-07-07T15:23:04Z</time>
      </trkpt>
      <trkpt lat="47.12709" lon="-1.34044">
        <ele>5.313613</ele>
        <time>2020-07-07T15:23:06Z</time>
      </trkpt>
      <trkpt lat="47.12711" lon="-1.34036">
        <ele>5.836783</ele>
        <time>2020-07-07T15:23:08Z</time>
      </trkpt>
      <trkpt lat="47.12714" lon="-1.34028">
        <ele>7.0310907</ele>
        <time>2020-07-07T15:23:10Z</time>
      </trkpt>
      <trkpt lat="47.12714" lon="-1.34018">
        <ele>7.0152373</ele>
        <time>2020-07-07T15:23:13Z</time>
      </trkpt>
      <trkpt lat="47.1271" lon="-1.34009">
        <ele>7.617676</ele>
        <time>2020-07-07T15:23:15Z</time>
      </trkpt>
      <trkpt lat="47.12709" lon="-1.34002">
        <ele>8.79613</ele>
        <time>2020-07-07T15:23:17Z</time>
      </trkpt>
      <trkpt lat="47.12709" lon="-1.33995">
        <ele>8.312593</ele>
        <time>2020-07-07T15:23:19Z</time>
      </trkpt>
      <trkpt lat="47.12708" lon="-1.33987">
        <ele>8.624382</ele>
        <time>2020-07-07T15:23:21Z</time>
      </trkpt>
      <trkpt lat="47.12707" lon="-1.33979">
        <ele>8.545114</ele>
        <time>2020-07-07T15:23:23Z</time>
      </trkpt>
      <trkpt lat="47.12705" lon="-1.33971">
        <ele>9.20304</ele>
        <time>2020-07-07T15:23:25Z</time>
      </trkpt>
      <trkpt lat="47.12703" lon="-1.33963">
        <ele>8.690439</ele>
        <time>2020-07-07T15:23:27Z</time>
      </trkpt>
      <trkpt lat="47.12699" lon="-1.33955">
        <ele>8.880683</ele>
        <time>2020-07-07T15:23:29Z</time>
      </trkpt>
      <trkpt lat="47.12698" lon="-1.33947">
        <ele>8.428854</ele>
        <time>2020-07-07T15:23:30Z</time>
      </trkpt>
      <trkpt lat="47.12698" lon="-1.33936">
        <ele>8.497553</ele>
        <time>2020-07-07T15:23:31Z</time>
      </trkpt>
      <trkpt lat="47.12697" lon="-1.33929">
        <ele>8.008732</ele>
        <time>2020-07-07T15:23:32Z</time>
      </trkpt>
      <trkpt lat="47.12695" lon="-1.3392">
        <ele>8.09857</ele>
        <time>2020-07-07T15:23:34Z</time>
      </trkpt>
      <trkpt lat="47.12693" lon="-1.33912">
        <ele>8.27296</ele>
        <time>2020-07-07T15:23:36Z</time>
      </trkpt>
      <trkpt lat="47.12691" lon="-1.33903">
        <ele>8.391862</ele>
        <time>2020-07-07T15:23:38Z</time>
      </trkpt>
      <trkpt lat="47.12687" lon="-1.33893">
        <ele>8.270317</ele>
        <time>2020-07-07T15:23:40Z</time>
      </trkpt>
      <trkpt lat="47.12684" lon="-1.33885">
        <ele>8.117065</ele>
        <time>2020-07-07T15:23:42Z</time>
      </trkpt>
      <trkpt lat="47.12682" lon="-1.33877">
        <ele>9.306088</ele>
        <time>2020-07-07T15:23:44Z</time>
      </trkpt>
      <trkpt lat="47.1268" lon="-1.33871">
        <ele>8.629666</ele>
        <time>2020-07-07T15:23:46Z</time>
      </trkpt>
      <trkpt lat="47.12678" lon="-1.33862">
        <ele>10.228242</ele>
        <time>2020-07-07T15:23:48Z</time>
      </trkpt>
      <trkpt lat="47.12676" lon="-1.33854">
        <ele>9.810763</ele>
        <time>2020-07-07T15:23:50Z</time>
      </trkpt>
      <trkpt lat="47.12675" lon="-1.33846">
        <ele>9.781698</ele>
        <time>2020-07-07T15:23:52Z</time>
      </trkpt>
      <trkpt lat="47.12674" lon="-1.33839">
        <ele>10.315437</ele>
        <time>2020-07-07T15:23:54Z</time>
      </trkpt>
      <trkpt lat="47.12673" lon="-1.33831">
        <ele>10.080275</ele>
        <time>2020-07-07T15:23:56Z</time>
      </trkpt>
      <trkpt lat="47.12671" lon="-1.33823">
        <ele>10.423771</ele>
        <time>2020-07-07T15:23:58Z</time>
      </trkpt>
      <trkpt lat="47.1267" lon="-1.33816">
        <ele>10.738201</ele>
        <time>2020-07-07T15:24:00Z</time>
      </trkpt>
      <trkpt lat="47.12669" lon="-1.33808">
        <ele>10.780478</ele>
        <time>2020-07-07T15:24:02Z</time>
      </trkpt>
      <trkpt lat="47.12668" lon="-1.338">
        <ele>11.057917</ele>
        <time>2020-07-07T15:24:04Z</time>
      </trkpt>
      <trkpt lat="47.12667" lon="-1.33792">
        <ele>11.972143</ele>
        <time>2020-07-07T15:24:06Z</time>
      </trkpt>
      <trkpt lat="47.12665" lon="-1.33785">
        <ele>11.367063</ele>
        <time>2020-07-07T15:24:08Z</time>
      </trkpt>
      <trkpt lat="47.12664" lon="-1.33777">
        <ele>11.900802</ele>
        <time>2020-07-07T15:24:10Z</time>
      </trkpt>
      <trkpt lat="47.12663" lon="-1.33769">
        <ele>13.404256</ele>
        <time>2020-07-07T15:24:12Z</time>
      </trkpt>
      <trkpt lat="47.12661" lon="-1.33761">
        <ele>12.117468</ele>
        <time>2020-07-07T15:24:14Z</time>
      </trkpt>
      <trkpt lat="47.1266" lon="-1.33752">
        <ele>11.932508</ele>
        <time>2020-07-07T15:24:16Z</time>
      </trkpt>
      <trkpt lat="47.12658" lon="-1.33744">
        <ele>12.809744</ele>
        <time>2020-07-07T15:24:18Z</time>
      </trkpt>
      <trkpt lat="47.12656" lon="-1.33735">
        <ele>12.508525</ele>
        <time>2020-07-07T15:24:20Z</time>
      </trkpt>
      <trkpt lat="47.12655" lon="-1.33728">
        <ele>13.219296</ele>
        <time>2020-07-07T15:24:22Z</time>
      </trkpt>
      <trkpt lat="47.12653" lon="-1.33721">
        <ele>13.021126</ele>
        <time>2020-07-07T15:24:24Z</time>
      </trkpt>
      <trkpt lat="47.12651" lon="-1.33714">
        <ele>12.949784</ele>
        <time>2020-07-07T15:24:26Z</time>
      </trkpt>
      <trkpt lat="47.12651" lon="-1.33706">
        <ele>13.229865</ele>
        <time>2020-07-07T15:24:28Z</time>
      </trkpt>
      <trkpt lat="47.12649" lon="-1.33699">
        <ele>13.203443</ele>
        <time>2020-07-07T15:24:30Z</time>
      </trkpt>
      <trkpt lat="47.12648" lon="-1.33691">
        <ele>13.686979</ele>
        <time>2020-07-07T15:24:32Z</time>
      </trkpt>
      <trkpt lat="47.12646" lon="-1.33683">
        <ele>13.644703</ele>
        <time>2020-07-07T15:24:34Z</time>
      </trkpt>
      <trkpt lat="47.12645" lon="-1.33675">
        <ele>13.866653</ele>
        <time>2020-07-07T15:24:36Z</time>
      </trkpt>
      <trkpt lat="47.12643" lon="-1.33667">
        <ele>14.5060835</ele>
        <time>2020-07-07T15:24:38Z</time>
      </trkpt>
      <trkpt lat="47.12642" lon="-1.33659">
        <ele>14.556287</ele>
        <time>2020-07-07T15:24:40Z</time>
      </trkpt>
      <trkpt lat="47.12641" lon="-1.33652">
        <ele>14.957912</ele>
        <time>2020-07-07T15:24:42Z</time>
      </trkpt>
      <trkpt lat="47.1264" lon="-1.33645">
        <ele>13.901003</ele>
        <time>2020-07-07T15:24:44Z</time>
      </trkpt>
      <trkpt lat="47.12639" lon="-1.33637">
        <ele>14.759742</ele>
        <time>2020-07-07T15:24:46Z</time>
      </trkpt>
      <trkpt lat="47.12638" lon="-1.33629">
        <ele>15.095311</ele>
        <time>2020-07-07T15:24:48Z</time>
      </trkpt>
      <trkpt lat="47.12637" lon="-1.33622">
        <ele>14.907709</ele>
        <time>2020-07-07T15:24:50Z</time>
      </trkpt>
      <trkpt lat="47.12635" lon="-1.33614">
        <ele>15.848359</ele>
        <time>2020-07-07T15:24:52Z</time>
      </trkpt>
      <trkpt lat="47.12635" lon="-1.33607">
        <ele>14.508726</ele>
        <time>2020-07-07T15:24:54Z</time>
      </trkpt>
      <trkpt lat="47.12634" lon="-1.336">
        <ele>14.627628</ele>
        <time>2020-07-07T15:24:56Z</time>
      </trkpt>
      <trkpt lat="47.12633" lon="-1.33592">
        <ele>15.378035</ele>
        <time>2020-07-07T15:24:58Z</time>
      </trkpt>
      <trkpt lat="47.12632" lon="-1.33586">
        <ele>15.639619</ele>
        <time>2020-07-07T15:25:00Z</time>
      </trkpt>
      <trkpt lat="47.12631" lon="-1.33579">
        <ele>15.766448</ele>
        <time>2020-07-07T15:25:02Z</time>
      </trkpt>
      <trkpt lat="47.1263" lon="-1.33572">
        <ele>14.683116</ele>
        <time>2020-07-07T15:25:04Z</time>
      </trkpt>
      <trkpt lat="47.12629" lon="-1.33565">
        <ele>14.889214</ele>
        <time>2020-07-07T15:25:06Z</time>
      </trkpt>
      <trkpt lat="47.12628" lon="-1.33558">
        <ele>15.359538</ele>
        <time>2020-07-07T15:25:08Z</time>
      </trkpt>
      <trkpt lat="47.12627" lon="-1.3355">
        <ele>14.8971405</ele>
        <time>2020-07-07T15:25:10Z</time>
      </trkpt>
      <trkpt lat="47.12626" lon="-1.33542">
        <ele>15.724172</ele>
        <time>2020-07-07T15:25:12Z</time>
      </trkpt>
      <trkpt lat="47.12626" lon="-1.33536">
        <ele>15.158726</ele>
        <time>2020-07-07T15:25:14Z</time>
      </trkpt>
      <trkpt lat="47.12624" lon="-1.33528">
        <ele>16.075594</ele>
        <time>2020-07-07T15:25:16Z</time>
      </trkpt>
      <trkpt lat="47.12622" lon="-1.3352">
        <ele>16.157505</ele>
        <time>2020-07-07T15:25:18Z</time>
      </trkpt>
      <trkpt lat="47.12619" lon="-1.33513">
        <ele>15.917058</ele>
        <time>2020-07-07T15:25:20Z</time>
      </trkpt>
      <trkpt lat="47.12616" lon="-1.33507">
        <ele>15.930269</ele>
        <time>2020-07-07T15:25:22Z</time>
      </trkpt>
      <trkpt lat="47.12613" lon="-1.335">
        <ele>16.239416</ele>
        <time>2020-07-07T15:25:24Z</time>
      </trkpt>
      <trkpt lat="47.1261" lon="-1.33494">
        <ele>16.323969</ele>
        <time>2020-07-07T15:25:26Z</time>
      </trkpt>
      <trkpt lat="47.12606" lon="-1.33488">
        <ele>16.345106</ele>
        <time>2020-07-07T15:25:28Z</time>
      </trkpt>
      <trkpt lat="47.12602" lon="-1.33482">
        <ele>16.347748</ele>
        <time>2020-07-07T15:25:30Z</time>
      </trkpt>
      <trkpt lat="47.12597" lon="-1.33476">
        <ele>16.464008</ele>
        <time>2020-07-07T15:25:32Z</time>
      </trkpt>
      <trkpt lat="47.12593" lon="-1.3347">
        <ele>16.944902</ele>
        <time>2020-07-07T15:25:34Z</time>
      </trkpt>
      <trkpt lat="47.12589" lon="-1.33463">
        <ele>16.915838</ele>
        <time>2020-07-07T15:25:36Z</time>
      </trkpt>
      <trkpt lat="47.12585" lon="-1.33457">
        <ele>16.635757</ele>
        <time>2020-07-07T15:25:38Z</time>
      </trkpt>
      <trkpt lat="47.12581" lon="-1.3345">
        <ele>16.33718</ele>
        <time>2020-07-07T15:25:40Z</time>
      </trkpt>
      <trkpt lat="47.12577" lon="-1.33444">
        <ele>17.277828</ele>
        <time>2020-07-07T15:25:42Z</time>
      </trkpt>
      <trkpt lat="47.12574" lon="-1.33439">
        <ele>16.98982</ele>
        <time>2020-07-07T15:25:44Z</time>
      </trkpt>
      <trkpt lat="47.12571" lon="-1.33433">
        <ele>16.66218</ele>
        <time>2020-07-07T15:25:46Z</time>
      </trkpt>
      <trkpt lat="47.12567" lon="-1.33426">
        <ele>16.971325</ele>
        <time>2020-07-07T15:25:48Z</time>
      </trkpt>
      <trkpt lat="47.12563" lon="-1.3342">
        <ele>16.664822</ele>
        <time>2020-07-07T15:25:50Z</time>
      </trkpt>
      <trkpt lat="47.12559" lon="-1.33413">
        <ele>17.779861</ele>
        <time>2020-07-07T15:25:52Z</time>
      </trkpt>
      <trkpt lat="47.12556" lon="-1.33407">
        <ele>19.595104</ele>
        <time>2020-07-07T15:25:54Z</time>
      </trkpt>
      <trkpt lat="47.12552" lon="-1.33401">
        <ele>18.437788</ele>
        <time>2020-07-07T15:25:56Z</time>
      </trkpt>
      <trkpt lat="47.12547" lon="-1.33396">
        <ele>18.688803</ele>
        <time>2020-07-07T15:25:58Z</time>
      </trkpt>
      <trkpt lat="47.12544" lon="-1.33391">
        <ele>19.008518</ele>
        <time>2020-07-07T15:26:00Z</time>
      </trkpt>
      <trkpt lat="47.12538" lon="-1.33385">
        <ele>19.552826</ele>
        <time>2020-07-07T15:26:03Z</time>
      </trkpt>
      <trkpt lat="47.12534" lon="-1.33381">
        <ele>19.721931</ele>
        <time>2020-07-07T15:26:05Z</time>
      </trkpt>
      <trkpt lat="47.12529" lon="-1.33377">
        <ele>20.599167</ele>
        <time>2020-07-07T15:26:07Z</time>
      </trkpt>
      <trkpt lat="47.12525" lon="-1.33373">
        <ele>21.896524</ele>
        <time>2020-07-07T15:26:09Z</time>
      </trkpt>
      <trkpt lat="47.12521" lon="-1.33369">
        <ele>21.38128</ele>
        <time>2020-07-07T15:26:11Z</time>
      </trkpt>
      <trkpt lat="47.12516" lon="-1.33363">
        <ele>21.920303</ele>
        <time>2020-07-07T15:26:14Z</time>
      </trkpt>
      <trkpt lat="47.12512" lon="-1.33359">
        <ele>22.572947</ele>
        <time>2020-07-07T15:26:16Z</time>
      </trkpt>
      <trkpt lat="47.12508" lon="-1.33356">
        <ele>22.255873</ele>
        <time>2020-07-07T15:26:18Z</time>
      </trkpt>
      <trkpt lat="47.12503" lon="-1.33351">
        <ele>23.241442</ele>
        <time>2020-07-07T15:26:21Z</time>
      </trkpt>
      <trkpt lat="47.12499" lon="-1.33347">
        <ele>23.233515</ele>
        <time>2020-07-07T15:26:24Z</time>
      </trkpt>
      <trkpt lat="47.12493" lon="-1.33342">
        <ele>23.06705</ele>
        <time>2020-07-07T15:26:27Z</time>
      </trkpt>
      <trkpt lat="47.12489" lon="-1.33337">
        <ele>22.792255</ele>
        <time>2020-07-07T15:26:29Z</time>
      </trkpt>
      <trkpt lat="47.12487" lon="-1.33328">
        <ele>22.855669</ele>
        <time>2020-07-07T15:26:32Z</time>
      </trkpt>
      <trkpt lat="47.12488" lon="-1.3332">
        <ele>22.570303</ele>
        <time>2020-07-07T15:26:34Z</time>
      </trkpt>
      <trkpt lat="47.1249" lon="-1.33312">
        <ele>23.532091</ele>
        <time>2020-07-07T15:26:36Z</time>
      </trkpt>
      <trkpt lat="47.12493" lon="-1.33304">
        <ele>22.314003</ele>
        <time>2020-07-07T15:26:38Z</time>
      </trkpt>
      <trkpt lat="47.12496" lon="-1.33296">
        <ele>23.759327</ele>
        <time>2020-07-07T15:26:40Z</time>
      </trkpt>
      <trkpt lat="47.125" lon="-1.33288">
        <ele>22.958717</ele>
        <time>2020-07-07T15:26:42Z</time>
      </trkpt>
      <trkpt lat="47.12504" lon="-1.33278">
        <ele>22.649572</ele>
        <time>2020-07-07T15:26:44Z</time>
      </trkpt>
      <trkpt lat="47.12507" lon="-1.33271">
        <ele>21.510752</ele>
        <time>2020-07-07T15:26:47Z</time>
      </trkpt>
      <trkpt lat="47.1251" lon="-1.33264">
        <ele>22.02071</ele>
        <time>2020-07-07T15:26:49Z</time>
      </trkpt>
      <trkpt lat="47.12513" lon="-1.33256">
        <ele>23.074978</ele>
        <time>2020-07-07T15:26:51Z</time>
      </trkpt>
      <trkpt lat="47.12516" lon="-1.33248">
        <ele>22.646929</ele>
        <time>2020-07-07T15:26:53Z</time>
      </trkpt>
      <trkpt lat="47.12519" lon="-1.33241">
        <ele>22.72884</ele>
        <time>2020-07-07T15:26:55Z</time>
      </trkpt>
      <trkpt lat="47.12522" lon="-1.33234">
        <ele>22.662783</ele>
        <time>2020-07-07T15:26:57Z</time>
      </trkpt>
      <trkpt lat="47.12525" lon="-1.33226">
        <ele>23.262579</ele>
        <time>2020-07-07T15:26:59Z</time>
      </trkpt>
      <trkpt lat="47.12526" lon="-1.33215">
        <ele>22.068272</ele>
        <time>2020-07-07T15:27:01Z</time>
      </trkpt>
      <trkpt lat="47.12523" lon="-1.33205">
        <ele>22.424978</ele>
        <time>2020-07-07T15:27:03Z</time>
      </trkpt>
      <trkpt lat="47.12516" lon="-1.33199">
        <ele>20.900387</ele>
        <time>2020-07-07T15:27:05Z</time>
      </trkpt>
      <trkpt lat="47.12507" lon="-1.33193">
        <ele>22.411768</ele>
        <time>2020-07-07T15:27:07Z</time>
      </trkpt>
      <trkpt lat="47.12497" lon="-1.33189">
        <ele>22.28758</ele>
        <time>2020-07-07T15:27:10Z</time>
      </trkpt>
      <trkpt lat="47.12489" lon="-1.33185">
        <ele>22.4514</ele>
        <time>2020-07-07T15:27:13Z</time>
      </trkpt>
      <trkpt lat="47.12482" lon="-1.33179">
        <ele>20.57803</ele>
        <time>2020-07-07T15:27:14Z</time>
      </trkpt>
      <trkpt lat="47.12478" lon="-1.33175">
        <ele>21.851604</ele>
        <time>2020-07-07T15:27:16Z</time>
      </trkpt>
      <trkpt lat="47.12474" lon="-1.33172">
        <ele>21.632296</ele>
        <time>2020-07-07T15:27:17Z</time>
      </trkpt>
      <trkpt lat="47.12465" lon="-1.33164">
        <ele>22.546524</ele>
        <time>2020-07-07T15:27:18Z</time>
      </trkpt>
      <trkpt lat="47.12461" lon="-1.33161">
        <ele>20.805265</ele>
        <time>2020-07-07T15:27:20Z</time>
      </trkpt>
      <trkpt lat="47.12452" lon="-1.33153">
        <ele>21.106483</ele>
        <time>2020-07-07T15:27:21Z</time>
      </trkpt>
      <trkpt lat="47.12447" lon="-1.33149">
        <ele>22.02071</ele>
        <time>2020-07-07T15:27:22Z</time>
      </trkpt>
      <trkpt lat="47.12438" lon="-1.33142">
        <ele>21.14876</ele>
        <time>2020-07-07T15:27:24Z</time>
      </trkpt>
      <trkpt lat="47.12433" lon="-1.33138">
        <ele>20.580671</ele>
        <time>2020-07-07T15:27:25Z</time>
      </trkpt>
      <trkpt lat="47.12422" lon="-1.33129">
        <ele>20.675793</ele>
        <time>2020-07-07T15:27:27Z</time>
      </trkpt>
      <trkpt lat="47.12417" lon="-1.33125">
        <ele>21.29937</ele>
        <time>2020-07-07T15:27:28Z</time>
      </trkpt>
      <trkpt lat="47.12412" lon="-1.3312">
        <ele>20.969086</ele>
        <time>2020-07-07T15:27:29Z</time>
      </trkpt>
      <trkpt lat="47.12406" lon="-1.33115">
        <ele>22.279654</ele>
        <time>2020-07-07T15:27:30Z</time>
      </trkpt>
      <trkpt lat="47.12401" lon="-1.3311">
        <ele>21.302011</ele>
        <time>2020-07-07T15:27:31Z</time>
      </trkpt>
      <trkpt lat="47.12396" lon="-1.33105">
        <ele>19.909534</ele>
        <time>2020-07-07T15:27:32Z</time>
      </trkpt>
      <trkpt lat="47.12391" lon="-1.331">
        <ele>19.980875</ele>
        <time>2020-07-07T15:27:33Z</time>
      </trkpt>
      <trkpt lat="47.12386" lon="-1.33095">
        <ele>20.31116</ele>
        <time>2020-07-07T15:27:34Z</time>
      </trkpt>
      <trkpt lat="47.12381" lon="-1.33089">
        <ele>20.68372</ele>
        <time>2020-07-07T15:27:35Z</time>
      </trkpt>
      <trkpt lat="47.12377" lon="-1.33082">
        <ele>20.094494</ele>
        <time>2020-07-07T15:27:36Z</time>
      </trkpt>
      <trkpt lat="47.12373" lon="-1.33075">
        <ele>20.0575</ele>
        <time>2020-07-07T15:27:37Z</time>
      </trkpt>
      <trkpt lat="47.1237" lon="-1.33068">
        <ele>19.8012</ele>
        <time>2020-07-07T15:27:38Z</time>
      </trkpt>
      <trkpt lat="47.12367" lon="-1.33061">
        <ele>21.040426</ele>
        <time>2020-07-07T15:27:39Z</time>
      </trkpt>
      <trkpt lat="47.12364" lon="-1.33055">
        <ele>20.559534</ele>
        <time>2020-07-07T15:27:40Z</time>
      </trkpt>
      <trkpt lat="47.12361" lon="-1.33048">
        <ele>20.781485</ele>
        <time>2020-07-07T15:27:41Z</time>
      </trkpt>
      <trkpt lat="47.12355" lon="-1.33035">
        <ele>20.501404</ele>
        <time>2020-07-07T15:27:43Z</time>
      </trkpt>
      <trkpt lat="47.12352" lon="-1.33028">
        <ele>19.954453</ele>
        <time>2020-07-07T15:27:44Z</time>
      </trkpt>
      <trkpt lat="47.12349" lon="-1.33022">
        <ele>20.60181</ele>
        <time>2020-07-07T15:27:45Z</time>
      </trkpt>
      <trkpt lat="47.12346" lon="-1.33015">
        <ele>20.580671</ele>
        <time>2020-07-07T15:27:46Z</time>
      </trkpt>
      <trkpt lat="47.12344" lon="-1.33009">
        <ele>20.477623</ele>
        <time>2020-07-07T15:27:47Z</time>
      </trkpt>
      <trkpt lat="47.12341" lon="-1.33003">
        <ele>21.339005</ele>
        <time>2020-07-07T15:27:48Z</time>
      </trkpt>
      <trkpt lat="47.12339" lon="-1.32997">
        <ele>21.082703</ele>
        <time>2020-07-07T15:27:49Z</time>
      </trkpt>
      <trkpt lat="47.12337" lon="-1.32991">
        <ele>20.633516</ele>
        <time>2020-07-07T15:27:50Z</time>
      </trkpt>
      <trkpt lat="47.12334" lon="-1.32985">
        <ele>21.130264</ele>
        <time>2020-07-07T15:27:51Z</time>
      </trkpt>
      <trkpt lat="47.12332" lon="-1.32979">
        <ele>21.365427</ele>
        <time>2020-07-07T15:27:52Z</time>
      </trkpt>
      <trkpt lat="47.1233" lon="-1.32974">
        <ele>21.560955</ele>
        <time>2020-07-07T15:27:53Z</time>
      </trkpt>
      <trkpt lat="47.12325" lon="-1.32962">
        <ele>20.604452</ele>
        <time>2020-07-07T15:27:55Z</time>
      </trkpt>
      <trkpt lat="47.12321" lon="-1.32951">
        <ele>20.628233</ele>
        <time>2020-07-07T15:27:57Z</time>
      </trkpt>
      <trkpt lat="47.12317" lon="-1.3294">
        <ele>21.767052</ele>
        <time>2020-07-07T15:27:59Z</time>
      </trkpt>
      <trkpt lat="47.12312" lon="-1.32929">
        <ele>21.344288</ele>
        <time>2020-07-07T15:28:01Z</time>
      </trkpt>
      <trkpt lat="47.12309" lon="-1.3292">
        <ele>21.695711</ele>
        <time>2020-07-07T15:28:03Z</time>
      </trkpt>
      <trkpt lat="47.12305" lon="-1.32911">
        <ele>22.245304</ele>
        <time>2020-07-07T15:28:05Z</time>
      </trkpt>
      <trkpt lat="47.12302" lon="-1.32902">
        <ele>22.882092</ele>
        <time>2020-07-07T15:28:07Z</time>
      </trkpt>
      <trkpt lat="47.12299" lon="-1.32892">
        <ele>22.583515</ele>
        <time>2020-07-07T15:28:09Z</time>
      </trkpt>
      <trkpt lat="47.12297" lon="-1.32882">
        <ele>22.203028</ele>
        <time>2020-07-07T15:28:11Z</time>
      </trkpt>
      <trkpt lat="47.12294" lon="-1.32872">
        <ele>22.784328</ele>
        <time>2020-07-07T15:28:13Z</time>
      </trkpt>
      <trkpt lat="47.12291" lon="-1.32862">
        <ele>22.964003</ele>
        <time>2020-07-07T15:28:15Z</time>
      </trkpt>
      <trkpt lat="47.12288" lon="-1.32852">
        <ele>23.199165</ele>
        <time>2020-07-07T15:28:17Z</time>
      </trkpt>
      <trkpt lat="47.12285" lon="-1.32843">
        <ele>23.127823</ele>
        <time>2020-07-07T15:28:19Z</time>
      </trkpt>
      <trkpt lat="47.12282" lon="-1.32835">
        <ele>23.15953</ele>
        <time>2020-07-07T15:28:21Z</time>
      </trkpt>
      <trkpt lat="47.12278" lon="-1.32827">
        <ele>23.204449</ele>
        <time>2020-07-07T15:28:23Z</time>
      </trkpt>
      <trkpt lat="47.12273" lon="-1.32821">
        <ele>23.463392</ele>
        <time>2020-07-07T15:28:25Z</time>
      </trkpt>
      <trkpt lat="47.12268" lon="-1.32814">
        <ele>23.724977</ele>
        <time>2020-07-07T15:28:27Z</time>
      </trkpt>
      <trkpt lat="47.12262" lon="-1.32808">
        <ele>23.672132</ele>
        <time>2020-07-07T15:28:29Z</time>
      </trkpt>
      <trkpt lat="47.12257" lon="-1.32801">
        <ele>24.116034</ele>
        <time>2020-07-07T15:28:31Z</time>
      </trkpt>
      <trkpt lat="47.12252" lon="-1.32795">
        <ele>23.71705</ele>
        <time>2020-07-07T15:28:33Z</time>
      </trkpt>
      <trkpt lat="47.12248" lon="-1.32789">
        <ele>23.677416</ele>
        <time>2020-07-07T15:28:35Z</time>
      </trkpt>
      <trkpt lat="47.12243" lon="-1.32783">
        <ele>23.687986</ele>
        <time>2020-07-07T15:28:37Z</time>
      </trkpt>
      <trkpt lat="47.12238" lon="-1.32777">
        <ele>24.729042</ele>
        <time>2020-07-07T15:28:39Z</time>
      </trkpt>
      <trkpt lat="47.12234" lon="-1.32771">
        <ele>24.689407</ele>
        <time>2020-07-07T15:28:41Z</time>
      </trkpt>
      <trkpt lat="47.12229" lon="-1.32765">
        <ele>23.978636</ele>
        <time>2020-07-07T15:28:43Z</time>
      </trkpt>
      <trkpt lat="47.12224" lon="-1.32759">
        <ele>24.443676</ele>
        <time>2020-07-07T15:28:45Z</time>
      </trkpt>
      <trkpt lat="47.12219" lon="-1.32753">
        <ele>24.485952</ele>
        <time>2020-07-07T15:28:47Z</time>
      </trkpt>
      <trkpt lat="47.12214" lon="-1.32746">
        <ele>25.059326</ele>
        <time>2020-07-07T15:28:49Z</time>
      </trkpt>
      <trkpt lat="47.12209" lon="-1.3274">
        <ele>24.90079</ele>
        <time>2020-07-07T15:28:51Z</time>
      </trkpt>
      <trkpt lat="47.12205" lon="-1.32735">
        <ele>24.884935</ele>
        <time>2020-07-07T15:28:53Z</time>
      </trkpt>
      <trkpt lat="47.122" lon="-1.32728">
        <ele>25.550789</ele>
        <time>2020-07-07T15:28:55Z</time>
      </trkpt>
      <trkpt lat="47.12195" lon="-1.32723">
        <ele>25.003838</ele>
        <time>2020-07-07T15:28:57Z</time>
      </trkpt>
      <trkpt lat="47.1219" lon="-1.32718">
        <ele>25.944487</ele>
        <time>2020-07-07T15:28:59Z</time>
      </trkpt>
      <trkpt lat="47.12184" lon="-1.32715">
        <ele>23.783108</ele>
        <time>2020-07-07T15:29:01Z</time>
      </trkpt>
      <trkpt lat="47.12178" lon="-1.32713">
        <ele>25.363188</ele>
        <time>2020-07-07T15:29:03Z</time>
      </trkpt>
      <trkpt lat="47.12172" lon="-1.32711">
        <ele>25.86786</ele>
        <time>2020-07-07T15:29:05Z</time>
      </trkpt>
      <trkpt lat="47.12166" lon="-1.32711">
        <ele>26.134731</ele>
        <time>2020-07-07T15:29:07Z</time>
      </trkpt>
      <trkpt lat="47.12159" lon="-1.32713">
        <ele>25.455667</ele>
        <time>2020-07-07T15:29:09Z</time>
      </trkpt>
      <trkpt lat="47.12154" lon="-1.32716">
        <ele>25.648552</ele>
        <time>2020-07-07T15:29:11Z</time>
      </trkpt>
      <trkpt lat="47.12148" lon="-1.32721">
        <ele>25.566643</ele>
        <time>2020-07-07T15:29:13Z</time>
      </trkpt>
      <trkpt lat="47.12143" lon="-1.32727">
        <ele>26.177008</ele>
        <time>2020-07-07T15:29:15Z</time>
      </trkpt>
      <trkpt lat="47.12137" lon="-1.32734">
        <ele>26.544283</ele>
        <time>2020-07-07T15:29:17Z</time>
      </trkpt>
      <trkpt lat="47.12132" lon="-1.32741">
        <ele>26.314405</ele>
        <time>2020-07-07T15:29:19Z</time>
      </trkpt>
      <trkpt lat="47.12126" lon="-1.32749">
        <ele>27.115015</ele>
        <time>2020-07-07T15:29:21Z</time>
      </trkpt>
      <trkpt lat="47.12121" lon="-1.32757">
        <ele>26.697536</ele>
        <time>2020-07-07T15:29:23Z</time>
      </trkpt>
      <trkpt lat="47.12116" lon="-1.32765">
        <ele>26.507292</ele>
        <time>2020-07-07T15:29:25Z</time>
      </trkpt>
      <trkpt lat="47.12112" lon="-1.32774">
        <ele>27.603836</ele>
        <time>2020-07-07T15:29:27Z</time>
      </trkpt>
      <trkpt lat="47.12108" lon="-1.32781">
        <ele>25.986763</ele>
        <time>2020-07-07T15:29:29Z</time>
      </trkpt>
      <trkpt lat="47.12104" lon="-1.32788">
        <ele>28.216843</ele>
        <time>2020-07-07T15:29:31Z</time>
      </trkpt>
      <trkpt lat="47.121" lon="-1.32795">
        <ele>27.011967</ele>
        <time>2020-07-07T15:29:33Z</time>
      </trkpt>
      <trkpt lat="47.12096" lon="-1.32803">
        <ele>27.215422</ele>
        <time>2020-07-07T15:29:35Z</time>
      </trkpt>
      <trkpt lat="47.12093" lon="-1.32811">
        <ele>27.273552</ele>
        <time>2020-07-07T15:29:37Z</time>
      </trkpt>
      <trkpt lat="47.12089" lon="-1.32821">
        <ele>27.307901</ele>
        <time>2020-07-07T15:29:39Z</time>
      </trkpt>
      <trkpt lat="47.12085" lon="-1.3283">
        <ele>27.630259</ele>
        <time>2020-07-07T15:29:41Z</time>
      </trkpt>
      <trkpt lat="47.12081" lon="-1.32838">
        <ele>27.360746</ele>
        <time>2020-07-07T15:29:43Z</time>
      </trkpt>
      <trkpt lat="47.12078" lon="-1.32845">
        <ele>28.158712</ele>
        <time>2020-07-07T15:29:45Z</time>
      </trkpt>
      <trkpt lat="47.12074" lon="-1.32853">
        <ele>27.429445</ele>
        <time>2020-07-07T15:29:47Z</time>
      </trkpt>
      <trkpt lat="47.1207" lon="-1.32859">
        <ele>27.939404</ele>
        <time>2020-07-07T15:29:49Z</time>
      </trkpt>
      <trkpt lat="47.12065" lon="-1.3286">
        <ele>27.838997</ele>
        <time>2020-07-07T15:29:51Z</time>
      </trkpt>
      <trkpt lat="47.12059" lon="-1.32858">
        <ele>27.807291</ele>
        <time>2020-07-07T15:29:53Z</time>
      </trkpt>
      <trkpt lat="47.12054" lon="-1.32854">
        <ele>28.808712</ele>
        <time>2020-07-07T15:29:55Z</time>
      </trkpt>
      <trkpt lat="47.1205" lon="-1.32847">
        <ele>28.486355</ele>
        <time>2020-07-07T15:29:57Z</time>
      </trkpt>
      <trkpt lat="47.12045" lon="-1.32841">
        <ele>27.059526</ele>
        <time>2020-07-07T15:29:59Z</time>
      </trkpt>
      <trkpt lat="47.12041" lon="-1.32834">
        <ele>27.675177</ele>
        <time>2020-07-07T15:30:01Z</time>
      </trkpt>
      <trkpt lat="47.12036" lon="-1.32828">
        <ele>26.937983</ele>
        <time>2020-07-07T15:30:03Z</time>
      </trkpt>
      <trkpt lat="47.12031" lon="-1.32823">
        <ele>27.408308</ele>
        <time>2020-07-07T15:30:05Z</time>
      </trkpt>
      <trkpt lat="47.12026" lon="-1.32817">
        <ele>27.413591</ele>
        <time>2020-07-07T15:30:07Z</time>
      </trkpt>
      <trkpt lat="47.1202" lon="-1.32811">
        <ele>27.75973</ele>
        <time>2020-07-07T15:30:09Z</time>
      </trkpt>
      <trkpt lat="47.12013" lon="-1.32804">
        <ele>27.347534</ele>
        <time>2020-07-07T15:30:11Z</time>
      </trkpt>
      <trkpt lat="47.12009" lon="-1.32801">
        <ele>27.025177</ele>
        <time>2020-07-07T15:30:12Z</time>
      </trkpt>
      <trkpt lat="47.12002" lon="-1.32793">
        <ele>27.085949</ele>
        <time>2020-07-07T15:30:14Z</time>
      </trkpt>
      <trkpt lat="47.11998" lon="-1.32789">
        <ele>26.4703</ele>
        <time>2020-07-07T15:30:15Z</time>
      </trkpt>
      <trkpt lat="47.11991" lon="-1.32782">
        <ele>27.74652</ele>
        <time>2020-07-07T15:30:17Z</time>
      </trkpt>
      <trkpt lat="47.11984" lon="-1.32775">
        <ele>26.023756</ele>
        <time>2020-07-07T15:30:19Z</time>
      </trkpt>
      <trkpt lat="47.11978" lon="-1.32769">
        <ele>26.290625</ele>
        <time>2020-07-07T15:30:21Z</time>
      </trkpt>
      <trkpt lat="47.11971" lon="-1.32762">
        <ele>25.45831</ele>
        <time>2020-07-07T15:30:23Z</time>
      </trkpt>
      <trkpt lat="47.11964" lon="-1.32754">
        <ele>24.855871</ele>
        <time>2020-07-07T15:30:25Z</time>
      </trkpt>
      <trkpt lat="47.1196" lon="-1.3275">
        <ele>24.760748</ele>
        <time>2020-07-07T15:30:26Z</time>
      </trkpt>
      <trkpt lat="47.11953" lon="-1.32743">
        <ele>24.83209</ele>
        <time>2020-07-07T15:30:28Z</time>
      </trkpt>
      <trkpt lat="47.11949" lon="-1.32739">
        <ele>25.286562</ele>
        <time>2020-07-07T15:30:29Z</time>
      </trkpt>
      <trkpt lat="47.11945" lon="-1.32736">
        <ele>23.72762</ele>
        <time>2020-07-07T15:30:30Z</time>
      </trkpt>
      <trkpt lat="47.11937" lon="-1.32731">
        <ele>24.068474</ele>
        <time>2020-07-07T15:30:32Z</time>
      </trkpt>
      <trkpt lat="47.11931" lon="-1.32735">
        <ele>23.429043</ele>
        <time>2020-07-07T15:30:34Z</time>
      </trkpt>
      <trkpt lat="47.11929" lon="-1.32742">
        <ele>23.270506</ele>
        <time>2020-07-07T15:30:36Z</time>
      </trkpt>
      <trkpt lat="47.1193" lon="-1.3275">
        <ele>24.916643</ele>
        <time>2020-07-07T15:30:38Z</time>
      </trkpt>
      <trkpt lat="47.11932" lon="-1.32757">
        <ele>25.58778</ele>
        <time>2020-07-07T15:30:40Z</time>
      </trkpt>
      <trkpt lat="47.11935" lon="-1.32765">
        <ele>24.441034</ele>
        <time>2020-07-07T15:30:42Z</time>
      </trkpt>
      <trkpt lat="47.11939" lon="-1.32773">
        <ele>24.842659</ele>
        <time>2020-07-07T15:30:44Z</time>
      </trkpt>
      <trkpt lat="47.11936" lon="-1.32781">
        <ele>24.850586</ele>
        <time>2020-07-07T15:30:47Z</time>
      </trkpt>
      <trkpt lat="47.11931" lon="-1.32785">
        <ele>24.351196</ele>
        <time>2020-07-07T15:30:49Z</time>
      </trkpt>
      <trkpt lat="47.11925" lon="-1.32791">
        <ele>25.582497</ele>
        <time>2020-07-07T15:30:51Z</time>
      </trkpt>
      <trkpt lat="47.1192" lon="-1.32798">
        <ele>25.61156</ele>
        <time>2020-07-07T15:30:53Z</time>
      </trkpt>
      <trkpt lat="47.11916" lon="-1.32806">
        <ele>24.639204</ele>
        <time>2020-07-07T15:30:55Z</time>
      </trkpt>
      <trkpt lat="47.11911" lon="-1.32812">
        <ele>25.64591</ele>
        <time>2020-07-07T15:30:57Z</time>
      </trkpt>
      <trkpt lat="47.11905" lon="-1.32815">
        <ele>25.212578</ele>
        <time>2020-07-07T15:30:59Z</time>
      </trkpt>
      <trkpt lat="47.119" lon="-1.32813">
        <ele>25.58778</ele>
        <time>2020-07-07T15:31:01Z</time>
      </trkpt>
      <trkpt lat="47.11895" lon="-1.32808">
        <ele>25.653837</ele>
        <time>2020-07-07T15:31:03Z</time>
      </trkpt>
      <trkpt lat="47.11892" lon="-1.32797">
        <ele>24.322132</ele>
        <time>2020-07-07T15:31:05Z</time>
      </trkpt>
      <trkpt lat="47.11889" lon="-1.32787">
        <ele>23.746115</ele>
        <time>2020-07-07T15:31:07Z</time>
      </trkpt>
      <trkpt lat="47.11884" lon="-1.3278">
        <ele>23.241442</ele>
        <time>2020-07-07T15:31:09Z</time>
      </trkpt>
      <trkpt lat="47.11878" lon="-1.3278">
        <ele>22.652214</ele>
        <time>2020-07-07T15:31:11Z</time>
      </trkpt>
      <trkpt lat="47.11872" lon="-1.32781">
        <ele>22.329857</ele>
        <time>2020-07-07T15:31:13Z</time>
      </trkpt>
      <trkpt lat="47.11865" lon="-1.32778">
        <ele>22.567661</ele>
        <time>2020-07-07T15:31:15Z</time>
      </trkpt>
      <trkpt lat="47.11858" lon="-1.32776">
        <ele>22.086767</ele>
        <time>2020-07-07T15:31:17Z</time>
      </trkpt>
      <trkpt lat="47.11851" lon="-1.32779">
        <ele>21.576809</ele>
        <time>2020-07-07T15:31:19Z</time>
      </trkpt>
      <trkpt lat="47.11845" lon="-1.32783">
        <ele>22.541239</ele>
        <time>2020-07-07T15:31:21Z</time>
      </trkpt>
      <trkpt lat="47.11839" lon="-1.32789">
        <ele>21.782906</ele>
        <time>2020-07-07T15:31:23Z</time>
      </trkpt>
      <trkpt lat="47.11832" lon="-1.32794">
        <ele>21.944084</ele>
        <time>2020-07-07T15:31:25Z</time>
      </trkpt>
      <trkpt lat="47.11826" lon="-1.32798">
        <ele>23.104042</ele>
        <time>2020-07-07T15:31:27Z</time>
      </trkpt>
      <trkpt lat="47.11819" lon="-1.32802">
        <ele>22.586157</ele>
        <time>2020-07-07T15:31:29Z</time>
      </trkpt>
      <trkpt lat="47.11812" lon="-1.32805">
        <ele>22.876808</ele>
        <time>2020-07-07T15:31:31Z</time>
      </trkpt>
      <trkpt lat="47.11805" lon="-1.32809">
        <ele>22.5201</ele>
        <time>2020-07-07T15:31:33Z</time>
      </trkpt>
      <trkpt lat="47.118" lon="-1.32812">
        <ele>22.279654</ele>
        <time>2020-07-07T15:31:34Z</time>
      </trkpt>
      <trkpt lat="47.11796" lon="-1.32815">
        <ele>22.919085</ele>
        <time>2020-07-07T15:31:35Z</time>
      </trkpt>
      <trkpt lat="47.11792" lon="-1.32818">
        <ele>22.4514</ele>
        <time>2020-07-07T15:31:36Z</time>
      </trkpt>
      <trkpt lat="47.11785" lon="-1.32824">
        <ele>22.533312</ele>
        <time>2020-07-07T15:31:38Z</time>
      </trkpt>
      <trkpt lat="47.11779" lon="-1.3283">
        <ele>22.052418</ele>
        <time>2020-07-07T15:31:40Z</time>
      </trkpt>
      <trkpt lat="47.11773" lon="-1.32831">
        <ele>22.353638</ele>
        <time>2020-07-07T15:31:43Z</time>
      </trkpt>
      <trkpt lat="47.11769" lon="-1.32828">
        <ele>22.488394</ele>
        <time>2020-07-07T15:31:45Z</time>
      </trkpt>
      <trkpt lat="47.11765" lon="-1.3282">
        <ele>22.48575</ele>
        <time>2020-07-07T15:31:47Z</time>
      </trkpt>
      <trkpt lat="47.11763" lon="-1.32812">
        <ele>22.570303</ele>
        <time>2020-07-07T15:31:49Z</time>
      </trkpt>
      <trkpt lat="47.11761" lon="-1.32803">
        <ele>22.546524</ele>
        <time>2020-07-07T15:31:51Z</time>
      </trkpt>
      <trkpt lat="47.11758" lon="-1.32793">
        <ele>22.018068</ele>
        <time>2020-07-07T15:31:53Z</time>
      </trkpt>
      <trkpt lat="47.11755" lon="-1.32782">
        <ele>22.150183</ele>
        <time>2020-07-07T15:31:55Z</time>
      </trkpt>
      <trkpt lat="47.11751" lon="-1.3277">
        <ele>22.54388</ele>
        <time>2020-07-07T15:31:57Z</time>
      </trkpt>
      <trkpt lat="47.11748" lon="-1.3276">
        <ele>23.154245</ele>
        <time>2020-07-07T15:31:59Z</time>
      </trkpt>
      <trkpt lat="47.11745" lon="-1.32748">
        <ele>22.572947</ele>
        <time>2020-07-07T15:32:01Z</time>
      </trkpt>
      <trkpt lat="47.11742" lon="-1.32737">
        <ele>23.25201</ele>
        <time>2020-07-07T15:32:03Z</time>
      </trkpt>
      <trkpt lat="47.1174" lon="-1.32726">
        <ele>22.927011</ele>
        <time>2020-07-07T15:32:05Z</time>
      </trkpt>
      <trkpt lat="47.11737" lon="-1.32716">
        <ele>23.492456</ele>
        <time>2020-07-07T15:32:07Z</time>
      </trkpt>
      <trkpt lat="47.11737" lon="-1.32708">
        <ele>22.924368</ele>
        <time>2020-07-07T15:32:09Z</time>
      </trkpt>
      <trkpt lat="47.1174" lon="-1.327">
        <ele>23.188595</ele>
        <time>2020-07-07T15:32:11Z</time>
      </trkpt>
      <trkpt lat="47.11744" lon="-1.32691">
        <ele>21.909735</ele>
        <time>2020-07-07T15:32:13Z</time>
      </trkpt>
      <trkpt lat="47.11749" lon="-1.32682">
        <ele>22.41441</ele>
        <time>2020-07-07T15:32:15Z</time>
      </trkpt>
      <trkpt lat="47.11753" lon="-1.32671">
        <ele>22.189816</ele>
        <time>2020-07-07T15:32:17Z</time>
      </trkpt>
      <trkpt lat="47.11755" lon="-1.32665">
        <ele>21.317865</ele>
        <time>2020-07-07T15:32:18Z</time>
      </trkpt>
      <trkpt lat="47.11757" lon="-1.32659">
        <ele>21.074776</ele>
        <time>2020-07-07T15:32:19Z</time>
      </trkpt>
      <trkpt lat="47.11759" lon="-1.32653">
        <ele>22.04185</ele>
        <time>2020-07-07T15:32:20Z</time>
      </trkpt>
      <trkpt lat="47.11762" lon="-1.32646">
        <ele>20.712786</ele>
        <time>2020-07-07T15:32:21Z</time>
      </trkpt>
      <trkpt lat="47.11765" lon="-1.32639">
        <ele>20.258314</ele>
        <time>2020-07-07T15:32:22Z</time>
      </trkpt>
      <trkpt lat="47.11767" lon="-1.32633">
        <ele>19.280672</ele>
        <time>2020-07-07T15:32:23Z</time>
      </trkpt>
      <trkpt lat="47.11771" lon="-1.32624">
        <ele>19.492054</ele>
        <time>2020-07-07T15:32:25Z</time>
      </trkpt>
      <trkpt lat="47.11777" lon="-1.32614">
        <ele>19.2199</ele>
        <time>2020-07-07T15:32:27Z</time>
      </trkpt>
      <trkpt lat="47.1178" lon="-1.32609">
        <ele>18.017666</ele>
        <time>2020-07-07T15:32:28Z</time>
      </trkpt>
      <trkpt lat="47.11783" lon="-1.32604">
        <ele>18.55669</ele>
        <time>2020-07-07T15:32:29Z</time>
      </trkpt>
      <trkpt lat="47.11786" lon="-1.32599">
        <ele>17.536772</ele>
        <time>2020-07-07T15:32:30Z</time>
      </trkpt>
      <trkpt lat="47.11792" lon="-1.32588">
        <ele>18.131283</ele>
        <time>2020-07-07T15:32:32Z</time>
      </trkpt>
      <trkpt lat="47.11795" lon="-1.32581">
        <ele>17.803642</ele>
        <time>2020-07-07T15:32:34Z</time>
      </trkpt>
      <trkpt lat="47.11799" lon="-1.3257">
        <ele>16.93169</ele>
        <time>2020-07-07T15:32:36Z</time>
      </trkpt>
      <trkpt lat="47.11801" lon="-1.32559">
        <ele>16.173359</ele>
        <time>2020-07-07T15:32:38Z</time>
      </trkpt>
      <trkpt lat="47.11804" lon="-1.32553">
        <ele>16.086163</ele>
        <time>2020-07-07T15:32:40Z</time>
      </trkpt>
      <trkpt lat="47.11802" lon="-1.32547">
        <ele>17.703236</ele>
        <time>2020-07-07T15:32:44Z</time>
      </trkpt>
      <trkpt lat="47.11797" lon="-1.32552">
        <ele>18.62803</ele>
        <time>2020-07-07T15:32:46Z</time>
      </trkpt>
      <trkpt lat="47.11791" lon="-1.32552">
        <ele>17.481285</ele>
        <time>2020-07-07T15:32:49Z</time>
      </trkpt>
      <trkpt lat="47.11787" lon="-1.32549">
        <ele>19.31238</ele>
        <time>2020-07-07T15:32:52Z</time>
      </trkpt>
      <trkpt lat="47.11782" lon="-1.32547">
        <ele>18.852625</ele>
        <time>2020-07-07T15:32:55Z</time>
      </trkpt>
      <trkpt lat="47.11777" lon="-1.32544">
        <ele>21.006077</ele>
        <time>2020-07-07T15:32:58Z</time>
      </trkpt>
      <trkpt lat="47.11773" lon="-1.32541">
        <ele>21.288801</ele>
        <time>2020-07-07T15:33:01Z</time>
      </trkpt>
      <trkpt lat="47.11768" lon="-1.32538">
        <ele>21.920303</ele>
        <time>2020-07-07T15:33:04Z</time>
      </trkpt>
      <trkpt lat="47.11763" lon="-1.32534">
        <ele>22.22945</ele>
        <time>2020-07-07T15:33:07Z</time>
      </trkpt>
      <trkpt lat="47.11759" lon="-1.3253">
        <ele>22.303434</ele>
        <time>2020-07-07T15:33:10Z</time>
      </trkpt>
      <trkpt lat="47.11754" lon="-1.32525">
        <ele>22.060345</ele>
        <time>2020-07-07T15:33:13Z</time>
      </trkpt>
      <trkpt lat="47.1175" lon="-1.32519">
        <ele>22.422337</ele>
        <time>2020-07-07T15:33:16Z</time>
      </trkpt>
      <trkpt lat="47.11745" lon="-1.32515">
        <ele>24.057903</ele>
        <time>2020-07-07T15:33:19Z</time>
      </trkpt>
      <trkpt lat="47.11739" lon="-1.32509">
        <ele>22.924368</ele>
        <time>2020-07-07T15:33:22Z</time>
      </trkpt>
      <trkpt lat="47.11734" lon="-1.32506">
        <ele>23.278433</ele>
        <time>2020-07-07T15:33:25Z</time>
      </trkpt>
      <trkpt lat="47.11731" lon="-1.32501">
        <ele>23.296928</ele>
        <time>2020-07-07T15:33:27Z</time>
      </trkpt>
      <trkpt lat="47.11726" lon="-1.32497">
        <ele>23.133108</ele>
        <time>2020-07-07T15:33:29Z</time>
      </trkpt>
      <trkpt lat="47.11721" lon="-1.32492">
        <ele>23.045914</ele>
        <time>2020-07-07T15:33:32Z</time>
      </trkpt>
      <trkpt lat="47.11716" lon="-1.32488">
        <ele>23.637783</ele>
        <time>2020-07-07T15:33:34Z</time>
      </trkpt>
      <trkpt lat="47.11712" lon="-1.32484">
        <ele>23.999773</ele>
        <time>2020-07-07T15:33:36Z</time>
      </trkpt>
      <trkpt lat="47.11707" lon="-1.3248">
        <ele>23.220303</ele>
        <time>2020-07-07T15:33:38Z</time>
      </trkpt>
      <trkpt lat="47.11704" lon="-1.32476">
        <ele>23.466034</ele>
        <time>2020-07-07T15:33:40Z</time>
      </trkpt>
      <trkpt lat="47.11699" lon="-1.32472">
        <ele>23.082905</ele>
        <time>2020-07-07T15:33:42Z</time>
      </trkpt>
      <trkpt lat="47.11695" lon="-1.32468">
        <ele>24.678839</ele>
        <time>2020-07-07T15:33:44Z</time>
      </trkpt>
      <trkpt lat="47.11691" lon="-1.32464">
        <ele>24.6577</ele>
        <time>2020-07-07T15:33:46Z</time>
      </trkpt>
      <trkpt lat="47.11686" lon="-1.32461">
        <ele>24.776602</ele>
        <time>2020-07-07T15:33:48Z</time>
      </trkpt>
      <trkpt lat="47.11682" lon="-1.32457">
        <ele>24.525587</ele>
        <time>2020-07-07T15:33:50Z</time>
      </trkpt>
      <trkpt lat="47.11678" lon="-1.32453">
        <ele>24.369692</ele>
        <time>2020-07-07T15:33:52Z</time>
      </trkpt>
      <trkpt lat="47.11674" lon="-1.32449">
        <ele>24.628635</ele>
        <time>2020-07-07T15:33:54Z</time>
      </trkpt>
      <trkpt lat="47.1167" lon="-1.32445">
        <ele>24.89022</ele>
        <time>2020-07-07T15:33:56Z</time>
      </trkpt>
      <trkpt lat="47.11665" lon="-1.32441">
        <ele>24.987984</ele>
        <time>2020-07-07T15:33:58Z</time>
      </trkpt>
      <trkpt lat="47.11661" lon="-1.32436">
        <ele>24.596928</ele>
        <time>2020-07-07T15:34:00Z</time>
      </trkpt>
      <trkpt lat="47.11656" lon="-1.32433">
        <ele>24.578432</ele>
        <time>2020-07-07T15:34:02Z</time>
      </trkpt>
      <trkpt lat="47.11651" lon="-1.32428">
        <ele>25.048756</ele>
        <time>2020-07-07T15:34:04Z</time>
      </trkpt>
      <trkpt lat="47.11646" lon="-1.32423">
        <ele>25.104244</ele>
        <time>2020-07-07T15:34:06Z</time>
      </trkpt>
      <trkpt lat="47.11641" lon="-1.32419">
        <ele>24.549366</ele>
        <time>2020-07-07T15:34:08Z</time>
      </trkpt>
      <trkpt lat="47.11636" lon="-1.32414">
        <ele>23.796318</ele>
        <time>2020-07-07T15:34:10Z</time>
      </trkpt>
      <trkpt lat="47.11631" lon="-1.32409">
        <ele>24.499165</ele>
        <time>2020-07-07T15:34:12Z</time>
      </trkpt>
      <trkpt lat="47.11625" lon="-1.32404">
        <ele>23.828026</ele>
        <time>2020-07-07T15:34:14Z</time>
      </trkpt>
      <trkpt lat="47.1162" lon="-1.32399">
        <ele>24.953634</ele>
        <time>2020-07-07T15:34:16Z</time>
      </trkpt>
      <trkpt lat="47.11614" lon="-1.32392">
        <ele>23.497742</ele>
        <time>2020-07-07T15:34:18Z</time>
      </trkpt>
      <trkpt lat="47.11608" lon="-1.32383">
        <ele>24.0764</ele>
        <time>2020-07-07T15:34:20Z</time>
      </trkpt>
      <trkpt lat="47.11606" lon="-1.32377">
        <ele>23.222946</ele>
        <time>2020-07-07T15:34:21Z</time>
      </trkpt>
      <trkpt lat="47.11601" lon="-1.32366">
        <ele>23.986563</ele>
        <time>2020-07-07T15:34:23Z</time>
      </trkpt>
      <trkpt lat="47.11599" lon="-1.3236">
        <ele>22.781685</ele>
        <time>2020-07-07T15:34:24Z</time>
      </trkpt>
      <trkpt lat="47.11595" lon="-1.32348">
        <ele>23.022133</ele>
        <time>2020-07-07T15:34:26Z</time>
      </trkpt>
      <trkpt lat="47.11593" lon="-1.32342">
        <ele>22.419695</ele>
        <time>2020-07-07T15:34:27Z</time>
      </trkpt>
      <trkpt lat="47.11589" lon="-1.32333">
        <ele>21.719492</ele>
        <time>2020-07-07T15:34:29Z</time>
      </trkpt>
      <trkpt lat="47.11588" lon="-1.32325">
        <ele>22.292866</ele>
        <time>2020-07-07T15:34:31Z</time>
      </trkpt>
      <trkpt lat="47.11593" lon="-1.32321">
        <ele>21.682499</ele>
        <time>2020-07-07T15:34:33Z</time>
      </trkpt>
      <trkpt lat="47.11597" lon="-1.32319">
        <ele>22.218882</ele>
        <time>2020-07-07T15:34:35Z</time>
      </trkpt>
      <trkpt lat="47.11602" lon="-1.32316">
        <ele>21.793476</ele>
        <time>2020-07-07T15:34:37Z</time>
      </trkpt>
      <trkpt lat="47.11609" lon="-1.32311">
        <ele>21.679857</ele>
        <time>2020-07-07T15:34:39Z</time>
      </trkpt>
      <trkpt lat="47.11614" lon="-1.32303">
        <ele>22.012783</ele>
        <time>2020-07-07T15:34:41Z</time>
      </trkpt>
      <trkpt lat="47.1162" lon="-1.32294">
        <ele>22.726198</ele>
        <time>2020-07-07T15:34:43Z</time>
      </trkpt>
      <trkpt lat="47.11626" lon="-1.32285">
        <ele>21.989004</ele>
        <time>2020-07-07T15:34:45Z</time>
      </trkpt>
      <trkpt lat="47.11629" lon="-1.3228">
        <ele>22.282295</ele>
        <time>2020-07-07T15:34:46Z</time>
      </trkpt>
      <trkpt lat="47.11632" lon="-1.32274">
        <ele>22.076199</ele>
        <time>2020-07-07T15:34:47Z</time>
      </trkpt>
      <trkpt lat="47.11635" lon="-1.32268">
        <ele>21.188395</ele>
        <time>2020-07-07T15:34:48Z</time>
      </trkpt>
      <trkpt lat="47.11639" lon="-1.32261">
        <ele>21.632296</ele>
        <time>2020-07-07T15:34:49Z</time>
      </trkpt>
      <trkpt lat="47.11642" lon="-1.32254">
        <ele>20.987581</ele>
        <time>2020-07-07T15:34:50Z</time>
      </trkpt>
      <trkpt lat="47.11645" lon="-1.32246">
        <ele>20.437988</ele>
        <time>2020-07-07T15:34:51Z</time>
      </trkpt>
      <trkpt lat="47.11648" lon="-1.32238">
        <ele>19.375795</ele>
        <time>2020-07-07T15:34:52Z</time>
      </trkpt>
      <trkpt lat="47.1165" lon="-1.32227">
        <ele>18.47742</ele>
        <time>2020-07-07T15:34:53Z</time>
      </trkpt>
      <trkpt lat="47.11651" lon="-1.32218">
        <ele>18.490633</ele>
        <time>2020-07-07T15:34:54Z</time>
      </trkpt>
      <trkpt lat="47.11652" lon="-1.3221">
        <ele>18.020308</ele>
        <time>2020-07-07T15:34:55Z</time>
      </trkpt>
      <trkpt lat="47.11655" lon="-1.32198">
        <ele>16.099375</ele>
        <time>2020-07-07T15:34:57Z</time>
      </trkpt>
      <trkpt lat="47.11657" lon="-1.32188">
        <ele>14.669905</ele>
        <time>2020-07-07T15:34:59Z</time>
      </trkpt>
      <trkpt lat="47.1166" lon="-1.3218">
        <ele>14.091247</ele>
        <time>2020-07-07T15:35:01Z</time>
      </trkpt>
      <trkpt lat="47.1166" lon="-1.32173">
        <ele>12.63007</ele>
        <time>2020-07-07T15:35:07Z</time>
      </trkpt>
      <trkpt lat="47.11657" lon="-1.32167">
        <ele>11.697347</ele>
        <time>2020-07-07T15:35:10Z</time>
      </trkpt>
      <trkpt lat="47.11651" lon="-1.32158">
        <ele>11.792468</ele>
        <time>2020-07-07T15:35:12Z</time>
      </trkpt>
      <trkpt lat="47.11647" lon="-1.32152">
        <ele>9.884747</ele>
        <time>2020-07-07T15:35:13Z</time>
      </trkpt>
      <trkpt lat="47.11644" lon="-1.32147">
        <ele>10.608729</ele>
        <time>2020-07-07T15:35:14Z</time>
      </trkpt>
      <trkpt lat="47.11639" lon="-1.32138">
        <ele>7.7101555</ele>
        <time>2020-07-07T15:35:16Z</time>
      </trkpt>
      <trkpt lat="47.11632" lon="-1.32129">
        <ele>8.851618</ele>
        <time>2020-07-07T15:35:18Z</time>
      </trkpt>
      <trkpt lat="47.11628" lon="-1.32121">
        <ele>10.006291</ele>
        <time>2020-07-07T15:35:19Z</time>
      </trkpt>
      <trkpt lat="47.11625" lon="-1.32114">
        <ele>8.70365</ele>
        <time>2020-07-07T15:35:20Z</time>
      </trkpt>
      <trkpt lat="47.11622" lon="-1.32108">
        <ele>7.6256027</ele>
        <time>2020-07-07T15:35:21Z</time>
      </trkpt>
      <trkpt lat="47.11619" lon="-1.32096">
        <ele>6.6690993</ele>
        <time>2020-07-07T15:35:23Z</time>
      </trkpt>
      <trkpt lat="47.11617" lon="-1.32085">
        <ele>4.7323127</ele>
        <time>2020-07-07T15:35:25Z</time>
      </trkpt>
      <trkpt lat="47.1162" lon="-1.32078">
        <ele>5.768084</ele>
        <time>2020-07-07T15:35:27Z</time>
      </trkpt>
      <trkpt lat="47.11623" lon="-1.32073">
        <ele>5.181499</ele>
        <time>2020-07-07T15:35:29Z</time>
      </trkpt>
      <trkpt lat="47.11629" lon="-1.32067">
        <ele>3.8656468</ele>
        <time>2020-07-07T15:35:31Z</time>
      </trkpt>
      <trkpt lat="47.11634" lon="-1.32062">
        <ele>3.8550777</ele>
        <time>2020-07-07T15:35:33Z</time>
      </trkpt>
      <trkpt lat="47.11639" lon="-1.32057">
        <ele>4.740239</ele>
        <time>2020-07-07T15:35:35Z</time>
      </trkpt>
      <trkpt lat="47.11645" lon="-1.32051">
        <ele>4.5579224</ele>
        <time>2020-07-07T15:35:37Z</time>
      </trkpt>
      <trkpt lat="47.11649" lon="-1.32048">
        <ele>2.5867863</ele>
        <time>2020-07-07T15:35:39Z</time>
      </trkpt>
      <trkpt lat="47.11657" lon="-1.32042">
        <ele>3.9052808</ele>
        <time>2020-07-07T15:35:42Z</time>
      </trkpt>
      <trkpt lat="47.11663" lon="-1.32036">
        <ele>3.7071104</ele>
        <time>2020-07-07T15:35:44Z</time>
      </trkpt>
      <trkpt lat="47.11668" lon="-1.32027">
        <ele>3.308127</ele>
        <time>2020-07-07T15:35:46Z</time>
      </trkpt>
      <trkpt lat="47.11669" lon="-1.32014">
        <ele>3.2790618</ele>
        <time>2020-07-07T15:35:48Z</time>
      </trkpt>
      <trkpt lat="47.11667" lon="-1.32002">
        <ele>2.420323</ele>
        <time>2020-07-07T15:35:50Z</time>
      </trkpt>
      <trkpt lat="47.11662" lon="-1.31989">
        <ele>2.5682902</ele>
        <time>2020-07-07T15:35:52Z</time>
      </trkpt>
      <trkpt lat="47.11659" lon="-1.31982">
        <ele>3.8735735</ele>
        <time>2020-07-07T15:35:53Z</time>
      </trkpt>
      <trkpt lat="47.11656" lon="-1.31976">
        <ele>1.9817054</ele>
        <time>2020-07-07T15:35:54Z</time>
      </trkpt>
      <trkpt lat="47.11654" lon="-1.31969">
        <ele>3.6965413</ele>
        <time>2020-07-07T15:35:55Z</time>
      </trkpt>
      <trkpt lat="47.11651" lon="-1.31962">
        <ele>2.6819081</ele>
        <time>2020-07-07T15:35:56Z</time>
      </trkpt>
      <trkpt lat="47.11648" lon="-1.31955">
        <ele>3.4772325</ele>
        <time>2020-07-07T15:35:57Z</time>
      </trkpt>
      <trkpt lat="47.11645" lon="-1.31948">
        <ele>3.781094</ele>
        <time>2020-07-07T15:35:58Z</time>
      </trkpt>
      <trkpt lat="47.11643" lon="-1.31941">
        <ele>2.6158512</ele>
        <time>2020-07-07T15:35:59Z</time>
      </trkpt>
      <trkpt lat="47.1164" lon="-1.31934">
        <ele>3.5908504</ele>
        <time>2020-07-07T15:36:00Z</time>
      </trkpt>
      <trkpt lat="47.11638" lon="-1.31927">
        <ele>2.3965425</ele>
        <time>2020-07-07T15:36:01Z</time>
      </trkpt>
      <trkpt lat="47.11633" lon="-1.31917">
        <ele>2.16138</ele>
        <time>2020-07-07T15:36:03Z</time>
      </trkpt>
      <trkpt lat="47.1163" lon="-1.3191">
        <ele>2.1878028</ele>
        <time>2020-07-07T15:36:04Z</time>
      </trkpt>
      <trkpt lat="47.11627" lon="-1.31903">
        <ele>2.2908516</ele>
        <time>2020-07-07T15:36:05Z</time>
      </trkpt>
      <trkpt lat="47.11624" lon="-1.31896">
        <ele>2.430892</ele>
        <time>2020-07-07T15:36:06Z</time>
      </trkpt>
      <trkpt lat="47.11621" lon="-1.3189">
        <ele>3.7123947</ele>
        <time>2020-07-07T15:36:07Z</time>
      </trkpt>
      <trkpt lat="47.11618" lon="-1.31883">
        <ele>4.1457276</ele>
        <time>2020-07-07T15:36:08Z</time>
      </trkpt>
      <trkpt lat="47.11616" lon="-1.31876">
        <ele>2.5709324</ele>
        <time>2020-07-07T15:36:09Z</time>
      </trkpt>
      <trkpt lat="47.11614" lon="-1.3187">
        <ele>3.9237766</ele>
        <time>2020-07-07T15:36:10Z</time>
      </trkpt>
      <trkpt lat="47.1161" lon="-1.3186">
        <ele>3.3477612</ele>
        <time>2020-07-07T15:36:12Z</time>
      </trkpt>
      <trkpt lat="47.11607" lon="-1.31853">
        <ele>3.413818</ele>
        <time>2020-07-07T15:36:13Z</time>
      </trkpt>
      <trkpt lat="47.11605" lon="-1.31846">
        <ele>3.9396305</ele>
        <time>2020-07-07T15:36:14Z</time>
      </trkpt>
      <trkpt lat="47.11602" lon="-1.3184">
        <ele>3.1654441</ele>
        <time>2020-07-07T15:36:15Z</time>
      </trkpt>
      <trkpt lat="47.11597" lon="-1.31829">
        <ele>3.107314</ele>
        <time>2020-07-07T15:36:17Z</time>
      </trkpt>
      <trkpt lat="47.11592" lon="-1.31819">
        <ele>3.405891</ele>
        <time>2020-07-07T15:36:19Z</time>
      </trkpt>
      <trkpt lat="47.11587" lon="-1.31809">
        <ele>2.5418675</ele>
        <time>2020-07-07T15:36:21Z</time>
      </trkpt>
      <trkpt lat="47.11583" lon="-1.318">
        <ele>2.7162576</ele>
        <time>2020-07-07T15:36:23Z</time>
      </trkpt>
      <trkpt lat="47.11576" lon="-1.3179">
        <ele>2.208941</ele>
        <time>2020-07-07T15:36:25Z</time>
      </trkpt>
      <trkpt lat="47.11572" lon="-1.31786">
        <ele>3.086176</ele>
        <time>2020-07-07T15:36:26Z</time>
      </trkpt>
      <trkpt lat="47.11569" lon="-1.31779">
        <ele>3.3002</ele>
        <time>2020-07-07T15:36:27Z</time>
      </trkpt>
      <trkpt lat="47.11566" lon="-1.31772">
        <ele>2.9117858</ele>
        <time>2020-07-07T15:36:28Z</time>
      </trkpt>
      <trkpt lat="47.11564" lon="-1.31765">
        <ele>2.5630057</ele>
        <time>2020-07-07T15:36:29Z</time>
      </trkpt>
      <trkpt lat="47.1156" lon="-1.31758">
        <ele>2.3991847</ele>
        <time>2020-07-07T15:36:30Z</time>
      </trkpt>
      <trkpt lat="47.11557" lon="-1.31752">
        <ele>3.115241</ele>
        <time>2020-07-07T15:36:31Z</time>
      </trkpt>
      <trkpt lat="47.11554" lon="-1.31746">
        <ele>2.9144282</ele>
        <time>2020-07-07T15:36:32Z</time>
      </trkpt>
      <trkpt lat="47.11551" lon="-1.31742">
        <ele>3.1231678</ele>
        <time>2020-07-07T15:36:33Z</time>
      </trkpt>
      <trkpt lat="47.11546" lon="-1.31739">
        <ele>2.8615828</ele>
        <time>2020-07-07T15:36:34Z</time>
      </trkpt>
      <trkpt lat="47.11541" lon="-1.31733">
        <ele>3.115241</ele>
        <time>2020-07-07T15:36:35Z</time>
      </trkpt>
      <trkpt lat="47.11537" lon="-1.31728">
        <ele>3.432314</ele>
        <time>2020-07-07T15:36:36Z</time>
      </trkpt>
      <trkpt lat="47.11533" lon="-1.31723">
        <ele>3.9898336</ele>
        <time>2020-07-07T15:36:37Z</time>
      </trkpt>
      <trkpt lat="47.11527" lon="-1.31717">
        <ele>2.882721</ele>
        <time>2020-07-07T15:36:39Z</time>
      </trkpt>
      <trkpt lat="47.11521" lon="-1.3171">
        <ele>3.1231678</ele>
        <time>2020-07-07T15:36:41Z</time>
      </trkpt>
      <trkpt lat="47.11515" lon="-1.31704">
        <ele>2.5920706</ele>
        <time>2020-07-07T15:36:43Z</time>
      </trkpt>
      <trkpt lat="47.1151" lon="-1.31699">
        <ele>2.9778428</ele>
        <time>2020-07-07T15:36:45Z</time>
      </trkpt>
      <trkpt lat="47.11505" lon="-1.31693">
        <ele>3.3741837</ele>
        <time>2020-07-07T15:36:47Z</time>
      </trkpt>
      <trkpt lat="47.11501" lon="-1.31687">
        <ele>2.9144282</ele>
        <time>2020-07-07T15:36:49Z</time>
      </trkpt>
      <trkpt lat="47.11496" lon="-1.31682">
        <ele>3.3583302</ele>
        <time>2020-07-07T15:36:51Z</time>
      </trkpt>
      <trkpt lat="47.1149" lon="-1.31678">
        <ele>3.1786556</ele>
        <time>2020-07-07T15:36:53Z</time>
      </trkpt>
      <trkpt lat="47.11486" lon="-1.31674">
        <ele>2.988412</ele>
        <time>2020-07-07T15:36:55Z</time>
      </trkpt>
      <trkpt lat="47.11481" lon="-1.31668">
        <ele>3.337192</ele>
        <time>2020-07-07T15:36:57Z</time>
      </trkpt>
      <trkpt lat="47.11476" lon="-1.31663">
        <ele>3.4402406</ele>
        <time>2020-07-07T15:37:00Z</time>
      </trkpt>
      <trkpt lat="47.11472" lon="-1.31659">
        <ele>3.8128014</ele>
        <time>2020-07-07T15:37:02Z</time>
      </trkpt>
      <trkpt lat="47.11468" lon="-1.31653">
        <ele>3.1495905</ele>
        <time>2020-07-07T15:37:04Z</time>
      </trkpt>
      <trkpt lat="47.11461" lon="-1.31645">
        <ele>3.5697122</ele>
        <time>2020-07-07T15:37:06Z</time>
      </trkpt>
      <trkpt lat="47.11456" lon="-1.31638">
        <ele>3.0306883</ele>
        <time>2020-07-07T15:37:08Z</time>
      </trkpt>
      <trkpt lat="47.11452" lon="-1.31632">
        <ele>3.8022323</ele>
        <time>2020-07-07T15:37:10Z</time>
      </trkpt>
      <trkpt lat="47.11448" lon="-1.31627">
        <ele>4.2197113</ele>
        <time>2020-07-07T15:37:12Z</time>
      </trkpt>
      <trkpt lat="47.11445" lon="-1.31622">
        <ele>4.5764184</ele>
        <time>2020-07-07T15:37:14Z</time>
      </trkpt>
      <trkpt lat="47.11441" lon="-1.31618">
        <ele>4.2540607</ele>
        <time>2020-07-07T15:37:16Z</time>
      </trkpt>
      <trkpt lat="47.11436" lon="-1.31613">
        <ele>4.071744</ele>
        <time>2020-07-07T15:37:18Z</time>
      </trkpt>
      <trkpt lat="47.1143" lon="-1.31609">
        <ele>3.6146307</ele>
        <time>2020-07-07T15:37:20Z</time>
      </trkpt>
      <trkpt lat="47.11425" lon="-1.31605">
        <ele>3.6991835</ele>
        <time>2020-07-07T15:37:22Z</time>
      </trkpt>
      <trkpt lat="47.11419" lon="-1.31602">
        <ele>4.1325164</ele>
        <time>2020-07-07T15:37:24Z</time>
      </trkpt>
      <trkpt lat="47.11414" lon="-1.316">
        <ele>3.3873951</ele>
        <time>2020-07-07T15:37:26Z</time>
      </trkpt>
      <trkpt lat="47.11409" lon="-1.31597">
        <ele>3.3345497</ele>
        <time>2020-07-07T15:37:28Z</time>
      </trkpt>
      <trkpt lat="47.11404" lon="-1.31595">
        <ele>2.8245907</ele>
        <time>2020-07-07T15:37:30Z</time>
      </trkpt>
      <trkpt lat="47.11398" lon="-1.31592">
        <ele>3.7388177</ele>
        <time>2020-07-07T15:37:32Z</time>
      </trkpt>
      <trkpt lat="47.11391" lon="-1.31588">
        <ele>3.6304843</ele>
        <time>2020-07-07T15:37:34Z</time>
      </trkpt>
      <trkpt lat="47.11387" lon="-1.31583">
        <ele>3.7784517</ele>
        <time>2020-07-07T15:37:36Z</time>
      </trkpt>
      <trkpt lat="47.11382" lon="-1.31579">
        <ele>3.366257</ele>
        <time>2020-07-07T15:37:38Z</time>
      </trkpt>
      <trkpt lat="47.11377" lon="-1.31575">
        <ele>3.6489801</ele>
        <time>2020-07-07T15:37:40Z</time>
      </trkpt>
      <trkpt lat="47.11371" lon="-1.3157">
        <ele>3.6067038</ele>
        <time>2020-07-07T15:37:42Z</time>
      </trkpt>
      <trkpt lat="47.11365" lon="-1.31566">
        <ele>3.1363792</ele>
        <time>2020-07-07T15:37:44Z</time>
      </trkpt>
      <trkpt lat="47.11361" lon="-1.31562">
        <ele>4.042679</ele>
        <time>2020-07-07T15:37:46Z</time>
      </trkpt>
      <trkpt lat="47.1136" lon="-1.31553">
        <ele>1.8601608</ele>
        <time>2020-07-07T15:37:49Z</time>
      </trkpt>
      <trkpt lat="47.11365" lon="-1.3155">
        <ele>2.2115831</ele>
        <time>2020-07-07T15:37:52Z</time>
      </trkpt>
      <trkpt lat="47.1137" lon="-1.31547">
        <ele>1.8548763</ele>
        <time>2020-07-07T15:37:54Z</time>
      </trkpt>
      <trkpt lat="47.11377" lon="-1.31544">
        <ele>3.260566</ele>
        <time>2020-07-07T15:37:56Z</time>
      </trkpt>
      <trkpt lat="47.11383" lon="-1.3154">
        <ele>2.4018269</ele>
        <time>2020-07-07T15:37:58Z</time>
      </trkpt>
      <trkpt lat="47.11388" lon="-1.31537">
        <ele>2.5312984</ele>
        <time>2020-07-07T15:38:00Z</time>
      </trkpt>
      <trkpt lat="47.11393" lon="-1.31533">
        <ele>1.8892258</ele>
        <time>2020-07-07T15:38:03Z</time>
      </trkpt>
      <trkpt lat="47.11398" lon="-1.31532">
        <ele>1.8971527</ele>
        <time>2020-07-07T15:38:06Z</time>
      </trkpt>
      <trkpt lat="47.11403" lon="-1.31532">
        <ele>1.5695107</ele>
        <time>2020-07-07T15:38:08Z</time>
      </trkpt>
      <trkpt lat="47.1141" lon="-1.3153">
        <ele>0.87459266</ele>
        <time>2020-07-07T15:38:10Z</time>
      </trkpt>
      <trkpt lat="47.11415" lon="-1.31526">
        <ele>1.9922745</ele>
        <time>2020-07-07T15:38:11Z</time>
      </trkpt>
      <trkpt lat="47.1142" lon="-1.31523">
        <ele>1.7439008</ele>
        <time>2020-07-07T15:38:12Z</time>
      </trkpt>
      <trkpt lat="47.11425" lon="-1.31519">
        <ele>0.8534545</ele>
        <time>2020-07-07T15:38:13Z</time>
      </trkpt>
      <trkpt lat="47.11435" lon="-1.31515">
        <ele>2.7083306</ele>
        <time>2020-07-07T15:38:15Z</time>
      </trkpt>
      <trkpt lat="47.1144" lon="-1.31513">
        <ele>1.9737786</ele>
        <time>2020-07-07T15:38:16Z</time>
      </trkpt>
      <trkpt lat="47.11445" lon="-1.31512">
        <ele>1.4109743</ele>
        <time>2020-07-07T15:38:17Z</time>
      </trkpt>
      <trkpt lat="47.11451" lon="-1.31511">
        <ele>1.8363804</ele>
        <time>2020-07-07T15:38:19Z</time>
      </trkpt>
      <trkpt lat="47.11455" lon="-1.31511">
        <ele>1.7623967</ele>
        <time>2020-07-07T15:38:21Z</time>
      </trkpt>
      <trkpt lat="47.11462" lon="-1.3151">
        <ele>2.1957297</ele>
        <time>2020-07-07T15:38:23Z</time>
      </trkpt>
      <trkpt lat="47.1147" lon="-1.3151">
        <ele>1.1969501</ele>
        <time>2020-07-07T15:38:25Z</time>
      </trkpt>
      <trkpt lat="47.11478" lon="-1.31512">
        <ele>1.1256087</ele>
        <time>2020-07-07T15:38:27Z</time>
      </trkpt>
      <trkpt lat="47.11484" lon="-1.31514">
        <ele>0.7926822</ele>
        <time>2020-07-07T15:38:29Z</time>
      </trkpt>
      <trkpt lat="47.11489" lon="-1.31514">
        <ele>0.44918656</ele>
        <time>2020-07-07T15:38:31Z</time>
      </trkpt>
      <trkpt lat="47.11494" lon="-1.31512">
        <ele>0.53109705</ele>
        <time>2020-07-07T15:38:34Z</time>
      </trkpt>
      <trkpt lat="47.11499" lon="-1.31511">
        <ele>0.1823169</ele>
        <time>2020-07-07T15:38:42Z</time>
      </trkpt>
      <trkpt lat="47.11505" lon="-1.31504">
        <ele>0.24044693</ele>
        <time>2020-07-07T15:38:54Z</time>
      </trkpt>
      <trkpt lat="47.11508" lon="-1.315">
        <ele>-0.8508122</ele>
        <time>2020-07-07T15:39:03Z</time>
      </trkpt>
      <trkpt lat="47.11512" lon="-1.31496">
        <ele>-0.010569096</ele>
        <time>2020-07-07T15:39:17Z</time>
      </trkpt>
      <trkpt lat="47.11515" lon="-1.3149">
        <ele>-0.28008103</ele>
        <time>2020-07-07T15:39:26Z</time>
      </trkpt>
      <trkpt lat="47.11518" lon="-1.31484">
        <ele>0.22459328</ele>
        <time>2020-07-07T15:39:36Z</time>
      </trkpt>
      <trkpt lat="47.1152" lon="-1.31478">
        <ele>0.2536583</ele>
        <time>2020-07-07T15:39:57Z</time>
      </trkpt>
      <trkpt lat="47.11517" lon="-1.31471">
        <ele>0.75569034</ele>
        <time>2020-07-07T15:43:06Z</time>
      </trkpt>
      <trkpt lat="47.11517" lon="-1.31464">
        <ele>1.1467469</ele>
        <time>2020-07-07T15:43:13Z</time>
      </trkpt>
      <trkpt lat="47.11516" lon="-1.31455">
        <ele>1.8601608</ele>
        <time>2020-07-07T15:43:16Z</time>
      </trkpt>
      <trkpt lat="47.11515" lon="-1.31447">
        <ele>2.3859735</ele>
        <time>2020-07-07T15:43:19Z</time>
      </trkpt>
      <trkpt lat="47.11511" lon="-1.31438">
        <ele>2.7558918</ele>
        <time>2020-07-07T15:43:21Z</time>
      </trkpt>
      <trkpt lat="47.11508" lon="-1.31431">
        <ele>2.8536558</ele>
        <time>2020-07-07T15:43:23Z</time>
      </trkpt>
      <trkpt lat="47.11504" lon="-1.31424">
        <ele>2.8378022</ele>
        <time>2020-07-07T15:43:25Z</time>
      </trkpt>
      <trkpt lat="47.11501" lon="-1.31419">
        <ele>3.18394</ele>
        <time>2020-07-07T15:43:27Z</time>
      </trkpt>
      <trkpt lat="47.11501" lon="-1.3141">
        <ele>3.0201192</ele>
        <time>2020-07-07T15:43:30Z</time>
      </trkpt>
      <trkpt lat="47.11506" lon="-1.31407">
        <ele>3.6304843</ele>
        <time>2020-07-07T15:43:33Z</time>
      </trkpt>
      <trkpt lat="47.1151" lon="-1.31413">
        <ele>3.3134115</ele>
        <time>2020-07-07T15:43:35Z</time>
      </trkpt>
      <trkpt lat="47.11514" lon="-1.31419">
        <ele>3.154875</ele>
        <time>2020-07-07T15:43:37Z</time>
      </trkpt>
      <trkpt lat="47.11518" lon="-1.31425">
        <ele>4.092882</ele>
        <time>2020-07-07T15:43:39Z</time>
      </trkpt>
      <trkpt lat="47.11522" lon="-1.3143">
        <ele>2.8008103</ele>
        <time>2020-07-07T15:43:41Z</time>
      </trkpt>
      <trkpt lat="47.11526" lon="-1.31434">
        <ele>4.2540607</ele>
        <time>2020-07-07T15:43:43Z</time>
      </trkpt>
      <trkpt lat="47.1153" lon="-1.31438">
        <ele>4.930483</ele>
        <time>2020-07-07T15:43:45Z</time>
      </trkpt>
      <trkpt lat="47.11535" lon="-1.31441">
        <ele>4.4522314</ele>
        <time>2020-07-07T15:43:47Z</time>
      </trkpt>
      <trkpt lat="47.11541" lon="-1.31446">
        <ele>3.8973541</ele>
        <time>2020-07-07T15:43:50Z</time>
      </trkpt>
      <trkpt lat="47.11545" lon="-1.3145">
        <ele>4.99654</ele>
        <time>2020-07-07T15:43:52Z</time>
      </trkpt>
      <trkpt lat="47.11549" lon="-1.31453">
        <ele>5.0599546</ele>
        <time>2020-07-07T15:43:54Z</time>
      </trkpt>
      <trkpt lat="47.11556" lon="-1.31456">
        <ele>6.4656444</ele>
        <time>2020-07-07T15:43:57Z</time>
      </trkpt>
      <trkpt lat="47.11561" lon="-1.31462">
        <ele>6.090441</ele>
        <time>2020-07-07T15:44:00Z</time>
      </trkpt>
      <trkpt lat="47.11563" lon="-1.31467">
        <ele>6.182921</ele>
        <time>2020-07-07T15:44:02Z</time>
      </trkpt>
      <trkpt lat="47.11565" lon="-1.31475">
        <ele>6.5766196</ele>
        <time>2020-07-07T15:44:04Z</time>
      </trkpt>
      <trkpt lat="47.11567" lon="-1.31484">
        <ele>5.8288565</ele>
        <time>2020-07-07T15:44:06Z</time>
      </trkpt>
      <trkpt lat="47.11569" lon="-1.31494">
        <ele>4.581703</ele>
        <time>2020-07-07T15:44:08Z</time>
      </trkpt>
      <trkpt lat="47.11572" lon="-1.31505">
        <ele>5.78658</ele>
        <time>2020-07-07T15:44:10Z</time>
      </trkpt>
      <trkpt lat="47.11574" lon="-1.31517">
        <ele>5.1682878</ele>
        <time>2020-07-07T15:44:12Z</time>
      </trkpt>
      <trkpt lat="47.11577" lon="-1.31529">
        <ele>4.824792</ele>
        <time>2020-07-07T15:44:14Z</time>
      </trkpt>
      <trkpt lat="47.11581" lon="-1.31538">
        <ele>4.005687</ele>
        <time>2020-07-07T15:44:16Z</time>
      </trkpt>
      <trkpt lat="47.11585" lon="-1.31547">
        <ele>4.967475</ele>
        <time>2020-07-07T15:44:18Z</time>
      </trkpt>
      <trkpt lat="47.11588" lon="-1.31553">
        <ele>3.6331267</ele>
        <time>2020-07-07T15:44:20Z</time>
      </trkpt>
      <trkpt lat="47.11592" lon="-1.31559">
        <ele>3.6436958</ele>
        <time>2020-07-07T15:44:22Z</time>
      </trkpt>
      <trkpt lat="47.11594" lon="-1.31565">
        <ele>4.758735</ele>
        <time>2020-07-07T15:44:24Z</time>
      </trkpt>
      <trkpt lat="47.11597" lon="-1.31571">
        <ele>3.3688993</ele>
        <time>2020-07-07T15:44:26Z</time>
      </trkpt>
      <trkpt lat="47.116" lon="-1.31577">
        <ele>4.507719</ele>
        <time>2020-07-07T15:44:28Z</time>
      </trkpt>
      <trkpt lat="47.11604" lon="-1.31584">
        <ele>4.8274345</ele>
        <time>2020-07-07T15:44:30Z</time>
      </trkpt>
      <trkpt lat="47.11608" lon="-1.31592">
        <ele>4.528857</ele>
        <time>2020-07-07T15:44:32Z</time>
      </trkpt>
      <trkpt lat="47.11612" lon="-1.31601">
        <ele>3.9422727</ele>
        <time>2020-07-07T15:44:34Z</time>
      </trkpt>
      <trkpt lat="47.11616" lon="-1.31608">
        <ele>3.9132075</ele>
        <time>2020-07-07T15:44:36Z</time>
      </trkpt>
      <trkpt lat="47.1162" lon="-1.31613">
        <ele>4.7878003</ele>
        <time>2020-07-07T15:44:38Z</time>
      </trkpt>
      <trkpt lat="47.11624" lon="-1.3162">
        <ele>3.656907</ele>
        <time>2020-07-07T15:44:40Z</time>
      </trkpt>
      <trkpt lat="47.11629" lon="-1.31626">
        <ele>3.5195088</ele>
        <time>2020-07-07T15:44:42Z</time>
      </trkpt>
      <trkpt lat="47.11634" lon="-1.31632">
        <ele>3.6199152</ele>
        <time>2020-07-07T15:44:44Z</time>
      </trkpt>
      <trkpt lat="47.11639" lon="-1.3164">
        <ele>4.2302804</ele>
        <time>2020-07-07T15:44:46Z</time>
      </trkpt>
      <trkpt lat="47.11644" lon="-1.31646">
        <ele>4.312191</ele>
        <time>2020-07-07T15:44:48Z</time>
      </trkpt>
      <trkpt lat="47.11648" lon="-1.31654">
        <ele>3.530078</ele>
        <time>2020-07-07T15:44:50Z</time>
      </trkpt>
      <trkpt lat="47.11653" lon="-1.31661">
        <ele>3.675403</ele>
        <time>2020-07-07T15:44:52Z</time>
      </trkpt>
      <trkpt lat="47.11657" lon="-1.31667">
        <ele>4.1060934</ele>
        <time>2020-07-07T15:44:54Z</time>
      </trkpt>
      <trkpt lat="47.1166" lon="-1.31673">
        <ele>2.8589404</ele>
        <time>2020-07-07T15:44:56Z</time>
      </trkpt>
      <trkpt lat="47.11664" lon="-1.3168">
        <ele>3.7890208</ele>
        <time>2020-07-07T15:44:58Z</time>
      </trkpt>
      <trkpt lat="47.11669" lon="-1.31688">
        <ele>3.762598</ele>
        <time>2020-07-07T15:45:00Z</time>
      </trkpt>
      <trkpt lat="47.11674" lon="-1.31695">
        <ele>3.5247934</ele>
        <time>2020-07-07T15:45:02Z</time>
      </trkpt>
      <trkpt lat="47.1168" lon="-1.31704">
        <ele>3.213005</ele>
        <time>2020-07-07T15:45:04Z</time>
      </trkpt>
      <trkpt lat="47.11684" lon="-1.31711">
        <ele>2.441461</ele>
        <time>2020-07-07T15:45:06Z</time>
      </trkpt>
      <trkpt lat="47.11689" lon="-1.3172">
        <ele>3.6119885</ele>
        <time>2020-07-07T15:45:08Z</time>
      </trkpt>
      <trkpt lat="47.11693" lon="-1.31729">
        <ele>2.3648353</ele>
        <time>2020-07-07T15:45:10Z</time>
      </trkpt>
      <trkpt lat="47.11697" lon="-1.31737">
        <ele>2.6554852</ele>
        <time>2020-07-07T15:45:12Z</time>
      </trkpt>
      <trkpt lat="47.117" lon="-1.31742">
        <ele>0.29857695</ele>
        <time>2020-07-07T15:45:14Z</time>
      </trkpt>
      <trkpt lat="47.11702" lon="-1.31749">
        <ele>2.0292664</ele>
        <time>2020-07-07T15:45:17Z</time>
      </trkpt>
      <trkpt lat="47.11704" lon="-1.31758">
        <ele>2.0504045</ele>
        <time>2020-07-07T15:45:19Z</time>
      </trkpt>
      <trkpt lat="47.11707" lon="-1.31769">
        <ele>2.6396317</ele>
        <time>2020-07-07T15:45:21Z</time>
      </trkpt>
      <trkpt lat="47.11709" lon="-1.3178">
        <ele>2.4652414</ele>
        <time>2020-07-07T15:45:23Z</time>
      </trkpt>
      <trkpt lat="47.11711" lon="-1.31791">
        <ele>1.8125999</ele>
        <time>2020-07-07T15:45:25Z</time>
      </trkpt>
      <trkpt lat="47.11715" lon="-1.31801">
        <ele>2.9197125</ele>
        <time>2020-07-07T15:45:27Z</time>
      </trkpt>
      <trkpt lat="47.11717" lon="-1.31807">
        <ele>2.3965425</ele>
        <time>2020-07-07T15:45:28Z</time>
      </trkpt>
      <trkpt lat="47.11719" lon="-1.31813">
        <ele>2.2485752</ele>
        <time>2020-07-07T15:45:29Z</time>
      </trkpt>
      <trkpt lat="47.11723" lon="-1.31824">
        <ele>2.499591</ele>
        <time>2020-07-07T15:45:31Z</time>
      </trkpt>
      <trkpt lat="47.11726" lon="-1.31834">
        <ele>1.8363804</ele>
        <time>2020-07-07T15:45:33Z</time>
      </trkpt>
      <trkpt lat="47.11728" lon="-1.31842">
        <ele>3.194509</ele>
        <time>2020-07-07T15:45:35Z</time>
      </trkpt>
      <trkpt lat="47.11731" lon="-1.31852">
        <ele>1.9050795</ele>
        <time>2020-07-07T15:45:37Z</time>
      </trkpt>
      <trkpt lat="47.11734" lon="-1.31862">
        <ele>2.0715427</ele>
        <time>2020-07-07T15:45:39Z</time>
      </trkpt>
      <trkpt lat="47.11737" lon="-1.31871">
        <ele>2.54451</ele>
        <time>2020-07-07T15:45:41Z</time>
      </trkpt>
      <trkpt lat="47.1174" lon="-1.31881">
        <ele>2.3621929</ele>
        <time>2020-07-07T15:45:43Z</time>
      </trkpt>
      <trkpt lat="47.11744" lon="-1.3189">
        <ele>2.539225</ele>
        <time>2020-07-07T15:45:45Z</time>
      </trkpt>
      <trkpt lat="47.11747" lon="-1.31899">
        <ele>2.9170704</ele>
        <time>2020-07-07T15:45:47Z</time>
      </trkpt>
      <trkpt lat="47.1175" lon="-1.3191">
        <ele>1.7491853</ele>
        <time>2020-07-07T15:45:49Z</time>
      </trkpt>
      <trkpt lat="47.11755" lon="-1.31919">
        <ele>3.2341433</ele>
        <time>2020-07-07T15:45:51Z</time>
      </trkpt>
      <trkpt lat="47.11759" lon="-1.31928">
        <ele>3.3741837</ele>
        <time>2020-07-07T15:45:53Z</time>
      </trkpt>
      <trkpt lat="47.11763" lon="-1.31936">
        <ele>4.4046707</ele>
        <time>2020-07-07T15:45:55Z</time>
      </trkpt>
      <trkpt lat="47.11766" lon="-1.31944">
        <ele>3.7943053</ele>
        <time>2020-07-07T15:45:57Z</time>
      </trkpt>
      <trkpt lat="47.1177" lon="-1.31952">
        <ele>3.8550777</ele>
        <time>2020-07-07T15:45:59Z</time>
      </trkpt>
      <trkpt lat="47.11774" lon="-1.31962">
        <ele>4.108736</ele>
        <time>2020-07-07T15:46:01Z</time>
      </trkpt>
      <trkpt lat="47.11778" lon="-1.31971">
        <ele>2.9038591</ele>
        <time>2020-07-07T15:46:03Z</time>
      </trkpt>
      <trkpt lat="47.11782" lon="-1.3198">
        <ele>4.2276382</ele>
        <time>2020-07-07T15:46:05Z</time>
      </trkpt>
      <trkpt lat="47.11786" lon="-1.31991">
        <ele>5.2317023</ele>
        <time>2020-07-07T15:46:07Z</time>
      </trkpt>
      <trkpt lat="47.11791" lon="-1.32">
        <ele>3.2949157</ele>
        <time>2020-07-07T15:46:09Z</time>
      </trkpt>
      <trkpt lat="47.11794" lon="-1.32007">
        <ele>4.407313</ele>
        <time>2020-07-07T15:46:11Z</time>
      </trkpt>
      <trkpt lat="47.11799" lon="-1.32016">
        <ele>4.3729634</ele>
        <time>2020-07-07T15:46:13Z</time>
      </trkpt>
      <trkpt lat="47.11803" lon="-1.32025">
        <ele>4.304264</ele>
        <time>2020-07-07T15:46:15Z</time>
      </trkpt>
      <trkpt lat="47.11807" lon="-1.32035">
        <ele>2.6845503</ele>
        <time>2020-07-07T15:46:17Z</time>
      </trkpt>
      <trkpt lat="47.11811" lon="-1.32044">
        <ele>4.642475</ele>
        <time>2020-07-07T15:46:19Z</time>
      </trkpt>
      <trkpt lat="47.11816" lon="-1.32051">
        <ele>3.598777</ele>
        <time>2020-07-07T15:46:21Z</time>
      </trkpt>
      <trkpt lat="47.1182" lon="-1.32059">
        <ele>4.505077</ele>
        <time>2020-07-07T15:46:23Z</time>
      </trkpt>
      <trkpt lat="47.11824" lon="-1.32067">
        <ele>2.6211357</ele>
        <time>2020-07-07T15:46:25Z</time>
      </trkpt>
      <trkpt lat="47.11829" lon="-1.32075">
        <ele>4.2117844</ele>
        <time>2020-07-07T15:46:27Z</time>
      </trkpt>
      <trkpt lat="47.11833" lon="-1.32083">
        <ele>3.8973541</ele>
        <time>2020-07-07T15:46:29Z</time>
      </trkpt>
      <trkpt lat="47.11837" lon="-1.32093">
        <ele>4.629264</ele>
        <time>2020-07-07T15:46:31Z</time>
      </trkpt>
      <trkpt lat="47.1184" lon="-1.32102">
        <ele>4.9093447</ele>
        <time>2020-07-07T15:46:33Z</time>
      </trkpt>
      <trkpt lat="47.11845" lon="-1.32107">
        <ele>5.266052</ele>
        <time>2020-07-07T15:46:35Z</time>
      </trkpt>
      <trkpt lat="47.11849" lon="-1.32109">
        <ele>4.2884107</ele>
        <time>2020-07-07T15:46:37Z</time>
      </trkpt>
      <trkpt lat="47.11855" lon="-1.3211">
        <ele>5.221133</ele>
        <time>2020-07-07T15:46:39Z</time>
      </trkpt>
      <trkpt lat="47.1186" lon="-1.32112">
        <ele>5.5408483</ele>
        <time>2020-07-07T15:46:41Z</time>
      </trkpt>
      <trkpt lat="47.11867" lon="-1.32115">
        <ele>4.3729634</ele>
        <time>2020-07-07T15:46:44Z</time>
      </trkpt>
      <trkpt lat="47.11873" lon="-1.32119">
        <ele>5.6095476</ele>
        <time>2020-07-07T15:46:46Z</time>
      </trkpt>
      <trkpt lat="47.11879" lon="-1.3212">
        <ele>5.9477587</ele>
        <time>2020-07-07T15:46:48Z</time>
      </trkpt>
      <trkpt lat="47.11887" lon="-1.3212">
        <ele>5.4642224</ele>
        <time>2020-07-07T15:46:50Z</time>
      </trkpt>
      <trkpt lat="47.11894" lon="-1.32122">
        <ele>6.2754006</ele>
        <time>2020-07-07T15:46:52Z</time>
      </trkpt>
      <trkpt lat="47.119" lon="-1.32124">
        <ele>7.04166</ele>
        <time>2020-07-07T15:46:54Z</time>
      </trkpt>
      <trkpt lat="47.11907" lon="-1.32129">
        <ele>7.305887</ele>
        <time>2020-07-07T15:46:56Z</time>
      </trkpt>
      <trkpt lat="47.11913" lon="-1.32133">
        <ele>7.6758056</ele>
        <time>2020-07-07T15:46:58Z</time>
      </trkpt>
      <trkpt lat="47.11919" lon="-1.32137">
        <ele>5.6888156</ele>
        <time>2020-07-07T15:47:00Z</time>
      </trkpt>
      <trkpt lat="47.11925" lon="-1.32141">
        <ele>7.858123</ele>
        <time>2020-07-07T15:47:02Z</time>
      </trkpt>
      <trkpt lat="47.11931" lon="-1.32145">
        <ele>7.6810904</ele>
        <time>2020-07-07T15:47:04Z</time>
      </trkpt>
      <trkpt lat="47.11938" lon="-1.32149">
        <ele>7.408936</ele>
        <time>2020-07-07T15:47:06Z</time>
      </trkpt>
      <trkpt lat="47.11944" lon="-1.32153">
        <ele>7.514627</ele>
        <time>2020-07-07T15:47:08Z</time>
      </trkpt>
      <trkpt lat="47.1195" lon="-1.32156">
        <ele>7.15792</ele>
        <time>2020-07-07T15:47:10Z</time>
      </trkpt>
      <trkpt lat="47.11955" lon="-1.3216">
        <ele>6.8038554</ele>
        <time>2020-07-07T15:47:12Z</time>
      </trkpt>
      <trkpt lat="47.11961" lon="-1.32164">
        <ele>6.856701</ele>
        <time>2020-07-07T15:47:14Z</time>
      </trkpt>
      <trkpt lat="47.11967" lon="-1.32169">
        <ele>6.2251973</ele>
        <time>2020-07-07T15:47:16Z</time>
      </trkpt>
      <trkpt lat="47.11974" lon="-1.32174">
        <ele>6.9808874</ele>
        <time>2020-07-07T15:47:18Z</time>
      </trkpt>
      <trkpt lat="47.1198" lon="-1.32178">
        <ele>7.379871</ele>
        <time>2020-07-07T15:47:20Z</time>
      </trkpt>
      <trkpt lat="47.11985" lon="-1.32183">
        <ele>7.403651</ele>
        <time>2020-07-07T15:47:22Z</time>
      </trkpt>
      <trkpt lat="47.11991" lon="-1.32186">
        <ele>7.630887</ele>
        <time>2020-07-07T15:47:24Z</time>
      </trkpt>
      <trkpt lat="47.11996" lon="-1.32191">
        <ele>7.535765</ele>
        <time>2020-07-07T15:47:26Z</time>
      </trkpt>
      <trkpt lat="47.12002" lon="-1.32195">
        <ele>7.646741</ele>
        <time>2020-07-07T15:47:28Z</time>
      </trkpt>
      <trkpt lat="47.12008" lon="-1.32199">
        <ele>8.600601</ele>
        <time>2020-07-07T15:47:30Z</time>
      </trkpt>
      <trkpt lat="47.12014" lon="-1.32204">
        <ele>7.620318</ele>
        <time>2020-07-07T15:47:32Z</time>
      </trkpt>
      <trkpt lat="47.1202" lon="-1.32209">
        <ele>8.151415</ele>
        <time>2020-07-07T15:47:34Z</time>
      </trkpt>
      <trkpt lat="47.12026" lon="-1.32214">
        <ele>7.414221</ele>
        <time>2020-07-07T15:47:36Z</time>
      </trkpt>
      <trkpt lat="47.12032" lon="-1.32218">
        <ele>7.3666596</ele>
        <time>2020-07-07T15:47:38Z</time>
      </trkpt>
      <trkpt lat="47.12037" lon="-1.32221">
        <ele>7.969098</ele>
        <time>2020-07-07T15:47:40Z</time>
      </trkpt>
      <trkpt lat="47.12043" lon="-1.32223">
        <ele>7.493489</ele>
        <time>2020-07-07T15:47:42Z</time>
      </trkpt>
      <trkpt lat="47.1205" lon="-1.32225">
        <ele>8.0562935</ele>
        <time>2020-07-07T15:47:44Z</time>
      </trkpt>
      <trkpt lat="47.12056" lon="-1.32226">
        <ele>7.929464</ele>
        <time>2020-07-07T15:47:46Z</time>
      </trkpt>
      <trkpt lat="47.12063" lon="-1.32228">
        <ele>8.6508045</ele>
        <time>2020-07-07T15:47:48Z</time>
      </trkpt>
      <trkpt lat="47.12071" lon="-1.32229">
        <ele>8.592674</ele>
        <time>2020-07-07T15:47:50Z</time>
      </trkpt>
      <trkpt lat="47.12077" lon="-1.32229">
        <ele>7.522554</ele>
        <time>2020-07-07T15:47:52Z</time>
      </trkpt>
      <trkpt lat="47.12083" lon="-1.32229">
        <ele>8.172553</ele>
        <time>2020-07-07T15:47:54Z</time>
      </trkpt>
      <trkpt lat="47.1209" lon="-1.32229">
        <ele>7.5516186</ele>
        <time>2020-07-07T15:47:56Z</time>
      </trkpt>
      <trkpt lat="47.12096" lon="-1.32229">
        <ele>7.950602</ele>
        <time>2020-07-07T15:47:58Z</time>
      </trkpt>
      <trkpt lat="47.12104" lon="-1.32228">
        <ele>8.368081</ele>
        <time>2020-07-07T15:48:00Z</time>
      </trkpt>
      <trkpt lat="47.12111" lon="-1.32227">
        <ele>7.94796</ele>
        <time>2020-07-07T15:48:02Z</time>
      </trkpt>
      <trkpt lat="47.12118" lon="-1.32225">
        <ele>7.2371883</ele>
        <time>2020-07-07T15:48:04Z</time>
      </trkpt>
      <trkpt lat="47.12125" lon="-1.32223">
        <ele>8.418284</ele>
        <time>2020-07-07T15:48:06Z</time>
      </trkpt>
      <trkpt lat="47.1213" lon="-1.32221">
        <ele>7.6440983</ele>
        <time>2020-07-07T15:48:08Z</time>
      </trkpt>
      <trkpt lat="47.12136" lon="-1.32219">
        <ele>8.088</ele>
        <time>2020-07-07T15:48:10Z</time>
      </trkpt>
      <trkpt lat="47.12142" lon="-1.32216">
        <ele>8.510764</ele>
        <time>2020-07-07T15:48:12Z</time>
      </trkpt>
      <trkpt lat="47.12148" lon="-1.32214">
        <ele>8.241252</ele>
        <time>2020-07-07T15:48:14Z</time>
      </trkpt>
      <trkpt lat="47.12154" lon="-1.3221">
        <ele>7.7947083</ele>
        <time>2020-07-07T15:48:16Z</time>
      </trkpt>
      <trkpt lat="47.1216" lon="-1.32208">
        <ele>8.280887</ele>
        <time>2020-07-07T15:48:18Z</time>
      </trkpt>
      <trkpt lat="47.12167" lon="-1.32205">
        <ele>8.428854</ele>
        <time>2020-07-07T15:48:20Z</time>
      </trkpt>
      <trkpt lat="47.12175" lon="-1.32202">
        <ele>6.9201155</ele>
        <time>2020-07-07T15:48:22Z</time>
      </trkpt>
      <trkpt lat="47.1218" lon="-1.32202">
        <ele>8.545114</ele>
        <time>2020-07-07T15:48:23Z</time>
      </trkpt>
      <trkpt lat="47.12188" lon="-1.322">
        <ele>7.8184886</ele>
        <time>2020-07-07T15:48:25Z</time>
      </trkpt>
      <trkpt lat="47.12196" lon="-1.32199">
        <ele>7.630887</ele>
        <time>2020-07-07T15:48:27Z</time>
      </trkpt>
      <trkpt lat="47.12203" lon="-1.32198">
        <ele>7.382513</ele>
        <time>2020-07-07T15:48:29Z</time>
      </trkpt>
      <trkpt lat="47.12211" lon="-1.32196">
        <ele>8.381292</ele>
        <time>2020-07-07T15:48:31Z</time>
      </trkpt>
      <trkpt lat="47.12219" lon="-1.32194">
        <ele>8.777634</ele>
        <time>2020-07-07T15:48:33Z</time>
      </trkpt>
      <trkpt lat="47.12226" lon="-1.32191">
        <ele>7.950602</ele>
        <time>2020-07-07T15:48:35Z</time>
      </trkpt>
      <trkpt lat="47.12233" lon="-1.32189">
        <ele>8.333732</ele>
        <time>2020-07-07T15:48:37Z</time>
      </trkpt>
      <trkpt lat="47.1224" lon="-1.32186">
        <ele>7.0284486</ele>
        <time>2020-07-07T15:48:39Z</time>
      </trkpt>
      <trkpt lat="47.12245" lon="-1.32184">
        <ele>6.743083</ele>
        <time>2020-07-07T15:48:41Z</time>
      </trkpt>
      <trkpt lat="47.12251" lon="-1.3218">
        <ele>7.223977</ele>
        <time>2020-07-07T15:48:43Z</time>
      </trkpt>
      <trkpt lat="47.12259" lon="-1.32175">
        <ele>7.8079195</ele>
        <time>2020-07-07T15:48:45Z</time>
      </trkpt>
      <trkpt lat="47.12265" lon="-1.3217">
        <ele>6.6426764</ele>
        <time>2020-07-07T15:48:47Z</time>
      </trkpt>
      <trkpt lat="47.12271" lon="-1.32165">
        <ele>7.0073104</ele>
        <time>2020-07-07T15:48:49Z</time>
      </trkpt>
      <trkpt lat="47.12276" lon="-1.32159">
        <ele>6.861985</ele>
        <time>2020-07-07T15:48:51Z</time>
      </trkpt>
      <trkpt lat="47.1228" lon="-1.32153">
        <ele>7.5067</ele>
        <time>2020-07-07T15:48:53Z</time>
      </trkpt>
      <trkpt lat="47.12287" lon="-1.32146">
        <ele>7.8951144</ele>
        <time>2020-07-07T15:48:55Z</time>
      </trkpt>
      <trkpt lat="47.12293" lon="-1.32141">
        <ele>6.9201155</ele>
        <time>2020-07-07T15:48:57Z</time>
      </trkpt>
      <trkpt lat="47.12299" lon="-1.32135">
        <ele>7.2503996</ele>
        <time>2020-07-07T15:48:59Z</time>
      </trkpt>
      <trkpt lat="47.12307" lon="-1.3213">
        <ele>7.2451153</ele>
        <time>2020-07-07T15:49:01Z</time>
      </trkpt>
      <trkpt lat="47.12312" lon="-1.3213">
        <ele>7.202839</ele>
        <time>2020-07-07T15:49:02Z</time>
      </trkpt>
      <trkpt lat="47.12317" lon="-1.3213">
        <ele>7.987594</ele>
        <time>2020-07-07T15:49:03Z</time>
      </trkpt>
      <trkpt lat="47.12326" lon="-1.32132">
        <ele>8.394505</ele>
        <time>2020-07-07T15:49:05Z</time>
      </trkpt>
      <trkpt lat="47.12334" lon="-1.32133">
        <ele>6.4973516</ele>
        <time>2020-07-07T15:49:07Z</time>
      </trkpt>
      <trkpt lat="47.12339" lon="-1.32135">
        <ele>8.185764</ele>
        <time>2020-07-07T15:49:08Z</time>
      </trkpt>
      <trkpt lat="47.12344" lon="-1.32136">
        <ele>7.3640175</ele>
        <time>2020-07-07T15:49:09Z</time>
      </trkpt>
      <trkpt lat="47.12349" lon="-1.32137">
        <ele>7.707513</ele>
        <time>2020-07-07T15:49:10Z</time>
      </trkpt>
      <trkpt lat="47.12354" lon="-1.32138">
        <ele>6.3784494</ele>
        <time>2020-07-07T15:49:11Z</time>
      </trkpt>
      <trkpt lat="47.12363" lon="-1.3214">
        <ele>6.8751965</ele>
        <time>2020-07-07T15:49:13Z</time>
      </trkpt>
      <trkpt lat="47.12368" lon="-1.32142">
        <ele>7.0178795</ele>
        <time>2020-07-07T15:49:14Z</time>
      </trkpt>
      <trkpt lat="47.12373" lon="-1.32143">
        <ele>6.6136117</ele>
        <time>2020-07-07T15:49:15Z</time>
      </trkpt>
      <trkpt lat="47.12377" lon="-1.32144">
        <ele>7.2371883</ele>
        <time>2020-07-07T15:49:16Z</time>
      </trkpt>
      <trkpt lat="47.12382" lon="-1.32146">
        <ele>5.4166613</ele>
        <time>2020-07-07T15:49:17Z</time>
      </trkpt>
      <trkpt lat="47.12387" lon="-1.32147">
        <ele>5.7178807</ele>
        <time>2020-07-07T15:49:18Z</time>
      </trkpt>
      <trkpt lat="47.12392" lon="-1.32147">
        <ele>6.1485715</ele>
        <time>2020-07-07T15:49:20Z</time>
      </trkpt>
      <trkpt lat="47.12398" lon="-1.32146">
        <ele>5.535564</ele>
        <time>2020-07-07T15:49:22Z</time>
      </trkpt>
      <trkpt lat="47.12404" lon="-1.32145">
        <ele>7.2371883</ele>
        <time>2020-07-07T15:49:24Z</time>
      </trkpt>
      <trkpt lat="47.12411" lon="-1.32144">
        <ele>5.741661</ele>
        <time>2020-07-07T15:49:26Z</time>
      </trkpt>
      <trkpt lat="47.12418" lon="-1.32143">
        <ele>7.533123</ele>
        <time>2020-07-07T15:49:28Z</time>
      </trkpt>
      <trkpt lat="47.12423" lon="-1.32142">
        <ele>7.7022285</ele>
        <time>2020-07-07T15:49:30Z</time>
      </trkpt>
      <trkpt lat="47.12429" lon="-1.32139">
        <ele>8.135561</ele>
        <time>2020-07-07T15:49:33Z</time>
      </trkpt>
      <trkpt lat="47.12433" lon="-1.32136">
        <ele>8.952024</ele>
        <time>2020-07-07T15:49:36Z</time>
      </trkpt>
      <trkpt lat="47.12437" lon="-1.32133">
        <ele>8.619098</ele>
        <time>2020-07-07T15:49:38Z</time>
      </trkpt>
      <trkpt lat="47.12441" lon="-1.3213">
        <ele>10.357714</ele>
        <time>2020-07-07T15:49:40Z</time>
      </trkpt>
      <trkpt lat="47.12447" lon="-1.32127">
        <ele>9.966658</ele>
        <time>2020-07-07T15:49:43Z</time>
      </trkpt>
      <trkpt lat="47.12452" lon="-1.32125">
        <ele>9.649584</ele>
        <time>2020-07-07T15:49:45Z</time>
      </trkpt>
      <trkpt lat="47.12457" lon="-1.32124">
        <ele>9.55182</ele>
        <time>2020-07-07T15:49:46Z</time>
      </trkpt>
      <trkpt lat="47.12464" lon="-1.32123">
        <ele>10.7355585</ele>
        <time>2020-07-07T15:49:48Z</time>
      </trkpt>
      <trkpt lat="47.12469" lon="-1.32122">
        <ele>11.541452</ele>
        <time>2020-07-07T15:49:50Z</time>
      </trkpt>
      <trkpt lat="47.12474" lon="-1.32121">
        <ele>10.904664</ele>
        <time>2020-07-07T15:49:52Z</time>
      </trkpt>
      <trkpt lat="47.1248" lon="-1.32121">
        <ele>11.086981</ele>
        <time>2020-07-07T15:49:55Z</time>
      </trkpt>
      <trkpt lat="47.12486" lon="-1.32123">
        <ele>11.803038</ele>
        <time>2020-07-07T15:49:58Z</time>
      </trkpt>
      <trkpt lat="47.12492" lon="-1.32124">
        <ele>12.815028</ele>
        <time>2020-07-07T15:50:01Z</time>
      </trkpt>
      <trkpt lat="47.12497" lon="-1.32128">
        <ele>13.137386</ele>
        <time>2020-07-07T15:50:05Z</time>
      </trkpt>
      <trkpt lat="47.12502" lon="-1.32131">
        <ele>14.027832</ele>
        <time>2020-07-07T15:50:09Z</time>
      </trkpt>
      <trkpt lat="47.12507" lon="-1.32133">
        <ele>16.165432</ele>
        <time>2020-07-07T15:50:12Z</time>
      </trkpt>
      <trkpt lat="47.12513" lon="-1.32134">
        <ele>15.060961</ele>
        <time>2020-07-07T15:50:16Z</time>
      </trkpt>
      <trkpt lat="47.12518" lon="-1.32137">
        <ele>15.494294</ele>
        <time>2020-07-07T15:50:19Z</time>
      </trkpt>
      <trkpt lat="47.12524" lon="-1.32141">
        <ele>15.586774</ele>
        <time>2020-07-07T15:50:24Z</time>
      </trkpt>
      <trkpt lat="47.12529" lon="-1.32144">
        <ele>16.424374</ele>
        <time>2020-07-07T15:50:27Z</time>
      </trkpt>
      <trkpt lat="47.12533" lon="-1.32146">
        <ele>15.679254</ele>
        <time>2020-07-07T15:50:29Z</time>
      </trkpt>
      <trkpt lat="47.12539" lon="-1.32149">
        <ele>15.668684</ele>
        <time>2020-07-07T15:50:32Z</time>
      </trkpt>
      <trkpt lat="47.12544" lon="-1.32155">
        <ele>14.889214</ele>
        <time>2020-07-07T15:50:36Z</time>
      </trkpt>
      <trkpt lat="47.12551" lon="-1.32158">
        <ele>15.290839</ele>
        <time>2020-07-07T15:50:39Z</time>
      </trkpt>
      <trkpt lat="47.12558" lon="-1.32161">
        <ele>16.749374</ele>
        <time>2020-07-07T15:50:42Z</time>
      </trkpt>
      <trkpt lat="47.12564" lon="-1.32166">
        <ele>17.993885</ele>
        <time>2020-07-07T15:50:46Z</time>
      </trkpt>
      <trkpt lat="47.1257" lon="-1.3217">
        <ele>17.029455</ele>
        <time>2020-07-07T15:50:49Z</time>
      </trkpt>
      <trkpt lat="47.12575" lon="-1.32173">
        <ele>16.796936</ele>
        <time>2020-07-07T15:50:51Z</time>
      </trkpt>
      <trkpt lat="47.12579" lon="-1.32177">
        <ele>17.19856</ele>
        <time>2020-07-07T15:50:53Z</time>
      </trkpt>
      <trkpt lat="47.12584" lon="-1.3218">
        <ele>17.20913</ele>
        <time>2020-07-07T15:50:55Z</time>
      </trkpt>
      <trkpt lat="47.12588" lon="-1.32184">
        <ele>17.261976</ele>
        <time>2020-07-07T15:50:57Z</time>
      </trkpt>
      <trkpt lat="47.12594" lon="-1.32188">
        <ele>18.643885</ele>
        <time>2020-07-07T15:50:59Z</time>
      </trkpt>
      <trkpt lat="47.12599" lon="-1.32192">
        <ele>18.503843</ele>
        <time>2020-07-07T15:51:01Z</time>
      </trkpt>
      <trkpt lat="47.12604" lon="-1.32197">
        <ele>17.872341</ele>
        <time>2020-07-07T15:51:03Z</time>
      </trkpt>
      <trkpt lat="47.12608" lon="-1.32203">
        <ele>17.742868</ele>
        <time>2020-07-07T15:51:05Z</time>
      </trkpt>
      <trkpt lat="47.12614" lon="-1.32209">
        <ele>17.82478</ele>
        <time>2020-07-07T15:51:07Z</time>
      </trkpt>
      <trkpt lat="47.12621" lon="-1.32219">
        <ele>17.285755</ele>
        <time>2020-07-07T15:51:10Z</time>
      </trkpt>
      <trkpt lat="47.12625" lon="-1.32224">
        <ele>17.0823</ele>
        <time>2020-07-07T15:51:12Z</time>
      </trkpt>
      <trkpt lat="47.12631" lon="-1.32234">
        <ele>18.015024</ele>
        <time>2020-07-07T15:51:15Z</time>
      </trkpt>
      <trkpt lat="47.12635" lon="-1.3224">
        <ele>17.822138</ele>
        <time>2020-07-07T15:51:17Z</time>
      </trkpt>
      <trkpt lat="47.1264" lon="-1.32246">
        <ele>17.785145</ele>
        <time>2020-07-07T15:51:19Z</time>
      </trkpt>
      <trkpt lat="47.12644" lon="-1.32252">
        <ele>18.247543</ele>
        <time>2020-07-07T15:51:21Z</time>
      </trkpt>
      <trkpt lat="47.12649" lon="-1.32258">
        <ele>18.686161</ele>
        <time>2020-07-07T15:51:23Z</time>
      </trkpt>
      <trkpt lat="47.12655" lon="-1.32268">
        <ele>18.66238</ele>
        <time>2020-07-07T15:51:26Z</time>
      </trkpt>
      <trkpt lat="47.1266" lon="-1.32274">
        <ele>18.879047</ele>
        <time>2020-07-07T15:51:28Z</time>
      </trkpt>
      <trkpt lat="47.12664" lon="-1.3228">
        <ele>18.839413</ele>
        <time>2020-07-07T15:51:30Z</time>
      </trkpt>
      <trkpt lat="47.12669" lon="-1.32286">
        <ele>18.675592</ele>
        <time>2020-07-07T15:51:32Z</time>
      </trkpt>
      <trkpt lat="47.12673" lon="-1.32292">
        <ele>19.16177</ele>
        <time>2020-07-07T15:51:34Z</time>
      </trkpt>
      <trkpt lat="47.12678" lon="-1.32297">
        <ele>18.836771</ele>
        <time>2020-07-07T15:51:36Z</time>
      </trkpt>
      <trkpt lat="47.12683" lon="-1.32302">
        <ele>19.33616</ele>
        <time>2020-07-07T15:51:38Z</time>
      </trkpt>
      <trkpt lat="47.1269" lon="-1.32311">
        <ele>18.897543</ele>
        <time>2020-07-07T15:51:41Z</time>
      </trkpt>
      <trkpt lat="47.12696" lon="-1.32318">
        <ele>20.3138</ele>
        <time>2020-07-07T15:51:43Z</time>
      </trkpt>
      <trkpt lat="47.12705" lon="-1.32326">
        <ele>19.96238</ele>
        <time>2020-07-07T15:51:46Z</time>
      </trkpt>
      <trkpt lat="47.12711" lon="-1.32332">
        <ele>19.251608</ele>
        <time>2020-07-07T15:51:48Z</time>
      </trkpt>
      <trkpt lat="47.12717" lon="-1.32337">
        <ele>20.036364</ele>
        <time>2020-07-07T15:51:50Z</time>
      </trkpt>
      <trkpt lat="47.12723" lon="-1.32343">
        <ele>20.4512</ele>
        <time>2020-07-07T15:51:52Z</time>
      </trkpt>
      <trkpt lat="47.1273" lon="-1.32347">
        <ele>20.139412</ele>
        <time>2020-07-07T15:51:54Z</time>
      </trkpt>
      <trkpt lat="47.12737" lon="-1.32352">
        <ele>20.165834</ele>
        <time>2020-07-07T15:51:56Z</time>
      </trkpt>
      <trkpt lat="47.12743" lon="-1.32356">
        <ele>20.559534</ele>
        <time>2020-07-07T15:51:58Z</time>
      </trkpt>
      <trkpt lat="47.12749" lon="-1.3236">
        <ele>20.107704</ele>
        <time>2020-07-07T15:52:00Z</time>
      </trkpt>
      <trkpt lat="47.12754" lon="-1.32364">
        <ele>19.832909</ele>
        <time>2020-07-07T15:52:02Z</time>
      </trkpt>
      <trkpt lat="47.12761" lon="-1.32368">
        <ele>19.885754</ele>
        <time>2020-07-07T15:52:04Z</time>
      </trkpt>
      <trkpt lat="47.12768" lon="-1.32371">
        <ele>20.593884</ele>
        <time>2020-07-07T15:52:06Z</time>
      </trkpt>
      <trkpt lat="47.12775" lon="-1.32376">
        <ele>19.875185</ele>
        <time>2020-07-07T15:52:08Z</time>
      </trkpt>
      <trkpt lat="47.12782" lon="-1.3238">
        <ele>19.013803</ele>
        <time>2020-07-07T15:52:10Z</time>
      </trkpt>
      <trkpt lat="47.12788" lon="-1.32384">
        <ele>20.414207</ele>
        <time>2020-07-07T15:52:12Z</time>
      </trkpt>
      <trkpt lat="47.12794" lon="-1.32387">
        <ele>19.782705</ele>
        <time>2020-07-07T15:52:14Z</time>
      </trkpt>
      <trkpt lat="47.12801" lon="-1.32392">
        <ele>20.490833</ele>
        <time>2020-07-07T15:52:16Z</time>
      </trkpt>
      <trkpt lat="47.12808" lon="-1.32396">
        <ele>20.792053</ele>
        <time>2020-07-07T15:52:18Z</time>
      </trkpt>
      <trkpt lat="47.12816" lon="-1.324">
        <ele>20.493477</ele>
        <time>2020-07-07T15:52:20Z</time>
      </trkpt>
      <trkpt lat="47.12823" lon="-1.32403">
        <ele>20.20547</ele>
        <time>2020-07-07T15:52:22Z</time>
      </trkpt>
      <trkpt lat="47.1283" lon="-1.32406">
        <ele>20.253029</ele>
        <time>2020-07-07T15:52:24Z</time>
      </trkpt>
      <trkpt lat="47.12837" lon="-1.32409">
        <ele>20.18433</ele>
        <time>2020-07-07T15:52:26Z</time>
      </trkpt>
      <trkpt lat="47.12843" lon="-1.32412">
        <ele>19.917461</ele>
        <time>2020-07-07T15:52:28Z</time>
      </trkpt>
      <trkpt lat="47.12851" lon="-1.32416">
        <ele>20.364004</ele>
        <time>2020-07-07T15:52:30Z</time>
      </trkpt>
      <trkpt lat="47.12859" lon="-1.3242">
        <ele>19.698153</ele>
        <time>2020-07-07T15:52:32Z</time>
      </trkpt>
      <trkpt lat="47.12867" lon="-1.32424">
        <ele>19.946526</ele>
        <time>2020-07-07T15:52:34Z</time>
      </trkpt>
      <trkpt lat="47.12875" lon="-1.32428">
        <ele>19.89368</ele>
        <time>2020-07-07T15:52:36Z</time>
      </trkpt>
      <trkpt lat="47.12882" lon="-1.32431">
        <ele>20.274168</ele>
        <time>2020-07-07T15:52:38Z</time>
      </trkpt>
      <trkpt lat="47.12888" lon="-1.32435">
        <ele>20.807907</ele>
        <time>2020-07-07T15:52:40Z</time>
      </trkpt>
      <trkpt lat="47.12896" lon="-1.32438">
        <ele>20.194899</ele>
        <time>2020-07-07T15:52:42Z</time>
      </trkpt>
      <trkpt lat="47.12902" lon="-1.32442">
        <ele>20.176403</ele>
        <time>2020-07-07T15:52:44Z</time>
      </trkpt>
      <trkpt lat="47.12908" lon="-1.32445">
        <ele>19.967665</ele>
        <time>2020-07-07T15:52:46Z</time>
      </trkpt>
      <trkpt lat="47.12914" lon="-1.32446">
        <ele>20.377216</ele>
        <time>2020-07-07T15:52:48Z</time>
      </trkpt>
      <trkpt lat="47.12919" lon="-1.32448">
        <ele>19.938599</ele>
        <time>2020-07-07T15:52:50Z</time>
      </trkpt>
      <trkpt lat="47.12925" lon="-1.32448">
        <ele>19.914818</ele>
        <time>2020-07-07T15:52:52Z</time>
      </trkpt>
      <trkpt lat="47.12931" lon="-1.32449">
        <ele>20.430061</ele>
        <time>2020-07-07T15:52:54Z</time>
      </trkpt>
      <trkpt lat="47.12937" lon="-1.3245">
        <ele>20.453842</ele>
        <time>2020-07-07T15:52:56Z</time>
      </trkpt>
      <trkpt lat="47.12943" lon="-1.32452">
        <ele>20.704859</ele>
        <time>2020-07-07T15:52:58Z</time>
      </trkpt>
      <trkpt lat="47.1295" lon="-1.32454">
        <ele>20.155266</ele>
        <time>2020-07-07T15:53:00Z</time>
      </trkpt>
      <trkpt lat="47.12957" lon="-1.32456">
        <ele>20.74185</ele>
        <time>2020-07-07T15:53:02Z</time>
      </trkpt>
      <trkpt lat="47.12964" lon="-1.3246">
        <ele>21.040426</ele>
        <time>2020-07-07T15:53:04Z</time>
      </trkpt>
      <trkpt lat="47.1297" lon="-1.32464">
        <ele>20.969086</ele>
        <time>2020-07-07T15:53:06Z</time>
      </trkpt>
      <trkpt lat="47.12977" lon="-1.32467">
        <ele>21.389208</ele>
        <time>2020-07-07T15:53:08Z</time>
      </trkpt>
      <trkpt lat="47.12982" lon="-1.32471">
        <ele>21.103842</ele>
        <time>2020-07-07T15:53:11Z</time>
      </trkpt>
      <trkpt lat="47.12988" lon="-1.32474">
        <ele>21.878029</ele>
        <time>2020-07-07T15:53:13Z</time>
      </trkpt>
      <trkpt lat="47.12993" lon="-1.32478">
        <ele>21.49754</ele>
        <time>2020-07-07T15:53:15Z</time>
      </trkpt>
      <trkpt lat="47.12999" lon="-1.32482">
        <ele>22.115833</ele>
        <time>2020-07-07T15:53:17Z</time>
      </trkpt>
      <trkpt lat="47.13005" lon="-1.32486">
        <ele>22.245304</ele>
        <time>2020-07-07T15:53:19Z</time>
      </trkpt>
      <trkpt lat="47.1301" lon="-1.3249">
        <ele>22.200386</ele>
        <time>2020-07-07T15:53:21Z</time>
      </trkpt>
      <trkpt lat="47.13016" lon="-1.32494">
        <ele>22.295507</ele>
        <time>2020-07-07T15:53:23Z</time>
      </trkpt>
      <trkpt lat="47.13022" lon="-1.32497">
        <ele>22.483109</ele>
        <time>2020-07-07T15:53:25Z</time>
      </trkpt>
      <trkpt lat="47.13027" lon="-1.32501">
        <ele>23.418474</ele>
        <time>2020-07-07T15:53:27Z</time>
      </trkpt>
      <trkpt lat="47.13032" lon="-1.32504">
        <ele>22.82132</ele>
        <time>2020-07-07T15:53:29Z</time>
      </trkpt>
      <trkpt lat="47.13038" lon="-1.32508">
        <ele>23.685343</ele>
        <time>2020-07-07T15:53:31Z</time>
      </trkpt>
      <trkpt lat="47.13042" lon="-1.32511">
        <ele>23.91522</ele>
        <time>2020-07-07T15:53:33Z</time>
      </trkpt>
      <trkpt lat="47.13047" lon="-1.32514">
        <ele>24.393473</ele>
        <time>2020-07-07T15:53:35Z</time>
      </trkpt>
      <trkpt lat="47.13053" lon="-1.32516">
        <ele>24.079042</ele>
        <time>2020-07-07T15:53:37Z</time>
      </trkpt>
      <trkpt lat="47.13058" lon="-1.32518">
        <ele>24.248148</ele>
        <time>2020-07-07T15:53:39Z</time>
      </trkpt>
      <trkpt lat="47.13064" lon="-1.3252">
        <ele>23.481888</ele>
        <time>2020-07-07T15:53:41Z</time>
      </trkpt>
      <trkpt lat="47.13069" lon="-1.32522">
        <ele>23.690628</ele>
        <time>2020-07-07T15:53:43Z</time>
      </trkpt>
      <trkpt lat="47.13073" lon="-1.32525">
        <ele>24.023554</ele>
        <time>2020-07-07T15:53:45Z</time>
      </trkpt>
      <trkpt lat="47.13079" lon="-1.32527">
        <ele>24.404041</ele>
        <time>2020-07-07T15:53:47Z</time>
      </trkpt>
      <trkpt lat="47.13085" lon="-1.32529">
        <ele>24.549366</ele>
        <time>2020-07-07T15:53:49Z</time>
      </trkpt>
      <trkpt lat="47.13091" lon="-1.32531">
        <ele>24.549366</ele>
        <time>2020-07-07T15:53:51Z</time>
      </trkpt>
      <trkpt lat="47.13096" lon="-1.32533">
        <ele>24.470098</ele>
        <time>2020-07-07T15:53:53Z</time>
      </trkpt>
      <trkpt lat="47.13101" lon="-1.32535">
        <ele>24.678839</ele>
        <time>2020-07-07T15:53:55Z</time>
      </trkpt>
      <trkpt lat="47.13106" lon="-1.32538">
        <ele>24.348555</ele>
        <time>2020-07-07T15:53:57Z</time>
      </trkpt>
      <trkpt lat="47.13112" lon="-1.3254">
        <ele>24.649773</ele>
        <time>2020-07-07T15:53:59Z</time>
      </trkpt>
      <trkpt lat="47.13119" lon="-1.32542">
        <ele>25.133308</ele>
        <time>2020-07-07T15:54:01Z</time>
      </trkpt>
      <trkpt lat="47.13126" lon="-1.32544">
        <ele>24.966846</ele>
        <time>2020-07-07T15:54:03Z</time>
      </trkpt>
      <trkpt lat="47.13132" lon="-1.32546">
        <ele>24.723757</ele>
        <time>2020-07-07T15:54:05Z</time>
      </trkpt>
      <trkpt lat="47.13138" lon="-1.32549">
        <ele>24.546724</ele>
        <time>2020-07-07T15:54:07Z</time>
      </trkpt>
      <trkpt lat="47.13143" lon="-1.32551">
        <ele>23.80953</ele>
        <time>2020-07-07T15:54:09Z</time>
      </trkpt>
      <trkpt lat="47.1315" lon="-1.32552">
        <ele>25.26014</ele>
        <time>2020-07-07T15:54:11Z</time>
      </trkpt>
      <trkpt lat="47.13157" lon="-1.32554">
        <ele>24.586359</ele>
        <time>2020-07-07T15:54:13Z</time>
      </trkpt>
      <trkpt lat="47.13163" lon="-1.32557">
        <ele>24.855871</ele>
        <time>2020-07-07T15:54:15Z</time>
      </trkpt>
      <trkpt lat="47.1317" lon="-1.32559">
        <ele>24.464813</ele>
        <time>2020-07-07T15:54:17Z</time>
      </trkpt>
      <trkpt lat="47.13176" lon="-1.32559">
        <ele>23.690628</ele>
        <time>2020-07-07T15:54:19Z</time>
      </trkpt>
      <trkpt lat="47.13183" lon="-1.32559">
        <ele>23.563799</ele>
        <time>2020-07-07T15:54:21Z</time>
      </trkpt>
      <trkpt lat="47.13189" lon="-1.32554">
        <ele>25.384325</ele>
        <time>2020-07-07T15:54:23Z</time>
      </trkpt>
      <trkpt lat="47.13192" lon="-1.32547">
        <ele>24.596928</ele>
        <time>2020-07-07T15:54:25Z</time>
      </trkpt>
      <trkpt lat="47.13195" lon="-1.3254">
        <ele>25.220505</ele>
        <time>2020-07-07T15:54:27Z</time>
      </trkpt>
      <trkpt lat="47.13198" lon="-1.32532">
        <ele>24.62335</ele>
        <time>2020-07-07T15:54:29Z</time>
      </trkpt>
      <trkpt lat="47.132" lon="-1.32523">
        <ele>25.614202</ele>
        <time>2020-07-07T15:54:31Z</time>
      </trkpt>
      <trkpt lat="47.13203" lon="-1.32515">
        <ele>24.86644</ele>
        <time>2020-07-07T15:54:33Z</time>
      </trkpt>
      <trkpt lat="47.13205" lon="-1.32507">
        <ele>26.118877</ele>
        <time>2020-07-07T15:54:35Z</time>
      </trkpt>
      <trkpt lat="47.13207" lon="-1.325">
        <ele>25.487373</ele>
        <time>2020-07-07T15:54:37Z</time>
      </trkpt>
      <trkpt lat="47.1321" lon="-1.32494">
        <ele>25.51644</ele>
        <time>2020-07-07T15:54:39Z</time>
      </trkpt>
      <trkpt lat="47.13214" lon="-1.32489">
        <ele>24.374977</ele>
        <time>2020-07-07T15:54:45Z</time>
      </trkpt>
      <trkpt lat="47.1322" lon="-1.32489">
        <ele>25.421318</ele>
        <time>2020-07-07T15:54:47Z</time>
      </trkpt>
      <trkpt lat="47.13225" lon="-1.32493">
        <ele>25.881073</ele>
        <time>2020-07-07T15:54:49Z</time>
      </trkpt>
      <trkpt lat="47.1323" lon="-1.325">
        <ele>25.66705</ele>
        <time>2020-07-07T15:54:51Z</time>
      </trkpt>
      <trkpt lat="47.13235" lon="-1.32507">
        <ele>24.789814</ele>
        <time>2020-07-07T15:54:53Z</time>
      </trkpt>
      <trkpt lat="47.1324" lon="-1.32514">
        <ele>24.176805</ele>
        <time>2020-07-07T15:54:55Z</time>
      </trkpt>
      <trkpt lat="47.13246" lon="-1.32521">
        <ele>23.933718</ele>
        <time>2020-07-07T15:54:57Z</time>
      </trkpt>
      <trkpt lat="47.13252" lon="-1.32529">
        <ele>23.341848</ele>
        <time>2020-07-07T15:54:59Z</time>
      </trkpt>
      <trkpt lat="47.13258" lon="-1.32537">
        <ele>23.209734</ele>
        <time>2020-07-07T15:55:01Z</time>
      </trkpt>
      <trkpt lat="47.13265" lon="-1.32546">
        <ele>23.52945</ele>
        <time>2020-07-07T15:55:03Z</time>
      </trkpt>
      <trkpt lat="47.13268" lon="-1.3255">
        <ele>23.154245</ele>
        <time>2020-07-07T15:55:04Z</time>
      </trkpt>
      <trkpt lat="47.13272" lon="-1.32555">
        <ele>23.196522</ele>
        <time>2020-07-07T15:55:05Z</time>
      </trkpt>
      <trkpt lat="47.13276" lon="-1.32559">
        <ele>22.934937</ele>
        <time>2020-07-07T15:55:06Z</time>
      </trkpt>
      <trkpt lat="47.13279" lon="-1.32564">
        <ele>22.134329</ele>
        <time>2020-07-07T15:55:07Z</time>
      </trkpt>
      <trkpt lat="47.13283" lon="-1.32569">
        <ele>23.01949</ele>
        <time>2020-07-07T15:55:08Z</time>
      </trkpt>
      <trkpt lat="47.13287" lon="-1.32574">
        <ele>22.662783</ele>
        <time>2020-07-07T15:55:09Z</time>
      </trkpt>
      <trkpt lat="47.1329" lon="-1.32579">
        <ele>21.922947</ele>
        <time>2020-07-07T15:55:10Z</time>
      </trkpt>
      <trkpt lat="47.13295" lon="-1.32585">
        <ele>21.362785</ele>
        <time>2020-07-07T15:55:11Z</time>
      </trkpt>
      <trkpt lat="47.13299" lon="-1.3259">
        <ele>21.494898</ele>
        <time>2020-07-07T15:55:12Z</time>
      </trkpt>
      <trkpt lat="47.13303" lon="-1.32596">
        <ele>22.04185</ele>
        <time>2020-07-07T15:55:13Z</time>
      </trkpt>
      <trkpt lat="47.13306" lon="-1.32602">
        <ele>21.685143</ele>
        <time>2020-07-07T15:55:14Z</time>
      </trkpt>
      <trkpt lat="47.13311" lon="-1.32608">
        <ele>21.603231</ele>
        <time>2020-07-07T15:55:15Z</time>
      </trkpt>
      <trkpt lat="47.13315" lon="-1.32614">
        <ele>22.760548</ele>
        <time>2020-07-07T15:55:16Z</time>
      </trkpt>
      <trkpt lat="47.13319" lon="-1.32621">
        <ele>20.794695</ele>
        <time>2020-07-07T15:55:17Z</time>
      </trkpt>
      <trkpt lat="47.13322" lon="-1.32629">
        <ele>20.781485</ele>
        <time>2020-07-07T15:55:18Z</time>
      </trkpt>
      <trkpt lat="47.13326" lon="-1.32636">
        <ele>20.20547</ele>
        <time>2020-07-07T15:55:19Z</time>
      </trkpt>
      <trkpt lat="47.1333" lon="-1.32644">
        <ele>19.711363</ele>
        <time>2020-07-07T15:55:20Z</time>
      </trkpt>
      <trkpt lat="47.13334" lon="-1.32652">
        <ele>20.081282</ele>
        <time>2020-07-07T15:55:21Z</time>
      </trkpt>
      <trkpt lat="47.1334" lon="-1.32656">
        <ele>19.362583</ele>
        <time>2020-07-07T15:55:22Z</time>
      </trkpt>
      <trkpt lat="47.13346" lon="-1.32659">
        <ele>19.402218</ele>
        <time>2020-07-07T15:55:23Z</time>
      </trkpt>
      <trkpt lat="47.13353" lon="-1.32659">
        <ele>18.461567</ele>
        <time>2020-07-07T15:55:24Z</time>
      </trkpt>
      <trkpt lat="47.13358" lon="-1.32659">
        <ele>19.526403</ele>
        <time>2020-07-07T15:55:25Z</time>
      </trkpt>
      <trkpt lat="47.13364" lon="-1.32658">
        <ele>18.258112</ele>
        <time>2020-07-07T15:55:26Z</time>
      </trkpt>
      <trkpt lat="47.1337" lon="-1.32658">
        <ele>19.288599</ele>
        <time>2020-07-07T15:55:27Z</time>
      </trkpt>
      <trkpt lat="47.13376" lon="-1.32659">
        <ele>18.506487</ele>
        <time>2020-07-07T15:55:28Z</time>
      </trkpt>
      <trkpt lat="47.13381" lon="-1.3266">
        <ele>19.817055</ele>
        <time>2020-07-07T15:55:29Z</time>
      </trkpt>
      <trkpt lat="47.13387" lon="-1.32661">
        <ele>20.073355</ele>
        <time>2020-07-07T15:55:30Z</time>
      </trkpt>
      <trkpt lat="47.13393" lon="-1.32662">
        <ele>18.374372</ele>
        <time>2020-07-07T15:55:31Z</time>
      </trkpt>
      <trkpt lat="47.13398" lon="-1.32665">
        <ele>14.492872</ele>
        <time>2020-07-07T15:55:32Z</time>
      </trkpt>
      <trkpt lat="47.13404" lon="-1.32668">
        <ele>17.343885</ele>
        <time>2020-07-07T15:55:33Z</time>
      </trkpt>
      <trkpt lat="47.1341" lon="-1.32672">
        <ele>16.701813</ele>
        <time>2020-07-07T15:55:34Z</time>
      </trkpt>
      <trkpt lat="47.13416" lon="-1.32677">
        <ele>15.761164</ele>
        <time>2020-07-07T15:55:35Z</time>
      </trkpt>
      <trkpt lat="47.13421" lon="-1.32682">
        <ele>16.654253</ele>
        <time>2020-07-07T15:55:36Z</time>
      </trkpt>
      <trkpt lat="47.13427" lon="-1.32687">
        <ele>16.310757</ele>
        <time>2020-07-07T15:55:37Z</time>
      </trkpt>
      <trkpt lat="47.13434" lon="-1.32693">
        <ele>16.955471</ele>
        <time>2020-07-07T15:55:38Z</time>
      </trkpt>
      <trkpt lat="47.1344" lon="-1.32699">
        <ele>15.346327</ele>
        <time>2020-07-07T15:55:39Z</time>
      </trkpt>
      <trkpt lat="47.13446" lon="-1.32704">
        <ele>15.713603</ele>
        <time>2020-07-07T15:55:40Z</time>
      </trkpt>
      <trkpt lat="47.13453" lon="-1.32708">
        <ele>14.706897</ele>
        <time>2020-07-07T15:55:41Z</time>
      </trkpt>
      <trkpt lat="47.13461" lon="-1.32711">
        <ele>14.638197</ele>
        <time>2020-07-07T15:55:42Z</time>
      </trkpt>
      <trkpt lat="47.13468" lon="-1.32714">
        <ele>14.709538</ele>
        <time>2020-07-07T15:55:43Z</time>
      </trkpt>
      <trkpt lat="47.13476" lon="-1.32716">
        <ele>13.591857</ele>
        <time>2020-07-07T15:55:44Z</time>
      </trkpt>
      <trkpt lat="47.13483" lon="-1.32717">
        <ele>14.318482</ele>
        <time>2020-07-07T15:55:45Z</time>
      </trkpt>
      <trkpt lat="47.13491" lon="-1.32718">
        <ele>13.2008</ele>
        <time>2020-07-07T15:55:46Z</time>
      </trkpt>
      <trkpt lat="47.13498" lon="-1.3272">
        <ele>13.930068</ele>
        <time>2020-07-07T15:55:47Z</time>
      </trkpt>
      <trkpt lat="47.13504" lon="-1.32721">
        <ele>13.673767</ele>
        <time>2020-07-07T15:55:48Z</time>
      </trkpt>
      <trkpt lat="47.13511" lon="-1.32723">
        <ele>13.264215</ele>
        <time>2020-07-07T15:55:49Z</time>
      </trkpt>
      <trkpt lat="47.13518" lon="-1.32724">
        <ele>13.599784</ele>
        <time>2020-07-07T15:55:50Z</time>
      </trkpt>
      <trkpt lat="47.13525" lon="-1.32726">
        <ele>12.032915</ele>
        <time>2020-07-07T15:55:51Z</time>
      </trkpt>
      <trkpt lat="47.1353" lon="-1.32728">
        <ele>12.875801</ele>
        <time>2020-07-07T15:55:52Z</time>
      </trkpt>
      <trkpt lat="47.13537" lon="-1.3273">
        <ele>12.276005</ele>
        <time>2020-07-07T15:55:53Z</time>
      </trkpt>
      <trkpt lat="47.13542" lon="-1.32732">
        <ele>13.132101</ele>
        <time>2020-07-07T15:55:54Z</time>
      </trkpt>
      <trkpt lat="47.13548" lon="-1.32733">
        <ele>13.203443</ele>
        <time>2020-07-07T15:55:55Z</time>
      </trkpt>
      <trkpt lat="47.13553" lon="-1.32735">
        <ele>12.268078</ele>
        <time>2020-07-07T15:55:56Z</time>
      </trkpt>
      <trkpt lat="47.13559" lon="-1.32737">
        <ele>12.857305</ele>
        <time>2020-07-07T15:55:57Z</time>
      </trkpt>
      <trkpt lat="47.13564" lon="-1.3274">
        <ele>11.826818</ele>
        <time>2020-07-07T15:55:58Z</time>
      </trkpt>
      <trkpt lat="47.13569" lon="-1.32743">
        <ele>11.861168</ele>
        <time>2020-07-07T15:55:59Z</time>
      </trkpt>
      <trkpt lat="47.13574" lon="-1.32746">
        <ele>12.302427</ele>
        <time>2020-07-07T15:56:00Z</time>
      </trkpt>
      <trkpt lat="47.13578" lon="-1.32749">
        <ele>12.542874</ele>
        <time>2020-07-07T15:56:01Z</time>
      </trkpt>
      <trkpt lat="47.13583" lon="-1.32752">
        <ele>12.447752</ele>
        <time>2020-07-07T15:56:02Z</time>
      </trkpt>
      <trkpt lat="47.13588" lon="-1.32756">
        <ele>11.874379</ele>
        <time>2020-07-07T15:56:03Z</time>
      </trkpt>
      <trkpt lat="47.13592" lon="-1.3276">
        <ele>11.866452</ele>
        <time>2020-07-07T15:56:04Z</time>
      </trkpt>
      <trkpt lat="47.13597" lon="-1.32765">
        <ele>11.916656</ele>
        <time>2020-07-07T15:56:05Z</time>
      </trkpt>
      <trkpt lat="47.13602" lon="-1.32769">
        <ele>12.1729555</ele>
        <time>2020-07-07T15:56:06Z</time>
      </trkpt>
      <trkpt lat="47.13607" lon="-1.32773">
        <ele>11.533525</ele>
        <time>2020-07-07T15:56:07Z</time>
      </trkpt>
      <trkpt lat="47.13611" lon="-1.32777">
        <ele>12.056696</ele>
        <time>2020-07-07T15:56:08Z</time>
      </trkpt>
      <trkpt lat="47.13616" lon="-1.32781">
        <ele>12.085761</ele>
        <time>2020-07-07T15:56:09Z</time>
      </trkpt>
      <trkpt lat="47.1362" lon="-1.32785">
        <ele>11.092266</ele>
        <time>2020-07-07T15:56:10Z</time>
      </trkpt>
      <trkpt lat="47.13625" lon="-1.32789">
        <ele>12.796533</ele>
        <time>2020-07-07T15:56:11Z</time>
      </trkpt>
      <trkpt lat="47.1363" lon="-1.32793">
        <ele>11.026209</ele>
        <time>2020-07-07T15:56:12Z</time>
      </trkpt>
      <trkpt lat="47.13635" lon="-1.32797">
        <ele>11.459542</ele>
        <time>2020-07-07T15:56:13Z</time>
      </trkpt>
      <trkpt lat="47.1364" lon="-1.32802">
        <ele>11.522957</ele>
        <time>2020-07-07T15:56:14Z</time>
      </trkpt>
      <trkpt lat="47.13644" lon="-1.32806">
        <ele>10.505681</ele>
        <time>2020-07-07T15:56:15Z</time>
      </trkpt>
      <trkpt lat="47.13649" lon="-1.32811">
        <ele>10.254665</ele>
        <time>2020-07-07T15:56:16Z</time>
      </trkpt>
      <trkpt lat="47.13653" lon="-1.32815">
        <ele>10.466047</ele>
        <time>2020-07-07T15:56:17Z</time>
      </trkpt>
      <trkpt lat="47.13657" lon="-1.32819">
        <ele>11.24816</ele>
        <time>2020-07-07T15:56:18Z</time>
      </trkpt>
      <trkpt lat="47.13661" lon="-1.32823">
        <ele>11.07377</ele>
        <time>2020-07-07T15:56:19Z</time>
      </trkpt>
      <trkpt lat="47.13668" lon="-1.32831">
        <ele>10.94694</ele>
        <time>2020-07-07T15:56:21Z</time>
      </trkpt>
      <trkpt lat="47.13671" lon="-1.32836">
        <ele>11.1319</ele>
        <time>2020-07-07T15:56:22Z</time>
      </trkpt>
      <trkpt lat="47.13676" lon="-1.32848">
        <ele>11.113404</ele>
        <time>2020-07-07T15:56:24Z</time>
      </trkpt>
      <trkpt lat="47.13679" lon="-1.32854">
        <ele>10.904664</ele>
        <time>2020-07-07T15:56:25Z</time>
      </trkpt>
      <trkpt lat="47.13681" lon="-1.32859">
        <ele>10.791046</ele>
        <time>2020-07-07T15:56:26Z</time>
      </trkpt>
      <trkpt lat="47.13685" lon="-1.32865">
        <ele>11.01564</ele>
        <time>2020-07-07T15:56:27Z</time>
      </trkpt>
      <trkpt lat="47.13688" lon="-1.32871">
        <ele>11.137184</ele>
        <time>2020-07-07T15:56:28Z</time>
      </trkpt>
      <trkpt lat="47.1369" lon="-1.32877">
        <ele>10.347145</ele>
        <time>2020-07-07T15:56:29Z</time>
      </trkpt>
      <trkpt lat="47.13694" lon="-1.32882">
        <ele>10.289015</ele>
        <time>2020-07-07T15:56:30Z</time>
      </trkpt>
      <trkpt lat="47.13697" lon="-1.32888">
        <ele>10.566453</ele>
        <time>2020-07-07T15:56:31Z</time>
      </trkpt>
      <trkpt lat="47.13701" lon="-1.32894">
        <ele>11.084339</ele>
        <time>2020-07-07T15:56:32Z</time>
      </trkpt>
      <trkpt lat="47.13705" lon="-1.329">
        <ele>9.258528</ele>
        <time>2020-07-07T15:56:33Z</time>
      </trkpt>
      <trkpt lat="47.13709" lon="-1.32907">
        <ele>8.941455</ele>
        <time>2020-07-07T15:56:34Z</time>
      </trkpt>
      <trkpt lat="47.13714" lon="-1.32913">
        <ele>8.148773</ele>
        <time>2020-07-07T15:56:35Z</time>
      </trkpt>
      <trkpt lat="47.13719" lon="-1.32918">
        <ele>8.428854</ele>
        <time>2020-07-07T15:56:36Z</time>
      </trkpt>
      <trkpt lat="47.13723" lon="-1.32923">
        <ele>7.900399</ele>
        <time>2020-07-07T15:56:37Z</time>
      </trkpt>
      <trkpt lat="47.13728" lon="-1.32932">
        <ele>6.568693</ele>
        <time>2020-07-07T15:56:39Z</time>
      </trkpt>
      <trkpt lat="47.13727" lon="-1.32943">
        <ele>6.296539</ele>
        <time>2020-07-07T15:56:41Z</time>
      </trkpt>
      <trkpt lat="47.13723" lon="-1.32953">
        <ele>6.0058885</ele>
        <time>2020-07-07T15:56:43Z</time>
      </trkpt>
      <trkpt lat="47.13718" lon="-1.32962">
        <ele>4.959548</ele>
        <time>2020-07-07T15:56:45Z</time>
      </trkpt>
      <trkpt lat="47.13715" lon="-1.32971">
        <ele>5.094304</ele>
        <time>2020-07-07T15:56:47Z</time>
      </trkpt>
      <trkpt lat="47.13711" lon="-1.3298">
        <ele>5.7971487</ele>
        <time>2020-07-07T15:56:49Z</time>
      </trkpt>
      <trkpt lat="47.13708" lon="-1.32988">
        <ele>5.1550765</ele>
        <time>2020-07-07T15:56:51Z</time>
      </trkpt>
      <trkpt lat="47.13705" lon="-1.32999">
        <ele>5.184141</ele>
        <time>2020-07-07T15:56:53Z</time>
      </trkpt>
      <trkpt lat="47.13704" lon="-1.3301">
        <ele>5.6174746</ele>
        <time>2020-07-07T15:56:55Z</time>
      </trkpt>
      <trkpt lat="47.13703" lon="-1.33021">
        <ele>6.029669</ele>
        <time>2020-07-07T15:56:57Z</time>
      </trkpt>
      <trkpt lat="47.13701" lon="-1.33029">
        <ele>7.438001</ele>
        <time>2020-07-07T15:56:59Z</time>
      </trkpt>
      <trkpt lat="47.13696" lon="-1.33037">
        <ele>5.7073116</ele>
        <time>2020-07-07T15:57:02Z</time>
      </trkpt>
      <trkpt lat="47.13691" lon="-1.33044">
        <ele>7.223977</ele>
        <time>2020-07-07T15:57:04Z</time>
      </trkpt>
      <trkpt lat="47.13688" lon="-1.3305">
        <ele>7.083936</ele>
        <time>2020-07-07T15:57:06Z</time>
      </trkpt>
      <trkpt lat="47.13688" lon="-1.3306">
        <ele>7.4802775</ele>
        <time>2020-07-07T15:57:09Z</time>
      </trkpt>
      <trkpt lat="47.13691" lon="-1.33067">
        <ele>8.825195</ele>
        <time>2020-07-07T15:57:12Z</time>
      </trkpt>
      <trkpt lat="47.13693" lon="-1.33076">
        <ele>7.987594</ele>
        <time>2020-07-07T15:57:15Z</time>
      </trkpt>
      <trkpt lat="47.13694" lon="-1.33083">
        <ele>9.356292</ele>
        <time>2020-07-07T15:57:18Z</time>
      </trkpt>
      <trkpt lat="47.13696" lon="-1.3309">
        <ele>10.02743</ele>
        <time>2020-07-07T15:57:21Z</time>
      </trkpt>
      <trkpt lat="47.13697" lon="-1.33097">
        <ele>11.24816</ele>
        <time>2020-07-07T15:57:24Z</time>
      </trkpt>
      <trkpt lat="47.13699" lon="-1.33104">
        <ele>11.105477</ele>
        <time>2020-07-07T15:57:26Z</time>
      </trkpt>
      <trkpt lat="47.13701" lon="-1.3311">
        <ele>11.409339</ele>
        <time>2020-07-07T15:57:28Z</time>
      </trkpt>
      <trkpt lat="47.13701" lon="-1.33118">
        <ele>12.815028</ele>
        <time>2020-07-07T15:57:30Z</time>
      </trkpt>
      <trkpt lat="47.13702" lon="-1.33125">
        <ele>11.818892</ele>
        <time>2020-07-07T15:57:32Z</time>
      </trkpt>
      <trkpt lat="47.13702" lon="-1.33132">
        <ele>12.796533</ele>
        <time>2020-07-07T15:57:34Z</time>
      </trkpt>
      <trkpt lat="47.13702" lon="-1.33139">
        <ele>13.996125</ele>
        <time>2020-07-07T15:57:37Z</time>
      </trkpt>
      <trkpt lat="47.13703" lon="-1.33146">
        <ele>15.613196</ele>
        <time>2020-07-07T15:57:40Z</time>
      </trkpt>
      <trkpt lat="47.13704" lon="-1.33154">
        <ele>15.951407</ele>
        <time>2020-07-07T15:57:43Z</time>
      </trkpt>
      <trkpt lat="47.13705" lon="-1.33162">
        <ele>15.692465</ele>
        <time>2020-07-07T15:57:46Z</time>
      </trkpt>
      <trkpt lat="47.13706" lon="-1.33171">
        <ele>17.68474</ele>
        <time>2020-07-07T15:57:49Z</time>
      </trkpt>
      <trkpt lat="47.13706" lon="-1.33178">
        <ele>18.020308</ele>
        <time>2020-07-07T15:57:52Z</time>
      </trkpt>
      <trkpt lat="47.13705" lon="-1.33185">
        <ele>18.9636</ele>
        <time>2020-07-07T15:57:55Z</time>
      </trkpt>
      <trkpt lat="47.13705" lon="-1.33193">
        <ele>19.71929</ele>
        <time>2020-07-07T15:57:58Z</time>
      </trkpt>
      <trkpt lat="47.13705" lon="-1.33202">
        <ele>18.945105</ele>
        <time>2020-07-07T15:58:01Z</time>
      </trkpt>
      <trkpt lat="47.13704" lon="-1.33209">
        <ele>19.270103</ele>
        <time>2020-07-07T15:58:04Z</time>
      </trkpt>
      <trkpt lat="47.13702" lon="-1.33216">
        <ele>18.712584</ele>
        <time>2020-07-07T15:58:07Z</time>
      </trkpt>
      <trkpt lat="47.13702" lon="-1.33224">
        <ele>19.019087</ele>
        <time>2020-07-07T15:58:10Z</time>
      </trkpt>
      <trkpt lat="47.13705" lon="-1.33231">
        <ele>19.571323</ele>
        <time>2020-07-07T15:58:13Z</time>
      </trkpt>
      <trkpt lat="47.13709" lon="-1.33236">
        <ele>19.79856</ele>
        <time>2020-07-07T15:58:15Z</time>
      </trkpt>
      <trkpt lat="47.13712" lon="-1.33242">
        <ele>19.766851</ele>
        <time>2020-07-07T15:58:17Z</time>
      </trkpt>
      <trkpt lat="47.13715" lon="-1.33248">
        <ele>19.935957</ele>
        <time>2020-07-07T15:58:20Z</time>
      </trkpt>
      <trkpt lat="47.13719" lon="-1.33253">
        <ele>19.515835</ele>
        <time>2020-07-07T15:58:22Z</time>
      </trkpt>
      <trkpt lat="47.13722" lon="-1.33259">
        <ele>19.145916</ele>
        <time>2020-07-07T15:58:24Z</time>
      </trkpt>
      <trkpt lat="47.13726" lon="-1.33266">
        <ele>19.494698</ele>
        <time>2020-07-07T15:58:27Z</time>
      </trkpt>
      <trkpt lat="47.1373" lon="-1.33272">
        <ele>20.202826</ele>
        <time>2020-07-07T15:58:30Z</time>
      </trkpt>
      <trkpt lat="47.13735" lon="-1.33274">
        <ele>19.967665</ele>
        <time>2020-07-07T15:58:33Z</time>
      </trkpt>
      <trkpt lat="47.13739" lon="-1.33271">
        <ele>20.665224</ele>
        <time>2020-07-07T15:58:35Z</time>
      </trkpt>
      <trkpt lat="47.13744" lon="-1.33267">
        <ele>20.527826</ele>
        <time>2020-07-07T15:58:37Z</time>
      </trkpt>
      <trkpt lat="47.13749" lon="-1.33263">
        <ele>20.10242</ele>
        <time>2020-07-07T15:58:39Z</time>
      </trkpt>
      <trkpt lat="47.13754" lon="-1.3326">
        <ele>20.723354</ele>
        <time>2020-07-07T15:58:41Z</time>
      </trkpt>
      <trkpt lat="47.13758" lon="-1.33256">
        <ele>18.765429</ele>
        <time>2020-07-07T15:58:43Z</time>
      </trkpt>
      <trkpt lat="47.13763" lon="-1.33252">
        <ele>20.002014</ele>
        <time>2020-07-07T15:58:45Z</time>
      </trkpt>
      <trkpt lat="47.1377" lon="-1.3325">
        <ele>19.18555</ele>
        <time>2020-07-07T15:58:47Z</time>
      </trkpt>
      <trkpt lat="47.13776" lon="-1.33247">
        <ele>19.888395</ele>
        <time>2020-07-07T15:58:49Z</time>
      </trkpt>
      <trkpt lat="47.13783" lon="-1.33242">
        <ele>19.367868</ele>
        <time>2020-07-07T15:58:51Z</time>
      </trkpt>
      <trkpt lat="47.1379" lon="-1.33237">
        <ele>19.362583</ele>
        <time>2020-07-07T15:58:53Z</time>
      </trkpt>
      <trkpt lat="47.13797" lon="-1.33231">
        <ele>19.016445</ele>
        <time>2020-07-07T15:58:55Z</time>
      </trkpt>
      <trkpt lat="47.13802" lon="-1.33226">
        <ele>19.587177</ele>
        <time>2020-07-07T15:58:57Z</time>
      </trkpt>
      <trkpt lat="47.13807" lon="-1.33221">
        <ele>18.760145</ele>
        <time>2020-07-07T15:58:59Z</time>
      </trkpt>
      <trkpt lat="47.13812" lon="-1.33216">
        <ele>18.55669</ele>
        <time>2020-07-07T15:59:01Z</time>
      </trkpt>
      <trkpt lat="47.13816" lon="-1.3321">
        <ele>19.151201</ele>
        <time>2020-07-07T15:59:03Z</time>
      </trkpt>
      <trkpt lat="47.13823" lon="-1.33204">
        <ele>18.942461</ele>
        <time>2020-07-07T15:59:05Z</time>
      </trkpt>
      <trkpt lat="47.1383" lon="-1.33197">
        <ele>18.524982</ele>
        <time>2020-07-07T15:59:07Z</time>
      </trkpt>
      <trkpt lat="47.13837" lon="-1.33191">
        <ele>18.979454</ele>
        <time>2020-07-07T15:59:09Z</time>
      </trkpt>
      <trkpt lat="47.13844" lon="-1.33184">
        <ele>18.831486</ele>
        <time>2020-07-07T15:59:11Z</time>
      </trkpt>
      <trkpt lat="47.13851" lon="-1.33177">
        <ele>18.22112</ele>
        <time>2020-07-07T15:59:13Z</time>
      </trkpt>
      <trkpt lat="47.13858" lon="-1.33172">
        <ele>18.21848</ele>
        <time>2020-07-07T15:59:15Z</time>
      </trkpt>
      <trkpt lat="47.13866" lon="-1.33166">
        <ele>18.429861</ele>
        <time>2020-07-07T15:59:17Z</time>
      </trkpt>
      <trkpt lat="47.1387" lon="-1.33163">
        <ele>17.859129</ele>
        <time>2020-07-07T15:59:18Z</time>
      </trkpt>
      <trkpt lat="47.13878" lon="-1.33156">
        <ele>17.713804</ele>
        <time>2020-07-07T15:59:20Z</time>
      </trkpt>
      <trkpt lat="47.13882" lon="-1.33152">
        <ele>17.956894</ele>
        <time>2020-07-07T15:59:21Z</time>
      </trkpt>
      <trkpt lat="47.13886" lon="-1.33149">
        <ele>17.20913</ele>
        <time>2020-07-07T15:59:22Z</time>
      </trkpt>
      <trkpt lat="47.13891" lon="-1.33146">
        <ele>17.277828</ele>
        <time>2020-07-07T15:59:23Z</time>
      </trkpt>
      <trkpt lat="47.13899" lon="-1.3314">
        <ele>17.584333</ele>
        <time>2020-07-07T15:59:25Z</time>
      </trkpt>
      <trkpt lat="47.13903" lon="-1.33136">
        <ele>17.201202</ele>
        <time>2020-07-07T15:59:26Z</time>
      </trkpt>
      <trkpt lat="47.13908" lon="-1.33132">
        <ele>17.394089</ele>
        <time>2020-07-07T15:59:27Z</time>
      </trkpt>
      <trkpt lat="47.13912" lon="-1.33128">
        <ele>15.499578</ele>
        <time>2020-07-07T15:59:28Z</time>
      </trkpt>
      <trkpt lat="47.13916" lon="-1.33123">
        <ele>17.09287</ele>
        <time>2020-07-07T15:59:29Z</time>
      </trkpt>
      <trkpt lat="47.1392" lon="-1.33119">
        <ele>16.738806</ele>
        <time>2020-07-07T15:59:30Z</time>
      </trkpt>
      <trkpt lat="47.13927" lon="-1.33111">
        <ele>16.826</ele>
        <time>2020-07-07T15:59:32Z</time>
      </trkpt>
      <trkpt lat="47.1393" lon="-1.33106">
        <ele>17.164211</ele>
        <time>2020-07-07T15:59:33Z</time>
      </trkpt>
      <trkpt lat="47.13933" lon="-1.33101">
        <ele>16.601406</ele>
        <time>2020-07-07T15:59:34Z</time>
      </trkpt>
      <trkpt lat="47.13937" lon="-1.33096">
        <ele>16.955471</ele>
        <time>2020-07-07T15:59:35Z</time>
      </trkpt>
      <trkpt lat="47.1394" lon="-1.33091">
        <ele>16.32661</ele>
        <time>2020-07-07T15:59:36Z</time>
      </trkpt>
      <trkpt lat="47.13942" lon="-1.33085">
        <ele>16.300188</ele>
        <time>2020-07-07T15:59:37Z</time>
      </trkpt>
      <trkpt lat="47.13945" lon="-1.33079">
        <ele>16.712383</ele>
        <time>2020-07-07T15:59:38Z</time>
      </trkpt>
      <trkpt lat="47.13948" lon="-1.33073">
        <ele>16.181286</ele>
        <time>2020-07-07T15:59:39Z</time>
      </trkpt>
      <trkpt lat="47.13951" lon="-1.33067">
        <ele>17.621325</ele>
        <time>2020-07-07T15:59:40Z</time>
      </trkpt>
      <trkpt lat="47.13954" lon="-1.3306">
        <ele>17.76665</ele>
        <time>2020-07-07T15:59:41Z</time>
      </trkpt>
      <trkpt lat="47.13957" lon="-1.33054">
        <ele>16.876204</ele>
        <time>2020-07-07T15:59:42Z</time>
      </trkpt>
      <trkpt lat="47.1396" lon="-1.33048">
        <ele>17.2197</ele>
        <time>2020-07-07T15:59:43Z</time>
      </trkpt>
      <trkpt lat="47.13962" lon="-1.33042">
        <ele>17.423155</ele>
        <time>2020-07-07T15:59:44Z</time>
      </trkpt>
      <trkpt lat="47.13965" lon="-1.33036">
        <ele>17.235552</ele>
        <time>2020-07-07T15:59:45Z</time>
      </trkpt>
      <trkpt lat="47.13968" lon="-1.3303">
        <ele>17.238195</ele>
        <time>2020-07-07T15:59:46Z</time>
      </trkpt>
      <trkpt lat="47.13973" lon="-1.33019">
        <ele>16.498358</ele>
        <time>2020-07-07T15:59:48Z</time>
      </trkpt>
      <trkpt lat="47.13977" lon="-1.3301">
        <ele>16.471935</ele>
        <time>2020-07-07T15:59:50Z</time>
      </trkpt>
      <trkpt lat="47.13982" lon="-1.33">
        <ele>16.672749</ele>
        <time>2020-07-07T15:59:52Z</time>
      </trkpt>
      <trkpt lat="47.13986" lon="-1.32989">
        <ele>16.15222</ele>
        <time>2020-07-07T15:59:54Z</time>
      </trkpt>
      <trkpt lat="47.13989" lon="-1.32984">
        <ele>15.898562</ele>
        <time>2020-07-07T15:59:55Z</time>
      </trkpt>
      <trkpt lat="47.13994" lon="-1.32973">
        <ele>15.874782</ele>
        <time>2020-07-07T15:59:57Z</time>
      </trkpt>
      <trkpt lat="47.13999" lon="-1.32962">
        <ele>16.577627</ele>
        <time>2020-07-07T15:59:59Z</time>
      </trkpt>
      <trkpt lat="47.14002" lon="-1.32956">
        <ele>16.05974</ele>
        <time>2020-07-07T16:00:00Z</time>
      </trkpt>
      <trkpt lat="47.14004" lon="-1.3295">
        <ele>16.752016</ele>
        <time>2020-07-07T16:00:01Z</time>
      </trkpt>
      <trkpt lat="47.14008" lon="-1.32939">
        <ele>16.633114</ele>
        <time>2020-07-07T16:00:03Z</time>
      </trkpt>
      <trkpt lat="47.14011" lon="-1.32933">
        <ele>16.173359</ele>
        <time>2020-07-07T16:00:04Z</time>
      </trkpt>
      <trkpt lat="47.14014" lon="-1.32927">
        <ele>15.951407</ele>
        <time>2020-07-07T16:00:05Z</time>
      </trkpt>
      <trkpt lat="47.14016" lon="-1.32921">
        <ele>16.482504</ele>
        <time>2020-07-07T16:00:06Z</time>
      </trkpt>
      <trkpt lat="47.14019" lon="-1.32916">
        <ele>16.445513</ele>
        <time>2020-07-07T16:00:07Z</time>
      </trkpt>
      <trkpt lat="47.14022" lon="-1.3291">
        <ele>16.61726</ele>
        <time>2020-07-07T16:00:08Z</time>
      </trkpt>
      <trkpt lat="47.14026" lon="-1.32905">
        <ele>17.12722</ele>
        <time>2020-07-07T16:00:09Z</time>
      </trkpt>
      <trkpt lat="47.14029" lon="-1.32899">
        <ele>17.618683</ele>
        <time>2020-07-07T16:00:10Z</time>
      </trkpt>
      <trkpt lat="47.14032" lon="-1.32894">
        <ele>15.901204</ele>
        <time>2020-07-07T16:00:11Z</time>
      </trkpt>
      <trkpt lat="47.14035" lon="-1.32889">
        <ele>16.654253</ele>
        <time>2020-07-07T16:00:12Z</time>
      </trkpt>
      <trkpt lat="47.14039" lon="-1.32883">
        <ele>16.95283</ele>
        <time>2020-07-07T16:00:13Z</time>
      </trkpt>
      <trkpt lat="47.14042" lon="-1.32878">
        <ele>16.749374</ele>
        <time>2020-07-07T16:00:14Z</time>
      </trkpt>
      <trkpt lat="47.14045" lon="-1.32873">
        <ele>16.995106</ele>
        <time>2020-07-07T16:00:15Z</time>
      </trkpt>
      <trkpt lat="47.14048" lon="-1.32868">
        <ele>17.357098</ele>
        <time>2020-07-07T16:00:16Z</time>
      </trkpt>
      <trkpt lat="47.14052" lon="-1.32864">
        <ele>16.826</ele>
        <time>2020-07-07T16:00:17Z</time>
      </trkpt>
      <trkpt lat="47.14056" lon="-1.32859">
        <ele>16.960756</ele>
        <time>2020-07-07T16:00:18Z</time>
      </trkpt>
      <trkpt lat="47.14059" lon="-1.32854">
        <ele>17.17478</ele>
        <time>2020-07-07T16:00:19Z</time>
      </trkpt>
      <trkpt lat="47.14063" lon="-1.32849">
        <ele>16.712383</ele>
        <time>2020-07-07T16:00:20Z</time>
      </trkpt>
      <trkpt lat="47.14067" lon="-1.32845">
        <ele>17.676813</ele>
        <time>2020-07-07T16:00:21Z</time>
      </trkpt>
      <trkpt lat="47.14071" lon="-1.3284">
        <ele>16.730879</ele>
        <time>2020-07-07T16:00:22Z</time>
      </trkpt>
      <trkpt lat="47.14074" lon="-1.32836">
        <ele>17.787788</ele>
        <time>2020-07-07T16:00:23Z</time>
      </trkpt>
      <trkpt lat="47.14082" lon="-1.32829">
        <ele>17.946323</ele>
        <time>2020-07-07T16:00:25Z</time>
      </trkpt>
      <trkpt lat="47.14088" lon="-1.32823">
        <ele>18.086365</ele>
        <time>2020-07-07T16:00:27Z</time>
      </trkpt>
      <trkpt lat="47.14095" lon="-1.32818">
        <ele>18.414007</ele>
        <time>2020-07-07T16:00:29Z</time>
      </trkpt>
      <trkpt lat="47.141" lon="-1.32814">
        <ele>17.600187</ele>
        <time>2020-07-07T16:00:31Z</time>
      </trkpt>
      <trkpt lat="47.14108" lon="-1.32809">
        <ele>17.750795</ele>
        <time>2020-07-07T16:00:33Z</time>
      </trkpt>
      <trkpt lat="47.14114" lon="-1.32803">
        <ele>15.716246</ele>
        <time>2020-07-07T16:00:35Z</time>
      </trkpt>
      <trkpt lat="47.14122" lon="-1.32797">
        <ele>16.847137</ele>
        <time>2020-07-07T16:00:37Z</time>
      </trkpt>
      <trkpt lat="47.14128" lon="-1.3279">
        <ele>17.17478</ele>
        <time>2020-07-07T16:00:39Z</time>
      </trkpt>
      <trkpt lat="47.14133" lon="-1.32785">
        <ele>17.610756</ele>
        <time>2020-07-07T16:00:41Z</time>
      </trkpt>
      <trkpt lat="47.14139" lon="-1.3278">
        <ele>16.968683</ele>
        <time>2020-07-07T16:00:43Z</time>
      </trkpt>
      <trkpt lat="47.14143" lon="-1.32774">
        <ele>17.505064</ele>
        <time>2020-07-07T16:00:45Z</time>
      </trkpt>
      <trkpt lat="47.14145" lon="-1.32764">
        <ele>18.118073</ele>
        <time>2020-07-07T16:00:47Z</time>
      </trkpt>
      <trkpt lat="47.14144" lon="-1.32754">
        <ele>17.151</ele>
        <time>2020-07-07T16:00:49Z</time>
      </trkpt>
      <trkpt lat="47.14138" lon="-1.32745">
        <ele>16.58291</ele>
        <time>2020-07-07T16:00:51Z</time>
      </trkpt>
      <trkpt lat="47.14135" lon="-1.32741">
        <ele>16.255268</ele>
        <time>2020-07-07T16:00:52Z</time>
      </trkpt>
      <trkpt lat="47.14131" lon="-1.32736">
        <ele>16.485147</ele>
        <time>2020-07-07T16:00:53Z</time>
      </trkpt>
      <trkpt lat="47.14127" lon="-1.3273">
        <ele>16.804863</ele>
        <time>2020-07-07T16:00:54Z</time>
      </trkpt>
      <trkpt lat="47.14123" lon="-1.32724">
        <ele>16.448154</ele>
        <time>2020-07-07T16:00:55Z</time>
      </trkpt>
      <trkpt lat="47.14119" lon="-1.32719">
        <ele>16.035961</ele>
        <time>2020-07-07T16:00:56Z</time>
      </trkpt>
      <trkpt lat="47.14114" lon="-1.32713">
        <ele>15.72153</ele>
        <time>2020-07-07T16:00:57Z</time>
      </trkpt>
      <trkpt lat="47.14109" lon="-1.32707">
        <ele>14.490231</ele>
        <time>2020-07-07T16:00:58Z</time>
      </trkpt>
      <trkpt lat="47.14103" lon="-1.32701">
        <ele>15.330473</ele>
        <time>2020-07-07T16:00:59Z</time>
      </trkpt>
      <trkpt lat="47.14096" lon="-1.32697">
        <ele>13.029053</ele>
        <time>2020-07-07T16:01:00Z</time>
      </trkpt>
      <trkpt lat="47.14089" lon="-1.32692">
        <ele>13.290638</ele>
        <time>2020-07-07T16:01:01Z</time>
      </trkpt>
      <trkpt lat="47.14082" lon="-1.32687">
        <ele>13.694905</ele>
        <time>2020-07-07T16:01:02Z</time>
      </trkpt>
      <trkpt lat="47.14075" lon="-1.32682">
        <ele>13.451817</ele>
        <time>2020-07-07T16:01:03Z</time>
      </trkpt>
      <trkpt lat="47.14068" lon="-1.32677">
        <ele>12.157103</ele>
        <time>2020-07-07T16:01:04Z</time>
      </trkpt>
      <trkpt lat="47.14061" lon="-1.32672">
        <ele>12.965638</ele>
        <time>2020-07-07T16:01:05Z</time>
      </trkpt>
      <trkpt lat="47.14054" lon="-1.32666">
        <ele>13.375191</ele>
        <time>2020-07-07T16:01:06Z</time>
      </trkpt>
      <trkpt lat="47.14048" lon="-1.3266">
        <ele>10.841249</ele>
        <time>2020-07-07T16:01:07Z</time>
      </trkpt>
      <trkpt lat="47.14042" lon="-1.32654">
        <ele>11.832103</ele>
        <time>2020-07-07T16:01:08Z</time>
      </trkpt>
      <trkpt lat="47.14037" lon="-1.32646">
        <ele>11.137184</ele>
        <time>2020-07-07T16:01:09Z</time>
      </trkpt>
      <trkpt lat="47.14034" lon="-1.32637">
        <ele>10.43434</ele>
        <time>2020-07-07T16:01:10Z</time>
      </trkpt>
      <trkpt lat="47.14031" lon="-1.32629">
        <ele>11.110762</ele>
        <time>2020-07-07T16:01:11Z</time>
      </trkpt>
      <trkpt lat="47.14028" lon="-1.3262">
        <ele>11.908729</ele>
        <time>2020-07-07T16:01:12Z</time>
      </trkpt>
      <trkpt lat="47.14026" lon="-1.32611">
        <ele>11.53881</ele>
        <time>2020-07-07T16:01:13Z</time>
      </trkpt>
      <trkpt lat="47.14024" lon="-1.32602">
        <ele>12.7674675</ele>
        <time>2020-07-07T16:01:14Z</time>
      </trkpt>
      <trkpt lat="47.14022" lon="-1.32595">
        <ele>10.6377945</ele>
        <time>2020-07-07T16:01:15Z</time>
      </trkpt>
      <trkpt lat="47.1402" lon="-1.32587">
        <ele>11.612794</ele>
        <time>2020-07-07T16:01:16Z</time>
      </trkpt>
      <trkpt lat="47.14018" lon="-1.32581">
        <ele>11.565233</ele>
        <time>2020-07-07T16:01:17Z</time>
      </trkpt>
      <trkpt lat="47.14016" lon="-1.32569">
        <ele>12.146533</ele>
        <time>2020-07-07T16:01:19Z</time>
      </trkpt>
      <trkpt lat="47.14016" lon="-1.32561">
        <ele>11.816249</ele>
        <time>2020-07-07T16:01:21Z</time>
      </trkpt>
      <trkpt lat="47.1402" lon="-1.32552">
        <ele>11.496533</ele>
        <time>2020-07-07T16:01:23Z</time>
      </trkpt>
      <trkpt lat="47.14024" lon="-1.32544">
        <ele>12.310354</ele>
        <time>2020-07-07T16:01:25Z</time>
      </trkpt>
      <trkpt lat="47.14027" lon="-1.32537">
        <ele>12.228443</ele>
        <time>2020-07-07T16:01:27Z</time>
      </trkpt>
      <trkpt lat="47.14031" lon="-1.32527">
        <ele>13.8508</ele>
        <time>2020-07-07T16:01:29Z</time>
      </trkpt>
      <trkpt lat="47.14033" lon="-1.3252">
        <ele>13.716043</ele>
        <time>2020-07-07T16:01:31Z</time>
      </trkpt>
      <trkpt lat="47.14036" lon="-1.32513">
        <ele>14.413604</ele>
        <time>2020-07-07T16:01:33Z</time>
      </trkpt>
      <trkpt lat="47.1404" lon="-1.32507">
        <ele>14.611774</ele>
        <time>2020-07-07T16:01:35Z</time>
      </trkpt>
      <trkpt lat="47.14045" lon="-1.32501">
        <ele>14.487588</ele>
        <time>2020-07-07T16:01:37Z</time>
      </trkpt>
      <trkpt lat="47.1405" lon="-1.32496">
        <ele>15.290839</ele>
        <time>2020-07-07T16:01:39Z</time>
      </trkpt>
      <trkpt lat="47.14055" lon="-1.32491">
        <ele>15.586774</ele>
        <time>2020-07-07T16:01:41Z</time>
      </trkpt>
      <trkpt lat="47.14059" lon="-1.32487">
        <ele>15.763806</ele>
        <time>2020-07-07T16:01:43Z</time>
      </trkpt>
      <trkpt lat="47.14065" lon="-1.32482">
        <ele>16.929049</ele>
        <time>2020-07-07T16:01:45Z</time>
      </trkpt>
      <trkpt lat="47.14071" lon="-1.32477">
        <ele>16.672749</ele>
        <time>2020-07-07T16:01:47Z</time>
      </trkpt>
      <trkpt lat="47.14077" lon="-1.32471">
        <ele>16.984537</ele>
        <time>2020-07-07T16:01:49Z</time>
      </trkpt>
      <trkpt lat="47.14082" lon="-1.32467">
        <ele>15.851001</ele>
        <time>2020-07-07T16:01:51Z</time>
      </trkpt>
      <trkpt lat="47.14086" lon="-1.32463">
        <ele>15.951407</ele>
        <time>2020-07-07T16:01:53Z</time>
      </trkpt>
      <trkpt lat="47.1409" lon="-1.32459">
        <ele>16.498358</ele>
        <time>2020-07-07T16:01:55Z</time>
      </trkpt>
      <trkpt lat="47.14094" lon="-1.32454">
        <ele>16.86035</ele>
        <time>2020-07-07T16:01:57Z</time>
      </trkpt>
      <trkpt lat="47.14098" lon="-1.3245">
        <ele>15.856286</ele>
        <time>2020-07-07T16:01:59Z</time>
      </trkpt>
      <trkpt lat="47.14102" lon="-1.32446">
        <ele>17.476</ele>
        <time>2020-07-07T16:02:01Z</time>
      </trkpt>
      <trkpt lat="47.14106" lon="-1.32443">
        <ele>17.394089</ele>
        <time>2020-07-07T16:02:03Z</time>
      </trkpt>
      <trkpt lat="47.1411" lon="-1.32439">
        <ele>17.372952</ele>
        <time>2020-07-07T16:02:05Z</time>
      </trkpt>
      <trkpt lat="47.14116" lon="-1.32436">
        <ele>16.47722</ele>
        <time>2020-07-07T16:02:08Z</time>
      </trkpt>
      <trkpt lat="47.1412" lon="-1.3244">
        <ele>17.108723</ele>
        <time>2020-07-07T16:02:11Z</time>
      </trkpt>
      <trkpt lat="47.14125" lon="-1.32443">
        <ele>17.60547</ele>
        <time>2020-07-07T16:02:35Z</time>
      </trkpt>
      <trkpt lat="47.14128" lon="-1.32451">
        <ele>16.530066</ele>
        <time>2020-07-07T16:02:38Z</time>
      </trkpt>
      <trkpt lat="47.14132" lon="-1.32458">
        <ele>18.308315</ele>
        <time>2020-07-07T16:02:40Z</time>
      </trkpt>
      <trkpt lat="47.14135" lon="-1.32465">
        <ele>17.996527</ele>
        <time>2020-07-07T16:02:42Z</time>
      </trkpt>
      <trkpt lat="47.1414" lon="-1.32472">
        <ele>18.28982</ele>
        <time>2020-07-07T16:02:44Z</time>
      </trkpt>
      <trkpt lat="47.14144" lon="-1.3248">
        <ele>18.089006</ele>
        <time>2020-07-07T16:02:46Z</time>
      </trkpt>
      <trkpt lat="47.14148" lon="-1.32487">
        <ele>18.612177</ele>
        <time>2020-07-07T16:02:48Z</time>
      </trkpt>
      <trkpt lat="47.14151" lon="-1.32494">
        <ele>19.344088</ele>
        <time>2020-07-07T16:02:50Z</time>
      </trkpt>
      <trkpt lat="47.14153" lon="-1.32502">
        <ele>19.735144</ele>
        <time>2020-07-07T16:02:52Z</time>
      </trkpt>
      <trkpt lat="47.14156" lon="-1.3251">
        <ele>20.279451</ele>
        <time>2020-07-07T16:02:54Z</time>
      </trkpt>
      <trkpt lat="47.1416" lon="-1.32515">
        <ele>19.967665</ele>
        <time>2020-07-07T16:02:56Z</time>
      </trkpt>
      <trkpt lat="47.14166" lon="-1.32512">
        <ele>20.237175</ele>
        <time>2020-07-07T16:02:58Z</time>
      </trkpt>
      <trkpt lat="47.14172" lon="-1.32506">
        <ele>20.181688</ele>
        <time>2020-07-07T16:03:00Z</time>
      </trkpt>
      <trkpt lat="47.14177" lon="-1.325">
        <ele>20.85811</ele>
        <time>2020-07-07T16:03:02Z</time>
      </trkpt>
      <trkpt lat="47.14183" lon="-1.32495">
        <ele>21.196321</ele>
        <time>2020-07-07T16:03:04Z</time>
      </trkpt>
      <trkpt lat="47.14189" lon="-1.32492">
        <ele>21.444695</ele>
        <time>2020-07-07T16:03:06Z</time>
      </trkpt>
      <trkpt lat="47.14195" lon="-1.32489">
        <ele>21.981077</ele>
        <time>2020-07-07T16:03:08Z</time>
      </trkpt>
      <trkpt lat="47.14201" lon="-1.32488">
        <ele>21.690426</ele>
        <time>2020-07-07T16:03:10Z</time>
      </trkpt>
      <trkpt lat="47.14205" lon="-1.32484">
        <ele>21.899166</ele>
        <time>2020-07-07T16:03:12Z</time>
      </trkpt>
      <trkpt lat="47.14207" lon="-1.32478">
        <ele>22.187174</ele>
        <time>2020-07-07T16:03:14Z</time>
      </trkpt>
      <trkpt lat="47.14211" lon="-1.32473">
        <ele>21.502825</ele>
        <time>2020-07-07T16:03:20Z</time>
      </trkpt>
      <trkpt lat="47.14216" lon="-1.32469">
        <ele>24.05262</ele>
        <time>2020-07-07T16:03:23Z</time>
      </trkpt>
      <trkpt lat="47.14219" lon="-1.3246">
        <ele>23.812172</ele>
        <time>2020-07-07T16:03:26Z</time>
      </trkpt>
      <trkpt lat="47.1422" lon="-1.32452">
        <ele>23.58758</ele>
        <time>2020-07-07T16:03:28Z</time>
      </trkpt>
      <trkpt lat="47.14225" lon="-1.32444">
        <ele>24.248148</ele>
        <time>2020-07-07T16:03:30Z</time>
      </trkpt>
      <trkpt lat="47.14231" lon="-1.32435">
        <ele>23.061768</ele>
        <time>2020-07-07T16:03:32Z</time>
      </trkpt>
      <trkpt lat="47.14234" lon="-1.3243">
        <ele>22.475182</ele>
        <time>2020-07-07T16:03:33Z</time>
      </trkpt>
      <trkpt lat="47.14237" lon="-1.32425">
        <ele>23.03006</ele>
        <time>2020-07-07T16:03:34Z</time>
      </trkpt>
      <trkpt lat="47.14241" lon="-1.32421">
        <ele>22.430264</ele>
        <time>2020-07-07T16:03:35Z</time>
      </trkpt>
      <trkpt lat="47.14247" lon="-1.32416">
        <ele>21.563597</ele>
        <time>2020-07-07T16:03:36Z</time>
      </trkpt>
      <trkpt lat="47.14252" lon="-1.32413">
        <ele>21.513393</ele>
        <time>2020-07-07T16:03:37Z</time>
      </trkpt>
      <trkpt lat="47.14257" lon="-1.32409">
        <ele>21.944084</ele>
        <time>2020-07-07T16:03:38Z</time>
      </trkpt>
      <trkpt lat="47.14262" lon="-1.32406">
        <ele>21.22803</ele>
        <time>2020-07-07T16:03:39Z</time>
      </trkpt>
      <trkpt lat="47.14269" lon="-1.32401">
        <ele>21.122337</ele>
        <time>2020-07-07T16:03:41Z</time>
      </trkpt>
      <trkpt lat="47.14274" lon="-1.32389">
        <ele>20.7075</ele>
        <time>2020-07-07T16:03:43Z</time>
      </trkpt>
      <trkpt lat="47.14277" lon="-1.32384">
        <ele>21.545101</ele>
        <time>2020-07-07T16:03:44Z</time>
      </trkpt>
      <trkpt lat="47.14282" lon="-1.32377">
        <ele>21.106483</ele>
        <time>2020-07-07T16:03:46Z</time>
      </trkpt>
      <trkpt lat="47.14286" lon="-1.3237">
        <ele>21.756483</ele>
        <time>2020-07-07T16:03:48Z</time>
      </trkpt>
      <trkpt lat="47.14292" lon="-1.32365">
        <ele>21.571524</ele>
        <time>2020-07-07T16:03:50Z</time>
      </trkpt>
      <trkpt lat="47.14299" lon="-1.32361">
        <ele>22.131687</ele>
        <time>2020-07-07T16:03:52Z</time>
      </trkpt>
      <trkpt lat="47.14306" lon="-1.32356">
        <ele>22.82132</ele>
        <time>2020-07-07T16:03:54Z</time>
      </trkpt>
      <trkpt lat="47.14312" lon="-1.32351">
        <ele>22.02071</ele>
        <time>2020-07-07T16:03:56Z</time>
      </trkpt>
      <trkpt lat="47.1432" lon="-1.32348">
        <ele>21.867458</ele>
        <time>2020-07-07T16:03:58Z</time>
      </trkpt>
      <trkpt lat="47.14328" lon="-1.32345">
        <ele>21.864817</ele>
        <time>2020-07-07T16:04:00Z</time>
      </trkpt>
      <trkpt lat="47.14336" lon="-1.32342">
        <ele>21.965223</ele>
        <time>2020-07-07T16:04:02Z</time>
      </trkpt>
      <trkpt lat="47.14344" lon="-1.32339">
        <ele>22.329857</ele>
        <time>2020-07-07T16:04:04Z</time>
      </trkpt>
      <trkpt lat="47.14352" lon="-1.32336">
        <ele>22.919085</ele>
        <time>2020-07-07T16:04:06Z</time>
      </trkpt>
      <trkpt lat="47.1436" lon="-1.32334">
        <ele>23.141035</ele>
        <time>2020-07-07T16:04:08Z</time>
      </trkpt>
      <trkpt lat="47.14367" lon="-1.3233">
        <ele>22.261158</ele>
        <time>2020-07-07T16:04:10Z</time>
      </trkpt>
      <trkpt lat="47.14375" lon="-1.32327">
        <ele>22.350994</ele>
        <time>2020-07-07T16:04:12Z</time>
      </trkpt>
      <trkpt lat="47.14382" lon="-1.32325">
        <ele>24.306278</ele>
        <time>2020-07-07T16:04:14Z</time>
      </trkpt>
      <trkpt lat="47.14388" lon="-1.32323">
        <ele>22.385345</ele>
        <time>2020-07-07T16:04:16Z</time>
      </trkpt>
      <trkpt lat="47.14394" lon="-1.32321">
        <ele>23.257296</ele>
        <time>2020-07-07T16:04:18Z</time>
      </trkpt>
      <trkpt lat="47.144" lon="-1.32322">
        <ele>22.876808</ele>
        <time>2020-07-07T16:04:20Z</time>
      </trkpt>
      <trkpt lat="47.14406" lon="-1.32323">
        <ele>22.966644</ele>
        <time>2020-07-07T16:04:22Z</time>
      </trkpt>
      <trkpt lat="47.14412" lon="-1.32323">
        <ele>23.999773</ele>
        <time>2020-07-07T16:04:24Z</time>
      </trkpt>
      <trkpt lat="47.14418" lon="-1.32321">
        <ele>23.048555</ele>
        <time>2020-07-07T16:04:26Z</time>
      </trkpt>
      <trkpt lat="47.14424" lon="-1.32316">
        <ele>23.03006</ele>
        <time>2020-07-07T16:04:28Z</time>
      </trkpt>
      <trkpt lat="47.1443" lon="-1.32311">
        <ele>23.521523</ele>
        <time>2020-07-07T16:04:30Z</time>
      </trkpt>
      <trkpt lat="47.14435" lon="-1.32306">
        <ele>23.156889</ele>
        <time>2020-07-07T16:04:32Z</time>
      </trkpt>
      <trkpt lat="47.1444" lon="-1.32302">
        <ele>22.369492</ele>
        <time>2020-07-07T16:04:34Z</time>
      </trkpt>
      <trkpt lat="47.14446" lon="-1.32298">
        <ele>23.968067</ele>
        <time>2020-07-07T16:04:36Z</time>
      </trkpt>
      <trkpt lat="47.14452" lon="-1.32296">
        <ele>24.596928</ele>
        <time>2020-07-07T16:04:38Z</time>
      </trkpt>
      <trkpt lat="47.14458" lon="-1.32294">
        <ele>23.965424</ele>
        <time>2020-07-07T16:04:40Z</time>
      </trkpt>
      <trkpt lat="47.14464" lon="-1.32292">
        <ele>24.760748</ele>
        <time>2020-07-07T16:04:42Z</time>
      </trkpt>
      <trkpt lat="47.1447" lon="-1.3229">
        <ele>24.208513</ele>
        <time>2020-07-07T16:04:44Z</time>
      </trkpt>
      <trkpt lat="47.14476" lon="-1.32288">
        <ele>25.061968</ele>
        <time>2020-07-07T16:04:46Z</time>
      </trkpt>
      <trkpt lat="47.14482" lon="-1.32286">
        <ele>25.143879</ele>
        <time>2020-07-07T16:04:48Z</time>
      </trkpt>
      <trkpt lat="47.14488" lon="-1.32284">
        <ele>24.673553</ele>
        <time>2020-07-07T16:04:50Z</time>
      </trkpt>
      <trkpt lat="47.14493" lon="-1.32281">
        <ele>25.873146</ele>
        <time>2020-07-07T16:04:52Z</time>
      </trkpt>
      <trkpt lat="47.14499" lon="-1.32278">
        <ele>25.4953</ele>
        <time>2020-07-07T16:04:54Z</time>
      </trkpt>
      <trkpt lat="47.14504" lon="-1.32274">
        <ele>25.590424</ele>
        <time>2020-07-07T16:04:56Z</time>
      </trkpt>
      <trkpt lat="47.14508" lon="-1.32267">
        <ele>26.17965</ele>
        <time>2020-07-07T16:04:58Z</time>
      </trkpt>
      <trkpt lat="47.1451" lon="-1.32259">
        <ele>25.925991</ele>
        <time>2020-07-07T16:05:00Z</time>
      </trkpt>
      <trkpt lat="47.14511" lon="-1.32249">
        <ele>26.26156</ele>
        <time>2020-07-07T16:05:02Z</time>
      </trkpt>
      <trkpt lat="47.14511" lon="-1.32239">
        <ele>25.77274</ele>
        <time>2020-07-07T16:05:04Z</time>
      </trkpt>
      <trkpt lat="47.1451" lon="-1.3223">
        <ele>25.06461</ele>
        <time>2020-07-07T16:05:06Z</time>
      </trkpt>
      <trkpt lat="47.1451" lon="-1.32221">
        <ele>25.637983</ele>
        <time>2020-07-07T16:05:08Z</time>
      </trkpt>
      <trkpt lat="47.14509" lon="-1.32211">
        <ele>25.698755</ele>
        <time>2020-07-07T16:05:10Z</time>
      </trkpt>
      <trkpt lat="47.14508" lon="-1.322">
        <ele>25.08839</ele>
        <time>2020-07-07T16:05:12Z</time>
      </trkpt>
      <trkpt lat="47.14508" lon="-1.32189">
        <ele>26.343472</ele>
        <time>2020-07-07T16:05:14Z</time>
      </trkpt>
      <trkpt lat="47.14508" lon="-1.32177">
        <ele>26.026398</ele>
        <time>2020-07-07T16:05:16Z</time>
      </trkpt>
      <trkpt lat="47.14507" lon="-1.32165">
        <ele>26.536356</ele>
        <time>2020-07-07T16:05:18Z</time>
      </trkpt>
      <trkpt lat="47.14507" lon="-1.32154">
        <ele>26.414812</ele>
        <time>2020-07-07T16:05:20Z</time>
      </trkpt>
      <trkpt lat="47.14507" lon="-1.32144">
        <ele>24.261358</ele>
        <time>2020-07-07T16:05:22Z</time>
      </trkpt>
      <trkpt lat="47.14507" lon="-1.32133">
        <ele>25.408106</ele>
        <time>2020-07-07T16:05:24Z</time>
      </trkpt>
      <trkpt lat="47.14507" lon="-1.32122">
        <ele>27.078022</ele>
        <time>2020-07-07T16:05:26Z</time>
      </trkpt>
      <trkpt lat="47.14506" lon="-1.32109">
        <ele>24.855871</ele>
        <time>2020-07-07T16:05:28Z</time>
      </trkpt>
      <trkpt lat="47.14506" lon="-1.32096">
        <ele>26.211357</ele>
        <time>2020-07-07T16:05:30Z</time>
      </trkpt>
      <trkpt lat="47.14506" lon="-1.32083">
        <ele>25.76217</ele>
        <time>2020-07-07T16:05:32Z</time>
      </trkpt>
      <trkpt lat="47.14506" lon="-1.3207">
        <ele>25.582497</ele>
        <time>2020-07-07T16:05:34Z</time>
      </trkpt>
      <trkpt lat="47.14507" lon="-1.32057">
        <ele>26.303837</ele>
        <time>2020-07-07T16:05:36Z</time>
      </trkpt>
      <trkpt lat="47.14507" lon="-1.32044">
        <ele>26.496723</ele>
        <time>2020-07-07T16:05:38Z</time>
      </trkpt>
      <trkpt lat="47.14507" lon="-1.32037">
        <ele>26.1453</ele>
        <time>2020-07-07T16:05:39Z</time>
      </trkpt>
      <trkpt lat="47.14507" lon="-1.3203">
        <ele>27.572128</ele>
        <time>2020-07-07T16:05:40Z</time>
      </trkpt>
      <trkpt lat="47.14507" lon="-1.32024">
        <ele>26.774162</ele>
        <time>2020-07-07T16:05:41Z</time>
      </trkpt>
      <trkpt lat="47.14507" lon="-1.32011">
        <ele>25.439814</ele>
        <time>2020-07-07T16:05:43Z</time>
      </trkpt>
      <trkpt lat="47.14508" lon="-1.31999">
        <ele>25.561357</ele>
        <time>2020-07-07T16:05:45Z</time>
      </trkpt>
      <trkpt lat="47.14508" lon="-1.31988">
        <ele>26.361967</ele>
        <time>2020-07-07T16:05:47Z</time>
      </trkpt>
      <trkpt lat="47.14508" lon="-1.31976">
        <ele>25.780666</ele>
        <time>2020-07-07T16:05:49Z</time>
      </trkpt>
      <trkpt lat="47.14509" lon="-1.31963">
        <ele>26.140017</ele>
        <time>2020-07-07T16:05:51Z</time>
      </trkpt>
      <trkpt lat="47.1451" lon="-1.31951">
        <ele>25.857292</ele>
        <time>2020-07-07T16:05:53Z</time>
      </trkpt>
      <trkpt lat="47.1451" lon="-1.31944">
        <ele>26.137373</ele>
        <time>2020-07-07T16:05:54Z</time>
      </trkpt>
      <trkpt lat="47.14511" lon="-1.31937">
        <ele>26.930056</ele>
        <time>2020-07-07T16:05:55Z</time>
      </trkpt>
      <trkpt lat="47.14512" lon="-1.31925">
        <ele>26.713388</ele>
        <time>2020-07-07T16:05:57Z</time>
      </trkpt>
      <trkpt lat="47.14512" lon="-1.31913">
        <ele>26.12152</ele>
        <time>2020-07-07T16:05:59Z</time>
      </trkpt>
      <trkpt lat="47.14513" lon="-1.31902">
        <ele>25.688187</ele>
        <time>2020-07-07T16:06:01Z</time>
      </trkpt>
      <trkpt lat="47.14514" lon="-1.31891">
        <ele>25.962984</ele>
        <time>2020-07-07T16:06:03Z</time>
      </trkpt>
      <trkpt lat="47.14515" lon="-1.31878">
        <ele>26.396317</ele>
        <time>2020-07-07T16:06:05Z</time>
      </trkpt>
      <trkpt lat="47.14516" lon="-1.31872">
        <ele>26.280056</ele>
        <time>2020-07-07T16:06:06Z</time>
      </trkpt>
      <trkpt lat="47.14517" lon="-1.31865">
        <ele>26.885138</ele>
        <time>2020-07-07T16:06:07Z</time>
      </trkpt>
      <trkpt lat="47.14518" lon="-1.31858">
        <ele>26.105667</ele>
        <time>2020-07-07T16:06:08Z</time>
      </trkpt>
      <trkpt lat="47.14518" lon="-1.31851">
        <ele>26.671112</ele>
        <time>2020-07-07T16:06:09Z</time>
      </trkpt>
      <trkpt lat="47.14519" lon="-1.31844">
        <ele>26.536356</ele>
        <time>2020-07-07T16:06:10Z</time>
      </trkpt>
      <trkpt lat="47.1452" lon="-1.31837">
        <ele>26.914202</ele>
        <time>2020-07-07T16:06:11Z</time>
      </trkpt>
      <trkpt lat="47.14521" lon="-1.31831">
        <ele>26.248348</ele>
        <time>2020-07-07T16:06:12Z</time>
      </trkpt>
      <trkpt lat="47.14523" lon="-1.31824">
        <ele>26.533714</ele>
        <time>2020-07-07T16:06:13Z</time>
      </trkpt>
      <trkpt lat="47.14524" lon="-1.31817">
        <ele>26.502007</ele>
        <time>2020-07-07T16:06:14Z</time>
      </trkpt>
      <trkpt lat="47.14525" lon="-1.3181">
        <ele>24.742252</ele>
        <time>2020-07-07T16:06:15Z</time>
      </trkpt>
      <trkpt lat="47.14526" lon="-1.31804">
        <ele>25.846724</ele>
        <time>2020-07-07T16:06:16Z</time>
      </trkpt>
      <trkpt lat="47.14527" lon="-1.31797">
        <ele>26.816439</ele>
        <time>2020-07-07T16:06:17Z</time>
      </trkpt>
      <trkpt lat="47.14528" lon="-1.3179">
        <ele>26.615625</ele>
        <time>2020-07-07T16:06:18Z</time>
      </trkpt>
      <trkpt lat="47.1453" lon="-1.31783">
        <ele>26.488796</ele>
        <time>2020-07-07T16:06:19Z</time>
      </trkpt>
      <trkpt lat="47.14531" lon="-1.31777">
        <ele>26.591845</ele>
        <time>2020-07-07T16:06:20Z</time>
      </trkpt>
      <trkpt lat="47.14533" lon="-1.3177">
        <ele>26.705462</ele>
        <time>2020-07-07T16:06:21Z</time>
      </trkpt>
      <trkpt lat="47.14534" lon="-1.31764">
        <ele>26.57599</ele>
        <time>2020-07-07T16:06:22Z</time>
      </trkpt>
      <trkpt lat="47.14535" lon="-1.31757">
        <ele>26.309122</ele>
        <time>2020-07-07T16:06:23Z</time>
      </trkpt>
      <trkpt lat="47.14537" lon="-1.3175">
        <ele>26.129446</ele>
        <time>2020-07-07T16:06:24Z</time>
      </trkpt>
      <trkpt lat="47.14538" lon="-1.31743">
        <ele>26.805868</ele>
        <time>2020-07-07T16:06:25Z</time>
      </trkpt>
      <trkpt lat="47.1454" lon="-1.31737">
        <ele>28.198347</ele>
        <time>2020-07-07T16:06:26Z</time>
      </trkpt>
      <trkpt lat="47.14541" lon="-1.3173">
        <ele>25.862577</ele>
        <time>2020-07-07T16:06:27Z</time>
      </trkpt>
      <trkpt lat="47.14543" lon="-1.31718">
        <ele>25.918064</ele>
        <time>2020-07-07T16:06:29Z</time>
      </trkpt>
      <trkpt lat="47.14546" lon="-1.31707">
        <ele>25.748959</ele>
        <time>2020-07-07T16:06:31Z</time>
      </trkpt>
      <trkpt lat="47.14548" lon="-1.31696">
        <ele>25.815016</ele>
        <time>2020-07-07T16:06:33Z</time>
      </trkpt>
      <trkpt lat="47.1455" lon="-1.31686">
        <ele>26.147942</ele>
        <time>2020-07-07T16:06:35Z</time>
      </trkpt>
      <trkpt lat="47.14552" lon="-1.31676">
        <ele>24.660343</ele>
        <time>2020-07-07T16:06:37Z</time>
      </trkpt>
      <trkpt lat="47.14555" lon="-1.31668">
        <ele>25.35526</ele>
        <time>2020-07-07T16:06:39Z</time>
      </trkpt>
      <trkpt lat="47.14558" lon="-1.31661">
        <ele>26.496723</ele>
        <time>2020-07-07T16:06:41Z</time>
      </trkpt>
      <trkpt lat="47.14565" lon="-1.31661">
        <ele>25.50587</ele>
        <time>2020-07-07T16:06:43Z</time>
      </trkpt>
      <trkpt lat="47.14573" lon="-1.31665">
        <ele>26.216642</ele>
        <time>2020-07-07T16:06:45Z</time>
      </trkpt>
      <trkpt lat="47.1458" lon="-1.3167">
        <ele>26.206072</ele>
        <time>2020-07-07T16:06:47Z</time>
      </trkpt>
      <trkpt lat="47.14588" lon="-1.31675">
        <ele>26.01847</ele>
        <time>2020-07-07T16:06:49Z</time>
      </trkpt>
      <trkpt lat="47.14595" lon="-1.31682">
        <ele>26.129446</ele>
        <time>2020-07-07T16:06:51Z</time>
      </trkpt>
      <trkpt lat="47.14599" lon="-1.31685">
        <ele>25.743675</ele>
        <time>2020-07-07T16:06:52Z</time>
      </trkpt>
      <trkpt lat="47.14604" lon="-1.31689">
        <ele>25.379042</ele>
        <time>2020-07-07T16:06:53Z</time>
      </trkpt>
      <trkpt lat="47.14608" lon="-1.31692">
        <ele>25.268064</ele>
        <time>2020-07-07T16:06:54Z</time>
      </trkpt>
      <trkpt lat="47.14612" lon="-1.31696">
        <ele>25.70404</ele>
        <time>2020-07-07T16:06:55Z</time>
      </trkpt>
      <trkpt lat="47.14616" lon="-1.317">
        <ele>25.846724</ele>
        <time>2020-07-07T16:06:56Z</time>
      </trkpt>
      <trkpt lat="47.14621" lon="-1.31703">
        <ele>26.129446</ele>
        <time>2020-07-07T16:06:57Z</time>
      </trkpt>
      <trkpt lat="47.14628" lon="-1.31709">
        <ele>25.80973</ele>
        <time>2020-07-07T16:06:59Z</time>
      </trkpt>
      <trkpt lat="47.14635" lon="-1.31714">
        <ele>25.735748</ele>
        <time>2020-07-07T16:07:01Z</time>
      </trkpt>
      <trkpt lat="47.14642" lon="-1.31717">
        <ele>25.20465</ele>
        <time>2020-07-07T16:07:03Z</time>
      </trkpt>
      <trkpt lat="47.14648" lon="-1.31717">
        <ele>25.373756</ele>
        <time>2020-07-07T16:07:05Z</time>
      </trkpt>
      <trkpt lat="47.14655" lon="-1.31712">
        <ele>24.803024</ele>
        <time>2020-07-07T16:07:07Z</time>
      </trkpt>
      <trkpt lat="47.14661" lon="-1.31704">
        <ele>25.44774</ele>
        <time>2020-07-07T16:07:09Z</time>
      </trkpt>
      <trkpt lat="47.14664" lon="-1.31699">
        <ele>25.114813</ele>
        <time>2020-07-07T16:07:10Z</time>
      </trkpt>
      <trkpt lat="47.14669" lon="-1.31689">
        <ele>24.710545</ele>
        <time>2020-07-07T16:07:12Z</time>
      </trkpt>
      <trkpt lat="47.14672" lon="-1.31684">
        <ele>24.9827</ele>
        <time>2020-07-07T16:07:13Z</time>
      </trkpt>
      <trkpt lat="47.14676" lon="-1.31679">
        <ele>25.545504</ele>
        <time>2020-07-07T16:07:14Z</time>
      </trkpt>
      <trkpt lat="47.14683" lon="-1.31671">
        <ele>26.02904</ele>
        <time>2020-07-07T16:07:16Z</time>
      </trkpt>
      <trkpt lat="47.1469" lon="-1.31664">
        <ele>25.83087</ele>
        <time>2020-07-07T16:07:18Z</time>
      </trkpt>
      <trkpt lat="47.14697" lon="-1.31658">
        <ele>24.54144</ele>
        <time>2020-07-07T16:07:20Z</time>
      </trkpt>
      <trkpt lat="47.14703" lon="-1.31652">
        <ele>25.032904</ele>
        <time>2020-07-07T16:07:22Z</time>
      </trkpt>
      <trkpt lat="47.1471" lon="-1.31646">
        <ele>25.870504</ele>
        <time>2020-07-07T16:07:24Z</time>
      </trkpt>
      <trkpt lat="47.14716" lon="-1.3164">
        <ele>25.812374</ele>
        <time>2020-07-07T16:07:26Z</time>
      </trkpt>
      <trkpt lat="47.14721" lon="-1.31635">
        <ele>25.709326</ele>
        <time>2020-07-07T16:07:28Z</time>
      </trkpt>
      <trkpt lat="47.14726" lon="-1.3163">
        <ele>25.973553</ele>
        <time>2020-07-07T16:07:30Z</time>
      </trkpt>
      <trkpt lat="47.1473" lon="-1.31625">
        <ele>26.771519</ele>
        <time>2020-07-07T16:07:32Z</time>
      </trkpt>
      <trkpt lat="47.14734" lon="-1.3162">
        <ele>26.866642</ele>
        <time>2020-07-07T16:07:34Z</time>
      </trkpt>
      <trkpt lat="47.14738" lon="-1.31614">
        <ele>26.885138</ele>
        <time>2020-07-07T16:07:36Z</time>
      </trkpt>
      <trkpt lat="47.14743" lon="-1.31609">
        <ele>27.41095</ele>
        <time>2020-07-07T16:07:38Z</time>
      </trkpt>
      <trkpt lat="47.14747" lon="-1.31603">
        <ele>27.463795</ele>
        <time>2020-07-07T16:07:40Z</time>
      </trkpt>
      <trkpt lat="47.14751" lon="-1.31598">
        <ele>27.802006</ele>
        <time>2020-07-07T16:07:42Z</time>
      </trkpt>
      <trkpt lat="47.14756" lon="-1.31592">
        <ele>27.693672</ele>
        <time>2020-07-07T16:07:44Z</time>
      </trkpt>
      <trkpt lat="47.14761" lon="-1.31587">
        <ele>28.362167</ele>
        <time>2020-07-07T16:07:46Z</time>
      </trkpt>
      <trkpt lat="47.14764" lon="-1.31582">
        <ele>25.970911</ele>
        <time>2020-07-07T16:07:48Z</time>
      </trkpt>
      <trkpt lat="47.14769" lon="-1.31577">
        <ele>27.400381</ele>
        <time>2020-07-07T16:07:51Z</time>
      </trkpt>
      <trkpt lat="47.14774" lon="-1.31572">
        <ele>28.343672</ele>
        <time>2020-07-07T16:07:53Z</time>
      </trkpt>
      <trkpt lat="47.14778" lon="-1.31567">
        <ele>28.280258</ele>
        <time>2020-07-07T16:07:55Z</time>
      </trkpt>
      <trkpt lat="47.14782" lon="-1.31561">
        <ele>27.955257</ele>
        <time>2020-07-07T16:07:57Z</time>
      </trkpt>
      <trkpt lat="47.14787" lon="-1.31556">
        <ele>28.578835</ele>
        <time>2020-07-07T16:07:59Z</time>
      </trkpt>
      <trkpt lat="47.14791" lon="-1.3155">
        <ele>28.404444</ele>
        <time>2020-07-07T16:08:01Z</time>
      </trkpt>
      <trkpt lat="47.14795" lon="-1.31545">
        <ele>28.000177</ele>
        <time>2020-07-07T16:08:03Z</time>
      </trkpt>
      <trkpt lat="47.148" lon="-1.31539">
        <ele>28.57355</ele>
        <time>2020-07-07T16:08:05Z</time>
      </trkpt>
      <trkpt lat="47.14804" lon="-1.31534">
        <ele>28.666029</ele>
        <time>2020-07-07T16:08:07Z</time>
      </trkpt>
      <trkpt lat="47.14808" lon="-1.31529">
        <ele>28.824566</ele>
        <time>2020-07-07T16:08:09Z</time>
      </trkpt>
      <trkpt lat="47.14812" lon="-1.31523">
        <ele>28.80607</ele>
        <time>2020-07-07T16:08:11Z</time>
      </trkpt>
      <trkpt lat="47.14816" lon="-1.31518">
        <ele>28.071518</ele>
        <time>2020-07-07T16:08:13Z</time>
      </trkpt>
      <trkpt lat="47.14821" lon="-1.31513">
        <ele>29.13107</ele>
        <time>2020-07-07T16:08:15Z</time>
      </trkpt>
      <trkpt lat="47.14826" lon="-1.3151">
        <ele>30.129848</ele>
        <time>2020-07-07T16:08:17Z</time>
      </trkpt>
      <trkpt lat="47.14832" lon="-1.3151">
        <ele>28.330462</ele>
        <time>2020-07-07T16:08:19Z</time>
      </trkpt>
      <trkpt lat="47.14837" lon="-1.31513">
        <ele>28.39916</ele>
        <time>2020-07-07T16:08:21Z</time>
      </trkpt>
      <trkpt lat="47.14841" lon="-1.31517">
        <ele>28.95668</ele>
        <time>2020-07-07T16:08:23Z</time>
      </trkpt>
      <trkpt lat="47.14845" lon="-1.31523">
        <ele>29.197126</ele>
        <time>2020-07-07T16:08:25Z</time>
      </trkpt>
      <trkpt lat="47.1485" lon="-1.31529">
        <ele>29.659525</ele>
        <time>2020-07-07T16:08:27Z</time>
      </trkpt>
      <trkpt lat="47.14854" lon="-1.31535">
        <ele>29.360947</ele>
        <time>2020-07-07T16:08:29Z</time>
      </trkpt>
      <trkpt lat="47.14858" lon="-1.3154">
        <ele>29.197126</ele>
        <time>2020-07-07T16:08:31Z</time>
      </trkpt>
      <trkpt lat="47.14862" lon="-1.31546">
        <ele>30.1642</ele>
        <time>2020-07-07T16:08:33Z</time>
      </trkpt>
      <trkpt lat="47.14867" lon="-1.31552">
        <ele>29.279037</ele>
        <time>2020-07-07T16:08:35Z</time>
      </trkpt>
      <trkpt lat="47.14871" lon="-1.31558">
        <ele>29.009525</ele>
        <time>2020-07-07T16:08:37Z</time>
      </trkpt>
      <trkpt lat="47.14876" lon="-1.31564">
        <ele>29.220907</ele>
        <time>2020-07-07T16:08:39Z</time>
      </trkpt>
      <trkpt lat="47.1488" lon="-1.31571">
        <ele>29.759932</ele>
        <time>2020-07-07T16:08:41Z</time>
      </trkpt>
      <trkpt lat="47.14885" lon="-1.31577">
        <ele>30.29367</ele>
        <time>2020-07-07T16:08:43Z</time>
      </trkpt>
      <trkpt lat="47.1489" lon="-1.31584">
        <ele>31.598953</ele>
        <time>2020-07-07T16:08:45Z</time>
      </trkpt>
      <trkpt lat="47.14895" lon="-1.3159">
        <ele>29.8392</ele>
        <time>2020-07-07T16:08:47Z</time>
      </trkpt>
      <trkpt lat="47.149" lon="-1.31597">
        <ele>30.412573</ele>
        <time>2020-07-07T16:08:49Z</time>
      </trkpt>
      <trkpt lat="47.14905" lon="-1.31603">
        <ele>29.685947</ele>
        <time>2020-07-07T16:08:51Z</time>
      </trkpt>
      <trkpt lat="47.1491" lon="-1.3161">
        <ele>29.68859</ele>
        <time>2020-07-07T16:08:53Z</time>
      </trkpt>
      <trkpt lat="47.14915" lon="-1.31617">
        <ele>29.170704</ele>
        <time>2020-07-07T16:08:55Z</time>
      </trkpt>
      <trkpt lat="47.1492" lon="-1.31623">
        <ele>29.691233</ele>
        <time>2020-07-07T16:08:57Z</time>
      </trkpt>
      <trkpt lat="47.14925" lon="-1.31628">
        <ele>28.850988</ele>
        <time>2020-07-07T16:08:59Z</time>
      </trkpt>
      <trkpt lat="47.14931" lon="-1.31633">
        <ele>28.687168</ele>
        <time>2020-07-07T16:09:01Z</time>
      </trkpt>
      <trkpt lat="47.14936" lon="-1.31639">
        <ele>30.692654</ele>
        <time>2020-07-07T16:09:03Z</time>
      </trkpt>
      <trkpt lat="47.14942" lon="-1.31644">
        <ele>31.229034</ele>
        <time>2020-07-07T16:09:05Z</time>
      </trkpt>
      <trkpt lat="47.14949" lon="-1.31647">
        <ele>30.359728</ele>
        <time>2020-07-07T16:09:07Z</time>
      </trkpt>
      <trkpt lat="47.14955" lon="-1.31648">
        <ele>30.17741</ele>
        <time>2020-07-07T16:09:09Z</time>
      </trkpt>
      <trkpt lat="47.14961" lon="-1.31649">
        <ele>29.604036</ele>
        <time>2020-07-07T16:09:11Z</time>
      </trkpt>
      <trkpt lat="47.14967" lon="-1.31647">
        <ele>29.97924</ele>
        <time>2020-07-07T16:09:13Z</time>
      </trkpt>
      <trkpt lat="47.14972" lon="-1.31642">
        <ele>30.52619</ele>
        <time>2020-07-07T16:09:15Z</time>
      </trkpt>
      <trkpt lat="47.14976" lon="-1.31636">
        <ele>30.438995</ele>
        <time>2020-07-07T16:09:17Z</time>
      </trkpt>
      <trkpt lat="47.14981" lon="-1.31629">
        <ele>30.050581</ele>
        <time>2020-07-07T16:09:19Z</time>
      </trkpt>
      <trkpt lat="47.14985" lon="-1.31622">
        <ele>29.781069</ele>
        <time>2020-07-07T16:09:21Z</time>
      </trkpt>
      <trkpt lat="47.1499" lon="-1.31615">
        <ele>29.99245</ele>
        <time>2020-07-07T16:09:23Z</time>
      </trkpt>
      <trkpt lat="47.14994" lon="-1.31608">
        <ele>30.217045</ele>
        <time>2020-07-07T16:09:25Z</time>
      </trkpt>
      <trkpt lat="47.14999" lon="-1.31601">
        <ele>30.232899</ele>
        <time>2020-07-07T16:09:27Z</time>
      </trkpt>
      <trkpt lat="47.15003" lon="-1.31594">
        <ele>30.357084</ele>
        <time>2020-07-07T16:09:29Z</time>
      </trkpt>
      <trkpt lat="47.15007" lon="-1.31588">
        <ele>30.719076</ele>
        <time>2020-07-07T16:09:31Z</time>
      </trkpt>
      <trkpt lat="47.15011" lon="-1.31581">
        <ele>30.539402</ele>
        <time>2020-07-07T16:09:33Z</time>
      </trkpt>
      <trkpt lat="47.15015" lon="-1.31575">
        <ele>31.223751</ele>
        <time>2020-07-07T16:09:35Z</time>
      </trkpt>
      <trkpt lat="47.15019" lon="-1.31569">
        <ele>30.610743</ele>
        <time>2020-07-07T16:09:37Z</time>
      </trkpt>
      <trkpt lat="47.15023" lon="-1.31563">
        <ele>31.651798</ele>
        <time>2020-07-07T16:09:39Z</time>
      </trkpt>
      <trkpt lat="47.15026" lon="-1.31558">
        <ele>31.461555</ele>
        <time>2020-07-07T16:09:41Z</time>
      </trkpt>
      <trkpt lat="47.1503" lon="-1.31553">
        <ele>31.918669</ele>
        <time>2020-07-07T16:09:43Z</time>
      </trkpt>
      <trkpt lat="47.15033" lon="-1.31548">
        <ele>30.808914</ele>
        <time>2020-07-07T16:09:45Z</time>
      </trkpt>
      <trkpt lat="47.15037" lon="-1.31543">
        <ele>31.281881</ele>
        <time>2020-07-07T16:09:47Z</time>
      </trkpt>
      <trkpt lat="47.15041" lon="-1.31538">
        <ele>31.939808</ele>
        <time>2020-07-07T16:09:49Z</time>
      </trkpt>
      <trkpt lat="47.15044" lon="-1.31532">
        <ele>32.214603</ele>
        <time>2020-07-07T16:09:51Z</time>
      </trkpt>
      <trkpt lat="47.15048" lon="-1.31526">
        <ele>32.79062</ele>
        <time>2020-07-07T16:09:53Z</time>
      </trkpt>
      <trkpt lat="47.15052" lon="-1.31521">
        <ele>32.164402</ele>
        <time>2020-07-07T16:09:55Z</time>
      </trkpt>
      <trkpt lat="47.15056" lon="-1.31515">
        <ele>32.320293</ele>
        <time>2020-07-07T16:09:57Z</time>
      </trkpt>
      <trkpt lat="47.1506" lon="-1.31508">
        <ele>33.61765</ele>
        <time>2020-07-07T16:09:59Z</time>
      </trkpt>
      <trkpt lat="47.15065" lon="-1.31501">
        <ele>32.91745</ele>
        <time>2020-07-07T16:10:01Z</time>
      </trkpt>
      <trkpt lat="47.15071" lon="-1.31493">
        <ele>34.338993</ele>
        <time>2020-07-07T16:10:03Z</time>
      </trkpt>
      <trkpt lat="47.15075" lon="-1.31487">
        <ele>32.563385</ele>
        <time>2020-07-07T16:10:05Z</time>
      </trkpt>
      <trkpt lat="47.15078" lon="-1.31481">
        <ele>32.753628</ele>
        <time>2020-07-07T16:10:07Z</time>
      </trkpt>
      <trkpt lat="47.15082" lon="-1.31476">
        <ele>33.424767</ele>
        <time>2020-07-07T16:10:09Z</time>
      </trkpt>
      <trkpt lat="47.15086" lon="-1.3147">
        <ele>32.68493</ele>
        <time>2020-07-07T16:10:11Z</time>
      </trkpt>
      <trkpt lat="47.1509" lon="-1.31464">
        <ele>32.69814</ele>
        <time>2020-07-07T16:10:13Z</time>
      </trkpt>
      <trkpt lat="47.15094" lon="-1.31458">
        <ele>32.795902</ele>
        <time>2020-07-07T16:10:15Z</time>
      </trkpt>
      <trkpt lat="47.15099" lon="-1.31452">
        <ele>32.182896</ele>
        <time>2020-07-07T16:10:17Z</time>
      </trkpt>
      <trkpt lat="47.15102" lon="-1.31446">
        <ele>32.36257</ele>
        <time>2020-07-07T16:10:19Z</time>
      </trkpt>
      <trkpt lat="47.15105" lon="-1.31441">
        <ele>32.785336</ele>
        <time>2020-07-07T16:10:21Z</time>
      </trkpt>
      <trkpt lat="47.15108" lon="-1.31436">
        <ele>32.410133</ele>
        <time>2020-07-07T16:10:23Z</time>
      </trkpt>
      <trkpt lat="47.15111" lon="-1.31431">
        <ele>32.584522</ele>
        <time>2020-07-07T16:10:25Z</time>
      </trkpt>
      <trkpt lat="47.15115" lon="-1.31424">
        <ele>33.22131</ele>
        <time>2020-07-07T16:10:27Z</time>
      </trkpt>
      <trkpt lat="47.1512" lon="-1.31416">
        <ele>32.39692</ele>
        <time>2020-07-07T16:10:29Z</time>
      </trkpt>
      <trkpt lat="47.15125" lon="-1.31408">
        <ele>32.336147</ele>
        <time>2020-07-07T16:10:31Z</time>
      </trkpt>
      <trkpt lat="47.1513" lon="-1.314">
        <ele>33.85017</ele>
        <time>2020-07-07T16:10:33Z</time>
      </trkpt>
      <trkpt lat="47.15134" lon="-1.31393">
        <ele>32.914806</ele>
        <time>2020-07-07T16:10:35Z</time>
      </trkpt>
      <trkpt lat="47.15139" lon="-1.31385">
        <ele>31.445702</ele>
        <time>2020-07-07T16:10:37Z</time>
      </trkpt>
      <trkpt lat="47.15143" lon="-1.31378">
        <ele>32.922733</ele>
        <time>2020-07-07T16:10:39Z</time>
      </trkpt>
      <trkpt lat="47.15148" lon="-1.31371">
        <ele>33.01257</ele>
        <time>2020-07-07T16:10:41Z</time>
      </trkpt>
      <trkpt lat="47.15152" lon="-1.31364">
        <ele>31.75749</ele>
        <time>2020-07-07T16:10:43Z</time>
      </trkpt>
      <trkpt lat="47.15156" lon="-1.31358">
        <ele>32.558098</ele>
        <time>2020-07-07T16:10:45Z</time>
      </trkpt>
      <trkpt lat="47.15159" lon="-1.3135">
        <ele>32.0957</ele>
        <time>2020-07-07T16:10:47Z</time>
      </trkpt>
      <trkpt lat="47.15159" lon="-1.3134">
        <ele>32.021717</ele>
        <time>2020-07-07T16:10:49Z</time>
      </trkpt>
      <trkpt lat="47.15154" lon="-1.31332">
        <ele>32.14062</ele>
        <time>2020-07-07T16:10:51Z</time>
      </trkpt>
      <trkpt lat="47.15149" lon="-1.31325">
        <ele>32.83818</ele>
        <time>2020-07-07T16:10:53Z</time>
      </trkpt>
      <trkpt lat="47.15143" lon="-1.31319">
        <ele>32.439198</ele>
        <time>2020-07-07T16:10:55Z</time>
      </trkpt>
      <trkpt lat="47.15137" lon="-1.31312">
        <ele>32.502613</ele>
        <time>2020-07-07T16:10:57Z</time>
      </trkpt>
      <trkpt lat="47.15131" lon="-1.31305">
        <ele>33.5833</ele>
        <time>2020-07-07T16:10:59Z</time>
      </trkpt>
      <trkpt lat="47.15128" lon="-1.31296">
        <ele>32.877815</ele>
        <time>2020-07-07T16:11:01Z</time>
      </trkpt>
      <trkpt lat="47.15129" lon="-1.31287">
        <ele>31.997936</ele>
        <time>2020-07-07T16:11:03Z</time>
      </trkpt>
      <trkpt lat="47.15133" lon="-1.31277">
        <ele>32.774765</ele>
        <time>2020-07-07T16:11:05Z</time>
      </trkpt>
      <trkpt lat="47.15138" lon="-1.31268">
        <ele>33.2768</ele>
        <time>2020-07-07T16:11:07Z</time>
      </trkpt>
      <trkpt lat="47.15141" lon="-1.31262">
        <ele>33.969074</ele>
        <time>2020-07-07T16:11:08Z</time>
      </trkpt>
      <trkpt lat="47.15145" lon="-1.31251">
        <ele>32.970295</ele>
        <time>2020-07-07T16:11:10Z</time>
      </trkpt>
      <trkpt lat="47.15149" lon="-1.31242">
        <ele>32.877815</ele>
        <time>2020-07-07T16:11:12Z</time>
      </trkpt>
      <trkpt lat="47.15152" lon="-1.31234">
        <ele>33.652</ele>
        <time>2020-07-07T16:11:14Z</time>
      </trkpt>
      <trkpt lat="47.15155" lon="-1.31226">
        <ele>33.00993</ele>
        <time>2020-07-07T16:11:16Z</time>
      </trkpt>
      <trkpt lat="47.15159" lon="-1.31218">
        <ele>33.50932</ele>
        <time>2020-07-07T16:11:18Z</time>
      </trkpt>
      <trkpt lat="47.15163" lon="-1.31211">
        <ele>33.924156</ele>
        <time>2020-07-07T16:11:20Z</time>
      </trkpt>
      <trkpt lat="47.15168" lon="-1.31204">
        <ele>31.89753</ele>
        <time>2020-07-07T16:11:22Z</time>
      </trkpt>
      <trkpt lat="47.15173" lon="-1.31199">
        <ele>33.829033</ele>
        <time>2020-07-07T16:11:24Z</time>
      </trkpt>
      <trkpt lat="47.15179" lon="-1.31196">
        <ele>33.538383</ele>
        <time>2020-07-07T16:11:26Z</time>
      </trkpt>
      <trkpt lat="47.15185" lon="-1.31194">
        <ele>33.038994</ele>
        <time>2020-07-07T16:11:28Z</time>
      </trkpt>
      <trkpt lat="47.15191" lon="-1.31191">
        <ele>33.017853</ele>
        <time>2020-07-07T16:11:30Z</time>
      </trkpt>
      <trkpt lat="47.15198" lon="-1.31186">
        <ele>33.21074</ele>
        <time>2020-07-07T16:11:32Z</time>
      </trkpt>
      <trkpt lat="47.15205" lon="-1.31179">
        <ele>32.415417</ele>
        <time>2020-07-07T16:11:34Z</time>
      </trkpt>
      <trkpt lat="47.15209" lon="-1.31169">
        <ele>33.028423</ele>
        <time>2020-07-07T16:11:36Z</time>
      </trkpt>
      <trkpt lat="47.15213" lon="-1.31158">
        <ele>33.065414</ele>
        <time>2020-07-07T16:11:38Z</time>
      </trkpt>
      <trkpt lat="47.15217" lon="-1.31146">
        <ele>33.144684</ele>
        <time>2020-07-07T16:11:40Z</time>
      </trkpt>
      <trkpt lat="47.1522" lon="-1.31135">
        <ele>34.25444</ele>
        <time>2020-07-07T16:11:42Z</time>
      </trkpt>
      <trkpt lat="47.15224" lon="-1.31124">
        <ele>32.3018</ele>
        <time>2020-07-07T16:11:44Z</time>
      </trkpt>
      <trkpt lat="47.15227" lon="-1.31113">
        <ele>32.753628</ele>
        <time>2020-07-07T16:11:46Z</time>
      </trkpt>
      <trkpt lat="47.15231" lon="-1.31102">
        <ele>32.80119</ele>
        <time>2020-07-07T16:11:48Z</time>
      </trkpt>
      <trkpt lat="47.15234" lon="-1.31092">
        <ele>33.305862</ele>
        <time>2020-07-07T16:11:50Z</time>
      </trkpt>
      <trkpt lat="47.15237" lon="-1.31082">
        <ele>33.22131</ele>
        <time>2020-07-07T16:11:52Z</time>
      </trkpt>
      <trkpt lat="47.15241" lon="-1.31072">
        <ele>32.795902</ele>
        <time>2020-07-07T16:11:54Z</time>
      </trkpt>
      <trkpt lat="47.15245" lon="-1.31063">
        <ele>32.610943</ele>
        <time>2020-07-07T16:11:56Z</time>
      </trkpt>
      <trkpt lat="47.15249" lon="-1.31053">
        <ele>32.724564</ele>
        <time>2020-07-07T16:11:58Z</time>
      </trkpt>
      <trkpt lat="47.15254" lon="-1.31043">
        <ele>32.145905</ele>
        <time>2020-07-07T16:12:00Z</time>
      </trkpt>
      <trkpt lat="47.15259" lon="-1.31033">
        <ele>32.695496</ele>
        <time>2020-07-07T16:12:02Z</time>
      </trkpt>
      <trkpt lat="47.15265" lon="-1.31023">
        <ele>31.982082</ele>
        <time>2020-07-07T16:12:04Z</time>
      </trkpt>
      <trkpt lat="47.1527" lon="-1.31013">
        <ele>31.255459</ele>
        <time>2020-07-07T16:12:06Z</time>
      </trkpt>
      <trkpt lat="47.15273" lon="-1.31007">
        <ele>31.575172</ele>
        <time>2020-07-07T16:12:07Z</time>
      </trkpt>
      <trkpt lat="47.15278" lon="-1.30997">
        <ele>31.178833</ele>
        <time>2020-07-07T16:12:09Z</time>
      </trkpt>
      <trkpt lat="47.15281" lon="-1.30985">
        <ele>30.383507</ele>
        <time>2020-07-07T16:12:11Z</time>
      </trkpt>
      <trkpt lat="47.15282" lon="-1.30973">
        <ele>31.0018</ele>
        <time>2020-07-07T16:12:13Z</time>
      </trkpt>
      <trkpt lat="47.15282" lon="-1.3096">
        <ele>30.822124</ele>
        <time>2020-07-07T16:12:15Z</time>
      </trkpt>
      <trkpt lat="47.15281" lon="-1.30947">
        <ele>31.754848</ele>
        <time>2020-07-07T16:12:17Z</time>
      </trkpt>
      <trkpt lat="47.15281" lon="-1.3094">
        <ele>32.132694</ele>
        <time>2020-07-07T16:12:18Z</time>
      </trkpt>
      <trkpt lat="47.15281" lon="-1.30933">
        <ele>31.844685</ele>
        <time>2020-07-07T16:12:19Z</time>
      </trkpt>
      <trkpt lat="47.15281" lon="-1.30926">
        <ele>31.778627</ele>
        <time>2020-07-07T16:12:20Z</time>
      </trkpt>
      <trkpt lat="47.15281" lon="-1.30918">
        <ele>31.160336</ele>
        <time>2020-07-07T16:12:21Z</time>
      </trkpt>
      <trkpt lat="47.15281" lon="-1.3091">
        <ele>31.435133</ele>
        <time>2020-07-07T16:12:22Z</time>
      </trkpt>
      <trkpt lat="47.15281" lon="-1.30903">
        <ele>31.802408</ele>
        <time>2020-07-07T16:12:23Z</time>
      </trkpt>
      <trkpt lat="47.15281" lon="-1.30895">
        <ele>32.00322</ele>
        <time>2020-07-07T16:12:24Z</time>
      </trkpt>
      <trkpt lat="47.15281" lon="-1.30887">
        <ele>32.03757</ele>
        <time>2020-07-07T16:12:25Z</time>
      </trkpt>
      <trkpt lat="47.15281" lon="-1.30879">
        <ele>31.99001</ele>
        <time>2020-07-07T16:12:26Z</time>
      </trkpt>
      <trkpt lat="47.1528" lon="-1.30871">
        <ele>31.892246</ele>
        <time>2020-07-07T16:12:27Z</time>
      </trkpt>
      <trkpt lat="47.15279" lon="-1.30863">
        <ele>32.262165</ele>
        <time>2020-07-07T16:12:28Z</time>
      </trkpt>
      <trkpt lat="47.15279" lon="-1.30855">
        <ele>31.69936</ele>
        <time>2020-07-07T16:12:29Z</time>
      </trkpt>
      <trkpt lat="47.15278" lon="-1.30847">
        <ele>32.248955</ele>
        <time>2020-07-07T16:12:30Z</time>
      </trkpt>
      <trkpt lat="47.15276" lon="-1.30839">
        <ele>31.963587</ele>
        <time>2020-07-07T16:12:31Z</time>
      </trkpt>
      <trkpt lat="47.15274" lon="-1.30831">
        <ele>32.98615</ele>
        <time>2020-07-07T16:12:32Z</time>
      </trkpt>
      <trkpt lat="47.15273" lon="-1.30824">
        <ele>32.25424</ele>
        <time>2020-07-07T16:12:33Z</time>
      </trkpt>
      <trkpt lat="47.15271" lon="-1.30816">
        <ele>32.46298</ele>
        <time>2020-07-07T16:12:34Z</time>
      </trkpt>
      <trkpt lat="47.15268" lon="-1.30808">
        <ele>32.96765</ele>
        <time>2020-07-07T16:12:35Z</time>
      </trkpt>
      <trkpt lat="47.15266" lon="-1.30801">
        <ele>32.452408</ele>
        <time>2020-07-07T16:12:36Z</time>
      </trkpt>
      <trkpt lat="47.15263" lon="-1.30793">
        <ele>33.580658</ele>
        <time>2020-07-07T16:12:37Z</time>
      </trkpt>
      <trkpt lat="47.15261" lon="-1.30786">
        <ele>33.017853</ele>
        <time>2020-07-07T16:12:38Z</time>
      </trkpt>
      <trkpt lat="47.15258" lon="-1.30779">
        <ele>32.275375</ele>
        <time>2020-07-07T16:12:39Z</time>
      </trkpt>
      <trkpt lat="47.15256" lon="-1.30771">
        <ele>33.445904</ele>
        <time>2020-07-07T16:12:40Z</time>
      </trkpt>
      <trkpt lat="47.15253" lon="-1.30765">
        <ele>32.425987</ele>
        <time>2020-07-07T16:12:41Z</time>
      </trkpt>
      <trkpt lat="47.15251" lon="-1.30758">
        <ele>31.812977</ele>
        <time>2020-07-07T16:12:42Z</time>
      </trkpt>
      <trkpt lat="47.15249" lon="-1.30752">
        <ele>32.68493</ele>
        <time>2020-07-07T16:12:43Z</time>
      </trkpt>
      <trkpt lat="47.15247" lon="-1.30746">
        <ele>31.509117</ele>
        <time>2020-07-07T16:12:44Z</time>
      </trkpt>
      <trkpt lat="47.15245" lon="-1.3074">
        <ele>32.492043</ele>
        <time>2020-07-07T16:12:45Z</time>
      </trkpt>
      <trkpt lat="47.15242" lon="-1.30734">
        <ele>33.10241</ele>
        <time>2020-07-07T16:12:46Z</time>
      </trkpt>
      <trkpt lat="47.15239" lon="-1.30723">
        <ele>32.529034</ele>
        <time>2020-07-07T16:12:48Z</time>
      </trkpt>
      <trkpt lat="47.15235" lon="-1.30712">
        <ele>31.273954</ele>
        <time>2020-07-07T16:12:50Z</time>
      </trkpt>
      <trkpt lat="47.15232" lon="-1.30702">
        <ele>32.25952</ele>
        <time>2020-07-07T16:12:52Z</time>
      </trkpt>
      <trkpt lat="47.15234" lon="-1.30692">
        <ele>31.852612</ele>
        <time>2020-07-07T16:12:54Z</time>
      </trkpt>
      <trkpt lat="47.15239" lon="-1.30684">
        <ele>31.971514</ele>
        <time>2020-07-07T16:12:56Z</time>
      </trkpt>
      <trkpt lat="47.15244" lon="-1.30677">
        <ele>31.181475</ele>
        <time>2020-07-07T16:12:58Z</time>
      </trkpt>
      <trkpt lat="47.1525" lon="-1.3067">
        <ele>32.05871</ele>
        <time>2020-07-07T16:13:00Z</time>
      </trkpt>
      <trkpt lat="47.15257" lon="-1.30662">
        <ele>32.37314</ele>
        <time>2020-07-07T16:13:02Z</time>
      </trkpt>
      <trkpt lat="47.1526" lon="-1.30657">
        <ele>31.939808</ele>
        <time>2020-07-07T16:13:03Z</time>
      </trkpt>
      <trkpt lat="47.15264" lon="-1.30652">
        <ele>32.502613</ele>
        <time>2020-07-07T16:13:04Z</time>
      </trkpt>
      <trkpt lat="47.15268" lon="-1.30648">
        <ele>32.0957</ele>
        <time>2020-07-07T16:13:05Z</time>
      </trkpt>
      <trkpt lat="47.15271" lon="-1.30643">
        <ele>31.575172</ele>
        <time>2020-07-07T16:13:06Z</time>
      </trkpt>
      <trkpt lat="47.15275" lon="-1.30637">
        <ele>32.18554</ele>
        <time>2020-07-07T16:13:07Z</time>
      </trkpt>
      <trkpt lat="47.15279" lon="-1.30632">
        <ele>31.57253</ele>
        <time>2020-07-07T16:13:08Z</time>
      </trkpt>
      <trkpt lat="47.15282" lon="-1.30626">
        <ele>31.728424</ele>
        <time>2020-07-07T16:13:09Z</time>
      </trkpt>
      <trkpt lat="47.15286" lon="-1.30619">
        <ele>31.638588</ele>
        <time>2020-07-07T16:13:10Z</time>
      </trkpt>
      <trkpt lat="47.15288" lon="-1.30612">
        <ele>31.44306</ele>
        <time>2020-07-07T16:13:11Z</time>
      </trkpt>
      <trkpt lat="47.15291" lon="-1.30604">
        <ele>31.453629</ele>
        <time>2020-07-07T16:13:12Z</time>
      </trkpt>
      <trkpt lat="47.15294" lon="-1.30597">
        <ele>31.120703</ele>
        <time>2020-07-07T16:13:13Z</time>
      </trkpt>
      <trkpt lat="47.15297" lon="-1.30589">
        <ele>31.429848</ele>
        <time>2020-07-07T16:13:14Z</time>
      </trkpt>
      <trkpt lat="47.15299" lon="-1.30581">
        <ele>30.970093</ele>
        <time>2020-07-07T16:13:15Z</time>
      </trkpt>
      <trkpt lat="47.15302" lon="-1.30573">
        <ele>31.170906</ele>
        <time>2020-07-07T16:13:16Z</time>
      </trkpt>
      <trkpt lat="47.15305" lon="-1.30565">
        <ele>31.057287</ele>
        <time>2020-07-07T16:13:17Z</time>
      </trkpt>
      <trkpt lat="47.15308" lon="-1.30558">
        <ele>30.576393</ele>
        <time>2020-07-07T16:13:18Z</time>
      </trkpt>
      <trkpt lat="47.1531" lon="-1.30551">
        <ele>30.980661</ele>
        <time>2020-07-07T16:13:19Z</time>
      </trkpt>
      <trkpt lat="47.15313" lon="-1.30543">
        <ele>29.625175</ele>
        <time>2020-07-07T16:13:20Z</time>
      </trkpt>
      <trkpt lat="47.15316" lon="-1.30536">
        <ele>30.150988</ele>
        <time>2020-07-07T16:13:21Z</time>
      </trkpt>
      <trkpt lat="47.15318" lon="-1.30528">
        <ele>30.040012</ele>
        <time>2020-07-07T16:13:22Z</time>
      </trkpt>
      <trkpt lat="47.15321" lon="-1.30521">
        <ele>30.275175</ele>
        <time>2020-07-07T16:13:23Z</time>
      </trkpt>
      <trkpt lat="47.15323" lon="-1.30513">
        <ele>29.915825</ele>
        <time>2020-07-07T16:13:24Z</time>
      </trkpt>
      <trkpt lat="47.15326" lon="-1.30506">
        <ele>29.207695</ele>
        <time>2020-07-07T16:13:25Z</time>
      </trkpt>
      <trkpt lat="47.15329" lon="-1.30499">
        <ele>30.272532</ele>
        <time>2020-07-07T16:13:26Z</time>
      </trkpt>
      <trkpt lat="47.15331" lon="-1.30492">
        <ele>29.704443</ele>
        <time>2020-07-07T16:13:27Z</time>
      </trkpt>
      <trkpt lat="47.15334" lon="-1.30485">
        <ele>29.226192</ele>
        <time>2020-07-07T16:13:28Z</time>
      </trkpt>
      <trkpt lat="47.15336" lon="-1.30478">
        <ele>29.23412</ele>
        <time>2020-07-07T16:13:29Z</time>
      </trkpt>
      <trkpt lat="47.15338" lon="-1.30471">
        <ele>28.837778</ele>
        <time>2020-07-07T16:13:30Z</time>
      </trkpt>
      <trkpt lat="47.1534" lon="-1.30465">
        <ele>28.893265</ele>
        <time>2020-07-07T16:13:31Z</time>
      </trkpt>
      <trkpt lat="47.15342" lon="-1.30458">
        <ele>29.704443</ele>
        <time>2020-07-07T16:13:32Z</time>
      </trkpt>
      <trkpt lat="47.15345" lon="-1.30452">
        <ele>31.797125</ele>
        <time>2020-07-07T16:13:33Z</time>
      </trkpt>
      <trkpt lat="47.15346" lon="-1.30444">
        <ele>30.217045</ele>
        <time>2020-07-07T16:13:34Z</time>
      </trkpt>
      <trkpt lat="47.15347" lon="-1.30437">
        <ele>28.906477</ele>
        <time>2020-07-07T16:13:35Z</time>
      </trkpt>
      <trkpt lat="47.15348" lon="-1.3043">
        <ele>29.15485</ele>
        <time>2020-07-07T16:13:36Z</time>
      </trkpt>
      <trkpt lat="47.1535" lon="-1.30423">
        <ele>28.681883</ele>
        <time>2020-07-07T16:13:37Z</time>
      </trkpt>
      <trkpt lat="47.15352" lon="-1.30416">
        <ele>30.161556</ele>
        <time>2020-07-07T16:13:38Z</time>
      </trkpt>
      <trkpt lat="47.15355" lon="-1.30409">
        <ele>30.016232</ele>
        <time>2020-07-07T16:13:39Z</time>
      </trkpt>
      <trkpt lat="47.15357" lon="-1.30402">
        <ele>29.849768</ele>
        <time>2020-07-07T16:13:40Z</time>
      </trkpt>
      <trkpt lat="47.1536" lon="-1.30396">
        <ele>30.367655</ele>
        <time>2020-07-07T16:13:41Z</time>
      </trkpt>
      <trkpt lat="47.15363" lon="-1.30389">
        <ele>30.240826</ele>
        <time>2020-07-07T16:13:42Z</time>
      </trkpt>
      <trkpt lat="47.15366" lon="-1.30382">
        <ele>30.9331</ele>
        <time>2020-07-07T16:13:43Z</time>
      </trkpt>
      <trkpt lat="47.15369" lon="-1.30376">
        <ele>30.370296</ele>
        <time>2020-07-07T16:13:44Z</time>
      </trkpt>
      <trkpt lat="47.15371" lon="-1.30369">
        <ele>31.297735</ele>
        <time>2020-07-07T16:13:45Z</time>
      </trkpt>
      <trkpt lat="47.15374" lon="-1.30363">
        <ele>31.007084</ele>
        <time>2020-07-07T16:13:46Z</time>
      </trkpt>
      <trkpt lat="47.15377" lon="-1.30356">
        <ele>31.519686</ele>
        <time>2020-07-07T16:13:47Z</time>
      </trkpt>
      <trkpt lat="47.1538" lon="-1.30349">
        <ele>31.104849</ele>
        <time>2020-07-07T16:13:48Z</time>
      </trkpt>
      <trkpt lat="47.15382" lon="-1.30343">
        <ele>31.41928</ele>
        <time>2020-07-07T16:13:49Z</time>
      </trkpt>
      <trkpt lat="47.15385" lon="-1.30336">
        <ele>31.810335</ele>
        <time>2020-07-07T16:13:50Z</time>
      </trkpt>
      <trkpt lat="47.15387" lon="-1.3033">
        <ele>29.345095</ele>
        <time>2020-07-07T16:13:51Z</time>
      </trkpt>
      <trkpt lat="47.1539" lon="-1.30324">
        <ele>32.69814</ele>
        <time>2020-07-07T16:13:52Z</time>
      </trkpt>
      <trkpt lat="47.15395" lon="-1.30313">
        <ele>30.10607</ele>
        <time>2020-07-07T16:13:54Z</time>
      </trkpt>
      <trkpt lat="47.15399" lon="-1.30303">
        <ele>29.482492</ele>
        <time>2020-07-07T16:13:56Z</time>
      </trkpt>
      <trkpt lat="47.15403" lon="-1.30294">
        <ele>30.73493</ele>
        <time>2020-07-07T16:13:58Z</time>
      </trkpt>
      <trkpt lat="47.15406" lon="-1.30284">
        <ele>30.402004</ele>
        <time>2020-07-07T16:14:00Z</time>
      </trkpt>
      <trkpt lat="47.15409" lon="-1.30275">
        <ele>29.913183</ele>
        <time>2020-07-07T16:14:02Z</time>
      </trkpt>
      <trkpt lat="47.15413" lon="-1.30264">
        <ele>30.555256</ele>
        <time>2020-07-07T16:14:04Z</time>
      </trkpt>
      <trkpt lat="47.15416" lon="-1.30253">
        <ele>29.588182</ele>
        <time>2020-07-07T16:14:06Z</time>
      </trkpt>
      <trkpt lat="47.15419" lon="-1.30248">
        <ele>29.99245</ele>
        <time>2020-07-07T16:14:07Z</time>
      </trkpt>
      <trkpt lat="47.15422" lon="-1.30236">
        <ele>28.650175</ele>
        <time>2020-07-07T16:14:09Z</time>
      </trkpt>
      <trkpt lat="47.15426" lon="-1.30225">
        <ele>30.431068</ele>
        <time>2020-07-07T16:14:11Z</time>
      </trkpt>
      <trkpt lat="47.15429" lon="-1.30214">
        <ele>28.755867</ele>
        <time>2020-07-07T16:14:13Z</time>
      </trkpt>
      <trkpt lat="47.15433" lon="-1.30203">
        <ele>30.161556</ele>
        <time>2020-07-07T16:14:15Z</time>
      </trkpt>
      <trkpt lat="47.15437" lon="-1.30192">
        <ele>29.183916</ele>
        <time>2020-07-07T16:14:17Z</time>
      </trkpt>
      <trkpt lat="47.1544" lon="-1.30181">
        <ele>28.967249</ele>
        <time>2020-07-07T16:14:19Z</time>
      </trkpt>
      <trkpt lat="47.15444" lon="-1.3017">
        <ele>29.054443</ele>
        <time>2020-07-07T16:14:21Z</time>
      </trkpt>
      <trkpt lat="47.15446" lon="-1.30164">
        <ele>28.145502</ele>
        <time>2020-07-07T16:14:22Z</time>
      </trkpt>
      <trkpt lat="47.15447" lon="-1.30158">
        <ele>28.964607</ele>
        <time>2020-07-07T16:14:23Z</time>
      </trkpt>
      <trkpt lat="47.1545" lon="-1.30151">
        <ele>29.50363</ele>
        <time>2020-07-07T16:14:24Z</time>
      </trkpt>
      <trkpt lat="47.15451" lon="-1.30145">
        <ele>29.593468</ele>
        <time>2020-07-07T16:14:25Z</time>
      </trkpt>
      <trkpt lat="47.15453" lon="-1.30139">
        <ele>29.13107</ele>
        <time>2020-07-07T16:14:26Z</time>
      </trkpt>
      <trkpt lat="47.15455" lon="-1.30132">
        <ele>28.666029</ele>
        <time>2020-07-07T16:14:27Z</time>
      </trkpt>
      <trkpt lat="47.15457" lon="-1.30126">
        <ele>28.924973</ele>
        <time>2020-07-07T16:14:28Z</time>
      </trkpt>
      <trkpt lat="47.15461" lon="-1.30115">
        <ele>29.138996</ele>
        <time>2020-07-07T16:14:30Z</time>
      </trkpt>
      <trkpt lat="47.15464" lon="-1.30104">
        <ele>28.914404</ele>
        <time>2020-07-07T16:14:32Z</time>
      </trkpt>
      <trkpt lat="47.15468" lon="-1.30094">
        <ele>28.63168</ele>
        <time>2020-07-07T16:14:34Z</time>
      </trkpt>
      <trkpt lat="47.15472" lon="-1.30083">
        <ele>28.650175</ele>
        <time>2020-07-07T16:14:36Z</time>
      </trkpt>
      <trkpt lat="47.15476" lon="-1.30072">
        <ele>28.92233</ele>
        <time>2020-07-07T16:14:38Z</time>
      </trkpt>
      <trkpt lat="47.15479" lon="-1.30061">
        <ele>28.816639</ele>
        <time>2020-07-07T16:14:40Z</time>
      </trkpt>
      <trkpt lat="47.15483" lon="-1.30052">
        <ele>27.979038</ele>
        <time>2020-07-07T16:14:42Z</time>
      </trkpt>
      <trkpt lat="47.15484" lon="-1.30039">
        <ele>27.902412</ele>
        <time>2020-07-07T16:14:44Z</time>
      </trkpt>
      <trkpt lat="47.15481" lon="-1.30028">
        <ele>28.59733</ele>
        <time>2020-07-07T16:14:46Z</time>
      </trkpt>
      <trkpt lat="47.15477" lon="-1.30018">
        <ele>28.235338</ele>
        <time>2020-07-07T16:14:48Z</time>
      </trkpt>
      <trkpt lat="47.15472" lon="-1.30007">
        <ele>28.552412</ele>
        <time>2020-07-07T16:14:49Z</time>
      </trkpt>
      <trkpt lat="47.15467" lon="-1.29997">
        <ele>29.273752</ele>
        <time>2020-07-07T16:14:51Z</time>
      </trkpt>
      <trkpt lat="47.15463" lon="-1.29986">
        <ele>28.91176</ele>
        <time>2020-07-07T16:14:53Z</time>
      </trkpt>
      <trkpt lat="47.1546" lon="-1.29974">
        <ele>28.880054</ele>
        <time>2020-07-07T16:14:56Z</time>
      </trkpt>
      <trkpt lat="47.15458" lon="-1.29963">
        <ele>28.660746</ele>
        <time>2020-07-07T16:14:57Z</time>
      </trkpt>
      <trkpt lat="47.15456" lon="-1.29953">
        <ele>29.112574</ele>
        <time>2020-07-07T16:15:00Z</time>
      </trkpt>
      <trkpt lat="47.15455" lon="-1.29937">
        <ele>30.103426</ele>
        <time>2020-07-07T16:15:02Z</time>
      </trkpt>
      <trkpt lat="47.15454" lon="-1.29921">
        <ele>29.56176</ele>
        <time>2020-07-07T16:15:05Z</time>
      </trkpt>
      <trkpt lat="47.15453" lon="-1.2991">
        <ele>30.238182</ele>
        <time>2020-07-07T16:15:08Z</time>
      </trkpt>
      <trkpt lat="47.15453" lon="-1.29894">
        <ele>30.187979</ele>
        <time>2020-07-07T16:15:10Z</time>
      </trkpt>
      <trkpt lat="47.15453" lon="-1.29879">
        <ele>30.145702</ele>
        <time>2020-07-07T16:15:13Z</time>
      </trkpt>
      <trkpt lat="47.15451" lon="-1.29866">
        <ele>29.907898</ele>
        <time>2020-07-07T16:15:16Z</time>
      </trkpt>
      <trkpt lat="47.1545" lon="-1.29858">
        <ele>30.150988</ele>
        <time>2020-07-07T16:15:18Z</time>
      </trkpt>
      <trkpt lat="47.15448" lon="-1.29848">
        <ele>30.703222</ele>
        <time>2020-07-07T16:15:20Z</time>
      </trkpt>
      <trkpt lat="47.15446" lon="-1.29839">
        <ele>31.09428</ele>
        <time>2020-07-07T16:15:22Z</time>
      </trkpt>
      <trkpt lat="47.15443" lon="-1.2983">
        <ele>30.359728</ele>
        <time>2020-07-07T16:15:24Z</time>
      </trkpt>
      <trkpt lat="47.15441" lon="-1.2982">
        <ele>29.61989</ele>
        <time>2020-07-07T16:15:26Z</time>
      </trkpt>
      <trkpt lat="47.15438" lon="-1.2981">
        <ele>30.716434</ele>
        <time>2020-07-07T16:15:28Z</time>
      </trkpt>
      <trkpt lat="47.15435" lon="-1.29801">
        <ele>30.882896</ele>
        <time>2020-07-07T16:15:30Z</time>
      </trkpt>
      <trkpt lat="47.15432" lon="-1.29791">
        <ele>29.833914</ele>
        <time>2020-07-07T16:15:32Z</time>
      </trkpt>
      <trkpt lat="47.15429" lon="-1.29781">
        <ele>31.725782</ele>
        <time>2020-07-07T16:15:34Z</time>
      </trkpt>
      <trkpt lat="47.15425" lon="-1.29772">
        <ele>30.819483</ele>
        <time>2020-07-07T16:15:36Z</time>
      </trkpt>
      <trkpt lat="47.15422" lon="-1.29763">
        <ele>31.131271</ele>
        <time>2020-07-07T16:15:38Z</time>
      </trkpt>
      <trkpt lat="47.15418" lon="-1.29754">
        <ele>30.71115</ele>
        <time>2020-07-07T16:15:40Z</time>
      </trkpt>
      <trkpt lat="47.15415" lon="-1.29745">
        <ele>31.659725</ele>
        <time>2020-07-07T16:15:42Z</time>
      </trkpt>
      <trkpt lat="47.15413" lon="-1.29737">
        <ele>30.9331</ele>
        <time>2020-07-07T16:15:44Z</time>
      </trkpt>
      <trkpt lat="47.15411" lon="-1.29729">
        <ele>31.670296</ele>
        <time>2020-07-07T16:15:46Z</time>
      </trkpt>
      <trkpt lat="47.15409" lon="-1.29721">
        <ele>31.35058</ele>
        <time>2020-07-07T16:15:48Z</time>
      </trkpt>
      <trkpt lat="47.15408" lon="-1.29712">
        <ele>32.423344</ele>
        <time>2020-07-07T16:15:50Z</time>
      </trkpt>
      <trkpt lat="47.15408" lon="-1.29703">
        <ele>32.11948</ele>
        <time>2020-07-07T16:15:52Z</time>
      </trkpt>
      <trkpt lat="47.15411" lon="-1.2969">
        <ele>32.09306</ele>
        <time>2020-07-07T16:15:55Z</time>
      </trkpt>
      <trkpt lat="47.15414" lon="-1.29683">
        <ele>32.497326</ele>
        <time>2020-07-07T16:15:57Z</time>
      </trkpt>
      <trkpt lat="47.15417" lon="-1.29675">
        <ele>32.782692</ele>
        <time>2020-07-07T16:15:59Z</time>
      </trkpt>
      <trkpt lat="47.15422" lon="-1.29669">
        <ele>33.086555</ele>
        <time>2020-07-07T16:16:01Z</time>
      </trkpt>
      <trkpt lat="47.15426" lon="-1.29664">
        <ele>32.127407</ele>
        <time>2020-07-07T16:16:03Z</time>
      </trkpt>
      <trkpt lat="47.1543" lon="-1.29658">
        <ele>30.779848</ele>
        <time>2020-07-07T16:16:05Z</time>
      </trkpt>
      <trkpt lat="47.15434" lon="-1.29653">
        <ele>32.11948</ele>
        <time>2020-07-07T16:16:07Z</time>
      </trkpt>
      <trkpt lat="47.15438" lon="-1.29649">
        <ele>32.09306</ele>
        <time>2020-07-07T16:16:09Z</time>
      </trkpt>
      <trkpt lat="47.15442" lon="-1.29645">
        <ele>31.717855</ele>
        <time>2020-07-07T16:16:11Z</time>
      </trkpt>
      <trkpt lat="47.15447" lon="-1.29639">
        <ele>32.225174</ele>
        <time>2020-07-07T16:16:13Z</time>
      </trkpt>
      <trkpt lat="47.15452" lon="-1.29634">
        <ele>32.230457</ele>
        <time>2020-07-07T16:16:15Z</time>
      </trkpt>
      <trkpt lat="47.15458" lon="-1.29627">
        <ele>32.85139</ele>
        <time>2020-07-07T16:16:17Z</time>
      </trkpt>
      <trkpt lat="47.15464" lon="-1.29622">
        <ele>32.4894</ele>
        <time>2020-07-07T16:16:19Z</time>
      </trkpt>
      <trkpt lat="47.15469" lon="-1.29615">
        <ele>31.950377</ele>
        <time>2020-07-07T16:16:21Z</time>
      </trkpt>
      <trkpt lat="47.15476" lon="-1.29609">
        <ele>32.05607</ele>
        <time>2020-07-07T16:16:23Z</time>
      </trkpt>
      <trkpt lat="47.15482" lon="-1.29602">
        <ele>32.225174</ele>
        <time>2020-07-07T16:16:25Z</time>
      </trkpt>
      <trkpt lat="47.15489" lon="-1.29595">
        <ele>32.724564</ele>
        <time>2020-07-07T16:16:27Z</time>
      </trkpt>
      <trkpt lat="47.15495" lon="-1.29589">
        <ele>31.947733</ele>
        <time>2020-07-07T16:16:29Z</time>
      </trkpt>
      <trkpt lat="47.15501" lon="-1.29582">
        <ele>32.275375</ele>
        <time>2020-07-07T16:16:31Z</time>
      </trkpt>
      <trkpt lat="47.15506" lon="-1.29576">
        <ele>31.321514</ele>
        <time>2020-07-07T16:16:33Z</time>
      </trkpt>
      <trkpt lat="47.15513" lon="-1.29574">
        <ele>32.52639</ele>
        <time>2020-07-07T16:16:35Z</time>
      </trkpt>
      <trkpt lat="47.15521" lon="-1.29575">
        <ele>32.70871</ele>
        <time>2020-07-07T16:16:37Z</time>
      </trkpt>
      <trkpt lat="47.15528" lon="-1.29579">
        <ele>32.637367</ele>
        <time>2020-07-07T16:16:39Z</time>
      </trkpt>
      <trkpt lat="47.15535" lon="-1.29584">
        <ele>33.311146</ele>
        <time>2020-07-07T16:16:41Z</time>
      </trkpt>
      <trkpt lat="47.15541" lon="-1.29588">
        <ele>32.86989</ele>
        <time>2020-07-07T16:16:43Z</time>
      </trkpt>
      <trkpt lat="47.15547" lon="-1.29591">
        <ele>33.40627</ele>
        <time>2020-07-07T16:16:45Z</time>
      </trkpt>
      <trkpt lat="47.15552" lon="-1.29594">
        <ele>34.109116</ele>
        <time>2020-07-07T16:16:47Z</time>
      </trkpt>
      <trkpt lat="47.15557" lon="-1.29596">
        <ele>34.801388</ele>
        <time>2020-07-07T16:16:49Z</time>
      </trkpt>
      <trkpt lat="47.15562" lon="-1.29597">
        <ele>34.864803</ele>
        <time>2020-07-07T16:16:51Z</time>
      </trkpt>
      <trkpt lat="47.15567" lon="-1.29599">
        <ele>34.513382</ele>
        <time>2020-07-07T16:16:53Z</time>
      </trkpt>
      <trkpt lat="47.15573" lon="-1.296">
        <ele>35.15017</ele>
        <time>2020-07-07T16:16:55Z</time>
      </trkpt>
      <trkpt lat="47.15579" lon="-1.29601">
        <ele>34.933502</ele>
        <time>2020-07-07T16:16:57Z</time>
      </trkpt>
      <trkpt lat="47.15584" lon="-1.29602">
        <ele>35.31663</ele>
        <time>2020-07-07T16:16:59Z</time>
      </trkpt>
      <trkpt lat="47.15589" lon="-1.29602">
        <ele>35.298138</ele>
        <time>2020-07-07T16:17:01Z</time>
      </trkpt>
      <trkpt lat="47.15595" lon="-1.29602">
        <ele>35.786957</ele>
        <time>2020-07-07T16:17:03Z</time>
      </trkpt>
      <trkpt lat="47.15599" lon="-1.29601">
        <ele>34.96521</ele>
        <time>2020-07-07T16:17:05Z</time>
      </trkpt>
      <trkpt lat="47.15604" lon="-1.296">
        <ele>36.008907</ele>
        <time>2020-07-07T16:17:07Z</time>
      </trkpt>
      <trkpt lat="47.15609" lon="-1.29599">
        <ele>35.818665</ele>
        <time>2020-07-07T16:17:09Z</time>
      </trkpt>
      <trkpt lat="47.15614" lon="-1.29598">
        <ele>36.89143</ele>
        <time>2020-07-07T16:17:11Z</time>
      </trkpt>
      <trkpt lat="47.15618" lon="-1.29596">
        <ele>36.915207</ele>
        <time>2020-07-07T16:17:13Z</time>
      </trkpt>
      <trkpt lat="47.15623" lon="-1.29595">
        <ele>36.008907</ele>
        <time>2020-07-07T16:17:15Z</time>
      </trkpt>
      <trkpt lat="47.15628" lon="-1.29593">
        <ele>37.028828</ele>
        <time>2020-07-07T16:17:17Z</time>
      </trkpt>
      <trkpt lat="47.15633" lon="-1.29591">
        <ele>37.45423</ele>
        <time>2020-07-07T16:17:19Z</time>
      </trkpt>
      <trkpt lat="47.1564" lon="-1.29589">
        <ele>37.306267</ele>
        <time>2020-07-07T16:17:22Z</time>
      </trkpt>
      <trkpt lat="47.15645" lon="-1.29587">
        <ele>36.99976</ele>
        <time>2020-07-07T16:17:24Z</time>
      </trkpt>
      <trkpt lat="47.1565" lon="-1.29585">
        <ele>37.406673</ele>
        <time>2020-07-07T16:17:26Z</time>
      </trkpt>
      <trkpt lat="47.15656" lon="-1.29583">
        <ele>37.6022</ele>
        <time>2020-07-07T16:17:29Z</time>
      </trkpt>
      <trkpt lat="47.15661" lon="-1.29581">
        <ele>37.285126</ele>
        <time>2020-07-07T16:17:31Z</time>
      </trkpt>
      <trkpt lat="47.15667" lon="-1.29579">
        <ele>37.62598</ele>
        <time>2020-07-07T16:17:33Z</time>
      </trkpt>
      <trkpt lat="47.15673" lon="-1.29578">
        <ele>37.04732</ele>
        <time>2020-07-07T16:17:35Z</time>
      </trkpt>
      <trkpt lat="47.15678" lon="-1.29575">
        <ele>36.48452</ele>
        <time>2020-07-07T16:17:37Z</time>
      </trkpt>
      <trkpt lat="47.15684" lon="-1.29573">
        <ele>37.92984</ele>
        <time>2020-07-07T16:17:39Z</time>
      </trkpt>
      <trkpt lat="47.1569" lon="-1.2957">
        <ele>38.40281</ele>
        <time>2020-07-07T16:17:41Z</time>
      </trkpt>
      <trkpt lat="47.15695" lon="-1.29566">
        <ele>36.286346</ele>
        <time>2020-07-07T16:17:43Z</time>
      </trkpt>
      <trkpt lat="47.15701" lon="-1.29562">
        <ele>35.956062</ele>
        <time>2020-07-07T16:17:45Z</time>
      </trkpt>
      <trkpt lat="47.15707" lon="-1.29557">
        <ele>36.267853</ele>
        <time>2020-07-07T16:17:47Z</time>
      </trkpt>
      <trkpt lat="47.15714" lon="-1.2955">
        <ele>35.060333</ele>
        <time>2020-07-07T16:17:49Z</time>
      </trkpt>
      <trkpt lat="47.15721" lon="-1.29543">
        <ele>34.1646</ele>
        <time>2020-07-07T16:17:51Z</time>
      </trkpt>
      <trkpt lat="47.15725" lon="-1.29538">
        <ele>35.023342</ele>
        <time>2020-07-07T16:17:52Z</time>
      </trkpt>
      <trkpt lat="47.15728" lon="-1.29534">
        <ele>34.89651</ele>
        <time>2020-07-07T16:17:53Z</time>
      </trkpt>
      <trkpt lat="47.15732" lon="-1.29529">
        <ele>34.724762</ele>
        <time>2020-07-07T16:17:54Z</time>
      </trkpt>
      <trkpt lat="47.15736" lon="-1.29524">
        <ele>34.669277</ele>
        <time>2020-07-07T16:17:55Z</time>
      </trkpt>
      <trkpt lat="47.15741" lon="-1.29519">
        <ele>35.076187</ele>
        <time>2020-07-07T16:17:56Z</time>
      </trkpt>
      <trkpt lat="47.15746" lon="-1.29514">
        <ele>34.53188</ele>
        <time>2020-07-07T16:17:57Z</time>
      </trkpt>
      <trkpt lat="47.15751" lon="-1.29508">
        <ele>34.904438</ele>
        <time>2020-07-07T16:17:58Z</time>
      </trkpt>
      <trkpt lat="47.15756" lon="-1.29503">
        <ele>34.098545</ele>
        <time>2020-07-07T16:17:59Z</time>
      </trkpt>
      <trkpt lat="47.1576" lon="-1.29497">
        <ele>33.96643</ele>
        <time>2020-07-07T16:18:00Z</time>
      </trkpt>
      <trkpt lat="47.15766" lon="-1.29492">
        <ele>33.622936</ele>
        <time>2020-07-07T16:18:01Z</time>
      </trkpt>
      <trkpt lat="47.15771" lon="-1.29488">
        <ele>33.52253</ele>
        <time>2020-07-07T16:18:02Z</time>
      </trkpt>
      <trkpt lat="47.15776" lon="-1.29484">
        <ele>34.214806</ele>
        <time>2020-07-07T16:18:03Z</time>
      </trkpt>
      <trkpt lat="47.15781" lon="-1.2948">
        <ele>33.28208</ele>
        <time>2020-07-07T16:18:04Z</time>
      </trkpt>
      <trkpt lat="47.15786" lon="-1.29477">
        <ele>33.342854</ele>
        <time>2020-07-07T16:18:05Z</time>
      </trkpt>
      <trkpt lat="47.15791" lon="-1.29474">
        <ele>33.002003</ele>
        <time>2020-07-07T16:18:06Z</time>
      </trkpt>
      <trkpt lat="47.15796" lon="-1.29471">
        <ele>31.752205</ele>
        <time>2020-07-07T16:18:07Z</time>
      </trkpt>
      <trkpt lat="47.15801" lon="-1.29469">
        <ele>32.69814</ele>
        <time>2020-07-07T16:18:08Z</time>
      </trkpt>
      <trkpt lat="47.15805" lon="-1.29466">
        <ele>32.3018</ele>
        <time>2020-07-07T16:18:09Z</time>
      </trkpt>
      <trkpt lat="47.15809" lon="-1.29464">
        <ele>32.39692</ele>
        <time>2020-07-07T16:18:10Z</time>
      </trkpt>
      <trkpt lat="47.15817" lon="-1.29459">
        <ele>32.67172</ele>
        <time>2020-07-07T16:18:12Z</time>
      </trkpt>
      <trkpt lat="47.15823" lon="-1.29455">
        <ele>32.06135</ele>
        <time>2020-07-07T16:18:14Z</time>
      </trkpt>
      <trkpt lat="47.1583" lon="-1.29451">
        <ele>31.81562</ele>
        <time>2020-07-07T16:18:16Z</time>
      </trkpt>
      <trkpt lat="47.15835" lon="-1.29445">
        <ele>32.447124</ele>
        <time>2020-07-07T16:18:18Z</time>
      </trkpt>
      <trkpt lat="47.15838" lon="-1.29436">
        <ele>31.62802</ele>
        <time>2020-07-07T16:18:20Z</time>
      </trkpt>
      <trkpt lat="47.15841" lon="-1.29427">
        <ele>31.82883</ele>
        <time>2020-07-07T16:18:22Z</time>
      </trkpt>
      <trkpt lat="47.15844" lon="-1.29416">
        <ele>32.214603</ele>
        <time>2020-07-07T16:18:24Z</time>
      </trkpt>
      <trkpt lat="47.15848" lon="-1.29407">
        <ele>32.661148</ele>
        <time>2020-07-07T16:18:26Z</time>
      </trkpt>
      <trkpt lat="47.15853" lon="-1.29399">
        <ele>31.958303</ele>
        <time>2020-07-07T16:18:28Z</time>
      </trkpt>
      <trkpt lat="47.15858" lon="-1.29391">
        <ele>32.52375</ele>
        <time>2020-07-07T16:18:30Z</time>
      </trkpt>
      <trkpt lat="47.15862" lon="-1.29383">
        <ele>33.242447</ele>
        <time>2020-07-07T16:18:32Z</time>
      </trkpt>
      <trkpt lat="47.15866" lon="-1.29374">
        <ele>32.386353</ele>
        <time>2020-07-07T16:18:34Z</time>
      </trkpt>
      <trkpt lat="47.15869" lon="-1.29365">
        <ele>33.292652</ele>
        <time>2020-07-07T16:18:36Z</time>
      </trkpt>
      <trkpt lat="47.15872" lon="-1.29355">
        <ele>32.46298</ele>
        <time>2020-07-07T16:18:38Z</time>
      </trkpt>
      <trkpt lat="47.15874" lon="-1.29345">
        <ele>32.737774</ele>
        <time>2020-07-07T16:18:40Z</time>
      </trkpt>
      <trkpt lat="47.15875" lon="-1.29334">
        <ele>32.381065</ele>
        <time>2020-07-07T16:18:42Z</time>
      </trkpt>
      <trkpt lat="47.15876" lon="-1.29323">
        <ele>32.787975</ele>
        <time>2020-07-07T16:18:44Z</time>
      </trkpt>
      <trkpt lat="47.15876" lon="-1.29312">
        <ele>33.033707</ele>
        <time>2020-07-07T16:18:46Z</time>
      </trkpt>
      <trkpt lat="47.15876" lon="-1.29302">
        <ele>32.695496</ele>
        <time>2020-07-07T16:18:48Z</time>
      </trkpt>
      <trkpt lat="47.15876" lon="-1.29292">
        <ele>32.716637</ele>
        <time>2020-07-07T16:18:50Z</time>
      </trkpt>
      <trkpt lat="47.15875" lon="-1.29281">
        <ele>33.107693</ele>
        <time>2020-07-07T16:18:52Z</time>
      </trkpt>
      <trkpt lat="47.15873" lon="-1.29271">
        <ele>33.741837</ele>
        <time>2020-07-07T16:18:54Z</time>
      </trkpt>
      <trkpt lat="47.15872" lon="-1.29261">
        <ele>33.82639</ele>
        <time>2020-07-07T16:18:56Z</time>
      </trkpt>
      <trkpt lat="47.15871" lon="-1.2925">
        <ele>34.19631</ele>
        <time>2020-07-07T16:18:58Z</time>
      </trkpt>
      <trkpt lat="47.15869" lon="-1.2924">
        <ele>33.23188</ele>
        <time>2020-07-07T16:19:00Z</time>
      </trkpt>
      <trkpt lat="47.15868" lon="-1.2923">
        <ele>34.0959</ele>
        <time>2020-07-07T16:19:02Z</time>
      </trkpt>
      <trkpt lat="47.15868" lon="-1.2922">
        <ele>33.84753</ele>
        <time>2020-07-07T16:19:04Z</time>
      </trkpt>
      <trkpt lat="47.15868" lon="-1.29211">
        <ele>33.469685</ele>
        <time>2020-07-07T16:19:06Z</time>
      </trkpt>
      <trkpt lat="47.15868" lon="-1.29204">
        <ele>34.925575</ele>
        <time>2020-07-07T16:19:08Z</time>
      </trkpt>
      <trkpt lat="47.15868" lon="-1.29196">
        <ele>34.740616</ele>
        <time>2020-07-07T16:19:10Z</time>
      </trkpt>
      <trkpt lat="47.15869" lon="-1.29189">
        <ele>35.168667</ele>
        <time>2020-07-07T16:19:12Z</time>
      </trkpt>
      <trkpt lat="47.15869" lon="-1.29181">
        <ele>35.12639</ele>
        <time>2020-07-07T16:19:14Z</time>
      </trkpt>
      <trkpt lat="47.15869" lon="-1.29173">
        <ele>34.761757</ele>
        <time>2020-07-07T16:19:16Z</time>
      </trkpt>
      <trkpt lat="47.15869" lon="-1.29165">
        <ele>35.549152</ele>
        <time>2020-07-07T16:19:18Z</time>
      </trkpt>
      <trkpt lat="47.1587" lon="-1.29157">
        <ele>35.638992</ele>
        <time>2020-07-07T16:19:20Z</time>
      </trkpt>
      <trkpt lat="47.15871" lon="-1.29149">
        <ele>36.05647</ele>
        <time>2020-07-07T16:19:22Z</time>
      </trkpt>
      <trkpt lat="47.15872" lon="-1.29142">
        <ele>35.971916</ele>
        <time>2020-07-07T16:19:24Z</time>
      </trkpt>
      <trkpt lat="47.15873" lon="-1.29134">
        <ele>35.86887</ele>
        <time>2020-07-07T16:19:26Z</time>
      </trkpt>
      <trkpt lat="47.15874" lon="-1.29127">
        <ele>35.62314</ele>
        <time>2020-07-07T16:19:28Z</time>
      </trkpt>
      <trkpt lat="47.15875" lon="-1.29119">
        <ele>36.561146</ele>
        <time>2020-07-07T16:19:30Z</time>
      </trkpt>
      <trkpt lat="47.15876" lon="-1.29112">
        <ele>36.10403</ele>
        <time>2020-07-07T16:19:32Z</time>
      </trkpt>
      <trkpt lat="47.15877" lon="-1.29105">
        <ele>36.714397</ele>
        <time>2020-07-07T16:19:34Z</time>
      </trkpt>
      <trkpt lat="47.15879" lon="-1.29096">
        <ele>36.096104</ele>
        <time>2020-07-07T16:19:37Z</time>
      </trkpt>
      <trkpt lat="47.15881" lon="-1.2909">
        <ele>35.876797</ele>
        <time>2020-07-07T16:19:39Z</time>
      </trkpt>
      <trkpt lat="47.15883" lon="-1.29083">
        <ele>36.281063</ele>
        <time>2020-07-07T16:19:41Z</time>
      </trkpt>
      <trkpt lat="47.15884" lon="-1.29076">
        <ele>36.98391</ele>
        <time>2020-07-07T16:19:43Z</time>
      </trkpt>
      <trkpt lat="47.15886" lon="-1.29069">
        <ele>36.43696</ele>
        <time>2020-07-07T16:19:45Z</time>
      </trkpt>
      <trkpt lat="47.15888" lon="-1.29062">
        <ele>37.911346</ele>
        <time>2020-07-07T16:19:47Z</time>
      </trkpt>
      <trkpt lat="47.1589" lon="-1.29055">
        <ele>36.32598</ele>
        <time>2020-07-07T16:19:49Z</time>
      </trkpt>
      <trkpt lat="47.15891" lon="-1.29048">
        <ele>37.456875</ele>
        <time>2020-07-07T16:19:51Z</time>
      </trkpt>
      <trkpt lat="47.15893" lon="-1.2904">
        <ele>36.90728</ele>
        <time>2020-07-07T16:19:53Z</time>
      </trkpt>
      <trkpt lat="47.15894" lon="-1.29033">
        <ele>37.855858</ele>
        <time>2020-07-07T16:19:55Z</time>
      </trkpt>
      <trkpt lat="47.15896" lon="-1.29026">
        <ele>37.713177</ele>
        <time>2020-07-07T16:19:57Z</time>
      </trkpt>
      <trkpt lat="47.15898" lon="-1.29018">
        <ele>38.00647</ele>
        <time>2020-07-07T16:19:59Z</time>
      </trkpt>
      <trkpt lat="47.159" lon="-1.29011">
        <ele>37.1583</ele>
        <time>2020-07-07T16:20:01Z</time>
      </trkpt>
      <trkpt lat="47.15902" lon="-1.29003">
        <ele>37.39346</ele>
        <time>2020-07-07T16:20:03Z</time>
      </trkpt>
      <trkpt lat="47.15904" lon="-1.28996">
        <ele>37.552</ele>
        <time>2020-07-07T16:20:05Z</time>
      </trkpt>
      <trkpt lat="47.15905" lon="-1.28988">
        <ele>36.230858</ele>
        <time>2020-07-07T16:20:07Z</time>
      </trkpt>
      <trkpt lat="47.15907" lon="-1.28981">
        <ele>37.697323</ele>
        <time>2020-07-07T16:20:09Z</time>
      </trkpt>
      <trkpt lat="47.15909" lon="-1.28974">
        <ele>38.933907</ele>
        <time>2020-07-07T16:20:11Z</time>
      </trkpt>
      <trkpt lat="47.15912" lon="-1.28968">
        <ele>37.937767</ele>
        <time>2020-07-07T16:20:13Z</time>
      </trkpt>
      <trkpt lat="47.15914" lon="-1.2896">
        <ele>38.9524</ele>
        <time>2020-07-07T16:20:15Z</time>
      </trkpt>
      <trkpt lat="47.15916" lon="-1.28953">
        <ele>39.38045</ele>
        <time>2020-07-07T16:20:17Z</time>
      </trkpt>
      <trkpt lat="47.15918" lon="-1.28944">
        <ele>39.163784</ele>
        <time>2020-07-07T16:20:19Z</time>
      </trkpt>
      <trkpt lat="47.1592" lon="-1.28937">
        <ele>38.96297</ele>
        <time>2020-07-07T16:20:21Z</time>
      </trkpt>
      <trkpt lat="47.15922" lon="-1.28929">
        <ele>38.804436</ele>
        <time>2020-07-07T16:20:23Z</time>
      </trkpt>
      <trkpt lat="47.15925" lon="-1.28922">
        <ele>38.246914</ele>
        <time>2020-07-07T16:20:25Z</time>
      </trkpt>
      <trkpt lat="47.15926" lon="-1.28914">
        <ele>38.965614</ele>
        <time>2020-07-07T16:20:27Z</time>
      </trkpt>
      <trkpt lat="47.15929" lon="-1.28906">
        <ele>38.55606</ele>
        <time>2020-07-07T16:20:29Z</time>
      </trkpt>
      <trkpt lat="47.15931" lon="-1.28898">
        <ele>38.709312</ele>
        <time>2020-07-07T16:20:31Z</time>
      </trkpt>
      <trkpt lat="47.15933" lon="-1.28891">
        <ele>39.359314</ele>
        <time>2020-07-07T16:20:33Z</time>
      </trkpt>
      <trkpt lat="47.15935" lon="-1.28884">
        <ele>38.410736</ele>
        <time>2020-07-07T16:20:35Z</time>
      </trkpt>
      <trkpt lat="47.15937" lon="-1.28876">
        <ele>39.002605</ele>
        <time>2020-07-07T16:20:37Z</time>
      </trkpt>
      <trkpt lat="47.15939" lon="-1.28869">
        <ele>39.826996</ele>
        <time>2020-07-07T16:20:39Z</time>
      </trkpt>
      <trkpt lat="47.15941" lon="-1.28861">
        <ele>38.8335</ele>
        <time>2020-07-07T16:20:41Z</time>
      </trkpt>
      <trkpt lat="47.15944" lon="-1.28853">
        <ele>39.208702</ele>
        <time>2020-07-07T16:20:43Z</time>
      </trkpt>
      <trkpt lat="47.15945" lon="-1.28845">
        <ele>38.098946</ele>
        <time>2020-07-07T16:20:45Z</time>
      </trkpt>
      <trkpt lat="47.15947" lon="-1.28837">
        <ele>39.816425</ele>
        <time>2020-07-07T16:20:47Z</time>
      </trkpt>
      <trkpt lat="47.15949" lon="-1.28829">
        <ele>40.01724</ele>
        <time>2020-07-07T16:20:49Z</time>
      </trkpt>
      <trkpt lat="47.15951" lon="-1.28822">
        <ele>39.797928</ele>
        <time>2020-07-07T16:20:51Z</time>
      </trkpt>
      <trkpt lat="47.15954" lon="-1.28813">
        <ele>39.375164</ele>
        <time>2020-07-07T16:20:54Z</time>
      </trkpt>
      <trkpt lat="47.15956" lon="-1.28805">
        <ele>39.330246</ele>
        <time>2020-07-07T16:20:56Z</time>
      </trkpt>
      <trkpt lat="47.15958" lon="-1.28798">
        <ele>40.630245</ele>
        <time>2020-07-07T16:20:58Z</time>
      </trkpt>
      <trkpt lat="47.1596" lon="-1.28792">
        <ele>37.948338</ele>
        <time>2020-07-07T16:21:00Z</time>
      </trkpt>
      <trkpt lat="47.15962" lon="-1.28784">
        <ele>40.006668</ele>
        <time>2020-07-07T16:21:03Z</time>
      </trkpt>
      <trkpt lat="47.15963" lon="-1.28778">
        <ele>40.14671</ele>
        <time>2020-07-07T16:21:05Z</time>
      </trkpt>
      <trkpt lat="47.15966" lon="-1.2877">
        <ele>39.964394</ele>
        <time>2020-07-07T16:21:07Z</time>
      </trkpt>
      <trkpt lat="47.15968" lon="-1.28762">
        <ele>39.982887</ele>
        <time>2020-07-07T16:21:09Z</time>
      </trkpt>
      <trkpt lat="47.15971" lon="-1.28753">
        <ele>40.315815</ele>
        <time>2020-07-07T16:21:11Z</time>
      </trkpt>
      <trkpt lat="47.15973" lon="-1.28745">
        <ele>40.22069</ele>
        <time>2020-07-07T16:21:13Z</time>
      </trkpt>
      <trkpt lat="47.15974" lon="-1.28737">
        <ele>40.31053</ele>
        <time>2020-07-07T16:21:15Z</time>
      </trkpt>
      <trkpt lat="47.15972" lon="-1.28729">
        <ele>40.144066</ele>
        <time>2020-07-07T16:21:17Z</time>
      </trkpt>
      <trkpt lat="47.15969" lon="-1.28723">
        <ele>40.98431</ele>
        <time>2020-07-07T16:21:19Z</time>
      </trkpt>
      <trkpt lat="47.15965" lon="-1.28717">
        <ele>40.677807</ele>
        <time>2020-07-07T16:21:21Z</time>
      </trkpt>
      <trkpt lat="47.1596" lon="-1.28711">
        <ele>41.40179</ele>
        <time>2020-07-07T16:21:23Z</time>
      </trkpt>
      <trkpt lat="47.15955" lon="-1.28705">
        <ele>41.05301</ele>
        <time>2020-07-07T16:21:25Z</time>
      </trkpt>
      <trkpt lat="47.1595" lon="-1.28697">
        <ele>41.71622</ele>
        <time>2020-07-07T16:21:27Z</time>
      </trkpt>
      <trkpt lat="47.15946" lon="-1.28691">
        <ele>41.103214</ele>
        <time>2020-07-07T16:21:29Z</time>
      </trkpt>
      <trkpt lat="47.15942" lon="-1.28685">
        <ele>41.547115</ele>
        <time>2020-07-07T16:21:31Z</time>
      </trkpt>
      <trkpt lat="47.15937" lon="-1.28679">
        <ele>40.860123</ele>
        <time>2020-07-07T16:21:33Z</time>
      </trkpt>
      <trkpt lat="47.15933" lon="-1.28672">
        <ele>40.98431</ele>
        <time>2020-07-07T16:21:35Z</time>
      </trkpt>
      <trkpt lat="47.15928" lon="-1.28665">
        <ele>41.103214</ele>
        <time>2020-07-07T16:21:37Z</time>
      </trkpt>
      <trkpt lat="47.15923" lon="-1.28657">
        <ele>40.66988</ele>
        <time>2020-07-07T16:21:39Z</time>
      </trkpt>
      <trkpt lat="47.15917" lon="-1.28649">
        <ele>41.222115</ele>
        <time>2020-07-07T16:21:41Z</time>
      </trkpt>
      <trkpt lat="47.15913" lon="-1.28642">
        <ele>41.045082</ele>
        <time>2020-07-07T16:21:43Z</time>
      </trkpt>
      <trkpt lat="47.15908" lon="-1.28635">
        <ele>42.05179</ele>
        <time>2020-07-07T16:21:45Z</time>
      </trkpt>
      <trkpt lat="47.15904" lon="-1.28627">
        <ele>41.314594</ele>
        <time>2020-07-07T16:21:47Z</time>
      </trkpt>
      <trkpt lat="47.15899" lon="-1.28619">
        <ele>41.317238</ele>
        <time>2020-07-07T16:21:49Z</time>
      </trkpt>
      <trkpt lat="47.15892" lon="-1.2861">
        <ele>40.73858</ele>
        <time>2020-07-07T16:21:51Z</time>
      </trkpt>
      <trkpt lat="47.15887" lon="-1.28602">
        <ele>40.548336</ele>
        <time>2020-07-07T16:21:53Z</time>
      </trkpt>
      <trkpt lat="47.15881" lon="-1.28594">
        <ele>41.52069</ele>
        <time>2020-07-07T16:21:55Z</time>
      </trkpt>
      <trkpt lat="47.15874" lon="-1.28585">
        <ele>40.500774</ele>
        <time>2020-07-07T16:21:57Z</time>
      </trkpt>
      <trkpt lat="47.15868" lon="-1.28575">
        <ele>41.174553</ele>
        <time>2020-07-07T16:21:59Z</time>
      </trkpt>
      <trkpt lat="47.15865" lon="-1.2857">
        <ele>41.095287</ele>
        <time>2020-07-07T16:22:00Z</time>
      </trkpt>
      <trkpt lat="47.15862" lon="-1.28565">
        <ele>40.86541</ele>
        <time>2020-07-07T16:22:01Z</time>
      </trkpt>
      <trkpt lat="47.15859" lon="-1.28559">
        <ele>41.594677</ele>
        <time>2020-07-07T16:22:02Z</time>
      </trkpt>
      <trkpt lat="47.15855" lon="-1.28554">
        <ele>41.071507</ele>
        <time>2020-07-07T16:22:03Z</time>
      </trkpt>
      <trkpt lat="47.15851" lon="-1.28549">
        <ele>40.65667</ele>
        <time>2020-07-07T16:22:04Z</time>
      </trkpt>
      <trkpt lat="47.15848" lon="-1.28544">
        <ele>41.3648</ele>
        <time>2020-07-07T16:22:05Z</time>
      </trkpt>
      <trkpt lat="47.15844" lon="-1.28538">
        <ele>40.63553</ele>
        <time>2020-07-07T16:22:06Z</time>
      </trkpt>
      <trkpt lat="47.15841" lon="-1.28533">
        <ele>40.537766</ele>
        <time>2020-07-07T16:22:07Z</time>
      </trkpt>
      <trkpt lat="47.15838" lon="-1.28528">
        <ele>40.455856</ele>
        <time>2020-07-07T16:22:08Z</time>
      </trkpt>
      <trkpt lat="47.15834" lon="-1.28523">
        <ele>40.9711</ele>
        <time>2020-07-07T16:22:09Z</time>
      </trkpt>
      <trkpt lat="47.15831" lon="-1.28518">
        <ele>40.593254</ele>
        <time>2020-07-07T16:22:10Z</time>
      </trkpt>
      <trkpt lat="47.15827" lon="-1.28514">
        <ele>40.696304</ele>
        <time>2020-07-07T16:22:11Z</time>
      </trkpt>
      <trkpt lat="47.15824" lon="-1.28509">
        <ele>40.61968</ele>
        <time>2020-07-07T16:22:12Z</time>
      </trkpt>
      <trkpt lat="47.1582" lon="-1.28505">
        <ele>40.76236</ele>
        <time>2020-07-07T16:22:13Z</time>
      </trkpt>
      <trkpt lat="47.15815" lon="-1.28496">
        <ele>41.687157</ele>
        <time>2020-07-07T16:22:15Z</time>
      </trkpt>
      <trkpt lat="47.1581" lon="-1.28486">
        <ele>41.013374</ele>
        <time>2020-07-07T16:22:17Z</time>
      </trkpt>
      <trkpt lat="47.15804" lon="-1.28476">
        <ele>40.672523</ele>
        <time>2020-07-07T16:22:19Z</time>
      </trkpt>
      <trkpt lat="47.15802" lon="-1.28463">
        <ele>40.329025</ele>
        <time>2020-07-07T16:22:21Z</time>
      </trkpt>
      <trkpt lat="47.15804" lon="-1.28452">
        <ele>40.39244</ele>
        <time>2020-07-07T16:22:23Z</time>
      </trkpt>
      <trkpt lat="47.15808" lon="-1.28441">
        <ele>41.98309</ele>
        <time>2020-07-07T16:22:25Z</time>
      </trkpt>
      <trkpt lat="47.15812" lon="-1.28431">
        <ele>41.18248</ele>
        <time>2020-07-07T16:22:27Z</time>
      </trkpt>
      <trkpt lat="47.15817" lon="-1.28421">
        <ele>41.40179</ele>
        <time>2020-07-07T16:22:29Z</time>
      </trkpt>
      <trkpt lat="47.1582" lon="-1.28411">
        <ele>42.144268</ele>
        <time>2020-07-07T16:22:31Z</time>
      </trkpt>
      <trkpt lat="47.15823" lon="-1.28401">
        <ele>42.234108</ele>
        <time>2020-07-07T16:22:33Z</time>
      </trkpt>
      <trkpt lat="47.15827" lon="-1.28391">
        <ele>41.00809</ele>
        <time>2020-07-07T16:22:35Z</time>
      </trkpt>
      <trkpt lat="47.1583" lon="-1.28381">
        <ele>41.512764</ele>
        <time>2020-07-07T16:22:37Z</time>
      </trkpt>
      <trkpt lat="47.15833" lon="-1.28371">
        <ele>41.515408</ele>
        <time>2020-07-07T16:22:39Z</time>
      </trkpt>
      <trkpt lat="47.15836" lon="-1.28362">
        <ele>41.570896</ele>
        <time>2020-07-07T16:22:41Z</time>
      </trkpt>
      <trkpt lat="47.1584" lon="-1.28353">
        <ele>42.170692</ele>
        <time>2020-07-07T16:22:43Z</time>
      </trkpt>
      <trkpt lat="47.15844" lon="-1.28345">
        <ele>42.115204</ele>
        <time>2020-07-07T16:22:45Z</time>
      </trkpt>
      <trkpt lat="47.1585" lon="-1.28339">
        <ele>42.310734</ele>
        <time>2020-07-07T16:22:47Z</time>
      </trkpt>
      <trkpt lat="47.15857" lon="-1.28336">
        <ele>42.791626</ele>
        <time>2020-07-07T16:22:49Z</time>
      </trkpt>
      <trkpt lat="47.15864" lon="-1.28333">
        <ele>44.53817</ele>
        <time>2020-07-07T16:22:51Z</time>
      </trkpt>
      <trkpt lat="47.1587" lon="-1.28331">
        <ele>41.819267</ele>
        <time>2020-07-07T16:22:53Z</time>
      </trkpt>
      <trkpt lat="47.15876" lon="-1.2833">
        <ele>42.22882</ele>
        <time>2020-07-07T16:22:55Z</time>
      </trkpt>
      <trkpt lat="47.15883" lon="-1.28328">
        <ele>41.61053</ele>
        <time>2020-07-07T16:22:57Z</time>
      </trkpt>
      <trkpt lat="47.15891" lon="-1.28324">
        <ele>42.025368</ele>
        <time>2020-07-07T16:22:59Z</time>
      </trkpt>
      <trkpt lat="47.15897" lon="-1.28316">
        <ele>42.95545</ele>
        <time>2020-07-07T16:23:01Z</time>
      </trkpt>
      <trkpt lat="47.15903" lon="-1.28307">
        <ele>43.14569</ele>
        <time>2020-07-07T16:23:03Z</time>
      </trkpt>
      <trkpt lat="47.15909" lon="-1.28299">
        <ele>42.54325</ele>
        <time>2020-07-07T16:23:05Z</time>
      </trkpt>
      <trkpt lat="47.15915" lon="-1.28291">
        <ele>42.559105</ele>
        <time>2020-07-07T16:23:07Z</time>
      </trkpt>
      <trkpt lat="47.15922" lon="-1.28288">
        <ele>43.536747</ele>
        <time>2020-07-07T16:23:09Z</time>
      </trkpt>
      <trkpt lat="47.15929" lon="-1.28289">
        <ele>42.648945</ele>
        <time>2020-07-07T16:23:11Z</time>
      </trkpt>
      <trkpt lat="47.15936" lon="-1.28293">
        <ele>44.057274</ele>
        <time>2020-07-07T16:23:13Z</time>
      </trkpt>
      <trkpt lat="47.15941" lon="-1.28297">
        <ele>43.037357</ele>
        <time>2020-07-07T16:23:15Z</time>
      </trkpt>
      <trkpt lat="47.15947" lon="-1.28301">
        <ele>43.9463</ele>
        <time>2020-07-07T16:23:17Z</time>
      </trkpt>
      <trkpt lat="47.15952" lon="-1.28306">
        <ele>43.13248</ele>
        <time>2020-07-07T16:23:19Z</time>
      </trkpt>
      <trkpt lat="47.15957" lon="-1.28311">
        <ele>43.890812</ele>
        <time>2020-07-07T16:23:21Z</time>
      </trkpt>
      <trkpt lat="47.15962" lon="-1.28315">
        <ele>43.594875</ele>
        <time>2020-07-07T16:23:23Z</time>
      </trkpt>
      <trkpt lat="47.15968" lon="-1.28319">
        <ele>44.057274</ele>
        <time>2020-07-07T16:23:25Z</time>
      </trkpt>
      <trkpt lat="47.15972" lon="-1.28324">
        <ele>43.335934</ele>
        <time>2020-07-07T16:23:27Z</time>
      </trkpt>
      <trkpt lat="47.15976" lon="-1.28327">
        <ele>43.240814</ele>
        <time>2020-07-07T16:23:29Z</time>
      </trkpt>
      <trkpt lat="47.15981" lon="-1.28331">
        <ele>43.47069</ele>
        <time>2020-07-07T16:23:31Z</time>
      </trkpt>
      <trkpt lat="47.15986" lon="-1.28335">
        <ele>43.507683</ele>
        <time>2020-07-07T16:23:33Z</time>
      </trkpt>
      <trkpt lat="47.1599" lon="-1.28339">
        <ele>43.63451</ele>
        <time>2020-07-07T16:23:35Z</time>
      </trkpt>
      <trkpt lat="47.15996" lon="-1.28343">
        <ele>44.641216</ele>
        <time>2020-07-07T16:23:37Z</time>
      </trkpt>
      <trkpt lat="47.16001" lon="-1.28348">
        <ele>43.798332</ele>
        <time>2020-07-07T16:23:39Z</time>
      </trkpt>
      <trkpt lat="47.16006" lon="-1.28352">
        <ele>44.487965</ele>
        <time>2020-07-07T16:23:41Z</time>
      </trkpt>
      <trkpt lat="47.16011" lon="-1.28356">
        <ele>44.884308</ele>
        <time>2020-07-07T16:23:43Z</time>
      </trkpt>
      <trkpt lat="47.16016" lon="-1.2836">
        <ele>44.09691</ele>
        <time>2020-07-07T16:23:45Z</time>
      </trkpt>
      <trkpt lat="47.16021" lon="-1.28363">
        <ele>44.11012</ele>
        <time>2020-07-07T16:23:47Z</time>
      </trkpt>
      <trkpt lat="47.16027" lon="-1.28365">
        <ele>44.239594</ele>
        <time>2020-07-07T16:23:49Z</time>
      </trkpt>
      <trkpt lat="47.16032" lon="-1.28367">
        <ele>44.123333</ele>
        <time>2020-07-07T16:23:51Z</time>
      </trkpt>
      <trkpt lat="47.16038" lon="-1.28368">
        <ele>45.13004</ele>
        <time>2020-07-07T16:23:53Z</time>
      </trkpt>
      <trkpt lat="47.16044" lon="-1.2837">
        <ele>45.214592</ele>
        <time>2020-07-07T16:23:55Z</time>
      </trkpt>
      <trkpt lat="47.1605" lon="-1.28371">
        <ele>44.950363</ele>
        <time>2020-07-07T16:23:57Z</time>
      </trkpt>
      <trkpt lat="47.16055" lon="-1.28373">
        <ele>45.13268</ele>
        <time>2020-07-07T16:23:59Z</time>
      </trkpt>
      <trkpt lat="47.16061" lon="-1.28374">
        <ele>45.4339</ele>
        <time>2020-07-07T16:24:01Z</time>
      </trkpt>
      <trkpt lat="47.16066" lon="-1.28375">
        <ele>44.559307</ele>
        <time>2020-07-07T16:24:03Z</time>
      </trkpt>
      <trkpt lat="47.16071" lon="-1.28377">
        <ele>45.515812</ele>
        <time>2020-07-07T16:24:05Z</time>
      </trkpt>
      <trkpt lat="47.16076" lon="-1.28378">
        <ele>45.983494</ele>
        <time>2020-07-07T16:24:07Z</time>
      </trkpt>
      <trkpt lat="47.16082" lon="-1.28378">
        <ele>45.011135</ele>
        <time>2020-07-07T16:24:09Z</time>
      </trkpt>
      <trkpt lat="47.16087" lon="-1.28377">
        <ele>46.223938</ele>
        <time>2020-07-07T16:24:11Z</time>
      </trkpt>
      <trkpt lat="47.16092" lon="-1.28374">
        <ele>44.892235</ele>
        <time>2020-07-07T16:24:13Z</time>
      </trkpt>
      <trkpt lat="47.16097" lon="-1.2837">
        <ele>45.661137</ele>
        <time>2020-07-07T16:24:15Z</time>
      </trkpt>
      <trkpt lat="47.161" lon="-1.28363">
        <ele>45.761543</ele>
        <time>2020-07-07T16:24:17Z</time>
      </trkpt>
      <trkpt lat="47.16103" lon="-1.28355">
        <ele>44.871094</ele>
        <time>2020-07-07T16:24:19Z</time>
      </trkpt>
      <trkpt lat="47.16104" lon="-1.28347">
        <ele>45.61093</ele>
        <time>2020-07-07T16:24:21Z</time>
      </trkpt>
      <trkpt lat="47.16106" lon="-1.28339">
        <ele>45.100975</ele>
        <time>2020-07-07T16:24:23Z</time>
      </trkpt>
      <trkpt lat="47.16107" lon="-1.28329">
        <ele>45.280647</ele>
        <time>2020-07-07T16:24:25Z</time>
      </trkpt>
      <trkpt lat="47.16108" lon="-1.2832">
        <ele>45.452396</ele>
        <time>2020-07-07T16:24:27Z</time>
      </trkpt>
      <trkpt lat="47.16109" lon="-1.2831">
        <ele>44.83939</ele>
        <time>2020-07-07T16:24:29Z</time>
      </trkpt>
      <trkpt lat="47.16109" lon="-1.28301">
        <ele>45.51317</ele>
        <time>2020-07-07T16:24:31Z</time>
      </trkpt>
      <trkpt lat="47.1611" lon="-1.28292">
        <ele>46.64142</ele>
        <time>2020-07-07T16:24:33Z</time>
      </trkpt>
      <trkpt lat="47.16111" lon="-1.28284">
        <ele>45.515812</ele>
        <time>2020-07-07T16:24:35Z</time>
      </trkpt>
      <trkpt lat="47.16112" lon="-1.28276">
        <ele>45.727192</ele>
        <time>2020-07-07T16:24:37Z</time>
      </trkpt>
      <trkpt lat="47.16113" lon="-1.28267">
        <ele>45.571297</ele>
        <time>2020-07-07T16:24:39Z</time>
      </trkpt>
      <trkpt lat="47.16114" lon="-1.28258">
        <ele>45.669064</ele>
        <time>2020-07-07T16:24:41Z</time>
      </trkpt>
      <trkpt lat="47.16115" lon="-1.28248">
        <ele>45.743046</ele>
        <time>2020-07-07T16:24:43Z</time>
      </trkpt>
      <trkpt lat="47.16116" lon="-1.28237">
        <ele>45.777397</ele>
        <time>2020-07-07T16:24:45Z</time>
      </trkpt>
      <trkpt lat="47.16118" lon="-1.28226">
        <ele>45.254227</ele>
        <time>2020-07-07T16:24:47Z</time>
      </trkpt>
      <trkpt lat="47.16119" lon="-1.28215">
        <ele>45.832882</ele>
        <time>2020-07-07T16:24:49Z</time>
      </trkpt>
      <trkpt lat="47.16119" lon="-1.28206">
        <ele>46.54894</ele>
        <time>2020-07-07T16:24:51Z</time>
      </trkpt>
      <trkpt lat="47.16119" lon="-1.28197">
        <ele>46.12089</ele>
        <time>2020-07-07T16:24:53Z</time>
      </trkpt>
      <trkpt lat="47.16119" lon="-1.28188">
        <ele>45.394264</ele>
        <time>2020-07-07T16:24:55Z</time>
      </trkpt>
      <trkpt lat="47.1612" lon="-1.28179">
        <ele>46.287354</ele>
        <time>2020-07-07T16:24:57Z</time>
      </trkpt>
      <trkpt lat="47.1612" lon="-1.28169">
        <ele>46.02841</ele>
        <time>2020-07-07T16:24:59Z</time>
      </trkpt>
      <trkpt lat="47.1612" lon="-1.28157">
        <ele>45.766827</ele>
        <time>2020-07-07T16:25:01Z</time>
      </trkpt>
      <trkpt lat="47.1612" lon="-1.28146">
        <ele>46.916214</ele>
        <time>2020-07-07T16:25:03Z</time>
      </trkpt>
      <trkpt lat="47.1612" lon="-1.28134">
        <ele>47.286133</ele>
        <time>2020-07-07T16:25:05Z</time>
      </trkpt>
      <trkpt lat="47.16121" lon="-1.28123">
        <ele>47.574142</ele>
        <time>2020-07-07T16:25:07Z</time>
      </trkpt>
      <trkpt lat="47.16124" lon="-1.28113">
        <ele>46.5965</ele>
        <time>2020-07-07T16:25:09Z</time>
      </trkpt>
      <trkpt lat="47.16129" lon="-1.28106">
        <ele>47.193653</ele>
        <time>2020-07-07T16:25:11Z</time>
      </trkpt>
      <trkpt lat="47.16133" lon="-1.281">
        <ele>47.418247</ele>
        <time>2020-07-07T16:25:13Z</time>
      </trkpt>
      <trkpt lat="47.16138" lon="-1.28097">
        <ele>46.696907</ele>
        <time>2020-07-07T16:25:15Z</time>
      </trkpt>
      <trkpt lat="47.16143" lon="-1.28095">
        <ele>46.45382</ele>
        <time>2020-07-07T16:25:17Z</time>
      </trkpt>
      <trkpt lat="47.16148" lon="-1.28094">
        <ele>46.94264</ele>
        <time>2020-07-07T16:25:19Z</time>
      </trkpt>
      <trkpt lat="47.16152" lon="-1.28092">
        <ele>46.86337</ele>
        <time>2020-07-07T16:25:21Z</time>
      </trkpt>
      <trkpt lat="47.16157" lon="-1.28091">
        <ele>45.452396</ele>
        <time>2020-07-07T16:25:23Z</time>
      </trkpt>
      <trkpt lat="47.16161" lon="-1.2809">
        <ele>46.348125</ele>
        <time>2020-07-07T16:25:25Z</time>
      </trkpt>
      <trkpt lat="47.16167" lon="-1.28089">
        <ele>46.543655</ele>
        <time>2020-07-07T16:25:27Z</time>
      </trkpt>
      <trkpt lat="47.16173" lon="-1.28088">
        <ele>48.406456</ele>
        <time>2020-07-07T16:25:29Z</time>
      </trkpt>
      <trkpt lat="47.16179" lon="-1.28085">
        <ele>46.718044</ele>
        <time>2020-07-07T16:25:31Z</time>
      </trkpt>
      <trkpt lat="47.16184" lon="-1.28079">
        <ele>44.524956</ele>
        <time>2020-07-07T16:25:33Z</time>
      </trkpt>
      <trkpt lat="47.16185" lon="-1.2807">
        <ele>46.033695</ele>
        <time>2020-07-07T16:25:35Z</time>
      </trkpt>
      <trkpt lat="47.16184" lon="-1.2806">
        <ele>46.078613</ele>
        <time>2020-07-07T16:25:37Z</time>
      </trkpt>
      <trkpt lat="47.16184" lon="-1.28049">
        <ele>46.617638</ele>
        <time>2020-07-07T16:25:39Z</time>
      </trkpt>
      <trkpt lat="47.16183" lon="-1.28037">
        <ele>46.477596</ele>
        <time>2020-07-07T16:25:41Z</time>
      </trkpt>
      <trkpt lat="47.16182" lon="-1.28025">
        <ele>47.206867</ele>
        <time>2020-07-07T16:25:43Z</time>
      </trkpt>
      <trkpt lat="47.16181" lon="-1.28012">
        <ele>46.950565</ele>
        <time>2020-07-07T16:25:45Z</time>
      </trkpt>
      <trkpt lat="47.1618" lon="-1.28">
        <ele>46.95321</ele>
        <time>2020-07-07T16:25:47Z</time>
      </trkpt>
      <trkpt lat="47.1618" lon="-1.27988">
        <ele>47.92292</ele>
        <time>2020-07-07T16:25:49Z</time>
      </trkpt>
      <trkpt lat="47.1618" lon="-1.27977">
        <ele>47.5715</ele>
        <time>2020-07-07T16:25:51Z</time>
      </trkpt>
      <trkpt lat="47.16181" lon="-1.27967">
        <ele>47.23857</ele>
        <time>2020-07-07T16:25:53Z</time>
      </trkpt>
      <trkpt lat="47.16181" lon="-1.27957">
        <ele>47.06154</ele>
        <time>2020-07-07T16:25:55Z</time>
      </trkpt>
      <trkpt lat="47.16181" lon="-1.27947">
        <ele>47.148735</ele>
        <time>2020-07-07T16:25:57Z</time>
      </trkpt>
      <trkpt lat="47.16182" lon="-1.27936">
        <ele>47.782883</ele>
        <time>2020-07-07T16:25:59Z</time>
      </trkpt>
      <trkpt lat="47.16182" lon="-1.27925">
        <ele>47.90971</ele>
        <time>2020-07-07T16:26:01Z</time>
      </trkpt>
      <trkpt lat="47.16183" lon="-1.27915">
        <ele>46.99284</ele>
        <time>2020-07-07T16:26:03Z</time>
      </trkpt>
      <trkpt lat="47.16187" lon="-1.27906">
        <ele>47.819874</ele>
        <time>2020-07-07T16:26:05Z</time>
      </trkpt>
      <trkpt lat="47.16193" lon="-1.27905">
        <ele>47.259712</ele>
        <time>2020-07-07T16:26:07Z</time>
      </trkpt>
      <trkpt lat="47.16198" lon="-1.27906">
        <ele>47.352192</ele>
        <time>2020-07-07T16:26:09Z</time>
      </trkpt>
      <trkpt lat="47.16204" lon="-1.27907">
        <ele>48.213573</ele>
        <time>2020-07-07T16:26:11Z</time>
      </trkpt>
      <trkpt lat="47.16211" lon="-1.27909">
        <ele>48.099953</ele>
        <time>2020-07-07T16:26:13Z</time>
      </trkpt>
      <trkpt lat="47.16218" lon="-1.27912">
        <ele>48.4091</ele>
        <time>2020-07-07T16:26:15Z</time>
      </trkpt>
      <trkpt lat="47.16225" lon="-1.27914">
        <ele>49.563774</ele>
        <time>2020-07-07T16:26:17Z</time>
      </trkpt>
      <trkpt lat="47.16229" lon="-1.27915">
        <ele>48.662758</ele>
        <time>2020-07-07T16:26:18Z</time>
      </trkpt>
      <trkpt lat="47.16235" lon="-1.27918">
        <ele>47.74853</ele>
        <time>2020-07-07T16:26:20Z</time>
      </trkpt>
      <trkpt lat="47.16243" lon="-1.27921">
        <ele>49.10666</ele>
        <time>2020-07-07T16:26:22Z</time>
      </trkpt>
      <trkpt lat="47.1625" lon="-1.27923">
        <ele>49.25991</ele>
        <time>2020-07-07T16:26:24Z</time>
      </trkpt>
      <trkpt lat="47.16257" lon="-1.27925">
        <ele>49.36296</ele>
        <time>2020-07-07T16:26:26Z</time>
      </trkpt>
      <trkpt lat="47.16263" lon="-1.27927">
        <ele>49.579628</ele>
        <time>2020-07-07T16:26:28Z</time>
      </trkpt>
      <trkpt lat="47.16266" lon="-1.27927">
        <ele>49.119873</ele>
        <time>2020-07-07T16:26:29Z</time>
      </trkpt>
      <trkpt lat="47.16272" lon="-1.27929">
        <ele>48.62841</ele>
        <time>2020-07-07T16:26:31Z</time>
      </trkpt>
      <trkpt lat="47.16277" lon="-1.27931">
        <ele>48.94548</ele>
        <time>2020-07-07T16:26:33Z</time>
      </trkpt>
      <trkpt lat="47.16283" lon="-1.27932">
        <ele>48.13166</ele>
        <time>2020-07-07T16:26:35Z</time>
      </trkpt>
      <trkpt lat="47.1629" lon="-1.27934">
        <ele>48.459305</ele>
        <time>2020-07-07T16:26:37Z</time>
      </trkpt>
      <trkpt lat="47.16296" lon="-1.27936">
        <ele>49.320686</ele>
        <time>2020-07-07T16:26:39Z</time>
      </trkpt>
      <trkpt lat="47.16301" lon="-1.27937">
        <ele>49.360317</ele>
        <time>2020-07-07T16:26:41Z</time>
      </trkpt>
      <trkpt lat="47.16306" lon="-1.27936">
        <ele>48.424953</ele>
        <time>2020-07-07T16:26:43Z</time>
      </trkpt>
      <trkpt lat="47.16311" lon="-1.27935">
        <ele>48.9217</ele>
        <time>2020-07-07T16:26:45Z</time>
      </trkpt>
      <trkpt lat="47.16316" lon="-1.27932">
        <ele>48.491013</ele>
        <time>2020-07-07T16:26:47Z</time>
      </trkpt>
      <trkpt lat="47.16319" lon="-1.27926">
        <ele>48.76581</ele>
        <time>2020-07-07T16:26:49Z</time>
      </trkpt>
      <trkpt lat="47.16323" lon="-1.27921">
        <ele>48.586132</ele>
        <time>2020-07-07T16:26:51Z</time>
      </trkpt>
      <trkpt lat="47.16327" lon="-1.27917">
        <ele>48.98776</ele>
        <time>2020-07-07T16:26:53Z</time>
      </trkpt>
      <trkpt lat="47.16332" lon="-1.27918">
        <ele>48.934914</ele>
        <time>2020-07-07T16:26:56Z</time>
      </trkpt>
      <trkpt lat="47.16336" lon="-1.27919">
        <ele>50.203205</ele>
        <time>2020-07-07T16:26:58Z</time>
      </trkpt>
      <trkpt lat="47.16339" lon="-1.27919">
        <ele>49.645683</ele>
        <time>2020-07-07T16:26:59Z</time>
      </trkpt>
      <trkpt lat="47.16345" lon="-1.27918">
        <ele>49.109303</ele>
        <time>2020-07-07T16:27:01Z</time>
      </trkpt>
      <trkpt lat="47.16349" lon="-1.27915">
        <ele>48.35097</ele>
        <time>2020-07-07T16:27:03Z</time>
      </trkpt>
      <trkpt lat="47.16354" lon="-1.27911">
        <ele>49.975967</ele>
        <time>2020-07-07T16:27:05Z</time>
      </trkpt>
      <trkpt lat="47.16357" lon="-1.27909">
        <ele>48.694466</ele>
        <time>2020-07-07T16:27:06Z</time>
      </trkpt>
      <trkpt lat="47.16361" lon="-1.27904">
        <ele>49.38674</ele>
        <time>2020-07-07T16:27:08Z</time>
      </trkpt>
      <trkpt lat="47.16365" lon="-1.27899">
        <ele>49.46601</ele>
        <time>2020-07-07T16:27:11Z</time>
      </trkpt>
      <trkpt lat="47.16369" lon="-1.27893">
        <ele>49.666824</ele>
        <time>2020-07-07T16:27:13Z</time>
      </trkpt>
      <trkpt lat="47.16373" lon="-1.27886">
        <ele>50.055237</ele>
        <time>2020-07-07T16:27:15Z</time>
      </trkpt>
      <trkpt lat="47.16374" lon="-1.27882">
        <ele>48.23735</ele>
        <time>2020-07-07T16:27:16Z</time>
      </trkpt>
      <trkpt lat="47.16378" lon="-1.27876">
        <ele>48.829224</ele>
        <time>2020-07-07T16:27:18Z</time>
      </trkpt>
      <trkpt lat="47.1638" lon="-1.27869">
        <ele>48.37739</ele>
        <time>2020-07-07T16:27:20Z</time>
      </trkpt>
      <trkpt lat="47.16383" lon="-1.27861">
        <ele>49.539993</ele>
        <time>2020-07-07T16:27:23Z</time>
      </trkpt>
      <trkpt lat="47.16385" lon="-1.27855">
        <ele>48.77109</ele>
        <time>2020-07-07T16:27:25Z</time>
      </trkpt>
      <trkpt lat="47.16386" lon="-1.27847">
        <ele>48.76581</ele>
        <time>2020-07-07T16:27:27Z</time>
      </trkpt>
      <trkpt lat="47.16388" lon="-1.27839">
        <ele>49.90727</ele>
        <time>2020-07-07T16:27:29Z</time>
      </trkpt>
      <trkpt lat="47.16391" lon="-1.27828">
        <ele>49.296906</ele>
        <time>2020-07-07T16:27:31Z</time>
      </trkpt>
      <trkpt lat="47.16393" lon="-1.27818">
        <ele>48.07089</ele>
        <time>2020-07-07T16:27:33Z</time>
      </trkpt>
      <trkpt lat="47.16394" lon="-1.27809">
        <ele>49.714382</ele>
        <time>2020-07-07T16:27:35Z</time>
      </trkpt>
      <trkpt lat="47.16396" lon="-1.27802">
        <ele>49.748734</ele>
        <time>2020-07-07T16:27:37Z</time>
      </trkpt>
      <trkpt lat="47.16397" lon="-1.27794">
        <ele>49.529423</ele>
        <time>2020-07-07T16:27:40Z</time>
      </trkpt>
      <trkpt lat="47.16397" lon="-1.27786">
        <ele>49.6404</ele>
        <time>2020-07-07T16:27:42Z</time>
      </trkpt>
      <trkpt lat="47.16398" lon="-1.27777">
        <ele>48.23471</ele>
        <time>2020-07-07T16:27:44Z</time>
      </trkpt>
      <trkpt lat="47.16398" lon="-1.27768">
        <ele>48.38532</ele>
        <time>2020-07-07T16:27:46Z</time>
      </trkpt>
      <trkpt lat="47.16398" lon="-1.27759">
        <ele>48.963978</ele>
        <time>2020-07-07T16:27:48Z</time>
      </trkpt>
      <trkpt lat="47.16398" lon="-1.27751">
        <ele>49.983894</ele>
        <time>2020-07-07T16:27:50Z</time>
      </trkpt>
      <trkpt lat="47.16398" lon="-1.27743">
        <ele>49.75666</ele>
        <time>2020-07-07T16:27:52Z</time>
      </trkpt>
      <trkpt lat="47.16399" lon="-1.27735">
        <ele>49.33654</ele>
        <time>2020-07-07T16:27:54Z</time>
      </trkpt>
      <trkpt lat="47.16399" lon="-1.27725">
        <ele>50.131863</ele>
        <time>2020-07-07T16:27:57Z</time>
      </trkpt>
      <trkpt lat="47.16399" lon="-1.27718">
        <ele>49.767227</ele>
        <time>2020-07-07T16:27:59Z</time>
      </trkpt>
      <trkpt lat="47.16399" lon="-1.2771">
        <ele>49.471294</ele>
        <time>2020-07-07T16:28:01Z</time>
      </trkpt>
      <trkpt lat="47.16399" lon="-1.27702">
        <ele>48.77109</ele>
        <time>2020-07-07T16:28:03Z</time>
      </trkpt>
      <trkpt lat="47.16399" lon="-1.27693">
        <ele>49.201782</ele>
        <time>2020-07-07T16:28:05Z</time>
      </trkpt>
      <trkpt lat="47.16399" lon="-1.27686">
        <ele>49.090805</ele>
        <time>2020-07-07T16:28:07Z</time>
      </trkpt>
      <trkpt lat="47.16402" lon="-1.27678">
        <ele>49.32597</ele>
        <time>2020-07-07T16:28:10Z</time>
      </trkpt>
      <trkpt lat="47.16402" lon="-1.27676">
        <ele>48.229427</ele>
        <time>2020-07-07T16:28:11Z</time>
      </trkpt>
      <trkpt lat="47.16403" lon="-1.2767">
        <ele>49.323326</ele>
        <time>2020-07-07T16:28:13Z</time>
      </trkpt>
      <trkpt lat="47.16405" lon="-1.27664">
        <ele>50.623325</ele>
        <time>2020-07-07T16:28:15Z</time>
      </trkpt>
      <trkpt lat="47.16406" lon="-1.2766">
        <ele>49.384098</ele>
        <time>2020-07-07T16:28:16Z</time>
      </trkpt>
      <trkpt lat="47.16409" lon="-1.27652">
        <ele>50.12922</ele>
        <time>2020-07-07T16:28:18Z</time>
      </trkpt>
      <trkpt lat="47.16412" lon="-1.27646">
        <ele>50.504425</ele>
        <time>2020-07-07T16:28:20Z</time>
      </trkpt>
      <trkpt lat="47.16416" lon="-1.27639">
        <ele>51.363163</ele>
        <time>2020-07-07T16:28:22Z</time>
      </trkpt>
      <trkpt lat="47.16417" lon="-1.27636">
        <ele>49.133083</ele>
        <time>2020-07-07T16:28:23Z</time>
      </trkpt>
      <trkpt lat="47.16421" lon="-1.27629">
        <ele>50.113365</ele>
        <time>2020-07-07T16:28:25Z</time>
      </trkpt>
      <trkpt lat="47.16423" lon="-1.27622">
        <ele>49.661537</ele>
        <time>2020-07-07T16:28:27Z</time>
      </trkpt>
      <trkpt lat="47.16426" lon="-1.27615">
        <ele>49.159508</ele>
        <time>2020-07-07T16:28:29Z</time>
      </trkpt>
      <trkpt lat="47.16429" lon="-1.27609">
        <ele>49.542637</ele>
        <time>2020-07-07T16:28:31Z</time>
      </trkpt>
      <trkpt lat="47.16432" lon="-1.27602">
        <ele>49.946903</ele>
        <time>2020-07-07T16:28:33Z</time>
      </trkpt>
      <trkpt lat="47.16435" lon="-1.27595">
        <ele>49.58227</ele>
        <time>2020-07-07T16:28:35Z</time>
      </trkpt>
      <trkpt lat="47.16438" lon="-1.27588">
        <ele>49.7091</ele>
        <time>2020-07-07T16:28:37Z</time>
      </trkpt>
      <trkpt lat="47.16439" lon="-1.27582">
        <ele>50.55727</ele>
        <time>2020-07-07T16:28:39Z</time>
      </trkpt>
      <trkpt lat="47.16443" lon="-1.27573">
        <ele>50.911335</ele>
        <time>2020-07-07T16:28:42Z</time>
      </trkpt>
      <trkpt lat="47.16444" lon="-1.27567">
        <ele>50.760723</ele>
        <time>2020-07-07T16:28:44Z</time>
      </trkpt>
      <trkpt lat="47.16447" lon="-1.27561">
        <ele>50.839993</ele>
        <time>2020-07-07T16:28:46Z</time>
      </trkpt>
      <trkpt lat="47.1645" lon="-1.27555">
        <ele>50.52292</ele>
        <time>2020-07-07T16:28:48Z</time>
      </trkpt>
      <trkpt lat="47.16452" lon="-1.27549">
        <ele>50.356457</ele>
        <time>2020-07-07T16:28:50Z</time>
      </trkpt>
      <trkpt lat="47.16455" lon="-1.27544">
        <ele>50.285114</ele>
        <time>2020-07-07T16:28:52Z</time>
      </trkpt>
      <trkpt lat="47.16459" lon="-1.2754">
        <ele>51.310318</ele>
        <time>2020-07-07T16:28:54Z</time>
      </trkpt>
      <trkpt lat="47.16462" lon="-1.27533">
        <ele>51.812347</ele>
        <time>2020-07-07T16:28:57Z</time>
      </trkpt>
      <trkpt lat="47.16464" lon="-1.27531">
        <ele>51.780643</ele>
        <time>2020-07-07T16:28:58Z</time>
      </trkpt>
      <trkpt lat="47.16468" lon="-1.27528">
        <ele>51.320885</ele>
        <time>2020-07-07T16:29:01Z</time>
      </trkpt>
      <trkpt lat="47.16474" lon="-1.27531">
        <ele>52.03166</ele>
        <time>2020-07-07T16:29:04Z</time>
      </trkpt>
      <trkpt lat="47.16476" lon="-1.27533">
        <ele>51.60361</ele>
        <time>2020-07-07T16:29:05Z</time>
      </trkpt>
      <trkpt lat="47.1648" lon="-1.27538">
        <ele>51.87048</ele>
        <time>2020-07-07T16:29:07Z</time>
      </trkpt>
      <trkpt lat="47.16483" lon="-1.27545">
        <ele>53.598526</ele>
        <time>2020-07-07T16:29:09Z</time>
      </trkpt>
      <trkpt lat="47.16485" lon="-1.27548">
        <ele>51.53755</ele>
        <time>2020-07-07T16:29:10Z</time>
      </trkpt>
      <trkpt lat="47.16489" lon="-1.27554">
        <ele>51.780643</ele>
        <time>2020-07-07T16:29:12Z</time>
      </trkpt>
      <trkpt lat="47.16493" lon="-1.2756">
        <ele>52.39629</ele>
        <time>2020-07-07T16:29:14Z</time>
      </trkpt>
      <trkpt lat="47.16496" lon="-1.27565">
        <ele>52.560112</ele>
        <time>2020-07-07T16:29:16Z</time>
      </trkpt>
      <trkpt lat="47.165" lon="-1.27572">
        <ele>52.073933</ele>
        <time>2020-07-07T16:29:19Z</time>
      </trkpt>
      <trkpt lat="47.16503" lon="-1.27578">
        <ele>52.335518</ele>
        <time>2020-07-07T16:29:21Z</time>
      </trkpt>
      <trkpt lat="47.16507" lon="-1.27584">
        <ele>51.928608</ele>
        <time>2020-07-07T16:29:23Z</time>
      </trkpt>
      <trkpt lat="47.16513" lon="-1.27589">
        <ele>50.079018</ele>
        <time>2020-07-07T16:29:25Z</time>
      </trkpt>
      <trkpt lat="47.16519" lon="-1.27588">
        <ele>51.23105</ele>
        <time>2020-07-07T16:29:27Z</time>
      </trkpt>
      <trkpt lat="47.16525" lon="-1.27583">
        <ele>51.32353</ele>
        <time>2020-07-07T16:29:29Z</time>
      </trkpt>
      <trkpt lat="47.16529" lon="-1.27577">
        <ele>52.335518</ele>
        <time>2020-07-07T16:29:31Z</time>
      </trkpt>
      <trkpt lat="47.16533" lon="-1.27572">
        <ele>51.928608</ele>
        <time>2020-07-07T16:29:33Z</time>
      </trkpt>
      <trkpt lat="47.16537" lon="-1.27567">
        <ele>52.53369</ele>
        <time>2020-07-07T16:29:35Z</time>
      </trkpt>
      <trkpt lat="47.16542" lon="-1.27562">
        <ele>51.43186</ele>
        <time>2020-07-07T16:29:38Z</time>
      </trkpt>
      <trkpt lat="47.16547" lon="-1.27556">
        <ele>52.018448</ele>
        <time>2020-07-07T16:29:41Z</time>
      </trkpt>
      <trkpt lat="47.16552" lon="-1.27552">
        <ele>51.904827</ele>
        <time>2020-07-07T16:29:43Z</time>
      </trkpt>
      <trkpt lat="47.16556" lon="-1.27545">
        <ele>52.02373</ele>
        <time>2020-07-07T16:29:45Z</time>
      </trkpt>
      <trkpt lat="47.1656" lon="-1.27537">
        <ele>51.772717</ele>
        <time>2020-07-07T16:29:47Z</time>
      </trkpt>
      <trkpt lat="47.16563" lon="-1.27529">
        <ele>52.23247</ele>
        <time>2020-07-07T16:29:49Z</time>
      </trkpt>
      <trkpt lat="47.16565" lon="-1.2752">
        <ele>52.026375</ele>
        <time>2020-07-07T16:29:51Z</time>
      </trkpt>
      <trkpt lat="47.16563" lon="-1.27512">
        <ele>51.80178</ele>
        <time>2020-07-07T16:29:53Z</time>
      </trkpt>
      <trkpt lat="47.16558" lon="-1.27505">
        <ele>51.74365</ele>
        <time>2020-07-07T16:29:55Z</time>
      </trkpt>
      <trkpt lat="47.16552" lon="-1.27499">
        <ele>52.02373</ele>
        <time>2020-07-07T16:29:57Z</time>
      </trkpt>
      <trkpt lat="47.16546" lon="-1.27493">
        <ele>52.361942</ele>
        <time>2020-07-07T16:29:59Z</time>
      </trkpt>
      <trkpt lat="47.16541" lon="-1.27488">
        <ele>51.540195</ele>
        <time>2020-07-07T16:30:01Z</time>
      </trkpt>
      <trkpt lat="47.16536" lon="-1.27482">
        <ele>51.902187</ele>
        <time>2020-07-07T16:30:03Z</time>
      </trkpt>
      <trkpt lat="47.16531" lon="-1.27478">
        <ele>51.157066</ele>
        <time>2020-07-07T16:30:05Z</time>
      </trkpt>
      <trkpt lat="47.16527" lon="-1.27472">
        <ele>51.566616</ele>
        <time>2020-07-07T16:30:07Z</time>
      </trkpt>
      <trkpt lat="47.16528" lon="-1.27465">
        <ele>50.980034</ele>
        <time>2020-07-07T16:30:09Z</time>
      </trkpt>
      <trkpt lat="47.1653" lon="-1.27459">
        <ele>51.101578</ele>
        <time>2020-07-07T16:30:11Z</time>
      </trkpt>
      <trkpt lat="47.16533" lon="-1.27452">
        <ele>51.51906</ele>
        <time>2020-07-07T16:30:13Z</time>
      </trkpt>
      <trkpt lat="47.16537" lon="-1.27444">
        <ele>51.997307</ele>
        <time>2020-07-07T16:30:15Z</time>
      </trkpt>
      <trkpt lat="47.16541" lon="-1.27436">
        <ele>52.348732</ele>
        <time>2020-07-07T16:30:17Z</time>
      </trkpt>
      <trkpt lat="47.16545" lon="-1.27428">
        <ele>51.873123</ele>
        <time>2020-07-07T16:30:19Z</time>
      </trkpt>
      <trkpt lat="47.16552" lon="-1.27425">
        <ele>52.676373</ele>
        <time>2020-07-07T16:30:21Z</time>
      </trkpt>
      <trkpt lat="47.16559" lon="-1.27424">
        <ele>51.03288</ele>
        <time>2020-07-07T16:30:23Z</time>
      </trkpt>
      <trkpt lat="47.16564" lon="-1.27424">
        <ele>52.113567</ele>
        <time>2020-07-07T16:30:25Z</time>
      </trkpt>
      <trkpt lat="47.1657" lon="-1.27421">
        <ele>53.051575</ele>
        <time>2020-07-07T16:30:28Z</time>
      </trkpt>
      <trkpt lat="47.16574" lon="-1.27418">
        <ele>52.90625</ele>
        <time>2020-07-07T16:30:30Z</time>
      </trkpt>
      <trkpt lat="47.16578" lon="-1.27415">
        <ele>53.096493</ele>
        <time>2020-07-07T16:30:32Z</time>
      </trkpt>
      <trkpt lat="47.16583" lon="-1.27411">
        <ele>54.227386</ele>
        <time>2020-07-07T16:30:34Z</time>
      </trkpt>
      <trkpt lat="47.16584" lon="-1.27408">
        <ele>52.192837</ele>
        <time>2020-07-07T16:30:35Z</time>
      </trkpt>
      <trkpt lat="47.16587" lon="-1.27402">
        <ele>54.541817</ele>
        <time>2020-07-07T16:30:37Z</time>
      </trkpt>
      <trkpt lat="47.16588" lon="-1.27399">
        <ele>53.80991</ele>
        <time>2020-07-07T16:30:38Z</time>
      </trkpt>
      <trkpt lat="47.1659" lon="-1.27394">
        <ele>52.816414</ele>
        <time>2020-07-07T16:30:40Z</time>
      </trkpt>
      <trkpt lat="47.16592" lon="-1.27391">
        <ele>54.364784</ele>
        <time>2020-07-07T16:30:41Z</time>
      </trkpt>
      <trkpt lat="47.16594" lon="-1.27385">
        <ele>53.4717</ele>
        <time>2020-07-07T16:30:43Z</time>
      </trkpt>
      <trkpt lat="47.16596" lon="-1.27379">
        <ele>54.166615</ele>
        <time>2020-07-07T16:30:45Z</time>
      </trkpt>
      <trkpt lat="47.16598" lon="-1.27373">
        <ele>53.136127</ele>
        <time>2020-07-07T16:30:47Z</time>
      </trkpt>
      <trkpt lat="47.166" lon="-1.27364">
        <ele>54.05564</ele>
        <time>2020-07-07T16:30:50Z</time>
      </trkpt>
      <trkpt lat="47.16603" lon="-1.27357">
        <ele>53.75706</ele>
        <time>2020-07-07T16:30:53Z</time>
      </trkpt>
      <trkpt lat="47.16605" lon="-1.2735">
        <ele>54.433483</ele>
        <time>2020-07-07T16:30:56Z</time>
      </trkpt>
      <trkpt lat="47.16608" lon="-1.27343">
        <ele>54.539177</ele>
        <time>2020-07-07T16:30:59Z</time>
      </trkpt>
      <trkpt lat="47.16611" lon="-1.27337">
        <ele>54.605232</ele>
        <time>2020-07-07T16:31:02Z</time>
      </trkpt>
      <trkpt lat="47.16616" lon="-1.27337">
        <ele>54.959297</ele>
        <time>2020-07-07T16:31:13Z</time>
      </trkpt>
      <trkpt lat="47.16617" lon="-1.27337">
        <ele>54.515396</ele>
        <time>2020-07-07T16:31:14Z</time>
      </trkpt>
      <trkpt lat="47.16621" lon="-1.2733">
        <ele>55.10462</ele>
        <time>2020-07-07T16:31:18Z</time>
      </trkpt>
      <trkpt lat="47.16622" lon="-1.27328">
        <ele>54.824543</ele>
        <time>2020-07-07T16:31:19Z</time>
      </trkpt>
      <trkpt lat="47.16625" lon="-1.27322">
        <ele>54.430843</ele>
        <time>2020-07-07T16:31:22Z</time>
      </trkpt>
      <trkpt lat="47.16629" lon="-1.27316">
        <ele>56.44954</ele>
        <time>2020-07-07T16:31:25Z</time>
      </trkpt>
      <trkpt lat="47.16631" lon="-1.27314">
        <ele>55.379417</ele>
        <time>2020-07-07T16:31:26Z</time>
      </trkpt>
      <trkpt lat="47.16633" lon="-1.27308">
        <ele>56.243443</ele>
        <time>2020-07-07T16:31:29Z</time>
      </trkpt>
      <trkpt lat="47.16636" lon="-1.27299">
        <ele>55.10198</ele>
        <time>2020-07-07T16:31:32Z</time>
      </trkpt>
      <trkpt lat="47.16637" lon="-1.27293">
        <ele>55.981857</ele>
        <time>2020-07-07T16:31:34Z</time>
      </trkpt>
      <trkpt lat="47.1664" lon="-1.27287">
        <ele>56.034702</ele>
        <time>2020-07-07T16:31:36Z</time>
      </trkpt>
      <trkpt lat="47.16642" lon="-1.2728">
        <ele>56.44954</ele>
        <time>2020-07-07T16:31:38Z</time>
      </trkpt>
      <trkpt lat="47.16645" lon="-1.27272">
        <ele>55.966003</ele>
        <time>2020-07-07T16:31:41Z</time>
      </trkpt>
      <trkpt lat="47.16647" lon="-1.27266">
        <ele>56.164173</ele>
        <time>2020-07-07T16:31:43Z</time>
      </trkpt>
      <trkpt lat="47.1665" lon="-1.27258">
        <ele>55.966003</ele>
        <time>2020-07-07T16:31:46Z</time>
      </trkpt>
      <trkpt lat="47.16651" lon="-1.27255">
        <ele>56.07698</ele>
        <time>2020-07-07T16:31:47Z</time>
      </trkpt>
      <trkpt lat="47.16655" lon="-1.27248">
        <ele>54.34893</ele>
        <time>2020-07-07T16:31:50Z</time>
      </trkpt>
      <trkpt lat="47.16661" lon="-1.27242">
        <ele>56.549946</ele>
        <time>2020-07-07T16:31:53Z</time>
      </trkpt>
      <trkpt lat="47.16663" lon="-1.27241">
        <ele>56.73755</ele>
        <time>2020-07-07T16:31:54Z</time>
      </trkpt>
      <trkpt lat="47.16668" lon="-1.27241">
        <ele>57.55401</ele>
        <time>2020-07-07T16:31:56Z</time>
      </trkpt>
      <trkpt lat="47.16672" lon="-1.27241">
        <ele>57.934498</ele>
        <time>2020-07-07T16:31:58Z</time>
      </trkpt>
      <trkpt lat="47.16679" lon="-1.27241">
        <ele>57.096897</ele>
        <time>2020-07-07T16:32:01Z</time>
      </trkpt>
      <trkpt lat="47.16684" lon="-1.27243">
        <ele>58.6347</ele>
        <time>2020-07-07T16:32:03Z</time>
      </trkpt>
      <trkpt lat="47.16686" lon="-1.27244">
        <ele>57.876366</ele>
        <time>2020-07-07T16:32:04Z</time>
      </trkpt>
      <trkpt lat="47.16691" lon="-1.27247">
        <ele>57.091614</ele>
        <time>2020-07-07T16:32:06Z</time>
      </trkpt>
      <trkpt lat="47.16697" lon="-1.27249">
        <ele>57.733685</ele>
        <time>2020-07-07T16:32:08Z</time>
      </trkpt>
      <trkpt lat="47.16704" lon="-1.27248">
        <ele>57.073116</ele>
        <time>2020-07-07T16:32:10Z</time>
      </trkpt>
      <trkpt lat="47.16709" lon="-1.27247">
        <ele>57.831448</ele>
        <time>2020-07-07T16:32:12Z</time>
      </trkpt>
      <trkpt lat="47.16715" lon="-1.27248">
        <ele>56.431046</ele>
        <time>2020-07-07T16:32:14Z</time>
      </trkpt>
      <trkpt lat="47.16719" lon="-1.27249">
        <ele>56.94893</ele>
        <time>2020-07-07T16:32:16Z</time>
      </trkpt>
      <trkpt lat="47.16726" lon="-1.27249">
        <ele>56.793034</ele>
        <time>2020-07-07T16:32:18Z</time>
      </trkpt>
      <trkpt lat="47.16732" lon="-1.27247">
        <ele>56.62657</ele>
        <time>2020-07-07T16:32:20Z</time>
      </trkpt>
      <trkpt lat="47.16739" lon="-1.27245">
        <ele>56.420475</ele>
        <time>2020-07-07T16:32:22Z</time>
      </trkpt>
      <trkpt lat="47.16745" lon="-1.27241">
        <ele>57.038765</ele>
        <time>2020-07-07T16:32:24Z</time>
      </trkpt>
      <trkpt lat="47.16752" lon="-1.27237">
        <ele>56.771896</ele>
        <time>2020-07-07T16:32:26Z</time>
      </trkpt>
      <trkpt lat="47.16758" lon="-1.27231">
        <ele>57.12596</ele>
        <time>2020-07-07T16:32:28Z</time>
      </trkpt>
      <trkpt lat="47.16764" lon="-1.27224">
        <ele>56.769257</ele>
        <time>2020-07-07T16:32:30Z</time>
      </trkpt>
      <trkpt lat="47.16769" lon="-1.27216">
        <ele>56.980637</ele>
        <time>2020-07-07T16:32:32Z</time>
      </trkpt>
      <trkpt lat="47.16775" lon="-1.27209">
        <ele>57.316204</ele>
        <time>2020-07-07T16:32:34Z</time>
      </trkpt>
      <trkpt lat="47.16781" lon="-1.27201">
        <ele>57.387547</ele>
        <time>2020-07-07T16:32:36Z</time>
      </trkpt>
      <trkpt lat="47.16788" lon="-1.27195">
        <ele>57.664986</ele>
        <time>2020-07-07T16:32:38Z</time>
      </trkpt>
      <trkpt lat="47.16796" lon="-1.27192">
        <ele>57.68084</ele>
        <time>2020-07-07T16:32:40Z</time>
      </trkpt>
      <trkpt lat="47.16803" lon="-1.27189">
        <ele>56.697914</ele>
        <time>2020-07-07T16:32:42Z</time>
      </trkpt>
      <trkpt lat="47.16809" lon="-1.27187">
        <ele>56.872303</ele>
        <time>2020-07-07T16:32:44Z</time>
      </trkpt>
      <trkpt lat="47.16814" lon="-1.2719">
        <ele>57.255432</ele>
        <time>2020-07-07T16:32:47Z</time>
      </trkpt>
      <trkpt lat="47.16813" lon="-1.27198">
        <ele>57.41397</ele>
        <time>2020-07-07T16:32:50Z</time>
      </trkpt>
      <trkpt lat="47.16811" lon="-1.27205">
        <ele>57.19202</ele>
        <time>2020-07-07T16:32:52Z</time>
      </trkpt>
      <trkpt lat="47.16807" lon="-1.27212">
        <ele>56.92779</ele>
        <time>2020-07-07T16:32:54Z</time>
      </trkpt>
      <trkpt lat="47.16804" lon="-1.27219">
        <ele>56.991207</ele>
        <time>2020-07-07T16:32:56Z</time>
      </trkpt>
      <trkpt lat="47.16803" lon="-1.27227">
        <ele>58.108887</ele>
        <time>2020-07-07T16:32:58Z</time>
      </trkpt>
      <trkpt lat="47.16806" lon="-1.27234">
        <ele>57.683483</ele>
        <time>2020-07-07T16:33:01Z</time>
      </trkpt>
      <trkpt lat="47.16811" lon="-1.27241">
        <ele>56.864376</ele>
        <time>2020-07-07T16:33:04Z</time>
      </trkpt>
      <trkpt lat="47.16813" lon="-1.27248">
        <ele>56.420475</ele>
        <time>2020-07-07T16:33:06Z</time>
      </trkpt>
      <trkpt lat="47.16811" lon="-1.27255">
        <ele>55.91316</ele>
        <time>2020-07-07T16:33:09Z</time>
      </trkpt>
      <trkpt lat="47.16808" lon="-1.27262">
        <ele>56.73755</ele>
        <time>2020-07-07T16:33:12Z</time>
      </trkpt>
      <trkpt lat="47.16804" lon="-1.27266">
        <ele>58.277992</ele>
        <time>2020-07-07T16:33:15Z</time>
      </trkpt>
      <trkpt lat="47.168" lon="-1.27262">
        <ele>56.919865</ele>
        <time>2020-07-07T16:34:40Z</time>
      </trkpt>
      <trkpt lat="47.168" lon="-1.27261">
        <ele>57.15767</ele>
        <time>2020-07-07T16:34:41Z</time>
      </trkpt>
      <trkpt lat="47.16803" lon="-1.27255">
        <ele>57.04669</ele>
        <time>2020-07-07T16:35:28Z</time>
      </trkpt>
      <trkpt lat="47.16798" lon="-1.27258">
        <ele>57.014988</ele>
        <time>2020-07-07T16:35:43Z</time>
      </trkpt>
      <trkpt lat="47.16796" lon="-1.27261">
        <ele>57.083687</ele>
        <time>2020-07-07T16:35:51Z</time>
      </trkpt>
      <trkpt lat="47.16796" lon="-1.27261">
        <ele>57.083687</ele>
        <time>2020-07-07T16:35:51Z</time>
      </trkpt>
    </trkseg>
  </trk>
</gpx>